<?xml version="1.0" encoding="UTF-8"?>
<gpx version="1.1" creator="https://www.youtrack.es" xsi:schemaLocation="http://www.topografix.com/GPX/1/1 http://www.topografix.com/GPX/1/1/gpx.xsd http://www.garmin.com/xmlschemas/GpxExtensions/v3 http://www.garmin.com/xmlschemas/GpxExtensionsv3.xsd http://www.garmin.com/xmlschemas/TrackPointExtension/v1 http://www.garmin.com/xmlschemas/TrackPointExtensionv1.xsd" xmlns:gpxtpx="http://www.garmin.com/xmlschemas/TrackPointExtension/v1" xmlns:gpxx="http://www.garmin.com/xmlschemas/GpxExtensions/v3" xmlns:xsi="http://www.w3.org/2001/XMLSchema-instance">
  <metadata>
    <link href="https://www.youtrack.es">
      <text>YouTrack.es</text>
    </link>
    <time>2026-05-08T20:30:15Z</time>
  </metadata>
  <trk>
    <src>https://www.youtrack.es</src>
    <link href="https://www.youtrack.es/ruta/11313-brevet-ricote">
      <text>YouTrack.es</text>
    </link>
    <trkseg>
      <trkpt lat="37.9978125728666782379150390625" lon="-1.12485400401055812835693359375">
        <ele>45.200000762939453125</ele>
        <time>2020-02-22T07:06:30.000Z</time>
      </trkpt>
      <trkpt lat="37.9978390596807003021240234375" lon="-1.1248669959604740142822265625">
        <ele>45.200000762939453125</ele>
        <time>2020-02-22T07:06:31.000Z</time>
      </trkpt>
      <trkpt lat="37.9979691468179225921630859375" lon="-1.12491603009402751922607421875">
        <ele>45</ele>
        <time>2020-02-22T07:06:36.000Z</time>
      </trkpt>
      <trkpt lat="37.99813804216682910919189453125" lon="-1.124978475272655487060546875">
        <ele>45</ele>
        <time>2020-02-22T07:06:42.000Z</time>
      </trkpt>
      <trkpt lat="37.998217754065990447998046875" lon="-1.1250024475157260894775390625">
        <ele>44.799999237060546875</ele>
        <time>2020-02-22T07:06:45.000Z</time>
      </trkpt>
      <trkpt lat="37.99828187562525272369384765625" lon="-1.12502533011138439178466796875">
        <ele>44.799999237060546875</ele>
        <time>2020-02-22T07:06:48.000Z</time>
      </trkpt>
      <trkpt lat="37.9983305744826793670654296875" lon="-1.12503035925328731536865234375">
        <ele>44.799999237060546875</ele>
        <time>2020-02-22T07:06:51.000Z</time>
      </trkpt>
      <trkpt lat="37.99842000938951969146728515625" lon="-1.12503404729068279266357421875">
        <ele>45</ele>
        <time>2020-02-22T07:06:56.000Z</time>
      </trkpt>
      <trkpt lat="37.99845772795379161834716796875" lon="-1.1250592768192291259765625">
        <ele>45</ele>
        <time>2020-02-22T07:06:58.000Z</time>
      </trkpt>
      <trkpt lat="37.99849796108901500701904296875" lon="-1.12513580359518527984619140625">
        <ele>45.200000762939453125</ele>
        <time>2020-02-22T07:07:01.000Z</time>
      </trkpt>
      <trkpt lat="37.99848295748233795166015625" lon="-1.125291623175144195556640625">
        <ele>45.200000762939453125</ele>
        <time>2020-02-22T07:07:06.000Z</time>
      </trkpt>
      <trkpt lat="37.99840844236314296722412109375" lon="-1.12555204890668392181396484375">
        <ele>45.200000762939453125</ele>
        <time>2020-02-22T07:07:15.000Z</time>
      </trkpt>
      <trkpt lat="37.99835915677249431610107421875" lon="-1.1257407255470752716064453125">
        <ele>45</ele>
        <time>2020-02-22T07:07:23.000Z</time>
      </trkpt>
      <trkpt lat="37.99832261167466640472412109375" lon="-1.12584658898413181304931640625">
        <ele>45</ele>
        <time>2020-02-22T07:07:31.000Z</time>
      </trkpt>
      <trkpt lat="37.9982663691043853759765625" lon="-1.1261618323624134063720703125">
        <ele>45.200000762939453125</ele>
        <time>2020-02-22T07:08:44.000Z</time>
      </trkpt>
      <trkpt lat="37.9982605017721652984619140625" lon="-1.1262412928044795989990234375">
        <ele>45.200000762939453125</ele>
        <time>2020-02-22T07:08:46.000Z</time>
      </trkpt>
      <trkpt lat="37.99825874157249927520751953125" lon="-1.1263780854642391204833984375">
        <ele>45.200000762939453125</ele>
        <time>2020-02-22T07:08:49.000Z</time>
      </trkpt>
      <trkpt lat="37.99823963083326816558837890625" lon="-1.12651194445788860321044921875">
        <ele>45.200000762939453125</ele>
        <time>2020-02-22T07:08:52.000Z</time>
      </trkpt>
      <trkpt lat="37.99822320230305194854736328125" lon="-1.12655301578342914581298828125">
        <ele>45.200000762939453125</ele>
        <time>2020-02-22T07:08:53.000Z</time>
      </trkpt>
      <trkpt lat="37.99807660281658172607421875" lon="-1.1267007887363433837890625">
        <ele>45.40000152587890625</ele>
        <time>2020-02-22T07:08:58.000Z</time>
      </trkpt>
      <trkpt lat="37.9979108087718486785888671875" lon="-1.1266805045306682586669921875">
        <ele>45.59999847412109375</ele>
        <time>2020-02-22T07:09:02.000Z</time>
      </trkpt>
      <trkpt lat="37.9975544102489948272705078125" lon="-1.126525104045867919921875">
        <ele>45.59999847412109375</ele>
        <time>2020-02-22T07:09:10.000Z</time>
      </trkpt>
      <trkpt lat="37.9974856786429882049560546875" lon="-1.12650255672633647918701171875">
        <ele>45.59999847412109375</ele>
        <time>2020-02-22T07:09:12.000Z</time>
      </trkpt>
      <trkpt lat="37.99739171750843524932861328125" lon="-1.12649283371865749359130859375">
        <ele>45.59999847412109375</ele>
        <time>2020-02-22T07:09:15.000Z</time>
      </trkpt>
      <trkpt lat="37.997180409729480743408203125" lon="-1.126460731029510498046875">
        <ele>45.59999847412109375</ele>
        <time>2020-02-22T07:09:21.000Z</time>
      </trkpt>
      <trkpt lat="37.99700497649610042572021484375" lon="-1.1264432966709136962890625">
        <ele>45.59999847412109375</ele>
        <time>2020-02-22T07:09:26.000Z</time>
      </trkpt>
      <trkpt lat="37.99690841697156429290771484375" lon="-1.12643818370997905731201171875">
        <ele>45.59999847412109375</ele>
        <time>2020-02-22T07:09:29.000Z</time>
      </trkpt>
      <trkpt lat="37.99675427377223968505859375" lon="-1.12638738937675952911376953125">
        <ele>45.59999847412109375</ele>
        <time>2020-02-22T07:09:33.000Z</time>
      </trkpt>
      <trkpt lat="37.99662477336823940277099609375" lon="-1.12631480209529399871826171875">
        <ele>45.59999847412109375</ele>
        <time>2020-02-22T07:09:36.000Z</time>
      </trkpt>
      <trkpt lat="37.99659275449812412261962890625" lon="-1.12630742602050304412841796875">
        <ele>45.799999237060546875</ele>
        <time>2020-02-22T07:09:37.000Z</time>
      </trkpt>
      <trkpt lat="37.9962733201682567596435546875" lon="-1.126090921461582183837890625">
        <ele>45.799999237060546875</ele>
        <time>2020-02-22T07:09:44.000Z</time>
      </trkpt>
      <trkpt lat="37.9961232841014862060546875" lon="-1.126003749668598175048828125">
        <ele>45.799999237060546875</ele>
        <time>2020-02-22T07:09:47.000Z</time>
      </trkpt>
      <trkpt lat="37.995876185595989227294921875" lon="-1.1258248798549175262451171875">
        <ele>45.799999237060546875</ele>
        <time>2020-02-22T07:09:51.000Z</time>
      </trkpt>
      <trkpt lat="37.99546279013156890869140625" lon="-1.12561960704624652862548828125">
        <ele>45.799999237060546875</ele>
        <time>2020-02-22T07:09:59.000Z</time>
      </trkpt>
      <trkpt lat="37.995280735194683074951171875" lon="-1.12554810941219329833984375">
        <ele>45.799999237060546875</ele>
        <time>2020-02-22T07:10:03.000Z</time>
      </trkpt>
      <trkpt lat="37.9951206408441066741943359375" lon="-1.12546437419950962066650390625">
        <ele>45.799999237060546875</ele>
        <time>2020-02-22T07:10:06.000Z</time>
      </trkpt>
      <trkpt lat="37.99470079131424427032470703125" lon="-1.12519196234643459320068359375">
        <ele>46</ele>
        <time>2020-02-22T07:10:13.000Z</time>
      </trkpt>
      <trkpt lat="37.9942210949957370758056640625" lon="-1.12494922243058681488037109375">
        <ele>46.40000152587890625</ele>
        <time>2020-02-22T07:10:22.000Z</time>
      </trkpt>
      <trkpt lat="37.99383510835468769073486328125" lon="-1.12473271787166595458984375">
        <ele>46.40000152587890625</ele>
        <time>2020-02-22T07:10:28.000Z</time>
      </trkpt>
      <trkpt lat="37.99377241171896457672119140625" lon="-1.12470195628702640533447265625">
        <ele>46.40000152587890625</ele>
        <time>2020-02-22T07:10:29.000Z</time>
      </trkpt>
      <trkpt lat="37.993342839181423187255859375" lon="-1.12451788969337940216064453125">
        <ele>46.40000152587890625</ele>
        <time>2020-02-22T07:10:36.000Z</time>
      </trkpt>
      <trkpt lat="37.9932803101837635040283203125" lon="-1.1244951747357845306396484375">
        <ele>46.40000152587890625</ele>
        <time>2020-02-22T07:10:37.000Z</time>
      </trkpt>
      <trkpt lat="37.9930177889764308929443359375" lon="-1.12438847310841083526611328125">
        <ele>46.59999847412109375</ele>
        <time>2020-02-22T07:10:41.000Z</time>
      </trkpt>
      <trkpt lat="37.99284101463854312896728515625" lon="-1.124319992959499359130859375">
        <ele>46.59999847412109375</ele>
        <time>2020-02-22T07:10:44.000Z</time>
      </trkpt>
      <trkpt lat="37.992683015763759613037109375" lon="-1.12427196465432643890380859375">
        <ele>46.59999847412109375</ele>
        <time>2020-02-22T07:10:47.000Z</time>
      </trkpt>
      <trkpt lat="37.9924867115914821624755859375" lon="-1.12421714700758457183837890625">
        <ele>46.799999237060546875</ele>
        <time>2020-02-22T07:10:51.000Z</time>
      </trkpt>
      <trkpt lat="37.99223131500184535980224609375" lon="-1.12412117421627044677734375">
        <ele>47</ele>
        <time>2020-02-22T07:10:56.000Z</time>
      </trkpt>
      <trkpt lat="37.99218244850635528564453125" lon="-1.12410516478121280670166015625">
        <ele>47</ele>
        <time>2020-02-22T07:10:57.000Z</time>
      </trkpt>
      <trkpt lat="37.991875000298023223876953125" lon="-1.12398915924131870269775390625">
        <ele>47.40000152587890625</ele>
        <time>2020-02-22T07:11:03.000Z</time>
      </trkpt>
      <trkpt lat="37.99179486930370330810546875" lon="-1.12395144067704677581787109375">
        <ele>47.59999847412109375</ele>
        <time>2020-02-22T07:11:05.000Z</time>
      </trkpt>
      <trkpt lat="37.99176896922290325164794921875" lon="-1.12394775263965129852294921875">
        <ele>47.59999847412109375</ele>
        <time>2020-02-22T07:11:06.000Z</time>
      </trkpt>
      <trkpt lat="37.99169973470270633697509765625" lon="-1.123933084309101104736328125">
        <ele>47.799999237060546875</ele>
        <time>2020-02-22T07:11:08.000Z</time>
      </trkpt>
      <trkpt lat="37.991620860993862152099609375" lon="-1.1239258758723735809326171875">
        <ele>47.799999237060546875</ele>
        <time>2020-02-22T07:11:10.000Z</time>
      </trkpt>
      <trkpt lat="37.99153494648635387420654296875" lon="-1.12405143678188323974609375">
        <ele>48.200000762939453125</ele>
        <time>2020-02-22T07:11:14.000Z</time>
      </trkpt>
      <trkpt lat="37.99154534004628658294677734375" lon="-1.12419401295483112335205078125">
        <ele>48.40000152587890625</ele>
        <time>2020-02-22T07:11:17.000Z</time>
      </trkpt>
      <trkpt lat="37.99158188514411449432373046875" lon="-1.1242948472499847412109375">
        <ele>48.40000152587890625</ele>
        <time>2020-02-22T07:11:19.000Z</time>
      </trkpt>
      <trkpt lat="37.9916357807815074920654296875" lon="-1.12450347281992435455322265625">
        <ele>48.40000152587890625</ele>
        <time>2020-02-22T07:11:24.000Z</time>
      </trkpt>
      <trkpt lat="37.99171985127031803131103515625" lon="-1.12477697432041168212890625">
        <ele>48.40000152587890625</ele>
        <time>2020-02-22T07:11:31.000Z</time>
      </trkpt>
      <trkpt lat="37.99185127951204776763916015625" lon="-1.1250845901668071746826171875">
        <ele>48.40000152587890625</ele>
        <time>2020-02-22T07:11:37.000Z</time>
      </trkpt>
      <trkpt lat="37.991885729134082794189453125" lon="-1.1251290142536163330078125">
        <ele>48.200000762939453125</ele>
        <time>2020-02-22T07:11:38.000Z</time>
      </trkpt>
      <trkpt lat="37.99204758368432521820068359375" lon="-1.12529522739350795745849609375">
        <ele>48</ele>
        <time>2020-02-22T07:11:42.000Z</time>
      </trkpt>
      <trkpt lat="37.99208194948732852935791015625" lon="-1.12534685991704463958740234375">
        <ele>48</ele>
        <time>2020-02-22T07:11:43.000Z</time>
      </trkpt>
      <trkpt lat="37.99211866222321987152099609375" lon="-1.12557602114975452423095703125">
        <ele>48</ele>
        <time>2020-02-22T07:11:47.000Z</time>
      </trkpt>
      <trkpt lat="37.99207222647964954376220703125" lon="-1.1257685534656047821044921875">
        <ele>48</ele>
        <time>2020-02-22T07:11:50.000Z</time>
      </trkpt>
      <trkpt lat="37.9920555464923381805419921875" lon="-1.12583502195775508880615234375">
        <ele>48</ele>
        <time>2020-02-22T07:11:51.000Z</time>
      </trkpt>
      <trkpt lat="37.9920444823801517486572265625" lon="-1.12590593285858631134033203125">
        <ele>48</ele>
        <time>2020-02-22T07:11:52.000Z</time>
      </trkpt>
      <trkpt lat="37.99204657785594463348388671875" lon="-1.12619041465222835540771484375">
        <ele>47.799999237060546875</ele>
        <time>2020-02-22T07:11:56.000Z</time>
      </trkpt>
      <trkpt lat="37.99205244518816471099853515625" lon="-1.12625881098210811614990234375">
        <ele>47.799999237060546875</ele>
        <time>2020-02-22T07:11:57.000Z</time>
      </trkpt>
      <trkpt lat="37.99206334166228771209716796875" lon="-1.126471459865570068359375">
        <ele>47.799999237060546875</ele>
        <time>2020-02-22T07:12:00.000Z</time>
      </trkpt>
      <trkpt lat="37.99207842908799648284912109375" lon="-1.12668377347290515899658203125">
        <ele>47.799999237060546875</ele>
        <time>2020-02-22T07:12:03.000Z</time>
      </trkpt>
      <trkpt lat="37.9920706339180469512939453125" lon="-1.12712122499942779541015625">
        <ele>47.799999237060546875</ele>
        <time>2020-02-22T07:12:09.000Z</time>
      </trkpt>
      <trkpt lat="37.99207474105060100555419921875" lon="-1.12726648338139057159423828125">
        <ele>47.799999237060546875</ele>
        <time>2020-02-22T07:12:11.000Z</time>
      </trkpt>
      <trkpt lat="37.9921205900609493255615234375" lon="-1.12769949249923229217529296875">
        <ele>47.799999237060546875</ele>
        <time>2020-02-22T07:12:18.000Z</time>
      </trkpt>
      <trkpt lat="37.99214079044759273529052734375" lon="-1.127865202724933624267578125">
        <ele>47.799999237060546875</ele>
        <time>2020-02-22T07:12:23.000Z</time>
      </trkpt>
      <trkpt lat="37.99219275824725627899169921875" lon="-1.12800040282309055328369140625">
        <ele>48</ele>
        <time>2020-02-22T07:12:30.000Z</time>
      </trkpt>
      <trkpt lat="37.99213777296245098114013671875" lon="-1.12803242169320583343505859375">
        <ele>48</ele>
        <time>2020-02-22T07:12:35.000Z</time>
      </trkpt>
      <trkpt lat="37.99226601608097553253173828125" lon="-1.12810400314629077911376953125">
        <ele>48.40000152587890625</ele>
        <time>2020-02-22T07:13:17.000Z</time>
      </trkpt>
      <trkpt lat="37.99226752482354640960693359375" lon="-1.1282113753259181976318359375">
        <ele>48.40000152587890625</ele>
        <time>2020-02-22T07:13:20.000Z</time>
      </trkpt>
      <trkpt lat="37.99224950373172760009765625" lon="-1.128257811069488525390625">
        <ele>48.40000152587890625</ele>
        <time>2020-02-22T07:13:21.000Z</time>
      </trkpt>
      <trkpt lat="37.99222745932638645172119140625" lon="-1.12860272638499736785888671875">
        <ele>48.200000762939453125</ele>
        <time>2020-02-22T07:13:27.000Z</time>
      </trkpt>
      <trkpt lat="37.99223617650568485260009765625" lon="-1.1286614835262298583984375">
        <ele>48.200000762939453125</ele>
        <time>2020-02-22T07:13:28.000Z</time>
      </trkpt>
      <trkpt lat="37.992254532873630523681640625" lon="-1.128780506551265716552734375">
        <ele>48.200000762939453125</ele>
        <time>2020-02-22T07:13:30.000Z</time>
      </trkpt>
      <trkpt lat="37.99227540381252765655517578125" lon="-1.12891486845910549163818359375">
        <ele>48</ele>
        <time>2020-02-22T07:13:32.000Z</time>
      </trkpt>
      <trkpt lat="37.99227858893573284149169921875" lon="-1.1289872042834758758544921875">
        <ele>48</ele>
        <time>2020-02-22T07:13:33.000Z</time>
      </trkpt>
      <trkpt lat="37.99227875657379627227783203125" lon="-1.12927361391484737396240234375">
        <ele>48</ele>
        <time>2020-02-22T07:13:37.000Z</time>
      </trkpt>
      <trkpt lat="37.99224757589399814605712890625" lon="-1.12934770993888378143310546875">
        <ele>47.799999237060546875</ele>
        <time>2020-02-22T07:13:38.000Z</time>
      </trkpt>
      <trkpt lat="37.99224573187530040740966796875" lon="-1.129422895610332489013671875">
        <ele>47.799999237060546875</ele>
        <time>2020-02-22T07:13:39.000Z</time>
      </trkpt>
      <trkpt lat="37.99237799830734729766845703125" lon="-1.12968298606574535369873046875">
        <ele>47.799999237060546875</ele>
        <time>2020-02-22T07:13:43.000Z</time>
      </trkpt>
      <trkpt lat="37.9924860410392284393310546875" lon="-1.1297673918306827545166015625">
        <ele>47.799999237060546875</ele>
        <time>2020-02-22T07:13:45.000Z</time>
      </trkpt>
      <trkpt lat="37.99266180954873561859130859375" lon="-1.12988926470279693603515625">
        <ele>47.59999847412109375</ele>
        <time>2020-02-22T07:13:48.000Z</time>
      </trkpt>
      <trkpt lat="37.992715872824192047119140625" lon="-1.12993813119828701019287109375">
        <ele>47.59999847412109375</ele>
        <time>2020-02-22T07:13:49.000Z</time>
      </trkpt>
      <trkpt lat="37.992900274693965911865234375" lon="-1.13021356053650379180908203125">
        <ele>47.59999847412109375</ele>
        <time>2020-02-22T07:13:53.000Z</time>
      </trkpt>
      <trkpt lat="37.9929363168776035308837890625" lon="-1.13029872067272663116455078125">
        <ele>47.59999847412109375</ele>
        <time>2020-02-22T07:13:54.000Z</time>
      </trkpt>
      <trkpt lat="37.99300722777843475341796875" lon="-1.1305583082139492034912109375">
        <ele>47.40000152587890625</ele>
        <time>2020-02-22T07:13:57.000Z</time>
      </trkpt>
      <trkpt lat="37.9930198006331920623779296875" lon="-1.13073893822729587554931640625">
        <ele>47.40000152587890625</ele>
        <time>2020-02-22T07:13:59.000Z</time>
      </trkpt>
      <trkpt lat="37.99295601435005664825439453125" lon="-1.13110908307135105133056640625">
        <ele>47.200000762939453125</ele>
        <time>2020-02-22T07:14:04.000Z</time>
      </trkpt>
      <trkpt lat="37.9927797429263591766357421875" lon="-1.13136473111808300018310546875">
        <ele>47.200000762939453125</ele>
        <time>2020-02-22T07:14:09.000Z</time>
      </trkpt>
      <trkpt lat="37.992644794285297393798828125" lon="-1.1314722709357738494873046875">
        <ele>47.200000762939453125</ele>
        <time>2020-02-22T07:14:12.000Z</time>
      </trkpt>
      <trkpt lat="37.992565333843231201171875" lon="-1.131514012813568115234375">
        <ele>47.200000762939453125</ele>
        <time>2020-02-22T07:14:14.000Z</time>
      </trkpt>
      <trkpt lat="37.99247070215642452239990234375" lon="-1.13154963590204715728759765625">
        <ele>47.40000152587890625</ele>
        <time>2020-02-22T07:14:17.000Z</time>
      </trkpt>
      <trkpt lat="37.99242409877479076385498046875" lon="-1.131559945642948150634765625">
        <ele>47.40000152587890625</ele>
        <time>2020-02-22T07:14:19.000Z</time>
      </trkpt>
      <trkpt lat="37.99231396056711673736572265625" lon="-1.13155064173042774200439453125">
        <ele>47.59999847412109375</ele>
        <time>2020-02-22T07:14:24.000Z</time>
      </trkpt>
      <trkpt lat="37.992210946977138519287109375" lon="-1.13153588958084583282470703125">
        <ele>47.799999237060546875</ele>
        <time>2020-02-22T07:14:28.000Z</time>
      </trkpt>
      <trkpt lat="37.99200366251170635223388671875" lon="-1.1314521543681621551513671875">
        <ele>47.799999237060546875</ele>
        <time>2020-02-22T07:14:33.000Z</time>
      </trkpt>
      <trkpt lat="37.99184390343725681304931640625" lon="-1.1313021183013916015625">
        <ele>47.799999237060546875</ele>
        <time>2020-02-22T07:14:37.000Z</time>
      </trkpt>
      <trkpt lat="37.99166821874678134918212890625" lon="-1.1310826800763607025146484375">
        <ele>47.799999237060546875</ele>
        <time>2020-02-22T07:14:42.000Z</time>
      </trkpt>
      <trkpt lat="37.9916279017925262451171875" lon="-1.1310622282326221466064453125">
        <ele>47.799999237060546875</ele>
        <time>2020-02-22T07:14:43.000Z</time>
      </trkpt>
      <trkpt lat="37.99149789847433567047119140625" lon="-1.13108418881893157958984375">
        <ele>48</ele>
        <time>2020-02-22T07:14:46.000Z</time>
      </trkpt>
      <trkpt lat="37.99141399562358856201171875" lon="-1.1311398446559906005859375">
        <ele>48</ele>
        <time>2020-02-22T07:14:48.000Z</time>
      </trkpt>
      <trkpt lat="37.99121609888970851898193359375" lon="-1.1311621405184268951416015625">
        <ele>48</ele>
        <time>2020-02-22T07:14:52.000Z</time>
      </trkpt>
      <trkpt lat="37.990857101976871490478515625" lon="-1.131253503262996673583984375">
        <ele>48</ele>
        <time>2020-02-22T07:14:59.000Z</time>
      </trkpt>
      <trkpt lat="37.9906105063855648040771484375" lon="-1.13135643303394317626953125">
        <ele>48.200000762939453125</ele>
        <time>2020-02-22T07:15:04.000Z</time>
      </trkpt>
      <trkpt lat="37.99045871011912822723388671875" lon="-1.13142608664929866790771484375">
        <ele>48.200000762939453125</ele>
        <time>2020-02-22T07:15:07.000Z</time>
      </trkpt>
      <trkpt lat="37.9903627373278141021728515625" lon="-1.13147185184061527252197265625">
        <ele>48.200000762939453125</ele>
        <time>2020-02-22T07:15:09.000Z</time>
      </trkpt>
      <trkpt lat="37.99010247923433780670166015625" lon="-1.131574027240276336669921875">
        <ele>48</ele>
        <time>2020-02-22T07:15:14.000Z</time>
      </trkpt>
      <trkpt lat="37.98988756723701953887939453125" lon="-1.13166245631873607635498046875">
        <ele>48.200000762939453125</ele>
        <time>2020-02-22T07:15:18.000Z</time>
      </trkpt>
      <trkpt lat="37.989745326340198516845703125" lon="-1.13173336721956729888916015625">
        <ele>48.200000762939453125</ele>
        <time>2020-02-22T07:15:21.000Z</time>
      </trkpt>
      <trkpt lat="37.98960895277559757232666015625" lon="-1.1318192817270755767822265625">
        <ele>48.200000762939453125</ele>
        <time>2020-02-22T07:15:24.000Z</time>
      </trkpt>
      <trkpt lat="37.98946981318295001983642578125" lon="-1.131884492933750152587890625">
        <ele>48.40000152587890625</ele>
        <time>2020-02-22T07:15:27.000Z</time>
      </trkpt>
      <trkpt lat="37.9894185997545719146728515625" lon="-1.13191676326096057891845703125">
        <ele>48.40000152587890625</ele>
        <time>2020-02-22T07:15:28.000Z</time>
      </trkpt>
      <trkpt lat="37.9893667995929718017578125" lon="-1.1319483630359172821044921875">
        <ele>48.40000152587890625</ele>
        <time>2020-02-22T07:15:29.000Z</time>
      </trkpt>
      <trkpt lat="37.98921148292720317840576171875" lon="-1.1320586688816547393798828125">
        <ele>48.59999847412109375</ele>
        <time>2020-02-22T07:15:33.000Z</time>
      </trkpt>
      <trkpt lat="37.989065386354923248291015625" lon="-1.132098734378814697265625">
        <ele>48.799999237060546875</ele>
        <time>2020-02-22T07:15:37.000Z</time>
      </trkpt>
      <trkpt lat="37.9887525737285614013671875" lon="-1.13213687203824520111083984375">
        <ele>49.200000762939453125</ele>
        <time>2020-02-22T07:15:43.000Z</time>
      </trkpt>
      <trkpt lat="37.98865341581404209136962890625" lon="-1.1321203596889972686767578125">
        <ele>49.40000152587890625</ele>
        <time>2020-02-22T07:15:45.000Z</time>
      </trkpt>
      <trkpt lat="37.9885978437960147857666015625" lon="-1.132099069654941558837890625">
        <ele>49.40000152587890625</ele>
        <time>2020-02-22T07:15:46.000Z</time>
      </trkpt>
      <trkpt lat="37.988488711416721343994140625" lon="-1.13207266665995121002197265625">
        <ele>49.40000152587890625</ele>
        <time>2020-02-22T07:15:48.000Z</time>
      </trkpt>
      <trkpt lat="37.98827287741005420684814453125" lon="-1.13206495530903339385986328125">
        <ele>49.40000152587890625</ele>
        <time>2020-02-22T07:15:52.000Z</time>
      </trkpt>
      <trkpt lat="37.988229207694530487060546875" lon="-1.13204852677881717681884765625">
        <ele>49.59999847412109375</ele>
        <time>2020-02-22T07:15:53.000Z</time>
      </trkpt>
      <trkpt lat="37.98809015192091464996337890625" lon="-1.1319678090512752532958984375">
        <ele>49.59999847412109375</ele>
        <time>2020-02-22T07:15:58.000Z</time>
      </trkpt>
      <trkpt lat="37.9879450611770153045654296875" lon="-1.1320844851434230804443359375">
        <ele>50</ele>
        <time>2020-02-22T07:16:02.000Z</time>
      </trkpt>
      <trkpt lat="37.98788018524646759033203125" lon="-1.13210803829133510589599609375">
        <ele>50.200000762939453125</ele>
        <time>2020-02-22T07:16:05.000Z</time>
      </trkpt>
      <trkpt lat="37.98778555355966091156005859375" lon="-1.1321414820849895477294921875">
        <ele>50.40000152587890625</ele>
        <time>2020-02-22T07:16:08.000Z</time>
      </trkpt>
      <trkpt lat="37.98774247057735919952392578125" lon="-1.13214441575109958648681640625">
        <ele>50.40000152587890625</ele>
        <time>2020-02-22T07:16:10.000Z</time>
      </trkpt>
      <trkpt lat="37.98771665431559085845947265625" lon="-1.13213821314275264739990234375">
        <ele>50.40000152587890625</ele>
        <time>2020-02-22T07:16:12.000Z</time>
      </trkpt>
      <trkpt lat="37.98769704066216945648193359375" lon="-1.13212312571704387664794921875">
        <ele>50.40000152587890625</ele>
        <time>2020-02-22T07:16:13.000Z</time>
      </trkpt>
      <trkpt lat="37.987600900232791900634765625" lon="-1.132129915058612823486328125">
        <ele>50.40000152587890625</ele>
        <time>2020-02-22T07:16:25.000Z</time>
      </trkpt>
      <trkpt lat="37.98751498572528362274169921875" lon="-1.1321642808616161346435546875">
        <ele>50.200000762939453125</ele>
        <time>2020-02-22T07:16:28.000Z</time>
      </trkpt>
      <trkpt lat="37.9874790273606777191162109375" lon="-1.13217190839350223541259765625">
        <ele>50.200000762939453125</ele>
        <time>2020-02-22T07:16:29.000Z</time>
      </trkpt>
      <trkpt lat="37.987412475049495697021484375" lon="-1.132182218134403228759765625">
        <ele>50.200000762939453125</ele>
        <time>2020-02-22T07:16:31.000Z</time>
      </trkpt>
      <trkpt lat="37.98724793829023838043212890625" lon="-1.13219571299850940704345703125">
        <ele>50</ele>
        <time>2020-02-22T07:16:35.000Z</time>
      </trkpt>
      <trkpt lat="37.98719756305217742919921875" lon="-1.1321926116943359375">
        <ele>50</ele>
        <time>2020-02-22T07:16:36.000Z</time>
      </trkpt>
      <trkpt lat="37.98707242123782634735107421875" lon="-1.13217744044959545135498046875">
        <ele>50</ele>
        <time>2020-02-22T07:16:38.000Z</time>
      </trkpt>
      <trkpt lat="37.98699363134801387786865234375" lon="-1.13217174075543880462646484375">
        <ele>50</ele>
        <time>2020-02-22T07:16:39.000Z</time>
      </trkpt>
      <trkpt lat="37.986762709915637969970703125" lon="-1.13219051621854305267333984375">
        <ele>50</ele>
        <time>2020-02-22T07:16:42.000Z</time>
      </trkpt>
      <trkpt lat="37.98661275766789913177490234375" lon="-1.1321854032576084136962890625">
        <ele>49.799999237060546875</ele>
        <time>2020-02-22T07:16:44.000Z</time>
      </trkpt>
      <trkpt lat="37.98637236468493938446044921875" lon="-1.132220439612865447998046875">
        <ele>49.59999847412109375</ele>
        <time>2020-02-22T07:16:48.000Z</time>
      </trkpt>
      <trkpt lat="37.986266501247882843017578125" lon="-1.1322310008108615875244140625">
        <ele>49.59999847412109375</ele>
        <time>2020-02-22T07:16:50.000Z</time>
      </trkpt>
      <trkpt lat="37.985899709165096282958984375" lon="-1.13219336606562137603759765625">
        <ele>49.59999847412109375</ele>
        <time>2020-02-22T07:16:57.000Z</time>
      </trkpt>
      <trkpt lat="37.98574405722320079803466796875" lon="-1.13215480931103229522705078125">
        <ele>49.59999847412109375</ele>
        <time>2020-02-22T07:17:00.000Z</time>
      </trkpt>
      <trkpt lat="37.98558128066360950469970703125" lon="-1.13209764473140239715576171875">
        <ele>49.40000152587890625</ele>
        <time>2020-02-22T07:17:03.000Z</time>
      </trkpt>
      <trkpt lat="37.98547960817813873291015625" lon="-1.13207836635410785675048828125">
        <ele>49.40000152587890625</ele>
        <time>2020-02-22T07:17:05.000Z</time>
      </trkpt>
      <trkpt lat="37.9853533767163753509521484375" lon="-1.13203494809567928314208984375">
        <ele>49.40000152587890625</ele>
        <time>2020-02-22T07:17:07.000Z</time>
      </trkpt>
      <trkpt lat="37.98527752049267292022705078125" lon="-1.13203075714409351348876953125">
        <ele>49.40000152587890625</ele>
        <time>2020-02-22T07:17:08.000Z</time>
      </trkpt>
      <trkpt lat="37.98492397181689739227294921875" lon="-1.13197342492640018463134765625">
        <ele>49.40000152587890625</ele>
        <time>2020-02-22T07:17:14.000Z</time>
      </trkpt>
      <trkpt lat="37.984754741191864013671875" lon="-1.13196051679551601409912109375">
        <ele>49.40000152587890625</ele>
        <time>2020-02-22T07:17:17.000Z</time>
      </trkpt>
      <trkpt lat="37.984632365405559539794921875" lon="-1.13193185068666934967041015625">
        <ele>49.40000152587890625</ele>
        <time>2020-02-22T07:17:19.000Z</time>
      </trkpt>
      <trkpt lat="37.98441887833178043365478515625" lon="-1.13191290758550167083740234375">
        <ele>49.59999847412109375</ele>
        <time>2020-02-22T07:17:23.000Z</time>
      </trkpt>
      <trkpt lat="37.98422156833112239837646484375" lon="-1.13188809715211391448974609375">
        <ele>49.59999847412109375</ele>
        <time>2020-02-22T07:17:27.000Z</time>
      </trkpt>
      <trkpt lat="37.984145544469356536865234375" lon="-1.13187518902122974395751953125">
        <ele>49.799999237060546875</ele>
        <time>2020-02-22T07:17:28.000Z</time>
      </trkpt>
      <trkpt lat="37.98384211957454681396484375" lon="-1.131796650588512420654296875">
        <ele>50</ele>
        <time>2020-02-22T07:17:31.000Z</time>
      </trkpt>
      <trkpt lat="37.9836719669401645660400390625" lon="-1.13179472275078296661376953125">
        <ele>50</ele>
        <time>2020-02-22T07:17:33.000Z</time>
      </trkpt>
      <trkpt lat="37.98345630057156085968017578125" lon="-1.13181777298450469970703125">
        <ele>50</ele>
        <time>2020-02-22T07:17:36.000Z</time>
      </trkpt>
      <trkpt lat="37.98330492340028285980224609375" lon="-1.1318103969097137451171875">
        <ele>50.200000762939453125</ele>
        <time>2020-02-22T07:17:38.000Z</time>
      </trkpt>
      <trkpt lat="37.98323485068976879119873046875" lon="-1.13180159591138362884521484375">
        <ele>50.200000762939453125</ele>
        <time>2020-02-22T07:17:39.000Z</time>
      </trkpt>
      <trkpt lat="37.9831137321889400482177734375" lon="-1.13177527673542499542236328125">
        <ele>50.200000762939453125</ele>
        <time>2020-02-22T07:17:41.000Z</time>
      </trkpt>
      <trkpt lat="37.98295774497091770172119140625" lon="-1.131735630333423614501953125">
        <ele>51</ele>
        <time>2020-02-22T07:17:44.000Z</time>
      </trkpt>
      <trkpt lat="37.98290376551449298858642578125" lon="-1.13171811215579509735107421875">
        <ele>51.40000152587890625</ele>
        <time>2020-02-22T07:17:45.000Z</time>
      </trkpt>
      <trkpt lat="37.9828007519245147705078125" lon="-1.1316831596195697784423828125">
        <ele>52.40000152587890625</ele>
        <time>2020-02-22T07:17:47.000Z</time>
      </trkpt>
      <trkpt lat="37.98268969170749187469482421875" lon="-1.13163814879953861236572265625">
        <ele>53</ele>
        <time>2020-02-22T07:17:49.000Z</time>
      </trkpt>
      <trkpt lat="37.9826403222978115081787109375" lon="-1.13162054680287837982177734375">
        <ele>53.40000152587890625</ele>
        <time>2020-02-22T07:17:50.000Z</time>
      </trkpt>
      <trkpt lat="37.9824666492640972137451171875" lon="-1.13157846964895725250244140625">
        <ele>53.799999237060546875</ele>
        <time>2020-02-22T07:17:54.000Z</time>
      </trkpt>
      <trkpt lat="37.98216448165476322174072265625" lon="-1.1314642243087291717529296875">
        <ele>53.799999237060546875</ele>
        <time>2020-02-22T07:17:59.000Z</time>
      </trkpt>
      <trkpt lat="37.98185057938098907470703125" lon="-1.13127328455448150634765625">
        <ele>52.200000762939453125</ele>
        <time>2020-02-22T07:18:05.000Z</time>
      </trkpt>
      <trkpt lat="37.98176986165344715118408203125" lon="-1.13121561706066131591796875">
        <ele>51.40000152587890625</ele>
        <time>2020-02-22T07:18:07.000Z</time>
      </trkpt>
      <trkpt lat="37.9817176423966884613037109375" lon="-1.131181754171848297119140625">
        <ele>51.200000762939453125</ele>
        <time>2020-02-22T07:18:09.000Z</time>
      </trkpt>
      <trkpt lat="37.98167531378567218780517578125" lon="-1.1311373300850391387939453125">
        <ele>51.200000762939453125</ele>
        <time>2020-02-22T07:18:11.000Z</time>
      </trkpt>
      <trkpt lat="37.98161613754928112030029296875" lon="-1.13109617494046688079833984375">
        <ele>51</ele>
        <time>2020-02-22T07:18:14.000Z</time>
      </trkpt>
      <trkpt lat="37.98160239122807979583740234375" lon="-1.13108645193278789520263671875">
        <ele>51</ele>
        <time>2020-02-22T07:18:15.000Z</time>
      </trkpt>
      <trkpt lat="37.98152267932891845703125" lon="-1.1310082487761974334716796875">
        <ele>51.200000762939453125</ele>
        <time>2020-02-22T07:18:24.000Z</time>
      </trkpt>
      <trkpt lat="37.9815114475786685943603515625" lon="-1.13099634647369384765625">
        <ele>51.200000762939453125</ele>
        <time>2020-02-22T07:18:25.000Z</time>
      </trkpt>
      <trkpt lat="37.98146962188184261322021484375" lon="-1.13098092377185821533203125">
        <ele>51.200000762939453125</ele>
        <time>2020-02-22T07:18:27.000Z</time>
      </trkpt>
      <trkpt lat="37.9813977889716625213623046875" lon="-1.130963154137134552001953125">
        <ele>51</ele>
        <time>2020-02-22T07:18:30.000Z</time>
      </trkpt>
      <trkpt lat="37.981325201690196990966796875" lon="-1.1309542693197727203369140625">
        <ele>51</ele>
        <time>2020-02-22T07:18:32.000Z</time>
      </trkpt>
      <trkpt lat="37.98124079592525959014892578125" lon="-1.13095670007169246673583984375">
        <ele>50.799999237060546875</ele>
        <time>2020-02-22T07:18:34.000Z</time>
      </trkpt>
      <trkpt lat="37.98117927275598049163818359375" lon="-1.13093130290508270263671875">
        <ele>50.799999237060546875</ele>
        <time>2020-02-22T07:18:35.000Z</time>
      </trkpt>
      <trkpt lat="37.981118001043796539306640625" lon="-1.13090892322361469268798828125">
        <ele>50.59999847412109375</ele>
        <time>2020-02-22T07:18:36.000Z</time>
      </trkpt>
      <trkpt lat="37.9809998162090778350830078125" lon="-1.1308583803474903106689453125">
        <ele>50.59999847412109375</ele>
        <time>2020-02-22T07:18:38.000Z</time>
      </trkpt>
      <trkpt lat="37.98072631470859050750732421875" lon="-1.13077900372445583343505859375">
        <ele>50.59999847412109375</ele>
        <time>2020-02-22T07:18:43.000Z</time>
      </trkpt>
      <trkpt lat="37.98061869107186794281005859375" lon="-1.13072435371577739715576171875">
        <ele>50.59999847412109375</ele>
        <time>2020-02-22T07:18:45.000Z</time>
      </trkpt>
      <trkpt lat="37.980517186224460601806640625" lon="-1.13068680278956890106201171875">
        <ele>50.59999847412109375</ele>
        <time>2020-02-22T07:18:47.000Z</time>
      </trkpt>
      <trkpt lat="37.98043328337371349334716796875" lon="-1.13065763376653194427490234375">
        <ele>50.59999847412109375</ele>
        <time>2020-02-22T07:18:49.000Z</time>
      </trkpt>
      <trkpt lat="37.9803393222391605377197265625" lon="-1.13063315860927104949951171875">
        <ele>50.59999847412109375</ele>
        <time>2020-02-22T07:18:53.000Z</time>
      </trkpt>
      <trkpt lat="37.980320714414119720458984375" lon="-1.13063667900860309600830078125">
        <ele>50.59999847412109375</ele>
        <time>2020-02-22T07:18:55.000Z</time>
      </trkpt>
      <trkpt lat="37.98029967583715915679931640625" lon="-1.130629889667034149169921875">
        <ele>50.799999237060546875</ele>
        <time>2020-02-22T07:18:58.000Z</time>
      </trkpt>
      <trkpt lat="37.9801535792648792266845703125" lon="-1.1305283010005950927734375">
        <ele>50.799999237060546875</ele>
        <time>2020-02-22T07:19:08.000Z</time>
      </trkpt>
      <trkpt lat="37.98008241690695285797119140625" lon="-1.13047893159091472625732421875">
        <ele>50.799999237060546875</ele>
        <time>2020-02-22T07:19:10.000Z</time>
      </trkpt>
      <trkpt lat="37.97981134615838527679443359375" lon="-1.13028799183666706085205078125">
        <ele>50.799999237060546875</ele>
        <time>2020-02-22T07:19:14.000Z</time>
      </trkpt>
      <trkpt lat="37.97976139001548290252685546875" lon="-1.13029553554952144622802734375">
        <ele>50.799999237060546875</ele>
        <time>2020-02-22T07:19:15.000Z</time>
      </trkpt>
      <trkpt lat="37.97970690764486789703369140625" lon="-1.13031079061329364776611328125">
        <ele>50.799999237060546875</ele>
        <time>2020-02-22T07:19:16.000Z</time>
      </trkpt>
      <trkpt lat="37.979497276246547698974609375" lon="-1.1303299851715564727783203125">
        <ele>50.799999237060546875</ele>
        <time>2020-02-22T07:19:19.000Z</time>
      </trkpt>
      <trkpt lat="37.9793713800609111785888671875" lon="-1.130411960184574127197265625">
        <ele>50.799999237060546875</ele>
        <time>2020-02-22T07:19:21.000Z</time>
      </trkpt>
      <trkpt lat="37.97925151884555816650390625" lon="-1.13049946725368499755859375">
        <ele>50.799999237060546875</ele>
        <time>2020-02-22T07:19:23.000Z</time>
      </trkpt>
      <trkpt lat="37.9791433922946453094482421875" lon="-1.13059200346469879150390625">
        <ele>50.799999237060546875</ele>
        <time>2020-02-22T07:19:25.000Z</time>
      </trkpt>
      <trkpt lat="37.97882362268865108489990234375" lon="-1.1308969371020793914794921875">
        <ele>50.59999847412109375</ele>
        <time>2020-02-22T07:19:31.000Z</time>
      </trkpt>
      <trkpt lat="37.97872588969767093658447265625" lon="-1.1309810914099216461181640625">
        <ele>50.59999847412109375</ele>
        <time>2020-02-22T07:19:33.000Z</time>
      </trkpt>
      <trkpt lat="37.9786374606192111968994140625" lon="-1.13105200231075286865234375">
        <ele>50.40000152587890625</ele>
        <time>2020-02-22T07:19:35.000Z</time>
      </trkpt>
      <trkpt lat="37.97854551114141941070556640625" lon="-1.13110740669071674346923828125">
        <ele>50.40000152587890625</ele>
        <time>2020-02-22T07:19:37.000Z</time>
      </trkpt>
      <trkpt lat="37.978346608579158782958984375" lon="-1.1312670819461345672607421875">
        <ele>50.40000152587890625</ele>
        <time>2020-02-22T07:19:42.000Z</time>
      </trkpt>
      <trkpt lat="37.97828600741922855377197265625" lon="-1.13133363425731658935546875">
        <ele>50.40000152587890625</ele>
        <time>2020-02-22T07:19:44.000Z</time>
      </trkpt>
      <trkpt lat="37.97818575985729694366455078125" lon="-1.13139959983527660369873046875">
        <ele>50.40000152587890625</ele>
        <time>2020-02-22T07:19:47.000Z</time>
      </trkpt>
      <trkpt lat="37.97809070907533168792724609375" lon="-1.13146296702325344085693359375">
        <ele>50.40000152587890625</ele>
        <time>2020-02-22T07:19:50.000Z</time>
      </trkpt>
      <trkpt lat="37.9779819957911968231201171875" lon="-1.131523065268993377685546875">
        <ele>50.40000152587890625</ele>
        <time>2020-02-22T07:19:53.000Z</time>
      </trkpt>
      <trkpt lat="37.97790764831006526947021484375" lon="-1.1315824091434478759765625">
        <ele>50.40000152587890625</ele>
        <time>2020-02-22T07:19:55.000Z</time>
      </trkpt>
      <trkpt lat="37.977861799299716949462890625" lon="-1.13161233253777027130126953125">
        <ele>50.40000152587890625</ele>
        <time>2020-02-22T07:19:56.000Z</time>
      </trkpt>
      <trkpt lat="37.97771452926099300384521484375" lon="-1.13174174912273883819580078125">
        <ele>50.200000762939453125</ele>
        <time>2020-02-22T07:19:59.000Z</time>
      </trkpt>
      <trkpt lat="37.977506406605243682861328125" lon="-1.13196034915745258331298828125">
        <ele>50.200000762939453125</ele>
        <time>2020-02-22T07:20:03.000Z</time>
      </trkpt>
      <trkpt lat="37.97736651264131069183349609375" lon="-1.1321029253304004669189453125">
        <ele>50.200000762939453125</ele>
        <time>2020-02-22T07:20:06.000Z</time>
      </trkpt>
      <trkpt lat="37.97717942856252193450927734375" lon="-1.13226058892905712127685546875">
        <ele>50</ele>
        <time>2020-02-22T07:20:10.000Z</time>
      </trkpt>
      <trkpt lat="37.97708102501928806304931640625" lon="-1.13233049400150775909423828125">
        <ele>49.799999237060546875</ele>
        <time>2020-02-22T07:20:12.000Z</time>
      </trkpt>
      <trkpt lat="37.97676435671746730804443359375" lon="-1.13258429802954196929931640625">
        <ele>49.799999237060546875</ele>
        <time>2020-02-22T07:20:19.000Z</time>
      </trkpt>
      <trkpt lat="37.976671569049358367919921875" lon="-1.132635176181793212890625">
        <ele>49.799999237060546875</ele>
        <time>2020-02-22T07:20:21.000Z</time>
      </trkpt>
      <trkpt lat="37.97658766619861125946044921875" lon="-1.13267884589731693267822265625">
        <ele>49.799999237060546875</ele>
        <time>2020-02-22T07:20:23.000Z</time>
      </trkpt>
      <trkpt lat="37.9764973931014537811279296875" lon="-1.13277624361217021942138671875">
        <ele>50</ele>
        <time>2020-02-22T07:20:25.000Z</time>
      </trkpt>
      <trkpt lat="37.97645472921431064605712890625" lon="-1.13285335712134838104248046875">
        <ele>50</ele>
        <time>2020-02-22T07:20:26.000Z</time>
      </trkpt>
      <trkpt lat="37.97637845389544963836669921875" lon="-1.13301127217710018157958984375">
        <ele>49.799999237060546875</ele>
        <time>2020-02-22T07:20:28.000Z</time>
      </trkpt>
      <trkpt lat="37.976353056728839874267578125" lon="-1.13308377563953399658203125">
        <ele>49.799999237060546875</ele>
        <time>2020-02-22T07:20:29.000Z</time>
      </trkpt>
      <trkpt lat="37.97632346861064434051513671875" lon="-1.1332545988261699676513671875">
        <ele>49.799999237060546875</ele>
        <time>2020-02-22T07:20:31.000Z</time>
      </trkpt>
      <trkpt lat="37.9762982390820980072021484375" lon="-1.13343112170696258544921875">
        <ele>49.799999237060546875</ele>
        <time>2020-02-22T07:20:33.000Z</time>
      </trkpt>
      <trkpt lat="37.97626429237425327301025390625" lon="-1.13376899622380733489990234375">
        <ele>49.799999237060546875</ele>
        <time>2020-02-22T07:20:37.000Z</time>
      </trkpt>
      <trkpt lat="37.9762523062527179718017578125" lon="-1.13391735590994358062744140625">
        <ele>49.799999237060546875</ele>
        <time>2020-02-22T07:20:39.000Z</time>
      </trkpt>
      <trkpt lat="37.97622523270547389984130859375" lon="-1.1341430805623531341552734375">
        <ele>49.799999237060546875</ele>
        <time>2020-02-22T07:20:42.000Z</time>
      </trkpt>
      <trkpt lat="37.97617561183869838714599609375" lon="-1.134547926485538482666015625">
        <ele>49.799999237060546875</ele>
        <time>2020-02-22T07:20:48.000Z</time>
      </trkpt>
      <trkpt lat="37.9761664755642414093017578125" lon="-1.13461540080606937408447265625">
        <ele>50</ele>
        <time>2020-02-22T07:20:49.000Z</time>
      </trkpt>
      <trkpt lat="37.97613479197025299072265625" lon="-1.13493743352591991424560546875">
        <ele>50</ele>
        <time>2020-02-22T07:20:55.000Z</time>
      </trkpt>
      <trkpt lat="37.976167984306812286376953125" lon="-1.134953610599040985107421875">
        <ele>50</ele>
        <time>2020-02-22T07:20:56.000Z</time>
      </trkpt>
      <trkpt lat="37.97628457657992839813232421875" lon="-1.1350436322391033172607421875">
        <ele>50</ele>
        <time>2020-02-22T07:20:58.000Z</time>
      </trkpt>
      <trkpt lat="37.97634408809244632720947265625" lon="-1.13508311100304126739501953125">
        <ele>50</ele>
        <time>2020-02-22T07:20:59.000Z</time>
      </trkpt>
      <trkpt lat="37.976502589881420135498046875" lon="-1.1352075822651386260986328125">
        <ele>50</ele>
        <time>2020-02-22T07:21:02.000Z</time>
      </trkpt>
      <trkpt lat="37.97655715607106685638427734375" lon="-1.1354121007025241851806640625">
        <ele>50</ele>
        <time>2020-02-22T07:21:05.000Z</time>
      </trkpt>
      <trkpt lat="37.976477444171905517578125" lon="-1.135611422359943389892578125">
        <ele>49.799999237060546875</ele>
        <time>2020-02-22T07:21:08.000Z</time>
      </trkpt>
      <trkpt lat="37.9763850755989551544189453125" lon="-1.13572516478598117828369140625">
        <ele>49.799999237060546875</ele>
        <time>2020-02-22T07:21:10.000Z</time>
      </trkpt>
      <trkpt lat="37.97630988992750644683837890625" lon="-1.1358479596674442291259765625">
        <ele>49.799999237060546875</ele>
        <time>2020-02-22T07:21:12.000Z</time>
      </trkpt>
      <trkpt lat="37.976292707026004791259765625" lon="-1.135923229157924652099609375">
        <ele>49.799999237060546875</ele>
        <time>2020-02-22T07:21:13.000Z</time>
      </trkpt>
      <trkpt lat="37.97627485357224941253662109375" lon="-1.13617560826241970062255859375">
        <ele>49.59999847412109375</ele>
        <time>2020-02-22T07:21:16.000Z</time>
      </trkpt>
      <trkpt lat="37.97626328654587268829345703125" lon="-1.1363406479358673095703125">
        <ele>49.59999847412109375</ele>
        <time>2020-02-22T07:21:18.000Z</time>
      </trkpt>
      <trkpt lat="37.9762472771108150482177734375" lon="-1.13651096820831298828125">
        <ele>49.59999847412109375</ele>
        <time>2020-02-22T07:21:20.000Z</time>
      </trkpt>
      <trkpt lat="37.97620293684303760528564453125" lon="-1.1369007267057895660400390625">
        <ele>49.799999237060546875</ele>
        <time>2020-02-22T07:21:24.000Z</time>
      </trkpt>
      <trkpt lat="37.9762067086994647979736328125" lon="-1.13700038753449916839599609375">
        <ele>49.799999237060546875</ele>
        <time>2020-02-22T07:21:25.000Z</time>
      </trkpt>
      <trkpt lat="37.97626747749745845794677734375" lon="-1.13729174248874187469482421875">
        <ele>49.799999237060546875</ele>
        <time>2020-02-22T07:21:28.000Z</time>
      </trkpt>
      <trkpt lat="37.97628491185605525970458984375" lon="-1.1373960971832275390625">
        <ele>49.799999237060546875</ele>
        <time>2020-02-22T07:21:29.000Z</time>
      </trkpt>
      <trkpt lat="37.97628608532249927520751953125" lon="-1.1374924890697002410888671875">
        <ele>49.799999237060546875</ele>
        <time>2020-02-22T07:21:30.000Z</time>
      </trkpt>
      <trkpt lat="37.97623193822801113128662109375" lon="-1.13766364753246307373046875">
        <ele>49.799999237060546875</ele>
        <time>2020-02-22T07:21:32.000Z</time>
      </trkpt>
      <trkpt lat="37.97606765292584896087646484375" lon="-1.13781963475048542022705078125">
        <ele>49.799999237060546875</ele>
        <time>2020-02-22T07:21:35.000Z</time>
      </trkpt>
      <trkpt lat="37.97601484693586826324462890625" lon="-1.13787679933011531829833984375">
        <ele>49.799999237060546875</ele>
        <time>2020-02-22T07:21:36.000Z</time>
      </trkpt>
      <trkpt lat="37.97590169124305248260498046875" lon="-1.138101853430271148681640625">
        <ele>49.799999237060546875</ele>
        <time>2020-02-22T07:21:39.000Z</time>
      </trkpt>
      <trkpt lat="37.975860200822353363037109375" lon="-1.1382820643484592437744140625">
        <ele>49.59999847412109375</ele>
        <time>2020-02-22T07:21:41.000Z</time>
      </trkpt>
      <trkpt lat="37.97580932267010211944580078125" lon="-1.138569898903369903564453125">
        <ele>49.799999237060546875</ele>
        <time>2020-02-22T07:21:44.000Z</time>
      </trkpt>
      <trkpt lat="37.97575249336659908294677734375" lon="-1.138983629643917083740234375">
        <ele>49.799999237060546875</ele>
        <time>2020-02-22T07:21:49.000Z</time>
      </trkpt>
      <trkpt lat="37.9757322929799556732177734375" lon="-1.13936726935207843780517578125">
        <ele>50</ele>
        <time>2020-02-22T07:21:54.000Z</time>
      </trkpt>
      <trkpt lat="37.97571326605975627899169921875" lon="-1.1394494958221912384033203125">
        <ele>50</ele>
        <time>2020-02-22T07:21:55.000Z</time>
      </trkpt>
      <trkpt lat="37.9757011123001575469970703125" lon="-1.1395343206822872161865234375">
        <ele>50</ele>
        <time>2020-02-22T07:21:56.000Z</time>
      </trkpt>
      <trkpt lat="37.9756699316203594207763671875" lon="-1.1398870311677455902099609375">
        <ele>50</ele>
        <time>2020-02-22T07:22:00.000Z</time>
      </trkpt>
      <trkpt lat="37.97565945424139499664306640625" lon="-1.14007629454135894775390625">
        <ele>50</ele>
        <time>2020-02-22T07:22:02.000Z</time>
      </trkpt>
      <trkpt lat="37.97559524886310100555419921875" lon="-1.14081096835434436798095703125">
        <ele>50</ele>
        <time>2020-02-22T07:22:10.000Z</time>
      </trkpt>
      <trkpt lat="37.97554931603372097015380859375" lon="-1.1412398703396320343017578125">
        <ele>50</ele>
        <time>2020-02-22T07:22:15.000Z</time>
      </trkpt>
      <trkpt lat="37.97554395161569118499755859375" lon="-1.14132863469421863555908203125">
        <ele>50.200000762939453125</ele>
        <time>2020-02-22T07:22:16.000Z</time>
      </trkpt>
      <trkpt lat="37.97552651725709438323974609375" lon="-1.14167447201907634735107421875">
        <ele>50.200000762939453125</ele>
        <time>2020-02-22T07:22:20.000Z</time>
      </trkpt>
      <trkpt lat="37.97549768351018428802490234375" lon="-1.1420237459242343902587890625">
        <ele>50.200000762939453125</ele>
        <time>2020-02-22T07:22:24.000Z</time>
      </trkpt>
      <trkpt lat="37.9754917323589324951171875" lon="-1.14210446365177631378173828125">
        <ele>50.200000762939453125</ele>
        <time>2020-02-22T07:22:25.000Z</time>
      </trkpt>
      <trkpt lat="37.9754711128771305084228515625" lon="-1.1423647217452526092529296875">
        <ele>50.200000762939453125</ele>
        <time>2020-02-22T07:22:29.000Z</time>
      </trkpt>
      <trkpt lat="37.97546817921102046966552734375" lon="-1.1424130015075206756591796875">
        <ele>50.200000762939453125</ele>
        <time>2020-02-22T07:22:30.000Z</time>
      </trkpt>
      <trkpt lat="37.97546021640300750732421875" lon="-1.1424948088824748992919921875">
        <ele>50.40000152587890625</ele>
        <time>2020-02-22T07:22:32.000Z</time>
      </trkpt>
      <trkpt lat="37.97545208595693111419677734375" lon="-1.14256513305008411407470703125">
        <ele>50.40000152587890625</ele>
        <time>2020-02-22T07:22:35.000Z</time>
      </trkpt>
      <trkpt lat="37.97543716616928577423095703125" lon="-1.14283360540866851806640625">
        <ele>50.59999847412109375</ele>
        <time>2020-02-22T07:22:43.000Z</time>
      </trkpt>
      <trkpt lat="37.97543448396027088165283203125" lon="-1.14289286546409130096435546875">
        <ele>50.59999847412109375</ele>
        <time>2020-02-22T07:22:47.000Z</time>
      </trkpt>
      <trkpt lat="37.97543381340801715850830078125" lon="-1.1428988166153430938720703125">
        <ele>50.59999847412109375</ele>
        <time>2020-02-22T07:22:48.000Z</time>
      </trkpt>
      <trkpt lat="37.97542526386678218841552734375" lon="-1.14298640750348567962646484375">
        <ele>50.40000152587890625</ele>
        <time>2020-02-22T07:23:01.000Z</time>
      </trkpt>
      <trkpt lat="37.97542266547679901123046875" lon="-1.1430523730814456939697265625">
        <ele>50.40000152587890625</ele>
        <time>2020-02-22T07:23:03.000Z</time>
      </trkpt>
      <trkpt lat="37.97541805543005466461181640625" lon="-1.1431006528437137603759765625">
        <ele>50.40000152587890625</ele>
        <time>2020-02-22T07:23:04.000Z</time>
      </trkpt>
      <trkpt lat="37.97540187835693359375" lon="-1.14327658899128437042236328125">
        <ele>50.200000762939453125</ele>
        <time>2020-02-22T07:23:07.000Z</time>
      </trkpt>
      <trkpt lat="37.9753842763602733612060546875" lon="-1.143481694161891937255859375">
        <ele>50.200000762939453125</ele>
        <time>2020-02-22T07:23:10.000Z</time>
      </trkpt>
      <trkpt lat="37.97535804100334644317626953125" lon="-1.14377514459192752838134765625">
        <ele>50.200000762939453125</ele>
        <time>2020-02-22T07:23:14.000Z</time>
      </trkpt>
      <trkpt lat="37.9753442108631134033203125" lon="-1.1439311318099498748779296875">
        <ele>50.200000762939453125</ele>
        <time>2020-02-22T07:23:16.000Z</time>
      </trkpt>
      <trkpt lat="37.9753199033439159393310546875" lon="-1.144184768199920654296875">
        <ele>50</ele>
        <time>2020-02-22T07:23:19.000Z</time>
      </trkpt>
      <trkpt lat="37.97530054114758968353271484375" lon="-1.14435332827270030975341796875">
        <ele>50</ele>
        <time>2020-02-22T07:23:21.000Z</time>
      </trkpt>
      <trkpt lat="37.97527908347547054290771484375" lon="-1.14452607929706573486328125">
        <ele>50</ele>
        <time>2020-02-22T07:23:23.000Z</time>
      </trkpt>
      <trkpt lat="37.97523558139801025390625" lon="-1.144884489476680755615234375">
        <ele>49.799999237060546875</ele>
        <time>2020-02-22T07:23:27.000Z</time>
      </trkpt>
      <trkpt lat="37.9752085916697978973388671875" lon="-1.14505908451974391937255859375">
        <ele>49.799999237060546875</ele>
        <time>2020-02-22T07:23:29.000Z</time>
      </trkpt>
      <trkpt lat="37.97517145983874797821044921875" lon="-1.14531070925295352935791015625">
        <ele>49.799999237060546875</ele>
        <time>2020-02-22T07:23:32.000Z</time>
      </trkpt>
      <trkpt lat="37.9751465655863285064697265625" lon="-1.1455458216369152069091796875">
        <ele>49.799999237060546875</ele>
        <time>2020-02-22T07:23:35.000Z</time>
      </trkpt>
      <trkpt lat="37.97514061443507671356201171875" lon="-1.14562310278415679931640625">
        <ele>49.799999237060546875</ele>
        <time>2020-02-22T07:23:36.000Z</time>
      </trkpt>
      <trkpt lat="37.975079677999019622802734375" lon="-1.14617052488029003143310546875">
        <ele>49.799999237060546875</ele>
        <time>2020-02-22T07:23:43.000Z</time>
      </trkpt>
      <trkpt lat="37.97505386173725128173828125" lon="-1.14643447101116180419921875">
        <ele>49.799999237060546875</ele>
        <time>2020-02-22T07:23:46.000Z</time>
      </trkpt>
      <trkpt lat="37.97500818036496639251708984375" lon="-1.14688315428793430328369140625">
        <ele>49.799999237060546875</ele>
        <time>2020-02-22T07:23:51.000Z</time>
      </trkpt>
      <trkpt lat="37.97497968189418315887451171875" lon="-1.1471595056354999542236328125">
        <ele>49.799999237060546875</ele>
        <time>2020-02-22T07:23:54.000Z</time>
      </trkpt>
      <trkpt lat="37.9749298095703125" lon="-1.14762797020375728607177734375">
        <ele>49.799999237060546875</ele>
        <time>2020-02-22T07:23:59.000Z</time>
      </trkpt>
      <trkpt lat="37.97490424476563930511474609375" lon="-1.147945225238800048828125">
        <ele>49.799999237060546875</ele>
        <time>2020-02-22T07:24:02.000Z</time>
      </trkpt>
      <trkpt lat="37.9748786799609661102294921875" lon="-1.148264743387699127197265625">
        <ele>49.799999237060546875</ele>
        <time>2020-02-22T07:24:05.000Z</time>
      </trkpt>
      <trkpt lat="37.97484423033893108367919921875" lon="-1.1486970819532871246337890625">
        <ele>49.799999237060546875</ele>
        <time>2020-02-22T07:24:09.000Z</time>
      </trkpt>
      <trkpt lat="37.97482595779001712799072265625" lon="-1.14891744218766689300537109375">
        <ele>49.799999237060546875</ele>
        <time>2020-02-22T07:24:11.000Z</time>
      </trkpt>
      <trkpt lat="37.9747353494167327880859375" lon="-1.14963241852819919586181640625">
        <ele>49.799999237060546875</ele>
        <time>2020-02-22T07:24:18.000Z</time>
      </trkpt>
      <trkpt lat="37.9746647737920284271240234375" lon="-1.1503892205655574798583984375">
        <ele>50.40000152587890625</ele>
        <time>2020-02-22T07:24:26.000Z</time>
      </trkpt>
      <trkpt lat="37.974649854004383087158203125" lon="-1.150584518909454345703125">
        <ele>50.40000152587890625</ele>
        <time>2020-02-22T07:24:28.000Z</time>
      </trkpt>
      <trkpt lat="37.974606938660144805908203125" lon="-1.1510701663792133331298828125">
        <ele>50.40000152587890625</ele>
        <time>2020-02-22T07:24:33.000Z</time>
      </trkpt>
      <trkpt lat="37.9745824635028839111328125" lon="-1.15132790990173816680908203125">
        <ele>50.40000152587890625</ele>
        <time>2020-02-22T07:24:36.000Z</time>
      </trkpt>
      <trkpt lat="37.9745782725512981414794921875" lon="-1.15141055546700954437255859375">
        <ele>50.40000152587890625</ele>
        <time>2020-02-22T07:24:37.000Z</time>
      </trkpt>
      <trkpt lat="37.9745400510728359222412109375" lon="-1.15179360844194889068603515625">
        <ele>50.59999847412109375</ele>
        <time>2020-02-22T07:24:42.000Z</time>
      </trkpt>
      <trkpt lat="37.97452286817133426666259765625" lon="-1.1519457399845123291015625">
        <ele>50.59999847412109375</ele>
        <time>2020-02-22T07:24:44.000Z</time>
      </trkpt>
      <trkpt lat="37.9744867421686649322509765625" lon="-1.1521832831203937530517578125">
        <ele>50.799999237060546875</ele>
        <time>2020-02-22T07:24:47.000Z</time>
      </trkpt>
      <trkpt lat="37.974452711641788482666015625" lon="-1.15241856314241886138916015625">
        <ele>50.799999237060546875</ele>
        <time>2020-02-22T07:24:50.000Z</time>
      </trkpt>
      <trkpt lat="37.97443284653127193450927734375" lon="-1.15257681347429752349853515625">
        <ele>50.799999237060546875</ele>
        <time>2020-02-22T07:24:52.000Z</time>
      </trkpt>
      <trkpt lat="37.9743764363229274749755859375" lon="-1.1531659774482250213623046875">
        <ele>50.799999237060546875</ele>
        <time>2020-02-22T07:24:59.000Z</time>
      </trkpt>
      <trkpt lat="37.974354811012744903564453125" lon="-1.153436712920665740966796875">
        <ele>50.799999237060546875</ele>
        <time>2020-02-22T07:25:02.000Z</time>
      </trkpt>
      <trkpt lat="37.974297143518924713134765625" lon="-1.154073737561702728271484375">
        <ele>51</ele>
        <time>2020-02-22T07:25:09.000Z</time>
      </trkpt>
      <trkpt lat="37.97421961091458797454833984375" lon="-1.1547833494842052459716796875">
        <ele>51</ele>
        <time>2020-02-22T07:25:17.000Z</time>
      </trkpt>
      <trkpt lat="37.97418055124580860137939453125" lon="-1.155150644481182098388671875">
        <ele>51</ele>
        <time>2020-02-22T07:25:21.000Z</time>
      </trkpt>
      <trkpt lat="37.9741078801453113555908203125" lon="-1.15588112734258174896240234375">
        <ele>50.799999237060546875</ele>
        <time>2020-02-22T07:25:29.000Z</time>
      </trkpt>
      <trkpt lat="37.97408700920641422271728515625" lon="-1.1561594903469085693359375">
        <ele>50.799999237060546875</ele>
        <time>2020-02-22T07:25:32.000Z</time>
      </trkpt>
      <trkpt lat="37.97403722070157527923583984375" lon="-1.156705319881439208984375">
        <ele>50.799999237060546875</ele>
        <time>2020-02-22T07:25:38.000Z</time>
      </trkpt>
      <trkpt lat="37.9740109853446483612060546875" lon="-1.1570665799081325531005859375">
        <ele>50.799999237060546875</ele>
        <time>2020-02-22T07:25:42.000Z</time>
      </trkpt>
      <trkpt lat="37.97395608387887477874755859375" lon="-1.15775532089173793792724609375">
        <ele>50.799999237060546875</ele>
        <time>2020-02-22T07:25:49.000Z</time>
      </trkpt>
      <trkpt lat="37.97393261454999446868896484375" lon="-1.15804709494113922119140625">
        <ele>50.799999237060546875</ele>
        <time>2020-02-22T07:25:52.000Z</time>
      </trkpt>
      <trkpt lat="37.97390646301209926605224609375" lon="-1.15829913876950740814208984375">
        <ele>50.799999237060546875</ele>
        <time>2020-02-22T07:25:55.000Z</time>
      </trkpt>
      <trkpt lat="37.97388701699674129486083984375" lon="-1.15847281180322170257568359375">
        <ele>50.59999847412109375</ele>
        <time>2020-02-22T07:25:57.000Z</time>
      </trkpt>
      <trkpt lat="37.9738421738147735595703125" lon="-1.15889777429401874542236328125">
        <ele>51</ele>
        <time>2020-02-22T07:26:02.000Z</time>
      </trkpt>
      <trkpt lat="37.97381157986819744110107421875" lon="-1.15915560163557529449462890625">
        <ele>51</ele>
        <time>2020-02-22T07:26:05.000Z</time>
      </trkpt>
      <trkpt lat="37.973741926252841949462890625" lon="-1.15986286662518978118896484375">
        <ele>51.200000762939453125</ele>
        <time>2020-02-22T07:26:13.000Z</time>
      </trkpt>
      <trkpt lat="37.97367076389491558074951171875" lon="-1.160555295646190643310546875">
        <ele>51.40000152587890625</ele>
        <time>2020-02-22T07:26:21.000Z</time>
      </trkpt>
      <trkpt lat="37.97365299426019191741943359375" lon="-1.1607371829450130462646484375">
        <ele>51.40000152587890625</ele>
        <time>2020-02-22T07:26:23.000Z</time>
      </trkpt>
      <trkpt lat="37.97358375973999500274658203125" lon="-1.1614595353603363037109375">
        <ele>51.40000152587890625</ele>
        <time>2020-02-22T07:26:31.000Z</time>
      </trkpt>
      <trkpt lat="37.97357554547488689422607421875" lon="-1.1615462042391300201416015625">
        <ele>51.40000152587890625</ele>
        <time>2020-02-22T07:26:32.000Z</time>
      </trkpt>
      <trkpt lat="37.9734993539750576019287109375" lon="-1.16229973733425140380859375">
        <ele>51.59999847412109375</ele>
        <time>2020-02-22T07:26:41.000Z</time>
      </trkpt>
      <trkpt lat="37.9734789021313190460205078125" lon="-1.162479110062122344970703125">
        <ele>51.59999847412109375</ele>
        <time>2020-02-22T07:26:43.000Z</time>
      </trkpt>
      <trkpt lat="37.97340321354568004608154296875" lon="-1.16315511055290699005126953125">
        <ele>51.59999847412109375</ele>
        <time>2020-02-22T07:26:51.000Z</time>
      </trkpt>
      <trkpt lat="37.97338125295937061309814453125" lon="-1.1633171327412128448486328125">
        <ele>51.799999237060546875</ele>
        <time>2020-02-22T07:26:53.000Z</time>
      </trkpt>
      <trkpt lat="37.97337211668491363525390625" lon="-1.16339868865907192230224609375">
        <ele>51.799999237060546875</ele>
        <time>2020-02-22T07:26:54.000Z</time>
      </trkpt>
      <trkpt lat="37.9733079113066196441650390625" lon="-1.1641492880880832672119140625">
        <ele>52</ele>
        <time>2020-02-22T07:27:03.000Z</time>
      </trkpt>
      <trkpt lat="37.973277568817138671875" lon="-1.1644775234162807464599609375">
        <ele>52</ele>
        <time>2020-02-22T07:27:07.000Z</time>
      </trkpt>
      <trkpt lat="37.97322602011263370513916015625" lon="-1.16498454473912715911865234375">
        <ele>52</ele>
        <time>2020-02-22T07:27:13.000Z</time>
      </trkpt>
      <trkpt lat="37.97316432930529117584228515625" lon="-1.16569817997515201568603515625">
        <ele>52</ele>
        <time>2020-02-22T07:27:21.000Z</time>
      </trkpt>
      <trkpt lat="37.9731308855116367340087890625" lon="-1.16596304811537265777587890625">
        <ele>52</ele>
        <time>2020-02-22T07:27:24.000Z</time>
      </trkpt>
      <trkpt lat="37.97307715751230716705322265625" lon="-1.166609041392803192138671875">
        <ele>52.200000762939453125</ele>
        <time>2020-02-22T07:27:32.000Z</time>
      </trkpt>
      <trkpt lat="37.9730732180178165435791015625" lon="-1.16668774746358394622802734375">
        <ele>52.200000762939453125</ele>
        <time>2020-02-22T07:27:33.000Z</time>
      </trkpt>
      <trkpt lat="37.97301747836172580718994140625" lon="-1.16740155033767223358154296875">
        <ele>52.40000152587890625</ele>
        <time>2020-02-22T07:27:42.000Z</time>
      </trkpt>
      <trkpt lat="37.97293148003518581390380859375" lon="-1.16815424524247646331787109375">
        <ele>52.59999847412109375</ele>
        <time>2020-02-22T07:27:51.000Z</time>
      </trkpt>
      <trkpt lat="37.9729119502007961273193359375" lon="-1.16832808591425418853759765625">
        <ele>52.59999847412109375</ele>
        <time>2020-02-22T07:27:53.000Z</time>
      </trkpt>
      <trkpt lat="37.9728764109313488006591796875" lon="-1.168696470558643341064453125">
        <ele>52.59999847412109375</ele>
        <time>2020-02-22T07:27:57.000Z</time>
      </trkpt>
      <trkpt lat="37.97281664796173572540283203125" lon="-1.169243641197681427001953125">
        <ele>52.59999847412109375</ele>
        <time>2020-02-22T07:28:03.000Z</time>
      </trkpt>
      <trkpt lat="37.972749508917331695556640625" lon="-1.16982056759297847747802734375">
        <ele>52.799999237060546875</ele>
        <time>2020-02-22T07:28:10.000Z</time>
      </trkpt>
      <trkpt lat="37.9727060906589031219482421875" lon="-1.17014385759830474853515625">
        <ele>53</ele>
        <time>2020-02-22T07:28:14.000Z</time>
      </trkpt>
      <trkpt lat="37.97270198352634906768798828125" lon="-1.1702254973351955413818359375">
        <ele>53</ele>
        <time>2020-02-22T07:28:15.000Z</time>
      </trkpt>
      <trkpt lat="37.97269477508962154388427734375" lon="-1.1703720130026340484619140625">
        <ele>53</ele>
        <time>2020-02-22T07:28:17.000Z</time>
      </trkpt>
      <trkpt lat="37.97268890775740146636962890625" lon="-1.170438230037689208984375">
        <ele>53.200000762939453125</ele>
        <time>2020-02-22T07:28:18.000Z</time>
      </trkpt>
      <trkpt lat="37.97268153168261051177978515625" lon="-1.17049681954085826873779296875">
        <ele>53.200000762939453125</ele>
        <time>2020-02-22T07:28:19.000Z</time>
      </trkpt>
      <trkpt lat="37.97265554778277873992919921875" lon="-1.17070904932916164398193359375">
        <ele>53.40000152587890625</ele>
        <time>2020-02-22T07:28:23.000Z</time>
      </trkpt>
      <trkpt lat="37.9726484231650829315185546875" lon="-1.170753724873065948486328125">
        <ele>53.40000152587890625</ele>
        <time>2020-02-22T07:28:24.000Z</time>
      </trkpt>
      <trkpt lat="37.9726405441761016845703125" lon="-1.17083360441029071807861328125">
        <ele>53.40000152587890625</ele>
        <time>2020-02-22T07:28:26.000Z</time>
      </trkpt>
      <trkpt lat="37.97262570820748805999755859375" lon="-1.17115597240626811981201171875">
        <ele>53.59999847412109375</ele>
        <time>2020-02-22T07:28:33.000Z</time>
      </trkpt>
      <trkpt lat="37.97261833213269710540771484375" lon="-1.171280108392238616943359375">
        <ele>53.59999847412109375</ele>
        <time>2020-02-22T07:28:36.000Z</time>
      </trkpt>
      <trkpt lat="37.9726095311343669891357421875" lon="-1.1714412085711956024169921875">
        <ele>53.59999847412109375</ele>
        <time>2020-02-22T07:28:41.000Z</time>
      </trkpt>
      <trkpt lat="37.97261229716241359710693359375" lon="-1.171549670398235321044921875">
        <ele>53.59999847412109375</ele>
        <time>2020-02-22T07:28:43.000Z</time>
      </trkpt>
      <trkpt lat="37.97259637154638767242431640625" lon="-1.17173306643962860107421875">
        <ele>53.59999847412109375</ele>
        <time>2020-02-22T07:28:46.000Z</time>
      </trkpt>
      <trkpt lat="37.97258312813937664031982421875" lon="-1.17197974584996700286865234375">
        <ele>53.59999847412109375</ele>
        <time>2020-02-22T07:28:50.000Z</time>
      </trkpt>
      <trkpt lat="37.9725853912532329559326171875" lon="-1.1721835099160671234130859375">
        <ele>53.59999847412109375</ele>
        <time>2020-02-22T07:28:53.000Z</time>
      </trkpt>
      <trkpt lat="37.97259000129997730255126953125" lon="-1.17268583737313747406005859375">
        <ele>53.59999847412109375</ele>
        <time>2020-02-22T07:28:59.000Z</time>
      </trkpt>
      <trkpt lat="37.97259804792702198028564453125" lon="-1.17276571691036224365234375">
        <ele>53.59999847412109375</ele>
        <time>2020-02-22T07:29:00.000Z</time>
      </trkpt>
      <trkpt lat="37.9726075194776058197021484375" lon="-1.17301784455776214599609375">
        <ele>53.59999847412109375</ele>
        <time>2020-02-22T07:29:03.000Z</time>
      </trkpt>
      <trkpt lat="37.972626127302646636962890625" lon="-1.17360617034137248992919921875">
        <ele>54</ele>
        <time>2020-02-22T07:29:10.000Z</time>
      </trkpt>
      <trkpt lat="37.9726303182542324066162109375" lon="-1.17384907789528369903564453125">
        <ele>54</ele>
        <time>2020-02-22T07:29:13.000Z</time>
      </trkpt>
      <trkpt lat="37.97264398075640201568603515625" lon="-1.17415954358875751495361328125">
        <ele>54.200000762939453125</ele>
        <time>2020-02-22T07:29:17.000Z</time>
      </trkpt>
      <trkpt lat="37.97264750115573406219482421875" lon="-1.17432810366153717041015625">
        <ele>54.40000152587890625</ele>
        <time>2020-02-22T07:29:19.000Z</time>
      </trkpt>
      <trkpt lat="37.97265454195439815521240234375" lon="-1.175095550715923309326171875">
        <ele>55</ele>
        <time>2020-02-22T07:29:28.000Z</time>
      </trkpt>
      <trkpt lat="37.9726568050682544708251953125" lon="-1.175345666706562042236328125">
        <ele>55</ele>
        <time>2020-02-22T07:29:31.000Z</time>
      </trkpt>
      <trkpt lat="37.97266258858144283294677734375" lon="-1.17570064030587673187255859375">
        <ele>55.200000762939453125</ele>
        <time>2020-02-22T07:29:35.000Z</time>
      </trkpt>
      <trkpt lat="37.97266795299947261810302734375" lon="-1.1761545203626155853271484375">
        <ele>55.40000152587890625</ele>
        <time>2020-02-22T07:29:40.000Z</time>
      </trkpt>
      <trkpt lat="37.9726702161133289337158203125" lon="-1.1762457154691219329833984375">
        <ele>55.40000152587890625</ele>
        <time>2020-02-22T07:29:41.000Z</time>
      </trkpt>
      <trkpt lat="37.9726886563003063201904296875" lon="-1.177005954086780548095703125">
        <ele>55.59999847412109375</ele>
        <time>2020-02-22T07:29:49.000Z</time>
      </trkpt>
      <trkpt lat="37.972696535289287567138671875" lon="-1.17719630710780620574951171875">
        <ele>55.799999237060546875</ele>
        <time>2020-02-22T07:29:51.000Z</time>
      </trkpt>
      <trkpt lat="37.972716987133026123046875" lon="-1.17785923182964324951171875">
        <ele>56</ele>
        <time>2020-02-22T07:29:58.000Z</time>
      </trkpt>
      <trkpt lat="37.97272075898945331573486328125" lon="-1.17805696092545986175537109375">
        <ele>56</ele>
        <time>2020-02-22T07:30:00.000Z</time>
      </trkpt>
      <trkpt lat="37.97271422110497951507568359375" lon="-1.17862894199788570404052734375">
        <ele>56.200000762939453125</ele>
        <time>2020-02-22T07:30:06.000Z</time>
      </trkpt>
      <trkpt lat="37.97272092662751674652099609375" lon="-1.17881007492542266845703125">
        <ele>56.40000152587890625</ele>
        <time>2020-02-22T07:30:08.000Z</time>
      </trkpt>
      <trkpt lat="37.97273467294871807098388671875" lon="-1.17954089306294918060302734375">
        <ele>56.40000152587890625</ele>
        <time>2020-02-22T07:30:16.000Z</time>
      </trkpt>
      <trkpt lat="37.97273953445255756378173828125" lon="-1.17972227744758129119873046875">
        <ele>56.40000152587890625</ele>
        <time>2020-02-22T07:30:18.000Z</time>
      </trkpt>
      <trkpt lat="37.97276199795305728912353515625" lon="-1.18046927265822887420654296875">
        <ele>56.59999847412109375</ele>
        <time>2020-02-22T07:30:26.000Z</time>
      </trkpt>
      <trkpt lat="37.97277021221816539764404296875" lon="-1.1806623078882694244384765625">
        <ele>56.799999237060546875</ele>
        <time>2020-02-22T07:30:28.000Z</time>
      </trkpt>
      <trkpt lat="37.972779683768749237060546875" lon="-1.18121995590627193450927734375">
        <ele>57</ele>
        <time>2020-02-22T07:30:34.000Z</time>
      </trkpt>
      <trkpt lat="37.97278613783419132232666015625" lon="-1.1813989095389842987060546875">
        <ele>57</ele>
        <time>2020-02-22T07:30:36.000Z</time>
      </trkpt>
      <trkpt lat="37.97281212173402309417724609375" lon="-1.182046495378017425537109375">
        <ele>57.59999847412109375</ele>
        <time>2020-02-22T07:30:43.000Z</time>
      </trkpt>
      <trkpt lat="37.972815223038196563720703125" lon="-1.1822303943336009979248046875">
        <ele>57.59999847412109375</ele>
        <time>2020-02-22T07:30:45.000Z</time>
      </trkpt>
      <trkpt lat="37.9728241078555583953857421875" lon="-1.18260028772056102752685546875">
        <ele>57.799999237060546875</ele>
        <time>2020-02-22T07:30:49.000Z</time>
      </trkpt>
      <trkpt lat="37.97282402403652667999267578125" lon="-1.182872951030731201171875">
        <ele>58</ele>
        <time>2020-02-22T07:30:52.000Z</time>
      </trkpt>
      <trkpt lat="37.972836680710315704345703125" lon="-1.18321451358497142791748046875">
        <ele>58.200000762939453125</ele>
        <time>2020-02-22T07:30:56.000Z</time>
      </trkpt>
      <trkpt lat="37.97284774482250213623046875" lon="-1.18373620323836803436279296875">
        <ele>58.200000762939453125</ele>
        <time>2020-02-22T07:31:03.000Z</time>
      </trkpt>
      <trkpt lat="37.97285151667892932891845703125" lon="-1.183848269283771514892578125">
        <ele>58.59999847412109375</ele>
        <time>2020-02-22T07:31:05.000Z</time>
      </trkpt>
      <trkpt lat="37.972850091755390167236328125" lon="-1.183958910405635833740234375">
        <ele>58.799999237060546875</ele>
        <time>2020-02-22T07:31:07.000Z</time>
      </trkpt>
      <trkpt lat="37.9728448949754238128662109375" lon="-1.1842775903642177581787109375">
        <ele>59</ele>
        <time>2020-02-22T07:31:12.000Z</time>
      </trkpt>
      <trkpt lat="37.9728469066321849822998046875" lon="-1.18435244075953960418701171875">
        <ele>59</ele>
        <time>2020-02-22T07:31:13.000Z</time>
      </trkpt>
      <trkpt lat="37.97285906039178371429443359375" lon="-1.18450566194951534271240234375">
        <ele>59</ele>
        <time>2020-02-22T07:31:15.000Z</time>
      </trkpt>
      <trkpt lat="37.97286626882851123809814453125" lon="-1.18467564694583415985107421875">
        <ele>59</ele>
        <time>2020-02-22T07:31:17.000Z</time>
      </trkpt>
      <trkpt lat="37.9728690348565578460693359375" lon="-1.18476348929107189178466796875">
        <ele>59</ele>
        <time>2020-02-22T07:31:18.000Z</time>
      </trkpt>
      <trkpt lat="37.9728703759610652923583984375" lon="-1.1852324567735195159912109375">
        <ele>59</ele>
        <time>2020-02-22T07:31:23.000Z</time>
      </trkpt>
      <trkpt lat="37.972874231636524200439453125" lon="-1.1853337101638317108154296875">
        <ele>59</ele>
        <time>2020-02-22T07:31:24.000Z</time>
      </trkpt>
      <trkpt lat="37.972881607711315155029296875" lon="-1.18553579784929752349853515625">
        <ele>59</ele>
        <time>2020-02-22T07:31:26.000Z</time>
      </trkpt>
      <trkpt lat="37.97288957051932811737060546875" lon="-1.18593393824994564056396484375">
        <ele>59</ele>
        <time>2020-02-22T07:31:30.000Z</time>
      </trkpt>
      <trkpt lat="37.97289610840380191802978515625" lon="-1.18623166345059871673583984375">
        <ele>59</ele>
        <time>2020-02-22T07:31:33.000Z</time>
      </trkpt>
      <trkpt lat="37.9729256965219974517822265625" lon="-1.1870104260742664337158203125">
        <ele>59.59999847412109375</ele>
        <time>2020-02-22T07:31:41.000Z</time>
      </trkpt>
      <trkpt lat="37.97293315641582012176513671875" lon="-1.18709684349596500396728515625">
        <ele>59.59999847412109375</ele>
        <time>2020-02-22T07:31:42.000Z</time>
      </trkpt>
      <trkpt lat="37.97293919138610363006591796875" lon="-1.187185607850551605224609375">
        <ele>59.59999847412109375</ele>
        <time>2020-02-22T07:31:43.000Z</time>
      </trkpt>
      <trkpt lat="37.97296567820012569427490234375" lon="-1.187872253358364105224609375">
        <ele>59.59999847412109375</ele>
        <time>2020-02-22T07:31:50.000Z</time>
      </trkpt>
      <trkpt lat="37.97296333126723766326904296875" lon="-1.18828229606151580810546875">
        <ele>59.799999237060546875</ele>
        <time>2020-02-22T07:31:54.000Z</time>
      </trkpt>
      <trkpt lat="37.97297104261815547943115234375" lon="-1.1890478990972042083740234375">
        <ele>59.799999237060546875</ele>
        <time>2020-02-22T07:32:02.000Z</time>
      </trkpt>
      <trkpt lat="37.97297439537942409515380859375" lon="-1.18914320133626461029052734375">
        <ele>59.799999237060546875</ele>
        <time>2020-02-22T07:32:03.000Z</time>
      </trkpt>
      <trkpt lat="37.972998954355716705322265625" lon="-1.1896388232707977294921875">
        <ele>59.799999237060546875</ele>
        <time>2020-02-22T07:32:09.000Z</time>
      </trkpt>
      <trkpt lat="37.9730018042027950286865234375" lon="-1.18969338946044445037841796875">
        <ele>59.799999237060546875</ele>
        <time>2020-02-22T07:32:10.000Z</time>
      </trkpt>
      <trkpt lat="37.973000295460224151611328125" lon="-1.18996127508580684661865234375">
        <ele>60</ele>
        <time>2020-02-22T07:32:15.000Z</time>
      </trkpt>
      <trkpt lat="37.97299736179411411285400390625" lon="-1.19018289260566234588623046875">
        <ele>60</ele>
        <time>2020-02-22T07:32:19.000Z</time>
      </trkpt>
      <trkpt lat="37.97300524078309535980224609375" lon="-1.19036846794188022613525390625">
        <ele>60.200000762939453125</ele>
        <time>2020-02-22T07:32:22.000Z</time>
      </trkpt>
      <trkpt lat="37.9730168916285037994384765625" lon="-1.19081698358058929443359375">
        <ele>60.200000762939453125</ele>
        <time>2020-02-22T07:32:28.000Z</time>
      </trkpt>
      <trkpt lat="37.97303608618676662445068359375" lon="-1.19138938374817371368408203125">
        <ele>60</ele>
        <time>2020-02-22T07:32:35.000Z</time>
      </trkpt>
      <trkpt lat="37.9730428755283355712890625" lon="-1.19156573899090290069580078125">
        <ele>59.799999237060546875</ele>
        <time>2020-02-22T07:32:37.000Z</time>
      </trkpt>
      <trkpt lat="37.97305637039244174957275390625" lon="-1.19225573725998401641845703125">
        <ele>59.59999847412109375</ele>
        <time>2020-02-22T07:32:44.000Z</time>
      </trkpt>
      <trkpt lat="37.9730621539056301116943359375" lon="-1.1925636045634746551513671875">
        <ele>59.59999847412109375</ele>
        <time>2020-02-22T07:32:47.000Z</time>
      </trkpt>
      <trkpt lat="37.97306776978075504302978515625" lon="-1.19287415407598018646240234375">
        <ele>59.59999847412109375</ele>
        <time>2020-02-22T07:32:50.000Z</time>
      </trkpt>
      <trkpt lat="37.97308570705354213714599609375" lon="-1.19345485232770442962646484375">
        <ele>59.59999847412109375</ele>
        <time>2020-02-22T07:32:56.000Z</time>
      </trkpt>
      <trkpt lat="37.9730822704732418060302734375" lon="-1.194090954959392547607421875">
        <ele>59.799999237060546875</ele>
        <time>2020-02-22T07:33:03.000Z</time>
      </trkpt>
      <trkpt lat="37.97308444976806640625" lon="-1.1942483671009540557861328125">
        <ele>59.799999237060546875</ele>
        <time>2020-02-22T07:33:05.000Z</time>
      </trkpt>
      <trkpt lat="37.97308646142482757568359375" lon="-1.194316931068897247314453125">
        <ele>59.799999237060546875</ele>
        <time>2020-02-22T07:33:06.000Z</time>
      </trkpt>
      <trkpt lat="37.97309584915637969970703125" lon="-1.1944884248077869415283203125">
        <ele>60</ele>
        <time>2020-02-22T07:33:09.000Z</time>
      </trkpt>
      <trkpt lat="37.97310062684118747711181640625" lon="-1.19453561492264270782470703125">
        <ele>60</ele>
        <time>2020-02-22T07:33:10.000Z</time>
      </trkpt>
      <trkpt lat="37.9731134511530399322509765625" lon="-1.19481079280376434326171875">
        <ele>60.40000152587890625</ele>
        <time>2020-02-22T07:33:15.000Z</time>
      </trkpt>
      <trkpt lat="37.9731194861233234405517578125" lon="-1.19491799734532833099365234375">
        <ele>60.40000152587890625</ele>
        <time>2020-02-22T07:33:17.000Z</time>
      </trkpt>
      <trkpt lat="37.97312133014202117919921875" lon="-1.194966696202754974365234375">
        <ele>60.40000152587890625</ele>
        <time>2020-02-22T07:33:18.000Z</time>
      </trkpt>
      <trkpt lat="37.9731278680264949798583984375" lon="-1.19541387073695659637451171875">
        <ele>60.40000152587890625</ele>
        <time>2020-02-22T07:33:26.000Z</time>
      </trkpt>
      <trkpt lat="37.97313516028225421905517578125" lon="-1.1956468038260936737060546875">
        <ele>60.40000152587890625</ele>
        <time>2020-02-22T07:33:29.000Z</time>
      </trkpt>
      <trkpt lat="37.97314203344285488128662109375" lon="-1.1958114244043827056884765625">
        <ele>60.40000152587890625</ele>
        <time>2020-02-22T07:33:31.000Z</time>
      </trkpt>
      <trkpt lat="37.9731476493179798126220703125" lon="-1.19599976576864719390869140625">
        <ele>60.40000152587890625</ele>
        <time>2020-02-22T07:33:33.000Z</time>
      </trkpt>
      <trkpt lat="37.97316064126789569854736328125" lon="-1.19637208990752696990966796875">
        <ele>60.40000152587890625</ele>
        <time>2020-02-22T07:33:37.000Z</time>
      </trkpt>
      <trkpt lat="37.97316332347691059112548828125" lon="-1.19691842235624790191650390625">
        <ele>60.40000152587890625</ele>
        <time>2020-02-22T07:33:43.000Z</time>
      </trkpt>
      <trkpt lat="37.97316499985754489898681640625" lon="-1.1970083601772785186767578125">
        <ele>60.40000152587890625</ele>
        <time>2020-02-22T07:33:44.000Z</time>
      </trkpt>
      <trkpt lat="37.9731764830648899078369140625" lon="-1.197439022362232208251953125">
        <ele>60.40000152587890625</ele>
        <time>2020-02-22T07:33:48.000Z</time>
      </trkpt>
      <trkpt lat="37.9731930792331695556640625" lon="-1.1979099176824092864990234375">
        <ele>60.59999847412109375</ele>
        <time>2020-02-22T07:33:53.000Z</time>
      </trkpt>
      <trkpt lat="37.9731992818415164947509765625" lon="-1.19865666143596172332763671875">
        <ele>60.59999847412109375</ele>
        <time>2020-02-22T07:34:01.000Z</time>
      </trkpt>
      <trkpt lat="37.9732073284685611724853515625" lon="-1.19922847487032413482666015625">
        <ele>60.799999237060546875</ele>
        <time>2020-02-22T07:34:07.000Z</time>
      </trkpt>
      <trkpt lat="37.9732150398194789886474609375" lon="-1.199804060161113739013671875">
        <ele>61.200000762939453125</ele>
        <time>2020-02-22T07:34:13.000Z</time>
      </trkpt>
      <trkpt lat="37.97322618775069713592529296875" lon="-1.20016506873071193695068359375">
        <ele>61.200000762939453125</ele>
        <time>2020-02-22T07:34:17.000Z</time>
      </trkpt>
      <trkpt lat="37.97324161045253276824951171875" lon="-1.20064057409763336181640625">
        <ele>61.40000152587890625</ele>
        <time>2020-02-22T07:34:23.000Z</time>
      </trkpt>
      <trkpt lat="37.97324429266154766082763671875" lon="-1.2007996626198291778564453125">
        <ele>61.40000152587890625</ele>
        <time>2020-02-22T07:34:25.000Z</time>
      </trkpt>
      <trkpt lat="37.9732495732605457305908203125" lon="-1.20110702700912952423095703125">
        <ele>61.40000152587890625</ele>
        <time>2020-02-22T07:34:29.000Z</time>
      </trkpt>
      <trkpt lat="37.9732633195817470550537109375" lon="-1.20168655179440975189208984375">
        <ele>61.40000152587890625</ele>
        <time>2020-02-22T07:34:36.000Z</time>
      </trkpt>
      <trkpt lat="37.97326616942882537841796875" lon="-1.2018742226064205169677734375">
        <ele>61.40000152587890625</ele>
        <time>2020-02-22T07:34:38.000Z</time>
      </trkpt>
      <trkpt lat="37.97327061183750629425048828125" lon="-1.20215560309588909149169921875">
        <ele>61.40000152587890625</ele>
        <time>2020-02-22T07:34:41.000Z</time>
      </trkpt>
      <trkpt lat="37.9732794128358364105224609375" lon="-1.202410161495208740234375">
        <ele>61.40000152587890625</ele>
        <time>2020-02-22T07:34:44.000Z</time>
      </trkpt>
      <trkpt lat="37.97328636981546878814697265625" lon="-1.20257201604545116424560546875">
        <ele>61.59999847412109375</ele>
        <time>2020-02-22T07:34:46.000Z</time>
      </trkpt>
      <trkpt lat="37.973289974033832550048828125" lon="-1.20273211039602756500244140625">
        <ele>61.59999847412109375</ele>
        <time>2020-02-22T07:34:48.000Z</time>
      </trkpt>
      <trkpt lat="37.973299361765384674072265625" lon="-1.2032967992126941680908203125">
        <ele>61.799999237060546875</ele>
        <time>2020-02-22T07:34:55.000Z</time>
      </trkpt>
      <trkpt lat="37.97331302426755428314208984375" lon="-1.2036662735044956207275390625">
        <ele>61.799999237060546875</ele>
        <time>2020-02-22T07:35:00.000Z</time>
      </trkpt>
      <trkpt lat="37.97332442365586757659912109375" lon="-1.20380013249814510345458984375">
        <ele>61.799999237060546875</ele>
        <time>2020-02-22T07:35:02.000Z</time>
      </trkpt>
      <trkpt lat="37.973386533558368682861328125" lon="-1.20408360846340656280517578125">
        <ele>61.799999237060546875</ele>
        <time>2020-02-22T07:35:06.000Z</time>
      </trkpt>
      <trkpt lat="37.97338946722447872161865234375" lon="-1.204165332019329071044921875">
        <ele>61.799999237060546875</ele>
        <time>2020-02-22T07:35:07.000Z</time>
      </trkpt>
      <trkpt lat="37.97337655909359455108642578125" lon="-1.204329617321491241455078125">
        <ele>62</ele>
        <time>2020-02-22T07:35:09.000Z</time>
      </trkpt>
      <trkpt lat="37.9733612202107906341552734375" lon="-1.20441603474318981170654296875">
        <ele>62</ele>
        <time>2020-02-22T07:35:10.000Z</time>
      </trkpt>
      <trkpt lat="37.973340265452861785888671875" lon="-1.20458300225436687469482421875">
        <ele>62</ele>
        <time>2020-02-22T07:35:12.000Z</time>
      </trkpt>
      <trkpt lat="37.9733414389193058013916015625" lon="-1.204824149608612060546875">
        <ele>62</ele>
        <time>2020-02-22T07:35:15.000Z</time>
      </trkpt>
      <trkpt lat="37.9733602143824100494384765625" lon="-1.204968988895416259765625">
        <ele>62</ele>
        <time>2020-02-22T07:35:17.000Z</time>
      </trkpt>
      <trkpt lat="37.9733766429126262664794921875" lon="-1.2050355412065982818603515625">
        <ele>62</ele>
        <time>2020-02-22T07:35:18.000Z</time>
      </trkpt>
      <trkpt lat="37.973485104739665985107421875" lon="-1.2052202783524990081787109375">
        <ele>62</ele>
        <time>2020-02-22T07:35:21.000Z</time>
      </trkpt>
      <trkpt lat="37.97353514470160007476806640625" lon="-1.20527836494147777557373046875">
        <ele>62</ele>
        <time>2020-02-22T07:35:22.000Z</time>
      </trkpt>
      <trkpt lat="37.97369490377604961395263671875" lon="-1.20549377985298633575439453125">
        <ele>62</ele>
        <time>2020-02-22T07:35:25.000Z</time>
      </trkpt>
      <trkpt lat="37.973747961223125457763671875" lon="-1.2055676244199275970458984375">
        <ele>62</ele>
        <time>2020-02-22T07:35:26.000Z</time>
      </trkpt>
      <trkpt lat="37.97410896979272365570068359375" lon="-1.2059573829174041748046875">
        <ele>61.59999847412109375</ele>
        <time>2020-02-22T07:35:32.000Z</time>
      </trkpt>
      <trkpt lat="37.9744693078100681304931640625" lon="-1.20633783750236034393310546875">
        <ele>61.40000152587890625</ele>
        <time>2020-02-22T07:35:38.000Z</time>
      </trkpt>
      <trkpt lat="37.974586151540279388427734375" lon="-1.20643037371337413787841796875">
        <ele>61.40000152587890625</ele>
        <time>2020-02-22T07:35:40.000Z</time>
      </trkpt>
      <trkpt lat="37.97476393170654773712158203125" lon="-1.20652140118181705474853515625">
        <ele>61.200000762939453125</ele>
        <time>2020-02-22T07:35:43.000Z</time>
      </trkpt>
      <trkpt lat="37.97486082650721073150634765625" lon="-1.20661008171737194061279296875">
        <ele>61.200000762939453125</ele>
        <time>2020-02-22T07:35:45.000Z</time>
      </trkpt>
      <trkpt lat="37.9749286361038684844970703125" lon="-1.2067229859530925750732421875">
        <ele>61.200000762939453125</ele>
        <time>2020-02-22T07:35:47.000Z</time>
      </trkpt>
      <trkpt lat="37.97503684647381305694580078125" lon="-1.2069060467183589935302734375">
        <ele>61.200000762939453125</ele>
        <time>2020-02-22T07:35:50.000Z</time>
      </trkpt>
      <trkpt lat="37.975258715450763702392578125" lon="-1.20724551379680633544921875">
        <ele>61.200000762939453125</ele>
        <time>2020-02-22T07:35:55.000Z</time>
      </trkpt>
      <trkpt lat="37.97534446232020854949951171875" lon="-1.207394041121006011962890625">
        <ele>61.200000762939453125</ele>
        <time>2020-02-22T07:35:57.000Z</time>
      </trkpt>
      <trkpt lat="37.9755851067602634429931640625" lon="-1.207839287817478179931640625">
        <ele>61</ele>
        <time>2020-02-22T07:36:03.000Z</time>
      </trkpt>
      <trkpt lat="37.97562642954289913177490234375" lon="-1.2079138867557048797607421875">
        <ele>61</ele>
        <time>2020-02-22T07:36:04.000Z</time>
      </trkpt>
      <trkpt lat="37.9757470451295375823974609375" lon="-1.20813944377005100250244140625">
        <ele>60.799999237060546875</ele>
        <time>2020-02-22T07:36:07.000Z</time>
      </trkpt>
      <trkpt lat="37.9757869429886341094970703125" lon="-1.20821379125118255615234375">
        <ele>60.799999237060546875</ele>
        <time>2020-02-22T07:36:08.000Z</time>
      </trkpt>
      <trkpt lat="37.97582566738128662109375" lon="-1.2082914076745510101318359375">
        <ele>60.59999847412109375</ele>
        <time>2020-02-22T07:36:09.000Z</time>
      </trkpt>
      <trkpt lat="37.97590303234755992889404296875" lon="-1.2084369175136089324951171875">
        <ele>60.59999847412109375</ele>
        <time>2020-02-22T07:36:11.000Z</time>
      </trkpt>
      <trkpt lat="37.97615750692784786224365234375" lon="-1.20883530937135219573974609375">
        <ele>60.40000152587890625</ele>
        <time>2020-02-22T07:36:17.000Z</time>
      </trkpt>
      <trkpt lat="37.97623939812183380126953125" lon="-1.20898651890456676483154296875">
        <ele>60.40000152587890625</ele>
        <time>2020-02-22T07:36:19.000Z</time>
      </trkpt>
      <trkpt lat="37.9763448424637317657470703125" lon="-1.209224648773670196533203125">
        <ele>60</ele>
        <time>2020-02-22T07:36:22.000Z</time>
      </trkpt>
      <trkpt lat="37.97664080746471881866455078125" lon="-1.209776513278484344482421875">
        <ele>60</ele>
        <time>2020-02-22T07:36:29.000Z</time>
      </trkpt>
      <trkpt lat="37.97697423957288265228271484375" lon="-1.210382692515850067138671875">
        <ele>60.200000762939453125</ele>
        <time>2020-02-22T07:36:37.000Z</time>
      </trkpt>
      <trkpt lat="37.97717222012579441070556640625" lon="-1.21075828559696674346923828125">
        <ele>60.40000152587890625</ele>
        <time>2020-02-22T07:36:42.000Z</time>
      </trkpt>
      <trkpt lat="37.97728973440825939178466796875" lon="-1.21098577044904232025146484375">
        <ele>60.59999847412109375</ele>
        <time>2020-02-22T07:36:45.000Z</time>
      </trkpt>
      <trkpt lat="37.9774888046085834503173828125" lon="-1.21146571822464466094970703125">
        <ele>60.799999237060546875</ele>
        <time>2020-02-22T07:36:51.000Z</time>
      </trkpt>
      <trkpt lat="37.97761679627001285552978515625" lon="-1.21188171207904815673828125">
        <ele>61</ele>
        <time>2020-02-22T07:36:56.000Z</time>
      </trkpt>
      <trkpt lat="37.9777147807180881500244140625" lon="-1.21220014058053493499755859375">
        <ele>61</ele>
        <time>2020-02-22T07:37:00.000Z</time>
      </trkpt>
      <trkpt lat="37.97778929583728313446044921875" lon="-1.2125046551227569580078125">
        <ele>61.40000152587890625</ele>
        <time>2020-02-22T07:37:04.000Z</time>
      </trkpt>
      <trkpt lat="37.97781779430806636810302734375" lon="-1.21274261735379695892333984375">
        <ele>61.59999847412109375</ele>
        <time>2020-02-22T07:37:07.000Z</time>
      </trkpt>
      <trkpt lat="37.97783522866666316986083984375" lon="-1.213162131607532501220703125">
        <ele>61.799999237060546875</ele>
        <time>2020-02-22T07:37:13.000Z</time>
      </trkpt>
      <trkpt lat="37.9778150282800197601318359375" lon="-1.21329247020184993743896484375">
        <ele>62</ele>
        <time>2020-02-22T07:37:17.000Z</time>
      </trkpt>
      <trkpt lat="37.977810166776180267333984375" lon="-1.21331962756812572479248046875">
        <ele>62</ele>
        <time>2020-02-22T07:37:18.000Z</time>
      </trkpt>
      <trkpt lat="37.9777875356376171112060546875" lon="-1.21345960535109043121337890625">
        <ele>62.200000762939453125</ele>
        <time>2020-02-22T07:37:22.000Z</time>
      </trkpt>
      <trkpt lat="37.9777721129357814788818359375" lon="-1.21359371580183506011962890625">
        <ele>62.40000152587890625</ele>
        <time>2020-02-22T07:37:25.000Z</time>
      </trkpt>
      <trkpt lat="37.97776867635548114776611328125" lon="-1.2137036025524139404296875">
        <ele>62.59999847412109375</ele>
        <time>2020-02-22T07:37:27.000Z</time>
      </trkpt>
      <trkpt lat="37.97777923755347728729248046875" lon="-1.21383125893771648406982421875">
        <ele>62.59999847412109375</ele>
        <time>2020-02-22T07:37:29.000Z</time>
      </trkpt>
      <trkpt lat="37.97778745181858539581298828125" lon="-1.21389781124889850616455078125">
        <ele>62.799999237060546875</ele>
        <time>2020-02-22T07:37:30.000Z</time>
      </trkpt>
      <trkpt lat="37.97779281623661518096923828125" lon="-1.2139636091887950897216796875">
        <ele>62.799999237060546875</ele>
        <time>2020-02-22T07:37:31.000Z</time>
      </trkpt>
      <trkpt lat="37.97776289284229278564453125" lon="-1.2140970490872859954833984375">
        <ele>62.799999237060546875</ele>
        <time>2020-02-22T07:37:33.000Z</time>
      </trkpt>
      <trkpt lat="37.9777295328676700592041015625" lon="-1.21415488421916961669921875">
        <ele>63</ele>
        <time>2020-02-22T07:37:34.000Z</time>
      </trkpt>
      <trkpt lat="37.97769223339855670928955078125" lon="-1.21420660056173801422119140625">
        <ele>63.200000762939453125</ele>
        <time>2020-02-22T07:37:35.000Z</time>
      </trkpt>
      <trkpt lat="37.97765434719622135162353515625" lon="-1.21426125057041645050048828125">
        <ele>63.200000762939453125</ele>
        <time>2020-02-22T07:37:36.000Z</time>
      </trkpt>
      <trkpt lat="37.97758343629539012908935546875" lon="-1.21438262052834033966064453125">
        <ele>63.40000152587890625</ele>
        <time>2020-02-22T07:37:38.000Z</time>
      </trkpt>
      <trkpt lat="37.97752744518220424652099609375" lon="-1.21451270766556262969970703125">
        <ele>63.59999847412109375</ele>
        <time>2020-02-22T07:37:40.000Z</time>
      </trkpt>
      <trkpt lat="37.9774497449398040771484375" lon="-1.21470876038074493408203125">
        <ele>63.799999237060546875</ele>
        <time>2020-02-22T07:37:43.000Z</time>
      </trkpt>
      <trkpt lat="37.9774237610399723052978515625" lon="-1.2147679366171360015869140625">
        <ele>64.1999969482421875</ele>
        <time>2020-02-22T07:37:44.000Z</time>
      </trkpt>
      <trkpt lat="37.977341450750827789306640625" lon="-1.2149630673229694366455078125">
        <ele>65.1999969482421875</ele>
        <time>2020-02-22T07:37:47.000Z</time>
      </trkpt>
      <trkpt lat="37.97731362283229827880859375" lon="-1.2150257639586925506591796875">
        <ele>65.40000152587890625</ele>
        <time>2020-02-22T07:37:48.000Z</time>
      </trkpt>
      <trkpt lat="37.97728478908538818359375" lon="-1.21508695185184478759765625">
        <ele>65.59999847412109375</ele>
        <time>2020-02-22T07:37:49.000Z</time>
      </trkpt>
      <trkpt lat="37.9771949350833892822265625" lon="-1.2152755446732044219970703125">
        <ele>66.59999847412109375</ele>
        <time>2020-02-22T07:37:52.000Z</time>
      </trkpt>
      <trkpt lat="37.97704079188406467437744140625" lon="-1.21557670645415782928466796875">
        <ele>67.59999847412109375</ele>
        <time>2020-02-22T07:37:57.000Z</time>
      </trkpt>
      <trkpt lat="37.976925037801265716552734375" lon="-1.21582631953060626983642578125">
        <ele>68.59999847412109375</ele>
        <time>2020-02-22T07:38:01.000Z</time>
      </trkpt>
      <trkpt lat="37.97689561732113361358642578125" lon="-1.215887255966663360595703125">
        <ele>69</ele>
        <time>2020-02-22T07:38:02.000Z</time>
      </trkpt>
      <trkpt lat="37.97677961178123950958251953125" lon="-1.21614801697432994842529296875">
        <ele>69.8000030517578125</ele>
        <time>2020-02-22T07:38:06.000Z</time>
      </trkpt>
      <trkpt lat="37.9766660369932651519775390625" lon="-1.216384805738925933837890625">
        <ele>71</ele>
        <time>2020-02-22T07:38:10.000Z</time>
      </trkpt>
      <trkpt lat="37.97655413858592510223388671875" lon="-1.21661790646612644195556640625">
        <ele>71.8000030517578125</ele>
        <time>2020-02-22T07:38:14.000Z</time>
      </trkpt>
      <trkpt lat="37.976525723934173583984375" lon="-1.21667976491153240203857421875">
        <ele>72</ele>
        <time>2020-02-22T07:38:15.000Z</time>
      </trkpt>
      <trkpt lat="37.9763810522854328155517578125" lon="-1.21698729693889617919921875">
        <ele>73.1999969482421875</ele>
        <time>2020-02-22T07:38:20.000Z</time>
      </trkpt>
      <trkpt lat="37.9761949740350246429443359375" lon="-1.21740731410682201385498046875">
        <ele>74.40000152587890625</ele>
        <time>2020-02-22T07:38:27.000Z</time>
      </trkpt>
      <trkpt lat="37.97616739757359027862548828125" lon="-1.2174679152667522430419921875">
        <ele>74.59999847412109375</ele>
        <time>2020-02-22T07:38:28.000Z</time>
      </trkpt>
      <trkpt lat="37.97610805369913578033447265625" lon="-1.2175928056240081787109375">
        <ele>74.59999847412109375</ele>
        <time>2020-02-22T07:38:30.000Z</time>
      </trkpt>
      <trkpt lat="37.9760249890387058258056640625" lon="-1.2177763693034648895263671875">
        <ele>74.59999847412109375</ele>
        <time>2020-02-22T07:38:33.000Z</time>
      </trkpt>
      <trkpt lat="37.975945360958576202392578125" lon="-1.21795582585036754608154296875">
        <ele>74.59999847412109375</ele>
        <time>2020-02-22T07:38:36.000Z</time>
      </trkpt>
      <trkpt lat="37.97588811255991458892822265625" lon="-1.21808473952114582061767578125">
        <ele>74.40000152587890625</ele>
        <time>2020-02-22T07:38:38.000Z</time>
      </trkpt>
      <trkpt lat="37.9758586920797824859619140625" lon="-1.2181522138416767120361328125">
        <ele>74.40000152587890625</ele>
        <time>2020-02-22T07:38:39.000Z</time>
      </trkpt>
      <trkpt lat="37.97577562741935253143310546875" lon="-1.21834508143365383148193359375">
        <ele>74</ele>
        <time>2020-02-22T07:38:42.000Z</time>
      </trkpt>
      <trkpt lat="37.97573455609381198883056640625" lon="-1.2184395454823970794677734375">
        <ele>73.8000030517578125</ele>
        <time>2020-02-22T07:38:44.000Z</time>
      </trkpt>
      <trkpt lat="37.97571770846843719482421875" lon="-1.21847248636186122894287109375">
        <ele>73.40000152587890625</ele>
        <time>2020-02-22T07:38:45.000Z</time>
      </trkpt>
      <trkpt lat="37.9757036268711090087890625" lon="-1.2185015715658664703369140625">
        <ele>73.1999969482421875</ele>
        <time>2020-02-22T07:38:46.000Z</time>
      </trkpt>
      <trkpt lat="37.9756645672023296356201171875" lon="-1.2185920961201190948486328125">
        <ele>72.8000030517578125</ele>
        <time>2020-02-22T07:38:49.000Z</time>
      </trkpt>
      <trkpt lat="37.9756172932684421539306640625" lon="-1.2186832912266254425048828125">
        <ele>72.59999847412109375</ele>
        <time>2020-02-22T07:38:52.000Z</time>
      </trkpt>
      <trkpt lat="37.97560094855725765228271484375" lon="-1.21871195733547210693359375">
        <ele>72.40000152587890625</ele>
        <time>2020-02-22T07:38:53.000Z</time>
      </trkpt>
      <trkpt lat="37.975572533905506134033203125" lon="-1.2187657691538333892822265625">
        <ele>72</ele>
        <time>2020-02-22T07:38:55.000Z</time>
      </trkpt>
      <trkpt lat="37.9755373299121856689453125" lon="-1.21885302476584911346435546875">
        <ele>71.8000030517578125</ele>
        <time>2020-02-22T07:38:58.000Z</time>
      </trkpt>
      <trkpt lat="37.97553322277963161468505859375" lon="-1.21896483935415744781494140625">
        <ele>71.59999847412109375</ele>
        <time>2020-02-22T07:39:01.000Z</time>
      </trkpt>
      <trkpt lat="37.9755827598273754119873046875" lon="-1.21904312632977962493896484375">
        <ele>71.40000152587890625</ele>
        <time>2020-02-22T07:39:03.000Z</time>
      </trkpt>
      <trkpt lat="37.97561922110617160797119140625" lon="-1.2190779112279415130615234375">
        <ele>71.1999969482421875</ele>
        <time>2020-02-22T07:39:04.000Z</time>
      </trkpt>
      <trkpt lat="37.97571058385074138641357421875" lon="-1.21911990456283092498779296875">
        <ele>71</ele>
        <time>2020-02-22T07:39:06.000Z</time>
      </trkpt>
      <trkpt lat="37.9758332110941410064697265625" lon="-1.21913884766399860382080078125">
        <ele>70.8000030517578125</ele>
        <time>2020-02-22T07:39:08.000Z</time>
      </trkpt>
      <trkpt lat="37.97603613696992397308349609375" lon="-1.21917036361992359161376953125">
        <ele>69.8000030517578125</ele>
        <time>2020-02-22T07:39:11.000Z</time>
      </trkpt>
      <trkpt lat="37.97626697458326816558837890625" lon="-1.2191694416105747222900390625">
        <ele>68.8000030517578125</ele>
        <time>2020-02-22T07:39:14.000Z</time>
      </trkpt>
      <trkpt lat="37.97659420408308506011962890625" lon="-1.2191895581781864166259765625">
        <ele>67.59999847412109375</ele>
        <time>2020-02-22T07:39:18.000Z</time>
      </trkpt>
      <trkpt lat="37.97676066868007183074951171875" lon="-1.2192026339471340179443359375">
        <ele>67.40000152587890625</ele>
        <time>2020-02-22T07:39:20.000Z</time>
      </trkpt>
      <trkpt lat="37.97716367058455944061279296875" lon="-1.21933062560856342315673828125">
        <ele>67.1999969482421875</ele>
        <time>2020-02-22T07:39:25.000Z</time>
      </trkpt>
      <trkpt lat="37.97773833386600017547607421875" lon="-1.21943120844662189483642578125">
        <ele>67.1999969482421875</ele>
        <time>2020-02-22T07:39:32.000Z</time>
      </trkpt>
      <trkpt lat="37.977904044091701507568359375" lon="-1.219457276165485382080078125">
        <ele>67.1999969482421875</ele>
        <time>2020-02-22T07:39:34.000Z</time>
      </trkpt>
      <trkpt lat="37.9783219657838344573974609375" lon="-1.21952307410538196563720703125">
        <ele>66.8000030517578125</ele>
        <time>2020-02-22T07:39:39.000Z</time>
      </trkpt>
      <trkpt lat="37.97848298214375972747802734375" lon="-1.2195374071598052978515625">
        <ele>66.59999847412109375</ele>
        <time>2020-02-22T07:39:41.000Z</time>
      </trkpt>
      <trkpt lat="37.97855774872004985809326171875" lon="-1.2195320427417755126953125">
        <ele>66.59999847412109375</ele>
        <time>2020-02-22T07:39:42.000Z</time>
      </trkpt>
      <trkpt lat="37.97870325855910778045654296875" lon="-1.21951167471706867218017578125">
        <ele>66.1999969482421875</ele>
        <time>2020-02-22T07:39:44.000Z</time>
      </trkpt>
      <trkpt lat="37.9787725768983364105224609375" lon="-1.21952944435179233551025390625">
        <ele>66</ele>
        <time>2020-02-22T07:39:45.000Z</time>
      </trkpt>
      <trkpt lat="37.97909268178045749664306640625" lon="-1.21965064667165279388427734375">
        <ele>65.8000030517578125</ele>
        <time>2020-02-22T07:39:50.000Z</time>
      </trkpt>
      <trkpt lat="37.97958386130630970001220703125" lon="-1.21973915956914424896240234375">
        <ele>65.8000030517578125</ele>
        <time>2020-02-22T07:39:57.000Z</time>
      </trkpt>
      <trkpt lat="37.98016875050961971282958984375" lon="-1.21981996111571788787841796875">
        <ele>66.40000152587890625</ele>
        <time>2020-02-22T07:40:06.000Z</time>
      </trkpt>
      <trkpt lat="37.98048877157270908355712890625" lon="-1.21984879486262798309326171875">
        <ele>67.40000152587890625</ele>
        <time>2020-02-22T07:40:12.000Z</time>
      </trkpt>
      <trkpt lat="37.98054409213364124298095703125" lon="-1.2198483757674694061279296875">
        <ele>67.59999847412109375</ele>
        <time>2020-02-22T07:40:13.000Z</time>
      </trkpt>
      <trkpt lat="37.98060243017971515655517578125" lon="-1.21984795667231082916259765625">
        <ele>68</ele>
        <time>2020-02-22T07:40:14.000Z</time>
      </trkpt>
      <trkpt lat="37.98092764802277088165283203125" lon="-1.219832114875316619873046875">
        <ele>68.1999969482421875</ele>
        <time>2020-02-22T07:40:19.000Z</time>
      </trkpt>
      <trkpt lat="37.98107164911925792694091796875" lon="-1.21982431970536708831787109375">
        <ele>68.1999969482421875</ele>
        <time>2020-02-22T07:40:21.000Z</time>
      </trkpt>
      <trkpt lat="37.98119301907718181610107421875" lon="-1.21980856172740459442138671875">
        <ele>68.1999969482421875</ele>
        <time>2020-02-22T07:40:23.000Z</time>
      </trkpt>
      <trkpt lat="37.9813032411038875579833984375" lon="-1.21978324837982654571533203125">
        <ele>68.1999969482421875</ele>
        <time>2020-02-22T07:40:25.000Z</time>
      </trkpt>
      <trkpt lat="37.9813523590564727783203125" lon="-1.219755001366138458251953125">
        <ele>68</ele>
        <time>2020-02-22T07:40:26.000Z</time>
      </trkpt>
      <trkpt lat="37.98145688138902187347412109375" lon="-1.219708733260631561279296875">
        <ele>67.8000030517578125</ele>
        <time>2020-02-22T07:40:28.000Z</time>
      </trkpt>
      <trkpt lat="37.98157623969018459320068359375" lon="-1.2197132594883441925048828125">
        <ele>67.8000030517578125</ele>
        <time>2020-02-22T07:40:30.000Z</time>
      </trkpt>
      <trkpt lat="37.9817072488367557525634765625" lon="-1.2197280116379261016845703125">
        <ele>67.59999847412109375</ele>
        <time>2020-02-22T07:40:32.000Z</time>
      </trkpt>
      <trkpt lat="37.98192827962338924407958984375" lon="-1.21971921063959598541259765625">
        <ele>67.40000152587890625</ele>
        <time>2020-02-22T07:40:35.000Z</time>
      </trkpt>
      <trkpt lat="37.9823152720928192138671875" lon="-1.2196871079504489898681640625">
        <ele>66.8000030517578125</ele>
        <time>2020-02-22T07:40:40.000Z</time>
      </trkpt>
      <trkpt lat="37.98271835781633853912353515625" lon="-1.21965735219419002532958984375">
        <ele>66.1999969482421875</ele>
        <time>2020-02-22T07:40:45.000Z</time>
      </trkpt>
      <trkpt lat="37.9829457588493824005126953125" lon="-1.219645030796527862548828125">
        <ele>66.1999969482421875</ele>
        <time>2020-02-22T07:40:48.000Z</time>
      </trkpt>
      <trkpt lat="37.9831921868026256561279296875" lon="-1.21961007826030254364013671875">
        <ele>66.1999969482421875</ele>
        <time>2020-02-22T07:40:52.000Z</time>
      </trkpt>
      <trkpt lat="37.98334700055420398712158203125" lon="-1.21960823424160480499267578125">
        <ele>66.8000030517578125</ele>
        <time>2020-02-22T07:40:55.000Z</time>
      </trkpt>
      <trkpt lat="37.9834873974323272705078125" lon="-1.219602115452289581298828125">
        <ele>68</ele>
        <time>2020-02-22T07:40:58.000Z</time>
      </trkpt>
      <trkpt lat="37.9835257865488529205322265625" lon="-1.21959432028234004974365234375">
        <ele>68.59999847412109375</ele>
        <time>2020-02-22T07:40:59.000Z</time>
      </trkpt>
      <trkpt lat="37.983613125979900360107421875" lon="-1.21957856230437755584716796875">
        <ele>69.40000152587890625</ele>
        <time>2020-02-22T07:41:01.000Z</time>
      </trkpt>
      <trkpt lat="37.98379995860159397125244140625" lon="-1.219584681093692779541015625">
        <ele>70.59999847412109375</ele>
        <time>2020-02-22T07:41:05.000Z</time>
      </trkpt>
      <trkpt lat="37.9840390942990779876708984375" lon="-1.21956288814544677734375">
        <ele>71.40000152587890625</ele>
        <time>2020-02-22T07:41:10.000Z</time>
      </trkpt>
      <trkpt lat="37.98414981923997402191162109375" lon="-1.2195575237274169921875">
        <ele>71.59999847412109375</ele>
        <time>2020-02-22T07:41:12.000Z</time>
      </trkpt>
      <trkpt lat="37.98438987694680690765380859375" lon="-1.21954788453876972198486328125">
        <ele>72.40000152587890625</ele>
        <time>2020-02-22T07:41:16.000Z</time>
      </trkpt>
      <trkpt lat="37.98445022664964199066162109375" lon="-1.21954805217683315277099609375">
        <ele>72.40000152587890625</ele>
        <time>2020-02-22T07:41:17.000Z</time>
      </trkpt>
      <trkpt lat="37.984584756195545196533203125" lon="-1.2195402570068836212158203125">
        <ele>72.59999847412109375</ele>
        <time>2020-02-22T07:41:19.000Z</time>
      </trkpt>
      <trkpt lat="37.984840571880340576171875" lon="-1.2195239961147308349609375">
        <ele>73</ele>
        <time>2020-02-22T07:41:23.000Z</time>
      </trkpt>
      <trkpt lat="37.98528741113841533660888671875" lon="-1.21951469220221042633056640625">
        <ele>73.59999847412109375</ele>
        <time>2020-02-22T07:41:30.000Z</time>
      </trkpt>
      <trkpt lat="37.98534893430769443511962890625" lon="-1.219508238136768341064453125">
        <ele>73.8000030517578125</ele>
        <time>2020-02-22T07:41:31.000Z</time>
      </trkpt>
      <trkpt lat="37.985414229333400726318359375" lon="-1.219500191509723663330078125">
        <ele>74</ele>
        <time>2020-02-22T07:41:32.000Z</time>
      </trkpt>
      <trkpt lat="37.98597187735140323638916015625" lon="-1.2194312922656536102294921875">
        <ele>74.8000030517578125</ele>
        <time>2020-02-22T07:41:40.000Z</time>
      </trkpt>
      <trkpt lat="37.986043207347393035888671875" lon="-1.21942433528602123260498046875">
        <ele>74.8000030517578125</ele>
        <time>2020-02-22T07:41:41.000Z</time>
      </trkpt>
      <trkpt lat="37.98638912849128246307373046875" lon="-1.21939784847199916839599609375">
        <ele>75.40000152587890625</ele>
        <time>2020-02-22T07:41:46.000Z</time>
      </trkpt>
      <trkpt lat="37.98667662777006626129150390625" lon="-1.21937421150505542755126953125">
        <ele>75.59999847412109375</ele>
        <time>2020-02-22T07:41:50.000Z</time>
      </trkpt>
      <trkpt lat="37.9868175275623798370361328125" lon="-1.21936582960188388824462890625">
        <ele>75.59999847412109375</ele>
        <time>2020-02-22T07:41:52.000Z</time>
      </trkpt>
      <trkpt lat="37.9870847426354885101318359375" lon="-1.2193501554429531097412109375">
        <ele>75.59999847412109375</ele>
        <time>2020-02-22T07:41:56.000Z</time>
      </trkpt>
      <trkpt lat="37.987189851701259613037109375" lon="-1.21933934278786182403564453125">
        <ele>75.59999847412109375</ele>
        <time>2020-02-22T07:41:58.000Z</time>
      </trkpt>
      <trkpt lat="37.9872290790081024169921875" lon="-1.21933691203594207763671875">
        <ele>75.59999847412109375</ele>
        <time>2020-02-22T07:41:59.000Z</time>
      </trkpt>
      <trkpt lat="37.9872885905206203460693359375" lon="-1.219335235655307769775390625">
        <ele>75.59999847412109375</ele>
        <time>2020-02-22T07:42:01.000Z</time>
      </trkpt>
      <trkpt lat="37.987378276884555816650390625" lon="-1.21933062560856342315673828125">
        <ele>75.8000030517578125</ele>
        <time>2020-02-22T07:42:04.000Z</time>
      </trkpt>
      <trkpt lat="37.9874892532825469970703125" lon="-1.21931143105030059814453125">
        <ele>75.8000030517578125</ele>
        <time>2020-02-22T07:42:07.000Z</time>
      </trkpt>
      <trkpt lat="37.98763467930257320404052734375" lon="-1.2192991934716701507568359375">
        <ele>75.8000030517578125</ele>
        <time>2020-02-22T07:42:10.000Z</time>
      </trkpt>
      <trkpt lat="37.98780784942209720611572265625" lon="-1.21928821317851543426513671875">
        <ele>75.8000030517578125</ele>
        <time>2020-02-22T07:42:13.000Z</time>
      </trkpt>
      <trkpt lat="37.98800935037434101104736328125" lon="-1.21927446685731410980224609375">
        <ele>75.8000030517578125</ele>
        <time>2020-02-22T07:42:16.000Z</time>
      </trkpt>
      <trkpt lat="37.98808093182742595672607421875" lon="-1.21927253901958465576171875">
        <ele>75.8000030517578125</ele>
        <time>2020-02-22T07:42:17.000Z</time>
      </trkpt>
      <trkpt lat="37.98868929035961627960205078125" lon="-1.21931721456348896026611328125">
        <ele>75.59999847412109375</ele>
        <time>2020-02-22T07:42:25.000Z</time>
      </trkpt>
      <trkpt lat="37.98928339965641498565673828125" lon="-1.2193893827497959136962890625">
        <ele>75.8000030517578125</ele>
        <time>2020-02-22T07:42:33.000Z</time>
      </trkpt>
      <trkpt lat="37.98935732804238796234130859375" lon="-1.21939348988234996795654296875">
        <ele>75.8000030517578125</ele>
        <time>2020-02-22T07:42:34.000Z</time>
      </trkpt>
      <trkpt lat="37.9896734096109867095947265625" lon="-1.219405643641948699951171875">
        <ele>75.8000030517578125</ele>
        <time>2020-02-22T07:42:39.000Z</time>
      </trkpt>
      <trkpt lat="37.989834845066070556640625" lon="-1.21939918957650661468505859375">
        <ele>76.1999969482421875</ele>
        <time>2020-02-22T07:42:42.000Z</time>
      </trkpt>
      <trkpt lat="37.9899208433926105499267578125" lon="-1.21940908022224903106689453125">
        <ele>76.59999847412109375</ele>
        <time>2020-02-22T07:42:44.000Z</time>
      </trkpt>
      <trkpt lat="37.9900036565959453582763671875" lon="-1.21942483820021152496337890625">
        <ele>77</ele>
        <time>2020-02-22T07:42:46.000Z</time>
      </trkpt>
      <trkpt lat="37.99038595519959926605224609375" lon="-1.219487451016902923583984375">
        <ele>77.40000152587890625</ele>
        <time>2020-02-22T07:42:53.000Z</time>
      </trkpt>
      <trkpt lat="37.99051855690777301788330078125" lon="-1.21949709020555019378662109375">
        <ele>77.40000152587890625</ele>
        <time>2020-02-22T07:42:55.000Z</time>
      </trkpt>
      <trkpt lat="37.99065585248172283172607421875" lon="-1.2195157818496227264404296875">
        <ele>77.40000152587890625</ele>
        <time>2020-02-22T07:42:57.000Z</time>
      </trkpt>
      <trkpt lat="37.99094259738922119140625" lon="-1.21955157257616519927978515625">
        <ele>77.59999847412109375</ele>
        <time>2020-02-22T07:43:01.000Z</time>
      </trkpt>
      <trkpt lat="37.99101434648036956787109375" lon="-1.219559870660305023193359375">
        <ele>77.59999847412109375</ele>
        <time>2020-02-22T07:43:02.000Z</time>
      </trkpt>
      <trkpt lat="37.9912428371608257293701171875" lon="-1.21959482319653034210205078125">
        <ele>77.8000030517578125</ele>
        <time>2020-02-22T07:43:05.000Z</time>
      </trkpt>
      <trkpt lat="37.99155749380588531494140625" lon="-1.2196217291057109832763671875">
        <ele>78</ele>
        <time>2020-02-22T07:43:09.000Z</time>
      </trkpt>
      <trkpt lat="37.99163904972374439239501953125" lon="-1.21962784789502620697021484375">
        <ele>78</ele>
        <time>2020-02-22T07:43:10.000Z</time>
      </trkpt>
      <trkpt lat="37.9917190968990325927734375" lon="-1.21963120065629482269287109375">
        <ele>78.1999969482421875</ele>
        <time>2020-02-22T07:43:11.000Z</time>
      </trkpt>
      <trkpt lat="37.992223016917705535888671875" lon="-1.2197296880185604095458984375">
        <ele>78.40000152587890625</ele>
        <time>2020-02-22T07:43:17.000Z</time>
      </trkpt>
      <trkpt lat="37.992653511464595794677734375" lon="-1.21996195055544376373291015625">
        <ele>77.8000030517578125</ele>
        <time>2020-02-22T07:43:22.000Z</time>
      </trkpt>
      <trkpt lat="37.99287789501249790191650390625" lon="-1.22018524445593357086181640625">
        <ele>76.8000030517578125</ele>
        <time>2020-02-22T07:43:25.000Z</time>
      </trkpt>
      <trkpt lat="37.99301418475806713104248046875" lon="-1.22035883367061614990234375">
        <ele>76.1999969482421875</ele>
        <time>2020-02-22T07:43:27.000Z</time>
      </trkpt>
      <trkpt lat="37.99306917004287242889404296875" lon="-1.2204569019377231597900390625">
        <ele>75.8000030517578125</ele>
        <time>2020-02-22T07:43:28.000Z</time>
      </trkpt>
      <trkpt lat="37.99321149475872516632080078125" lon="-1.22077901847660541534423828125">
        <ele>74.59999847412109375</ele>
        <time>2020-02-22T07:43:31.000Z</time>
      </trkpt>
      <trkpt lat="37.993455491960048675537109375" lon="-1.221444793045520782470703125">
        <ele>73.8000030517578125</ele>
        <time>2020-02-22T07:43:37.000Z</time>
      </trkpt>
      <trkpt lat="37.99348960630595684051513671875" lon="-1.22154428623616695404052734375">
        <ele>73.59999847412109375</ele>
        <time>2020-02-22T07:43:38.000Z</time>
      </trkpt>
      <trkpt lat="37.99367350526154041290283203125" lon="-1.22205088846385478973388671875">
        <ele>73.8000030517578125</ele>
        <time>2020-02-22T07:43:44.000Z</time>
      </trkpt>
      <trkpt lat="37.99379646778106689453125" lon="-1.22230720706284046173095703125">
        <ele>76.1999969482421875</ele>
        <time>2020-02-22T07:43:48.000Z</time>
      </trkpt>
      <trkpt lat="37.99386628903448581695556640625" lon="-1.22242790646851062774658203125">
        <ele>77.59999847412109375</ele>
        <time>2020-02-22T07:43:50.000Z</time>
      </trkpt>
      <trkpt lat="37.9939346015453338623046875" lon="-1.222543157637119293212890625">
        <ele>78.59999847412109375</ele>
        <time>2020-02-22T07:43:52.000Z</time>
      </trkpt>
      <trkpt lat="37.994048595428466796875" lon="-1.2227076105773448944091796875">
        <ele>79.8000030517578125</ele>
        <time>2020-02-22T07:43:55.000Z</time>
      </trkpt>
      <trkpt lat="37.99416518770158290863037109375" lon="-1.2228547967970371246337890625">
        <ele>81</ele>
        <time>2020-02-22T07:43:58.000Z</time>
      </trkpt>
      <trkpt lat="37.9942046664655208587646484375" lon="-1.222901903092861175537109375">
        <ele>81.59999847412109375</ele>
        <time>2020-02-22T07:43:59.000Z</time>
      </trkpt>
      <trkpt lat="37.9942479170858860015869140625" lon="-1.222946830093860626220703125">
        <ele>82</ele>
        <time>2020-02-22T07:44:00.000Z</time>
      </trkpt>
      <trkpt lat="37.99438579939305782318115234375" lon="-1.2230790965259075164794921875">
        <ele>83.1999969482421875</ele>
        <time>2020-02-22T07:44:03.000Z</time>
      </trkpt>
      <trkpt lat="37.99458034336566925048828125" lon="-1.2232333235442638397216796875">
        <ele>84.40000152587890625</ele>
        <time>2020-02-22T07:44:07.000Z</time>
      </trkpt>
      <trkpt lat="37.9946841113269329071044921875" lon="-1.2233070842921733856201171875">
        <ele>84.59999847412109375</ele>
        <time>2020-02-22T07:44:09.000Z</time>
      </trkpt>
      <trkpt lat="37.99490631558001041412353515625" lon="-1.223427951335906982421875">
        <ele>85.40000152587890625</ele>
        <time>2020-02-22T07:44:13.000Z</time>
      </trkpt>
      <trkpt lat="37.99512139521539211273193359375" lon="-1.2235206551849842071533203125">
        <ele>85.8000030517578125</ele>
        <time>2020-02-22T07:44:17.000Z</time>
      </trkpt>
      <trkpt lat="37.9954475350677967071533203125" lon="-1.223631799221038818359375">
        <ele>86.59999847412109375</ele>
        <time>2020-02-22T07:44:23.000Z</time>
      </trkpt>
      <trkpt lat="37.9955682344734668731689453125" lon="-1.22366088442504405975341796875">
        <ele>86.59999847412109375</ele>
        <time>2020-02-22T07:44:25.000Z</time>
      </trkpt>
      <trkpt lat="37.99582421779632568359375" lon="-1.223726682364940643310546875">
        <ele>86.8000030517578125</ele>
        <time>2020-02-22T07:44:29.000Z</time>
      </trkpt>
      <trkpt lat="37.996042482554912567138671875" lon="-1.22378611005842685699462890625">
        <ele>86.8000030517578125</ele>
        <time>2020-02-22T07:44:32.000Z</time>
      </trkpt>
      <trkpt lat="37.99645193852484226226806640625" lon="-1.2238914705812931060791015625">
        <ele>86.40000152587890625</ele>
        <time>2020-02-22T07:44:37.000Z</time>
      </trkpt>
      <trkpt lat="37.99664354883134365081787109375" lon="-1.22393949888646602630615234375">
        <ele>86.1999969482421875</ele>
        <time>2020-02-22T07:44:39.000Z</time>
      </trkpt>
      <trkpt lat="37.996849827468395233154296875" lon="-1.223984844982624053955078125">
        <ele>85.59999847412109375</ele>
        <time>2020-02-22T07:44:41.000Z</time>
      </trkpt>
      <trkpt lat="37.996955104172229766845703125" lon="-1.2240104936063289642333984375">
        <ele>85</ele>
        <time>2020-02-22T07:44:42.000Z</time>
      </trkpt>
      <trkpt lat="37.99717294983565807342529296875" lon="-1.22406028211116790771484375">
        <ele>84.40000152587890625</ele>
        <time>2020-02-22T07:44:44.000Z</time>
      </trkpt>
      <trkpt lat="37.99728476442396640777587890625" lon="-1.224082075059413909912109375">
        <ele>84</ele>
        <time>2020-02-22T07:44:45.000Z</time>
      </trkpt>
      <trkpt lat="37.9975205473601818084716796875" lon="-1.2241171114146709442138671875">
        <ele>82.8000030517578125</ele>
        <time>2020-02-22T07:44:47.000Z</time>
      </trkpt>
      <trkpt lat="37.99776856787502765655517578125" lon="-1.2241278402507305145263671875">
        <ele>81.40000152587890625</ele>
        <time>2020-02-22T07:44:49.000Z</time>
      </trkpt>
      <trkpt lat="37.99789957702159881591796875" lon="-1.224122978746891021728515625">
        <ele>80.59999847412109375</ele>
        <time>2020-02-22T07:44:50.000Z</time>
      </trkpt>
      <trkpt lat="37.9980348609387874603271484375" lon="-1.22411283664405345916748046875">
        <ele>79.8000030517578125</ele>
        <time>2020-02-22T07:44:51.000Z</time>
      </trkpt>
      <trkpt lat="37.99830324947834014892578125" lon="-1.2240614555776119232177734375">
        <ele>78</ele>
        <time>2020-02-22T07:44:53.000Z</time>
      </trkpt>
      <trkpt lat="37.99844012595713138580322265625" lon="-1.224019713699817657470703125">
        <ele>77</ele>
        <time>2020-02-22T07:44:54.000Z</time>
      </trkpt>
      <trkpt lat="37.998573482036590576171875" lon="-1.22396699152886867523193359375">
        <ele>76.1999969482421875</ele>
        <time>2020-02-22T07:44:55.000Z</time>
      </trkpt>
      <trkpt lat="37.99883491359651088714599609375" lon="-1.2238384969532489776611328125">
        <ele>74.40000152587890625</ele>
        <time>2020-02-22T07:44:57.000Z</time>
      </trkpt>
      <trkpt lat="37.998959720134735107421875" lon="-1.22376398183405399322509765625">
        <ele>73.59999847412109375</ele>
        <time>2020-02-22T07:44:58.000Z</time>
      </trkpt>
      <trkpt lat="37.999080754816532135009765625" lon="-1.2236896343529224395751953125">
        <ele>72.8000030517578125</ele>
        <time>2020-02-22T07:44:59.000Z</time>
      </trkpt>
      <trkpt lat="37.999308072030544281005859375" lon="-1.22353716753423213958740234375">
        <ele>71</ele>
        <time>2020-02-22T07:45:01.000Z</time>
      </trkpt>
      <trkpt lat="37.9994118399918079376220703125" lon="-1.22346038930118083953857421875">
        <ele>69.8000030517578125</ele>
        <time>2020-02-22T07:45:02.000Z</time>
      </trkpt>
      <trkpt lat="37.99950965680181980133056640625" lon="-1.2233888916671276092529296875">
        <ele>69</ele>
        <time>2020-02-22T07:45:03.000Z</time>
      </trkpt>
      <trkpt lat="37.9996029473841190338134765625" lon="-1.2233220040798187255859375">
        <ele>68.59999847412109375</ele>
        <time>2020-02-22T07:45:04.000Z</time>
      </trkpt>
      <trkpt lat="37.9999697394669055938720703125" lon="-1.22312159277498722076416015625">
        <ele>68.1999969482421875</ele>
        <time>2020-02-22T07:45:08.000Z</time>
      </trkpt>
      <trkpt lat="38.0005081929266452789306640625" lon="-1.2228903360664844512939453125">
        <ele>68.59999847412109375</ele>
        <time>2020-02-22T07:45:14.000Z</time>
      </trkpt>
      <trkpt lat="38.000673316419124603271484375" lon="-1.22280458919703960418701171875">
        <ele>68.8000030517578125</ele>
        <time>2020-02-22T07:45:16.000Z</time>
      </trkpt>
      <trkpt lat="38.001145385205745697021484375" lon="-1.22256302274763584136962890625">
        <ele>69</ele>
        <time>2020-02-22T07:45:22.000Z</time>
      </trkpt>
      <trkpt lat="38.00147672183811664581298828125" lon="-1.22243729420006275177001953125">
        <ele>69.1999969482421875</ele>
        <time>2020-02-22T07:45:26.000Z</time>
      </trkpt>
      <trkpt lat="38.00163061358034610748291015625" lon="-1.22236906550824642181396484375">
        <ele>69.1999969482421875</ele>
        <time>2020-02-22T07:45:28.000Z</time>
      </trkpt>
      <trkpt lat="38.0017929710447788238525390625" lon="-1.22230737470090389251708984375">
        <ele>69.1999969482421875</ele>
        <time>2020-02-22T07:45:30.000Z</time>
      </trkpt>
      <trkpt lat="38.00204803235828876495361328125" lon="-1.2222234718501567840576171875">
        <ele>69.8000030517578125</ele>
        <time>2020-02-22T07:45:33.000Z</time>
      </trkpt>
      <trkpt lat="38.00232253968715667724609375" lon="-1.2221094779670238494873046875">
        <ele>71</ele>
        <time>2020-02-22T07:45:37.000Z</time>
      </trkpt>
      <trkpt lat="38.00270265899598598480224609375" lon="-1.221974529325962066650390625">
        <ele>72</ele>
        <time>2020-02-22T07:45:42.000Z</time>
      </trkpt>
      <trkpt lat="38.00292603671550750732421875" lon="-1.221879310905933380126953125">
        <ele>72.40000152587890625</ele>
        <time>2020-02-22T07:45:45.000Z</time>
      </trkpt>
      <trkpt lat="38.00321848131716251373291015625" lon="-1.2217587791383266448974609375">
        <ele>72.59999847412109375</ele>
        <time>2020-02-22T07:45:49.000Z</time>
      </trkpt>
      <trkpt lat="38.00352643243968486785888671875" lon="-1.22163196094334125518798828125">
        <ele>72.59999847412109375</ele>
        <time>2020-02-22T07:45:53.000Z</time>
      </trkpt>
      <trkpt lat="38.0040852539241313934326171875" lon="-1.22142761014401912689208984375">
        <ele>72.1999969482421875</ele>
        <time>2020-02-22T07:46:00.000Z</time>
      </trkpt>
      <trkpt lat="38.00417468883097171783447265625" lon="-1.22141570784151554107666015625">
        <ele>72</ele>
        <time>2020-02-22T07:46:01.000Z</time>
      </trkpt>
      <trkpt lat="38.00468212924897670745849609375" lon="-1.22141000814735889434814453125">
        <ele>71.8000030517578125</ele>
        <time>2020-02-22T07:46:07.000Z</time>
      </trkpt>
      <trkpt lat="38.00501606427133083343505859375" lon="-1.22147488407790660858154296875">
        <ele>71.8000030517578125</ele>
        <time>2020-02-22T07:46:11.000Z</time>
      </trkpt>
      <trkpt lat="38.005188815295696258544921875" lon="-1.2215374968945980072021484375">
        <ele>71.8000030517578125</ele>
        <time>2020-02-22T07:46:13.000Z</time>
      </trkpt>
      <trkpt lat="38.00573891960084438323974609375" lon="-1.22171795926988124847412109375">
        <ele>71.8000030517578125</ele>
        <time>2020-02-22T07:46:19.000Z</time>
      </trkpt>
      <trkpt lat="38.0058382451534271240234375" lon="-1.22172919102013111114501953125">
        <ele>71.8000030517578125</ele>
        <time>2020-02-22T07:46:20.000Z</time>
      </trkpt>
      <trkpt lat="38.0063356272876262664794921875" lon="-1.221746541559696197509765625">
        <ele>70.8000030517578125</ele>
        <time>2020-02-22T07:46:25.000Z</time>
      </trkpt>
      <trkpt lat="38.00652581267058849334716796875" lon="-1.22174830175936222076416015625">
        <ele>70.59999847412109375</ele>
        <time>2020-02-22T07:46:27.000Z</time>
      </trkpt>
      <trkpt lat="38.00703191198408603668212890625" lon="-1.22175148688256740570068359375">
        <ele>70.59999847412109375</ele>
        <time>2020-02-22T07:46:33.000Z</time>
      </trkpt>
      <trkpt lat="38.00741177983582019805908203125" lon="-1.2217527441680431365966796875">
        <ele>71</ele>
        <time>2020-02-22T07:46:38.000Z</time>
      </trkpt>
      <trkpt lat="38.007613532245159149169921875" lon="-1.2217534147202968597412109375">
        <ele>71.59999847412109375</ele>
        <time>2020-02-22T07:46:41.000Z</time>
      </trkpt>
      <trkpt lat="38.00773884169757366180419921875" lon="-1.22175735421478748321533203125">
        <ele>72</ele>
        <time>2020-02-22T07:46:43.000Z</time>
      </trkpt>
      <trkpt lat="38.008119799196720123291015625" lon="-1.2218000181019306182861328125">
        <ele>73.1999969482421875</ele>
        <time>2020-02-22T07:46:49.000Z</time>
      </trkpt>
      <trkpt lat="38.00825851969420909881591796875" lon="-1.22181854210793972015380859375">
        <ele>73.1999969482421875</ele>
        <time>2020-02-22T07:46:51.000Z</time>
      </trkpt>
      <trkpt lat="38.0088508687913417816162109375" lon="-1.22189548797905445098876953125">
        <ele>73.40000152587890625</ele>
        <time>2020-02-22T07:46:59.000Z</time>
      </trkpt>
      <trkpt lat="38.00914666615426540374755859375" lon="-1.22194410301744937896728515625">
        <ele>73.40000152587890625</ele>
        <time>2020-02-22T07:47:03.000Z</time>
      </trkpt>
      <trkpt lat="38.009691573679447174072265625" lon="-1.222014091908931732177734375">
        <ele>73.1999969482421875</ele>
        <time>2020-02-22T07:47:10.000Z</time>
      </trkpt>
      <trkpt lat="38.0097671784460544586181640625" lon="-1.2220211327075958251953125">
        <ele>73.1999969482421875</ele>
        <time>2020-02-22T07:47:11.000Z</time>
      </trkpt>
      <trkpt lat="38.010366149246692657470703125" lon="-1.222126074135303497314453125">
        <ele>73.40000152587890625</ele>
        <time>2020-02-22T07:47:19.000Z</time>
      </trkpt>
      <trkpt lat="38.01044720225036144256591796875" lon="-1.2221473641693592071533203125">
        <ele>73.40000152587890625</ele>
        <time>2020-02-22T07:47:20.000Z</time>
      </trkpt>
      <trkpt lat="38.01069212146103382110595703125" lon="-1.22220955789089202880859375">
        <ele>73.59999847412109375</ele>
        <time>2020-02-22T07:47:23.000Z</time>
      </trkpt>
      <trkpt lat="38.0110972188413143157958984375" lon="-1.222352050244808197021484375">
        <ele>73.59999847412109375</ele>
        <time>2020-02-22T07:47:28.000Z</time>
      </trkpt>
      <trkpt lat="38.01126058213412761688232421875" lon="-1.222435198724269866943359375">
        <ele>73.59999847412109375</ele>
        <time>2020-02-22T07:47:30.000Z</time>
      </trkpt>
      <trkpt lat="38.01160641945898532867431640625" lon="-1.222639717161655426025390625">
        <ele>73.1999969482421875</ele>
        <time>2020-02-22T07:47:34.000Z</time>
      </trkpt>
      <trkpt lat="38.0121422745287418365478515625" lon="-1.222955882549285888671875">
        <ele>72.1999969482421875</ele>
        <time>2020-02-22T07:47:40.000Z</time>
      </trkpt>
      <trkpt lat="38.01222433336079120635986328125" lon="-1.22300407849252223968505859375">
        <ele>71.8000030517578125</ele>
        <time>2020-02-22T07:47:41.000Z</time>
      </trkpt>
      <trkpt lat="38.0123058892786502838134765625" lon="-1.22304908931255340576171875">
        <ele>71.1999969482421875</ele>
        <time>2020-02-22T07:47:42.000Z</time>
      </trkpt>
      <trkpt lat="38.01245919428765773773193359375" lon="-1.2231451459228992462158203125">
        <ele>70.59999847412109375</ele>
        <time>2020-02-22T07:47:44.000Z</time>
      </trkpt>
      <trkpt lat="38.01277485676109790802001953125" lon="-1.22333097271621227264404296875">
        <ele>70.1999969482421875</ele>
        <time>2020-02-22T07:47:48.000Z</time>
      </trkpt>
      <trkpt lat="38.0129318498075008392333984375" lon="-1.22343742288649082183837890625">
        <ele>70.1999969482421875</ele>
        <time>2020-02-22T07:47:50.000Z</time>
      </trkpt>
      <trkpt lat="38.01315656863152980804443359375" lon="-1.2236255966126918792724609375">
        <ele>70.1999969482421875</ele>
        <time>2020-02-22T07:47:53.000Z</time>
      </trkpt>
      <trkpt lat="38.01338321529328823089599609375" lon="-1.22382047586143016815185546875">
        <ele>70.1999969482421875</ele>
        <time>2020-02-22T07:47:56.000Z</time>
      </trkpt>
      <trkpt lat="38.01390607841312885284423828125" lon="-1.22417871840298175811767578125">
        <ele>70.1999969482421875</ele>
        <time>2020-02-22T07:48:03.000Z</time>
      </trkpt>
      <trkpt lat="38.01420950330793857574462890625" lon="-1.2243085540831089019775390625">
        <ele>70.1999969482421875</ele>
        <time>2020-02-22T07:48:07.000Z</time>
      </trkpt>
      <trkpt lat="38.014673776924610137939453125" lon="-1.22447342611849308013916015625">
        <ele>70.40000152587890625</ele>
        <time>2020-02-22T07:48:12.000Z</time>
      </trkpt>
      <trkpt lat="38.01530216820538043975830078125" lon="-1.22469286434352397918701171875">
        <ele>70.59999847412109375</ele>
        <time>2020-02-22T07:48:19.000Z</time>
      </trkpt>
      <trkpt lat="38.01571791060268878936767578125" lon="-1.22490962035953998565673828125">
        <ele>70.8000030517578125</ele>
        <time>2020-02-22T07:48:24.000Z</time>
      </trkpt>
      <trkpt lat="38.01604195497930049896240234375" lon="-1.22512805275619029998779296875">
        <ele>71</ele>
        <time>2020-02-22T07:48:29.000Z</time>
      </trkpt>
      <trkpt lat="38.01641930826008319854736328125" lon="-1.22544203884899616241455078125">
        <ele>71.8000030517578125</ele>
        <time>2020-02-22T07:48:36.000Z</time>
      </trkpt>
      <trkpt lat="38.01646851003170013427734375" lon="-1.22548587620258331298828125">
        <ele>72</ele>
        <time>2020-02-22T07:48:37.000Z</time>
      </trkpt>
      <trkpt lat="38.0166208930313587188720703125" lon="-1.22561772353947162628173828125">
        <ele>72.8000030517578125</ele>
        <time>2020-02-22T07:48:40.000Z</time>
      </trkpt>
      <trkpt lat="38.01677537150681018829345703125" lon="-1.22574814595282077789306640625">
        <ele>73.8000030517578125</ele>
        <time>2020-02-22T07:48:43.000Z</time>
      </trkpt>
      <trkpt lat="38.0168835818767547607421875" lon="-1.2258333899080753326416015625">
        <ele>74.1999969482421875</ele>
        <time>2020-02-22T07:48:45.000Z</time>
      </trkpt>
      <trkpt lat="38.01705013029277324676513671875" lon="-1.2259641475975513458251953125">
        <ele>75</ele>
        <time>2020-02-22T07:48:48.000Z</time>
      </trkpt>
      <trkpt lat="38.01738473586738109588623046875" lon="-1.2262444384396076202392578125">
        <ele>76.1999969482421875</ele>
        <time>2020-02-22T07:48:54.000Z</time>
      </trkpt>
      <trkpt lat="38.0178677849471569061279296875" lon="-1.2265679799020290374755859375">
        <ele>77</ele>
        <time>2020-02-22T07:49:02.000Z</time>
      </trkpt>
      <trkpt lat="38.017934672534465789794921875" lon="-1.22660779394209384918212890625">
        <ele>77.1999969482421875</ele>
        <time>2020-02-22T07:49:03.000Z</time>
      </trkpt>
      <trkpt lat="38.01844932138919830322265625" lon="-1.22689814306795597076416015625">
        <ele>78</ele>
        <time>2020-02-22T07:49:11.000Z</time>
      </trkpt>
      <trkpt lat="38.0185172148048877716064453125" lon="-1.22693384997546672821044921875">
        <ele>78</ele>
        <time>2020-02-22T07:49:12.000Z</time>
      </trkpt>
      <trkpt lat="38.018784262239933013916015625" lon="-1.227080784738063812255859375">
        <ele>78.40000152587890625</ele>
        <time>2020-02-22T07:49:16.000Z</time>
      </trkpt>
      <trkpt lat="38.0191500484943389892578125" lon="-1.227282620966434478759765625">
        <ele>78.40000152587890625</ele>
        <time>2020-02-22T07:49:21.000Z</time>
      </trkpt>
      <trkpt lat="38.01970736123621463775634765625" lon="-1.22759954072535037994384765625">
        <ele>78.59999847412109375</ele>
        <time>2020-02-22T07:49:28.000Z</time>
      </trkpt>
      <trkpt lat="38.0197862349450588226318359375" lon="-1.22764614410698413848876953125">
        <ele>78.59999847412109375</ele>
        <time>2020-02-22T07:49:29.000Z</time>
      </trkpt>
      <trkpt lat="38.02035729400813579559326171875" lon="-1.22797538526356220245361328125">
        <ele>78.1999969482421875</ele>
        <time>2020-02-22T07:49:36.000Z</time>
      </trkpt>
      <trkpt lat="38.0205248482525348663330078125" lon="-1.2280726991593837738037109375">
        <ele>78.1999969482421875</ele>
        <time>2020-02-22T07:49:38.000Z</time>
      </trkpt>
      <trkpt lat="38.02103639580309391021728515625" lon="-1.228382997214794158935546875">
        <ele>77.8000030517578125</ele>
        <time>2020-02-22T07:49:44.000Z</time>
      </trkpt>
      <trkpt lat="38.02137904800474643707275390625" lon="-1.2286051176488399505615234375">
        <ele>77.8000030517578125</ele>
        <time>2020-02-22T07:49:48.000Z</time>
      </trkpt>
      <trkpt lat="38.021892942488193511962890625" lon="-1.22895556502044200897216796875">
        <ele>77.1999969482421875</ele>
        <time>2020-02-22T07:49:54.000Z</time>
      </trkpt>
      <trkpt lat="38.02224934101104736328125" lon="-1.2291884981095790863037109375">
        <ele>77</ele>
        <time>2020-02-22T07:49:58.000Z</time>
      </trkpt>
      <trkpt lat="38.0227768979966640472412109375" lon="-1.22952838428318500518798828125">
        <ele>76.8000030517578125</ele>
        <time>2020-02-22T07:50:04.000Z</time>
      </trkpt>
      <trkpt lat="38.023196160793304443359375" lon="-1.22980264015495777130126953125">
        <ele>76.59999847412109375</ele>
        <time>2020-02-22T07:50:09.000Z</time>
      </trkpt>
      <trkpt lat="38.0235037766396999359130859375" lon="-1.23001704923808574676513671875">
        <ele>76.59999847412109375</ele>
        <time>2020-02-22T07:50:13.000Z</time>
      </trkpt>
      <trkpt lat="38.02389177493751049041748046875" lon="-1.230266578495502471923828125">
        <ele>76.59999847412109375</ele>
        <time>2020-02-22T07:50:18.000Z</time>
      </trkpt>
      <trkpt lat="38.02417173050343990325927734375" lon="-1.23045240528881549835205078125">
        <ele>76.8000030517578125</ele>
        <time>2020-02-22T07:50:22.000Z</time>
      </trkpt>
      <trkpt lat="38.02429444156587123870849609375" lon="-1.23053303919732570648193359375">
        <ele>76.8000030517578125</ele>
        <time>2020-02-22T07:50:24.000Z</time>
      </trkpt>
      <trkpt lat="38.02435814402997493743896484375" lon="-1.23056556098163127899169921875">
        <ele>76.8000030517578125</ele>
        <time>2020-02-22T07:50:25.000Z</time>
      </trkpt>
      <trkpt lat="38.024572469294071197509765625" lon="-1.23061082325875759124755859375">
        <ele>76.8000030517578125</ele>
        <time>2020-02-22T07:50:28.000Z</time>
      </trkpt>
      <trkpt lat="38.02472258917987346649169921875" lon="-1.23061048798263072967529296875">
        <ele>76.8000030517578125</ele>
        <time>2020-02-22T07:50:30.000Z</time>
      </trkpt>
      <trkpt lat="38.0247945897281169891357421875" lon="-1.23062096536159515380859375">
        <ele>76.8000030517578125</ele>
        <time>2020-02-22T07:50:31.000Z</time>
      </trkpt>
      <trkpt lat="38.02486055530607700347900390625" lon="-1.2306580133736133575439453125">
        <ele>76.8000030517578125</ele>
        <time>2020-02-22T07:50:32.000Z</time>
      </trkpt>
      <trkpt lat="38.02500665187835693359375" lon="-1.230885498225688934326171875">
        <ele>76.8000030517578125</ele>
        <time>2020-02-22T07:50:35.000Z</time>
      </trkpt>
      <trkpt lat="38.02518392913043498992919921875" lon="-1.2311079539358615875244140625">
        <ele>76.8000030517578125</ele>
        <time>2020-02-22T07:50:38.000Z</time>
      </trkpt>
      <trkpt lat="38.02533865906298160552978515625" lon="-1.2312139011919498443603515625">
        <ele>77</ele>
        <time>2020-02-22T07:50:40.000Z</time>
      </trkpt>
      <trkpt lat="38.0255764536559581756591796875" lon="-1.2313687987625598907470703125">
        <ele>77.1999969482421875</ele>
        <time>2020-02-22T07:50:43.000Z</time>
      </trkpt>
      <trkpt lat="38.02581877447664737701416015625" lon="-1.23152411542832851409912109375">
        <ele>77.1999969482421875</ele>
        <time>2020-02-22T07:50:46.000Z</time>
      </trkpt>
      <trkpt lat="38.02605916745960712432861328125" lon="-1.231672056019306182861328125">
        <ele>77.40000152587890625</ele>
        <time>2020-02-22T07:50:49.000Z</time>
      </trkpt>
      <trkpt lat="38.02628950215876102447509765625" lon="-1.23181932605803012847900390625">
        <ele>77.59999847412109375</ele>
        <time>2020-02-22T07:50:52.000Z</time>
      </trkpt>
      <trkpt lat="38.0267487466335296630859375" lon="-1.2321694381535053253173828125">
        <ele>78.1999969482421875</ele>
        <time>2020-02-22T07:50:58.000Z</time>
      </trkpt>
      <trkpt lat="38.02682661451399326324462890625" lon="-1.232236325740814208984375">
        <ele>78.40000152587890625</ele>
        <time>2020-02-22T07:50:59.000Z</time>
      </trkpt>
      <trkpt lat="38.02726884372532367706298828125" lon="-1.23268224298954010009765625">
        <ele>78.40000152587890625</ele>
        <time>2020-02-22T07:51:05.000Z</time>
      </trkpt>
      <trkpt lat="38.02768223918974399566650390625" lon="-1.2331457622349262237548828125">
        <ele>78.8000030517578125</ele>
        <time>2020-02-22T07:51:11.000Z</time>
      </trkpt>
      <trkpt lat="38.02788374014198780059814453125" lon="-1.23337031342089176177978515625">
        <ele>79</ele>
        <time>2020-02-22T07:51:14.000Z</time>
      </trkpt>
      <trkpt lat="38.02828120999038219451904296875" lon="-1.2338122911751270294189453125">
        <ele>79</ele>
        <time>2020-02-22T07:51:20.000Z</time>
      </trkpt>
      <trkpt lat="38.02842085249722003936767578125" lon="-1.23396291397511959075927734375">
        <ele>79.1999969482421875</ele>
        <time>2020-02-22T07:51:22.000Z</time>
      </trkpt>
      <trkpt lat="38.02886928431689739227294921875" lon="-1.2343641556799411773681640625">
        <ele>79.1999969482421875</ele>
        <time>2020-02-22T07:51:28.000Z</time>
      </trkpt>
      <trkpt lat="38.028955869376659393310546875" lon="-1.2344183027744293212890625">
        <ele>79.1999969482421875</ele>
        <time>2020-02-22T07:51:29.000Z</time>
      </trkpt>
      <trkpt lat="38.02950027398765087127685546875" lon="-1.2347074784338474273681640625">
        <ele>79.1999969482421875</ele>
        <time>2020-02-22T07:51:35.000Z</time>
      </trkpt>
      <trkpt lat="38.029681742191314697265625" lon="-1.23479976318776607513427734375">
        <ele>79.1999969482421875</ele>
        <time>2020-02-22T07:51:37.000Z</time>
      </trkpt>
      <trkpt lat="38.030223548412322998046875" lon="-1.2350682355463504791259765625">
        <ele>79</ele>
        <time>2020-02-22T07:51:43.000Z</time>
      </trkpt>
      <trkpt lat="38.03050979040563106536865234375" lon="-1.23520310036838054656982421875">
        <ele>79</ele>
        <time>2020-02-22T07:51:46.000Z</time>
      </trkpt>
      <trkpt lat="38.0310427956283092498779296875" lon="-1.2354576587677001953125">
        <ele>78.8000030517578125</ele>
        <time>2020-02-22T07:51:52.000Z</time>
      </trkpt>
      <trkpt lat="38.031129129230976104736328125" lon="-1.23550099320709705352783203125">
        <ele>78.8000030517578125</ele>
        <time>2020-02-22T07:51:53.000Z</time>
      </trkpt>
      <trkpt lat="38.031391985714435577392578125" lon="-1.2356308288872241973876953125">
        <ele>78.40000152587890625</ele>
        <time>2020-02-22T07:51:56.000Z</time>
      </trkpt>
      <trkpt lat="38.03181954659521579742431640625" lon="-1.23582889325916767120361328125">
        <ele>78.1999969482421875</ele>
        <time>2020-02-22T07:52:01.000Z</time>
      </trkpt>
      <trkpt lat="38.03190168924629688262939453125" lon="-1.235875748097896575927734375">
        <ele>78.1999969482421875</ele>
        <time>2020-02-22T07:52:02.000Z</time>
      </trkpt>
      <trkpt lat="38.03214945830404758453369140625" lon="-1.23600172810256481170654296875">
        <ele>78.1999969482421875</ele>
        <time>2020-02-22T07:52:05.000Z</time>
      </trkpt>
      <trkpt lat="38.03247920237481594085693359375" lon="-1.23614539392292499542236328125">
        <ele>78.1999969482421875</ele>
        <time>2020-02-22T07:52:09.000Z</time>
      </trkpt>
      <trkpt lat="38.03255933336913585662841796875" lon="-1.236181519925594329833984375">
        <ele>78.1999969482421875</ele>
        <time>2020-02-22T07:52:10.000Z</time>
      </trkpt>
      <trkpt lat="38.03279620595276355743408203125" lon="-1.236300207674503326416015625">
        <ele>78.40000152587890625</ele>
        <time>2020-02-22T07:52:13.000Z</time>
      </trkpt>
      <trkpt lat="38.03301212377846240997314453125" lon="-1.23641059733927249908447265625">
        <ele>78.59999847412109375</ele>
        <time>2020-02-22T07:52:16.000Z</time>
      </trkpt>
      <trkpt lat="38.0330738984048366546630859375" lon="-1.23643959872424602508544921875">
        <ele>78.59999847412109375</ele>
        <time>2020-02-22T07:52:17.000Z</time>
      </trkpt>
      <trkpt lat="38.033272214233875274658203125" lon="-1.2365508265793323516845703125">
        <ele>79</ele>
        <time>2020-02-22T07:52:21.000Z</time>
      </trkpt>
      <trkpt lat="38.0333095975220203399658203125" lon="-1.2365706078708171844482421875">
        <ele>79.1999969482421875</ele>
        <time>2020-02-22T07:52:22.000Z</time>
      </trkpt>
      <trkpt lat="38.03336584009230136871337890625" lon="-1.236599944531917572021484375">
        <ele>79.1999969482421875</ele>
        <time>2020-02-22T07:52:24.000Z</time>
      </trkpt>
      <trkpt lat="38.033399619162082672119140625" lon="-1.23661595396697521209716796875">
        <ele>79.40000152587890625</ele>
        <time>2020-02-22T07:52:26.000Z</time>
      </trkpt>
      <trkpt lat="38.03343574516475200653076171875" lon="-1.23663045465946197509765625">
        <ele>79.40000152587890625</ele>
        <time>2020-02-22T07:52:28.000Z</time>
      </trkpt>
      <trkpt lat="38.0334945023059844970703125" lon="-1.23666456900537014007568359375">
        <ele>79.59999847412109375</ele>
        <time>2020-02-22T07:52:32.000Z</time>
      </trkpt>
      <trkpt lat="38.03359282203018665313720703125" lon="-1.2367241643369197845458984375">
        <ele>79.59999847412109375</ele>
        <time>2020-02-22T07:52:41.000Z</time>
      </trkpt>
      <trkpt lat="38.0336304567754268646240234375" lon="-1.23674822039902210235595703125">
        <ele>80</ele>
        <time>2020-02-22T07:53:10.000Z</time>
      </trkpt>
      <trkpt lat="38.03370614536106586456298828125" lon="-1.23679163865745067596435546875">
        <ele>80</ele>
        <time>2020-02-22T07:53:13.000Z</time>
      </trkpt>
      <trkpt lat="38.0338138528168201446533203125" lon="-1.2368569336831569671630859375">
        <ele>80</ele>
        <time>2020-02-22T07:53:16.000Z</time>
      </trkpt>
      <trkpt lat="38.033917956054210662841796875" lon="-1.23690395615994930267333984375">
        <ele>80</ele>
        <time>2020-02-22T07:53:18.000Z</time>
      </trkpt>
      <trkpt lat="38.03404108621180057525634765625" lon="-1.23696782626211643218994140625">
        <ele>80</ele>
        <time>2020-02-22T07:53:20.000Z</time>
      </trkpt>
      <trkpt lat="38.0341702513396739959716796875" lon="-1.2370279245078563690185546875">
        <ele>80</ele>
        <time>2020-02-22T07:53:22.000Z</time>
      </trkpt>
      <trkpt lat="38.03437787108123302459716796875" lon="-1.23712238855659961700439453125">
        <ele>79.8000030517578125</ele>
        <time>2020-02-22T07:53:25.000Z</time>
      </trkpt>
      <trkpt lat="38.0345405638217926025390625" lon="-1.23719212599098682403564453125">
        <ele>79.40000152587890625</ele>
        <time>2020-02-22T07:53:27.000Z</time>
      </trkpt>
      <trkpt lat="38.034622035920619964599609375" lon="-1.23722498305141925811767578125">
        <ele>79.40000152587890625</ele>
        <time>2020-02-22T07:53:28.000Z</time>
      </trkpt>
      <trkpt lat="38.03478891961276531219482421875" lon="-1.23728700913488864898681640625">
        <ele>79.1999969482421875</ele>
        <time>2020-02-22T07:53:30.000Z</time>
      </trkpt>
      <trkpt lat="38.034960664808750152587890625" lon="-1.23734802938997745513916015625">
        <ele>79.1999969482421875</ele>
        <time>2020-02-22T07:53:32.000Z</time>
      </trkpt>
      <trkpt lat="38.03522050380706787109375" lon="-1.23743955977261066436767578125">
        <ele>79</ele>
        <time>2020-02-22T07:53:35.000Z</time>
      </trkpt>
      <trkpt lat="38.03547372110188007354736328125" lon="-1.23751969076693058013916015625">
        <ele>79</ele>
        <time>2020-02-22T07:53:38.000Z</time>
      </trkpt>
      <trkpt lat="38.03572149015963077545166015625" lon="-1.23760141432285308837890625">
        <ele>78.8000030517578125</ele>
        <time>2020-02-22T07:53:41.000Z</time>
      </trkpt>
      <trkpt lat="38.03580430336296558380126953125" lon="-1.2376277334988117218017578125">
        <ele>78.59999847412109375</ele>
        <time>2020-02-22T07:53:42.000Z</time>
      </trkpt>
      <trkpt lat="38.03596640937030315399169921875" lon="-1.2376820482313632965087890625">
        <ele>78.59999847412109375</ele>
        <time>2020-02-22T07:53:44.000Z</time>
      </trkpt>
      <trkpt lat="38.03618676960468292236328125" lon="-1.237766705453395843505859375">
        <ele>78.59999847412109375</ele>
        <time>2020-02-22T07:53:47.000Z</time>
      </trkpt>
      <trkpt lat="38.03650754503905773162841796875" lon="-1.23787022195756435394287109375">
        <ele>78.8000030517578125</ele>
        <time>2020-02-22T07:53:51.000Z</time>
      </trkpt>
      <trkpt lat="38.03675916977226734161376953125" lon="-1.2379358522593975067138671875">
        <ele>78.8000030517578125</ele>
        <time>2020-02-22T07:53:54.000Z</time>
      </trkpt>
      <trkpt lat="38.03734682500362396240234375" lon="-1.2380253709852695465087890625">
        <ele>79</ele>
        <time>2020-02-22T07:54:01.000Z</time>
      </trkpt>
      <trkpt lat="38.03750968538224697113037109375" lon="-1.23803995549678802490234375">
        <ele>79</ele>
        <time>2020-02-22T07:54:03.000Z</time>
      </trkpt>
      <trkpt lat="38.03790514357388019561767578125" lon="-1.23807071708142757415771484375">
        <ele>79.1999969482421875</ele>
        <time>2020-02-22T07:54:08.000Z</time>
      </trkpt>
      <trkpt lat="38.03812860511243343353271484375" lon="-1.23808194883167743682861328125">
        <ele>79.1999969482421875</ele>
        <time>2020-02-22T07:54:11.000Z</time>
      </trkpt>
      <trkpt lat="38.03827361203730106353759765625" lon="-1.2380894087255001068115234375">
        <ele>79.40000152587890625</ele>
        <time>2020-02-22T07:54:13.000Z</time>
      </trkpt>
      <trkpt lat="38.03880049847066402435302734375" lon="-1.2381266243755817413330078125">
        <ele>79.8000030517578125</ele>
        <time>2020-02-22T07:54:20.000Z</time>
      </trkpt>
      <trkpt lat="38.0391759239137172698974609375" lon="-1.2381251156330108642578125">
        <ele>80</ele>
        <time>2020-02-22T07:54:25.000Z</time>
      </trkpt>
      <trkpt lat="38.03948446176946163177490234375" lon="-1.23811212368309497833251953125">
        <ele>80.40000152587890625</ele>
        <time>2020-02-22T07:54:29.000Z</time>
      </trkpt>
      <trkpt lat="38.03971932269632816314697265625" lon="-1.2380967848002910614013671875">
        <ele>80.59999847412109375</ele>
        <time>2020-02-22T07:54:32.000Z</time>
      </trkpt>
      <trkpt lat="38.04002274759113788604736328125" lon="-1.23807675205171108245849609375">
        <ele>80.59999847412109375</ele>
        <time>2020-02-22T07:54:36.000Z</time>
      </trkpt>
      <trkpt lat="38.04023682139813899993896484375" lon="-1.2380652688443660736083984375">
        <ele>80.8000030517578125</ele>
        <time>2020-02-22T07:54:39.000Z</time>
      </trkpt>
      <trkpt lat="38.040825985372066497802734375" lon="-1.23801556415855884552001953125">
        <ele>81.1999969482421875</ele>
        <time>2020-02-22T07:54:47.000Z</time>
      </trkpt>
      <trkpt lat="38.040898405015468597412109375" lon="-1.23800885863602161407470703125">
        <ele>81.1999969482421875</ele>
        <time>2020-02-22T07:54:48.000Z</time>
      </trkpt>
      <trkpt lat="38.04150517098605632781982421875" lon="-1.23795546591281890869140625">
        <ele>81.40000152587890625</ele>
        <time>2020-02-22T07:54:56.000Z</time>
      </trkpt>
      <trkpt lat="38.04158111102879047393798828125" lon="-1.23794180341064929962158203125">
        <ele>81.40000152587890625</ele>
        <time>2020-02-22T07:54:57.000Z</time>
      </trkpt>
      <trkpt lat="38.041729219257831573486328125" lon="-1.237913556396961212158203125">
        <ele>81.59999847412109375</ele>
        <time>2020-02-22T07:54:59.000Z</time>
      </trkpt>
      <trkpt lat="38.0422641523182392120361328125" lon="-1.23779587447643280029296875">
        <ele>81.8000030517578125</ele>
        <time>2020-02-22T07:55:06.000Z</time>
      </trkpt>
      <trkpt lat="38.04231452755630016326904296875" lon="-1.23778020031750202178955078125">
        <ele>82</ele>
        <time>2020-02-22T07:55:07.000Z</time>
      </trkpt>
      <trkpt lat="38.0428009293973445892333984375" lon="-1.23756587505340576171875">
        <ele>82.59999847412109375</ele>
        <time>2020-02-22T07:55:14.000Z</time>
      </trkpt>
      <trkpt lat="38.04295373149216175079345703125" lon="-1.237512566149234771728515625">
        <ele>82.8000030517578125</ele>
        <time>2020-02-22T07:55:16.000Z</time>
      </trkpt>
      <trkpt lat="38.04319001734256744384765625" lon="-1.23742396943271160125732421875">
        <ele>82.8000030517578125</ele>
        <time>2020-02-22T07:55:19.000Z</time>
      </trkpt>
      <trkpt lat="38.04335623048245906829833984375" lon="-1.23736931942403316497802734375">
        <ele>82.8000030517578125</ele>
        <time>2020-02-22T07:55:21.000Z</time>
      </trkpt>
      <trkpt lat="38.04353292100131511688232421875" lon="-1.23732254840433597564697265625">
        <ele>82.8000030517578125</ele>
        <time>2020-02-22T07:55:23.000Z</time>
      </trkpt>
      <trkpt lat="38.04406383074820041656494140625" lon="-1.23721509240567684173583984375">
        <ele>82.8000030517578125</ele>
        <time>2020-02-22T07:55:29.000Z</time>
      </trkpt>
      <trkpt lat="38.04415502585470676422119140625" lon="-1.237211488187313079833984375">
        <ele>82.8000030517578125</ele>
        <time>2020-02-22T07:55:30.000Z</time>
      </trkpt>
      <trkpt lat="38.04472398944199085235595703125" lon="-1.2372394837439060211181640625">
        <ele>82.1999969482421875</ele>
        <time>2020-02-22T07:55:36.000Z</time>
      </trkpt>
      <trkpt lat="38.04481971077620983123779296875" lon="-1.2372507154941558837890625">
        <ele>82</ele>
        <time>2020-02-22T07:55:37.000Z</time>
      </trkpt>
      <trkpt lat="38.04501215927302837371826171875" lon="-1.237270832061767578125">
        <ele>81.59999847412109375</ele>
        <time>2020-02-22T07:55:39.000Z</time>
      </trkpt>
      <trkpt lat="38.0454046837985515594482421875" lon="-1.237305700778961181640625">
        <ele>80.8000030517578125</ele>
        <time>2020-02-22T07:55:43.000Z</time>
      </trkpt>
      <trkpt lat="38.04568170569837093353271484375" lon="-1.23732791282236576080322265625">
        <ele>80.40000152587890625</ele>
        <time>2020-02-22T07:55:46.000Z</time>
      </trkpt>
      <trkpt lat="38.04593651555478572845458984375" lon="-1.23733210377395153045654296875">
        <ele>79.8000030517578125</ele>
        <time>2020-02-22T07:55:49.000Z</time>
      </trkpt>
      <trkpt lat="38.04627950303256511688232421875" lon="-1.23729404993355274200439453125">
        <ele>79.40000152587890625</ele>
        <time>2020-02-22T07:55:53.000Z</time>
      </trkpt>
      <trkpt lat="38.0468802340328693389892578125" lon="-1.237127669155597686767578125">
        <ele>79.40000152587890625</ele>
        <time>2020-02-22T07:56:00.000Z</time>
      </trkpt>
      <trkpt lat="38.046964891254901885986328125" lon="-1.2371053732931613922119140625">
        <ele>79.40000152587890625</ele>
        <time>2020-02-22T07:56:01.000Z</time>
      </trkpt>
      <trkpt lat="38.04729354567825794219970703125" lon="-1.237018369138240814208984375">
        <ele>79.59999847412109375</ele>
        <time>2020-02-22T07:56:05.000Z</time>
      </trkpt>
      <trkpt lat="38.0475185997784137725830078125" lon="-1.2369531579315662384033203125">
        <ele>79.59999847412109375</ele>
        <time>2020-02-22T07:56:08.000Z</time>
      </trkpt>
      <trkpt lat="38.04808731190860271453857421875" lon="-1.2367855198681354522705078125">
        <ele>79.59999847412109375</ele>
        <time>2020-02-22T07:56:15.000Z</time>
      </trkpt>
      <trkpt lat="38.04825411178171634674072265625" lon="-1.23673447407782077789306640625">
        <ele>79.8000030517578125</ele>
        <time>2020-02-22T07:56:17.000Z</time>
      </trkpt>
      <trkpt lat="38.04851395078003406524658203125" lon="-1.23666054569184780120849609375">
        <ele>79.8000030517578125</ele>
        <time>2020-02-22T07:56:20.000Z</time>
      </trkpt>
      <trkpt lat="38.04877999238669872283935546875" lon="-1.23658007942140102386474609375">
        <ele>79.59999847412109375</ele>
        <time>2020-02-22T07:56:23.000Z</time>
      </trkpt>
      <trkpt lat="38.04895617999136447906494140625" lon="-1.23652140609920024871826171875">
        <ele>79.40000152587890625</ele>
        <time>2020-02-22T07:56:25.000Z</time>
      </trkpt>
      <trkpt lat="38.0492117442190647125244140625" lon="-1.236437000334262847900390625">
        <ele>78.8000030517578125</ele>
        <time>2020-02-22T07:56:28.000Z</time>
      </trkpt>
      <trkpt lat="38.04929514415562152862548828125" lon="-1.23640640638768672943115234375">
        <ele>78.40000152587890625</ele>
        <time>2020-02-22T07:56:29.000Z</time>
      </trkpt>
      <trkpt lat="38.04962321184575557708740234375" lon="-1.236255951225757598876953125">
        <ele>77.8000030517578125</ele>
        <time>2020-02-22T07:56:33.000Z</time>
      </trkpt>
      <trkpt lat="38.04977861233055591583251953125" lon="-1.23615704476833343505859375">
        <ele>77.40000152587890625</ele>
        <time>2020-02-22T07:56:35.000Z</time>
      </trkpt>
      <trkpt lat="38.0500697158277034759521484375" lon="-1.2359329126775264739990234375">
        <ele>76.8000030517578125</ele>
        <time>2020-02-22T07:56:39.000Z</time>
      </trkpt>
      <trkpt lat="38.05020776577293872833251953125" lon="-1.23581112362444400787353515625">
        <ele>76.59999847412109375</ele>
        <time>2020-02-22T07:56:41.000Z</time>
      </trkpt>
      <trkpt lat="38.05034480988979339599609375" lon="-1.23568656854331493377685546875">
        <ele>76.59999847412109375</ele>
        <time>2020-02-22T07:56:43.000Z</time>
      </trkpt>
      <trkpt lat="38.05053566582500934600830078125" lon="-1.23548875562846660614013671875">
        <ele>76.40000152587890625</ele>
        <time>2020-02-22T07:56:46.000Z</time>
      </trkpt>
      <trkpt lat="38.05059081874787807464599609375" lon="-1.23542203567922115325927734375">
        <ele>76.1999969482421875</ele>
        <time>2020-02-22T07:56:47.000Z</time>
      </trkpt>
      <trkpt lat="38.05075426585972309112548828125" lon="-1.2351720035076141357421875">
        <ele>76</ele>
        <time>2020-02-22T07:56:51.000Z</time>
      </trkpt>
      <trkpt lat="38.0507818423211574554443359375" lon="-1.2351020984351634979248046875">
        <ele>76</ele>
        <time>2020-02-22T07:56:52.000Z</time>
      </trkpt>
      <trkpt lat="38.0508670024573802947998046875" lon="-1.234820969402790069580078125">
        <ele>75.8000030517578125</ele>
        <time>2020-02-22T07:56:56.000Z</time>
      </trkpt>
      <trkpt lat="38.05100488476455211639404296875" lon="-1.2347597815096378326416015625">
        <ele>75.8000030517578125</ele>
        <time>2020-02-22T07:56:59.000Z</time>
      </trkpt>
      <trkpt lat="38.05111552588641643524169921875" lon="-1.23491945676505565643310546875">
        <ele>75.59999847412109375</ele>
        <time>2020-02-22T07:57:02.000Z</time>
      </trkpt>
      <trkpt lat="38.05119398050010204315185546875" lon="-1.2350521422922611236572265625">
        <ele>75.59999847412109375</ele>
        <time>2020-02-22T07:57:04.000Z</time>
      </trkpt>
      <trkpt lat="38.05130638182163238525390625" lon="-1.235149204730987548828125">
        <ele>75.40000152587890625</ele>
        <time>2020-02-22T07:57:06.000Z</time>
      </trkpt>
      <trkpt lat="38.0513736046850681304931640625" lon="-1.23519237153232097625732421875">
        <ele>75.40000152587890625</ele>
        <time>2020-02-22T07:57:07.000Z</time>
      </trkpt>
      <trkpt lat="38.0514423362910747528076171875" lon="-1.23523277230560779571533203125">
        <ele>75.40000152587890625</ele>
        <time>2020-02-22T07:57:08.000Z</time>
      </trkpt>
      <trkpt lat="38.0515774525701999664306640625" lon="-1.2353129871189594268798828125">
        <ele>75.40000152587890625</ele>
        <time>2020-02-22T07:57:10.000Z</time>
      </trkpt>
      <trkpt lat="38.051644675433635711669921875" lon="-1.2353528849780559539794921875">
        <ele>75.40000152587890625</ele>
        <time>2020-02-22T07:57:11.000Z</time>
      </trkpt>
      <trkpt lat="38.05184550583362579345703125" lon="-1.235470734536647796630859375">
        <ele>75.40000152587890625</ele>
        <time>2020-02-22T07:57:14.000Z</time>
      </trkpt>
      <trkpt lat="38.05191281251609325408935546875" lon="-1.2354953773319721221923828125">
        <ele>75.40000152587890625</ele>
        <time>2020-02-22T07:57:15.000Z</time>
      </trkpt>
      <trkpt lat="38.0519817955791950225830078125" lon="-1.2355044297873973846435546875">
        <ele>75.40000152587890625</ele>
        <time>2020-02-22T07:57:16.000Z</time>
      </trkpt>
      <trkpt lat="38.05205396376550197601318359375" lon="-1.23550099320709705352783203125">
        <ele>75.40000152587890625</ele>
        <time>2020-02-22T07:57:17.000Z</time>
      </trkpt>
      <trkpt lat="38.05222562514245510101318359375" lon="-1.23558196239173412322998046875">
        <ele>75.40000152587890625</ele>
        <time>2020-02-22T07:57:20.000Z</time>
      </trkpt>
      <trkpt lat="38.052268289029598236083984375" lon="-1.2356482632458209991455078125">
        <ele>75.1999969482421875</ele>
        <time>2020-02-22T07:57:21.000Z</time>
      </trkpt>
      <trkpt lat="38.05246115662157535552978515625" lon="-1.235830150544643402099609375">
        <ele>75</ele>
        <time>2020-02-22T07:57:24.000Z</time>
      </trkpt>
      <trkpt lat="38.052532486617565155029296875" lon="-1.2358747422695159912109375">
        <ele>75</ele>
        <time>2020-02-22T07:57:25.000Z</time>
      </trkpt>
      <trkpt lat="38.052683360874652862548828125" lon="-1.23595965094864368438720703125">
        <ele>75.1999969482421875</ele>
        <time>2020-02-22T07:57:27.000Z</time>
      </trkpt>
      <trkpt lat="38.0527599714696407318115234375" lon="-1.23600156046450138092041015625">
        <ele>75.1999969482421875</ele>
        <time>2020-02-22T07:57:28.000Z</time>
      </trkpt>
      <trkpt lat="38.05300396867096424102783203125" lon="-1.23613399453461170196533203125">
        <ele>75.1999969482421875</ele>
        <time>2020-02-22T07:57:31.000Z</time>
      </trkpt>
      <trkpt lat="38.05325207300484180450439453125" lon="-1.23627648688852787017822265625">
        <ele>75.1999969482421875</ele>
        <time>2020-02-22T07:57:34.000Z</time>
      </trkpt>
      <trkpt lat="38.05351174436509609222412109375" lon="-1.23641856014728546142578125">
        <ele>75.1999969482421875</ele>
        <time>2020-02-22T07:57:37.000Z</time>
      </trkpt>
      <trkpt lat="38.05368944071233272552490234375" lon="-1.2365050613880157470703125">
        <ele>75.1999969482421875</ele>
        <time>2020-02-22T07:57:39.000Z</time>
      </trkpt>
      <trkpt lat="38.0542221106588840484619140625" lon="-1.23675174079835414886474609375">
        <ele>75.40000152587890625</ele>
        <time>2020-02-22T07:57:45.000Z</time>
      </trkpt>
      <trkpt lat="38.0544987134635448455810546875" lon="-1.2368617951869964599609375">
        <ele>75.40000152587890625</ele>
        <time>2020-02-22T07:57:48.000Z</time>
      </trkpt>
      <trkpt lat="38.05496885441243648529052734375" lon="-1.23704946599900722503662109375">
        <ele>75.59999847412109375</ele>
        <time>2020-02-22T07:57:53.000Z</time>
      </trkpt>
      <trkpt lat="38.0553566850721836090087890625" lon="-1.237185336649417877197265625">
        <ele>75.59999847412109375</ele>
        <time>2020-02-22T07:57:57.000Z</time>
      </trkpt>
      <trkpt lat="38.0559231340885162353515625" lon="-1.23738817870616912841796875">
        <ele>75.8000030517578125</ele>
        <time>2020-02-22T07:58:03.000Z</time>
      </trkpt>
      <trkpt lat="38.0561841465532779693603515625" lon="-1.23747828416526317596435546875">
        <ele>76.1999969482421875</ele>
        <time>2020-02-22T07:58:06.000Z</time>
      </trkpt>
      <trkpt lat="38.0562664568424224853515625" lon="-1.2375097163021564483642578125">
        <ele>76.1999969482421875</ele>
        <time>2020-02-22T07:58:07.000Z</time>
      </trkpt>
      <trkpt lat="38.056423701345920562744140625" lon="-1.237572915852069854736328125">
        <ele>76.40000152587890625</ele>
        <time>2020-02-22T07:58:09.000Z</time>
      </trkpt>
      <trkpt lat="38.05664540268480777740478515625" lon="-1.237654723227024078369140625">
        <ele>76.59999847412109375</ele>
        <time>2020-02-22T07:58:12.000Z</time>
      </trkpt>
      <trkpt lat="38.05671564303338527679443359375" lon="-1.237667463719844818115234375">
        <ele>76.59999847412109375</ele>
        <time>2020-02-22T07:58:13.000Z</time>
      </trkpt>
      <trkpt lat="38.05692150257527828216552734375" lon="-1.2376434914767742156982421875">
        <ele>76.59999847412109375</ele>
        <time>2020-02-22T07:58:16.000Z</time>
      </trkpt>
      <trkpt lat="38.0569844506680965423583984375" lon="-1.2376367859542369842529296875">
        <ele>76.8000030517578125</ele>
        <time>2020-02-22T07:58:17.000Z</time>
      </trkpt>
      <trkpt lat="38.05709182284772396087646484375" lon="-1.23768934048712253570556640625">
        <ele>77</ele>
        <time>2020-02-22T07:58:19.000Z</time>
      </trkpt>
      <trkpt lat="38.05711931549012660980224609375" lon="-1.23774918727576732635498046875">
        <ele>77</ele>
        <time>2020-02-22T07:58:20.000Z</time>
      </trkpt>
      <trkpt lat="38.05709903128445148468017578125" lon="-1.23790576122701168060302734375">
        <ele>77.1999969482421875</ele>
        <time>2020-02-22T07:58:22.000Z</time>
      </trkpt>
      <trkpt lat="38.05700071156024932861328125" lon="-1.23805378563702106475830078125">
        <ele>77.1999969482421875</ele>
        <time>2020-02-22T07:58:24.000Z</time>
      </trkpt>
      <trkpt lat="38.05693902075290679931640625" lon="-1.23812972567975521087646484375">
        <ele>77.1999969482421875</ele>
        <time>2020-02-22T07:58:25.000Z</time>
      </trkpt>
      <trkpt lat="38.05688361637294292449951171875" lon="-1.23821019195020198822021484375">
        <ele>77.40000152587890625</ele>
        <time>2020-02-22T07:58:26.000Z</time>
      </trkpt>
      <trkpt lat="38.05678320117294788360595703125" lon="-1.23849953524768352508544921875">
        <ele>77.40000152587890625</ele>
        <time>2020-02-22T07:58:29.000Z</time>
      </trkpt>
      <trkpt lat="38.05676065385341644287109375" lon="-1.23861067928373813629150390625">
        <ele>77.40000152587890625</ele>
        <time>2020-02-22T07:58:30.000Z</time>
      </trkpt>
      <trkpt lat="38.05670566856861114501953125" lon="-1.238942854106426239013671875">
        <ele>77.59999847412109375</ele>
        <time>2020-02-22T07:58:33.000Z</time>
      </trkpt>
      <trkpt lat="38.056647665798664093017578125" lon="-1.23938919045031070709228515625">
        <ele>77.59999847412109375</ele>
        <time>2020-02-22T07:58:37.000Z</time>
      </trkpt>
      <trkpt lat="38.05654280818998813629150390625" lon="-1.24011338688433170318603515625">
        <ele>77.8000030517578125</ele>
        <time>2020-02-22T07:58:44.000Z</time>
      </trkpt>
      <trkpt lat="38.05650626309216022491455078125" lon="-1.24030650593340396881103515625">
        <ele>78</ele>
        <time>2020-02-22T07:58:46.000Z</time>
      </trkpt>
      <trkpt lat="38.05643535219132900238037109375" lon="-1.24068595468997955322265625">
        <ele>78.59999847412109375</ele>
        <time>2020-02-22T07:58:50.000Z</time>
      </trkpt>
      <trkpt lat="38.05633661337196826934814453125" lon="-1.2412570975720882415771484375">
        <ele>79.1999969482421875</ele>
        <time>2020-02-22T07:58:56.000Z</time>
      </trkpt>
      <trkpt lat="38.056267462670803070068359375" lon="-1.2416543997824192047119140625">
        <ele>79.59999847412109375</ele>
        <time>2020-02-22T07:59:00.000Z</time>
      </trkpt>
      <trkpt lat="38.0561928637325763702392578125" lon="-1.2421328388154506683349609375">
        <ele>80.1999969482421875</ele>
        <time>2020-02-22T07:59:05.000Z</time>
      </trkpt>
      <trkpt lat="38.0561476014554500579833984375" lon="-1.242415644228458404541015625">
        <ele>80.59999847412109375</ele>
        <time>2020-02-22T07:59:08.000Z</time>
      </trkpt>
      <trkpt lat="38.0560346134006977081298828125" lon="-1.24314679764211177825927734375">
        <ele>81.59999847412109375</ele>
        <time>2020-02-22T07:59:16.000Z</time>
      </trkpt>
      <trkpt lat="38.05601810105144977569580078125" lon="-1.2432372383773326873779296875">
        <ele>81.8000030517578125</ele>
        <time>2020-02-22T07:59:17.000Z</time>
      </trkpt>
      <trkpt lat="38.0559095554053783416748046875" lon="-1.243853308260440826416015625">
        <ele>82.8000030517578125</ele>
        <time>2020-02-22T07:59:24.000Z</time>
      </trkpt>
      <trkpt lat="38.05587963201105594635009765625" lon="-1.24402069486677646636962890625">
        <ele>83</ele>
        <time>2020-02-22T07:59:26.000Z</time>
      </trkpt>
      <trkpt lat="38.05581123568117618560791015625" lon="-1.24442202039062976837158203125">
        <ele>84</ele>
        <time>2020-02-22T07:59:31.000Z</time>
      </trkpt>
      <trkpt lat="38.05577225983142852783203125" lon="-1.244668029248714447021484375">
        <ele>84.59999847412109375</ele>
        <time>2020-02-22T07:59:34.000Z</time>
      </trkpt>
      <trkpt lat="38.05572574026882648468017578125" lon="-1.2449176423251628875732421875">
        <ele>85</ele>
        <time>2020-02-22T07:59:37.000Z</time>
      </trkpt>
      <trkpt lat="38.0556745268404483795166015625" lon="-1.2452291138470172882080078125">
        <ele>86.1999969482421875</ele>
        <time>2020-02-22T07:59:41.000Z</time>
      </trkpt>
      <trkpt lat="38.05563974194228649139404296875" lon="-1.2454470433294773101806640625">
        <ele>87.1999969482421875</ele>
        <time>2020-02-22T07:59:44.000Z</time>
      </trkpt>
      <trkpt lat="38.0556282587349414825439453125" lon="-1.2455204688012599945068359375">
        <ele>87.40000152587890625</ele>
        <time>2020-02-22T07:59:45.000Z</time>
      </trkpt>
      <trkpt lat="38.0555850081145763397216796875" lon="-1.24580562114715576171875">
        <ele>88.59999847412109375</ele>
        <time>2020-02-22T07:59:49.000Z</time>
      </trkpt>
      <trkpt lat="38.05554837919771671295166015625" lon="-1.2460756860673427581787109375">
        <ele>89.8000030517578125</ele>
        <time>2020-02-22T07:59:53.000Z</time>
      </trkpt>
      <trkpt lat="38.0555400811135768890380859375" lon="-1.2461346946656703948974609375">
        <ele>90.1999969482421875</ele>
        <time>2020-02-22T07:59:54.000Z</time>
      </trkpt>
      <trkpt lat="38.05552055127918720245361328125" lon="-1.24624290503561496734619140625">
        <ele>90.8000030517578125</ele>
        <time>2020-02-22T07:59:56.000Z</time>
      </trkpt>
      <trkpt lat="38.05548534728586673736572265625" lon="-1.24643149785697460174560546875">
        <ele>92.1999969482421875</ele>
        <time>2020-02-22T08:00:00.000Z</time>
      </trkpt>
      <trkpt lat="38.05546380579471588134765625" lon="-1.24658321030437946319580078125">
        <ele>93.1999969482421875</ele>
        <time>2020-02-22T08:00:03.000Z</time>
      </trkpt>
      <trkpt lat="38.055447041988372802734375" lon="-1.24669133685529232025146484375">
        <ele>93.8000030517578125</ele>
        <time>2020-02-22T08:00:05.000Z</time>
      </trkpt>
      <trkpt lat="38.05540571920573711395263671875" lon="-1.2469460628926753997802734375">
        <ele>94.40000152587890625</ele>
        <time>2020-02-22T08:00:09.000Z</time>
      </trkpt>
      <trkpt lat="38.055386357009410858154296875" lon="-1.24708059243857860565185546875">
        <ele>94.40000152587890625</ele>
        <time>2020-02-22T08:00:11.000Z</time>
      </trkpt>
      <trkpt lat="38.05536448024213314056396484375" lon="-1.24730690382421016693115234375">
        <ele>94.40000152587890625</ele>
        <time>2020-02-22T08:00:14.000Z</time>
      </trkpt>
      <trkpt lat="38.0553679168224334716796875" lon="-1.24738502316176891326904296875">
        <ele>94.40000152587890625</ele>
        <time>2020-02-22T08:00:15.000Z</time>
      </trkpt>
      <trkpt lat="38.0554344691336154937744140625" lon="-1.24757696874439716339111328125">
        <ele>93.8000030517578125</ele>
        <time>2020-02-22T08:00:18.000Z</time>
      </trkpt>
      <trkpt lat="38.0554669909179210662841796875" lon="-1.24762306921184062957763671875">
        <ele>93.40000152587890625</ele>
        <time>2020-02-22T08:00:19.000Z</time>
      </trkpt>
      <trkpt lat="38.0555333755910396575927734375" lon="-1.247693561017513275146484375">
        <ele>93.1999969482421875</ele>
        <time>2020-02-22T08:00:21.000Z</time>
      </trkpt>
      <trkpt lat="38.05561845190823078155517578125" lon="-1.24774963594973087310791015625">
        <ele>93.1999969482421875</ele>
        <time>2020-02-22T08:00:23.000Z</time>
      </trkpt>
      <trkpt lat="38.05575977079570293426513671875" lon="-1.2478047050535678863525390625">
        <ele>93.1999969482421875</ele>
        <time>2020-02-22T08:00:26.000Z</time>
      </trkpt>
      <trkpt lat="38.05591575801372528076171875" lon="-1.2478560023009777069091796875">
        <ele>93.1999969482421875</ele>
        <time>2020-02-22T08:00:29.000Z</time>
      </trkpt>
      <trkpt lat="38.056036122143268585205078125" lon="-1.24789413996040821075439453125">
        <ele>93.1999969482421875</ele>
        <time>2020-02-22T08:00:31.000Z</time>
      </trkpt>
      <trkpt lat="38.0562159977853298187255859375" lon="-1.247953064739704132080078125">
        <ele>93.59999847412109375</ele>
        <time>2020-02-22T08:00:34.000Z</time>
      </trkpt>
      <trkpt lat="38.05634918622672557830810546875" lon="-1.24800042249262332916259765625">
        <ele>93.59999847412109375</ele>
        <time>2020-02-22T08:00:36.000Z</time>
      </trkpt>
      <trkpt lat="38.05655487813055515289306640625" lon="-1.24807409942150115966796875">
        <ele>94</ele>
        <time>2020-02-22T08:00:39.000Z</time>
      </trkpt>
      <trkpt lat="38.05676207877695560455322265625" lon="-1.24814786016941070556640625">
        <ele>94.40000152587890625</ele>
        <time>2020-02-22T08:00:42.000Z</time>
      </trkpt>
      <trkpt lat="38.05704287253320217132568359375" lon="-1.2482469342648983001708984375">
        <ele>95</ele>
        <time>2020-02-22T08:00:46.000Z</time>
      </trkpt>
      <trkpt lat="38.0573334731161594390869140625" lon="-1.24834625981748104095458984375">
        <ele>95.1999969482421875</ele>
        <time>2020-02-22T08:00:50.000Z</time>
      </trkpt>
      <trkpt lat="38.0574746243655681610107421875" lon="-1.2483951263129711151123046875">
        <ele>95.40000152587890625</ele>
        <time>2020-02-22T08:00:52.000Z</time>
      </trkpt>
      <trkpt lat="38.05760957300662994384765625" lon="-1.24844047240912914276123046875">
        <ele>95.40000152587890625</ele>
        <time>2020-02-22T08:00:54.000Z</time>
      </trkpt>
      <trkpt lat="38.05796898901462554931640625" lon="-1.24856620095670223236083984375">
        <ele>96.40000152587890625</ele>
        <time>2020-02-22T08:00:59.000Z</time>
      </trkpt>
      <trkpt lat="38.05825372226536273956298828125" lon="-1.24866561032831668853759765625">
        <ele>97</ele>
        <time>2020-02-22T08:01:03.000Z</time>
      </trkpt>
      <trkpt lat="38.05870282463729381561279296875" lon="-1.24881933443248271942138671875">
        <ele>97.59999847412109375</ele>
        <time>2020-02-22T08:01:09.000Z</time>
      </trkpt>
      <trkpt lat="38.0590024776756763458251953125" lon="-1.24892276711761951446533203125">
        <ele>97.59999847412109375</ele>
        <time>2020-02-22T08:01:13.000Z</time>
      </trkpt>
      <trkpt lat="38.05957437492907047271728515625" lon="-1.2491179816424846649169921875">
        <ele>98</ele>
        <time>2020-02-22T08:01:21.000Z</time>
      </trkpt>
      <trkpt lat="38.0596418492496013641357421875" lon="-1.24914103187620639801025390625">
        <ele>98</ele>
        <time>2020-02-22T08:01:22.000Z</time>
      </trkpt>
      <trkpt lat="38.059834130108356475830078125" lon="-1.2492053210735321044921875">
        <ele>98.59999847412109375</ele>
        <time>2020-02-22T08:01:25.000Z</time>
      </trkpt>
      <trkpt lat="38.06003621779382228851318359375" lon="-1.24926944263279438018798828125">
        <ele>99.8000030517578125</ele>
        <time>2020-02-22T08:01:28.000Z</time>
      </trkpt>
      <trkpt lat="38.0601746030151844024658203125" lon="-1.24930531717836856842041015625">
        <ele>100.1999969482421875</ele>
        <time>2020-02-22T08:01:30.000Z</time>
      </trkpt>
      <trkpt lat="38.06031852029263973236083984375" lon="-1.24933850951492786407470703125">
        <ele>100.8000030517578125</ele>
        <time>2020-02-22T08:01:32.000Z</time>
      </trkpt>
      <trkpt lat="38.06062295101583003997802734375" lon="-1.2494012899696826934814453125">
        <ele>101</ele>
        <time>2020-02-22T08:01:36.000Z</time>
      </trkpt>
      <trkpt lat="38.06070392020046710968017578125" lon="-1.24941914342343807220458984375">
        <ele>101</ele>
        <time>2020-02-22T08:01:37.000Z</time>
      </trkpt>
      <trkpt lat="38.06112452410161495208740234375" lon="-1.24950866214931011199951171875">
        <ele>100.8000030517578125</ele>
        <time>2020-02-22T08:01:42.000Z</time>
      </trkpt>
      <trkpt lat="38.06146633811295032501220703125" lon="-1.24957672320306301116943359375">
        <ele>99.8000030517578125</ele>
        <time>2020-02-22T08:01:46.000Z</time>
      </trkpt>
      <trkpt lat="38.06155133061110973358154296875" lon="-1.2495923973619937896728515625">
        <ele>99.59999847412109375</ele>
        <time>2020-02-22T08:01:47.000Z</time>
      </trkpt>
      <trkpt lat="38.0617165379226207733154296875" lon="-1.24962131492793560028076171875">
        <ele>99.40000152587890625</ele>
        <time>2020-02-22T08:01:49.000Z</time>
      </trkpt>
      <trkpt lat="38.06212565861642360687255859375" lon="-1.24970647506415843963623046875">
        <ele>99.40000152587890625</ele>
        <time>2020-02-22T08:01:54.000Z</time>
      </trkpt>
      <trkpt lat="38.062508963048458099365234375" lon="-1.24979934655129909515380859375">
        <ele>99.59999847412109375</ele>
        <time>2020-02-22T08:01:59.000Z</time>
      </trkpt>
      <trkpt lat="38.06265673600137233734130859375" lon="-1.249844022095203399658203125">
        <ele>100.1999969482421875</ele>
        <time>2020-02-22T08:02:01.000Z</time>
      </trkpt>
      <trkpt lat="38.0629510246217250823974609375" lon="-1.24996447004377841949462890625">
        <ele>100.8000030517578125</ele>
        <time>2020-02-22T08:02:05.000Z</time>
      </trkpt>
      <trkpt lat="38.06308689527213573455810546875" lon="-1.25004426576197147369384765625">
        <ele>101.1999969482421875</ele>
        <time>2020-02-22T08:02:07.000Z</time>
      </trkpt>
      <trkpt lat="38.06351889856159687042236328125" lon="-1.25033679418265819549560546875">
        <ele>101.8000030517578125</ele>
        <time>2020-02-22T08:02:13.000Z</time>
      </trkpt>
      <trkpt lat="38.06359902955591678619384765625" lon="-1.250389516353607177734375">
        <ele>101.8000030517578125</ele>
        <time>2020-02-22T08:02:14.000Z</time>
      </trkpt>
      <trkpt lat="38.0641070567071437835693359375" lon="-1.2507256306707859039306640625">
        <ele>101.1999969482421875</ele>
        <time>2020-02-22T08:02:20.000Z</time>
      </trkpt>
      <trkpt lat="38.0642750300467014312744140625" lon="-1.25083652324974536895751953125">
        <ele>100.40000152587890625</ele>
        <time>2020-02-22T08:02:22.000Z</time>
      </trkpt>
      <trkpt lat="38.064443171024322509765625" lon="-1.2509482540190219879150390625">
        <ele>99.40000152587890625</ele>
        <time>2020-02-22T08:02:24.000Z</time>
      </trkpt>
      <trkpt lat="38.06469605304300785064697265625" lon="-1.25111195258796215057373046875">
        <ele>98.8000030517578125</ele>
        <time>2020-02-22T08:02:27.000Z</time>
      </trkpt>
      <trkpt lat="38.0648644454777240753173828125" lon="-1.25122058205306529998779296875">
        <ele>98.40000152587890625</ele>
        <time>2020-02-22T08:02:29.000Z</time>
      </trkpt>
      <trkpt lat="38.065034933388233184814453125" lon="-1.2513291276991367340087890625">
        <ele>98.1999969482421875</ele>
        <time>2020-02-22T08:02:31.000Z</time>
      </trkpt>
      <trkpt lat="38.0655520968139171600341796875" lon="-1.25166130252182483673095703125">
        <ele>97.40000152587890625</ele>
        <time>2020-02-22T08:02:37.000Z</time>
      </trkpt>
      <trkpt lat="38.06562946178019046783447265625" lon="-1.25172064639627933502197265625">
        <ele>97</ele>
        <time>2020-02-22T08:02:38.000Z</time>
      </trkpt>
      <trkpt lat="38.0658374167978763580322265625" lon="-1.2519235722720623016357421875">
        <ele>96.40000152587890625</ele>
        <time>2020-02-22T08:02:41.000Z</time>
      </trkpt>
      <trkpt lat="38.06589650921523571014404296875" lon="-1.25200630165636539459228515625">
        <ele>96.40000152587890625</ele>
        <time>2020-02-22T08:02:42.000Z</time>
      </trkpt>
      <trkpt lat="38.06594830937683582305908203125" lon="-1.25209632329642772674560546875">
        <ele>96.40000152587890625</ele>
        <time>2020-02-22T08:02:43.000Z</time>
      </trkpt>
      <trkpt lat="38.06608535349369049072265625" lon="-1.2523703277111053466796875">
        <ele>96.40000152587890625</ele>
        <time>2020-02-22T08:02:46.000Z</time>
      </trkpt>
      <trkpt lat="38.06612684391438961029052734375" lon="-1.25245741568505764007568359375">
        <ele>96.40000152587890625</ele>
        <time>2020-02-22T08:02:47.000Z</time>
      </trkpt>
      <trkpt lat="38.06628509424626827239990234375" lon="-1.2529223598539829254150390625">
        <ele>96.8000030517578125</ele>
        <time>2020-02-22T08:02:52.000Z</time>
      </trkpt>
      <trkpt lat="38.06631845422089099884033203125" lon="-1.2531406246125698089599609375">
        <ele>97.59999847412109375</ele>
        <time>2020-02-22T08:02:54.000Z</time>
      </trkpt>
      <trkpt lat="38.0663621239364147186279296875" lon="-1.253483109176158905029296875">
        <ele>98</ele>
        <time>2020-02-22T08:02:57.000Z</time>
      </trkpt>
      <trkpt lat="38.06637771427631378173828125" lon="-1.2535952590405941009521484375">
        <ele>98</ele>
        <time>2020-02-22T08:02:58.000Z</time>
      </trkpt>
      <trkpt lat="38.066461198031902313232421875" lon="-1.25429824925959110260009765625">
        <ele>98.1999969482421875</ele>
        <time>2020-02-22T08:03:05.000Z</time>
      </trkpt>
      <trkpt lat="38.06647301651537418365478515625" lon="-1.25439179129898548126220703125">
        <ele>98.40000152587890625</ele>
        <time>2020-02-22T08:03:06.000Z</time>
      </trkpt>
      <trkpt lat="38.0665532313287258148193359375" lon="-1.25507307238876819610595703125">
        <ele>98.40000152587890625</ele>
        <time>2020-02-22T08:03:13.000Z</time>
      </trkpt>
      <trkpt lat="38.06656689383089542388916015625" lon="-1.25517130829393863677978515625">
        <ele>98.40000152587890625</ele>
        <time>2020-02-22T08:03:14.000Z</time>
      </trkpt>
      <trkpt lat="38.06660612113773822784423828125" lon="-1.25546467490494251251220703125">
        <ele>98.59999847412109375</ele>
        <time>2020-02-22T08:03:17.000Z</time>
      </trkpt>
      <trkpt lat="38.06666797958314418792724609375" lon="-1.2560568563640117645263671875">
        <ele>98.8000030517578125</ele>
        <time>2020-02-22T08:03:23.000Z</time>
      </trkpt>
      <trkpt lat="38.0666779540479183197021484375" lon="-1.2564618699252605438232421875">
        <ele>98.8000030517578125</ele>
        <time>2020-02-22T08:03:27.000Z</time>
      </trkpt>
      <trkpt lat="38.0666796304285526275634765625" lon="-1.25679605640470981597900390625">
        <ele>98.8000030517578125</ele>
        <time>2020-02-22T08:03:30.000Z</time>
      </trkpt>
      <trkpt lat="38.06668792851269245147705078125" lon="-1.257486976683139801025390625">
        <ele>97.59999847412109375</ele>
        <time>2020-02-22T08:03:36.000Z</time>
      </trkpt>
      <trkpt lat="38.06669279001653194427490234375" lon="-1.25760943628847599029541015625">
        <ele>97.1999969482421875</ele>
        <time>2020-02-22T08:03:37.000Z</time>
      </trkpt>
      <trkpt lat="38.06672011502087116241455078125" lon="-1.25785921700298786163330078125">
        <ele>96.1999969482421875</ele>
        <time>2020-02-22T08:03:39.000Z</time>
      </trkpt>
      <trkpt lat="38.0667795427143573760986328125" lon="-1.25809893943369388580322265625">
        <ele>95.40000152587890625</ele>
        <time>2020-02-22T08:03:41.000Z</time>
      </trkpt>
      <trkpt lat="38.0668254755437374114990234375" lon="-1.25821150839328765869140625">
        <ele>95</ele>
        <time>2020-02-22T08:03:42.000Z</time>
      </trkpt>
      <trkpt lat="38.06687786243855953216552734375" lon="-1.2583146058022975921630859375">
        <ele>94.59999847412109375</ele>
        <time>2020-02-22T08:03:43.000Z</time>
      </trkpt>
      <trkpt lat="38.06693871505558490753173828125" lon="-1.258405633270740509033203125">
        <ele>94</ele>
        <time>2020-02-22T08:03:44.000Z</time>
      </trkpt>
      <trkpt lat="38.06708640418946743011474609375" lon="-1.2585501372814178466796875">
        <ele>93.40000152587890625</ele>
        <time>2020-02-22T08:03:46.000Z</time>
      </trkpt>
      <trkpt lat="38.0671584047377109527587890625" lon="-1.258618198335170745849609375">
        <ele>93.1999969482421875</ele>
        <time>2020-02-22T08:03:47.000Z</time>
      </trkpt>
      <trkpt lat="38.06728304363787174224853515625" lon="-1.2587647140026092529296875">
        <ele>93</ele>
        <time>2020-02-22T08:03:49.000Z</time>
      </trkpt>
      <trkpt lat="38.06733115576207637786865234375" lon="-1.2588500417768955230712890625">
        <ele>93</ele>
        <time>2020-02-22T08:03:50.000Z</time>
      </trkpt>
      <trkpt lat="38.06736954487860202789306640625" lon="-1.25894567929208278656005859375">
        <ele>93</ele>
        <time>2020-02-22T08:03:51.000Z</time>
      </trkpt>
      <trkpt lat="38.06741614826023578643798828125" lon="-1.259153969585895538330078125">
        <ele>93</ele>
        <time>2020-02-22T08:03:53.000Z</time>
      </trkpt>
      <trkpt lat="38.067433498799800872802734375" lon="-1.25926025211811065673828125">
        <ele>93</ele>
        <time>2020-02-22T08:03:54.000Z</time>
      </trkpt>
      <trkpt lat="38.0674668587744235992431640625" lon="-1.2594833783805370330810546875">
        <ele>93</ele>
        <time>2020-02-22T08:03:56.000Z</time>
      </trkpt>
      <trkpt lat="38.06754673831164836883544921875" lon="-1.25979878939688205718994140625">
        <ele>93.59999847412109375</ele>
        <time>2020-02-22T08:03:59.000Z</time>
      </trkpt>
      <trkpt lat="38.06758412159979343414306640625" lon="-1.25990339554846286773681640625">
        <ele>93.8000030517578125</ele>
        <time>2020-02-22T08:04:00.000Z</time>
      </trkpt>
      <trkpt lat="38.0677072517573833465576171875" lon="-1.260478310286998748779296875">
        <ele>94</ele>
        <time>2020-02-22T08:04:05.000Z</time>
      </trkpt>
      <trkpt lat="38.067870028316974639892578125" lon="-1.2611738406121730804443359375">
        <ele>93.1999969482421875</ele>
        <time>2020-02-22T08:04:11.000Z</time>
      </trkpt>
      <trkpt lat="38.0679124407470226287841796875" lon="-1.26128054223954677581787109375">
        <ele>92.8000030517578125</ele>
        <time>2020-02-22T08:04:12.000Z</time>
      </trkpt>
      <trkpt lat="38.06817345321178436279296875" lon="-1.26175998710095882415771484375">
        <ele>91.8000030517578125</ele>
        <time>2020-02-22T08:04:17.000Z</time>
      </trkpt>
      <trkpt lat="38.0683781392872333526611328125" lon="-1.26229651272296905517578125">
        <ele>91.40000152587890625</ele>
        <time>2020-02-22T08:04:22.000Z</time>
      </trkpt>
      <trkpt lat="38.06854359805583953857421875" lon="-1.26263916492462158203125">
        <ele>91.40000152587890625</ele>
        <time>2020-02-22T08:04:25.000Z</time>
      </trkpt>
      <trkpt lat="38.06861291639506816864013671875" lon="-1.26274310052394866943359375">
        <ele>91.1999969482421875</ele>
        <time>2020-02-22T08:04:26.000Z</time>
      </trkpt>
      <trkpt lat="38.06883637793362140655517578125" lon="-1.26303018070757389068603515625">
        <ele>90.59999847412109375</ele>
        <time>2020-02-22T08:04:29.000Z</time>
      </trkpt>
      <trkpt lat="38.0689799599349498748779296875" lon="-1.26321072690188884735107421875">
        <ele>89.40000152587890625</ele>
        <time>2020-02-22T08:04:31.000Z</time>
      </trkpt>
      <trkpt lat="38.06905028410255908966064453125" lon="-1.26330158673226833343505859375">
        <ele>89</ele>
        <time>2020-02-22T08:04:32.000Z</time>
      </trkpt>
      <trkpt lat="38.0691196024417877197265625" lon="-1.26338976435363292694091796875">
        <ele>88.40000152587890625</ele>
        <time>2020-02-22T08:04:33.000Z</time>
      </trkpt>
      <trkpt lat="38.0693985521793365478515625" lon="-1.26373409293591976165771484375">
        <ele>87.40000152587890625</ele>
        <time>2020-02-22T08:04:37.000Z</time>
      </trkpt>
      <trkpt lat="38.069628216326236724853515625" lon="-1.26396887004375457763671875">
        <ele>87.1999969482421875</ele>
        <time>2020-02-22T08:04:40.000Z</time>
      </trkpt>
      <trkpt lat="38.0701286159455776214599609375" lon="-1.26432535238564014434814453125">
        <ele>86.8000030517578125</ele>
        <time>2020-02-22T08:04:46.000Z</time>
      </trkpt>
      <trkpt lat="38.0703941546380519866943359375" lon="-1.26446717418730258941650390625">
        <ele>86.8000030517578125</ele>
        <time>2020-02-22T08:04:49.000Z</time>
      </trkpt>
      <trkpt lat="38.07066078297793865203857421875" lon="-1.2645721994340419769287109375">
        <ele>86.8000030517578125</ele>
        <time>2020-02-22T08:04:52.000Z</time>
      </trkpt>
      <trkpt lat="38.0711193569004535675048828125" lon="-1.264636404812335968017578125">
        <ele>86.8000030517578125</ele>
        <time>2020-02-22T08:04:57.000Z</time>
      </trkpt>
      <trkpt lat="38.07140140794217586517333984375" lon="-1.26463414169847965240478515625">
        <ele>86.8000030517578125</ele>
        <time>2020-02-22T08:05:00.000Z</time>
      </trkpt>
      <trkpt lat="38.07159402407705783843994140625" lon="-1.26462257467210292816162109375">
        <ele>86.8000030517578125</ele>
        <time>2020-02-22T08:05:02.000Z</time>
      </trkpt>
      <trkpt lat="38.07178831659257411956787109375" lon="-1.264604888856410980224609375">
        <ele>87</ele>
        <time>2020-02-22T08:05:04.000Z</time>
      </trkpt>
      <trkpt lat="38.0723424442112445831298828125" lon="-1.26456306315958499908447265625">
        <ele>87</ele>
        <time>2020-02-22T08:05:10.000Z</time>
      </trkpt>
      <trkpt lat="38.07252173312008380889892578125" lon="-1.2645537592470645904541015625">
        <ele>87</ele>
        <time>2020-02-22T08:05:12.000Z</time>
      </trkpt>
      <trkpt lat="38.0731514655053615570068359375" lon="-1.26458368264138698577880859375">
        <ele>87.1999969482421875</ele>
        <time>2020-02-22T08:05:19.000Z</time>
      </trkpt>
      <trkpt lat="38.0736969597637653350830078125" lon="-1.26462492160499095916748046875">
        <ele>87.40000152587890625</ele>
        <time>2020-02-22T08:05:25.000Z</time>
      </trkpt>
      <trkpt lat="38.0739675275981426239013671875" lon="-1.26465342007577419281005859375">
        <ele>87.40000152587890625</ele>
        <time>2020-02-22T08:05:28.000Z</time>
      </trkpt>
      <trkpt lat="38.07454260997474193572998046875" lon="-1.26470052637159824371337890625">
        <ele>87.40000152587890625</ele>
        <time>2020-02-22T08:05:34.000Z</time>
      </trkpt>
      <trkpt lat="38.0747326277196407318115234375" lon="-1.26471594907343387603759765625">
        <ele>87</ele>
        <time>2020-02-22T08:05:36.000Z</time>
      </trkpt>
      <trkpt lat="38.07482658885419368743896484375" lon="-1.26472500152885913848876953125">
        <ele>86.8000030517578125</ele>
        <time>2020-02-22T08:05:37.000Z</time>
      </trkpt>
      <trkpt lat="38.07501115836203098297119140625" lon="-1.26473874785006046295166015625">
        <ele>86.1999969482421875</ele>
        <time>2020-02-22T08:05:39.000Z</time>
      </trkpt>
      <trkpt lat="38.07547098957002162933349609375" lon="-1.26477512530982494354248046875">
        <ele>85</ele>
        <time>2020-02-22T08:05:44.000Z</time>
      </trkpt>
      <trkpt lat="38.07565840892493724822998046875" lon="-1.26479155384004116058349609375">
        <ele>84.59999847412109375</ele>
        <time>2020-02-22T08:05:46.000Z</time>
      </trkpt>
      <trkpt lat="38.07623374275863170623779296875" lon="-1.2648457847535610198974609375">
        <ele>84.1999969482421875</ele>
        <time>2020-02-22T08:05:52.000Z</time>
      </trkpt>
      <trkpt lat="38.07663657702505588531494140625" lon="-1.26488040201365947723388671875">
        <ele>83.8000030517578125</ele>
        <time>2020-02-22T08:05:56.000Z</time>
      </trkpt>
      <trkpt lat="38.076941929757595062255859375" lon="-1.26490672118961811065673828125">
        <ele>83.59999847412109375</ele>
        <time>2020-02-22T08:05:59.000Z</time>
      </trkpt>
      <trkpt lat="38.077326826751232147216796875" lon="-1.26494410447776317596435546875">
        <ele>83.40000152587890625</ele>
        <time>2020-02-22T08:06:03.000Z</time>
      </trkpt>
      <trkpt lat="38.07760988362133502960205078125" lon="-1.26496220938861370086669921875">
        <ele>83</ele>
        <time>2020-02-22T08:06:06.000Z</time>
      </trkpt>
      <trkpt lat="38.077704347670078277587890625" lon="-1.2649638019502162933349609375">
        <ele>82.8000030517578125</ele>
        <time>2020-02-22T08:06:07.000Z</time>
      </trkpt>
      <trkpt lat="38.07807826437056064605712890625" lon="-1.26492013223469257354736328125">
        <ele>82</ele>
        <time>2020-02-22T08:06:11.000Z</time>
      </trkpt>
      <trkpt lat="38.07816778309643268585205078125" lon="-1.2648923881351947784423828125">
        <ele>82</ele>
        <time>2020-02-22T08:06:12.000Z</time>
      </trkpt>
      <trkpt lat="38.0786157958209514617919921875" lon="-1.26469683833420276641845703125">
        <ele>81.59999847412109375</ele>
        <time>2020-02-22T08:06:17.000Z</time>
      </trkpt>
      <trkpt lat="38.07869986630976200103759765625" lon="-1.26464369706809520721435546875">
        <ele>81.59999847412109375</ele>
        <time>2020-02-22T08:06:18.000Z</time>
      </trkpt>
      <trkpt lat="38.07903296314179897308349609375" lon="-1.26440699212253093719482421875">
        <ele>81.40000152587890625</ele>
        <time>2020-02-22T08:06:22.000Z</time>
      </trkpt>
      <trkpt lat="38.0792769603431224822998046875" lon="-1.26422594301402568817138671875">
        <ele>81.1999969482421875</ele>
        <time>2020-02-22T08:06:25.000Z</time>
      </trkpt>
      <trkpt lat="38.07935834862291812896728515625" lon="-1.26416525803506374359130859375">
        <ele>81</ele>
        <time>2020-02-22T08:06:26.000Z</time>
      </trkpt>
      <trkpt lat="38.0796880088746547698974609375" lon="-1.263917572796344757080078125">
        <ele>80.59999847412109375</ele>
        <time>2020-02-22T08:06:30.000Z</time>
      </trkpt>
      <trkpt lat="38.07977375574409961700439453125" lon="-1.263853870332241058349609375">
        <ele>80.59999847412109375</ele>
        <time>2020-02-22T08:06:31.000Z</time>
      </trkpt>
      <trkpt lat="38.0801151506602764129638671875" lon="-1.2636109627783298492431640625">
        <ele>80.40000152587890625</ele>
        <time>2020-02-22T08:06:35.000Z</time>
      </trkpt>
      <trkpt lat="38.08038580231368541717529296875" lon="-1.26347266137599945068359375">
        <ele>79.59999847412109375</ele>
        <time>2020-02-22T08:06:38.000Z</time>
      </trkpt>
      <trkpt lat="38.08057741262018680572509765625" lon="-1.263401918113231658935546875">
        <ele>79.40000152587890625</ele>
        <time>2020-02-22T08:06:40.000Z</time>
      </trkpt>
      <trkpt lat="38.0806737206876277923583984375" lon="-1.26337383873760700225830078125">
        <ele>79.40000152587890625</ele>
        <time>2020-02-22T08:06:41.000Z</time>
      </trkpt>
      <trkpt lat="38.08105886913836002349853515625" lon="-1.2633202783763408660888671875">
        <ele>78.8000030517578125</ele>
        <time>2020-02-22T08:06:45.000Z</time>
      </trkpt>
      <trkpt lat="38.0814508907496929168701171875" lon="-1.263348273932933807373046875">
        <ele>78.59999847412109375</ele>
        <time>2020-02-22T08:06:49.000Z</time>
      </trkpt>
      <trkpt lat="38.08164292015135288238525390625" lon="-1.263380460441112518310546875">
        <ele>78.40000152587890625</ele>
        <time>2020-02-22T08:06:51.000Z</time>
      </trkpt>
      <trkpt lat="38.0821247957646846771240234375" lon="-1.263481713831424713134765625">
        <ele>78.1999969482421875</ele>
        <time>2020-02-22T08:06:56.000Z</time>
      </trkpt>
      <trkpt lat="38.0823115445673465728759765625" lon="-1.263519935309886932373046875">
        <ele>78.1999969482421875</ele>
        <time>2020-02-22T08:06:58.000Z</time>
      </trkpt>
      <trkpt lat="38.0825814418494701385498046875" lon="-1.2635777704417705535888671875">
        <ele>78.1999969482421875</ele>
        <time>2020-02-22T08:07:01.000Z</time>
      </trkpt>
      <trkpt lat="38.08317915536463260650634765625" lon="-1.2637159042060375213623046875">
        <ele>78.1999969482421875</ele>
        <time>2020-02-22T08:07:08.000Z</time>
      </trkpt>
      <trkpt lat="38.08333975262939929962158203125" lon="-1.26375236548483371734619140625">
        <ele>78.1999969482421875</ele>
        <time>2020-02-22T08:07:10.000Z</time>
      </trkpt>
      <trkpt lat="38.08348777703940868377685546875" lon="-1.26378471963107585906982421875">
        <ele>78.40000152587890625</ele>
        <time>2020-02-22T08:07:12.000Z</time>
      </trkpt>
      <trkpt lat="38.08369229547679424285888671875" lon="-1.26379813067615032196044921875">
        <ele>78.59999847412109375</ele>
        <time>2020-02-22T08:07:15.000Z</time>
      </trkpt>
      <trkpt lat="38.083891533315181732177734375" lon="-1.263709701597690582275390625">
        <ele>79</ele>
        <time>2020-02-22T08:07:18.000Z</time>
      </trkpt>
      <trkpt lat="38.0840901844203472137451171875" lon="-1.2637102045118808746337890625">
        <ele>79.59999847412109375</ele>
        <time>2020-02-22T08:07:21.000Z</time>
      </trkpt>
      <trkpt lat="38.08418347500264644622802734375" lon="-1.26391765661537647247314453125">
        <ele>80</ele>
        <time>2020-02-22T08:07:24.000Z</time>
      </trkpt>
      <trkpt lat="38.084179200232028961181640625" lon="-1.26409627497196197509765625">
        <ele>80.40000152587890625</ele>
        <time>2020-02-22T08:07:26.000Z</time>
      </trkpt>
      <trkpt lat="38.084173835813999176025390625" lon="-1.2641913257539272308349609375">
        <ele>80.40000152587890625</ele>
        <time>2020-02-22T08:07:27.000Z</time>
      </trkpt>
      <trkpt lat="38.08417425490915775299072265625" lon="-1.2644027173519134521484375">
        <ele>80.40000152587890625</ele>
        <time>2020-02-22T08:07:29.000Z</time>
      </trkpt>
      <trkpt lat="38.084216080605983734130859375" lon="-1.26462525688111782073974609375">
        <ele>80.40000152587890625</ele>
        <time>2020-02-22T08:07:31.000Z</time>
      </trkpt>
      <trkpt lat="38.08433367870748043060302734375" lon="-1.26493069343268871307373046875">
        <ele>80.40000152587890625</ele>
        <time>2020-02-22T08:07:34.000Z</time>
      </trkpt>
      <trkpt lat="38.08437910862267017364501953125" lon="-1.2650224752724170684814453125">
        <ele>80.59999847412109375</ele>
        <time>2020-02-22T08:07:35.000Z</time>
      </trkpt>
      <trkpt lat="38.08450852520763874053955078125" lon="-1.26529295928776264190673828125">
        <ele>80.59999847412109375</ele>
        <time>2020-02-22T08:07:38.000Z</time>
      </trkpt>
      <trkpt lat="38.08469493873417377471923828125" lon="-1.26564466394484043121337890625">
        <ele>80.59999847412109375</ele>
        <time>2020-02-22T08:07:42.000Z</time>
      </trkpt>
      <trkpt lat="38.0847942642867565155029296875" lon="-1.2658202648162841796875">
        <ele>80.8000030517578125</ele>
        <time>2020-02-22T08:07:44.000Z</time>
      </trkpt>
      <trkpt lat="38.084943294525146484375" lon="-1.2660970352590084075927734375">
        <ele>81</ele>
        <time>2020-02-22T08:07:47.000Z</time>
      </trkpt>
      <trkpt lat="38.08523523621261119842529296875" lon="-1.2666495703160762786865234375">
        <ele>81.59999847412109375</ele>
        <time>2020-02-22T08:07:53.000Z</time>
      </trkpt>
      <trkpt lat="38.08528418652713298797607421875" lon="-1.26674084924161434173583984375">
        <ele>81.8000030517578125</ele>
        <time>2020-02-22T08:07:54.000Z</time>
      </trkpt>
      <trkpt lat="38.085383512079715728759765625" lon="-1.26691636629402637481689453125">
        <ele>82</ele>
        <time>2020-02-22T08:07:56.000Z</time>
      </trkpt>
      <trkpt lat="38.08567629195749759674072265625" lon="-1.26744660548865795135498046875">
        <ele>82.8000030517578125</ele>
        <time>2020-02-22T08:08:02.000Z</time>
      </trkpt>
      <trkpt lat="38.08592271991074085235595703125" lon="-1.26789436675608158111572265625">
        <ele>83.40000152587890625</ele>
        <time>2020-02-22T08:08:07.000Z</time>
      </trkpt>
      <trkpt lat="38.08615389280021190643310546875" lon="-1.26833559013903141021728515625">
        <ele>84</ele>
        <time>2020-02-22T08:08:12.000Z</time>
      </trkpt>
      <trkpt lat="38.08633041568100452423095703125" lon="-1.2686639092862606048583984375">
        <ele>84.1999969482421875</ele>
        <time>2020-02-22T08:08:16.000Z</time>
      </trkpt>
      <trkpt lat="38.0864196829497814178466796875" lon="-1.26879408024251461029052734375">
        <ele>84.40000152587890625</ele>
        <time>2020-02-22T08:08:18.000Z</time>
      </trkpt>
      <trkpt lat="38.08647215366363525390625" lon="-1.26884554512798786163330078125">
        <ele>84.59999847412109375</ele>
        <time>2020-02-22T08:08:19.000Z</time>
      </trkpt>
      <trkpt lat="38.08652579784393310546875" lon="-1.26889114268124103546142578125">
        <ele>84.59999847412109375</ele>
        <time>2020-02-22T08:08:20.000Z</time>
      </trkpt>
      <trkpt lat="38.0866423062980175018310546875" lon="-1.26906498335301876068115234375">
        <ele>84.8000030517578125</ele>
        <time>2020-02-22T08:08:23.000Z</time>
      </trkpt>
      <trkpt lat="38.08666552416980266571044921875" lon="-1.2692348845303058624267578125">
        <ele>85</ele>
        <time>2020-02-22T08:08:25.000Z</time>
      </trkpt>
      <trkpt lat="38.0866855569183826446533203125" lon="-1.26932381652295589447021484375">
        <ele>85.1999969482421875</ele>
        <time>2020-02-22T08:08:26.000Z</time>
      </trkpt>
      <trkpt lat="38.08671480976045131683349609375" lon="-1.269404701888561248779296875">
        <ele>85.1999969482421875</ele>
        <time>2020-02-22T08:08:27.000Z</time>
      </trkpt>
      <trkpt lat="38.0869624949991703033447265625" lon="-1.26989521086215972900390625">
        <ele>85.8000030517578125</ele>
        <time>2020-02-22T08:08:33.000Z</time>
      </trkpt>
      <trkpt lat="38.08711093850433826446533203125" lon="-1.2702383659780025482177734375">
        <ele>86.1999969482421875</ele>
        <time>2020-02-22T08:08:37.000Z</time>
      </trkpt>
      <trkpt lat="38.0872099287807941436767578125" lon="-1.270513124763965606689453125">
        <ele>86.8000030517578125</ele>
        <time>2020-02-22T08:08:40.000Z</time>
      </trkpt>
      <trkpt lat="38.08727824129164218902587890625" lon="-1.27069341950118541717529296875">
        <ele>87.40000152587890625</ele>
        <time>2020-02-22T08:08:42.000Z</time>
      </trkpt>
      <trkpt lat="38.08737094514071941375732421875" lon="-1.270967759191989898681640625">
        <ele>88</ele>
        <time>2020-02-22T08:08:45.000Z</time>
      </trkpt>
      <trkpt lat="38.08742500841617584228515625" lon="-1.27115760929882526397705078125">
        <ele>88.40000152587890625</ele>
        <time>2020-02-22T08:08:47.000Z</time>
      </trkpt>
      <trkpt lat="38.08745090849697589874267578125" lon="-1.27125098370015621185302734375">
        <ele>88.59999847412109375</ele>
        <time>2020-02-22T08:08:48.000Z</time>
      </trkpt>
      <trkpt lat="38.0875356495380401611328125" lon="-1.27159263007342815399169921875">
        <ele>89.40000152587890625</ele>
        <time>2020-02-22T08:08:52.000Z</time>
      </trkpt>
      <trkpt lat="38.0875680036842823028564453125" lon="-1.27174400724470615386962890625">
        <ele>90</ele>
        <time>2020-02-22T08:08:54.000Z</time>
      </trkpt>
      <trkpt lat="38.08761921711266040802001953125" lon="-1.27198305912315845489501953125">
        <ele>90.59999847412109375</ele>
        <time>2020-02-22T08:08:57.000Z</time>
      </trkpt>
      <trkpt lat="38.0876876972615718841552734375" lon="-1.27230157144367694854736328125">
        <ele>91.8000030517578125</ele>
        <time>2020-02-22T08:09:01.000Z</time>
      </trkpt>
      <trkpt lat="38.08771594427525997161865234375" lon="-1.272473819553852081298828125">
        <ele>92.1999969482421875</ele>
        <time>2020-02-22T08:09:03.000Z</time>
      </trkpt>
      <trkpt lat="38.08781418018043041229248046875" lon="-1.27301068045198917388916015625">
        <ele>92.8000030517578125</ele>
        <time>2020-02-22T08:09:09.000Z</time>
      </trkpt>
      <trkpt lat="38.0878637172281742095947265625" lon="-1.27328124828636646270751953125">
        <ele>93</ele>
        <time>2020-02-22T08:09:12.000Z</time>
      </trkpt>
      <trkpt lat="38.08799807913601398468017578125" lon="-1.27401164732873439788818359375">
        <ele>93.1999969482421875</ele>
        <time>2020-02-22T08:09:20.000Z</time>
      </trkpt>
      <trkpt lat="38.08804736472666263580322265625" lon="-1.274282969534397125244140625">
        <ele>93.1999969482421875</ele>
        <time>2020-02-22T08:09:23.000Z</time>
      </trkpt>
      <trkpt lat="38.0881064571440219879150390625" lon="-1.274565272033214569091796875">
        <ele>93.1999969482421875</ele>
        <time>2020-02-22T08:09:26.000Z</time>
      </trkpt>
      <trkpt lat="38.0881745181977748870849609375" lon="-1.2749500013887882232666015625">
        <ele>93.40000152587890625</ele>
        <time>2020-02-22T08:09:30.000Z</time>
      </trkpt>
      <trkpt lat="38.08820980601012706756591796875" lon="-1.2751374207437038421630859375">
        <ele>93.40000152587890625</ele>
        <time>2020-02-22T08:09:32.000Z</time>
      </trkpt>
      <trkpt lat="38.08834039606153964996337890625" lon="-1.275680065155029296875">
        <ele>93.8000030517578125</ele>
        <time>2020-02-22T08:09:38.000Z</time>
      </trkpt>
      <trkpt lat="38.08839236386120319366455078125" lon="-1.2758475355803966522216796875">
        <ele>94.1999969482421875</ele>
        <time>2020-02-22T08:09:40.000Z</time>
      </trkpt>
      <trkpt lat="38.0885396338999271392822265625" lon="-1.27626403234899044036865234375">
        <ele>95</ele>
        <time>2020-02-22T08:09:45.000Z</time>
      </trkpt>
      <trkpt lat="38.08866016566753387451171875" lon="-1.27656360156834125518798828125">
        <ele>95.59999847412109375</ele>
        <time>2020-02-22T08:09:49.000Z</time>
      </trkpt>
      <trkpt lat="38.08873283676803112030029296875" lon="-1.276698298752307891845703125">
        <ele>96</ele>
        <time>2020-02-22T08:09:51.000Z</time>
      </trkpt>
      <trkpt lat="38.0888661928474903106689453125" lon="-1.2769797630608081817626953125">
        <ele>97</ele>
        <time>2020-02-22T08:09:55.000Z</time>
      </trkpt>
      <trkpt lat="38.0891119502484798431396484375" lon="-1.27741486765444278717041015625">
        <ele>97.59999847412109375</ele>
        <time>2020-02-22T08:10:01.000Z</time>
      </trkpt>
      <trkpt lat="38.08921647258102893829345703125" lon="-1.27752785570919513702392578125">
        <ele>98</ele>
        <time>2020-02-22T08:10:03.000Z</time>
      </trkpt>
      <trkpt lat="38.08946591801941394805908203125" lon="-1.27780093811452388763427734375">
        <ele>98.59999847412109375</ele>
        <time>2020-02-22T08:10:08.000Z</time>
      </trkpt>
      <trkpt lat="38.08962550945580005645751953125" lon="-1.2779594399034976959228515625">
        <ele>99.1999969482421875</ele>
        <time>2020-02-22T08:10:11.000Z</time>
      </trkpt>
      <trkpt lat="38.08982047252357006072998046875" lon="-1.27815951593220233917236328125">
        <ele>100.1999969482421875</ele>
        <time>2020-02-22T08:10:15.000Z</time>
      </trkpt>
      <trkpt lat="38.0900047905743122100830078125" lon="-1.27835632301867008209228515625">
        <ele>101.1999969482421875</ele>
        <time>2020-02-22T08:10:19.000Z</time>
      </trkpt>
      <trkpt lat="38.09018257074058055877685546875" lon="-1.278547346591949462890625">
        <ele>102.59999847412109375</ele>
        <time>2020-02-22T08:10:23.000Z</time>
      </trkpt>
      <trkpt lat="38.0902448482811450958251953125" lon="-1.27861331216990947723388671875">
        <ele>103.1999969482421875</ele>
        <time>2020-02-22T08:10:25.000Z</time>
      </trkpt>
      <trkpt lat="38.09027829207479953765869140625" lon="-1.2786484323441982269287109375">
        <ele>103.59999847412109375</ele>
        <time>2020-02-22T08:10:27.000Z</time>
      </trkpt>
      <trkpt lat="38.09029572643339633941650390625" lon="-1.27866603434085845947265625">
        <ele>104.40000152587890625</ele>
        <time>2020-02-22T08:10:29.000Z</time>
      </trkpt>
      <trkpt lat="38.09030645526945590972900390625" lon="-1.27867936156690120697021484375">
        <ele>104.8000030517578125</ele>
        <time>2020-02-22T08:10:31.000Z</time>
      </trkpt>
      <trkpt lat="38.09032254852354526519775390625" lon="-1.27869511954486370086669921875">
        <ele>105.40000152587890625</ele>
        <time>2020-02-22T08:10:33.000Z</time>
      </trkpt>
      <trkpt lat="38.09033378027379512786865234375" lon="-1.2787074409425258636474609375">
        <ele>105.59999847412109375</ele>
        <time>2020-02-22T08:10:34.000Z</time>
      </trkpt>
      <trkpt lat="38.090359680354595184326171875" lon="-1.27874113619327545166015625">
        <ele>106</ele>
        <time>2020-02-22T08:10:36.000Z</time>
      </trkpt>
      <trkpt lat="38.0903779529035091400146484375" lon="-1.27876049838960170745849609375">
        <ele>106</ele>
        <time>2020-02-22T08:10:37.000Z</time>
      </trkpt>
      <trkpt lat="38.09053075499832630157470703125" lon="-1.27892210148274898529052734375">
        <ele>106.40000152587890625</ele>
        <time>2020-02-22T08:10:43.000Z</time>
      </trkpt>
      <trkpt lat="38.0906783603131771087646484375" lon="-1.2790795974433422088623046875">
        <ele>106.8000030517578125</ele>
        <time>2020-02-22T08:10:47.000Z</time>
      </trkpt>
      <trkpt lat="38.0907594971358776092529296875" lon="-1.27916584722697734832763671875">
        <ele>107</ele>
        <time>2020-02-22T08:10:49.000Z</time>
      </trkpt>
      <trkpt lat="38.09087810106575489044189453125" lon="-1.27930314280092716217041015625">
        <ele>107.40000152587890625</ele>
        <time>2020-02-22T08:10:52.000Z</time>
      </trkpt>
      <trkpt lat="38.090964518487453460693359375" lon="-1.27939634956419467926025390625">
        <ele>108</ele>
        <time>2020-02-22T08:10:54.000Z</time>
      </trkpt>
      <trkpt lat="38.0910924263298511505126953125" lon="-1.27954177558422088623046875">
        <ele>108.8000030517578125</ele>
        <time>2020-02-22T08:10:57.000Z</time>
      </trkpt>
      <trkpt lat="38.09118152596056461334228515625" lon="-1.27963741309940814971923828125">
        <ele>109.40000152587890625</ele>
        <time>2020-02-22T08:10:59.000Z</time>
      </trkpt>
      <trkpt lat="38.09135151095688343048095703125" lon="-1.2798302806913852691650390625">
        <ele>110.40000152587890625</ele>
        <time>2020-02-22T08:11:03.000Z</time>
      </trkpt>
      <trkpt lat="38.09152836911380290985107421875" lon="-1.280029602348804473876953125">
        <ele>111.59999847412109375</ele>
        <time>2020-02-22T08:11:07.000Z</time>
      </trkpt>
      <trkpt lat="38.09171796776354312896728515625" lon="-1.280239485204219818115234375">
        <ele>112.59999847412109375</ele>
        <time>2020-02-22T08:11:11.000Z</time>
      </trkpt>
      <trkpt lat="38.09199540875852108001708984375" lon="-1.28054483793675899505615234375">
        <ele>113.59999847412109375</ele>
        <time>2020-02-22T08:11:17.000Z</time>
      </trkpt>
      <trkpt lat="38.0921294353902339935302734375" lon="-1.2806916050612926483154296875">
        <ele>114.59999847412109375</ele>
        <time>2020-02-22T08:11:20.000Z</time>
      </trkpt>
      <trkpt lat="38.092359267175197601318359375" lon="-1.2809088639914989471435546875">
        <ele>115.8000030517578125</ele>
        <time>2020-02-22T08:11:25.000Z</time>
      </trkpt>
      <trkpt lat="38.09240394271910190582275390625" lon="-1.28095773048698902130126953125">
        <ele>116</ele>
        <time>2020-02-22T08:11:26.000Z</time>
      </trkpt>
      <trkpt lat="38.09257761575281620025634765625" lon="-1.281191669404506683349609375">
        <ele>117</ele>
        <time>2020-02-22T08:11:30.000Z</time>
      </trkpt>
      <trkpt lat="38.092667721211910247802734375" lon="-1.28134028054773807525634765625">
        <ele>117.40000152587890625</ele>
        <time>2020-02-22T08:11:32.000Z</time>
      </trkpt>
      <trkpt lat="38.09286494739353656768798828125" lon="-1.2817483954131603240966796875">
        <ele>117.40000152587890625</ele>
        <time>2020-02-22T08:11:37.000Z</time>
      </trkpt>
      <trkpt lat="38.0929408036172389984130859375" lon="-1.2819148600101470947265625">
        <ele>117.40000152587890625</ele>
        <time>2020-02-22T08:11:39.000Z</time>
      </trkpt>
      <trkpt lat="38.09304515831172466278076171875" lon="-1.2821752019226551055908203125">
        <ele>117.40000152587890625</ele>
        <time>2020-02-22T08:11:42.000Z</time>
      </trkpt>
      <trkpt lat="38.09311506338417530059814453125" lon="-1.28235340118408203125">
        <ele>117.40000152587890625</ele>
        <time>2020-02-22T08:11:44.000Z</time>
      </trkpt>
      <trkpt lat="38.0931865610182285308837890625" lon="-1.28253118135035037994384765625">
        <ele>117.40000152587890625</ele>
        <time>2020-02-22T08:11:46.000Z</time>
      </trkpt>
      <trkpt lat="38.09322000481188297271728515625" lon="-1.28262204118072986602783203125">
        <ele>117.1999969482421875</ele>
        <time>2020-02-22T08:11:47.000Z</time>
      </trkpt>
      <trkpt lat="38.09336434118449687957763671875" lon="-1.28299419768154621124267578125">
        <ele>116.59999847412109375</ele>
        <time>2020-02-22T08:11:51.000Z</time>
      </trkpt>
      <trkpt lat="38.09343877248466014862060546875" lon="-1.28318681381642818450927734375">
        <ele>116.1999969482421875</ele>
        <time>2020-02-22T08:11:53.000Z</time>
      </trkpt>
      <trkpt lat="38.0935493297874927520751953125" lon="-1.28348001278936862945556640625">
        <ele>115.8000030517578125</ele>
        <time>2020-02-22T08:11:56.000Z</time>
      </trkpt>
      <trkpt lat="38.0937940813601016998291015625" lon="-1.28409641794860363006591796875">
        <ele>114.8000030517578125</ele>
        <time>2020-02-22T08:12:02.000Z</time>
      </trkpt>
      <trkpt lat="38.0938356555998325347900390625" lon="-1.2842022813856601715087890625">
        <ele>114.8000030517578125</ele>
        <time>2020-02-22T08:12:03.000Z</time>
      </trkpt>
      <trkpt lat="38.09387681074440479278564453125" lon="-1.2843102402985095977783203125">
        <ele>114.59999847412109375</ele>
        <time>2020-02-22T08:12:04.000Z</time>
      </trkpt>
      <trkpt lat="38.09412843547761440277099609375" lon="-1.2849610112607479095458984375">
        <ele>113.59999847412109375</ele>
        <time>2020-02-22T08:12:10.000Z</time>
      </trkpt>
      <trkpt lat="38.09438659809529781341552734375" lon="-1.285602562129497528076171875">
        <ele>112.8000030517578125</ele>
        <time>2020-02-22T08:12:16.000Z</time>
      </trkpt>
      <trkpt lat="38.0944297648966312408447265625" lon="-1.28571110777556896209716796875">
        <ele>112.40000152587890625</ele>
        <time>2020-02-22T08:12:17.000Z</time>
      </trkpt>
      <trkpt lat="38.094698488712310791015625" lon="-1.286387108266353607177734375">
        <ele>111.8000030517578125</ele>
        <time>2020-02-22T08:12:23.000Z</time>
      </trkpt>
      <trkpt lat="38.09474467299878597259521484375" lon="-1.28649984486401081085205078125">
        <ele>111.40000152587890625</ele>
        <time>2020-02-22T08:12:24.000Z</time>
      </trkpt>
      <trkpt lat="38.09479010291397571563720703125" lon="-1.2866102345287799835205078125">
        <ele>111.1999969482421875</ele>
        <time>2020-02-22T08:12:25.000Z</time>
      </trkpt>
      <trkpt lat="38.09492622502148151397705078125" lon="-1.2869404815137386322021484375">
        <ele>110.59999847412109375</ele>
        <time>2020-02-22T08:12:28.000Z</time>
      </trkpt>
      <trkpt lat="38.0949749238789081573486328125" lon="-1.28704500384628772735595703125">
        <ele>110.40000152587890625</ele>
        <time>2020-02-22T08:12:29.000Z</time>
      </trkpt>
      <trkpt lat="38.09502613730728626251220703125" lon="-1.2871449999511241912841796875">
        <ele>110</ele>
        <time>2020-02-22T08:12:30.000Z</time>
      </trkpt>
      <trkpt lat="38.09508849866688251495361328125" lon="-1.28722806461155414581298828125">
        <ele>109.59999847412109375</ele>
        <time>2020-02-22T08:12:31.000Z</time>
      </trkpt>
      <trkpt lat="38.09515957720577716827392578125" lon="-1.28729746676981449127197265625">
        <ele>109.1999969482421875</ele>
        <time>2020-02-22T08:12:32.000Z</time>
      </trkpt>
      <trkpt lat="38.0952833779156208038330078125" lon="-1.2874574773013591766357421875">
        <ele>108.8000030517578125</ele>
        <time>2020-02-22T08:12:34.000Z</time>
      </trkpt>
      <trkpt lat="38.09535227715969085693359375" lon="-1.28779015503823757171630859375">
        <ele>108</ele>
        <time>2020-02-22T08:12:37.000Z</time>
      </trkpt>
      <trkpt lat="38.09536661021411418914794921875" lon="-1.2879147939383983612060546875">
        <ele>107.8000030517578125</ele>
        <time>2020-02-22T08:12:38.000Z</time>
      </trkpt>
      <trkpt lat="38.095392175018787384033203125" lon="-1.28803272731602191925048828125">
        <ele>107.59999847412109375</ele>
        <time>2020-02-22T08:12:39.000Z</time>
      </trkpt>
      <trkpt lat="38.09547088108956813812255859375" lon="-1.2882581166923046112060546875">
        <ele>107.1999969482421875</ele>
        <time>2020-02-22T08:12:41.000Z</time>
      </trkpt>
      <trkpt lat="38.09556157328188419342041015625" lon="-1.28848283551633358001708984375">
        <ele>107</ele>
        <time>2020-02-22T08:12:43.000Z</time>
      </trkpt>
      <trkpt lat="38.095748238265514373779296875" lon="-1.2889320217072963714599609375">
        <ele>106.40000152587890625</ele>
        <time>2020-02-22T08:12:47.000Z</time>
      </trkpt>
      <trkpt lat="38.0958929099142551422119140625" lon="-1.28926746547222137451171875">
        <ele>106</ele>
        <time>2020-02-22T08:12:50.000Z</time>
      </trkpt>
      <trkpt lat="38.09594261460006237030029296875" lon="-1.28938238136470317840576171875">
        <ele>105.8000030517578125</ele>
        <time>2020-02-22T08:12:51.000Z</time>
      </trkpt>
      <trkpt lat="38.09603464789688587188720703125" lon="-1.28962847404181957244873046875">
        <ele>105.1999969482421875</ele>
        <time>2020-02-22T08:12:53.000Z</time>
      </trkpt>
      <trkpt lat="38.0961321294307708740234375" lon="-1.28986484371125698089599609375">
        <ele>104.8000030517578125</ele>
        <time>2020-02-22T08:12:55.000Z</time>
      </trkpt>
      <trkpt lat="38.0962814949452877044677734375" lon="-1.29021772183477878570556640625">
        <ele>104.40000152587890625</ele>
        <time>2020-02-22T08:12:58.000Z</time>
      </trkpt>
      <trkpt lat="38.09633195400238037109375" lon="-1.29033724777400493621826171875">
        <ele>104.40000152587890625</ele>
        <time>2020-02-22T08:12:59.000Z</time>
      </trkpt>
      <trkpt lat="38.09648475609719753265380859375" lon="-1.290696747601032257080078125">
        <ele>104.1999969482421875</ele>
        <time>2020-02-22T08:13:02.000Z</time>
      </trkpt>
      <trkpt lat="38.09669966809451580047607421875" lon="-1.2911750189960002899169921875">
        <ele>104.1999969482421875</ele>
        <time>2020-02-22T08:13:06.000Z</time>
      </trkpt>
      <trkpt lat="38.096807710826396942138671875" lon="-1.2914191000163555145263671875">
        <ele>104</ele>
        <time>2020-02-22T08:13:08.000Z</time>
      </trkpt>
      <trkpt lat="38.09691675938665866851806640625" lon="-1.29166242666542530059814453125">
        <ele>103.40000152587890625</ele>
        <time>2020-02-22T08:13:10.000Z</time>
      </trkpt>
      <trkpt lat="38.097125552594661712646484375" lon="-1.29214321263134479522705078125">
        <ele>102.1999969482421875</ele>
        <time>2020-02-22T08:13:14.000Z</time>
      </trkpt>
      <trkpt lat="38.09721398167312145233154296875" lon="-1.2923914007842540740966796875">
        <ele>101.8000030517578125</ele>
        <time>2020-02-22T08:13:16.000Z</time>
      </trkpt>
      <trkpt lat="38.09731473214924335479736328125" lon="-1.29277847707271575927734375">
        <ele>101.1999969482421875</ele>
        <time>2020-02-22T08:13:19.000Z</time>
      </trkpt>
      <trkpt lat="38.097402155399322509765625" lon="-1.2931618653237819671630859375">
        <ele>100.59999847412109375</ele>
        <time>2020-02-22T08:13:22.000Z</time>
      </trkpt>
      <trkpt lat="38.0975488387048244476318359375" lon="-1.2939004786312580108642578125">
        <ele>100.40000152587890625</ele>
        <time>2020-02-22T08:13:28.000Z</time>
      </trkpt>
      <trkpt lat="38.0976266227662563323974609375" lon="-1.29424489103257656097412109375">
        <ele>100.59999847412109375</ele>
        <time>2020-02-22T08:13:31.000Z</time>
      </trkpt>
      <trkpt lat="38.0978140421211719512939453125" lon="-1.2947899661958217620849609375">
        <ele>101</ele>
        <time>2020-02-22T08:13:36.000Z</time>
      </trkpt>
      <trkpt lat="38.0978596396744251251220703125" lon="-1.29488711245357990264892578125">
        <ele>101.1999969482421875</ele>
        <time>2020-02-22T08:13:37.000Z</time>
      </trkpt>
      <trkpt lat="38.098099865019321441650390625" lon="-1.29527200944721698760986328125">
        <ele>102</ele>
        <time>2020-02-22T08:13:42.000Z</time>
      </trkpt>
      <trkpt lat="38.0981939099729061126708984375" lon="-1.2953864224255084991455078125">
        <ele>102.1999969482421875</ele>
        <time>2020-02-22T08:13:44.000Z</time>
      </trkpt>
      <trkpt lat="38.0983481369912624359130859375" lon="-1.29553201608359813690185546875">
        <ele>103.1999969482421875</ele>
        <time>2020-02-22T08:13:47.000Z</time>
      </trkpt>
      <trkpt lat="38.098394908010959625244140625" lon="-1.29557878710329532623291015625">
        <ele>103.8000030517578125</ele>
        <time>2020-02-22T08:13:48.000Z</time>
      </trkpt>
      <trkpt lat="38.0984386615455150604248046875" lon="-1.29562471993267536163330078125">
        <ele>104.40000152587890625</ele>
        <time>2020-02-22T08:13:49.000Z</time>
      </trkpt>
      <trkpt lat="38.09857117943465709686279296875" lon="-1.29575061611831188201904296875">
        <ele>105.59999847412109375</ele>
        <time>2020-02-22T08:13:52.000Z</time>
      </trkpt>
      <trkpt lat="38.09875139035284519195556640625" lon="-1.29591490142047405242919921875">
        <ele>106.59999847412109375</ele>
        <time>2020-02-22T08:13:56.000Z</time>
      </trkpt>
      <trkpt lat="38.09887804090976715087890625" lon="-1.29603191278874874114990234375">
        <ele>108</ele>
        <time>2020-02-22T08:13:59.000Z</time>
      </trkpt>
      <trkpt lat="38.09895289130508899688720703125" lon="-1.29610483534634113311767578125">
        <ele>108.59999847412109375</ele>
        <time>2020-02-22T08:14:01.000Z</time>
      </trkpt>
      <trkpt lat="38.09898926876485347747802734375" lon="-1.29614154808223247528076171875">
        <ele>109</ele>
        <time>2020-02-22T08:14:02.000Z</time>
      </trkpt>
      <trkpt lat="38.099092282354831695556640625" lon="-1.2962611578404903411865234375">
        <ele>110</ele>
        <time>2020-02-22T08:14:05.000Z</time>
      </trkpt>
      <trkpt lat="38.09922077693045139312744140625" lon="-1.29643072374165058135986328125">
        <ele>111.40000152587890625</ele>
        <time>2020-02-22T08:14:09.000Z</time>
      </trkpt>
      <trkpt lat="38.0993405543267726898193359375" lon="-1.29662484861910343170166015625">
        <ele>112.8000030517578125</ele>
        <time>2020-02-22T08:14:13.000Z</time>
      </trkpt>
      <trkpt lat="38.09942655265331268310546875" lon="-1.29682517610490322113037109375">
        <ele>113.8000030517578125</ele>
        <time>2020-02-22T08:14:17.000Z</time>
      </trkpt>
      <trkpt lat="38.09949285350739955902099609375" lon="-1.29704494960606098175048828125">
        <ele>115.1999969482421875</ele>
        <time>2020-02-22T08:14:21.000Z</time>
      </trkpt>
      <trkpt lat="38.0995387025177478790283203125" lon="-1.297254078090190887451171875">
        <ele>116.1999969482421875</ele>
        <time>2020-02-22T08:14:25.000Z</time>
      </trkpt>
      <trkpt lat="38.099573068320751190185546875" lon="-1.29746488295495510101318359375">
        <ele>117.40000152587890625</ele>
        <time>2020-02-22T08:14:29.000Z</time>
      </trkpt>
      <trkpt lat="38.09959310106933116912841796875" lon="-1.29766621626913547515869140625">
        <ele>118.59999847412109375</ele>
        <time>2020-02-22T08:14:33.000Z</time>
      </trkpt>
      <trkpt lat="38.09959108941256999969482421875" lon="-1.297891102731227874755859375">
        <ele>119.59999847412109375</ele>
        <time>2020-02-22T08:14:37.000Z</time>
      </trkpt>
      <trkpt lat="38.09958036057651042938232421875" lon="-1.29805278964340686798095703125">
        <ele>120.8000030517578125</ele>
        <time>2020-02-22T08:14:40.000Z</time>
      </trkpt>
      <trkpt lat="38.09955353848636150360107421875" lon="-1.2982870638370513916015625">
        <ele>122</ele>
        <time>2020-02-22T08:14:44.000Z</time>
      </trkpt>
      <trkpt lat="38.09954649768769741058349609375" lon="-1.29833827726542949676513671875">
        <ele>122.1999969482421875</ele>
        <time>2020-02-22T08:14:45.000Z</time>
      </trkpt>
      <trkpt lat="38.0995199270546436309814453125" lon="-1.29849694669246673583984375">
        <ele>123.1999969482421875</ele>
        <time>2020-02-22T08:14:48.000Z</time>
      </trkpt>
      <trkpt lat="38.0994833819568157196044921875" lon="-1.2987160496413707733154296875">
        <ele>124.1999969482421875</ele>
        <time>2020-02-22T08:14:52.000Z</time>
      </trkpt>
      <trkpt lat="38.09946066699922084808349609375" lon="-1.298884861171245574951171875">
        <ele>125.1999969482421875</ele>
        <time>2020-02-22T08:14:55.000Z</time>
      </trkpt>
      <trkpt lat="38.0994532071053981781005859375" lon="-1.2989426963031291961669921875">
        <ele>125.40000152587890625</ele>
        <time>2020-02-22T08:14:56.000Z</time>
      </trkpt>
      <trkpt lat="38.09941071085631847381591796875" lon="-1.299285180866718292236328125">
        <ele>126.59999847412109375</ele>
        <time>2020-02-22T08:15:02.000Z</time>
      </trkpt>
      <trkpt lat="38.0993784405291080474853515625" lon="-1.299517191946506500244140625">
        <ele>127.8000030517578125</ele>
        <time>2020-02-22T08:15:06.000Z</time>
      </trkpt>
      <trkpt lat="38.0993392132222652435302734375" lon="-1.2997651286423206329345703125">
        <ele>129</ele>
        <time>2020-02-22T08:15:10.000Z</time>
      </trkpt>
      <trkpt lat="38.09931792318820953369140625" lon="-1.2999044358730316162109375">
        <ele>129.399993896484375</ele>
        <time>2020-02-22T08:15:12.000Z</time>
      </trkpt>
      <trkpt lat="38.09928079135715961456298828125" lon="-1.30012177862226963043212890625">
        <ele>130</ele>
        <time>2020-02-22T08:15:15.000Z</time>
      </trkpt>
      <trkpt lat="38.09922806918621063232421875" lon="-1.30049427039921283721923828125">
        <ele>130.8000030517578125</ele>
        <time>2020-02-22T08:15:20.000Z</time>
      </trkpt>
      <trkpt lat="38.09920686297118663787841796875" lon="-1.30064497701823711395263671875">
        <ele>131.1999969482421875</ele>
        <time>2020-02-22T08:15:22.000Z</time>
      </trkpt>
      <trkpt lat="38.0991437472403049468994140625" lon="-1.30125132389366626739501953125">
        <ele>131.600006103515625</ele>
        <time>2020-02-22T08:15:29.000Z</time>
      </trkpt>
      <trkpt lat="38.09912606142461299896240234375" lon="-1.30163244903087615966796875">
        <ele>131.600006103515625</ele>
        <time>2020-02-22T08:15:33.000Z</time>
      </trkpt>
      <trkpt lat="38.0991471000015735626220703125" lon="-1.3019165955483913421630859375">
        <ele>131.600006103515625</ele>
        <time>2020-02-22T08:15:36.000Z</time>
      </trkpt>
      <trkpt lat="38.0992483533918857574462890625" lon="-1.3024349324405193328857421875">
        <ele>131.399993896484375</ele>
        <time>2020-02-22T08:15:41.000Z</time>
      </trkpt>
      <trkpt lat="38.09943032450973987579345703125" lon="-1.30284371785819530487060546875">
        <ele>130.399993896484375</ele>
        <time>2020-02-22T08:15:45.000Z</time>
      </trkpt>
      <trkpt lat="38.09949268586933612823486328125" lon="-1.30293994210660457611083984375">
        <ele>130</ele>
        <time>2020-02-22T08:15:46.000Z</time>
      </trkpt>
      <trkpt lat="38.099734671413898468017578125" lon="-1.3031946681439876556396484375">
        <ele>129.1999969482421875</ele>
        <time>2020-02-22T08:15:49.000Z</time>
      </trkpt>
      <trkpt lat="38.0998374335467815399169921875" lon="-1.30326616577804088592529296875">
        <ele>128.8000030517578125</ele>
        <time>2020-02-22T08:15:50.000Z</time>
      </trkpt>
      <trkpt lat="38.09994019567966461181640625" lon="-1.3033277727663516998291015625">
        <ele>128.600006103515625</ele>
        <time>2020-02-22T08:15:51.000Z</time>
      </trkpt>
      <trkpt lat="38.10017329640686511993408203125" lon="-1.3034276850521564483642578125">
        <ele>127.59999847412109375</ele>
        <time>2020-02-22T08:15:53.000Z</time>
      </trkpt>
      <trkpt lat="38.100425340235233306884765625" lon="-1.3034860230982303619384765625">
        <ele>126.40000152587890625</ele>
        <time>2020-02-22T08:15:55.000Z</time>
      </trkpt>
      <trkpt lat="38.10069750063121318817138671875" lon="-1.30351963452994823455810546875">
        <ele>124.8000030517578125</ele>
        <time>2020-02-22T08:15:57.000Z</time>
      </trkpt>
      <trkpt lat="38.1008342094719409942626953125" lon="-1.3035319559276103973388671875">
        <ele>123.8000030517578125</ele>
        <time>2020-02-22T08:15:58.000Z</time>
      </trkpt>
      <trkpt lat="38.1011101417243480682373046875" lon="-1.30354478023946285247802734375">
        <ele>121.8000030517578125</ele>
        <time>2020-02-22T08:16:00.000Z</time>
      </trkpt>
      <trkpt lat="38.10137827880680561065673828125" lon="-1.30356523208320140838623046875">
        <ele>120.1999969482421875</ele>
        <time>2020-02-22T08:16:02.000Z</time>
      </trkpt>
      <trkpt lat="38.10151171870529651641845703125" lon="-1.30358048714697360992431640625">
        <ele>118.1999969482421875</ele>
        <time>2020-02-22T08:16:03.000Z</time>
      </trkpt>
      <trkpt lat="38.1016402132809162139892578125" lon="-1.30359582602977752685546875">
        <ele>117</ele>
        <time>2020-02-22T08:16:04.000Z</time>
      </trkpt>
      <trkpt lat="38.1018953584134578704833984375" lon="-1.3036734424531459808349609375">
        <ele>115.40000152587890625</ele>
        <time>2020-02-22T08:16:06.000Z</time>
      </trkpt>
      <trkpt lat="38.10201396234333515167236328125" lon="-1.30372348241508007049560546875">
        <ele>114.8000030517578125</ele>
        <time>2020-02-22T08:16:07.000Z</time>
      </trkpt>
      <trkpt lat="38.10213667340576648712158203125" lon="-1.30379070527851581573486328125">
        <ele>114.1999969482421875</ele>
        <time>2020-02-22T08:16:08.000Z</time>
      </trkpt>
      <trkpt lat="38.10237186960875988006591796875" lon="-1.30394711159169673919677734375">
        <ele>112.40000152587890625</ele>
        <time>2020-02-22T08:16:10.000Z</time>
      </trkpt>
      <trkpt lat="38.10248552821576595306396484375" lon="-1.3040425814688205718994140625">
        <ele>111.8000030517578125</ele>
        <time>2020-02-22T08:16:11.000Z</time>
      </trkpt>
      <trkpt lat="38.1025900505483150482177734375" lon="-1.30414961837232112884521484375">
        <ele>111</ele>
        <time>2020-02-22T08:16:12.000Z</time>
      </trkpt>
      <trkpt lat="38.1026986800134181976318359375" lon="-1.30426243878901004791259765625">
        <ele>110</ele>
        <time>2020-02-22T08:16:13.000Z</time>
      </trkpt>
      <trkpt lat="38.1027982570230960845947265625" lon="-1.3043889217078685760498046875">
        <ele>109.1999969482421875</ele>
        <time>2020-02-22T08:16:14.000Z</time>
      </trkpt>
      <trkpt lat="38.1028961576521396636962890625" lon="-1.30452512763440608978271484375">
        <ele>108</ele>
        <time>2020-02-22T08:16:15.000Z</time>
      </trkpt>
      <trkpt lat="38.1030886061489582061767578125" lon="-1.30481782369315624237060546875">
        <ele>106.40000152587890625</ele>
        <time>2020-02-22T08:16:17.000Z</time>
      </trkpt>
      <trkpt lat="38.10318298637866973876953125" lon="-1.30496785975992679595947265625">
        <ele>105.59999847412109375</ele>
        <time>2020-02-22T08:16:18.000Z</time>
      </trkpt>
      <trkpt lat="38.1032800488173961639404296875" lon="-1.30511973984539508819580078125">
        <ele>105</ele>
        <time>2020-02-22T08:16:19.000Z</time>
      </trkpt>
      <trkpt lat="38.103472329676151275634765625" lon="-1.30542282946407794952392578125">
        <ele>103.59999847412109375</ele>
        <time>2020-02-22T08:16:21.000Z</time>
      </trkpt>
      <trkpt lat="38.103656060993671417236328125" lon="-1.3057152740657329559326171875">
        <ele>102</ele>
        <time>2020-02-22T08:16:23.000Z</time>
      </trkpt>
      <trkpt lat="38.1038295663893222808837890625" lon="-1.305995397269725799560546875">
        <ele>100.1999969482421875</ele>
        <time>2020-02-22T08:16:25.000Z</time>
      </trkpt>
      <trkpt lat="38.10391128994524478912353515625" lon="-1.3061325252056121826171875">
        <ele>99.1999969482421875</ele>
        <time>2020-02-22T08:16:26.000Z</time>
      </trkpt>
      <trkpt lat="38.10399259440600872039794921875" lon="-1.30626596510410308837890625">
        <ele>98.40000152587890625</ele>
        <time>2020-02-22T08:16:27.000Z</time>
      </trkpt>
      <trkpt lat="38.10413911007344722747802734375" lon="-1.30651616491377353668212890625">
        <ele>96.8000030517578125</ele>
        <time>2020-02-22T08:16:29.000Z</time>
      </trkpt>
      <trkpt lat="38.104262240231037139892578125" lon="-1.30673945881426334381103515625">
        <ele>96.1999969482421875</ele>
        <time>2020-02-22T08:16:31.000Z</time>
      </trkpt>
      <trkpt lat="38.10438930988311767578125" lon="-1.3069490902125835418701171875">
        <ele>96.1999969482421875</ele>
        <time>2020-02-22T08:16:33.000Z</time>
      </trkpt>
      <trkpt lat="38.10453138314187526702880859375" lon="-1.3071437180042266845703125">
        <ele>96</ele>
        <time>2020-02-22T08:16:35.000Z</time>
      </trkpt>
      <trkpt lat="38.1046950817108154296875" lon="-1.30731043405830860137939453125">
        <ele>96</ele>
        <time>2020-02-22T08:16:37.000Z</time>
      </trkpt>
      <trkpt lat="38.1049708463251590728759765625" lon="-1.30747069604694843292236328125">
        <ele>96</ele>
        <time>2020-02-22T08:16:40.000Z</time>
      </trkpt>
      <trkpt lat="38.10506229288876056671142578125" lon="-1.3075058162212371826171875">
        <ele>96.1999969482421875</ele>
        <time>2020-02-22T08:16:41.000Z</time>
      </trkpt>
      <trkpt lat="38.1056088767945766448974609375" lon="-1.30770069546997547149658203125">
        <ele>96.40000152587890625</ele>
        <time>2020-02-22T08:16:47.000Z</time>
      </trkpt>
      <trkpt lat="38.1061245314776897430419921875" lon="-1.3078700937330722808837890625">
        <ele>97</ele>
        <time>2020-02-22T08:16:53.000Z</time>
      </trkpt>
      <trkpt lat="38.106381185352802276611328125" lon="-1.30795248784124851226806640625">
        <ele>97.40000152587890625</ele>
        <time>2020-02-22T08:16:57.000Z</time>
      </trkpt>
      <trkpt lat="38.1064289622008800506591796875" lon="-1.30795533768832683563232421875">
        <ele>97.40000152587890625</ele>
        <time>2020-02-22T08:16:58.000Z</time>
      </trkpt>
      <trkpt lat="38.10655930079519748687744140625" lon="-1.30785324610769748687744140625">
        <ele>97.59999847412109375</ele>
        <time>2020-02-22T08:17:01.000Z</time>
      </trkpt>
      <trkpt lat="38.10667295940220355987548828125" lon="-1.3078013621270656585693359375">
        <ele>97.8000030517578125</ele>
        <time>2020-02-22T08:17:03.000Z</time>
      </trkpt>
      <trkpt lat="38.1067313812673091888427734375" lon="-1.3078070618212223052978515625">
        <ele>97.8000030517578125</ele>
        <time>2020-02-22T08:17:04.000Z</time>
      </trkpt>
      <trkpt lat="38.10681209899485111236572265625" lon="-1.307897083461284637451171875">
        <ele>98</ele>
        <time>2020-02-22T08:17:06.000Z</time>
      </trkpt>
      <trkpt lat="38.10681293718516826629638671875" lon="-1.3080430962145328521728515625">
        <ele>98</ele>
        <time>2020-02-22T08:17:08.000Z</time>
      </trkpt>
      <trkpt lat="38.10675258748233318328857421875" lon="-1.3083445094525814056396484375">
        <ele>98</ele>
        <time>2020-02-22T08:17:12.000Z</time>
      </trkpt>
      <trkpt lat="38.1067893840372562408447265625" lon="-1.308499239385128021240234375">
        <ele>98</ele>
        <time>2020-02-22T08:17:14.000Z</time>
      </trkpt>
      <trkpt lat="38.10681897215545177459716796875" lon="-1.3085758499801158905029296875">
        <ele>98.1999969482421875</ele>
        <time>2020-02-22T08:17:15.000Z</time>
      </trkpt>
      <trkpt lat="38.1068527512252330780029296875" lon="-1.30865572951734066009521484375">
        <ele>98.1999969482421875</ele>
        <time>2020-02-22T08:17:16.000Z</time>
      </trkpt>
      <trkpt lat="38.1069248355925083160400390625" lon="-1.30882076919078826904296875">
        <ele>98.1999969482421875</ele>
        <time>2020-02-22T08:17:18.000Z</time>
      </trkpt>
      <trkpt lat="38.10699448920786380767822265625" lon="-1.30899419076740741729736328125">
        <ele>98.1999969482421875</ele>
        <time>2020-02-22T08:17:20.000Z</time>
      </trkpt>
      <trkpt lat="38.107068501412868499755859375" lon="-1.30916601978242397308349609375">
        <ele>98.59999847412109375</ele>
        <time>2020-02-22T08:17:22.000Z</time>
      </trkpt>
      <trkpt lat="38.10710865072906017303466796875" lon="-1.3092507608234882354736328125">
        <ele>98.8000030517578125</ele>
        <time>2020-02-22T08:17:23.000Z</time>
      </trkpt>
      <trkpt lat="38.1071479618549346923828125" lon="-1.30933315493166446685791015625">
        <ele>99</ele>
        <time>2020-02-22T08:17:24.000Z</time>
      </trkpt>
      <trkpt lat="38.10726664960384368896484375" lon="-1.30957589484751224517822265625">
        <ele>99.59999847412109375</ele>
        <time>2020-02-22T08:17:27.000Z</time>
      </trkpt>
      <trkpt lat="38.10734937898814678192138671875" lon="-1.30973330698907375335693359375">
        <ele>100</ele>
        <time>2020-02-22T08:17:29.000Z</time>
      </trkpt>
      <trkpt lat="38.10744007118046283721923828125" lon="-1.309880912303924560546875">
        <ele>100.40000152587890625</ele>
        <time>2020-02-22T08:17:31.000Z</time>
      </trkpt>
      <trkpt lat="38.107623718678951263427734375" lon="-1.31016589701175689697265625">
        <ele>101.1999969482421875</ele>
        <time>2020-02-22T08:17:35.000Z</time>
      </trkpt>
      <trkpt lat="38.10782463289797306060791015625" lon="-1.310429759323596954345703125">
        <ele>102</ele>
        <time>2020-02-22T08:17:39.000Z</time>
      </trkpt>
      <trkpt lat="38.1079320050776004791259765625" lon="-1.31056026555597782135009765625">
        <ele>102.59999847412109375</ele>
        <time>2020-02-22T08:17:41.000Z</time>
      </trkpt>
      <trkpt lat="38.108256049454212188720703125" lon="-1.31093577481806278228759765625">
        <ele>103.59999847412109375</ele>
        <time>2020-02-22T08:17:47.000Z</time>
      </trkpt>
      <trkpt lat="38.1083091907203197479248046875" lon="-1.31099645979702472686767578125">
        <ele>103.59999847412109375</ele>
        <time>2020-02-22T08:17:48.000Z</time>
      </trkpt>
      <trkpt lat="38.10857154428958892822265625" lon="-1.3112969510257244110107421875">
        <ele>104.59999847412109375</ele>
        <time>2020-02-22T08:17:53.000Z</time>
      </trkpt>
      <trkpt lat="38.10872065834701061248779296875" lon="-1.3114712946116924285888671875">
        <ele>105</ele>
        <time>2020-02-22T08:17:56.000Z</time>
      </trkpt>
      <trkpt lat="38.10890992172062397003173828125" lon="-1.31169349886476993560791015625">
        <ele>105.8000030517578125</ele>
        <time>2020-02-22T08:18:00.000Z</time>
      </trkpt>
      <trkpt lat="38.109127096831798553466796875" lon="-1.31195149384438991546630859375">
        <ele>106.40000152587890625</ele>
        <time>2020-02-22T08:18:05.000Z</time>
      </trkpt>
      <trkpt lat="38.10921099968254566192626953125" lon="-1.3120521605014801025390625">
        <ele>106.8000030517578125</ele>
        <time>2020-02-22T08:18:07.000Z</time>
      </trkpt>
      <trkpt lat="38.109328933060169219970703125" lon="-1.3122018612921237945556640625">
        <ele>107.40000152587890625</ele>
        <time>2020-02-22T08:18:10.000Z</time>
      </trkpt>
      <trkpt lat="38.10940680094063282012939453125" lon="-1.3122987560927867889404296875">
        <ele>107.8000030517578125</ele>
        <time>2020-02-22T08:18:12.000Z</time>
      </trkpt>
      <trkpt lat="38.10948123224079608917236328125" lon="-1.31238718517124652862548828125">
        <ele>108</ele>
        <time>2020-02-22T08:18:14.000Z</time>
      </trkpt>
      <trkpt lat="38.10955331660807132720947265625" lon="-1.31247385405004024505615234375">
        <ele>108.40000152587890625</ele>
        <time>2020-02-22T08:18:16.000Z</time>
      </trkpt>
      <trkpt lat="38.1096647121012210845947265625" lon="-1.31260444410145282745361328125">
        <ele>108.8000030517578125</ele>
        <time>2020-02-22T08:18:19.000Z</time>
      </trkpt>
      <trkpt lat="38.10973671264946460723876953125" lon="-1.31269077770411968231201171875">
        <ele>109</ele>
        <time>2020-02-22T08:18:21.000Z</time>
      </trkpt>
      <trkpt lat="38.1098873354494571685791015625" lon="-1.312864534556865692138671875">
        <ele>109.8000030517578125</ele>
        <time>2020-02-22T08:18:25.000Z</time>
      </trkpt>
      <trkpt lat="38.1099564023315906524658203125" lon="-1.312944330275058746337890625">
        <ele>110.1999969482421875</ele>
        <time>2020-02-22T08:18:27.000Z</time>
      </trkpt>
      <trkpt lat="38.11016553081572055816650390625" lon="-1.31321489810943603515625">
        <ele>111.1999969482421875</ele>
        <time>2020-02-22T08:18:33.000Z</time>
      </trkpt>
      <trkpt lat="38.110346160829067230224609375" lon="-1.3134343363344669342041015625">
        <ele>112.40000152587890625</ele>
        <time>2020-02-22T08:18:38.000Z</time>
      </trkpt>
      <trkpt lat="38.11045319773256778717041015625" lon="-1.31355889141559600830078125">
        <ele>113</ele>
        <time>2020-02-22T08:18:41.000Z</time>
      </trkpt>
      <trkpt lat="38.1105468235909938812255859375" lon="-1.31366752088069915771484375">
        <ele>113.59999847412109375</ele>
        <time>2020-02-22T08:18:44.000Z</time>
      </trkpt>
      <trkpt lat="38.1107238493859767913818359375" lon="-1.3138802535831928253173828125">
        <ele>114.59999847412109375</ele>
        <time>2020-02-22T08:18:50.000Z</time>
      </trkpt>
      <trkpt lat="38.11087497510015964508056640625" lon="-1.31395292468369007110595703125">
        <ele>115.40000152587890625</ele>
        <time>2020-02-22T08:18:54.000Z</time>
      </trkpt>
      <trkpt lat="38.1109178066253662109375" lon="-1.3139446265995502471923828125">
        <ele>115.59999847412109375</ele>
        <time>2020-02-22T08:18:55.000Z</time>
      </trkpt>
      <trkpt lat="38.11095460318028926849365234375" lon="-1.3139198161661624908447265625">
        <ele>115.8000030517578125</ele>
        <time>2020-02-22T08:18:56.000Z</time>
      </trkpt>
      <trkpt lat="38.11099332757294178009033203125" lon="-1.3138779066503047943115234375">
        <ele>116.1999969482421875</ele>
        <time>2020-02-22T08:18:57.000Z</time>
      </trkpt>
      <trkpt lat="38.111136071383953094482421875" lon="-1.31371974013745784759521484375">
        <ele>116.59999847412109375</ele>
        <time>2020-02-22T08:19:00.000Z</time>
      </trkpt>
      <trkpt lat="38.111228607594966888427734375" lon="-1.3135956041514873504638671875">
        <ele>116.8000030517578125</ele>
        <time>2020-02-22T08:19:02.000Z</time>
      </trkpt>
      <trkpt lat="38.11152507551014423370361328125" lon="-1.3130980543792247772216796875">
        <ele>117.1999969482421875</ele>
        <time>2020-02-22T08:19:09.000Z</time>
      </trkpt>
      <trkpt lat="38.11188273131847381591796875" lon="-1.3125295937061309814453125">
        <ele>117.59999847412109375</ele>
        <time>2020-02-22T08:19:17.000Z</time>
      </trkpt>
      <trkpt lat="38.11196856200695037841796875" lon="-1.31239070557057857513427734375">
        <ele>117.59999847412109375</ele>
        <time>2020-02-22T08:19:19.000Z</time>
      </trkpt>
      <trkpt lat="38.11201751232147216796875" lon="-1.3123205490410327911376953125">
        <ele>117.59999847412109375</ele>
        <time>2020-02-22T08:19:20.000Z</time>
      </trkpt>
      <trkpt lat="38.1122570671141147613525390625" lon="-1.311956606805324554443359375">
        <ele>117.8000030517578125</ele>
        <time>2020-02-22T08:19:25.000Z</time>
      </trkpt>
      <trkpt lat="38.11240685172379016876220703125" lon="-1.3117297925055027008056640625">
        <ele>117.8000030517578125</ele>
        <time>2020-02-22T08:19:28.000Z</time>
      </trkpt>
      <trkpt lat="38.11278739012777805328369140625" lon="-1.31112788803875446319580078125">
        <ele>118.1999969482421875</ele>
        <time>2020-02-22T08:19:36.000Z</time>
      </trkpt>
      <trkpt lat="38.1128790043294429779052734375" lon="-1.31098522804677486419677734375">
        <ele>118.40000152587890625</ele>
        <time>2020-02-22T08:19:38.000Z</time>
      </trkpt>
      <trkpt lat="38.11292468570172786712646484375" lon="-1.310915909707546234130859375">
        <ele>118.8000030517578125</ele>
        <time>2020-02-22T08:19:39.000Z</time>
      </trkpt>
      <trkpt lat="38.11325593851506710052490234375" lon="-1.3103749416768550872802734375">
        <ele>119.8000030517578125</ele>
        <time>2020-02-22T08:19:47.000Z</time>
      </trkpt>
      <trkpt lat="38.11330220662057399749755859375" lon="-1.31031098775565624237060546875">
        <ele>120</ele>
        <time>2020-02-22T08:19:48.000Z</time>
      </trkpt>
      <trkpt lat="38.11348459683358669281005859375" lon="-1.310048215091228485107421875">
        <ele>121</ele>
        <time>2020-02-22T08:19:52.000Z</time>
      </trkpt>
      <trkpt lat="38.11365223489701747894287109375" lon="-1.30977421067655086517333984375">
        <ele>121.40000152587890625</ele>
        <time>2020-02-22T08:19:56.000Z</time>
      </trkpt>
      <trkpt lat="38.11378165148198604583740234375" lon="-1.3095055706799030303955078125">
        <ele>121.59999847412109375</ele>
        <time>2020-02-22T08:20:00.000Z</time>
      </trkpt>
      <trkpt lat="38.11382557265460491180419921875" lon="-1.309465505182743072509765625">
        <ele>121.59999847412109375</ele>
        <time>2020-02-22T08:20:01.000Z</time>
      </trkpt>
      <trkpt lat="38.11386890709400177001953125" lon="-1.30941563285887241363525390625">
        <ele>121.8000030517578125</ele>
        <time>2020-02-22T08:20:02.000Z</time>
      </trkpt>
      <trkpt lat="38.11399069614708423614501953125" lon="-1.3092215918004512786865234375">
        <ele>122</ele>
        <time>2020-02-22T08:20:05.000Z</time>
      </trkpt>
      <trkpt lat="38.1142901815474033355712890625" lon="-1.30877517163753509521484375">
        <ele>122</ele>
        <time>2020-02-22T08:20:11.000Z</time>
      </trkpt>
      <trkpt lat="38.11433703638613224029541015625" lon="-1.30869680084288120269775390625">
        <ele>122</ele>
        <time>2020-02-22T08:20:12.000Z</time>
      </trkpt>
      <trkpt lat="38.11443627811968326568603515625" lon="-1.30854408256709575653076171875">
        <ele>121.59999847412109375</ele>
        <time>2020-02-22T08:20:14.000Z</time>
      </trkpt>
      <trkpt lat="38.1145803630352020263671875" lon="-1.3083089701831340789794921875">
        <ele>120.8000030517578125</ele>
        <time>2020-02-22T08:20:17.000Z</time>
      </trkpt>
      <trkpt lat="38.114738278090953826904296875" lon="-1.3080816529691219329833984375">
        <ele>119.59999847412109375</ele>
        <time>2020-02-22T08:20:20.000Z</time>
      </trkpt>
      <trkpt lat="38.11496349982917308807373046875" lon="-1.3077822513878345489501953125">
        <ele>118.8000030517578125</ele>
        <time>2020-02-22T08:20:24.000Z</time>
      </trkpt>
      <trkpt lat="38.1150173954665660858154296875" lon="-1.307701952755451202392578125">
        <ele>118.59999847412109375</ele>
        <time>2020-02-22T08:20:25.000Z</time>
      </trkpt>
      <trkpt lat="38.11507028527557849884033203125" lon="-1.30762073211371898651123046875">
        <ele>118.40000152587890625</ele>
        <time>2020-02-22T08:20:26.000Z</time>
      </trkpt>
      <trkpt lat="38.1152336485683917999267578125" lon="-1.3073792494833469390869140625">
        <ele>117.8000030517578125</ele>
        <time>2020-02-22T08:20:29.000Z</time>
      </trkpt>
      <trkpt lat="38.11533884145319461822509765625" lon="-1.30722192116081714630126953125">
        <ele>117.40000152587890625</ele>
        <time>2020-02-22T08:20:31.000Z</time>
      </trkpt>
      <trkpt lat="38.11548099853098392486572265625" lon="-1.30700767971575260162353515625">
        <ele>117.1999969482421875</ele>
        <time>2020-02-22T08:20:34.000Z</time>
      </trkpt>
      <trkpt lat="38.1157315336167812347412109375" lon="-1.3066542148590087890625">
        <ele>116.8000030517578125</ele>
        <time>2020-02-22T08:20:39.000Z</time>
      </trkpt>
      <trkpt lat="38.11578123830258846282958984375" lon="-1.306579113006591796875">
        <ele>116.8000030517578125</ele>
        <time>2020-02-22T08:20:40.000Z</time>
      </trkpt>
      <trkpt lat="38.11592138372361660003662109375" lon="-1.306350119411945343017578125">
        <ele>116.59999847412109375</ele>
        <time>2020-02-22T08:20:43.000Z</time>
      </trkpt>
      <trkpt lat="38.1161120720207691192626953125" lon="-1.3060549087822437286376953125">
        <ele>116.59999847412109375</ele>
        <time>2020-02-22T08:20:47.000Z</time>
      </trkpt>
      <trkpt lat="38.116207458078861236572265625" lon="-1.30590680055320262908935546875">
        <ele>116.59999847412109375</ele>
        <time>2020-02-22T08:20:49.000Z</time>
      </trkpt>
      <trkpt lat="38.11630359850823879241943359375" lon="-1.30575760267674922943115234375">
        <ele>116.59999847412109375</ele>
        <time>2020-02-22T08:20:51.000Z</time>
      </trkpt>
      <trkpt lat="38.116642646491527557373046875" lon="-1.3052767328917980194091796875">
        <ele>117.8000030517578125</ele>
        <time>2020-02-22T08:20:58.000Z</time>
      </trkpt>
      <trkpt lat="38.116690926253795623779296875" lon="-1.305208504199981689453125">
        <ele>117.8000030517578125</ele>
        <time>2020-02-22T08:20:59.000Z</time>
      </trkpt>
      <trkpt lat="38.11683517880737781524658203125" lon="-1.304990239441394805908203125">
        <ele>118.40000152587890625</ele>
        <time>2020-02-22T08:21:02.000Z</time>
      </trkpt>
      <trkpt lat="38.1169770844280719757080078125" lon="-1.30478614009916782379150390625">
        <ele>119.40000152587890625</ele>
        <time>2020-02-22T08:21:05.000Z</time>
      </trkpt>
      <trkpt lat="38.1172828562557697296142578125" lon="-1.30436536855995655059814453125">
        <ele>120.59999847412109375</ele>
        <time>2020-02-22T08:21:11.000Z</time>
      </trkpt>
      <trkpt lat="38.1173341535031795501708984375" lon="-1.30428859032690525054931640625">
        <ele>120.8000030517578125</ele>
        <time>2020-02-22T08:21:12.000Z</time>
      </trkpt>
      <trkpt lat="38.11768963001668453216552734375" lon="-1.30370579659938812255859375">
        <ele>120.8000030517578125</ele>
        <time>2020-02-22T08:21:19.000Z</time>
      </trkpt>
      <trkpt lat="38.1177391670644283294677734375" lon="-1.30363044328987598419189453125">
        <ele>121</ele>
        <time>2020-02-22T08:21:20.000Z</time>
      </trkpt>
      <trkpt lat="38.11794762499630451202392578125" lon="-1.30329147912561893463134765625">
        <ele>121</ele>
        <time>2020-02-22T08:21:25.000Z</time>
      </trkpt>
      <trkpt lat="38.1180523149669170379638671875" lon="-1.30312685854732990264892578125">
        <ele>121.1999969482421875</ele>
        <time>2020-02-22T08:21:29.000Z</time>
      </trkpt>
      <trkpt lat="38.11807972379028797149658203125" lon="-1.30306835286319255828857421875">
        <ele>121.59999847412109375</ele>
        <time>2020-02-22T08:21:31.000Z</time>
      </trkpt>
      <trkpt lat="38.11809070408344268798828125" lon="-1.3030411116778850555419921875">
        <ele>121.8000030517578125</ele>
        <time>2020-02-22T08:21:32.000Z</time>
      </trkpt>
      <trkpt lat="38.1181297637522220611572265625" lon="-1.30299459211528301239013671875">
        <ele>122.40000152587890625</ele>
        <time>2020-02-22T08:21:34.000Z</time>
      </trkpt>
      <trkpt lat="38.1181964837014675140380859375" lon="-1.30298453383147716522216796875">
        <ele>123.1999969482421875</ele>
        <time>2020-02-22T08:21:36.000Z</time>
      </trkpt>
      <trkpt lat="38.11827770434319972991943359375" lon="-1.30306047387421131134033203125">
        <ele>124</ele>
        <time>2020-02-22T08:21:38.000Z</time>
      </trkpt>
      <trkpt lat="38.118293546140193939208984375" lon="-1.30311026237905025482177734375">
        <ele>124.1999969482421875</ele>
        <time>2020-02-22T08:21:39.000Z</time>
      </trkpt>
      <trkpt lat="38.1183141656219959259033203125" lon="-1.30323817022144794464111328125">
        <ele>124.40000152587890625</ele>
        <time>2020-02-22T08:21:41.000Z</time>
      </trkpt>
      <trkpt lat="38.118382394313812255859375" lon="-1.30360630340874195098876953125">
        <ele>124.40000152587890625</ele>
        <time>2020-02-22T08:21:46.000Z</time>
      </trkpt>
      <trkpt lat="38.11852195300161838531494140625" lon="-1.304003186523914337158203125">
        <ele>124.40000152587890625</ele>
        <time>2020-02-22T08:21:51.000Z</time>
      </trkpt>
      <trkpt lat="38.11863427050411701202392578125" lon="-1.3043279014527797698974609375">
        <ele>123.59999847412109375</ele>
        <time>2020-02-22T08:21:55.000Z</time>
      </trkpt>
      <trkpt lat="38.11869596131145954132080078125" lon="-1.30449160002171993255615234375">
        <ele>123.40000152587890625</ele>
        <time>2020-02-22T08:21:57.000Z</time>
      </trkpt>
      <trkpt lat="38.1188040040433406829833984375" lon="-1.30474858917295932769775390625">
        <ele>123.1999969482421875</ele>
        <time>2020-02-22T08:22:00.000Z</time>
      </trkpt>
      <trkpt lat="38.1188703887164592742919921875" lon="-1.30493198521435260772705078125">
        <ele>123.1999969482421875</ele>
        <time>2020-02-22T08:22:02.000Z</time>
      </trkpt>
      <trkpt lat="38.1189374439418315887451171875" lon="-1.3051188178360462188720703125">
        <ele>122.8000030517578125</ele>
        <time>2020-02-22T08:22:04.000Z</time>
      </trkpt>
      <trkpt lat="38.11918261460959911346435546875" lon="-1.3055536709725856781005859375">
        <ele>121.8000030517578125</ele>
        <time>2020-02-22T08:22:09.000Z</time>
      </trkpt>
      <trkpt lat="38.11923072673380374908447265625" lon="-1.305647380650043487548828125">
        <ele>121.59999847412109375</ele>
        <time>2020-02-22T08:22:10.000Z</time>
      </trkpt>
      <trkpt lat="38.11939987353980541229248046875" lon="-1.30600872449576854705810546875">
        <ele>121</ele>
        <time>2020-02-22T08:22:14.000Z</time>
      </trkpt>
      <trkpt lat="38.11946525238454341888427734375" lon="-1.3061561621725559234619140625">
        <ele>120.8000030517578125</ele>
        <time>2020-02-22T08:22:16.000Z</time>
      </trkpt>
      <trkpt lat="38.1195298768579959869384765625" lon="-1.3062782026827335357666015625">
        <ele>120.59999847412109375</ele>
        <time>2020-02-22T08:22:18.000Z</time>
      </trkpt>
      <trkpt lat="38.1196472235023975372314453125" lon="-1.30646067671477794647216796875">
        <ele>120.40000152587890625</ele>
        <time>2020-02-22T08:22:21.000Z</time>
      </trkpt>
      <trkpt lat="38.11980153433978557586669921875" lon="-1.30688765086233615875244140625">
        <ele>119.40000152587890625</ele>
        <time>2020-02-22T08:22:26.000Z</time>
      </trkpt>
      <trkpt lat="38.119909577071666717529296875" lon="-1.3071598112583160400390625">
        <ele>119.1999969482421875</ele>
        <time>2020-02-22T08:22:29.000Z</time>
      </trkpt>
      <trkpt lat="38.1199918873608112335205078125" lon="-1.3073353283107280731201171875">
        <ele>118.8000030517578125</ele>
        <time>2020-02-22T08:22:31.000Z</time>
      </trkpt>
      <trkpt lat="38.1200351379811763763427734375" lon="-1.3074235059320926666259765625">
        <ele>118.59999847412109375</ele>
        <time>2020-02-22T08:22:32.000Z</time>
      </trkpt>
      <trkpt lat="38.120367228984832763671875" lon="-1.3079830817878246307373046875">
        <ele>118</ele>
        <time>2020-02-22T08:22:38.000Z</time>
      </trkpt>
      <trkpt lat="38.120529837906360626220703125" lon="-1.30830033682286739349365234375">
        <ele>117.8000030517578125</ele>
        <time>2020-02-22T08:22:41.000Z</time>
      </trkpt>
      <trkpt lat="38.12063612043857574462890625" lon="-1.308516003191471099853515625">
        <ele>117.59999847412109375</ele>
        <time>2020-02-22T08:22:43.000Z</time>
      </trkpt>
      <trkpt lat="38.12078054063022136688232421875" lon="-1.3088407181203365325927734375">
        <ele>116.40000152587890625</ele>
        <time>2020-02-22T08:22:46.000Z</time>
      </trkpt>
      <trkpt lat="38.12082395888864994049072265625" lon="-1.30894373171031475067138671875">
        <ele>116</ele>
        <time>2020-02-22T08:22:47.000Z</time>
      </trkpt>
      <trkpt lat="38.12092521227896213531494140625" lon="-1.3091394491493701934814453125">
        <ele>115.1999969482421875</ele>
        <time>2020-02-22T08:22:49.000Z</time>
      </trkpt>
      <trkpt lat="38.1210845522582530975341796875" lon="-1.30953264422714710235595703125">
        <ele>114.40000152587890625</ele>
        <time>2020-02-22T08:22:53.000Z</time>
      </trkpt>
      <trkpt lat="38.121178261935710906982421875" lon="-1.3097291998565196990966796875">
        <ele>114</ele>
        <time>2020-02-22T08:22:55.000Z</time>
      </trkpt>
      <trkpt lat="38.12132569961249828338623046875" lon="-1.31002097390592098236083984375">
        <ele>113.8000030517578125</ele>
        <time>2020-02-22T08:22:58.000Z</time>
      </trkpt>
      <trkpt lat="38.1214238516986370086669921875" lon="-1.31021057255566120147705078125">
        <ele>113.8000030517578125</ele>
        <time>2020-02-22T08:23:00.000Z</time>
      </trkpt>
      <trkpt lat="38.12156223691999912261962890625" lon="-1.31048918701708316802978515625">
        <ele>114</ele>
        <time>2020-02-22T08:23:03.000Z</time>
      </trkpt>
      <trkpt lat="38.12173574231564998626708984375" lon="-1.3108362816274166107177734375">
        <ele>114.1999969482421875</ele>
        <time>2020-02-22T08:23:07.000Z</time>
      </trkpt>
      <trkpt lat="38.12178033404052257537841796875" lon="-1.31091817282140254974365234375">
        <ele>114.40000152587890625</ele>
        <time>2020-02-22T08:23:08.000Z</time>
      </trkpt>
      <trkpt lat="38.121825344860553741455078125" lon="-1.31100132130086421966552734375">
        <ele>114.8000030517578125</ele>
        <time>2020-02-22T08:23:09.000Z</time>
      </trkpt>
      <trkpt lat="38.12200312502682209014892578125" lon="-1.311306171119213104248046875">
        <ele>115.8000030517578125</ele>
        <time>2020-02-22T08:23:13.000Z</time>
      </trkpt>
      <trkpt lat="38.12206800095736980438232421875" lon="-1.31145813502371311187744140625">
        <ele>116.1999969482421875</ele>
        <time>2020-02-22T08:23:15.000Z</time>
      </trkpt>
      <trkpt lat="38.12217042781412601470947265625" lon="-1.31166449747979640960693359375">
        <ele>117</ele>
        <time>2020-02-22T08:23:18.000Z</time>
      </trkpt>
      <trkpt lat="38.12221166677772998809814453125" lon="-1.31171797402203083038330078125">
        <ele>117.1999969482421875</ele>
        <time>2020-02-22T08:23:19.000Z</time>
      </trkpt>
      <trkpt lat="38.12229783274233341217041015625" lon="-1.31183582358062267303466796875">
        <ele>117.8000030517578125</ele>
        <time>2020-02-22T08:23:21.000Z</time>
      </trkpt>
      <trkpt lat="38.1223445199429988861083984375" lon="-1.31189181469380855560302734375">
        <ele>118</ele>
        <time>2020-02-22T08:23:22.000Z</time>
      </trkpt>
      <trkpt lat="38.1225748546421527862548828125" lon="-1.31213572807610034942626953125">
        <ele>118.8000030517578125</ele>
        <time>2020-02-22T08:23:27.000Z</time>
      </trkpt>
      <trkpt lat="38.12265071086585521697998046875" lon="-1.31221988238394260406494140625">
        <ele>119.1999969482421875</ele>
        <time>2020-02-22T08:23:29.000Z</time>
      </trkpt>
      <trkpt lat="38.122883476316928863525390625" lon="-1.3124509714543819427490234375">
        <ele>120.40000152587890625</ele>
        <time>2020-02-22T08:23:34.000Z</time>
      </trkpt>
      <trkpt lat="38.1229341030120849609375" lon="-1.31249950267374515533447265625">
        <ele>120.59999847412109375</ele>
        <time>2020-02-22T08:23:35.000Z</time>
      </trkpt>
      <trkpt lat="38.1232702173292636871337890625" lon="-1.31278046406805515289306640625">
        <ele>120.8000030517578125</ele>
        <time>2020-02-22T08:23:41.000Z</time>
      </trkpt>
      <trkpt lat="38.12367238104343414306640625" lon="-1.31315547041594982147216796875">
        <ele>120.8000030517578125</ele>
        <time>2020-02-22T08:23:48.000Z</time>
      </trkpt>
      <trkpt lat="38.1238314695656299591064453125" lon="-1.3132868148386478424072265625">
        <ele>120.8000030517578125</ele>
        <time>2020-02-22T08:23:51.000Z</time>
      </trkpt>
      <trkpt lat="38.12395895831286907196044921875" lon="-1.3133478350937366485595703125">
        <ele>120.59999847412109375</ele>
        <time>2020-02-22T08:23:53.000Z</time>
      </trkpt>
      <trkpt lat="38.1241017021238803863525390625" lon="-1.31339016370475292205810546875">
        <ele>120.59999847412109375</ele>
        <time>2020-02-22T08:23:55.000Z</time>
      </trkpt>
      <trkpt lat="38.124412335455417633056640625" lon="-1.3134661875665187835693359375">
        <ele>120.8000030517578125</ele>
        <time>2020-02-22T08:23:59.000Z</time>
      </trkpt>
      <trkpt lat="38.125024549663066864013671875" lon="-1.31358864717185497283935546875">
        <ele>120.8000030517578125</ele>
        <time>2020-02-22T08:24:06.000Z</time>
      </trkpt>
      <trkpt lat="38.1252086162567138671875" lon="-1.31361714564263820648193359375">
        <ele>120.40000152587890625</ele>
        <time>2020-02-22T08:24:08.000Z</time>
      </trkpt>
      <trkpt lat="38.12546300701797008514404296875" lon="-1.31365503184497356414794921875">
        <ele>119.8000030517578125</ele>
        <time>2020-02-22T08:24:11.000Z</time>
      </trkpt>
      <trkpt lat="38.12561991624534130096435546875" lon="-1.31367682479321956634521484375">
        <ele>119.8000030517578125</ele>
        <time>2020-02-22T08:24:13.000Z</time>
      </trkpt>
      <trkpt lat="38.12606030143797397613525390625" lon="-1.31368738599121570587158203125">
        <ele>119.8000030517578125</ele>
        <time>2020-02-22T08:24:19.000Z</time>
      </trkpt>
      <trkpt lat="38.1263400055468082427978515625" lon="-1.3136334903538227081298828125">
        <ele>121</ele>
        <time>2020-02-22T08:24:23.000Z</time>
      </trkpt>
      <trkpt lat="38.12641334719955921173095703125" lon="-1.31361731328070163726806640625">
        <ele>121.40000152587890625</ele>
        <time>2020-02-22T08:24:24.000Z</time>
      </trkpt>
      <trkpt lat="38.1264868564903736114501953125" lon="-1.3136009685695171356201171875">
        <ele>121.59999847412109375</ele>
        <time>2020-02-22T08:24:25.000Z</time>
      </trkpt>
      <trkpt lat="38.126698918640613555908203125" lon="-1.31355528719723224639892578125">
        <ele>122.59999847412109375</ele>
        <time>2020-02-22T08:24:28.000Z</time>
      </trkpt>
      <trkpt lat="38.12676404602825641632080078125" lon="-1.31354019977152347564697265625">
        <ele>123</ele>
        <time>2020-02-22T08:24:29.000Z</time>
      </trkpt>
      <trkpt lat="38.12687820754945278167724609375" lon="-1.31351555697619915008544921875">
        <ele>123.59999847412109375</ele>
        <time>2020-02-22T08:24:31.000Z</time>
      </trkpt>
      <trkpt lat="38.1270232982933521270751953125" lon="-1.31348655559122562408447265625">
        <ele>124.40000152587890625</ele>
        <time>2020-02-22T08:24:34.000Z</time>
      </trkpt>
      <trkpt lat="38.1271121464669704437255859375" lon="-1.3134601525962352752685546875">
        <ele>125.40000152587890625</ele>
        <time>2020-02-22T08:24:36.000Z</time>
      </trkpt>
      <trkpt lat="38.127156235277652740478515625" lon="-1.31344598717987537384033203125">
        <ele>125.59999847412109375</ele>
        <time>2020-02-22T08:24:37.000Z</time>
      </trkpt>
      <trkpt lat="38.1273005716502666473388671875" lon="-1.3134174048900604248046875">
        <ele>127</ele>
        <time>2020-02-22T08:24:40.000Z</time>
      </trkpt>
      <trkpt lat="38.12740040011703968048095703125" lon="-1.31340173073112964630126953125">
        <ele>128</ele>
        <time>2020-02-22T08:24:42.000Z</time>
      </trkpt>
      <trkpt lat="38.12749293632805347442626953125" lon="-1.31338178180158138275146484375">
        <ele>128.399993896484375</ele>
        <time>2020-02-22T08:24:44.000Z</time>
      </trkpt>
      <trkpt lat="38.12763526104390621185302734375" lon="-1.3133719749748706817626953125">
        <ele>129.1999969482421875</ele>
        <time>2020-02-22T08:24:47.000Z</time>
      </trkpt>
      <trkpt lat="38.1277280487120151519775390625" lon="-1.31338781677186489105224609375">
        <ele>129.600006103515625</ele>
        <time>2020-02-22T08:24:49.000Z</time>
      </trkpt>
      <trkpt lat="38.12777574174106121063232421875" lon="-1.31340332329273223876953125">
        <ele>129.8000030517578125</ele>
        <time>2020-02-22T08:24:50.000Z</time>
      </trkpt>
      <trkpt lat="38.1279243528842926025390625" lon="-1.31347163580358028411865234375">
        <ele>130.399993896484375</ele>
        <time>2020-02-22T08:24:53.000Z</time>
      </trkpt>
      <trkpt lat="38.12807179056107997894287109375" lon="-1.3135838694870471954345703125">
        <ele>131.1999969482421875</ele>
        <time>2020-02-22T08:24:56.000Z</time>
      </trkpt>
      <trkpt lat="38.12812292017042636871337890625" lon="-1.31362586282193660736083984375">
        <ele>131.399993896484375</ele>
        <time>2020-02-22T08:24:57.000Z</time>
      </trkpt>
      <trkpt lat="38.1283530034124851226806640625" lon="-1.31381244398653507232666015625">
        <ele>132.600006103515625</ele>
        <time>2020-02-22T08:25:02.000Z</time>
      </trkpt>
      <trkpt lat="38.1284757144749164581298828125" lon="-1.31391939707100391387939453125">
        <ele>133.600006103515625</ele>
        <time>2020-02-22T08:25:05.000Z</time>
      </trkpt>
      <trkpt lat="38.12851703725755214691162109375" lon="-1.3139565289020538330078125">
        <ele>133.8000030517578125</ele>
        <time>2020-02-22T08:25:06.000Z</time>
      </trkpt>
      <trkpt lat="38.1286876089870929718017578125" lon="-1.3141296990215778350830078125">
        <ele>134.8000030517578125</ele>
        <time>2020-02-22T08:25:10.000Z</time>
      </trkpt>
      <trkpt lat="38.1287576816976070404052734375" lon="-1.31423891521990299224853515625">
        <ele>135.1999969482421875</ele>
        <time>2020-02-22T08:25:12.000Z</time>
      </trkpt>
      <trkpt lat="38.128882907330989837646484375" lon="-1.314610652625560760498046875">
        <ele>135.1999969482421875</ele>
        <time>2020-02-22T08:25:17.000Z</time>
      </trkpt>
      <trkpt lat="38.12893646769225597381591796875" lon="-1.315026395022869110107421875">
        <ele>135</ele>
        <time>2020-02-22T08:25:21.000Z</time>
      </trkpt>
      <trkpt lat="38.128951303660869598388671875" lon="-1.31513737142086029052734375">
        <ele>134.600006103515625</ele>
        <time>2020-02-22T08:25:22.000Z</time>
      </trkpt>
      <trkpt lat="38.1289851665496826171875" lon="-1.3153685443103313446044921875">
        <ele>134.1999969482421875</ele>
        <time>2020-02-22T08:25:24.000Z</time>
      </trkpt>
      <trkpt lat="38.12903151847422122955322265625" lon="-1.31560516543686389923095703125">
        <ele>133.399993896484375</ele>
        <time>2020-02-22T08:25:26.000Z</time>
      </trkpt>
      <trkpt lat="38.12908801250159740447998046875" lon="-1.31584547460079193115234375">
        <ele>132.399993896484375</ele>
        <time>2020-02-22T08:25:28.000Z</time>
      </trkpt>
      <trkpt lat="38.1291137449443340301513671875" lon="-1.3159707002341747283935546875">
        <ele>132</ele>
        <time>2020-02-22T08:25:29.000Z</time>
      </trkpt>
      <trkpt lat="38.12917719595134258270263671875" lon="-1.31622894667088985443115234375">
        <ele>130.600006103515625</ele>
        <time>2020-02-22T08:25:31.000Z</time>
      </trkpt>
      <trkpt lat="38.1292730011045932769775390625" lon="-1.3164786435663700103759765625">
        <ele>129</ele>
        <time>2020-02-22T08:25:33.000Z</time>
      </trkpt>
      <trkpt lat="38.12933611683547496795654296875" lon="-1.31659540347754955291748046875">
        <ele>127.40000152587890625</ele>
        <time>2020-02-22T08:25:34.000Z</time>
      </trkpt>
      <trkpt lat="38.12948280014097690582275390625" lon="-1.31682540290057659149169921875">
        <ele>126</ele>
        <time>2020-02-22T08:25:36.000Z</time>
      </trkpt>
      <trkpt lat="38.12956997193396091461181640625" lon="-1.3169337809085845947265625">
        <ele>125.40000152587890625</ele>
        <time>2020-02-22T08:25:37.000Z</time>
      </trkpt>
      <trkpt lat="38.1296597421169281005859375" lon="-1.31703813560307025909423828125">
        <ele>124.59999847412109375</ele>
        <time>2020-02-22T08:25:38.000Z</time>
      </trkpt>
      <trkpt lat="38.12985260970890522003173828125" lon="-1.31723343394696712493896484375">
        <ele>123</ele>
        <time>2020-02-22T08:25:40.000Z</time>
      </trkpt>
      <trkpt lat="38.1300598941743373870849609375" lon="-1.3174174167215824127197265625">
        <ele>121.8000030517578125</ele>
        <time>2020-02-22T08:25:42.000Z</time>
      </trkpt>
      <trkpt lat="38.13026114366948604583740234375" lon="-1.3176016509532928466796875">
        <ele>120.1999969482421875</ele>
        <time>2020-02-22T08:25:44.000Z</time>
      </trkpt>
      <trkpt lat="38.130431212484836578369140625" lon="-1.3177999667823314666748046875">
        <ele>118.8000030517578125</ele>
        <time>2020-02-22T08:25:46.000Z</time>
      </trkpt>
      <trkpt lat="38.13049399293959140777587890625" lon="-1.3179025612771511077880859375">
        <ele>118.1999969482421875</ele>
        <time>2020-02-22T08:25:47.000Z</time>
      </trkpt>
      <trkpt lat="38.1305594556033611297607421875" lon="-1.31801026873290538787841796875">
        <ele>117.59999847412109375</ele>
        <time>2020-02-22T08:25:48.000Z</time>
      </trkpt>
      <trkpt lat="38.1306747905910015106201171875" lon="-1.318226270377635955810546875">
        <ele>116.8000030517578125</ele>
        <time>2020-02-22T08:25:50.000Z</time>
      </trkpt>
      <trkpt lat="38.13072181306779384613037109375" lon="-1.31833330728113651275634765625">
        <ele>116.59999847412109375</ele>
        <time>2020-02-22T08:25:51.000Z</time>
      </trkpt>
      <trkpt lat="38.13076053746044635772705078125" lon="-1.31844143383204936981201171875">
        <ele>116.40000152587890625</ele>
        <time>2020-02-22T08:25:52.000Z</time>
      </trkpt>
      <trkpt lat="38.13088190741837024688720703125" lon="-1.31884275935590267181396484375">
        <ele>116.1999969482421875</ele>
        <time>2020-02-22T08:25:56.000Z</time>
      </trkpt>
      <trkpt lat="38.13089112751185894012451171875" lon="-1.3189362175762653350830078125">
        <ele>116.1999969482421875</ele>
        <time>2020-02-22T08:25:57.000Z</time>
      </trkpt>
      <trkpt lat="38.13089883886277675628662109375" lon="-1.31910846568644046783447265625">
        <ele>116.1999969482421875</ele>
        <time>2020-02-22T08:25:59.000Z</time>
      </trkpt>
      <trkpt lat="38.130921386182308197021484375" lon="-1.3194257207214832305908203125">
        <ele>116.40000152587890625</ele>
        <time>2020-02-22T08:26:03.000Z</time>
      </trkpt>
      <trkpt lat="38.1309902854263782501220703125" lon="-1.31975077092647552490234375">
        <ele>117.40000152587890625</ele>
        <time>2020-02-22T08:26:08.000Z</time>
      </trkpt>
      <trkpt lat="38.13101333566009998321533203125" lon="-1.31980701349675655364990234375">
        <ele>117.8000030517578125</ele>
        <time>2020-02-22T08:26:09.000Z</time>
      </trkpt>
      <trkpt lat="38.1310704164206981658935546875" lon="-1.31991027854382991790771484375">
        <ele>118.59999847412109375</ele>
        <time>2020-02-22T08:26:11.000Z</time>
      </trkpt>
      <trkpt lat="38.1311233900487422943115234375" lon="-1.320019327104091644287109375">
        <ele>119</ele>
        <time>2020-02-22T08:26:13.000Z</time>
      </trkpt>
      <trkpt lat="38.13118851743638515472412109375" lon="-1.3201247714459896087646484375">
        <ele>119.40000152587890625</ele>
        <time>2020-02-22T08:26:15.000Z</time>
      </trkpt>
      <trkpt lat="38.131260685622692108154296875" lon="-1.32021219469606876373291015625">
        <ele>119.8000030517578125</ele>
        <time>2020-02-22T08:26:17.000Z</time>
      </trkpt>
      <trkpt lat="38.13129781745374202728271484375" lon="-1.32025343365967273712158203125">
        <ele>120.1999969482421875</ele>
        <time>2020-02-22T08:26:18.000Z</time>
      </trkpt>
      <trkpt lat="38.1313718296587467193603515625" lon="-1.3203329779207706451416015625">
        <ele>120.59999847412109375</ele>
        <time>2020-02-22T08:26:20.000Z</time>
      </trkpt>
      <trkpt lat="38.1314395554363727569580078125" lon="-1.32041729986667633056640625">
        <ele>120.8000030517578125</ele>
        <time>2020-02-22T08:26:22.000Z</time>
      </trkpt>
      <trkpt lat="38.1314975582063198089599609375" lon="-1.32049868814647197723388671875">
        <ele>121.1999969482421875</ele>
        <time>2020-02-22T08:26:24.000Z</time>
      </trkpt>
      <trkpt lat="38.13152094371616840362548828125" lon="-1.32053774781525135040283203125">
        <ele>121.8000030517578125</ele>
        <time>2020-02-22T08:26:25.000Z</time>
      </trkpt>
      <trkpt lat="38.13154055736958980560302734375" lon="-1.32057487964630126953125">
        <ele>122.1999969482421875</ele>
        <time>2020-02-22T08:26:26.000Z</time>
      </trkpt>
      <trkpt lat="38.1315666250884532928466796875" lon="-1.32064889185130596160888671875">
        <ele>123.1999969482421875</ele>
        <time>2020-02-22T08:26:28.000Z</time>
      </trkpt>
      <trkpt lat="38.13157995231449604034423828125" lon="-1.32069247774779796600341796875">
        <ele>123.59999847412109375</ele>
        <time>2020-02-22T08:26:29.000Z</time>
      </trkpt>
      <trkpt lat="38.1315887533128261566162109375" lon="-1.32078903727233409881591796875">
        <ele>124.8000030517578125</ele>
        <time>2020-02-22T08:26:31.000Z</time>
      </trkpt>
      <trkpt lat="38.13158146105706691741943359375" lon="-1.3208436034619808197021484375">
        <ele>125.1999969482421875</ele>
        <time>2020-02-22T08:26:32.000Z</time>
      </trkpt>
      <trkpt lat="38.1315726600587368011474609375" lon="-1.3209445215761661529541015625">
        <ele>126</ele>
        <time>2020-02-22T08:26:34.000Z</time>
      </trkpt>
      <trkpt lat="38.13158883713185787200927734375" lon="-1.32109723985195159912109375">
        <ele>127.1999969482421875</ele>
        <time>2020-02-22T08:26:37.000Z</time>
      </trkpt>
      <trkpt lat="38.13160778023302555084228515625" lon="-1.3212092220783233642578125">
        <ele>128</ele>
        <time>2020-02-22T08:26:39.000Z</time>
      </trkpt>
      <trkpt lat="38.13162236474454402923583984375" lon="-1.32126831449568271636962890625">
        <ele>128.399993896484375</ele>
        <time>2020-02-22T08:26:40.000Z</time>
      </trkpt>
      <trkpt lat="38.1317054294049739837646484375" lon="-1.32150049321353435516357421875">
        <ele>129.600006103515625</ele>
        <time>2020-02-22T08:26:44.000Z</time>
      </trkpt>
      <trkpt lat="38.13175932504236698150634765625" lon="-1.32166050374507904052734375">
        <ele>130.1999969482421875</ele>
        <time>2020-02-22T08:26:47.000Z</time>
      </trkpt>
      <trkpt lat="38.131809532642364501953125" lon="-1.3218273036181926727294921875">
        <ele>130.8000030517578125</ele>
        <time>2020-02-22T08:26:50.000Z</time>
      </trkpt>
      <trkpt lat="38.131901063024997711181640625" lon="-1.32210147567093372344970703125">
        <ele>131.8000030517578125</ele>
        <time>2020-02-22T08:26:55.000Z</time>
      </trkpt>
      <trkpt lat="38.13191950321197509765625" lon="-1.32215377874672412872314453125">
        <ele>132.1999969482421875</ele>
        <time>2020-02-22T08:26:56.000Z</time>
      </trkpt>
      <trkpt lat="38.13194942660629749298095703125" lon="-1.322258971631526947021484375">
        <ele>132.8000030517578125</ele>
        <time>2020-02-22T08:26:58.000Z</time>
      </trkpt>
      <trkpt lat="38.1319770030677318572998046875" lon="-1.3223516754806041717529296875">
        <ele>134</ele>
        <time>2020-02-22T08:27:00.000Z</time>
      </trkpt>
      <trkpt lat="38.13199602998793125152587890625" lon="-1.322397105395793914794921875">
        <ele>134.1999969482421875</ele>
        <time>2020-02-22T08:27:01.000Z</time>
      </trkpt>
      <trkpt lat="38.1320308148860931396484375" lon="-1.3225025497376918792724609375">
        <ele>134.8000030517578125</ele>
        <time>2020-02-22T08:27:03.000Z</time>
      </trkpt>
      <trkpt lat="38.13205487094819545745849609375" lon="-1.3225583732128143310546875">
        <ele>135</ele>
        <time>2020-02-22T08:27:04.000Z</time>
      </trkpt>
      <trkpt lat="38.13218998722732067108154296875" lon="-1.3227744586765766143798828125">
        <ele>136.1999969482421875</ele>
        <time>2020-02-22T08:27:08.000Z</time>
      </trkpt>
      <trkpt lat="38.13249056227505207061767578125" lon="-1.32315407507121562957763671875">
        <ele>136.600006103515625</ele>
        <time>2020-02-22T08:27:16.000Z</time>
      </trkpt>
      <trkpt lat="38.132783509790897369384765625" lon="-1.3234782032668590545654296875">
        <ele>137.1999969482421875</ele>
        <time>2020-02-22T08:27:22.000Z</time>
      </trkpt>
      <trkpt lat="38.13283120281994342803955078125" lon="-1.32353461347520351409912109375">
        <ele>137.1999969482421875</ele>
        <time>2020-02-22T08:27:23.000Z</time>
      </trkpt>
      <trkpt lat="38.13292457722127437591552734375" lon="-1.32370811887085437774658203125">
        <ele>137.8000030517578125</ele>
        <time>2020-02-22T08:27:26.000Z</time>
      </trkpt>
      <trkpt lat="38.13295559026300907135009765625" lon="-1.32383200339972972869873046875">
        <ele>138.1999969482421875</ele>
        <time>2020-02-22T08:27:28.000Z</time>
      </trkpt>
      <trkpt lat="38.13299649395048618316650390625" lon="-1.3241494260728359222412109375">
        <ele>139</ele>
        <time>2020-02-22T08:27:33.000Z</time>
      </trkpt>
      <trkpt lat="38.1329935602843761444091796875" lon="-1.32422410883009433746337890625">
        <ele>139.1999969482421875</ele>
        <time>2020-02-22T08:27:34.000Z</time>
      </trkpt>
      <trkpt lat="38.1329908780753612518310546875" lon="-1.3243703730404376983642578125">
        <ele>140</ele>
        <time>2020-02-22T08:27:36.000Z</time>
      </trkpt>
      <trkpt lat="38.13298559747636318206787109375" lon="-1.3246719539165496826171875">
        <ele>141.1999969482421875</ele>
        <time>2020-02-22T08:27:40.000Z</time>
      </trkpt>
      <trkpt lat="38.132963217794895172119140625" lon="-1.32492349483072757720947265625">
        <ele>141.399993896484375</ele>
        <time>2020-02-22T08:27:43.000Z</time>
      </trkpt>
      <trkpt lat="38.13290228135883808135986328125" lon="-1.32557007484138011932373046875">
        <ele>141.8000030517578125</ele>
        <time>2020-02-22T08:27:50.000Z</time>
      </trkpt>
      <trkpt lat="38.1328537501394748687744140625" lon="-1.32630608975887298583984375">
        <ele>142.1999969482421875</ele>
        <time>2020-02-22T08:27:58.000Z</time>
      </trkpt>
      <trkpt lat="38.132844865322113037109375" lon="-1.326395608484745025634765625">
        <ele>142.1999969482421875</ele>
        <time>2020-02-22T08:27:59.000Z</time>
      </trkpt>
      <trkpt lat="38.13283405266702175140380859375" lon="-1.3265709578990936279296875">
        <ele>142.1999969482421875</ele>
        <time>2020-02-22T08:28:01.000Z</time>
      </trkpt>
      <trkpt lat="38.13286037184298038482666015625" lon="-1.32698728702962398529052734375">
        <ele>142.8000030517578125</ele>
        <time>2020-02-22T08:28:06.000Z</time>
      </trkpt>
      <trkpt lat="38.1328902952373027801513671875" lon="-1.32714486680924892425537109375">
        <ele>143.1999969482421875</ele>
        <time>2020-02-22T08:28:08.000Z</time>
      </trkpt>
      <trkpt lat="38.1329090707004070281982421875" lon="-1.32729842327535152435302734375">
        <ele>144.600006103515625</ele>
        <time>2020-02-22T08:28:10.000Z</time>
      </trkpt>
      <trkpt lat="38.13292290084064006805419921875" lon="-1.3274478726089000701904296875">
        <ele>145.399993896484375</ele>
        <time>2020-02-22T08:28:12.000Z</time>
      </trkpt>
      <trkpt lat="38.132918961346149444580078125" lon="-1.3275246508419513702392578125">
        <ele>146</ele>
        <time>2020-02-22T08:28:13.000Z</time>
      </trkpt>
      <trkpt lat="38.1328596174716949462890625" lon="-1.32774936966598033905029296875">
        <ele>147</ele>
        <time>2020-02-22T08:28:16.000Z</time>
      </trkpt>
      <trkpt lat="38.13282801769673824310302734375" lon="-1.3278227113187313079833984375">
        <ele>147.399993896484375</ele>
        <time>2020-02-22T08:28:17.000Z</time>
      </trkpt>
      <trkpt lat="38.1327937357127666473388671875" lon="-1.32789253257215023040771484375">
        <ele>147.8000030517578125</ele>
        <time>2020-02-22T08:28:18.000Z</time>
      </trkpt>
      <trkpt lat="38.1327105872333049774169921875" lon="-1.328033097088336944580078125">
        <ele>148</ele>
        <time>2020-02-22T08:28:20.000Z</time>
      </trkpt>
      <trkpt lat="38.13253079541027545928955078125" lon="-1.32832252420485019683837890625">
        <ele>148.399993896484375</ele>
        <time>2020-02-22T08:28:24.000Z</time>
      </trkpt>
      <trkpt lat="38.13237757422029972076416015625" lon="-1.3285236060619354248046875">
        <ele>148.399993896484375</ele>
        <time>2020-02-22T08:28:27.000Z</time>
      </trkpt>
      <trkpt lat="38.132312111556529998779296875" lon="-1.3285713829100131988525390625">
        <ele>148.399993896484375</ele>
        <time>2020-02-22T08:28:28.000Z</time>
      </trkpt>
      <trkpt lat="38.13206559978425502777099609375" lon="-1.32862293161451816558837890625">
        <ele>148.1999969482421875</ele>
        <time>2020-02-22T08:28:31.000Z</time>
      </trkpt>
      <trkpt lat="38.13187583349645137786865234375" lon="-1.32865612395107746124267578125">
        <ele>148</ele>
        <time>2020-02-22T08:28:33.000Z</time>
      </trkpt>
      <trkpt lat="38.131680786609649658203125" lon="-1.32873390801250934600830078125">
        <ele>147.600006103515625</ele>
        <time>2020-02-22T08:28:35.000Z</time>
      </trkpt>
      <trkpt lat="38.13147685490548610687255859375" lon="-1.328821666538715362548828125">
        <ele>146.8000030517578125</ele>
        <time>2020-02-22T08:28:37.000Z</time>
      </trkpt>
      <trkpt lat="38.13127107918262481689453125" lon="-1.328929960727691650390625">
        <ele>145.399993896484375</ele>
        <time>2020-02-22T08:28:39.000Z</time>
      </trkpt>
      <trkpt lat="38.13117720186710357666015625" lon="-1.3290062360465526580810546875">
        <ele>144.600006103515625</ele>
        <time>2020-02-22T08:28:40.000Z</time>
      </trkpt>
      <trkpt lat="38.1310905329883098602294921875" lon="-1.32909064181149005889892578125">
        <ele>144</ele>
        <time>2020-02-22T08:28:41.000Z</time>
      </trkpt>
      <trkpt lat="38.1310104019939899444580078125" lon="-1.32917563430964946746826171875">
        <ele>143</ele>
        <time>2020-02-22T08:28:42.000Z</time>
      </trkpt>
      <trkpt lat="38.1308682449162006378173828125" lon="-1.329348050057888031005859375">
        <ele>141.399993896484375</ele>
        <time>2020-02-22T08:28:44.000Z</time>
      </trkpt>
      <trkpt lat="38.13081233762204647064208984375" lon="-1.32944938726723194122314453125">
        <ele>140.8000030517578125</ele>
        <time>2020-02-22T08:28:45.000Z</time>
      </trkpt>
      <trkpt lat="38.1307743676006793975830078125" lon="-1.32956522516906261444091796875">
        <ele>139.8000030517578125</ele>
        <time>2020-02-22T08:28:46.000Z</time>
      </trkpt>
      <trkpt lat="38.130747713148593902587890625" lon="-1.3296922110021114349365234375">
        <ele>139</ele>
        <time>2020-02-22T08:28:47.000Z</time>
      </trkpt>
      <trkpt lat="38.13072256743907928466796875" lon="-1.32982472889125347137451171875">
        <ele>138.1999969482421875</ele>
        <time>2020-02-22T08:28:48.000Z</time>
      </trkpt>
      <trkpt lat="38.1306674145162105560302734375" lon="-1.3300992362201213836669921875">
        <ele>137</ele>
        <time>2020-02-22T08:28:50.000Z</time>
      </trkpt>
      <trkpt lat="38.13059792853891849517822265625" lon="-1.33039754815399646759033203125">
        <ele>135.8000030517578125</ele>
        <time>2020-02-22T08:28:52.000Z</time>
      </trkpt>
      <trkpt lat="38.13058099709451198577880859375" lon="-1.33055646903812885284423828125">
        <ele>135.399993896484375</ele>
        <time>2020-02-22T08:28:53.000Z</time>
      </trkpt>
      <trkpt lat="38.13058837316930294036865234375" lon="-1.3307174853980541229248046875">
        <ele>134.8000030517578125</ele>
        <time>2020-02-22T08:28:54.000Z</time>
      </trkpt>
      <trkpt lat="38.13064553774893283843994140625" lon="-1.3310272805392742156982421875">
        <ele>133</ele>
        <time>2020-02-22T08:28:56.000Z</time>
      </trkpt>
      <trkpt lat="38.13068292103707790374755859375" lon="-1.3311754725873470306396484375">
        <ele>132.399993896484375</ele>
        <time>2020-02-22T08:28:57.000Z</time>
      </trkpt>
      <trkpt lat="38.130724243819713592529296875" lon="-1.33132182061672210693359375">
        <ele>130.8000030517578125</ele>
        <time>2020-02-22T08:28:58.000Z</time>
      </trkpt>
      <trkpt lat="38.13082189299166202545166015625" lon="-1.3316108286380767822265625">
        <ele>129.1999969482421875</ele>
        <time>2020-02-22T08:29:00.000Z</time>
      </trkpt>
      <trkpt lat="38.13098215498030185699462890625" lon="-1.33186605758965015411376953125">
        <ele>127.40000152587890625</ele>
        <time>2020-02-22T08:29:02.000Z</time>
      </trkpt>
      <trkpt lat="38.13117594458162784576416015625" lon="-1.3321011699736118316650390625">
        <ele>127</ele>
        <time>2020-02-22T08:29:04.000Z</time>
      </trkpt>
      <trkpt lat="38.1313758529722690582275390625" lon="-1.33233695290982723236083984375">
        <ele>126.59999847412109375</ele>
        <time>2020-02-22T08:29:06.000Z</time>
      </trkpt>
      <trkpt lat="38.1314794532954692840576171875" lon="-1.3324582390487194061279296875">
        <ele>126.40000152587890625</ele>
        <time>2020-02-22T08:29:07.000Z</time>
      </trkpt>
      <trkpt lat="38.13178480602800846099853515625" lon="-1.33281648159027099609375">
        <ele>125.8000030517578125</ele>
        <time>2020-02-22T08:29:10.000Z</time>
      </trkpt>
      <trkpt lat="38.13188069500029087066650390625" lon="-1.3329336605966091156005859375">
        <ele>124.8000030517578125</ele>
        <time>2020-02-22T08:29:11.000Z</time>
      </trkpt>
      <trkpt lat="38.13206727616488933563232421875" lon="-1.33316240273416042327880859375">
        <ele>123.1999969482421875</ele>
        <time>2020-02-22T08:29:13.000Z</time>
      </trkpt>
      <trkpt lat="38.1321573816239833831787109375" lon="-1.3332719542086124420166015625">
        <ele>122.40000152587890625</ele>
        <time>2020-02-22T08:29:14.000Z</time>
      </trkpt>
      <trkpt lat="38.13224212266504764556884765625" lon="-1.33337697945535182952880859375">
        <ele>121.8000030517578125</ele>
        <time>2020-02-22T08:29:15.000Z</time>
      </trkpt>
      <trkpt lat="38.13241361640393733978271484375" lon="-1.33358535356819629669189453125">
        <ele>121.40000152587890625</ele>
        <time>2020-02-22T08:29:17.000Z</time>
      </trkpt>
      <trkpt lat="38.13256926834583282470703125" lon="-1.33380244486033916473388671875">
        <ele>121.1999969482421875</ele>
        <time>2020-02-22T08:29:19.000Z</time>
      </trkpt>
      <trkpt lat="38.1326341442763805389404296875" lon="-1.3339180313050746917724609375">
        <ele>121.1999969482421875</ele>
        <time>2020-02-22T08:29:20.000Z</time>
      </trkpt>
      <trkpt lat="38.132776804268360137939453125" lon="-1.33430116809904575347900390625">
        <ele>121.1999969482421875</ele>
        <time>2020-02-22T08:29:23.000Z</time>
      </trkpt>
      <trkpt lat="38.13281443901360034942626953125" lon="-1.33442739956080913543701171875">
        <ele>121.1999969482421875</ele>
        <time>2020-02-22T08:29:24.000Z</time>
      </trkpt>
      <trkpt lat="38.1329603679478168487548828125" lon="-1.33486812002956867218017578125">
        <ele>121.59999847412109375</ele>
        <time>2020-02-22T08:29:28.000Z</time>
      </trkpt>
      <trkpt lat="38.13304477371275424957275390625" lon="-1.33502419106662273406982421875">
        <ele>122.40000152587890625</ele>
        <time>2020-02-22T08:29:30.000Z</time>
      </trkpt>
      <trkpt lat="38.13311065547168254852294921875" lon="-1.33507230319082736968994140625">
        <ele>122.40000152587890625</ele>
        <time>2020-02-22T08:29:31.000Z</time>
      </trkpt>
      <trkpt lat="38.133294470608234405517578125" lon="-1.33506350219249725341796875">
        <ele>122.59999847412109375</ele>
        <time>2020-02-22T08:29:33.000Z</time>
      </trkpt>
      <trkpt lat="38.133472502231597900390625" lon="-1.33500793017446994781494140625">
        <ele>122.59999847412109375</ele>
        <time>2020-02-22T08:29:35.000Z</time>
      </trkpt>
      <trkpt lat="38.13373125158250331878662109375" lon="-1.3349647633731365203857421875">
        <ele>122.59999847412109375</ele>
        <time>2020-02-22T08:29:38.000Z</time>
      </trkpt>
      <trkpt lat="38.13381674699485301971435546875" lon="-1.3349681161344051361083984375">
        <ele>122.59999847412109375</ele>
        <time>2020-02-22T08:29:39.000Z</time>
      </trkpt>
      <trkpt lat="38.1340532004833221435546875" lon="-1.335062496364116668701171875">
        <ele>122.1999969482421875</ele>
        <time>2020-02-22T08:29:42.000Z</time>
      </trkpt>
      <trkpt lat="38.13412503339350223541259765625" lon="-1.33511672727763652801513671875">
        <ele>122</ele>
        <time>2020-02-22T08:29:43.000Z</time>
      </trkpt>
      <trkpt lat="38.1344342418015003204345703125" lon="-1.3353687711060047149658203125">
        <ele>121.8000030517578125</ele>
        <time>2020-02-22T08:29:47.000Z</time>
      </trkpt>
      <trkpt lat="38.13467438332736492156982421875" lon="-1.33557789959013462066650390625">
        <ele>121.59999847412109375</ele>
        <time>2020-02-22T08:29:50.000Z</time>
      </trkpt>
      <trkpt lat="38.1349344737827777862548828125" lon="-1.335775963962078094482421875">
        <ele>121</ele>
        <time>2020-02-22T08:29:53.000Z</time>
      </trkpt>
      <trkpt lat="38.1350129283964633941650390625" lon="-1.33585341274738311767578125">
        <ele>120.40000152587890625</ele>
        <time>2020-02-22T08:29:54.000Z</time>
      </trkpt>
      <trkpt lat="38.13507554121315479278564453125" lon="-1.33594033308327198028564453125">
        <ele>120</ele>
        <time>2020-02-22T08:29:55.000Z</time>
      </trkpt>
      <trkpt lat="38.13516438938677310943603515625" lon="-1.33614401333034038543701171875">
        <ele>118.8000030517578125</ele>
        <time>2020-02-22T08:29:57.000Z</time>
      </trkpt>
      <trkpt lat="38.13524502329528331756591796875" lon="-1.3363591767847537994384765625">
        <ele>117.40000152587890625</ele>
        <time>2020-02-22T08:29:59.000Z</time>
      </trkpt>
      <trkpt lat="38.1353347934782505035400390625" lon="-1.33656126447021961212158203125">
        <ele>117.1999969482421875</ele>
        <time>2020-02-22T08:30:01.000Z</time>
      </trkpt>
      <trkpt lat="38.13539388589560985565185546875" lon="-1.3366520404815673828125">
        <ele>117.1999969482421875</ele>
        <time>2020-02-22T08:30:02.000Z</time>
      </trkpt>
      <trkpt lat="38.13566914759576320648193359375" lon="-1.33696309290826320648193359375">
        <ele>117</ele>
        <time>2020-02-22T08:30:06.000Z</time>
      </trkpt>
      <trkpt lat="38.1358665414154529571533203125" lon="-1.33721522055566310882568359375">
        <ele>116.40000152587890625</ele>
        <time>2020-02-22T08:30:09.000Z</time>
      </trkpt>
      <trkpt lat="38.135959915816783905029296875" lon="-1.337413452565670013427734375">
        <ele>116.40000152587890625</ele>
        <time>2020-02-22T08:30:11.000Z</time>
      </trkpt>
      <trkpt lat="38.13612042926251888275146484375" lon="-1.33778166957199573516845703125">
        <ele>116.1999969482421875</ele>
        <time>2020-02-22T08:30:15.000Z</time>
      </trkpt>
      <trkpt lat="38.13616803847253322601318359375" lon="-1.33784889243543148040771484375">
        <ele>116</ele>
        <time>2020-02-22T08:30:16.000Z</time>
      </trkpt>
      <trkpt lat="38.1363748200237751007080078125" lon="-1.3379118405282497406005859375">
        <ele>116</ele>
        <time>2020-02-22T08:30:19.000Z</time>
      </trkpt>
      <trkpt lat="38.13656467013061046600341796875" lon="-1.3377958349883556365966796875">
        <ele>115.8000030517578125</ele>
        <time>2020-02-22T08:30:22.000Z</time>
      </trkpt>
      <trkpt lat="38.136672042310237884521484375" lon="-1.3375383429229259490966796875">
        <ele>115.8000030517578125</ele>
        <time>2020-02-22T08:30:25.000Z</time>
      </trkpt>
      <trkpt lat="38.1367838568985462188720703125" lon="-1.33730272762477397918701171875">
        <ele>116</ele>
        <time>2020-02-22T08:30:28.000Z</time>
      </trkpt>
      <trkpt lat="38.1368415243923664093017578125" lon="-1.33724506013095378875732421875">
        <ele>116</ele>
        <time>2020-02-22T08:30:29.000Z</time>
      </trkpt>
      <trkpt lat="38.137077726423740386962890625" lon="-1.3372429646551609039306640625">
        <ele>116.40000152587890625</ele>
        <time>2020-02-22T08:30:32.000Z</time>
      </trkpt>
      <trkpt lat="38.13727361150085926055908203125" lon="-1.33745192550122737884521484375">
        <ele>116.8000030517578125</ele>
        <time>2020-02-22T08:30:35.000Z</time>
      </trkpt>
      <trkpt lat="38.13744124956429004669189453125" lon="-1.3376751355826854705810546875">
        <ele>117.1999969482421875</ele>
        <time>2020-02-22T08:30:38.000Z</time>
      </trkpt>
      <trkpt lat="38.1374926306307315826416015625" lon="-1.337742023169994354248046875">
        <ele>117.40000152587890625</ele>
        <time>2020-02-22T08:30:39.000Z</time>
      </trkpt>
      <trkpt lat="38.13760302029550075531005859375" lon="-1.33786045946180820465087890625">
        <ele>117.59999847412109375</ele>
        <time>2020-02-22T08:30:41.000Z</time>
      </trkpt>
      <trkpt lat="38.13766471110284328460693359375" lon="-1.33791066706180572509765625">
        <ele>117.59999847412109375</ele>
        <time>2020-02-22T08:30:42.000Z</time>
      </trkpt>
      <trkpt lat="38.1378798745572566986083984375" lon="-1.33803044445812702178955078125">
        <ele>117.8000030517578125</ele>
        <time>2020-02-22T08:30:45.000Z</time>
      </trkpt>
      <trkpt lat="38.13795237801969051361083984375" lon="-1.33807696402072906494140625">
        <ele>118</ele>
        <time>2020-02-22T08:30:46.000Z</time>
      </trkpt>
      <trkpt lat="38.13815019093453884124755859375" lon="-1.3382638804614543914794921875">
        <ele>118.40000152587890625</ele>
        <time>2020-02-22T08:30:49.000Z</time>
      </trkpt>
      <trkpt lat="38.13821607269346714019775390625" lon="-1.33832448162138462066650390625">
        <ele>118.40000152587890625</ele>
        <time>2020-02-22T08:30:50.000Z</time>
      </trkpt>
      <trkpt lat="38.13842729665338993072509765625" lon="-1.33848088793456554412841796875">
        <ele>118.59999847412109375</ele>
        <time>2020-02-22T08:30:53.000Z</time>
      </trkpt>
      <trkpt lat="38.1388273648917675018310546875" lon="-1.33869253098964691162109375">
        <ele>118.59999847412109375</ele>
        <time>2020-02-22T08:30:58.000Z</time>
      </trkpt>
      <trkpt lat="38.13925023190677165985107421875" lon="-1.3388231210410594940185546875">
        <ele>118.1999969482421875</ele>
        <time>2020-02-22T08:31:03.000Z</time>
      </trkpt>
      <trkpt lat="38.13933405093848705291748046875" lon="-1.3388526253402233123779296875">
        <ele>118</ele>
        <time>2020-02-22T08:31:04.000Z</time>
      </trkpt>
      <trkpt lat="38.13957519829273223876953125" lon="-1.33894692175090312957763671875">
        <ele>118</ele>
        <time>2020-02-22T08:31:07.000Z</time>
      </trkpt>
      <trkpt lat="38.1397302635014057159423828125" lon="-1.33901850320398807525634765625">
        <ele>118</ele>
        <time>2020-02-22T08:31:09.000Z</time>
      </trkpt>
      <trkpt lat="38.13987736590206623077392578125" lon="-1.339102573692798614501953125">
        <ele>118</ele>
        <time>2020-02-22T08:31:11.000Z</time>
      </trkpt>
      <trkpt lat="38.13994961790740489959716796875" lon="-1.33915613405406475067138671875">
        <ele>118</ele>
        <time>2020-02-22T08:31:12.000Z</time>
      </trkpt>
      <trkpt lat="38.140087835490703582763671875" lon="-1.33929074741899967193603515625">
        <ele>118</ele>
        <time>2020-02-22T08:31:14.000Z</time>
      </trkpt>
      <trkpt lat="38.14015380106866359710693359375" lon="-1.3393716327846050262451171875">
        <ele>118</ele>
        <time>2020-02-22T08:31:15.000Z</time>
      </trkpt>
      <trkpt lat="38.1404598243534564971923828125" lon="-1.33985459804534912109375">
        <ele>117.8000030517578125</ele>
        <time>2020-02-22T08:31:21.000Z</time>
      </trkpt>
      <trkpt lat="38.1405805237591266632080078125" lon="-1.34027511812746524810791015625">
        <ele>117.1999969482421875</ele>
        <time>2020-02-22T08:31:25.000Z</time>
      </trkpt>
      <trkpt lat="38.140616230666637420654296875" lon="-1.34038768708705902099609375">
        <ele>117</ele>
        <time>2020-02-22T08:31:26.000Z</time>
      </trkpt>
      <trkpt lat="38.1406889855861663818359375" lon="-1.34060754440724849700927734375">
        <ele>115.59999847412109375</ele>
        <time>2020-02-22T08:31:28.000Z</time>
      </trkpt>
      <trkpt lat="38.140847571194171905517578125" lon="-1.34097182191908359527587890625">
        <ele>114.8000030517578125</ele>
        <time>2020-02-22T08:31:32.000Z</time>
      </trkpt>
      <trkpt lat="38.14110212959349155426025390625" lon="-1.34144640527665615081787109375">
        <ele>114.8000030517578125</ele>
        <time>2020-02-22T08:31:39.000Z</time>
      </trkpt>
      <trkpt lat="38.14112543128430843353271484375" lon="-1.34151061065495014190673828125">
        <ele>115</ele>
        <time>2020-02-22T08:31:40.000Z</time>
      </trkpt>
      <trkpt lat="38.1412044726312160491943359375" lon="-1.34175435639917850494384765625">
        <ele>116.8000030517578125</ele>
        <time>2020-02-22T08:31:44.000Z</time>
      </trkpt>
      <trkpt lat="38.14122634939849376678466796875" lon="-1.34181328117847442626953125">
        <ele>117.40000152587890625</ele>
        <time>2020-02-22T08:31:45.000Z</time>
      </trkpt>
      <trkpt lat="38.1412504054605960845947265625" lon="-1.34187069721519947052001953125">
        <ele>117.8000030517578125</ele>
        <time>2020-02-22T08:31:46.000Z</time>
      </trkpt>
      <trkpt lat="38.1412832625210285186767578125" lon="-1.341987960040569305419921875">
        <ele>118.8000030517578125</ele>
        <time>2020-02-22T08:31:48.000Z</time>
      </trkpt>
      <trkpt lat="38.141293823719024658203125" lon="-1.34205275215208530426025390625">
        <ele>119.1999969482421875</ele>
        <time>2020-02-22T08:31:49.000Z</time>
      </trkpt>
      <trkpt lat="38.1413278542459011077880859375" lon="-1.34219205938279628753662109375">
        <ele>119.8000030517578125</ele>
        <time>2020-02-22T08:31:51.000Z</time>
      </trkpt>
      <trkpt lat="38.14134252257645130157470703125" lon="-1.34225576184689998626708984375">
        <ele>120.1999969482421875</ele>
        <time>2020-02-22T08:31:52.000Z</time>
      </trkpt>
      <trkpt lat="38.14137923531234264373779296875" lon="-1.34238651953637599945068359375">
        <ele>121.40000152587890625</ele>
        <time>2020-02-22T08:31:54.000Z</time>
      </trkpt>
      <trkpt lat="38.141421563923358917236328125" lon="-1.3424353860318660736083984375">
        <ele>121.8000030517578125</ele>
        <time>2020-02-22T08:31:55.000Z</time>
      </trkpt>
      <trkpt lat="38.14146347343921661376953125" lon="-1.34248316287994384765625">
        <ele>122.1999969482421875</ele>
        <time>2020-02-22T08:31:56.000Z</time>
      </trkpt>
      <trkpt lat="38.141654916107654571533203125" lon="-1.34259405545890331268310546875">
        <ele>122.40000152587890625</ele>
        <time>2020-02-22T08:31:59.000Z</time>
      </trkpt>
      <trkpt lat="38.1418230570852756500244140625" lon="-1.3426194526255130767822265625">
        <ele>122.40000152587890625</ele>
        <time>2020-02-22T08:32:01.000Z</time>
      </trkpt>
      <trkpt lat="38.14199991524219512939453125" lon="-1.342663206160068511962890625">
        <ele>122.40000152587890625</ele>
        <time>2020-02-22T08:32:03.000Z</time>
      </trkpt>
      <trkpt lat="38.14221390523016452789306640625" lon="-1.34288976900279521942138671875">
        <ele>122</ele>
        <time>2020-02-22T08:32:06.000Z</time>
      </trkpt>
      <trkpt lat="38.1422927789390087127685546875" lon="-1.34296403266489505767822265625">
        <ele>121.59999847412109375</ele>
        <time>2020-02-22T08:32:07.000Z</time>
      </trkpt>
      <trkpt lat="38.14238439314067363739013671875" lon="-1.34301851503551006317138671875">
        <ele>121.1999969482421875</ele>
        <time>2020-02-22T08:32:08.000Z</time>
      </trkpt>
      <trkpt lat="38.1424753367900848388671875" lon="-1.343059502542018890380859375">
        <ele>120.59999847412109375</ele>
        <time>2020-02-22T08:32:09.000Z</time>
      </trkpt>
      <trkpt lat="38.142562843859195709228515625" lon="-1.34308724664151668548583984375">
        <ele>119.40000152587890625</ele>
        <time>2020-02-22T08:32:10.000Z</time>
      </trkpt>
      <trkpt lat="38.14273274503648281097412109375" lon="-1.34308557026088237762451171875">
        <ele>118</ele>
        <time>2020-02-22T08:32:12.000Z</time>
      </trkpt>
      <trkpt lat="38.14289602451026439666748046875" lon="-1.34302874095737934112548828125">
        <ele>116.40000152587890625</ele>
        <time>2020-02-22T08:32:14.000Z</time>
      </trkpt>
      <trkpt lat="38.14307053573429584503173828125" lon="-1.3429926149547100067138671875">
        <ele>115.59999847412109375</ele>
        <time>2020-02-22T08:32:16.000Z</time>
      </trkpt>
      <trkpt lat="38.14324655570089817047119140625" lon="-1.3429567404091358184814453125">
        <ele>115.40000152587890625</ele>
        <time>2020-02-22T08:32:18.000Z</time>
      </trkpt>
      <trkpt lat="38.1433336436748504638671875" lon="-1.34292648173868656158447265625">
        <ele>115.1999969482421875</ele>
        <time>2020-02-22T08:32:19.000Z</time>
      </trkpt>
      <trkpt lat="38.1434974260628223419189453125" lon="-1.34285775013267993927001953125">
        <ele>115.1999969482421875</ele>
        <time>2020-02-22T08:32:21.000Z</time>
      </trkpt>
      <trkpt lat="38.14365793950855731964111328125" lon="-1.34287141263484954833984375">
        <ele>115.1999969482421875</ele>
        <time>2020-02-22T08:32:23.000Z</time>
      </trkpt>
      <trkpt lat="38.143850974738597869873046875" lon="-1.3430150784552097320556640625">
        <ele>115.40000152587890625</ele>
        <time>2020-02-22T08:32:26.000Z</time>
      </trkpt>
      <trkpt lat="38.14390470273792743682861328125" lon="-1.34306327439844608306884765625">
        <ele>115.59999847412109375</ele>
        <time>2020-02-22T08:32:27.000Z</time>
      </trkpt>
      <trkpt lat="38.1439631246030330657958984375" lon="-1.34310367517173290252685546875">
        <ele>115.8000030517578125</ele>
        <time>2020-02-22T08:32:28.000Z</time>
      </trkpt>
      <trkpt lat="38.14417510293424129486083984375" lon="-1.3431847281754016876220703125">
        <ele>116.40000152587890625</ele>
        <time>2020-02-22T08:32:31.000Z</time>
      </trkpt>
      <trkpt lat="38.1442477740347385406494140625" lon="-1.343205682933330535888671875">
        <ele>116.40000152587890625</ele>
        <time>2020-02-22T08:32:32.000Z</time>
      </trkpt>
      <trkpt lat="38.144469559192657470703125" lon="-1.3432380370795726776123046875">
        <ele>117.59999847412109375</ele>
        <time>2020-02-22T08:32:35.000Z</time>
      </trkpt>
      <trkpt lat="38.14463141374289989471435546875" lon="-1.343238539993762969970703125">
        <ele>118.40000152587890625</ele>
        <time>2020-02-22T08:32:37.000Z</time>
      </trkpt>
      <trkpt lat="38.14479075372219085693359375" lon="-1.34323342703282833099365234375">
        <ele>118.8000030517578125</ele>
        <time>2020-02-22T08:32:39.000Z</time>
      </trkpt>
      <trkpt lat="38.14494607038795948028564453125" lon="-1.3432135619223117828369140625">
        <ele>118.8000030517578125</ele>
        <time>2020-02-22T08:32:41.000Z</time>
      </trkpt>
      <trkpt lat="38.1450185738503932952880859375" lon="-1.34318598546087741851806640625">
        <ele>119.1999969482421875</ele>
        <time>2020-02-22T08:32:42.000Z</time>
      </trkpt>
      <trkpt lat="38.14508822746574878692626953125" lon="-1.343144662678241729736328125">
        <ele>119.59999847412109375</ele>
        <time>2020-02-22T08:32:43.000Z</time>
      </trkpt>
      <trkpt lat="38.1452066637575626373291015625" lon="-1.343039385974407196044921875">
        <ele>120</ele>
        <time>2020-02-22T08:32:45.000Z</time>
      </trkpt>
      <trkpt lat="38.1452747248113155364990234375" lon="-1.34300091303884983062744140625">
        <ele>120.1999969482421875</ele>
        <time>2020-02-22T08:32:46.000Z</time>
      </trkpt>
      <trkpt lat="38.14542216248810291290283203125" lon="-1.3429657928645610809326171875">
        <ele>120.59999847412109375</ele>
        <time>2020-02-22T08:32:48.000Z</time>
      </trkpt>
      <trkpt lat="38.14572751522064208984375" lon="-1.342920362949371337890625">
        <ele>121</ele>
        <time>2020-02-22T08:32:52.000Z</time>
      </trkpt>
      <trkpt lat="38.14579884521663188934326171875" lon="-1.34289278648793697357177734375">
        <ele>121.1999969482421875</ele>
        <time>2020-02-22T08:32:53.000Z</time>
      </trkpt>
      <trkpt lat="38.146213330328464508056640625" lon="-1.342698074877262115478515625">
        <ele>121.40000152587890625</ele>
        <time>2020-02-22T08:32:58.000Z</time>
      </trkpt>
      <trkpt lat="38.146270327270030975341796875" lon="-1.34265725500881671905517578125">
        <ele>121.59999847412109375</ele>
        <time>2020-02-22T08:32:59.000Z</time>
      </trkpt>
      <trkpt lat="38.1464424915611743927001953125" lon="-1.34255650453269481658935546875">
        <ele>121.59999847412109375</ele>
        <time>2020-02-22T08:33:02.000Z</time>
      </trkpt>
      <trkpt lat="38.14656545408070087432861328125" lon="-1.3424893654882907867431640625">
        <ele>121.40000152587890625</ele>
        <time>2020-02-22T08:33:04.000Z</time>
      </trkpt>
      <trkpt lat="38.1468542106449604034423828125" lon="-1.3423562608659267425537109375">
        <ele>121.40000152587890625</ele>
        <time>2020-02-22T08:33:08.000Z</time>
      </trkpt>
      <trkpt lat="38.146925456821918487548828125" lon="-1.3423234038054943084716796875">
        <ele>121.40000152587890625</ele>
        <time>2020-02-22T08:33:09.000Z</time>
      </trkpt>
      <trkpt lat="38.147251345217227935791015625" lon="-1.3422037102282047271728515625">
        <ele>120.40000152587890625</ele>
        <time>2020-02-22T08:33:14.000Z</time>
      </trkpt>
      <trkpt lat="38.14739509485661983489990234375" lon="-1.34218074381351470947265625">
        <ele>120.1999969482421875</ele>
        <time>2020-02-22T08:33:16.000Z</time>
      </trkpt>
      <trkpt lat="38.14761637710034847259521484375" lon="-1.342193149030208587646484375">
        <ele>120.1999969482421875</ele>
        <time>2020-02-22T08:33:19.000Z</time>
      </trkpt>
      <trkpt lat="38.1477356515824794769287109375" lon="-1.3421919755637645721435546875">
        <ele>120.1999969482421875</ele>
        <time>2020-02-22T08:33:21.000Z</time>
      </trkpt>
      <trkpt lat="38.1478429399430751800537109375" lon="-1.3421787321567535400390625">
        <ele>120.40000152587890625</ele>
        <time>2020-02-22T08:33:23.000Z</time>
      </trkpt>
      <trkpt lat="38.14789297990500926971435546875" lon="-1.34217764250934123992919921875">
        <ele>120.40000152587890625</ele>
        <time>2020-02-22T08:33:24.000Z</time>
      </trkpt>
      <trkpt lat="38.14803916029632091522216796875" lon="-1.34224821813404560089111328125">
        <ele>120.8000030517578125</ele>
        <time>2020-02-22T08:33:27.000Z</time>
      </trkpt>
      <trkpt lat="38.14809900708496570587158203125" lon="-1.3422918878495693206787109375">
        <ele>121</ele>
        <time>2020-02-22T08:33:28.000Z</time>
      </trkpt>
      <trkpt lat="38.1482975743710994720458984375" lon="-1.3424327038228511810302734375">
        <ele>121.59999847412109375</ele>
        <time>2020-02-22T08:33:32.000Z</time>
      </trkpt>
      <trkpt lat="38.14835700206458568572998046875" lon="-1.342467404901981353759765625">
        <ele>121.59999847412109375</ele>
        <time>2020-02-22T08:33:33.000Z</time>
      </trkpt>
      <trkpt lat="38.1487488560378551483154296875" lon="-1.3427056185901165008544921875">
        <ele>122.59999847412109375</ele>
        <time>2020-02-22T08:33:40.000Z</time>
      </trkpt>
      <trkpt lat="38.14880870282649993896484375" lon="-1.342740990221500396728515625">
        <ele>122.8000030517578125</ele>
        <time>2020-02-22T08:33:41.000Z</time>
      </trkpt>
      <trkpt lat="38.14919066615402698516845703125" lon="-1.34295053780078887939453125">
        <ele>123</ele>
        <time>2020-02-22T08:33:47.000Z</time>
      </trkpt>
      <trkpt lat="38.14953432418406009674072265625" lon="-1.343160085380077362060546875">
        <ele>123.40000152587890625</ele>
        <time>2020-02-22T08:33:54.000Z</time>
      </trkpt>
      <trkpt lat="38.14974504522979259490966796875" lon="-1.34330299682915210723876953125">
        <ele>123.40000152587890625</ele>
        <time>2020-02-22T08:33:59.000Z</time>
      </trkpt>
      <trkpt lat="38.1498478911817073822021484375" lon="-1.34336569346487522125244140625">
        <ele>123.8000030517578125</ele>
        <time>2020-02-22T08:34:01.000Z</time>
      </trkpt>
      <trkpt lat="38.1500678323209285736083984375" lon="-1.34349594824016094207763671875">
        <ele>124.59999847412109375</ele>
        <time>2020-02-22T08:34:05.000Z</time>
      </trkpt>
      <trkpt lat="38.1501328758895397186279296875" lon="-1.343534253537654876708984375">
        <ele>124.8000030517578125</ele>
        <time>2020-02-22T08:34:06.000Z</time>
      </trkpt>
      <trkpt lat="38.15027746371924877166748046875" lon="-1.34365855716168880462646484375">
        <ele>125</ele>
        <time>2020-02-22T08:34:09.000Z</time>
      </trkpt>
      <trkpt lat="38.1503038667142391204833984375" lon="-1.34370214305818080902099609375">
        <ele>125</ele>
        <time>2020-02-22T08:34:10.000Z</time>
      </trkpt>
      <trkpt lat="38.15034971572458744049072265625" lon="-1.34382770396769046783447265625">
        <ele>126</ele>
        <time>2020-02-22T08:34:13.000Z</time>
      </trkpt>
      <trkpt lat="38.1503534875810146331787109375" lon="-1.343862153589725494384765625">
        <ele>126.1999969482421875</ele>
        <time>2020-02-22T08:34:14.000Z</time>
      </trkpt>
      <trkpt lat="38.15030395053327083587646484375" lon="-1.3439947552978992462158203125">
        <ele>126.8000030517578125</ele>
        <time>2020-02-22T08:34:18.000Z</time>
      </trkpt>
      <trkpt lat="38.15028416924178600311279296875" lon="-1.3440316356718540191650390625">
        <ele>127.1999969482421875</ele>
        <time>2020-02-22T08:34:19.000Z</time>
      </trkpt>
      <trkpt lat="38.15026036463677883148193359375" lon="-1.34406122379004955291748046875">
        <ele>127.59999847412109375</ele>
        <time>2020-02-22T08:34:20.000Z</time>
      </trkpt>
      <trkpt lat="38.15021912567317485809326171875" lon="-1.3441228307783603668212890625">
        <ele>128.600006103515625</ele>
        <time>2020-02-22T08:34:22.000Z</time>
      </trkpt>
      <trkpt lat="38.1501707620918750762939453125" lon="-1.3441895507276058197021484375">
        <ele>129.600006103515625</ele>
        <time>2020-02-22T08:34:24.000Z</time>
      </trkpt>
      <trkpt lat="38.1501142680644989013671875" lon="-1.34426456876099109649658203125">
        <ele>130.399993896484375</ele>
        <time>2020-02-22T08:34:26.000Z</time>
      </trkpt>
      <trkpt lat="38.15008786506950855255126953125" lon="-1.344310753047466278076171875">
        <ele>130.8000030517578125</ele>
        <time>2020-02-22T08:34:27.000Z</time>
      </trkpt>
      <trkpt lat="38.1499927304685115814208984375" lon="-1.3444527424871921539306640625">
        <ele>131.8000030517578125</ele>
        <time>2020-02-22T08:34:31.000Z</time>
      </trkpt>
      <trkpt lat="38.1499001942574977874755859375" lon="-1.34454838000237941741943359375">
        <ele>132.600006103515625</ele>
        <time>2020-02-22T08:34:34.000Z</time>
      </trkpt>
      <trkpt lat="38.14984311349689960479736328125" lon="-1.344619877636432647705078125">
        <ele>133</ele>
        <time>2020-02-22T08:34:36.000Z</time>
      </trkpt>
      <trkpt lat="38.1497107632458209991455078125" lon="-1.34475222788751125335693359375">
        <ele>134</ele>
        <time>2020-02-22T08:34:40.000Z</time>
      </trkpt>
      <trkpt lat="38.14967773854732513427734375" lon="-1.344784162938594818115234375">
        <ele>134.1999969482421875</ele>
        <time>2020-02-22T08:34:41.000Z</time>
      </trkpt>
      <trkpt lat="38.14959266223013401031494140625" lon="-1.3448751904070377349853515625">
        <ele>135.1999969482421875</ele>
        <time>2020-02-22T08:34:44.000Z</time>
      </trkpt>
      <trkpt lat="38.149509429931640625" lon="-1.344980634748935699462890625">
        <ele>135.8000030517578125</ele>
        <time>2020-02-22T08:34:47.000Z</time>
      </trkpt>
      <trkpt lat="38.14947514794766902923583984375" lon="-1.34501290507614612579345703125">
        <ele>136.1999969482421875</ele>
        <time>2020-02-22T08:34:48.000Z</time>
      </trkpt>
      <trkpt lat="38.149360902607440948486328125" lon="-1.34507778100669384002685546875">
        <ele>137</ele>
        <time>2020-02-22T08:34:51.000Z</time>
      </trkpt>
      <trkpt lat="38.149319328367710113525390625" lon="-1.345088593661785125732421875">
        <ele>137.399993896484375</ele>
        <time>2020-02-22T08:34:52.000Z</time>
      </trkpt>
      <trkpt lat="38.149195946753025054931640625" lon="-1.3450991548597812652587890625">
        <ele>138.1999969482421875</ele>
        <time>2020-02-22T08:34:55.000Z</time>
      </trkpt>
      <trkpt lat="38.149045407772064208984375" lon="-1.3450904376804828643798828125">
        <ele>139.1999969482421875</ele>
        <time>2020-02-22T08:34:59.000Z</time>
      </trkpt>
      <trkpt lat="38.14900861121714115142822265625" lon="-1.34508448652923107147216796875">
        <ele>139.399993896484375</ele>
        <time>2020-02-22T08:35:00.000Z</time>
      </trkpt>
      <trkpt lat="38.14882052130997180938720703125" lon="-1.3450431637465953826904296875">
        <ele>140.399993896484375</ele>
        <time>2020-02-22T08:35:05.000Z</time>
      </trkpt>
      <trkpt lat="38.14874969422817230224609375" lon="-1.34502145461738109588623046875">
        <ele>141.1999969482421875</ele>
        <time>2020-02-22T08:35:07.000Z</time>
      </trkpt>
      <trkpt lat="38.14868540503084659576416015625" lon="-1.34500779211521148681640625">
        <ele>141.600006103515625</ele>
        <time>2020-02-22T08:35:09.000Z</time>
      </trkpt>
      <trkpt lat="38.14855900593101978302001953125" lon="-1.34499781765043735504150390625">
        <ele>142.8000030517578125</ele>
        <time>2020-02-22T08:35:13.000Z</time>
      </trkpt>
      <trkpt lat="38.14852480776607990264892578125" lon="-1.34500251151621341705322265625">
        <ele>143.1999969482421875</ele>
        <time>2020-02-22T08:35:14.000Z</time>
      </trkpt>
      <trkpt lat="38.14839958213269710540771484375" lon="-1.3449881784617900848388671875">
        <ele>144.399993896484375</ele>
        <time>2020-02-22T08:35:18.000Z</time>
      </trkpt>
      <trkpt lat="38.14837426878511905670166015625" lon="-1.3449694029986858367919921875">
        <ele>144.8000030517578125</ele>
        <time>2020-02-22T08:35:19.000Z</time>
      </trkpt>
      <trkpt lat="38.1483240611851215362548828125" lon="-1.3449145853519439697265625">
        <ele>145.399993896484375</ele>
        <time>2020-02-22T08:35:21.000Z</time>
      </trkpt>
      <trkpt lat="38.14819020219147205352783203125" lon="-1.34481039829552173614501953125">
        <ele>146.600006103515625</ele>
        <time>2020-02-22T08:35:26.000Z</time>
      </trkpt>
      <trkpt lat="38.1480793096125125885009765625" lon="-1.3447544910013675689697265625">
        <ele>148</ele>
        <time>2020-02-22T08:35:30.000Z</time>
      </trkpt>
      <trkpt lat="38.14805843867361545562744140625" lon="-1.3447782956063747406005859375">
        <ele>148.1999969482421875</ele>
        <time>2020-02-22T08:35:31.000Z</time>
      </trkpt>
      <trkpt lat="38.147999346256256103515625" lon="-1.34487980045378208160400390625">
        <ele>149.1999969482421875</ele>
        <time>2020-02-22T08:35:34.000Z</time>
      </trkpt>
      <trkpt lat="38.147956095635890960693359375" lon="-1.34498499333858489990234375">
        <ele>150.399993896484375</ele>
        <time>2020-02-22T08:35:37.000Z</time>
      </trkpt>
      <trkpt lat="38.14794125966727733612060546875" lon="-1.345014162361621856689453125">
        <ele>150.8000030517578125</ele>
        <time>2020-02-22T08:35:38.000Z</time>
      </trkpt>
      <trkpt lat="38.14792248420417308807373046875" lon="-1.345077194273471832275390625">
        <ele>151.399993896484375</ele>
        <time>2020-02-22T08:35:40.000Z</time>
      </trkpt>
      <trkpt lat="38.1479160301387310028076171875" lon="-1.3452185131609439849853515625">
        <ele>152.8000030517578125</ele>
        <time>2020-02-22T08:35:44.000Z</time>
      </trkpt>
      <trkpt lat="38.1479207240045070648193359375" lon="-1.3453321717679500579833984375">
        <ele>153.8000030517578125</ele>
        <time>2020-02-22T08:35:47.000Z</time>
      </trkpt>
      <trkpt lat="38.14793539233505725860595703125" lon="-1.34544373489916324615478515625">
        <ele>155</ele>
        <time>2020-02-22T08:35:50.000Z</time>
      </trkpt>
      <trkpt lat="38.14795131795108318328857421875" lon="-1.34559075348079204559326171875">
        <ele>156</ele>
        <time>2020-02-22T08:35:54.000Z</time>
      </trkpt>
      <trkpt lat="38.14795282669365406036376953125" lon="-1.34562746621668338775634765625">
        <ele>156.1999969482421875</ele>
        <time>2020-02-22T08:35:55.000Z</time>
      </trkpt>
      <trkpt lat="38.14795567654073238372802734375" lon="-1.34581035934388637542724609375">
        <ele>157.600006103515625</ele>
        <time>2020-02-22T08:36:00.000Z</time>
      </trkpt>
      <trkpt lat="38.14795047976076602935791015625" lon="-1.34592686779797077178955078125">
        <ele>158.8000030517578125</ele>
        <time>2020-02-22T08:36:03.000Z</time>
      </trkpt>
      <trkpt lat="38.14793765544891357421875" lon="-1.34607656858861446380615234375">
        <ele>160.1999969482421875</ele>
        <time>2020-02-22T08:36:07.000Z</time>
      </trkpt>
      <trkpt lat="38.1478979252278804779052734375" lon="-1.3461774028837680816650390625">
        <ele>161.1999969482421875</ele>
        <time>2020-02-22T08:36:10.000Z</time>
      </trkpt>
      <trkpt lat="38.1478583626449108123779296875" lon="-1.34625208564102649688720703125">
        <ele>162.600006103515625</ele>
        <time>2020-02-22T08:36:13.000Z</time>
      </trkpt>
      <trkpt lat="38.1478077359497547149658203125" lon="-1.3463162072002887725830078125">
        <ele>163.600006103515625</ele>
        <time>2020-02-22T08:36:16.000Z</time>
      </trkpt>
      <trkpt lat="38.147784769535064697265625" lon="-1.346337161958217620849609375">
        <ele>164</ele>
        <time>2020-02-22T08:36:17.000Z</time>
      </trkpt>
      <trkpt lat="38.147738836705684661865234375" lon="-1.346375383436679840087890625">
        <ele>164.8000030517578125</ele>
        <time>2020-02-22T08:36:19.000Z</time>
      </trkpt>
      <trkpt lat="38.14765225164592266082763671875" lon="-1.346450485289096832275390625">
        <ele>166</ele>
        <time>2020-02-22T08:36:23.000Z</time>
      </trkpt>
      <trkpt lat="38.14757564105093479156494140625" lon="-1.34652952663600444793701171875">
        <ele>167</ele>
        <time>2020-02-22T08:36:27.000Z</time>
      </trkpt>
      <trkpt lat="38.147488050162792205810546875" lon="-1.3466571830213069915771484375">
        <ele>168.1999969482421875</ele>
        <time>2020-02-22T08:36:32.000Z</time>
      </trkpt>
      <trkpt lat="38.147429041564464569091796875" lon="-1.34675793349742889404296875">
        <ele>169.399993896484375</ele>
        <time>2020-02-22T08:36:36.000Z</time>
      </trkpt>
      <trkpt lat="38.1473685242235660552978515625" lon="-1.34687326848506927490234375">
        <ele>170.600006103515625</ele>
        <time>2020-02-22T08:36:40.000Z</time>
      </trkpt>
      <trkpt lat="38.14733826555311679840087890625" lon="-1.34696270339190959930419921875">
        <ele>171.600006103515625</ele>
        <time>2020-02-22T08:36:43.000Z</time>
      </trkpt>
      <trkpt lat="38.14730490557849407196044921875" lon="-1.3470980711281299591064453125">
        <ele>173</ele>
        <time>2020-02-22T08:36:47.000Z</time>
      </trkpt>
      <trkpt lat="38.14730172045528888702392578125" lon="-1.347201168537139892578125">
        <ele>174.1999969482421875</ele>
        <time>2020-02-22T08:36:50.000Z</time>
      </trkpt>
      <trkpt lat="38.14730465412139892578125" lon="-1.347373165190219879150390625">
        <ele>175.1999969482421875</ele>
        <time>2020-02-22T08:36:55.000Z</time>
      </trkpt>
      <trkpt lat="38.1473064981400966644287109375" lon="-1.34751842357218265533447265625">
        <ele>176.399993896484375</ele>
        <time>2020-02-22T08:36:59.000Z</time>
      </trkpt>
      <trkpt lat="38.147301971912384033203125" lon="-1.3476251251995563507080078125">
        <ele>177.399993896484375</ele>
        <time>2020-02-22T08:37:02.000Z</time>
      </trkpt>
      <trkpt lat="38.1473095156252384185791015625" lon="-1.347721852362155914306640625">
        <ele>178.600006103515625</ele>
        <time>2020-02-22T08:37:05.000Z</time>
      </trkpt>
      <trkpt lat="38.147304989397525787353515625" lon="-1.34779184125363826751708984375">
        <ele>179.1999969482421875</ele>
        <time>2020-02-22T08:37:07.000Z</time>
      </trkpt>
      <trkpt lat="38.14729652367532253265380859375" lon="-1.34786191396415233612060546875">
        <ele>179.600006103515625</ele>
        <time>2020-02-22T08:37:09.000Z</time>
      </trkpt>
      <trkpt lat="38.147221170365810394287109375" lon="-1.347993426024913787841796875">
        <ele>181</ele>
        <time>2020-02-22T08:37:13.000Z</time>
      </trkpt>
      <trkpt lat="38.14711966551840305328369140625" lon="-1.34805151261389255523681640625">
        <ele>182.1999969482421875</ele>
        <time>2020-02-22T08:37:16.000Z</time>
      </trkpt>
      <trkpt lat="38.1470131315290927886962890625" lon="-1.3480911590158939361572265625">
        <ele>182.8000030517578125</ele>
        <time>2020-02-22T08:37:19.000Z</time>
      </trkpt>
      <trkpt lat="38.14693777821958065032958984375" lon="-1.34811806492507457733154296875">
        <ele>183.1999969482421875</ele>
        <time>2020-02-22T08:37:21.000Z</time>
      </trkpt>
      <trkpt lat="38.146725632250308990478515625" lon="-1.348204314708709716796875">
        <ele>184.399993896484375</ele>
        <time>2020-02-22T08:37:27.000Z</time>
      </trkpt>
      <trkpt lat="38.1466949544847011566162109375" lon="-1.34822518564760684967041015625">
        <ele>184.399993896484375</ele>
        <time>2020-02-22T08:37:28.000Z</time>
      </trkpt>
      <trkpt lat="38.1465584971010684967041015625" lon="-1.348354518413543701171875">
        <ele>185.399993896484375</ele>
        <time>2020-02-22T08:37:33.000Z</time>
      </trkpt>
      <trkpt lat="38.1465356983244419097900390625" lon="-1.348390392959117889404296875">
        <ele>185.8000030517578125</ele>
        <time>2020-02-22T08:37:34.000Z</time>
      </trkpt>
      <trkpt lat="38.14647928811609745025634765625" lon="-1.348508410155773162841796875">
        <ele>186.600006103515625</ele>
        <time>2020-02-22T08:37:37.000Z</time>
      </trkpt>
      <trkpt lat="38.146438300609588623046875" lon="-1.348684094846248626708984375">
        <ele>187.600006103515625</ele>
        <time>2020-02-22T08:37:41.000Z</time>
      </trkpt>
      <trkpt lat="38.14643561840057373046875" lon="-1.3488063029944896697998046875">
        <ele>189</ele>
        <time>2020-02-22T08:37:44.000Z</time>
      </trkpt>
      <trkpt lat="38.14644374884665012359619140625" lon="-1.348922140896320343017578125">
        <ele>189.8000030517578125</ele>
        <time>2020-02-22T08:37:47.000Z</time>
      </trkpt>
      <trkpt lat="38.1464455090463161468505859375" lon="-1.348965726792812347412109375">
        <ele>190</ele>
        <time>2020-02-22T08:37:48.000Z</time>
      </trkpt>
      <trkpt lat="38.1464958004653453826904296875" lon="-1.34918130934238433837890625">
        <ele>191.1999969482421875</ele>
        <time>2020-02-22T08:37:53.000Z</time>
      </trkpt>
      <trkpt lat="38.1465092115104198455810546875" lon="-1.349223889410495758056640625">
        <ele>191.600006103515625</ele>
        <time>2020-02-22T08:37:54.000Z</time>
      </trkpt>
      <trkpt lat="38.14653812907636165618896484375" lon="-1.349309384822845458984375">
        <ele>192.399993896484375</ele>
        <time>2020-02-22T08:37:56.000Z</time>
      </trkpt>
      <trkpt lat="38.1465883366763591766357421875" lon="-1.3494372926652431488037109375">
        <ele>193.399993896484375</ele>
        <time>2020-02-22T08:37:59.000Z</time>
      </trkpt>
      <trkpt lat="38.14665966667234897613525390625" lon="-1.34964290075004100799560546875">
        <ele>194.600006103515625</ele>
        <time>2020-02-22T08:38:04.000Z</time>
      </trkpt>
      <trkpt lat="38.14667240716516971588134765625" lon="-1.34968179278075695037841796875">
        <ele>194.8000030517578125</ele>
        <time>2020-02-22T08:38:05.000Z</time>
      </trkpt>
      <trkpt lat="38.14671901054680347442626953125" lon="-1.3498382829129695892333984375">
        <ele>195.8000030517578125</ele>
        <time>2020-02-22T08:38:09.000Z</time>
      </trkpt>
      <trkpt lat="38.146747760474681854248046875" lon="-1.3499529473483562469482421875">
        <ele>196.8000030517578125</ele>
        <time>2020-02-22T08:38:12.000Z</time>
      </trkpt>
      <trkpt lat="38.14678288064897060394287109375" lon="-1.35007289238274097442626953125">
        <ele>197.8000030517578125</ele>
        <time>2020-02-22T08:38:15.000Z</time>
      </trkpt>
      <trkpt lat="38.146798722445964813232421875" lon="-1.35011647827923297882080078125">
        <ele>198</ele>
        <time>2020-02-22T08:38:16.000Z</time>
      </trkpt>
      <trkpt lat="38.14686410129070281982421875" lon="-1.35032703168690204620361328125">
        <ele>199</ele>
        <time>2020-02-22T08:38:21.000Z</time>
      </trkpt>
      <trkpt lat="38.14688849262893199920654296875" lon="-1.35044974274933338165283203125">
        <ele>199.8000030517578125</ele>
        <time>2020-02-22T08:38:24.000Z</time>
      </trkpt>
      <trkpt lat="38.1468951143324375152587890625" lon="-1.3504922389984130859375">
        <ele>200.1999969482421875</ele>
        <time>2020-02-22T08:38:25.000Z</time>
      </trkpt>
      <trkpt lat="38.14690978266298770904541015625" lon="-1.3507076539099216461181640625">
        <ele>201.399993896484375</ele>
        <time>2020-02-22T08:38:30.000Z</time>
      </trkpt>
      <trkpt lat="38.14692671410739421844482421875" lon="-1.35083061642944812774658203125">
        <ele>202.1999969482421875</ele>
        <time>2020-02-22T08:38:33.000Z</time>
      </trkpt>
      <trkpt lat="38.14692855812609195709228515625" lon="-1.35091979987919330596923828125">
        <ele>202.600006103515625</ele>
        <time>2020-02-22T08:38:35.000Z</time>
      </trkpt>
      <trkpt lat="38.146934844553470611572265625" lon="-1.35109364055097103118896484375">
        <ele>203.600006103515625</ele>
        <time>2020-02-22T08:38:39.000Z</time>
      </trkpt>
      <trkpt lat="38.1469420529901981353759765625" lon="-1.3512189500033855438232421875">
        <ele>204.600006103515625</ele>
        <time>2020-02-22T08:38:42.000Z</time>
      </trkpt>
      <trkpt lat="38.14695621840655803680419921875" lon="-1.35142757557332515716552734375">
        <ele>205.8000030517578125</ele>
        <time>2020-02-22T08:38:47.000Z</time>
      </trkpt>
      <trkpt lat="38.14697683788836002349853515625" lon="-1.351586915552616119384765625">
        <ele>206.8000030517578125</ele>
        <time>2020-02-22T08:38:51.000Z</time>
      </trkpt>
      <trkpt lat="38.146985135972499847412109375" lon="-1.35162371210753917694091796875">
        <ele>207.1999969482421875</ele>
        <time>2020-02-22T08:38:52.000Z</time>
      </trkpt>
      <trkpt lat="38.1470117904245853424072265625" lon="-1.35173477232456207275390625">
        <ele>207.8000030517578125</ele>
        <time>2020-02-22T08:38:55.000Z</time>
      </trkpt>
      <trkpt lat="38.14705177210271358489990234375" lon="-1.35188640095293521881103515625">
        <ele>209</ele>
        <time>2020-02-22T08:38:59.000Z</time>
      </trkpt>
      <trkpt lat="38.1470845453441143035888671875" lon="-1.35199553333222866058349609375">
        <ele>210</ele>
        <time>2020-02-22T08:39:02.000Z</time>
      </trkpt>
      <trkpt lat="38.14709234051406383514404296875" lon="-1.3520326651632785797119140625">
        <ele>210.1999969482421875</ele>
        <time>2020-02-22T08:39:03.000Z</time>
      </trkpt>
      <trkpt lat="38.14712955616414546966552734375" lon="-1.35217809118330478668212890625">
        <ele>211.399993896484375</ele>
        <time>2020-02-22T08:39:07.000Z</time>
      </trkpt>
      <trkpt lat="38.147176913917064666748046875" lon="-1.3522852957248687744140625">
        <ele>212.399993896484375</ele>
        <time>2020-02-22T08:39:10.000Z</time>
      </trkpt>
      <trkpt lat="38.1471925042569637298583984375" lon="-1.35232125408947467803955078125">
        <ele>212.8000030517578125</ele>
        <time>2020-02-22T08:39:11.000Z</time>
      </trkpt>
      <trkpt lat="38.1472515128552913665771484375" lon="-1.3524792529642581939697265625">
        <ele>214</ele>
        <time>2020-02-22T08:39:15.000Z</time>
      </trkpt>
      <trkpt lat="38.14730825833976268768310546875" lon="-1.3526380062103271484375">
        <ele>215</ele>
        <time>2020-02-22T08:39:19.000Z</time>
      </trkpt>
      <trkpt lat="38.1473557837307453155517578125" lon="-1.3527950830757617950439453125">
        <ele>216</ele>
        <time>2020-02-22T08:39:23.000Z</time>
      </trkpt>
      <trkpt lat="38.14739459194242954254150390625" lon="-1.35295811109244823455810546875">
        <ele>217.1999969482421875</ele>
        <time>2020-02-22T08:39:27.000Z</time>
      </trkpt>
      <trkpt lat="38.14741068519651889801025390625" lon="-1.3530418463051319122314453125">
        <ele>217.8000030517578125</ele>
        <time>2020-02-22T08:39:29.000Z</time>
      </trkpt>
      <trkpt lat="38.14741261303424835205078125" lon="-1.3531275093555450439453125">
        <ele>218.1999969482421875</ele>
        <time>2020-02-22T08:39:31.000Z</time>
      </trkpt>
      <trkpt lat="38.14742024056613445281982421875" lon="-1.35328869335353374481201171875">
        <ele>219.399993896484375</ele>
        <time>2020-02-22T08:39:35.000Z</time>
      </trkpt>
      <trkpt lat="38.14741931855678558349609375" lon="-1.35332976467907428741455078125">
        <ele>219.8000030517578125</ele>
        <time>2020-02-22T08:39:36.000Z</time>
      </trkpt>
      <trkpt lat="38.1474079191684722900390625" lon="-1.353494636714458465576171875">
        <ele>220.8000030517578125</ele>
        <time>2020-02-22T08:39:40.000Z</time>
      </trkpt>
      <trkpt lat="38.1473983637988567352294921875" lon="-1.3536973111331462860107421875">
        <ele>221.600006103515625</ele>
        <time>2020-02-22T08:39:45.000Z</time>
      </trkpt>
      <trkpt lat="38.14739945344626903533935546875" lon="-1.35389688424766063690185546875">
        <ele>222.8000030517578125</ele>
        <time>2020-02-22T08:39:50.000Z</time>
      </trkpt>
      <trkpt lat="38.14740230329334735870361328125" lon="-1.35401389561593532562255859375">
        <ele>223.399993896484375</ele>
        <time>2020-02-22T08:39:53.000Z</time>
      </trkpt>
      <trkpt lat="38.1474067457020282745361328125" lon="-1.3541264645755290985107421875">
        <ele>224</ele>
        <time>2020-02-22T08:39:56.000Z</time>
      </trkpt>
      <trkpt lat="38.1473889760673046112060546875" lon="-1.35433944873511791229248046875">
        <ele>225.1999969482421875</ele>
        <time>2020-02-22T08:40:01.000Z</time>
      </trkpt>
      <trkpt lat="38.14738176763057708740234375" lon="-1.35442980565130710601806640625">
        <ele>225.600006103515625</ele>
        <time>2020-02-22T08:40:03.000Z</time>
      </trkpt>
      <trkpt lat="38.14737380482256412506103515625" lon="-1.3545593060553073883056640625">
        <ele>226.399993896484375</ele>
        <time>2020-02-22T08:40:06.000Z</time>
      </trkpt>
      <trkpt lat="38.147368021309375762939453125" lon="-1.35476692579686641693115234375">
        <ele>227.600006103515625</ele>
        <time>2020-02-22T08:40:11.000Z</time>
      </trkpt>
      <trkpt lat="38.14736693166196346282958984375" lon="-1.35484278202056884765625">
        <ele>228</ele>
        <time>2020-02-22T08:40:13.000Z</time>
      </trkpt>
      <trkpt lat="38.14736433327198028564453125" lon="-1.3549165427684783935546875">
        <ele>228.600006103515625</ele>
        <time>2020-02-22T08:40:15.000Z</time>
      </trkpt>
      <trkpt lat="38.147351257503032684326171875" lon="-1.3551115058362483978271484375">
        <ele>229.600006103515625</ele>
        <time>2020-02-22T08:40:20.000Z</time>
      </trkpt>
      <trkpt lat="38.1473396904766559600830078125" lon="-1.3552679121494293212890625">
        <ele>230.600006103515625</ele>
        <time>2020-02-22T08:40:24.000Z</time>
      </trkpt>
      <trkpt lat="38.147333152592182159423828125" lon="-1.3554266653954982757568359375">
        <ele>231.8000030517578125</ele>
        <time>2020-02-22T08:40:28.000Z</time>
      </trkpt>
      <trkpt lat="38.14731949009001255035400390625" lon="-1.355624310672283172607421875">
        <ele>233</ele>
        <time>2020-02-22T08:40:33.000Z</time>
      </trkpt>
      <trkpt lat="38.14731714315712451934814453125" lon="-1.355704776942729949951171875">
        <ele>233.600006103515625</ele>
        <time>2020-02-22T08:40:35.000Z</time>
      </trkpt>
      <trkpt lat="38.1473182328045368194580078125" lon="-1.35582639835774898529052734375">
        <ele>234.1999969482421875</ele>
        <time>2020-02-22T08:40:38.000Z</time>
      </trkpt>
      <trkpt lat="38.14732351340353488922119140625" lon="-1.35594944469630718231201171875">
        <ele>235.1999969482421875</ele>
        <time>2020-02-22T08:40:41.000Z</time>
      </trkpt>
      <trkpt lat="38.14732988364994525909423828125" lon="-1.35607986710965633392333984375">
        <ele>236</ele>
        <time>2020-02-22T08:40:44.000Z</time>
      </trkpt>
      <trkpt lat="38.14733348786830902099609375" lon="-1.35612286627292633056640625">
        <ele>236.1999969482421875</ele>
        <time>2020-02-22T08:40:45.000Z</time>
      </trkpt>
      <trkpt lat="38.14737640321254730224609375" lon="-1.356369964778423309326171875">
        <ele>237.399993896484375</ele>
        <time>2020-02-22T08:40:51.000Z</time>
      </trkpt>
      <trkpt lat="38.14738579094409942626953125" lon="-1.35640919208526611328125">
        <ele>237.600006103515625</ele>
        <time>2020-02-22T08:40:52.000Z</time>
      </trkpt>
      <trkpt lat="38.14745561219751834869384765625" lon="-1.35664178989827632904052734375">
        <ele>238.600006103515625</ele>
        <time>2020-02-22T08:40:58.000Z</time>
      </trkpt>
      <trkpt lat="38.14750305376946926116943359375" lon="-1.356760226190090179443359375">
        <ele>239.1999969482421875</ele>
        <time>2020-02-22T08:41:01.000Z</time>
      </trkpt>
      <trkpt lat="38.14756239764392375946044921875" lon="-1.35687212459743022918701171875">
        <ele>239.8000030517578125</ele>
        <time>2020-02-22T08:41:04.000Z</time>
      </trkpt>
      <trkpt lat="38.14769826829433441162109375" lon="-1.35709038935601711273193359375">
        <ele>241.1999969482421875</ele>
        <time>2020-02-22T08:41:10.000Z</time>
      </trkpt>
      <trkpt lat="38.14784654416143894195556640625" lon="-1.35727076791226863861083984375">
        <ele>242.399993896484375</ele>
        <time>2020-02-22T08:41:16.000Z</time>
      </trkpt>
      <trkpt lat="38.1478979252278804779052734375" lon="-1.3573293574154376983642578125">
        <ele>242.600006103515625</ele>
        <time>2020-02-22T08:41:18.000Z</time>
      </trkpt>
      <trkpt lat="38.14800345338881015777587890625" lon="-1.3574470393359661102294921875">
        <ele>243.600006103515625</ele>
        <time>2020-02-22T08:41:22.000Z</time>
      </trkpt>
      <trkpt lat="38.1481054611504077911376953125" lon="-1.357565224170684814453125">
        <ele>244.600006103515625</ele>
        <time>2020-02-22T08:41:26.000Z</time>
      </trkpt>
      <trkpt lat="38.14815550111234188079833984375" lon="-1.357625909149646759033203125">
        <ele>245</ele>
        <time>2020-02-22T08:41:28.000Z</time>
      </trkpt>
      <trkpt lat="38.14827217720448970794677734375" lon="-1.35777468793094158172607421875">
        <ele>245.8000030517578125</ele>
        <time>2020-02-22T08:41:33.000Z</time>
      </trkpt>
      <trkpt lat="38.14837007783353328704833984375" lon="-1.3578889332711696624755859375">
        <ele>246.8000030517578125</ele>
        <time>2020-02-22T08:41:37.000Z</time>
      </trkpt>
      <trkpt lat="38.14839161932468414306640625" lon="-1.35791433043777942657470703125">
        <ele>247</ele>
        <time>2020-02-22T08:41:38.000Z</time>
      </trkpt>
      <trkpt lat="38.1484833173453807830810546875" lon="-1.3580305874347686767578125">
        <ele>247.8000030517578125</ele>
        <time>2020-02-22T08:41:42.000Z</time>
      </trkpt>
      <trkpt lat="38.148596473038196563720703125" lon="-1.35818573646247386932373046875">
        <ele>248.8000030517578125</ele>
        <time>2020-02-22T08:41:47.000Z</time>
      </trkpt>
      <trkpt lat="38.14861784689128398895263671875" lon="-1.3582183420658111572265625">
        <ele>248.8000030517578125</ele>
        <time>2020-02-22T08:41:48.000Z</time>
      </trkpt>
      <trkpt lat="38.14877190627157688140869140625" lon="-1.35840450413525104522705078125">
        <ele>250</ele>
        <time>2020-02-22T08:41:54.000Z</time>
      </trkpt>
      <trkpt lat="38.14879587851464748382568359375" lon="-1.35843719355762004852294921875">
        <ele>250.1999969482421875</ele>
        <time>2020-02-22T08:41:55.000Z</time>
      </trkpt>
      <trkpt lat="38.1488658674061298370361328125" lon="-1.35852436535060405731201171875">
        <ele>251</ele>
        <time>2020-02-22T08:41:58.000Z</time>
      </trkpt>
      <trkpt lat="38.1489386223256587982177734375" lon="-1.35863617993891239166259765625">
        <ele>252.1999969482421875</ele>
        <time>2020-02-22T08:42:02.000Z</time>
      </trkpt>
      <trkpt lat="38.14895748160779476165771484375" lon="-1.3586640916764736175537109375">
        <ele>252.600006103515625</ele>
        <time>2020-02-22T08:42:03.000Z</time>
      </trkpt>
      <trkpt lat="38.14901548437774181365966796875" lon="-1.3587494194507598876953125">
        <ele>253.399993896484375</ele>
        <time>2020-02-22T08:42:06.000Z</time>
      </trkpt>
      <trkpt lat="38.14915177412331104278564453125" lon="-1.35892837308347225189208984375">
        <ele>254.600006103515625</ele>
        <time>2020-02-22T08:42:12.000Z</time>
      </trkpt>
      <trkpt lat="38.14919091761112213134765625" lon="-1.35898419655859470367431640625">
        <ele>255</ele>
        <time>2020-02-22T08:42:14.000Z</time>
      </trkpt>
      <trkpt lat="38.14924724400043487548828125" lon="-1.35907103307545185089111328125">
        <ele>255.8000030517578125</ele>
        <time>2020-02-22T08:42:17.000Z</time>
      </trkpt>
      <trkpt lat="38.1493369303643703460693359375" lon="-1.35919273830950260162353515625">
        <ele>257</ele>
        <time>2020-02-22T08:42:21.000Z</time>
      </trkpt>
      <trkpt lat="38.1493684463202953338623046875" lon="-1.35922215878963470458984375">
        <ele>257.399993896484375</ele>
        <time>2020-02-22T08:42:22.000Z</time>
      </trkpt>
      <trkpt lat="38.149415887892246246337890625" lon="-1.35928074829280376434326171875">
        <ele>258</ele>
        <time>2020-02-22T08:42:24.000Z</time>
      </trkpt>
      <trkpt lat="38.14955008216202259063720703125" lon="-1.35942743159830570220947265625">
        <ele>259.600006103515625</ele>
        <time>2020-02-22T08:42:29.000Z</time>
      </trkpt>
      <trkpt lat="38.1496259383857250213623046875" lon="-1.3595136813819408416748046875">
        <ele>260.600006103515625</ele>
        <time>2020-02-22T08:42:32.000Z</time>
      </trkpt>
      <trkpt lat="38.14970229752361774444580078125" lon="-1.35959842242300510406494140625">
        <ele>261.600006103515625</ele>
        <time>2020-02-22T08:42:35.000Z</time>
      </trkpt>
      <trkpt lat="38.1497855298221111297607421875" lon="-1.3596679084002971649169921875">
        <ele>262.79998779296875</ele>
        <time>2020-02-22T08:42:38.000Z</time>
      </trkpt>
      <trkpt lat="38.1500141881406307220458984375" lon="-1.35976036079227924346923828125">
        <ele>264</ele>
        <time>2020-02-22T08:42:44.000Z</time>
      </trkpt>
      <trkpt lat="38.1500919722020626068115234375" lon="-1.359782405197620391845703125">
        <ele>264.20001220703125</ele>
        <time>2020-02-22T08:42:46.000Z</time>
      </trkpt>
      <trkpt lat="38.15019850619137287139892578125" lon="-1.35982557199895381927490234375">
        <ele>265</ele>
        <time>2020-02-22T08:42:49.000Z</time>
      </trkpt>
      <trkpt lat="38.1503320299088954925537109375" lon="-1.35987686924636363983154296875">
        <ele>265.600006103515625</ele>
        <time>2020-02-22T08:42:53.000Z</time>
      </trkpt>
      <trkpt lat="38.1503625400364398956298828125" lon="-1.35988994501531124114990234375">
        <ele>265.600006103515625</ele>
        <time>2020-02-22T08:42:54.000Z</time>
      </trkpt>
      <trkpt lat="38.15044761635363101959228515625" lon="-1.359920538961887359619140625">
        <ele>266.399993896484375</ele>
        <time>2020-02-22T08:42:57.000Z</time>
      </trkpt>
      <trkpt lat="38.1505729258060455322265625" lon="-1.3599666394293308258056640625">
        <ele>267.600006103515625</ele>
        <time>2020-02-22T08:43:01.000Z</time>
      </trkpt>
      <trkpt lat="38.1506344489753246307373046875" lon="-1.35999203659594058990478515625">
        <ele>268</ele>
        <time>2020-02-22T08:43:03.000Z</time>
      </trkpt>
      <trkpt lat="38.15072203986346721649169921875" lon="-1.36002556420862674713134765625">
        <ele>268.79998779296875</ele>
        <time>2020-02-22T08:43:06.000Z</time>
      </trkpt>
      <trkpt lat="38.15085967071354389190673828125" lon="-1.3600665517151355743408203125">
        <ele>270</ele>
        <time>2020-02-22T08:43:10.000Z</time>
      </trkpt>
      <trkpt lat="38.15089336596429347991943359375" lon="-1.3600771129131317138671875">
        <ele>270</ele>
        <time>2020-02-22T08:43:11.000Z</time>
      </trkpt>
      <trkpt lat="38.1510394625365734100341796875" lon="-1.36012245900928974151611328125">
        <ele>271</ele>
        <time>2020-02-22T08:43:15.000Z</time>
      </trkpt>
      <trkpt lat="38.15120466984808444976806640625" lon="-1.3601922802627086639404296875">
        <ele>272</ele>
        <time>2020-02-22T08:43:20.000Z</time>
      </trkpt>
      <trkpt lat="38.15123266540467739105224609375" lon="-1.3602066971361637115478515625">
        <ele>272.20001220703125</ele>
        <time>2020-02-22T08:43:21.000Z</time>
      </trkpt>
      <trkpt lat="38.15139971673488616943359375" lon="-1.36032429523766040802001953125">
        <ele>273.20001220703125</ele>
        <time>2020-02-22T08:43:27.000Z</time>
      </trkpt>
      <trkpt lat="38.15153248608112335205078125" lon="-1.3604772649705410003662109375">
        <ele>274.399993896484375</ele>
        <time>2020-02-22T08:43:31.000Z</time>
      </trkpt>
      <trkpt lat="38.15155251882970333099365234375" lon="-1.36052076704800128936767578125">
        <ele>274.600006103515625</ele>
        <time>2020-02-22T08:43:32.000Z</time>
      </trkpt>
      <trkpt lat="38.1516074202954769134521484375" lon="-1.36069594882428646087646484375">
        <ele>275.399993896484375</ele>
        <time>2020-02-22T08:43:36.000Z</time>
      </trkpt>
      <trkpt lat="38.151653520762920379638671875" lon="-1.36084162630140781402587890625">
        <ele>276.20001220703125</ele>
        <time>2020-02-22T08:43:39.000Z</time>
      </trkpt>
      <trkpt lat="38.15168277360498905181884765625" lon="-1.36092795990407466888427734375">
        <ele>276.600006103515625</ele>
        <time>2020-02-22T08:43:41.000Z</time>
      </trkpt>
      <trkpt lat="38.15175712108612060546875" lon="-1.36114396154880523681640625">
        <ele>277.79998779296875</ele>
        <time>2020-02-22T08:43:46.000Z</time>
      </trkpt>
      <trkpt lat="38.15177329815924167633056640625" lon="-1.3611830212175846099853515625">
        <ele>278</ele>
        <time>2020-02-22T08:43:47.000Z</time>
      </trkpt>
      <trkpt lat="38.15184152685105800628662109375" lon="-1.36138024739921092987060546875">
        <ele>278.79998779296875</ele>
        <time>2020-02-22T08:43:52.000Z</time>
      </trkpt>
      <trkpt lat="38.15186382271349430084228515625" lon="-1.3614146970212459564208984375">
        <ele>279</ele>
        <time>2020-02-22T08:43:53.000Z</time>
      </trkpt>
      <trkpt lat="38.15193775109946727752685546875" lon="-1.36159331537783145904541015625">
        <ele>279.79998779296875</ele>
        <time>2020-02-22T08:43:57.000Z</time>
      </trkpt>
      <trkpt lat="38.15200061537325382232666015625" lon="-1.36173446662724018096923828125">
        <ele>280.20001220703125</ele>
        <time>2020-02-22T08:44:00.000Z</time>
      </trkpt>
      <trkpt lat="38.15207923762500286102294921875" lon="-1.36184795759618282318115234375">
        <ele>280.79998779296875</ele>
        <time>2020-02-22T08:44:03.000Z</time>
      </trkpt>
      <trkpt lat="38.1521576084196567535400390625" lon="-1.361950971186161041259765625">
        <ele>281.399993896484375</ele>
        <time>2020-02-22T08:44:06.000Z</time>
      </trkpt>
      <trkpt lat="38.1522048823535442352294921875" lon="-1.3620083034038543701171875">
        <ele>282.20001220703125</ele>
        <time>2020-02-22T08:44:08.000Z</time>
      </trkpt>
      <trkpt lat="38.1522290222346782684326171875" lon="-1.3620326109230518341064453125">
        <ele>282.399993896484375</ele>
        <time>2020-02-22T08:44:09.000Z</time>
      </trkpt>
      <trkpt lat="38.1522642262279987335205078125" lon="-1.3621221296489238739013671875">
        <ele>283</ele>
        <time>2020-02-22T08:44:12.000Z</time>
      </trkpt>
      <trkpt lat="38.1522846780717372894287109375" lon="-1.362175606191158294677734375">
        <ele>283.20001220703125</ele>
        <time>2020-02-22T08:44:13.000Z</time>
      </trkpt>
      <trkpt lat="38.15230420790612697601318359375" lon="-1.362392865121364593505859375">
        <ele>283.79998779296875</ele>
        <time>2020-02-22T08:44:16.000Z</time>
      </trkpt>
      <trkpt lat="38.15231032669544219970703125" lon="-1.36279896833002567291259765625">
        <ele>283.79998779296875</ele>
        <time>2020-02-22T08:44:21.000Z</time>
      </trkpt>
      <trkpt lat="38.1523141823709011077880859375" lon="-1.363230384886264801025390625">
        <ele>283.20001220703125</ele>
        <time>2020-02-22T08:44:27.000Z</time>
      </trkpt>
      <trkpt lat="38.1522923894226551055908203125" lon="-1.363556943833827972412109375">
        <ele>283.20001220703125</ele>
        <time>2020-02-22T08:44:31.000Z</time>
      </trkpt>
      <trkpt lat="38.15230789594352245330810546875" lon="-1.363705135881900787353515625">
        <ele>283.20001220703125</ele>
        <time>2020-02-22T08:44:33.000Z</time>
      </trkpt>
      <trkpt lat="38.15232985652983188629150390625" lon="-1.36385860852897167205810546875">
        <ele>283.20001220703125</ele>
        <time>2020-02-22T08:44:35.000Z</time>
      </trkpt>
      <trkpt lat="38.15235617570579051971435546875" lon="-1.36406362988054752349853515625">
        <ele>283.600006103515625</ele>
        <time>2020-02-22T08:44:38.000Z</time>
      </trkpt>
      <trkpt lat="38.1523963250219821929931640625" lon="-1.36423042975366115570068359375">
        <ele>284</ele>
        <time>2020-02-22T08:44:41.000Z</time>
      </trkpt>
      <trkpt lat="38.152411915361881256103515625" lon="-1.36428172700107097625732421875">
        <ele>284</ele>
        <time>2020-02-22T08:44:42.000Z</time>
      </trkpt>
      <trkpt lat="38.1524596922099590301513671875" lon="-1.36442841030657291412353515625">
        <ele>284.399993896484375</ele>
        <time>2020-02-22T08:44:45.000Z</time>
      </trkpt>
      <trkpt lat="38.1524841673672199249267578125" lon="-1.36452228762209415435791015625">
        <ele>285</ele>
        <time>2020-02-22T08:44:47.000Z</time>
      </trkpt>
      <trkpt lat="38.152495734393596649169921875" lon="-1.3646568171679973602294921875">
        <ele>285.600006103515625</ele>
        <time>2020-02-22T08:44:50.000Z</time>
      </trkpt>
      <trkpt lat="38.1525686569511890411376953125" lon="-1.36478799395263195037841796875">
        <ele>286.20001220703125</ele>
        <time>2020-02-22T08:44:53.000Z</time>
      </trkpt>
      <trkpt lat="38.1526152603328227996826171875" lon="-1.3649131357669830322265625">
        <ele>287.20001220703125</ele>
        <time>2020-02-22T08:44:56.000Z</time>
      </trkpt>
      <trkpt lat="38.15263495780527591705322265625" lon="-1.364952027797698974609375">
        <ele>287.399993896484375</ele>
        <time>2020-02-22T08:44:57.000Z</time>
      </trkpt>
      <trkpt lat="38.15266462974250316619873046875" lon="-1.36503274552524089813232421875">
        <ele>287.79998779296875</ele>
        <time>2020-02-22T08:45:00.000Z</time>
      </trkpt>
      <trkpt lat="38.15268105827271938323974609375" lon="-1.3650494255125522613525390625">
        <ele>288</ele>
        <time>2020-02-22T08:45:01.000Z</time>
      </trkpt>
      <trkpt lat="38.152683489024639129638671875" lon="-1.3650514371693134307861328125">
        <ele>288.20001220703125</ele>
        <time>2020-02-22T08:45:02.000Z</time>
      </trkpt>
      <trkpt lat="38.152687512338161468505859375" lon="-1.36533600278198719024658203125">
        <ele>290.20001220703125</ele>
        <time>2020-02-22T08:52:24.000Z</time>
      </trkpt>
      <trkpt lat="38.15270620398223400115966796875" lon="-1.36535544879734516143798828125">
        <ele>290.20001220703125</ele>
        <time>2020-02-22T08:52:25.000Z</time>
      </trkpt>
      <trkpt lat="38.15272263251245021820068359375" lon="-1.36538109742105007171630859375">
        <ele>290.20001220703125</ele>
        <time>2020-02-22T08:52:26.000Z</time>
      </trkpt>
      <trkpt lat="38.15275062806904315948486328125" lon="-1.3654292933642864227294921875">
        <ele>290.399993896484375</ele>
        <time>2020-02-22T08:52:28.000Z</time>
      </trkpt>
      <trkpt lat="38.15282271243631839752197265625" lon="-1.3655553571879863739013671875">
        <ele>290.399993896484375</ele>
        <time>2020-02-22T08:52:33.000Z</time>
      </trkpt>
      <trkpt lat="38.15286009572446346282958984375" lon="-1.36560623534023761749267578125">
        <ele>290.600006103515625</ele>
        <time>2020-02-22T08:52:35.000Z</time>
      </trkpt>
      <trkpt lat="38.1528938747942447662353515625" lon="-1.36566960252821445465087890625">
        <ele>290.600006103515625</ele>
        <time>2020-02-22T08:52:37.000Z</time>
      </trkpt>
      <trkpt lat="38.152932263910770416259765625" lon="-1.36572727002203464508056640625">
        <ele>291</ele>
        <time>2020-02-22T08:52:39.000Z</time>
      </trkpt>
      <trkpt lat="38.15300225280225276947021484375" lon="-1.36582466773688793182373046875">
        <ele>291.399993896484375</ele>
        <time>2020-02-22T08:52:42.000Z</time>
      </trkpt>
      <trkpt lat="38.1530427373945713043212890625" lon="-1.3658956624567508697509765625">
        <ele>291.399993896484375</ele>
        <time>2020-02-22T08:52:44.000Z</time>
      </trkpt>
      <trkpt lat="38.153163604438304901123046875" lon="-1.36606070213019847869873046875">
        <ele>291.79998779296875</ele>
        <time>2020-02-22T08:52:49.000Z</time>
      </trkpt>
      <trkpt lat="38.1532204337418079376220703125" lon="-1.36614770628511905670166015625">
        <ele>292</ele>
        <time>2020-02-22T08:52:52.000Z</time>
      </trkpt>
      <trkpt lat="38.1532693840563297271728515625" lon="-1.366208977997303009033203125">
        <ele>292.399993896484375</ele>
        <time>2020-02-22T08:52:54.000Z</time>
      </trkpt>
      <trkpt lat="38.15329209901392459869384765625" lon="-1.3662430085241794586181640625">
        <ele>292.600006103515625</ele>
        <time>2020-02-22T08:52:55.000Z</time>
      </trkpt>
      <trkpt lat="38.15338145010173320770263671875" lon="-1.36638642288744449615478515625">
        <ele>293.20001220703125</ele>
        <time>2020-02-22T08:52:59.000Z</time>
      </trkpt>
      <trkpt lat="38.1534467451274394989013671875" lon="-1.3664907775819301605224609375">
        <ele>293.399993896484375</ele>
        <time>2020-02-22T08:53:02.000Z</time>
      </trkpt>
      <trkpt lat="38.15349494107067584991455078125" lon="-1.36656470596790313720703125">
        <ele>293.79998779296875</ele>
        <time>2020-02-22T08:53:04.000Z</time>
      </trkpt>
      <trkpt lat="38.1535942666232585906982421875" lon="-1.36671482585370540618896484375">
        <ele>294.600006103515625</ele>
        <time>2020-02-22T08:53:08.000Z</time>
      </trkpt>
      <trkpt lat="38.15364732407033443450927734375" lon="-1.3667750917375087738037109375">
        <ele>294.600006103515625</ele>
        <time>2020-02-22T08:53:10.000Z</time>
      </trkpt>
      <trkpt lat="38.15375511534512042999267578125" lon="-1.36694583110511302947998046875">
        <ele>295.600006103515625</ele>
        <time>2020-02-22T08:53:15.000Z</time>
      </trkpt>
      <trkpt lat="38.153778500854969024658203125" lon="-1.3669886626303195953369140625">
        <ele>295.79998779296875</ele>
        <time>2020-02-22T08:53:16.000Z</time>
      </trkpt>
      <trkpt lat="38.15385787747800350189208984375" lon="-1.36710408143699169158935546875">
        <ele>296.79998779296875</ele>
        <time>2020-02-22T08:53:20.000Z</time>
      </trkpt>
      <trkpt lat="38.153868019580841064453125" lon="-1.36712822131812572479248046875">
        <ele>297</ele>
        <time>2020-02-22T08:53:21.000Z</time>
      </trkpt>
      <trkpt lat="38.15387279726564884185791015625" lon="-1.36714146472513675689697265625">
        <ele>297.399993896484375</ele>
        <time>2020-02-22T08:53:22.000Z</time>
      </trkpt>
      <trkpt lat="38.1538976915180683135986328125" lon="-1.36721287854015827178955078125">
        <ele>297.79998779296875</ele>
        <time>2020-02-22T08:53:25.000Z</time>
      </trkpt>
      <trkpt lat="38.1539003737270832061767578125" lon="-1.36723064817488193511962890625">
        <ele>298</ele>
        <time>2020-02-22T08:53:26.000Z</time>
      </trkpt>
      <trkpt lat="38.15392660908401012420654296875" lon="-1.36730206198990345001220703125">
        <ele>299</ele>
        <time>2020-02-22T08:53:29.000Z</time>
      </trkpt>
      <trkpt lat="38.1539536826312541961669921875" lon="-1.36734665371477603912353515625">
        <ele>299.600006103515625</ele>
        <time>2020-02-22T08:53:31.000Z</time>
      </trkpt>
      <trkpt lat="38.1539659202098846435546875" lon="-1.36737397871911525726318359375">
        <ele>300</ele>
        <time>2020-02-22T08:53:32.000Z</time>
      </trkpt>
      <trkpt lat="38.1539764814078807830810546875" lon="-1.36739979498088359832763671875">
        <ele>300.20001220703125</ele>
        <time>2020-02-22T08:53:33.000Z</time>
      </trkpt>
      <trkpt lat="38.15400338731706142425537109375" lon="-1.3674397766590118408203125">
        <ele>300.399993896484375</ele>
        <time>2020-02-22T08:53:35.000Z</time>
      </trkpt>
      <trkpt lat="38.1540304608643054962158203125" lon="-1.3674728013575077056884765625">
        <ele>300.79998779296875</ele>
        <time>2020-02-22T08:53:37.000Z</time>
      </trkpt>
      <trkpt lat="38.15407211892306804656982421875" lon="-1.3675281219184398651123046875">
        <ele>301.20001220703125</ele>
        <time>2020-02-22T08:53:40.000Z</time>
      </trkpt>
      <trkpt lat="38.154086954891681671142578125" lon="-1.36754773557186126708984375">
        <ele>301.399993896484375</ele>
        <time>2020-02-22T08:53:41.000Z</time>
      </trkpt>
      <trkpt lat="38.1541206501424312591552734375" lon="-1.36759869754314422607421875">
        <ele>301.79998779296875</ele>
        <time>2020-02-22T08:53:43.000Z</time>
      </trkpt>
      <trkpt lat="38.154182173311710357666015625" lon="-1.36770523153245449066162109375">
        <ele>302.399993896484375</ele>
        <time>2020-02-22T08:53:47.000Z</time>
      </trkpt>
      <trkpt lat="38.154208995401859283447265625" lon="-1.3677812553942203521728515625">
        <ele>302.79998779296875</ele>
        <time>2020-02-22T08:53:50.000Z</time>
      </trkpt>
      <trkpt lat="38.1542906351387500762939453125" lon="-1.36784235946834087371826171875">
        <ele>303.399993896484375</ele>
        <time>2020-02-22T08:53:53.000Z</time>
      </trkpt>
      <trkpt lat="38.154331706464290618896484375" lon="-1.3679016195237636566162109375">
        <ele>304</ele>
        <time>2020-02-22T08:53:56.000Z</time>
      </trkpt>
      <trkpt lat="38.1543737836182117462158203125" lon="-1.3679358176887035369873046875">
        <ele>304.600006103515625</ele>
        <time>2020-02-22T08:53:58.000Z</time>
      </trkpt>
      <trkpt lat="38.15443086437880992889404296875" lon="-1.3680068962275981903076171875">
        <ele>305</ele>
        <time>2020-02-22T08:54:01.000Z</time>
      </trkpt>
      <trkpt lat="38.15446405671536922454833984375" lon="-1.36805274523794651031494140625">
        <ele>305.399993896484375</ele>
        <time>2020-02-22T08:54:03.000Z</time>
      </trkpt>
      <trkpt lat="38.15448132343590259552001953125" lon="-1.3680766336619853973388671875">
        <ele>305.600006103515625</ele>
        <time>2020-02-22T08:54:04.000Z</time>
      </trkpt>
      <trkpt lat="38.1545286811888217926025390625" lon="-1.36814695782959461212158203125">
        <ele>306.399993896484375</ele>
        <time>2020-02-22T08:54:07.000Z</time>
      </trkpt>
      <trkpt lat="38.1545430980622768402099609375" lon="-1.3681693375110626220703125">
        <ele>306.600006103515625</ele>
        <time>2020-02-22T08:54:08.000Z</time>
      </trkpt>
      <trkpt lat="38.15457335673272609710693359375" lon="-1.36821024119853973388671875">
        <ele>306.79998779296875</ele>
        <time>2020-02-22T08:54:10.000Z</time>
      </trkpt>
      <trkpt lat="38.15466270782053470611572265625" lon="-1.36830554343760013580322265625">
        <ele>307.600006103515625</ele>
        <time>2020-02-22T08:54:15.000Z</time>
      </trkpt>
      <trkpt lat="38.15468165092170238494873046875" lon="-1.36832616291940212249755859375">
        <ele>307.79998779296875</ele>
        <time>2020-02-22T08:54:16.000Z</time>
      </trkpt>
      <trkpt lat="38.15473529510200023651123046875" lon="-1.36837863363325595855712890625">
        <ele>308.399993896484375</ele>
        <time>2020-02-22T08:54:19.000Z</time>
      </trkpt>
      <trkpt lat="38.1547466106712818145751953125" lon="-1.368404366075992584228515625">
        <ele>308.79998779296875</ele>
        <time>2020-02-22T08:54:20.000Z</time>
      </trkpt>
      <trkpt lat="38.154835961759090423583984375" lon="-1.36865808628499507904052734375">
        <ele>310</ele>
        <time>2020-02-22T08:54:28.000Z</time>
      </trkpt>
      <trkpt lat="38.15489740110933780670166015625" lon="-1.3688444159924983978271484375">
        <ele>311.20001220703125</ele>
        <time>2020-02-22T08:54:33.000Z</time>
      </trkpt>
      <trkpt lat="38.154903687536716461181640625" lon="-1.36887811124324798583984375">
        <ele>311.399993896484375</ele>
        <time>2020-02-22T08:54:34.000Z</time>
      </trkpt>
      <trkpt lat="38.154944591224193572998046875" lon="-1.3690422289073467254638671875">
        <ele>311.600006103515625</ele>
        <time>2020-02-22T08:54:39.000Z</time>
      </trkpt>
      <trkpt lat="38.15499010495841503143310546875" lon="-1.369249261915683746337890625">
        <ele>311.79998779296875</ele>
        <time>2020-02-22T08:54:45.000Z</time>
      </trkpt>
      <trkpt lat="38.1550161726772785186767578125" lon="-1.36936669237911701202392578125">
        <ele>311.79998779296875</ele>
        <time>2020-02-22T08:54:48.000Z</time>
      </trkpt>
      <trkpt lat="38.155032433569431304931640625" lon="-1.36949510313570499420166015625">
        <ele>312.399993896484375</ele>
        <time>2020-02-22T08:54:51.000Z</time>
      </trkpt>
      <trkpt lat="38.1550550647079944610595703125" lon="-1.36957473121583461761474609375">
        <ele>312.79998779296875</ele>
        <time>2020-02-22T08:54:53.000Z</time>
      </trkpt>
      <trkpt lat="38.15510661341249942779541015625" lon="-1.3698618113994598388671875">
        <ele>313.20001220703125</ele>
        <time>2020-02-22T08:55:00.000Z</time>
      </trkpt>
      <trkpt lat="38.155110217630863189697265625" lon="-1.36990070343017578125">
        <ele>313.20001220703125</ele>
        <time>2020-02-22T08:55:01.000Z</time>
      </trkpt>
      <trkpt lat="38.15510879270732402801513671875" lon="-1.3699917308986186981201171875">
        <ele>313.600006103515625</ele>
        <time>2020-02-22T08:55:04.000Z</time>
      </trkpt>
      <trkpt lat="38.15510242246091365814208984375" lon="-1.370068006217479705810546875">
        <ele>314</ele>
        <time>2020-02-22T08:55:06.000Z</time>
      </trkpt>
      <trkpt lat="38.1551063619554042816162109375" lon="-1.370220221579074859619140625">
        <ele>314.79998779296875</ele>
        <time>2020-02-22T08:55:10.000Z</time>
      </trkpt>
      <trkpt lat="38.15509286709129810333251953125" lon="-1.3703709281980991363525390625">
        <ele>315.600006103515625</ele>
        <time>2020-02-22T08:55:14.000Z</time>
      </trkpt>
      <trkpt lat="38.1550885923206806182861328125" lon="-1.37040537782013416290283203125">
        <ele>315.79998779296875</ele>
        <time>2020-02-22T08:55:15.000Z</time>
      </trkpt>
      <trkpt lat="38.1550543941557407379150390625" lon="-1.37059715576469898223876953125">
        <ele>317</ele>
        <time>2020-02-22T08:55:21.000Z</time>
      </trkpt>
      <trkpt lat="38.1550061143934726715087890625" lon="-1.37074668891727924346923828125">
        <ele>318</ele>
        <time>2020-02-22T08:55:26.000Z</time>
      </trkpt>
      <trkpt lat="38.1549839861690998077392578125" lon="-1.37080636806786060333251953125">
        <ele>318.399993896484375</ele>
        <time>2020-02-22T08:55:28.000Z</time>
      </trkpt>
      <trkpt lat="38.15493218600749969482421875" lon="-1.370970904827117919921875">
        <ele>318.79998779296875</ele>
        <time>2020-02-22T08:55:33.000Z</time>
      </trkpt>
      <trkpt lat="38.154894299805164337158203125" lon="-1.37103100307285785675048828125">
        <ele>319.20001220703125</ele>
        <time>2020-02-22T08:55:35.000Z</time>
      </trkpt>
      <trkpt lat="38.1548488698899745941162109375" lon="-1.3711434043943881988525390625">
        <ele>320.20001220703125</ele>
        <time>2020-02-22T08:55:39.000Z</time>
      </trkpt>
      <trkpt lat="38.154827915132045745849609375" lon="-1.37120283208787441253662109375">
        <ele>320.600006103515625</ele>
        <time>2020-02-22T08:55:41.000Z</time>
      </trkpt>
      <trkpt lat="38.1547915376722812652587890625" lon="-1.3712909258902072906494140625">
        <ele>321</ele>
        <time>2020-02-22T08:55:44.000Z</time>
      </trkpt>
      <trkpt lat="38.15475993789732456207275390625" lon="-1.37139343656599521636962890625">
        <ele>321.79998779296875</ele>
        <time>2020-02-22T08:55:48.000Z</time>
      </trkpt>
      <trkpt lat="38.15473881550133228302001953125" lon="-1.37145034968852996826171875">
        <ele>322.20001220703125</ele>
        <time>2020-02-22T08:55:50.000Z</time>
      </trkpt>
      <trkpt lat="38.15467863343656063079833984375" lon="-1.3715812750160694122314453125">
        <ele>323.399993896484375</ele>
        <time>2020-02-22T08:55:54.000Z</time>
      </trkpt>
      <trkpt lat="38.154599927365779876708984375" lon="-1.37169099412858486175537109375">
        <ele>324.20001220703125</ele>
        <time>2020-02-22T08:55:58.000Z</time>
      </trkpt>
      <trkpt lat="38.15457888878881931304931640625" lon="-1.3717217557132244110107421875">
        <ele>324</ele>
        <time>2020-02-22T08:55:59.000Z</time>
      </trkpt>
      <trkpt lat="38.15453630872070789337158203125" lon="-1.37178570963442325592041015625">
        <ele>324.20001220703125</ele>
        <time>2020-02-22T08:56:01.000Z</time>
      </trkpt>
      <trkpt lat="38.1544995121657848358154296875" lon="-1.37184823863208293914794921875">
        <ele>324.20001220703125</ele>
        <time>2020-02-22T08:56:03.000Z</time>
      </trkpt>
      <trkpt lat="38.1544438563287258148193359375" lon="-1.37194982729852199554443359375">
        <ele>323.79998779296875</ele>
        <time>2020-02-22T08:56:06.000Z</time>
      </trkpt>
      <trkpt lat="38.15440722741186618804931640625" lon="-1.37202861718833446502685546875">
        <ele>323.600006103515625</ele>
        <time>2020-02-22T08:56:08.000Z</time>
      </trkpt>
      <trkpt lat="38.15437696874141693115234375" lon="-1.37211360968649387359619140625">
        <ele>323.600006103515625</ele>
        <time>2020-02-22T08:56:10.000Z</time>
      </trkpt>
      <trkpt lat="38.1542386673390865325927734375" lon="-1.3724003545939922332763671875">
        <ele>323.399993896484375</ele>
        <time>2020-02-22T08:56:17.000Z</time>
      </trkpt>
      <trkpt lat="38.154017217457294464111328125" lon="-1.3726752810180187225341796875">
        <ele>323</ele>
        <time>2020-02-22T08:56:25.000Z</time>
      </trkpt>
      <trkpt lat="38.1537833623588085174560546875" lon="-1.37295766733586788177490234375">
        <ele>323.20001220703125</ele>
        <time>2020-02-22T08:56:34.000Z</time>
      </trkpt>
      <trkpt lat="38.15375075675547122955322265625" lon="-1.3730719126760959625244140625">
        <ele>323.399993896484375</ele>
        <time>2020-02-22T08:56:37.000Z</time>
      </trkpt>
      <trkpt lat="38.15374170430004596710205078125" lon="-1.37314617633819580078125">
        <ele>323.600006103515625</ele>
        <time>2020-02-22T08:56:39.000Z</time>
      </trkpt>
      <trkpt lat="38.1537327356636524200439453125" lon="-1.37322404421865940093994140625">
        <ele>323.600006103515625</ele>
        <time>2020-02-22T08:56:41.000Z</time>
      </trkpt>
      <trkpt lat="38.1537310592830181121826171875" lon="-1.37334591709077358245849609375">
        <ele>324</ele>
        <time>2020-02-22T08:56:44.000Z</time>
      </trkpt>
      <trkpt lat="38.15373835153877735137939453125" lon="-1.3734216056764125823974609375">
        <ele>324.20001220703125</ele>
        <time>2020-02-22T08:56:46.000Z</time>
      </trkpt>
      <trkpt lat="38.15374262630939483642578125" lon="-1.37346074916422367095947265625">
        <ele>324.20001220703125</ele>
        <time>2020-02-22T08:56:47.000Z</time>
      </trkpt>
      <trkpt lat="38.15375058911740779876708984375" lon="-1.373533420264720916748046875">
        <ele>324.600006103515625</ele>
        <time>2020-02-22T08:56:49.000Z</time>
      </trkpt>
      <trkpt lat="38.15377657301723957061767578125" lon="-1.37368555180728435516357421875">
        <ele>325</ele>
        <time>2020-02-22T08:56:54.000Z</time>
      </trkpt>
      <trkpt lat="38.15378822386264801025390625" lon="-1.37377984821796417236328125">
        <ele>325.600006103515625</ele>
        <time>2020-02-22T08:56:57.000Z</time>
      </trkpt>
      <trkpt lat="38.15377053804695606231689453125" lon="-1.37392871081829071044921875">
        <ele>326.79998779296875</ele>
        <time>2020-02-22T08:57:01.000Z</time>
      </trkpt>
      <trkpt lat="38.15362871624529361724853515625" lon="-1.37410565279424190521240234375">
        <ele>327.399993896484375</ele>
        <time>2020-02-22T08:57:06.000Z</time>
      </trkpt>
      <trkpt lat="38.1535624153912067413330078125" lon="-1.37417354620993137359619140625">
        <ele>327.79998779296875</ele>
        <time>2020-02-22T08:57:08.000Z</time>
      </trkpt>
      <trkpt lat="38.1534866429865360260009765625" lon="-1.37429323978722095489501953125">
        <ele>328.20001220703125</ele>
        <time>2020-02-22T08:57:12.000Z</time>
      </trkpt>
      <trkpt lat="38.15349376760423183441162109375" lon="-1.37444428168237209320068359375">
        <ele>328.600006103515625</ele>
        <time>2020-02-22T08:57:17.000Z</time>
      </trkpt>
      <trkpt lat="38.1535188294947147369384765625" lon="-1.37449893169105052947998046875">
        <ele>328.79998779296875</ele>
        <time>2020-02-22T08:57:19.000Z</time>
      </trkpt>
      <trkpt lat="38.15353341400623321533203125" lon="-1.37452491559088230133056640625">
        <ele>329</ele>
        <time>2020-02-22T08:57:20.000Z</time>
      </trkpt>
      <trkpt lat="38.153567947447299957275390625" lon="-1.37457252480089664459228515625">
        <ele>329</ele>
        <time>2020-02-22T08:57:22.000Z</time>
      </trkpt>
      <trkpt lat="38.153620250523090362548828125" lon="-1.37467578984797000885009765625">
        <ele>329.600006103515625</ele>
        <time>2020-02-22T08:57:26.000Z</time>
      </trkpt>
      <trkpt lat="38.1536328233778476715087890625" lon="-1.37469775043427944183349609375">
        <ele>330</ele>
        <time>2020-02-22T08:57:27.000Z</time>
      </trkpt>
      <trkpt lat="38.1536656804382801055908203125" lon="-1.37476623058319091796875">
        <ele>331</ele>
        <time>2020-02-22T08:57:30.000Z</time>
      </trkpt>
      <trkpt lat="38.1536908261477947235107421875" lon="-1.3748448528349399566650390625">
        <ele>332.20001220703125</ele>
        <time>2020-02-22T08:57:33.000Z</time>
      </trkpt>
      <trkpt lat="38.15370532684028148651123046875" lon="-1.3748713396489620208740234375">
        <ele>332.399993896484375</ele>
        <time>2020-02-22T08:57:34.000Z</time>
      </trkpt>
      <trkpt lat="38.15375729463994503021240234375" lon="-1.375014670193195343017578125">
        <ele>333.399993896484375</ele>
        <time>2020-02-22T08:57:39.000Z</time>
      </trkpt>
      <trkpt lat="38.1537619046866893768310546875" lon="-1.37506638653576374053955078125">
        <ele>334</ele>
        <time>2020-02-22T08:57:41.000Z</time>
      </trkpt>
      <trkpt lat="38.1537706218659877777099609375" lon="-1.37512371875345706939697265625">
        <ele>334.399993896484375</ele>
        <time>2020-02-22T08:57:43.000Z</time>
      </trkpt>
      <trkpt lat="38.1537679396569728851318359375" lon="-1.37525682337582111358642578125">
        <ele>335.399993896484375</ele>
        <time>2020-02-22T08:57:48.000Z</time>
      </trkpt>
      <trkpt lat="38.1537593901157379150390625" lon="-1.37528649531304836273193359375">
        <ele>335.600006103515625</ele>
        <time>2020-02-22T08:57:49.000Z</time>
      </trkpt>
      <trkpt lat="38.153674900531768798828125" lon="-1.3754376210272312164306640625">
        <ele>336.20001220703125</ele>
        <time>2020-02-22T08:57:55.000Z</time>
      </trkpt>
      <trkpt lat="38.1536586396396160125732421875" lon="-1.37546050362288951873779296875">
        <ele>336.600006103515625</ele>
        <time>2020-02-22T08:57:56.000Z</time>
      </trkpt>
      <trkpt lat="38.153590746223926544189453125" lon="-1.3755482621490955352783203125">
        <ele>337.600006103515625</ele>
        <time>2020-02-22T08:58:00.000Z</time>
      </trkpt>
      <trkpt lat="38.15352377481758594512939453125" lon="-1.375627554953098297119140625">
        <ele>338.20001220703125</ele>
        <time>2020-02-22T08:58:04.000Z</time>
      </trkpt>
      <trkpt lat="38.15350793302059173583984375" lon="-1.37564775533974170684814453125">
        <ele>338.600006103515625</ele>
        <time>2020-02-22T08:58:05.000Z</time>
      </trkpt>
      <trkpt lat="38.153442554175853729248046875" lon="-1.37573224492371082305908203125">
        <ele>339.600006103515625</ele>
        <time>2020-02-22T08:58:09.000Z</time>
      </trkpt>
      <trkpt lat="38.1533811986446380615234375" lon="-1.3758163154125213623046875">
        <ele>340</ele>
        <time>2020-02-22T08:58:13.000Z</time>
      </trkpt>
      <trkpt lat="38.1533230282366275787353515625" lon="-1.37590440921485424041748046875">
        <ele>340.600006103515625</ele>
        <time>2020-02-22T08:58:17.000Z</time>
      </trkpt>
      <trkpt lat="38.15330006182193756103515625" lon="-1.3759522698819637298583984375">
        <ele>341</ele>
        <time>2020-02-22T08:58:19.000Z</time>
      </trkpt>
      <trkpt lat="38.1532915122807025909423828125" lon="-1.3759733922779560089111328125">
        <ele>341.79998779296875</ele>
        <time>2020-02-22T08:58:20.000Z</time>
      </trkpt>
      <trkpt lat="38.153265528380870819091796875" lon="-1.37607959099113941192626953125">
        <ele>343</ele>
        <time>2020-02-22T08:58:25.000Z</time>
      </trkpt>
      <trkpt lat="38.15322521142661571502685546875" lon="-1.37626701034605503082275390625">
        <ele>344</ele>
        <time>2020-02-22T08:58:32.000Z</time>
      </trkpt>
      <trkpt lat="38.1532190926373004913330078125" lon="-1.376408077776432037353515625">
        <ele>345.20001220703125</ele>
        <time>2020-02-22T08:58:37.000Z</time>
      </trkpt>
      <trkpt lat="38.153209201991558074951171875" lon="-1.3764707744121551513671875">
        <ele>345.79998779296875</ele>
        <time>2020-02-22T08:58:39.000Z</time>
      </trkpt>
      <trkpt lat="38.15318698994815349578857421875" lon="-1.3765594549477100372314453125">
        <ele>346.399993896484375</ele>
        <time>2020-02-22T08:58:42.000Z</time>
      </trkpt>
      <trkpt lat="38.15315798856317996978759765625" lon="-1.3766643963754177093505859375">
        <ele>347.399993896484375</ele>
        <time>2020-02-22T08:58:46.000Z</time>
      </trkpt>
      <trkpt lat="38.1531513668596744537353515625" lon="-1.37668996118009090423583984375">
        <ele>347.79998779296875</ele>
        <time>2020-02-22T08:58:47.000Z</time>
      </trkpt>
      <trkpt lat="38.15312328748404979705810546875" lon="-1.3767626322805881500244140625">
        <ele>349</ele>
        <time>2020-02-22T08:58:50.000Z</time>
      </trkpt>
      <trkpt lat="38.15307802520692348480224609375" lon="-1.37685709632933139801025390625">
        <ele>350.20001220703125</ele>
        <time>2020-02-22T08:58:54.000Z</time>
      </trkpt>
      <trkpt lat="38.15302605740725994110107421875" lon="-1.37696497142314910888671875">
        <ele>351.399993896484375</ele>
        <time>2020-02-22T08:58:58.000Z</time>
      </trkpt>
      <trkpt lat="38.153002671897411346435546875" lon="-1.37705088593065738677978515625">
        <ele>352</ele>
        <time>2020-02-22T08:59:01.000Z</time>
      </trkpt>
      <trkpt lat="38.152987919747829437255859375" lon="-1.37711257673799991607666015625">
        <ele>352.600006103515625</ele>
        <time>2020-02-22T08:59:03.000Z</time>
      </trkpt>
      <trkpt lat="38.15293637104332447052001953125" lon="-1.37725976295769214630126953125">
        <ele>353.79998779296875</ele>
        <time>2020-02-22T08:59:08.000Z</time>
      </trkpt>
      <trkpt lat="38.15287627279758453369140625" lon="-1.377347521483898162841796875">
        <ele>354.79998779296875</ele>
        <time>2020-02-22T08:59:12.000Z</time>
      </trkpt>
      <trkpt lat="38.15282371826469898223876953125" lon="-1.37741365469992160797119140625">
        <ele>355.399993896484375</ele>
        <time>2020-02-22T08:59:15.000Z</time>
      </trkpt>
      <trkpt lat="38.1527507118880748748779296875" lon="-1.3774771057069301605224609375">
        <ele>356</ele>
        <time>2020-02-22T08:59:19.000Z</time>
      </trkpt>
      <trkpt lat="38.15269245766103267669677734375" lon="-1.3775195181369781494140625">
        <ele>357</ele>
        <time>2020-02-22T08:59:22.000Z</time>
      </trkpt>
      <trkpt lat="38.15267116762697696685791015625" lon="-1.37753569521009922027587890625">
        <ele>357.20001220703125</ele>
        <time>2020-02-22T08:59:23.000Z</time>
      </trkpt>
      <trkpt lat="38.15257594920694828033447265625" lon="-1.37759797275066375732421875">
        <ele>358.20001220703125</ele>
        <time>2020-02-22T08:59:28.000Z</time>
      </trkpt>
      <trkpt lat="38.15255851484835147857666015625" lon="-1.3776102103292942047119140625">
        <ele>358.600006103515625</ele>
        <time>2020-02-22T08:59:29.000Z</time>
      </trkpt>
      <trkpt lat="38.15251962281763553619384765625" lon="-1.3776373676955699920654296875">
        <ele>359.20001220703125</ele>
        <time>2020-02-22T08:59:31.000Z</time>
      </trkpt>
      <trkpt lat="38.1523993425071239471435546875" lon="-1.377709619700908660888671875">
        <ele>360.20001220703125</ele>
        <time>2020-02-22T08:59:36.000Z</time>
      </trkpt>
      <trkpt lat="38.15237696282565593719482421875" lon="-1.3777195103466510772705078125">
        <ele>360.399993896484375</ele>
        <time>2020-02-22T08:59:37.000Z</time>
      </trkpt>
      <trkpt lat="38.15226648934185504913330078125" lon="-1.3777684606611728668212890625">
        <ele>361.20001220703125</ele>
        <time>2020-02-22T08:59:42.000Z</time>
      </trkpt>
      <trkpt lat="38.15217831172049045562744140625" lon="-1.37779821641743183135986328125">
        <ele>362.20001220703125</ele>
        <time>2020-02-22T08:59:46.000Z</time>
      </trkpt>
      <trkpt lat="38.1521581113338470458984375" lon="-1.37780626304447650909423828125">
        <ele>362.399993896484375</ele>
        <time>2020-02-22T08:59:47.000Z</time>
      </trkpt>
      <trkpt lat="38.15205794759094715118408203125" lon="-1.37785336934030055999755859375">
        <ele>363.399993896484375</ele>
        <time>2020-02-22T08:59:52.000Z</time>
      </trkpt>
      <trkpt lat="38.1520224921405315399169921875" lon="-1.377883292734622955322265625">
        <ele>363.79998779296875</ele>
        <time>2020-02-22T08:59:54.000Z</time>
      </trkpt>
      <trkpt lat="38.15195501782000064849853515625" lon="-1.37794665992259979248046875">
        <ele>364.600006103515625</ele>
        <time>2020-02-22T08:59:58.000Z</time>
      </trkpt>
      <trkpt lat="38.15187203697860240936279296875" lon="-1.37803575955331325531005859375">
        <ele>365.600006103515625</ele>
        <time>2020-02-22T09:00:03.000Z</time>
      </trkpt>
      <trkpt lat="38.151789642870426177978515625" lon="-1.37817674316465854644775390625">
        <ele>366.79998779296875</ele>
        <time>2020-02-22T09:00:09.000Z</time>
      </trkpt>
      <trkpt lat="38.15177698619663715362548828125" lon="-1.378201134502887725830078125">
        <ele>367</ele>
        <time>2020-02-22T09:00:10.000Z</time>
      </trkpt>
      <trkpt lat="38.15175234340131282806396484375" lon="-1.3782732188701629638671875">
        <ele>367.79998779296875</ele>
        <time>2020-02-22T09:00:14.000Z</time>
      </trkpt>
      <trkpt lat="38.15173096954822540283203125" lon="-1.37832946144044399261474609375">
        <ele>368.399993896484375</ele>
        <time>2020-02-22T09:00:17.000Z</time>
      </trkpt>
      <trkpt lat="38.15171780996024608612060546875" lon="-1.3783897273242473602294921875">
        <ele>368.79998779296875</ele>
        <time>2020-02-22T09:00:19.000Z</time>
      </trkpt>
      <trkpt lat="38.1516994535923004150390625" lon="-1.37853867374360561370849609375">
        <ele>370</ele>
        <time>2020-02-22T09:00:24.000Z</time>
      </trkpt>
      <trkpt lat="38.15169216133654117584228515625" lon="-1.37864696793258190155029296875">
        <ele>370.79998779296875</ele>
        <time>2020-02-22T09:00:28.000Z</time>
      </trkpt>
      <trkpt lat="38.15168629400432109832763671875" lon="-1.37867395766079425811767578125">
        <ele>371</ele>
        <time>2020-02-22T09:00:29.000Z</time>
      </trkpt>
      <trkpt lat="38.15163432620465755462646484375" lon="-1.378831453621387481689453125">
        <ele>372.20001220703125</ele>
        <time>2020-02-22T09:00:35.000Z</time>
      </trkpt>
      <trkpt lat="38.15162544138729572296142578125" lon="-1.37885768897831439971923828125">
        <ele>372.399993896484375</ele>
        <time>2020-02-22T09:00:36.000Z</time>
      </trkpt>
      <trkpt lat="38.15160364843904972076416015625" lon="-1.37893371284008026123046875">
        <ele>373.399993896484375</ele>
        <time>2020-02-22T09:00:39.000Z</time>
      </trkpt>
      <trkpt lat="38.15157397650182247161865234375" lon="-1.37903706170618534088134765625">
        <ele>374.399993896484375</ele>
        <time>2020-02-22T09:00:43.000Z</time>
      </trkpt>
      <trkpt lat="38.15155654214322566986083984375" lon="-1.3790939748287200927734375">
        <ele>374.79998779296875</ele>
        <time>2020-02-22T09:00:45.000Z</time>
      </trkpt>
      <trkpt lat="38.15153374336659908294677734375" lon="-1.37917838059365749359130859375">
        <ele>375.399993896484375</ele>
        <time>2020-02-22T09:00:48.000Z</time>
      </trkpt>
      <trkpt lat="38.151491582393646240234375" lon="-1.37931198813021183013916015625">
        <ele>376.399993896484375</ele>
        <time>2020-02-22T09:00:53.000Z</time>
      </trkpt>
      <trkpt lat="38.15146677196025848388671875" lon="-1.379465125501155853271484375">
        <ele>377.600006103515625</ele>
        <time>2020-02-22T09:00:59.000Z</time>
      </trkpt>
      <trkpt lat="38.1514374352991580963134765625" lon="-1.3795923627912998199462890625">
        <ele>378.79998779296875</ele>
        <time>2020-02-22T09:01:04.000Z</time>
      </trkpt>
      <trkpt lat="38.15143517218530178070068359375" lon="-1.37962781824171543121337890625">
        <ele>379.20001220703125</ele>
        <time>2020-02-22T09:01:06.000Z</time>
      </trkpt>
      <trkpt lat="38.15143190324306488037109375" lon="-1.37970149517059326171875">
        <ele>379.79998779296875</ele>
        <time>2020-02-22T09:01:09.000Z</time>
      </trkpt>
      <trkpt lat="38.15141824074089527130126953125" lon="-1.37980802915990352630615234375">
        <ele>380.399993896484375</ele>
        <time>2020-02-22T09:01:13.000Z</time>
      </trkpt>
      <trkpt lat="38.15141505561769008636474609375" lon="-1.37988648377358913421630859375">
        <ele>381</ele>
        <time>2020-02-22T09:01:16.000Z</time>
      </trkpt>
      <trkpt lat="38.15140365622937679290771484375" lon="-1.3799470849335193634033203125">
        <ele>381.399993896484375</ele>
        <time>2020-02-22T09:01:18.000Z</time>
      </trkpt>
      <trkpt lat="38.151370547711849212646484375" lon="-1.38009251095354557037353515625">
        <ele>382.399993896484375</ele>
        <time>2020-02-22T09:01:23.000Z</time>
      </trkpt>
      <trkpt lat="38.15136593766510486602783203125" lon="-1.38012084178626537322998046875">
        <ele>382.399993896484375</ele>
        <time>2020-02-22T09:01:24.000Z</time>
      </trkpt>
      <trkpt lat="38.1513271294534206390380859375" lon="-1.38028663583099842071533203125">
        <ele>383.20001220703125</ele>
        <time>2020-02-22T09:01:30.000Z</time>
      </trkpt>
      <trkpt lat="38.15130558796226978302001953125" lon="-1.380403898656368255615234375">
        <ele>384.20001220703125</ele>
        <time>2020-02-22T09:01:34.000Z</time>
      </trkpt>
      <trkpt lat="38.15129754133522510528564453125" lon="-1.3805049844086170196533203125">
        <ele>384.79998779296875</ele>
        <time>2020-02-22T09:01:38.000Z</time>
      </trkpt>
      <trkpt lat="38.15127574838697910308837890625" lon="-1.38058922253549098968505859375">
        <ele>385.20001220703125</ele>
        <time>2020-02-22T09:01:41.000Z</time>
      </trkpt>
      <trkpt lat="38.15123316831886768341064453125" lon="-1.38072920031845569610595703125">
        <ele>385.79998779296875</ele>
        <time>2020-02-22T09:01:46.000Z</time>
      </trkpt>
      <trkpt lat="38.151226043701171875" lon="-1.38077630661427974700927734375">
        <ele>386.20001220703125</ele>
        <time>2020-02-22T09:01:48.000Z</time>
      </trkpt>
      <trkpt lat="38.15118187107145786285400390625" lon="-1.38087906874716281890869140625">
        <ele>386.600006103515625</ele>
        <time>2020-02-22T09:01:52.000Z</time>
      </trkpt>
      <trkpt lat="38.1510719843208789825439453125" lon="-1.3809830881655216217041015625">
        <ele>387.399993896484375</ele>
        <time>2020-02-22T09:01:56.000Z</time>
      </trkpt>
      <trkpt lat="38.15101121552288532257080078125" lon="-1.38099968433380126953125">
        <ele>387.79998779296875</ele>
        <time>2020-02-22T09:01:58.000Z</time>
      </trkpt>
      <trkpt lat="38.1509620137512683868408203125" lon="-1.3809834234416484832763671875">
        <ele>388</ele>
        <time>2020-02-22T09:02:00.000Z</time>
      </trkpt>
      <trkpt lat="38.1509113870561122894287109375" lon="-1.3808942399919033050537109375">
        <ele>388.399993896484375</ele>
        <time>2020-02-22T09:02:03.000Z</time>
      </trkpt>
      <trkpt lat="38.1508631072938442230224609375" lon="-1.380725093185901641845703125">
        <ele>389.399993896484375</ele>
        <time>2020-02-22T09:02:08.000Z</time>
      </trkpt>
      <trkpt lat="38.15083955414593219757080078125" lon="-1.3806370832026004791259765625">
        <ele>389.79998779296875</ele>
        <time>2020-02-22T09:02:11.000Z</time>
      </trkpt>
      <trkpt lat="38.150761686265468597412109375" lon="-1.380461566150188446044921875">
        <ele>390.20001220703125</ele>
        <time>2020-02-22T09:02:17.000Z</time>
      </trkpt>
      <trkpt lat="38.15074483864009380340576171875" lon="-1.3803980313241481781005859375">
        <ele>390.600006103515625</ele>
        <time>2020-02-22T09:02:19.000Z</time>
      </trkpt>
      <trkpt lat="38.15065674483776092529296875" lon="-1.38023433275520801544189453125">
        <ele>391.20001220703125</ele>
        <time>2020-02-22T09:02:25.000Z</time>
      </trkpt>
      <trkpt lat="38.15063528716564178466796875" lon="-1.38022276572883129119873046875">
        <ele>391.399993896484375</ele>
        <time>2020-02-22T09:02:26.000Z</time>
      </trkpt>
      <trkpt lat="38.150614164769649505615234375" lon="-1.38022142462432384490966796875">
        <ele>391.79998779296875</ele>
        <time>2020-02-22T09:02:27.000Z</time>
      </trkpt>
      <trkpt lat="38.15057384781539440155029296875" lon="-1.38023785315454006195068359375">
        <ele>392.20001220703125</ele>
        <time>2020-02-22T09:02:30.000Z</time>
      </trkpt>
      <trkpt lat="38.1505710817873477935791015625" lon="-1.380256377160549163818359375">
        <ele>392.399993896484375</ele>
        <time>2020-02-22T09:02:31.000Z</time>
      </trkpt>
      <trkpt lat="38.15057921223342418670654296875" lon="-1.3803054951131343841552734375">
        <ele>392.600006103515625</ele>
        <time>2020-02-22T09:02:33.000Z</time>
      </trkpt>
      <trkpt lat="38.15058675594627857208251953125" lon="-1.38033256866037845611572265625">
        <ele>392.79998779296875</ele>
        <time>2020-02-22T09:02:34.000Z</time>
      </trkpt>
      <trkpt lat="38.15059480257332324981689453125" lon="-1.3803588040173053741455078125">
        <ele>392.79998779296875</ele>
        <time>2020-02-22T09:02:35.000Z</time>
      </trkpt>
      <trkpt lat="38.15062296576797962188720703125" lon="-1.38043784536421298980712890625">
        <ele>393.399993896484375</ele>
        <time>2020-02-22T09:02:38.000Z</time>
      </trkpt>
      <trkpt lat="38.15064878202974796295166015625" lon="-1.380509845912456512451171875">
        <ele>394.399993896484375</ele>
        <time>2020-02-22T09:02:41.000Z</time>
      </trkpt>
      <trkpt lat="38.15066621638834476470947265625" lon="-1.3805626519024372100830078125">
        <ele>394.79998779296875</ele>
        <time>2020-02-22T09:02:43.000Z</time>
      </trkpt>
      <trkpt lat="38.15070762299001216888427734375" lon="-1.3806766457855701446533203125">
        <ele>395.600006103515625</ele>
        <time>2020-02-22T09:02:47.000Z</time>
      </trkpt>
      <trkpt lat="38.15076160244643688201904296875" lon="-1.38082358054816722869873046875">
        <ele>396.79998779296875</ele>
        <time>2020-02-22T09:02:52.000Z</time>
      </trkpt>
      <trkpt lat="38.15077132545411586761474609375" lon="-1.38085241429507732391357421875">
        <ele>397</ele>
        <time>2020-02-22T09:02:53.000Z</time>
      </trkpt>
      <trkpt lat="38.15083569847047328948974609375" lon="-1.38101703487336635589599609375">
        <ele>398</ele>
        <time>2020-02-22T09:02:59.000Z</time>
      </trkpt>
      <trkpt lat="38.15084491856396198272705078125" lon="-1.38104033656418323516845703125">
        <ele>398.20001220703125</ele>
        <time>2020-02-22T09:03:00.000Z</time>
      </trkpt>
      <trkpt lat="38.1508912704885005950927734375" lon="-1.38121384195983409881591796875">
        <ele>399</ele>
        <time>2020-02-22T09:03:06.000Z</time>
      </trkpt>
      <trkpt lat="38.15092002041637897491455078125" lon="-1.381276957690715789794921875">
        <ele>399.20001220703125</ele>
        <time>2020-02-22T09:03:08.000Z</time>
      </trkpt>
      <trkpt lat="38.15098875202238559722900390625" lon="-1.3813995011150836944580078125">
        <ele>399.79998779296875</ele>
        <time>2020-02-22T09:03:13.000Z</time>
      </trkpt>
      <trkpt lat="38.15099864266812801361083984375" lon="-1.38142556883394718170166015625">
        <ele>400</ele>
        <time>2020-02-22T09:03:14.000Z</time>
      </trkpt>
      <trkpt lat="38.15110257826745510101318359375" lon="-1.38177526183426380157470703125">
        <ele>400.79998779296875</ele>
        <time>2020-02-22T09:03:23.000Z</time>
      </trkpt>
      <trkpt lat="38.15113945864140987396240234375" lon="-1.38198380358517169952392578125">
        <ele>401.20001220703125</ele>
        <time>2020-02-22T09:03:29.000Z</time>
      </trkpt>
      <trkpt lat="38.15113711170852184295654296875" lon="-1.3821391202509403228759765625">
        <ele>401.399993896484375</ele>
        <time>2020-02-22T09:03:33.000Z</time>
      </trkpt>
      <trkpt lat="38.15113484859466552734375" lon="-1.38218144886195659637451171875">
        <ele>401.399993896484375</ele>
        <time>2020-02-22T09:03:34.000Z</time>
      </trkpt>
      <trkpt lat="38.151140548288822174072265625" lon="-1.38230902142822742462158203125">
        <ele>401.399993896484375</ele>
        <time>2020-02-22T09:03:37.000Z</time>
      </trkpt>
      <trkpt lat="38.15113040618598461151123046875" lon="-1.38247900642454624176025390625">
        <ele>401.600006103515625</ele>
        <time>2020-02-22T09:03:41.000Z</time>
      </trkpt>
      <trkpt lat="38.15106016583740711212158203125" lon="-1.38276902027428150177001953125">
        <ele>401.600006103515625</ele>
        <time>2020-02-22T09:03:47.000Z</time>
      </trkpt>
      <trkpt lat="38.15093728713691234588623046875" lon="-1.382916457951068878173828125">
        <ele>401.79998779296875</ele>
        <time>2020-02-22T09:03:51.000Z</time>
      </trkpt>
      <trkpt lat="38.1508966349065303802490234375" lon="-1.38293179683387279510498046875">
        <ele>401.79998779296875</ele>
        <time>2020-02-22T09:03:52.000Z</time>
      </trkpt>
      <trkpt lat="38.15085128881037235260009765625" lon="-1.3829404301941394805908203125">
        <ele>402</ele>
        <time>2020-02-22T09:03:53.000Z</time>
      </trkpt>
      <trkpt lat="38.1507709063589572906494140625" lon="-1.38292928226292133331298828125">
        <ele>402</ele>
        <time>2020-02-22T09:03:55.000Z</time>
      </trkpt>
      <trkpt lat="38.150692619383335113525390625" lon="-1.38289977796375751495361328125">
        <ele>402.399993896484375</ele>
        <time>2020-02-22T09:03:57.000Z</time>
      </trkpt>
      <trkpt lat="38.15052288584411144256591796875" lon="-1.3828066550195217132568359375">
        <ele>402.600006103515625</ele>
        <time>2020-02-22T09:04:02.000Z</time>
      </trkpt>
      <trkpt lat="38.15038274042308330535888671875" lon="-1.3827070780098438262939453125">
        <ele>403</ele>
        <time>2020-02-22T09:04:07.000Z</time>
      </trkpt>
      <trkpt lat="38.15032423473894596099853515625" lon="-1.3826618157327175140380859375">
        <ele>403.399993896484375</ele>
        <time>2020-02-22T09:04:09.000Z</time>
      </trkpt>
      <trkpt lat="38.1502401642501354217529296875" lon="-1.38258126564323902130126953125">
        <ele>404</ele>
        <time>2020-02-22T09:04:12.000Z</time>
      </trkpt>
      <trkpt lat="38.15007311291992664337158203125" lon="-1.38244179077446460723876953125">
        <ele>405.20001220703125</ele>
        <time>2020-02-22T09:04:18.000Z</time>
      </trkpt>
      <trkpt lat="38.14992978237569332122802734375" lon="-1.3823533616960048675537109375">
        <ele>406.20001220703125</ele>
        <time>2020-02-22T09:04:23.000Z</time>
      </trkpt>
      <trkpt lat="38.1498706899583339691162109375" lon="-1.38232092373073101043701171875">
        <ele>406.399993896484375</ele>
        <time>2020-02-22T09:04:25.000Z</time>
      </trkpt>
      <trkpt lat="38.149842359125614166259765625" lon="-1.38230734504759311676025390625">
        <ele>406.600006103515625</ele>
        <time>2020-02-22T09:04:26.000Z</time>
      </trkpt>
      <trkpt lat="38.149702884256839752197265625" lon="-1.3822920061647891998291015625">
        <ele>407.600006103515625</ele>
        <time>2020-02-22T09:04:31.000Z</time>
      </trkpt>
      <trkpt lat="38.14967413432896137237548828125" lon="-1.38229929842054843902587890625">
        <ele>407.79998779296875</ele>
        <time>2020-02-22T09:04:32.000Z</time>
      </trkpt>
      <trkpt lat="38.14952191896736621856689453125" lon="-1.38234020210802555084228515625">
        <ele>408.79998779296875</ele>
        <time>2020-02-22T09:04:37.000Z</time>
      </trkpt>
      <trkpt lat="38.14946257509291172027587890625" lon="-1.38235193677246570587158203125">
        <ele>409.399993896484375</ele>
        <time>2020-02-22T09:04:39.000Z</time>
      </trkpt>
      <trkpt lat="38.14937842078506946563720703125" lon="-1.3823707960546016693115234375">
        <ele>410</ele>
        <time>2020-02-22T09:04:42.000Z</time>
      </trkpt>
      <trkpt lat="38.1492886506021022796630859375" lon="-1.3823882304131984710693359375">
        <ele>410.399993896484375</ele>
        <time>2020-02-22T09:04:45.000Z</time>
      </trkpt>
      <trkpt lat="38.14914875663816928863525390625" lon="-1.38236652128398418426513671875">
        <ele>411.20001220703125</ele>
        <time>2020-02-22T09:04:49.000Z</time>
      </trkpt>
      <trkpt lat="38.14908924512565135955810546875" lon="-1.38236920349299907684326171875">
        <ele>411.399993896484375</ele>
        <time>2020-02-22T09:04:51.000Z</time>
      </trkpt>
      <trkpt lat="38.14893820323050022125244140625" lon="-1.38237842358648777008056640625">
        <ele>412.20001220703125</ele>
        <time>2020-02-22T09:04:56.000Z</time>
      </trkpt>
      <trkpt lat="38.148846924304962158203125" lon="-1.38238110579550266265869140625">
        <ele>412.79998779296875</ele>
        <time>2020-02-22T09:04:59.000Z</time>
      </trkpt>
      <trkpt lat="38.1487451680004596710205078125" lon="-1.38236803002655506134033203125">
        <ele>413.399993896484375</ele>
        <time>2020-02-22T09:05:02.000Z</time>
      </trkpt>
      <trkpt lat="38.14871138893067836761474609375" lon="-1.3823694549500942230224609375">
        <ele>413.399993896484375</ele>
        <time>2020-02-22T09:05:03.000Z</time>
      </trkpt>
      <trkpt lat="38.1486524641513824462890625" lon="-1.3823610730469226837158203125">
        <ele>413.79998779296875</ele>
        <time>2020-02-22T09:05:05.000Z</time>
      </trkpt>
      <trkpt lat="38.14859387464821338653564453125" lon="-1.38235461898148059844970703125">
        <ele>414</ele>
        <time>2020-02-22T09:05:07.000Z</time>
      </trkpt>
      <trkpt lat="38.148538134992122650146484375" lon="-1.38236668892204761505126953125">
        <ele>414.399993896484375</ele>
        <time>2020-02-22T09:05:09.000Z</time>
      </trkpt>
      <trkpt lat="38.14842020161449909210205078125" lon="-1.38240474276244640350341796875">
        <ele>415.399993896484375</ele>
        <time>2020-02-22T09:05:13.000Z</time>
      </trkpt>
      <trkpt lat="38.14838566817343235015869140625" lon="-1.38242234475910663604736328125">
        <ele>415.600006103515625</ele>
        <time>2020-02-22T09:05:14.000Z</time>
      </trkpt>
      <trkpt lat="38.14832012169063091278076171875" lon="-1.382461823523044586181640625">
        <ele>416</ele>
        <time>2020-02-22T09:05:17.000Z</time>
      </trkpt>
      <trkpt lat="38.14825080335140228271484375" lon="-1.3824824430048465728759765625">
        <ele>416.600006103515625</ele>
        <time>2020-02-22T09:05:20.000Z</time>
      </trkpt>
      <trkpt lat="38.1481534056365489959716796875" lon="-1.3825334049761295318603515625">
        <ele>417</ele>
        <time>2020-02-22T09:05:23.000Z</time>
      </trkpt>
      <trkpt lat="38.1481321156024932861328125" lon="-1.3825501687824726104736328125">
        <ele>417.20001220703125</ele>
        <time>2020-02-22T09:05:24.000Z</time>
      </trkpt>
      <trkpt lat="38.1480628810822963714599609375" lon="-1.382569111883640289306640625">
        <ele>417.79998779296875</ele>
        <time>2020-02-22T09:05:26.000Z</time>
      </trkpt>
      <trkpt lat="38.1479502283036708831787109375" lon="-1.3825877197086811065673828125">
        <ele>418.600006103515625</ele>
        <time>2020-02-22T09:05:29.000Z</time>
      </trkpt>
      <trkpt lat="38.14792298711836338043212890625" lon="-1.38259501196444034576416015625">
        <ele>418.79998779296875</ele>
        <time>2020-02-22T09:05:30.000Z</time>
      </trkpt>
      <trkpt lat="38.14789281226694583892822265625" lon="-1.38259668834507465362548828125">
        <ele>419</ele>
        <time>2020-02-22T09:05:31.000Z</time>
      </trkpt>
      <trkpt lat="38.1478305347263813018798828125" lon="-1.3825987838208675384521484375">
        <ele>419.20001220703125</ele>
        <time>2020-02-22T09:05:32.000Z</time>
      </trkpt>
      <trkpt lat="38.147792480885982513427734375" lon="-1.3825961016118526458740234375">
        <ele>419.399993896484375</ele>
        <time>2020-02-22T09:05:33.000Z</time>
      </trkpt>
      <trkpt lat="38.147731460630893707275390625" lon="-1.38257078826427459716796875">
        <ele>420</ele>
        <time>2020-02-22T09:05:36.000Z</time>
      </trkpt>
      <trkpt lat="38.14771243371069431304931640625" lon="-1.382551006972789764404296875">
        <ele>420.399993896484375</ele>
        <time>2020-02-22T09:05:37.000Z</time>
      </trkpt>
      <trkpt lat="38.1476412713527679443359375" lon="-1.38248252682387828826904296875">
        <ele>421.20001220703125</ele>
        <time>2020-02-22T09:05:41.000Z</time>
      </trkpt>
      <trkpt lat="38.14760095439851284027099609375" lon="-1.3824479095637798309326171875">
        <ele>421.600006103515625</ele>
        <time>2020-02-22T09:05:43.000Z</time>
      </trkpt>
      <trkpt lat="38.14749936573207378387451171875" lon="-1.3824341632425785064697265625">
        <ele>422.399993896484375</ele>
        <time>2020-02-22T09:05:47.000Z</time>
      </trkpt>
      <trkpt lat="38.14744806848466396331787109375" lon="-1.3824475742876529693603515625">
        <ele>422.600006103515625</ele>
        <time>2020-02-22T09:05:49.000Z</time>
      </trkpt>
      <trkpt lat="38.14739249646663665771484375" lon="-1.38253550045192241668701171875">
        <ele>423.399993896484375</ele>
        <time>2020-02-22T09:05:53.000Z</time>
      </trkpt>
      <trkpt lat="38.1474164687097072601318359375" lon="-1.3827225007116794586181640625">
        <ele>424</ele>
        <time>2020-02-22T09:05:58.000Z</time>
      </trkpt>
      <trkpt lat="38.1474245153367519378662109375" lon="-1.3828227482736110687255859375">
        <ele>424.399993896484375</ele>
        <time>2020-02-22T09:06:01.000Z</time>
      </trkpt>
      <trkpt lat="38.14742661081254482269287109375" lon="-1.38290531001985073089599609375">
        <ele>424.79998779296875</ele>
        <time>2020-02-22T09:06:04.000Z</time>
      </trkpt>
      <trkpt lat="38.14743448980152606964111328125" lon="-1.382959373295307159423828125">
        <ele>425</ele>
        <time>2020-02-22T09:06:06.000Z</time>
      </trkpt>
      <trkpt lat="38.147425688803195953369140625" lon="-1.38305165804922580718994140625">
        <ele>425.20001220703125</ele>
        <time>2020-02-22T09:06:09.000Z</time>
      </trkpt>
      <trkpt lat="38.14740012399852275848388671875" lon="-1.38315944932401180267333984375">
        <ele>425.20001220703125</ele>
        <time>2020-02-22T09:06:12.000Z</time>
      </trkpt>
      <trkpt lat="38.1473403610289096832275390625" lon="-1.3833441026508808135986328125">
        <ele>425.399993896484375</ele>
        <time>2020-02-22T09:06:17.000Z</time>
      </trkpt>
      <trkpt lat="38.1472847051918506622314453125" lon="-1.3834718428552150726318359375">
        <ele>425.20001220703125</ele>
        <time>2020-02-22T09:06:21.000Z</time>
      </trkpt>
      <trkpt lat="38.14727154560387134552001953125" lon="-1.38349992223083972930908203125">
        <ele>425.20001220703125</ele>
        <time>2020-02-22T09:06:22.000Z</time>
      </trkpt>
      <trkpt lat="38.14725302159786224365234375" lon="-1.38352624140679836273193359375">
        <ele>425.399993896484375</ele>
        <time>2020-02-22T09:06:23.000Z</time>
      </trkpt>
      <trkpt lat="38.1471727229654788970947265625" lon="-1.38359681703150272369384765625">
        <ele>426.79998779296875</ele>
        <time>2020-02-22T09:06:27.000Z</time>
      </trkpt>
      <trkpt lat="38.1471168994903564453125" lon="-1.3836441747844219207763671875">
        <ele>427.399993896484375</ele>
        <time>2020-02-22T09:06:29.000Z</time>
      </trkpt>
      <trkpt lat="38.14706585370004177093505859375" lon="-1.38369756750762462615966796875">
        <ele>427.79998779296875</ele>
        <time>2020-02-22T09:06:31.000Z</time>
      </trkpt>
      <trkpt lat="38.1470154784619808197021484375" lon="-1.38378985226154327392578125">
        <ele>428.600006103515625</ele>
        <time>2020-02-22T09:06:35.000Z</time>
      </trkpt>
      <trkpt lat="38.1470027379691600799560546875" lon="-1.38382203876972198486328125">
        <ele>428.79998779296875</ele>
        <time>2020-02-22T09:06:36.000Z</time>
      </trkpt>
      <trkpt lat="38.146926127374172210693359375" lon="-1.38398271985352039337158203125">
        <ele>430.20001220703125</ele>
        <time>2020-02-22T09:06:40.000Z</time>
      </trkpt>
      <trkpt lat="38.1469330005347728729248046875" lon="-1.38406620360910892486572265625">
        <ele>431.20001220703125</ele>
        <time>2020-02-22T09:06:44.000Z</time>
      </trkpt>
      <trkpt lat="38.14693710766732692718505859375" lon="-1.3840981386601924896240234375">
        <ele>431.399993896484375</ele>
        <time>2020-02-22T09:06:45.000Z</time>
      </trkpt>
      <trkpt lat="38.1469387002289295196533203125" lon="-1.38413962908089160919189453125">
        <ele>431.600006103515625</ele>
        <time>2020-02-22T09:06:46.000Z</time>
      </trkpt>
      <trkpt lat="38.14699695445597171783447265625" lon="-1.3843113742768764495849609375">
        <ele>432.399993896484375</ele>
        <time>2020-02-22T09:06:51.000Z</time>
      </trkpt>
      <trkpt lat="38.14701539464294910430908203125" lon="-1.384343393146991729736328125">
        <ele>432.399993896484375</ele>
        <time>2020-02-22T09:06:52.000Z</time>
      </trkpt>
      <trkpt lat="38.14703752286732196807861328125" lon="-1.38437398709356784820556640625">
        <ele>432.399993896484375</ele>
        <time>2020-02-22T09:06:53.000Z</time>
      </trkpt>
      <trkpt lat="38.1471638381481170654296875" lon="-1.3845497556030750274658203125">
        <ele>432.600006103515625</ele>
        <time>2020-02-22T09:06:59.000Z</time>
      </trkpt>
      <trkpt lat="38.147188313305377960205078125" lon="-1.38457573950290679931640625">
        <ele>432.600006103515625</ele>
        <time>2020-02-22T09:07:00.000Z</time>
      </trkpt>
      <trkpt lat="38.147238604724407196044921875" lon="-1.38462494127452373504638671875">
        <ele>432.600006103515625</ele>
        <time>2020-02-22T09:07:02.000Z</time>
      </trkpt>
      <trkpt lat="38.14736609347164630889892578125" lon="-1.38476307503879070281982421875">
        <ele>432.600006103515625</ele>
        <time>2020-02-22T09:07:07.000Z</time>
      </trkpt>
      <trkpt lat="38.14746466465294361114501953125" lon="-1.38482007198035717010498046875">
        <ele>432.600006103515625</ele>
        <time>2020-02-22T09:07:10.000Z</time>
      </trkpt>
      <trkpt lat="38.1476064026355743408203125" lon="-1.3848967663943767547607421875">
        <ele>432.600006103515625</ele>
        <time>2020-02-22T09:07:14.000Z</time>
      </trkpt>
      <trkpt lat="38.14770673401653766632080078125" lon="-1.3849577866494655609130859375">
        <ele>432.600006103515625</ele>
        <time>2020-02-22T09:07:17.000Z</time>
      </trkpt>
      <trkpt lat="38.14782139845192432403564453125" lon="-1.3850000314414501190185546875">
        <ele>432.399993896484375</ele>
        <time>2020-02-22T09:07:20.000Z</time>
      </trkpt>
      <trkpt lat="38.14786364324390888214111328125" lon="-1.3850027136504650115966796875">
        <ele>432.399993896484375</ele>
        <time>2020-02-22T09:07:21.000Z</time>
      </trkpt>
      <trkpt lat="38.1480489671230316162109375" lon="-1.384968347847461700439453125">
        <ele>432.20001220703125</ele>
        <time>2020-02-22T09:07:25.000Z</time>
      </trkpt>
      <trkpt lat="38.148212917149066925048828125" lon="-1.38492752797901630401611328125">
        <ele>432</ele>
        <time>2020-02-22T09:07:28.000Z</time>
      </trkpt>
      <trkpt lat="38.14826983027160167694091796875" lon="-1.384934149682521820068359375">
        <ele>431.399993896484375</ele>
        <time>2020-02-22T09:07:29.000Z</time>
      </trkpt>
      <trkpt lat="38.14832816831767559051513671875" lon="-1.38495736755430698394775390625">
        <ele>431.20001220703125</ele>
        <time>2020-02-22T09:07:30.000Z</time>
      </trkpt>
      <trkpt lat="38.14850318245589733123779296875" lon="-1.385104469954967498779296875">
        <ele>430.20001220703125</ele>
        <time>2020-02-22T09:07:33.000Z</time>
      </trkpt>
      <trkpt lat="38.14855992794036865234375" lon="-1.385164819657802581787109375">
        <ele>429.79998779296875</ele>
        <time>2020-02-22T09:07:34.000Z</time>
      </trkpt>
      <trkpt lat="38.1487126462161540985107421875" lon="-1.38534360565245151519775390625">
        <ele>428.600006103515625</ele>
        <time>2020-02-22T09:07:37.000Z</time>
      </trkpt>
      <trkpt lat="38.1487860716879367828369140625" lon="-1.3854754529893398284912109375">
        <ele>427.79998779296875</ele>
        <time>2020-02-22T09:07:39.000Z</time>
      </trkpt>
      <trkpt lat="38.14880593679845333099365234375" lon="-1.38554175384342670440673828125">
        <ele>427.600006103515625</ele>
        <time>2020-02-22T09:07:40.000Z</time>
      </trkpt>
      <trkpt lat="38.1487887538969516754150390625" lon="-1.3857419975101947784423828125">
        <ele>426.399993896484375</ele>
        <time>2020-02-22T09:07:43.000Z</time>
      </trkpt>
      <trkpt lat="38.14872748218476772308349609375" lon="-1.38598800636827945709228515625">
        <ele>425.600006103515625</ele>
        <time>2020-02-22T09:07:47.000Z</time>
      </trkpt>
      <trkpt lat="38.14870082773268222808837890625" lon="-1.38604802079498767852783203125">
        <ele>425.600006103515625</ele>
        <time>2020-02-22T09:07:48.000Z</time>
      </trkpt>
      <trkpt lat="38.14868154935538768768310546875" lon="-1.38610920868813991546630859375">
        <ele>425.600006103515625</ele>
        <time>2020-02-22T09:07:49.000Z</time>
      </trkpt>
      <trkpt lat="38.14868607558310031890869140625" lon="-1.3862700574100017547607421875">
        <ele>425.600006103515625</ele>
        <time>2020-02-22T09:07:52.000Z</time>
      </trkpt>
      <trkpt lat="38.1487543880939483642578125" lon="-1.3863894157111644744873046875">
        <ele>425.79998779296875</ele>
        <time>2020-02-22T09:07:55.000Z</time>
      </trkpt>
      <trkpt lat="38.14877919852733612060546875" lon="-1.38643325306475162506103515625">
        <ele>426</ele>
        <time>2020-02-22T09:07:56.000Z</time>
      </trkpt>
      <trkpt lat="38.14888606779277324676513671875" lon="-1.3864876516163349151611328125">
        <ele>426.20001220703125</ele>
        <time>2020-02-22T09:07:59.000Z</time>
      </trkpt>
      <trkpt lat="38.14892780967056751251220703125" lon="-1.38647583313286304473876953125">
        <ele>426.20001220703125</ele>
        <time>2020-02-22T09:08:00.000Z</time>
      </trkpt>
      <trkpt lat="38.148979358375072479248046875" lon="-1.3864685408771038055419921875">
        <ele>426.20001220703125</ele>
        <time>2020-02-22T09:08:01.000Z</time>
      </trkpt>
      <trkpt lat="38.14909569919109344482421875" lon="-1.386513970792293548583984375">
        <ele>426.20001220703125</ele>
        <time>2020-02-22T09:08:03.000Z</time>
      </trkpt>
      <trkpt lat="38.149250932037830352783203125" lon="-1.38667398132383823394775390625">
        <ele>426.20001220703125</ele>
        <time>2020-02-22T09:08:06.000Z</time>
      </trkpt>
      <trkpt lat="38.14929812215268611907958984375" lon="-1.386743970215320587158203125">
        <ele>425.79998779296875</ele>
        <time>2020-02-22T09:08:07.000Z</time>
      </trkpt>
      <trkpt lat="38.149348162114620208740234375" lon="-1.38680993579328060150146484375">
        <ele>425.600006103515625</ele>
        <time>2020-02-22T09:08:08.000Z</time>
      </trkpt>
      <trkpt lat="38.14939878880977630615234375" lon="-1.38687782920897006988525390625">
        <ele>425.399993896484375</ele>
        <time>2020-02-22T09:08:09.000Z</time>
      </trkpt>
      <trkpt lat="38.14956349320709705352783203125" lon="-1.38709357939660549163818359375">
        <ele>424.20001220703125</ele>
        <time>2020-02-22T09:08:12.000Z</time>
      </trkpt>
      <trkpt lat="38.1497275270521640777587890625" lon="-1.3872936554253101348876953125">
        <ele>422.79998779296875</ele>
        <time>2020-02-22T09:08:15.000Z</time>
      </trkpt>
      <trkpt lat="38.149795420467853546142578125" lon="-1.38755676336586475372314453125">
        <ele>421.399993896484375</ele>
        <time>2020-02-22T09:08:18.000Z</time>
      </trkpt>
      <trkpt lat="38.1498100049793720245361328125" lon="-1.387744434177875518798828125">
        <ele>420.600006103515625</ele>
        <time>2020-02-22T09:08:20.000Z</time>
      </trkpt>
      <trkpt lat="38.14980656839907169342041015625" lon="-1.38784174807369709014892578125">
        <ele>420</ele>
        <time>2020-02-22T09:08:21.000Z</time>
      </trkpt>
      <trkpt lat="38.149790726602077484130859375" lon="-1.38793378137052059173583984375">
        <ele>419.600006103515625</ele>
        <time>2020-02-22T09:08:22.000Z</time>
      </trkpt>
      <trkpt lat="38.14973884262144565582275390625" lon="-1.38807979412376880645751953125">
        <ele>419</ele>
        <time>2020-02-22T09:08:24.000Z</time>
      </trkpt>
      <trkpt lat="38.14969785511493682861328125" lon="-1.38813092373311519622802734375">
        <ele>418.600006103515625</ele>
        <time>2020-02-22T09:08:25.000Z</time>
      </trkpt>
      <trkpt lat="38.1496529281139373779296875" lon="-1.38816847465932369232177734375">
        <ele>418</ele>
        <time>2020-02-22T09:08:26.000Z</time>
      </trkpt>
      <trkpt lat="38.149572797119617462158203125" lon="-1.38826000504195690155029296875">
        <ele>416.79998779296875</ele>
        <time>2020-02-22T09:08:28.000Z</time>
      </trkpt>
      <trkpt lat="38.14956374466419219970703125" lon="-1.3883085362613201141357421875">
        <ele>416.399993896484375</ele>
        <time>2020-02-22T09:08:29.000Z</time>
      </trkpt>
      <trkpt lat="38.14958746545016765594482421875" lon="-1.3884232006967067718505859375">
        <ele>415.79998779296875</ele>
        <time>2020-02-22T09:08:31.000Z</time>
      </trkpt>
      <trkpt lat="38.14960992895066738128662109375" lon="-1.38848497532308101654052734375">
        <ele>415.600006103515625</ele>
        <time>2020-02-22T09:08:32.000Z</time>
      </trkpt>
      <trkpt lat="38.1497308798134326934814453125" lon="-1.38865672051906585693359375">
        <ele>414.399993896484375</ele>
        <time>2020-02-22T09:08:35.000Z</time>
      </trkpt>
      <trkpt lat="38.14989642240107059478759765625" lon="-1.3887329958379268646240234375">
        <ele>413.399993896484375</ele>
        <time>2020-02-22T09:08:38.000Z</time>
      </trkpt>
      <trkpt lat="38.14995978958904743194580078125" lon="-1.3887517713010311126708984375">
        <ele>413</ele>
        <time>2020-02-22T09:08:39.000Z</time>
      </trkpt>
      <trkpt lat="38.15026002936065196990966796875" lon="-1.388838104903697967529296875">
        <ele>412.20001220703125</ele>
        <time>2020-02-22T09:08:43.000Z</time>
      </trkpt>
      <trkpt lat="38.15034183673560619354248046875" lon="-1.388876326382160186767578125">
        <ele>412</ele>
        <time>2020-02-22T09:08:44.000Z</time>
      </trkpt>
      <trkpt lat="38.15056823194026947021484375" lon="-1.38904287479817867279052734375">
        <ele>411.20001220703125</ele>
        <time>2020-02-22T09:08:47.000Z</time>
      </trkpt>
      <trkpt lat="38.15064107067883014678955078125" lon="-1.38910733163356781005859375">
        <ele>410.79998779296875</ele>
        <time>2020-02-22T09:08:48.000Z</time>
      </trkpt>
      <trkpt lat="38.15078691579401493072509765625" lon="-1.38922224752604961395263671875">
        <ele>409.600006103515625</ele>
        <time>2020-02-22T09:08:50.000Z</time>
      </trkpt>
      <trkpt lat="38.15095086582005023956298828125" lon="-1.3892751373350620269775390625">
        <ele>408.600006103515625</ele>
        <time>2020-02-22T09:08:52.000Z</time>
      </trkpt>
      <trkpt lat="38.1511145643889904022216796875" lon="-1.3892345689237117767333984375">
        <ele>407.399993896484375</ele>
        <time>2020-02-22T09:08:54.000Z</time>
      </trkpt>
      <trkpt lat="38.15119964070618152618408203125" lon="-1.38920414261519908905029296875">
        <ele>406.600006103515625</ele>
        <time>2020-02-22T09:08:55.000Z</time>
      </trkpt>
      <trkpt lat="38.15128664486110210418701171875" lon="-1.38917799107730388641357421875">
        <ele>406</ele>
        <time>2020-02-22T09:08:56.000Z</time>
      </trkpt>
      <trkpt lat="38.15137716941535472869873046875" lon="-1.38916089199483394622802734375">
        <ele>405.20001220703125</ele>
        <time>2020-02-22T09:08:57.000Z</time>
      </trkpt>
      <trkpt lat="38.1514702923595905303955078125" lon="-1.389155276119709014892578125">
        <ele>404.600006103515625</ele>
        <time>2020-02-22T09:08:58.000Z</time>
      </trkpt>
      <trkpt lat="38.15156509168446063995361328125" lon="-1.38916089199483394622802734375">
        <ele>403.79998779296875</ele>
        <time>2020-02-22T09:08:59.000Z</time>
      </trkpt>
      <trkpt lat="38.15166031010448932647705078125" lon="-1.3891755603253841400146484375">
        <ele>403.20001220703125</ele>
        <time>2020-02-22T09:09:00.000Z</time>
      </trkpt>
      <trkpt lat="38.1518458016216754913330078125" lon="-1.38922534883022308349609375">
        <ele>401.79998779296875</ele>
        <time>2020-02-22T09:09:02.000Z</time>
      </trkpt>
      <trkpt lat="38.15193808637559413909912109375" lon="-1.38925560750067234039306640625">
        <ele>400.399993896484375</ele>
        <time>2020-02-22T09:09:03.000Z</time>
      </trkpt>
      <trkpt lat="38.1520245037972927093505859375" lon="-1.38929885812103748321533203125">
        <ele>399.79998779296875</ele>
        <time>2020-02-22T09:09:04.000Z</time>
      </trkpt>
      <trkpt lat="38.152095414698123931884765625" lon="-1.389361135661602020263671875">
        <ele>399</ele>
        <time>2020-02-22T09:09:05.000Z</time>
      </trkpt>
      <trkpt lat="38.1521607935428619384765625" lon="-1.389432884752750396728515625">
        <ele>398</ele>
        <time>2020-02-22T09:09:06.000Z</time>
      </trkpt>
      <trkpt lat="38.1522125937044620513916015625" lon="-1.38951410539448261260986328125">
        <ele>396.79998779296875</ele>
        <time>2020-02-22T09:09:07.000Z</time>
      </trkpt>
      <trkpt lat="38.1522578559815883636474609375" lon="-1.38959859497845172882080078125">
        <ele>395.399993896484375</ele>
        <time>2020-02-22T09:09:08.000Z</time>
      </trkpt>
      <trkpt lat="38.15229079686105251312255859375" lon="-1.389691047370433807373046875">
        <ele>394.399993896484375</ele>
        <time>2020-02-22T09:09:09.000Z</time>
      </trkpt>
      <trkpt lat="38.1523161940276622772216796875" lon="-1.38978450559079647064208984375">
        <ele>393.600006103515625</ele>
        <time>2020-02-22T09:09:10.000Z</time>
      </trkpt>
      <trkpt lat="38.15234997309744358062744140625" lon="-1.38996186666190624237060546875">
        <ele>391.79998779296875</ele>
        <time>2020-02-22T09:09:12.000Z</time>
      </trkpt>
      <trkpt lat="38.152360282838344573974609375" lon="-1.39013671316206455230712890625">
        <ele>391.20001220703125</ele>
        <time>2020-02-22T09:09:14.000Z</time>
      </trkpt>
      <trkpt lat="38.152320049703121185302734375" lon="-1.3905126415193080902099609375">
        <ele>390.79998779296875</ele>
        <time>2020-02-22T09:09:18.000Z</time>
      </trkpt>
      <trkpt lat="38.1523064710199832916259765625" lon="-1.3905927725136280059814453125">
        <ele>390.600006103515625</ele>
        <time>2020-02-22T09:09:19.000Z</time>
      </trkpt>
      <trkpt lat="38.152297921478748321533203125" lon="-1.39075378887355327606201171875">
        <ele>390.399993896484375</ele>
        <time>2020-02-22T09:09:21.000Z</time>
      </trkpt>
      <trkpt lat="38.15233974717557430267333984375" lon="-1.39088940806686878204345703125">
        <ele>390.20001220703125</ele>
        <time>2020-02-22T09:09:23.000Z</time>
      </trkpt>
      <trkpt lat="38.15243161283433437347412109375" lon="-1.39092913828790187835693359375">
        <ele>389.79998779296875</ele>
        <time>2020-02-22T09:09:25.000Z</time>
      </trkpt>
      <trkpt lat="38.15248089842498302459716796875" lon="-1.39091036282479763031005859375">
        <ele>389.600006103515625</ele>
        <time>2020-02-22T09:09:26.000Z</time>
      </trkpt>
      <trkpt lat="38.1525282561779022216796875" lon="-1.39087817631661891937255859375">
        <ele>389.399993896484375</ele>
        <time>2020-02-22T09:09:27.000Z</time>
      </trkpt>
      <trkpt lat="38.1525773741304874420166015625" lon="-1.3908432237803936004638671875">
        <ele>389.20001220703125</ele>
        <time>2020-02-22T09:09:28.000Z</time>
      </trkpt>
      <trkpt lat="38.1527436710894107818603515625" lon="-1.39074171893298625946044921875">
        <ele>388.79998779296875</ele>
        <time>2020-02-22T09:09:31.000Z</time>
      </trkpt>
      <trkpt lat="38.15279471687972545623779296875" lon="-1.39069494791328907012939453125">
        <ele>388.79998779296875</ele>
        <time>2020-02-22T09:09:32.000Z</time>
      </trkpt>
      <trkpt lat="38.1528254784643650054931640625" lon="-1.39062722213566303253173828125">
        <ele>388.600006103515625</ele>
        <time>2020-02-22T09:09:33.000Z</time>
      </trkpt>
      <trkpt lat="38.15283880569040775299072265625" lon="-1.3905411399900913238525390625">
        <ele>388.600006103515625</ele>
        <time>2020-02-22T09:09:34.000Z</time>
      </trkpt>
      <trkpt lat="38.15284182317554950714111328125" lon="-1.3903592526912689208984375">
        <ele>388.399993896484375</ele>
        <time>2020-02-22T09:09:36.000Z</time>
      </trkpt>
      <trkpt lat="38.152849785983562469482421875" lon="-1.39026663266122341156005859375">
        <ele>388.399993896484375</ele>
        <time>2020-02-22T09:09:37.000Z</time>
      </trkpt>
      <trkpt lat="38.15287216566503047943115234375" lon="-1.39017996378242969512939453125">
        <ele>388.20001220703125</ele>
        <time>2020-02-22T09:09:38.000Z</time>
      </trkpt>
      <trkpt lat="38.1529559008777141571044921875" lon="-1.39002556912600994110107421875">
        <ele>387.79998779296875</ele>
        <time>2020-02-22T09:09:40.000Z</time>
      </trkpt>
      <trkpt lat="38.1530035100877285003662109375" lon="-1.389959268271923065185546875">
        <ele>387.399993896484375</ele>
        <time>2020-02-22T09:09:41.000Z</time>
      </trkpt>
      <trkpt lat="38.15317341126501560211181640625" lon="-1.389781571924686431884765625">
        <ele>386.600006103515625</ele>
        <time>2020-02-22T09:09:44.000Z</time>
      </trkpt>
      <trkpt lat="38.15323568880558013916015625" lon="-1.38973320834338665008544921875">
        <ele>386.20001220703125</ele>
        <time>2020-02-22T09:09:45.000Z</time>
      </trkpt>
      <trkpt lat="38.15330534242093563079833984375" lon="-1.389706134796142578125">
        <ele>386</ele>
        <time>2020-02-22T09:09:46.000Z</time>
      </trkpt>
      <trkpt lat="38.15346308983862400054931640625" lon="-1.38970303349196910858154296875">
        <ele>385.20001220703125</ele>
        <time>2020-02-22T09:09:48.000Z</time>
      </trkpt>
      <trkpt lat="38.15354439429938793182373046875" lon="-1.389703117311000823974609375">
        <ele>384.399993896484375</ele>
        <time>2020-02-22T09:09:49.000Z</time>
      </trkpt>
      <trkpt lat="38.15362502820789813995361328125" lon="-1.3896915502846240997314453125">
        <ele>383.79998779296875</ele>
        <time>2020-02-22T09:09:50.000Z</time>
      </trkpt>
      <trkpt lat="38.15384455025196075439453125" lon="-1.38960094191133975982666015625">
        <ele>383.20001220703125</ele>
        <time>2020-02-22T09:09:53.000Z</time>
      </trkpt>
      <trkpt lat="38.15398293547332286834716796875" lon="-1.3895242474973201751708984375">
        <ele>382.79998779296875</ele>
        <time>2020-02-22T09:09:55.000Z</time>
      </trkpt>
      <trkpt lat="38.15413263626396656036376953125" lon="-1.38946549035608768463134765625">
        <ele>382.399993896484375</ele>
        <time>2020-02-22T09:09:57.000Z</time>
      </trkpt>
      <trkpt lat="38.1542959995567798614501953125" lon="-1.38942760415375232696533203125">
        <ele>381.399993896484375</ele>
        <time>2020-02-22T09:09:59.000Z</time>
      </trkpt>
      <trkpt lat="38.15463454462587833404541015625" lon="-1.38937144540250301361083984375">
        <ele>379.399993896484375</ele>
        <time>2020-02-22T09:10:03.000Z</time>
      </trkpt>
      <trkpt lat="38.15472104586660861968994140625" lon="-1.38937379233539104461669921875">
        <ele>379</ele>
        <time>2020-02-22T09:10:04.000Z</time>
      </trkpt>
      <trkpt lat="38.1548109836876392364501953125" lon="-1.38938820920884609222412109375">
        <ele>378.79998779296875</ele>
        <time>2020-02-22T09:10:05.000Z</time>
      </trkpt>
      <trkpt lat="38.1549893505871295928955078125" lon="-1.38943766243755817413330078125">
        <ele>377.600006103515625</ele>
        <time>2020-02-22T09:10:07.000Z</time>
      </trkpt>
      <trkpt lat="38.155161179602146148681640625" lon="-1.389499939978122711181640625">
        <ele>376.399993896484375</ele>
        <time>2020-02-22T09:10:09.000Z</time>
      </trkpt>
      <trkpt lat="38.15523385070264339447021484375" lon="-1.389553248882293701171875">
        <ele>376</ele>
        <time>2020-02-22T09:10:10.000Z</time>
      </trkpt>
      <trkpt lat="38.15538053400814533233642578125" lon="-1.3896865211427211761474609375">
        <ele>375</ele>
        <time>2020-02-22T09:10:12.000Z</time>
      </trkpt>
      <trkpt lat="38.155542053282260894775390625" lon="-1.3898055441677570343017578125">
        <ele>374</ele>
        <time>2020-02-22T09:10:14.000Z</time>
      </trkpt>
      <trkpt lat="38.15571044571697711944580078125" lon="-1.38988743536174297332763671875">
        <ele>372.79998779296875</ele>
        <time>2020-02-22T09:10:16.000Z</time>
      </trkpt>
      <trkpt lat="38.15585997886955738067626953125" lon="-1.3899755291640758514404296875">
        <ele>371.79998779296875</ele>
        <time>2020-02-22T09:10:18.000Z</time>
      </trkpt>
      <trkpt lat="38.15595989115536212921142578125" lon="-1.3901153393089771270751953125">
        <ele>370.20001220703125</ele>
        <time>2020-02-22T09:10:20.000Z</time>
      </trkpt>
      <trkpt lat="38.155991993844509124755859375" lon="-1.390206702053546905517578125">
        <ele>369.20001220703125</ele>
        <time>2020-02-22T09:10:21.000Z</time>
      </trkpt>
      <trkpt lat="38.1560337357223033905029296875" lon="-1.390409879386425018310546875">
        <ele>367.600006103515625</ele>
        <time>2020-02-22T09:10:23.000Z</time>
      </trkpt>
      <trkpt lat="38.1560669280588626861572265625" lon="-1.39051792211830615997314453125">
        <ele>367.20001220703125</ele>
        <time>2020-02-22T09:10:24.000Z</time>
      </trkpt>
      <trkpt lat="38.1561229191720485687255859375" lon="-1.390613727271556854248046875">
        <ele>366.600006103515625</ele>
        <time>2020-02-22T09:10:25.000Z</time>
      </trkpt>
      <trkpt lat="38.15627236850559711456298828125" lon="-1.39071774668991565704345703125">
        <ele>365.399993896484375</ele>
        <time>2020-02-22T09:10:27.000Z</time>
      </trkpt>
      <trkpt lat="38.15635149367153644561767578125" lon="-1.39075026847422122955322265625">
        <ele>365</ele>
        <time>2020-02-22T09:10:28.000Z</time>
      </trkpt>
      <trkpt lat="38.1564206443727016448974609375" lon="-1.39079452492296695709228515625">
        <ele>364.399993896484375</ele>
        <time>2020-02-22T09:10:29.000Z</time>
      </trkpt>
      <trkpt lat="38.15647554583847522735595703125" lon="-1.39085738919675350189208984375">
        <ele>364</ele>
        <time>2020-02-22T09:10:30.000Z</time>
      </trkpt>
      <trkpt lat="38.15650991164147853851318359375" lon="-1.390937268733978271484375">
        <ele>363.399993896484375</ele>
        <time>2020-02-22T09:10:31.000Z</time>
      </trkpt>
      <trkpt lat="38.15649918280541896820068359375" lon="-1.39114002697169780731201171875">
        <ele>361.600006103515625</ele>
        <time>2020-02-22T09:10:33.000Z</time>
      </trkpt>
      <trkpt lat="38.15643154084682464599609375" lon="-1.391345299780368804931640625">
        <ele>361</ele>
        <time>2020-02-22T09:10:35.000Z</time>
      </trkpt>
      <trkpt lat="38.15640203654766082763671875" lon="-1.3914540968835353851318359375">
        <ele>360.79998779296875</ele>
        <time>2020-02-22T09:10:36.000Z</time>
      </trkpt>
      <trkpt lat="38.1563891284167766571044921875" lon="-1.39156498946249485015869140625">
        <ele>360.600006103515625</ele>
        <time>2020-02-22T09:10:37.000Z</time>
      </trkpt>
      <trkpt lat="38.156405054032802581787109375" lon="-1.3918044604361057281494140625">
        <ele>360</ele>
        <time>2020-02-22T09:10:39.000Z</time>
      </trkpt>
      <trkpt lat="38.15642123110592365264892578125" lon="-1.3919328711926937103271484375">
        <ele>359.399993896484375</ele>
        <time>2020-02-22T09:10:40.000Z</time>
      </trkpt>
      <trkpt lat="38.15645459108054637908935546875" lon="-1.39219530858099460601806640625">
        <ele>357.79998779296875</ele>
        <time>2020-02-22T09:10:42.000Z</time>
      </trkpt>
      <trkpt lat="38.15649147145450115203857421875" lon="-1.39245598576962947845458984375">
        <ele>356.20001220703125</ele>
        <time>2020-02-22T09:10:44.000Z</time>
      </trkpt>
      <trkpt lat="38.15653455443680286407470703125" lon="-1.3927013240754604339599609375">
        <ele>354.79998779296875</ele>
        <time>2020-02-22T09:10:46.000Z</time>
      </trkpt>
      <trkpt lat="38.15657361410558223724365234375" lon="-1.3929055072367191314697265625">
        <ele>353.20001220703125</ele>
        <time>2020-02-22T09:10:48.000Z</time>
      </trkpt>
      <trkpt lat="38.15660747699439525604248046875" lon="-1.39298848807811737060546875">
        <ele>352.399993896484375</ele>
        <time>2020-02-22T09:10:49.000Z</time>
      </trkpt>
      <trkpt lat="38.156648464500904083251953125" lon="-1.39305294491350650787353515625">
        <ele>351.600006103515625</ele>
        <time>2020-02-22T09:10:50.000Z</time>
      </trkpt>
      <trkpt lat="38.15676069818437099456787109375" lon="-1.39314414002001285552978515625">
        <ele>350.79998779296875</ele>
        <time>2020-02-22T09:10:52.000Z</time>
      </trkpt>
      <trkpt lat="38.156819455325603485107421875" lon="-1.39318026602268218994140625">
        <ele>350.399993896484375</ele>
        <time>2020-02-22T09:10:53.000Z</time>
      </trkpt>
      <trkpt lat="38.157151378691196441650390625" lon="-1.39337749220430850982666015625">
        <ele>349.399993896484375</ele>
        <time>2020-02-22T09:10:58.000Z</time>
      </trkpt>
      <trkpt lat="38.157233856618404388427734375" lon="-1.3934221677482128143310546875">
        <ele>349.399993896484375</ele>
        <time>2020-02-22T09:10:59.000Z</time>
      </trkpt>
      <trkpt lat="38.157622106373310089111328125" lon="-1.3936261832714080810546875">
        <ele>348</ele>
        <time>2020-02-22T09:11:04.000Z</time>
      </trkpt>
      <trkpt lat="38.15768421627581119537353515625" lon="-1.393656693398952484130859375">
        <ele>347.600006103515625</ele>
        <time>2020-02-22T09:11:05.000Z</time>
      </trkpt>
      <trkpt lat="38.15774993039667606353759765625" lon="-1.3936672545969486236572265625">
        <ele>347</ele>
        <time>2020-02-22T09:11:06.000Z</time>
      </trkpt>
      <trkpt lat="38.15781824290752410888671875" lon="-1.39364562928676605224609375">
        <ele>346.20001220703125</ele>
        <time>2020-02-22T09:11:07.000Z</time>
      </trkpt>
      <trkpt lat="38.1578790955245494842529296875" lon="-1.3935928232967853546142578125">
        <ele>345.399993896484375</ele>
        <time>2020-02-22T09:11:08.000Z</time>
      </trkpt>
      <trkpt lat="38.15793198533356189727783203125" lon="-1.39351881109178066253662109375">
        <ele>344.399993896484375</ele>
        <time>2020-02-22T09:11:09.000Z</time>
      </trkpt>
      <trkpt lat="38.15798210911452770233154296875" lon="-1.393438093364238739013671875">
        <ele>343.20001220703125</ele>
        <time>2020-02-22T09:11:10.000Z</time>
      </trkpt>
      <trkpt lat="38.15808906219899654388427734375" lon="-1.39328110031783580780029296875">
        <ele>341.600006103515625</ele>
        <time>2020-02-22T09:11:12.000Z</time>
      </trkpt>
      <trkpt lat="38.15823809243738651275634765625" lon="-1.39303668402135372161865234375">
        <ele>339.79998779296875</ele>
        <time>2020-02-22T09:11:15.000Z</time>
      </trkpt>
      <trkpt lat="38.158285617828369140625" lon="-1.39296376146376132965087890625">
        <ele>338.79998779296875</ele>
        <time>2020-02-22T09:11:16.000Z</time>
      </trkpt>
      <trkpt lat="38.15832777880132198333740234375" lon="-1.3929019868373870849609375">
        <ele>338.20001220703125</ele>
        <time>2020-02-22T09:11:17.000Z</time>
      </trkpt>
      <trkpt lat="38.158363401889801025390625" lon="-1.39284758828580379486083984375">
        <ele>337.79998779296875</ele>
        <time>2020-02-22T09:11:18.000Z</time>
      </trkpt>
      <trkpt lat="38.15842551179230213165283203125" lon="-1.3927325047552585601806640625">
        <ele>336.399993896484375</ele>
        <time>2020-02-22T09:11:20.000Z</time>
      </trkpt>
      <trkpt lat="38.158479072153568267822265625" lon="-1.3926305808126926422119140625">
        <ele>335.20001220703125</ele>
        <time>2020-02-22T09:11:22.000Z</time>
      </trkpt>
      <trkpt lat="38.15852810628712177276611328125" lon="-1.3925487734377384185791015625">
        <ele>334</ele>
        <time>2020-02-22T09:11:24.000Z</time>
      </trkpt>
      <trkpt lat="38.158551491796970367431640625" lon="-1.392519436776638031005859375">
        <ele>333.600006103515625</ele>
        <time>2020-02-22T09:11:25.000Z</time>
      </trkpt>
      <trkpt lat="38.15858460031449794769287109375" lon="-1.39247442595660686492919921875">
        <ele>332.79998779296875</ele>
        <time>2020-02-22T09:11:27.000Z</time>
      </trkpt>
      <trkpt lat="38.1585982628166675567626953125" lon="-1.3924567401409149169921875">
        <ele>332.399993896484375</ele>
        <time>2020-02-22T09:11:29.000Z</time>
      </trkpt>
      <trkpt lat="38.15844110213220119476318359375" lon="-1.3926738314330577850341796875">
        <ele>332.399993896484375</ele>
        <time>2020-02-22T09:12:44.000Z</time>
      </trkpt>
      <trkpt lat="38.158431462943553924560546875" lon="-1.3927211053669452667236328125">
        <ele>332.600006103515625</ele>
        <time>2020-02-22T09:12:48.000Z</time>
      </trkpt>
      <trkpt lat="38.158430792391300201416015625" lon="-1.39273476786911487579345703125">
        <ele>332.600006103515625</ele>
        <time>2020-02-22T09:12:49.000Z</time>
      </trkpt>
      <trkpt lat="38.1584423594176769256591796875" lon="-1.3928146474063396453857421875">
        <ele>332.79998779296875</ele>
        <time>2020-02-22T09:12:54.000Z</time>
      </trkpt>
      <trkpt lat="38.15846264362335205078125" lon="-1.392854042351245880126953125">
        <ele>332.79998779296875</ele>
        <time>2020-02-22T09:12:57.000Z</time>
      </trkpt>
      <trkpt lat="38.158486448228359222412109375" lon="-1.3928924314677715301513671875">
        <ele>332.79998779296875</ele>
        <time>2020-02-22T09:12:59.000Z</time>
      </trkpt>
      <trkpt lat="38.15852240659296512603759765625" lon="-1.39292336069047451019287109375">
        <ele>332.79998779296875</ele>
        <time>2020-02-22T09:13:01.000Z</time>
      </trkpt>
      <trkpt lat="38.15853900276124477386474609375" lon="-1.39293811284005641937255859375">
        <ele>332.79998779296875</ele>
        <time>2020-02-22T09:13:02.000Z</time>
      </trkpt>
      <trkpt lat="38.15856280736625194549560546875" lon="-1.392951942980289459228515625">
        <ele>332.79998779296875</ele>
        <time>2020-02-22T09:13:03.000Z</time>
      </trkpt>
      <trkpt lat="38.15874486230313777923583984375" lon="-1.39308965764939785003662109375">
        <ele>332</ele>
        <time>2020-02-22T09:13:10.000Z</time>
      </trkpt>
      <trkpt lat="38.15877218730747699737548828125" lon="-1.39311396516859531402587890625">
        <ele>331.79998779296875</ele>
        <time>2020-02-22T09:13:11.000Z</time>
      </trkpt>
      <trkpt lat="38.15880068577826023101806640625" lon="-1.393139027059078216552734375">
        <ele>331.399993896484375</ele>
        <time>2020-02-22T09:13:12.000Z</time>
      </trkpt>
      <trkpt lat="38.1589355506002902984619140625" lon="-1.3932640850543975830078125">
        <ele>330.399993896484375</ele>
        <time>2020-02-22T09:13:17.000Z</time>
      </trkpt>
      <trkpt lat="38.15899573266506195068359375" lon="-1.39331261627376079559326171875">
        <ele>330.20001220703125</ele>
        <time>2020-02-22T09:13:19.000Z</time>
      </trkpt>
      <trkpt lat="38.15903018228709697723388671875" lon="-1.39333994127810001373291015625">
        <ele>330</ele>
        <time>2020-02-22T09:13:20.000Z</time>
      </trkpt>
      <trkpt lat="38.1591011770069599151611328125" lon="-1.3934035599231719970703125">
        <ele>329.20001220703125</ele>
        <time>2020-02-22T09:13:22.000Z</time>
      </trkpt>
      <trkpt lat="38.1592279113829135894775390625" lon="-1.39350590296089649200439453125">
        <ele>328.399993896484375</ele>
        <time>2020-02-22T09:13:25.000Z</time>
      </trkpt>
      <trkpt lat="38.1592741794884204864501953125" lon="-1.39354144223034381866455078125">
        <ele>328.20001220703125</ele>
        <time>2020-02-22T09:13:26.000Z</time>
      </trkpt>
      <trkpt lat="38.1593191064894199371337890625" lon="-1.39358134008944034576416015625">
        <ele>327.79998779296875</ele>
        <time>2020-02-22T09:13:27.000Z</time>
      </trkpt>
      <trkpt lat="38.15941960550844669342041015625" lon="-1.39366599731147289276123046875">
        <ele>327.20001220703125</ele>
        <time>2020-02-22T09:13:29.000Z</time>
      </trkpt>
      <trkpt lat="38.159474842250347137451171875" lon="-1.39370908029377460479736328125">
        <ele>326.79998779296875</ele>
        <time>2020-02-22T09:13:30.000Z</time>
      </trkpt>
      <trkpt lat="38.1595926918089389801025390625" lon="-1.39380413107573986053466796875">
        <ele>326</ele>
        <time>2020-02-22T09:13:32.000Z</time>
      </trkpt>
      <trkpt lat="38.15972554497420787811279296875" lon="-1.39390312135219573974609375">
        <ele>325</ele>
        <time>2020-02-22T09:13:34.000Z</time>
      </trkpt>
      <trkpt lat="38.15991749055683612823486328125" lon="-1.39405039139091968536376953125">
        <ele>323.79998779296875</ele>
        <time>2020-02-22T09:13:37.000Z</time>
      </trkpt>
      <trkpt lat="38.16003282554447650909423828125" lon="-1.3941527344286441802978515625">
        <ele>322.600006103515625</ele>
        <time>2020-02-22T09:13:39.000Z</time>
      </trkpt>
      <trkpt lat="38.16008797846734523773193359375" lon="-1.39420093037188053131103515625">
        <ele>322</ele>
        <time>2020-02-22T09:13:40.000Z</time>
      </trkpt>
      <trkpt lat="38.16014665178954601287841796875" lon="-1.39424736611545085906982421875">
        <ele>321.399993896484375</ele>
        <time>2020-02-22T09:13:41.000Z</time>
      </trkpt>
      <trkpt lat="38.1602773256599903106689453125" lon="-1.39434635639190673828125">
        <ele>319.79998779296875</ele>
        <time>2020-02-22T09:13:43.000Z</time>
      </trkpt>
      <trkpt lat="38.16041889600455760955810546875" lon="-1.39445322565734386444091796875">
        <ele>318.399993896484375</ele>
        <time>2020-02-22T09:13:45.000Z</time>
      </trkpt>
      <trkpt lat="38.1605763919651508331298828125" lon="-1.3945730030536651611328125">
        <ele>317.399993896484375</ele>
        <time>2020-02-22T09:13:47.000Z</time>
      </trkpt>
      <trkpt lat="38.16072500310838222503662109375" lon="-1.39472387731075286865234375">
        <ele>316.20001220703125</ele>
        <time>2020-02-22T09:13:49.000Z</time>
      </trkpt>
      <trkpt lat="38.1607882864773273468017578125" lon="-1.39481616206467151641845703125">
        <ele>315.600006103515625</ele>
        <time>2020-02-22T09:13:50.000Z</time>
      </trkpt>
      <trkpt lat="38.16085190512239933013916015625" lon="-1.39489713124930858612060546875">
        <ele>315</ele>
        <time>2020-02-22T09:13:51.000Z</time>
      </trkpt>
      <trkpt lat="38.16091678105294704437255859375" lon="-1.394953541457653045654296875">
        <ele>313.399993896484375</ele>
        <time>2020-02-22T09:13:52.000Z</time>
      </trkpt>
      <trkpt lat="38.1609857641160488128662109375" lon="-1.39497089199721813201904296875">
        <ele>312.79998779296875</ele>
        <time>2020-02-22T09:13:53.000Z</time>
      </trkpt>
      <trkpt lat="38.1610605306923389434814453125" lon="-1.39495144598186016082763671875">
        <ele>311.79998779296875</ele>
        <time>2020-02-22T09:13:54.000Z</time>
      </trkpt>
      <trkpt lat="38.16113521344959735870361328125" lon="-1.39490886591374874114990234375">
        <ele>311.20001220703125</ele>
        <time>2020-02-22T09:13:55.000Z</time>
      </trkpt>
      <trkpt lat="38.1612124107778072357177734375" lon="-1.3948519527912139892578125">
        <ele>310.20001220703125</ele>
        <time>2020-02-22T09:13:56.000Z</time>
      </trkpt>
      <trkpt lat="38.16129161976277828216552734375" lon="-1.394810043275356292724609375">
        <ele>309.399993896484375</ele>
        <time>2020-02-22T09:13:57.000Z</time>
      </trkpt>
      <trkpt lat="38.16137124784290790557861328125" lon="-1.3948001526296138763427734375">
        <ele>308.79998779296875</ele>
        <time>2020-02-22T09:13:58.000Z</time>
      </trkpt>
      <trkpt lat="38.16144953481853008270263671875" lon="-1.39482772909104824066162109375">
        <ele>308.20001220703125</ele>
        <time>2020-02-22T09:13:59.000Z</time>
      </trkpt>
      <trkpt lat="38.16152245737612247467041015625" lon="-1.39488908462226390838623046875">
        <ele>307.600006103515625</ele>
        <time>2020-02-22T09:14:00.000Z</time>
      </trkpt>
      <trkpt lat="38.16165388561785221099853515625" lon="-1.39505110681056976318359375">
        <ele>306.20001220703125</ele>
        <time>2020-02-22T09:14:02.000Z</time>
      </trkpt>
      <trkpt lat="38.16171012818813323974609375" lon="-1.3951381109654903411865234375">
        <ele>305.600006103515625</ele>
        <time>2020-02-22T09:14:03.000Z</time>
      </trkpt>
      <trkpt lat="38.16175346262753009796142578125" lon="-1.39522804878652095794677734375">
        <ele>304.79998779296875</ele>
        <time>2020-02-22T09:14:04.000Z</time>
      </trkpt>
      <trkpt lat="38.161768130958080291748046875" lon="-1.39533407986164093017578125">
        <ele>304.399993896484375</ele>
        <time>2020-02-22T09:14:05.000Z</time>
      </trkpt>
      <trkpt lat="38.1617545522749423980712890625" lon="-1.39556852169334888458251953125">
        <ele>303.20001220703125</ele>
        <time>2020-02-22T09:14:07.000Z</time>
      </trkpt>
      <trkpt lat="38.1617391295731067657470703125" lon="-1.39569089747965335845947265625">
        <ele>302.399993896484375</ele>
        <time>2020-02-22T09:14:08.000Z</time>
      </trkpt>
      <trkpt lat="38.16172211430966854095458984375" lon="-1.39581285417079925537109375">
        <ele>301.600006103515625</ele>
        <time>2020-02-22T09:14:09.000Z</time>
      </trkpt>
      <trkpt lat="38.16172596998512744903564453125" lon="-1.39593363739550113677978515625">
        <ele>300.600006103515625</ele>
        <time>2020-02-22T09:14:10.000Z</time>
      </trkpt>
      <trkpt lat="38.1617575697600841522216796875" lon="-1.39605299569666385650634765625">
        <ele>299.79998779296875</ele>
        <time>2020-02-22T09:14:11.000Z</time>
      </trkpt>
      <trkpt lat="38.16187885589897632598876953125" lon="-1.39625675976276397705078125">
        <ele>298.20001220703125</ele>
        <time>2020-02-22T09:14:13.000Z</time>
      </trkpt>
      <trkpt lat="38.1619520299136638641357421875" lon="-1.3963410817086696624755859375">
        <ele>297.79998779296875</ele>
        <time>2020-02-22T09:14:14.000Z</time>
      </trkpt>
      <trkpt lat="38.16203610040247440338134765625" lon="-1.39640101231634616851806640625">
        <ele>297.20001220703125</ele>
        <time>2020-02-22T09:14:15.000Z</time>
      </trkpt>
      <trkpt lat="38.162104748189449310302734375" lon="-1.396445520222187042236328125">
        <ele>296.399993896484375</ele>
        <time>2020-02-22T09:14:16.000Z</time>
      </trkpt>
      <trkpt lat="38.16224246285855770111083984375" lon="-1.3964832387864589691162109375">
        <ele>295</ele>
        <time>2020-02-22T09:14:18.000Z</time>
      </trkpt>
      <trkpt lat="38.16238830797374248504638671875" lon="-1.3964943028986454010009765625">
        <ele>294</ele>
        <time>2020-02-22T09:14:20.000Z</time>
      </trkpt>
      <trkpt lat="38.1624646671116352081298828125" lon="-1.39650042168796062469482421875">
        <ele>293.79998779296875</ele>
        <time>2020-02-22T09:14:21.000Z</time>
      </trkpt>
      <trkpt lat="38.16254253499209880828857421875" lon="-1.39651718549430370330810546875">
        <ele>293.20001220703125</ele>
        <time>2020-02-22T09:14:22.000Z</time>
      </trkpt>
      <trkpt lat="38.1626899726688861846923828125" lon="-1.396586336195468902587890625">
        <ele>292.79998779296875</ele>
        <time>2020-02-22T09:14:24.000Z</time>
      </trkpt>
      <trkpt lat="38.16276314668357372283935546875" lon="-1.39663905836641788482666015625">
        <ele>292.600006103515625</ele>
        <time>2020-02-22T09:14:25.000Z</time>
      </trkpt>
      <trkpt lat="38.1628368236124515533447265625" lon="-1.39669823460280895233154296875">
        <ele>292.399993896484375</ele>
        <time>2020-02-22T09:14:26.000Z</time>
      </trkpt>
      <trkpt lat="38.16306053660809993743896484375" lon="-1.39687961898744106292724609375">
        <ele>291.79998779296875</ele>
        <time>2020-02-22T09:14:29.000Z</time>
      </trkpt>
      <trkpt lat="38.16313697956502437591552734375" lon="-1.39694080688059329986572265625">
        <ele>291.600006103515625</ele>
        <time>2020-02-22T09:14:30.000Z</time>
      </trkpt>
      <trkpt lat="38.1634393148124217987060546875" lon="-1.39718949794769287109375">
        <ele>290.399993896484375</ele>
        <time>2020-02-22T09:14:34.000Z</time>
      </trkpt>
      <trkpt lat="38.16359681077301502227783203125" lon="-1.397322602570056915283203125">
        <ele>289.399993896484375</ele>
        <time>2020-02-22T09:14:36.000Z</time>
      </trkpt>
      <trkpt lat="38.16367995925247669219970703125" lon="-1.397391669452190399169921875">
        <ele>289</ele>
        <time>2020-02-22T09:14:37.000Z</time>
      </trkpt>
      <trkpt lat="38.16393309272825717926025390625" lon="-1.39757766388356685638427734375">
        <ele>288.399993896484375</ele>
        <time>2020-02-22T09:14:40.000Z</time>
      </trkpt>
      <trkpt lat="38.16411280073225498199462890625" lon="-1.39768159948289394378662109375">
        <ele>287.600006103515625</ele>
        <time>2020-02-22T09:14:42.000Z</time>
      </trkpt>
      <trkpt lat="38.16422008909285068511962890625" lon="-1.39772769995033740997314453125">
        <ele>287.20001220703125</ele>
        <time>2020-02-22T09:14:43.000Z</time>
      </trkpt>
      <trkpt lat="38.16444220952689647674560546875" lon="-1.39781923033297061920166015625">
        <ele>285.79998779296875</ele>
        <time>2020-02-22T09:14:45.000Z</time>
      </trkpt>
      <trkpt lat="38.16455167718231678009033203125" lon="-1.39786432497203350067138671875">
        <ele>284.600006103515625</ele>
        <time>2020-02-22T09:14:46.000Z</time>
      </trkpt>
      <trkpt lat="38.16466365940868854522705078125" lon="-1.39788092114031314849853515625">
        <ele>283.79998779296875</ele>
        <time>2020-02-22T09:14:47.000Z</time>
      </trkpt>
      <trkpt lat="38.16477497108280658721923828125" lon="-1.397873796522617340087890625">
        <ele>283</ele>
        <time>2020-02-22T09:14:48.000Z</time>
      </trkpt>
      <trkpt lat="38.16498636268079280853271484375" lon="-1.397813446819782257080078125">
        <ele>281.20001220703125</ele>
        <time>2020-02-22T09:14:50.000Z</time>
      </trkpt>
      <trkpt lat="38.16508577205240726470947265625" lon="-1.3977693580090999603271484375">
        <ele>280.20001220703125</ele>
        <time>2020-02-22T09:14:51.000Z</time>
      </trkpt>
      <trkpt lat="38.1651847623288631439208984375" lon="-1.39772702939808368682861328125">
        <ele>278.399993896484375</ele>
        <time>2020-02-22T09:14:52.000Z</time>
      </trkpt>
      <trkpt lat="38.1652762927114963531494140625" lon="-1.39768327586352825164794921875">
        <ele>277.20001220703125</ele>
        <time>2020-02-22T09:14:53.000Z</time>
      </trkpt>
      <trkpt lat="38.1653624586760997772216796875" lon="-1.39764706604182720184326171875">
        <ele>276.20001220703125</ele>
        <time>2020-02-22T09:14:54.000Z</time>
      </trkpt>
      <trkpt lat="38.1654430925846099853515625" lon="-1.39762678183615207672119140625">
        <ele>275.20001220703125</ele>
        <time>2020-02-22T09:14:55.000Z</time>
      </trkpt>
      <trkpt lat="38.165513835847377777099609375" lon="-1.39763080514967441558837890625">
        <ele>274.600006103515625</ele>
        <time>2020-02-22T09:14:56.000Z</time>
      </trkpt>
      <trkpt lat="38.165611065924167633056640625" lon="-1.3976935856044292449951171875">
        <ele>274.20001220703125</ele>
        <time>2020-02-22T09:14:58.000Z</time>
      </trkpt>
      <trkpt lat="38.1656222976744174957275390625" lon="-1.39777748845517635345458984375">
        <ele>274.20001220703125</ele>
        <time>2020-02-22T09:15:01.000Z</time>
      </trkpt>
      <trkpt lat="38.1656072102487087249755859375" lon="-1.3977807573974132537841796875">
        <ele>274.20001220703125</ele>
        <time>2020-02-22T09:15:02.000Z</time>
      </trkpt>
      <trkpt lat="38.16558969207108020782470703125" lon="-1.397873125970363616943359375">
        <ele>276</ele>
        <time>2020-02-22T09:15:13.000Z</time>
      </trkpt>
      <trkpt lat="38.16559555940330028533935546875" lon="-1.39789617620408535003662109375">
        <ele>276</ele>
        <time>2020-02-22T09:15:14.000Z</time>
      </trkpt>
      <trkpt lat="38.16559664905071258544921875" lon="-1.39803799800574779510498046875">
        <ele>276</ele>
        <time>2020-02-22T09:15:20.000Z</time>
      </trkpt>
      <trkpt lat="38.1655917875468730926513671875" lon="-1.39827604405581951141357421875">
        <ele>276</ele>
        <time>2020-02-22T09:15:27.000Z</time>
      </trkpt>
      <trkpt lat="38.16558818332850933074951171875" lon="-1.39857594855129718780517578125">
        <ele>276</ele>
        <time>2020-02-22T09:15:34.000Z</time>
      </trkpt>
      <trkpt lat="38.1655663065612316131591796875" lon="-1.39896889217197895050048828125">
        <ele>276</ele>
        <time>2020-02-22T09:15:42.000Z</time>
      </trkpt>
      <trkpt lat="38.165546022355556488037109375" lon="-1.39913141727447509765625">
        <ele>276</ele>
        <time>2020-02-22T09:15:45.000Z</time>
      </trkpt>
      <trkpt lat="38.16551827825605869293212890625" lon="-1.39923091046512126922607421875">
        <ele>276.20001220703125</ele>
        <time>2020-02-22T09:15:47.000Z</time>
      </trkpt>
      <trkpt lat="38.165507130324840545654296875" lon="-1.39928371645510196685791015625">
        <ele>276.399993896484375</ele>
        <time>2020-02-22T09:15:48.000Z</time>
      </trkpt>
      <trkpt lat="38.16546496935188770294189453125" lon="-1.39949426986277103424072265625">
        <ele>276.600006103515625</ele>
        <time>2020-02-22T09:15:52.000Z</time>
      </trkpt>
      <trkpt lat="38.165460862219333648681640625" lon="-1.3995386101305484771728515625">
        <ele>276.600006103515625</ele>
        <time>2020-02-22T09:15:53.000Z</time>
      </trkpt>
      <trkpt lat="38.16551459021866321563720703125" lon="-1.39979098923504352569580078125">
        <ele>276.600006103515625</ele>
        <time>2020-02-22T09:15:58.000Z</time>
      </trkpt>
      <trkpt lat="38.16556806676089763641357421875" lon="-1.3999754749238491058349609375">
        <ele>276.600006103515625</ele>
        <time>2020-02-22T09:16:01.000Z</time>
      </trkpt>
      <trkpt lat="38.16561265848577022552490234375" lon="-1.4001238346099853515625">
        <ele>276.600006103515625</ele>
        <time>2020-02-22T09:16:03.000Z</time>
      </trkpt>
      <trkpt lat="38.165739476680755615234375" lon="-1.40043589286506175994873046875">
        <ele>276</ele>
        <time>2020-02-22T09:16:07.000Z</time>
      </trkpt>
      <trkpt lat="38.1657875888049602508544921875" lon="-1.400501020252704620361328125">
        <ele>275.79998779296875</ele>
        <time>2020-02-22T09:16:08.000Z</time>
      </trkpt>
      <trkpt lat="38.16593326628208160400390625" lon="-1.40068869106471538543701171875">
        <ele>274.79998779296875</ele>
        <time>2020-02-22T09:16:11.000Z</time>
      </trkpt>
      <trkpt lat="38.16606109030544757843017578125" lon="-1.400897987186908721923828125">
        <ele>273.79998779296875</ele>
        <time>2020-02-22T09:16:14.000Z</time>
      </trkpt>
      <trkpt lat="38.166187070310115814208984375" lon="-1.401138715445995330810546875">
        <ele>273.20001220703125</ele>
        <time>2020-02-22T09:16:17.000Z</time>
      </trkpt>
      <trkpt lat="38.16621414385735988616943359375" lon="-1.4012387953698635101318359375">
        <ele>273</ele>
        <time>2020-02-22T09:16:18.000Z</time>
      </trkpt>
      <trkpt lat="38.16619369201362133026123046875" lon="-1.40159795992076396942138671875">
        <ele>273</ele>
        <time>2020-02-22T09:16:21.000Z</time>
      </trkpt>
      <trkpt lat="38.16619880497455596923828125" lon="-1.40172167681157588958740234375">
        <ele>272.79998779296875</ele>
        <time>2020-02-22T09:16:22.000Z</time>
      </trkpt>
      <trkpt lat="38.1662583164870738983154296875" lon="-1.40192317776381969451904296875">
        <ele>271.79998779296875</ele>
        <time>2020-02-22T09:16:24.000Z</time>
      </trkpt>
      <trkpt lat="38.1663153134286403656005859375" lon="-1.4019824378192424774169921875">
        <ele>271</ele>
        <time>2020-02-22T09:16:25.000Z</time>
      </trkpt>
      <trkpt lat="38.16638647578656673431396484375" lon="-1.402009427547454833984375">
        <ele>270.20001220703125</ele>
        <time>2020-02-22T09:16:26.000Z</time>
      </trkpt>
      <trkpt lat="38.166467361152172088623046875" lon="-1.40201588161289691925048828125">
        <ele>269.20001220703125</ele>
        <time>2020-02-22T09:16:27.000Z</time>
      </trkpt>
      <trkpt lat="38.1665496714413166046142578125" lon="-1.4020260237157344818115234375">
        <ele>268.20001220703125</ele>
        <time>2020-02-22T09:16:28.000Z</time>
      </trkpt>
      <trkpt lat="38.16663592122495174407958984375" lon="-1.4020451344549655914306640625">
        <ele>267.20001220703125</ele>
        <time>2020-02-22T09:16:29.000Z</time>
      </trkpt>
      <trkpt lat="38.16680171526968479156494140625" lon="-1.40210305340588092803955078125">
        <ele>265.600006103515625</ele>
        <time>2020-02-22T09:16:31.000Z</time>
      </trkpt>
      <trkpt lat="38.16694823093712329864501953125" lon="-1.402091570198535919189453125">
        <ele>264.600006103515625</ele>
        <time>2020-02-22T09:16:33.000Z</time>
      </trkpt>
      <trkpt lat="38.166997432708740234375" lon="-1.40205326490104198455810546875">
        <ele>264.20001220703125</ele>
        <time>2020-02-22T09:16:34.000Z</time>
      </trkpt>
      <trkpt lat="38.16701394505798816680908203125" lon="-1.4020049013197422027587890625">
        <ele>263.600006103515625</ele>
        <time>2020-02-22T09:16:35.000Z</time>
      </trkpt>
      <trkpt lat="38.167025931179523468017578125" lon="-1.40194715000689029693603515625">
        <ele>263</ele>
        <time>2020-02-22T09:16:36.000Z</time>
      </trkpt>
      <trkpt lat="38.16703389398753643035888671875" lon="-1.40189451165497303009033203125">
        <ele>262.600006103515625</ele>
        <time>2020-02-22T09:16:37.000Z</time>
      </trkpt>
      <trkpt lat="38.167043030261993408203125" lon="-1.40184422023594379425048828125">
        <ele>262.600006103515625</ele>
        <time>2020-02-22T09:16:38.000Z</time>
      </trkpt>
      <trkpt lat="38.16705618984997272491455078125" lon="-1.40179376117885112762451171875">
        <ele>262.399993896484375</ele>
        <time>2020-02-22T09:16:39.000Z</time>
      </trkpt>
      <trkpt lat="38.167091645300388336181640625" lon="-1.40169451944530010223388671875">
        <ele>262.399993896484375</ele>
        <time>2020-02-22T09:16:41.000Z</time>
      </trkpt>
      <trkpt lat="38.1671095825731754302978515625" lon="-1.40164657495915889739990234375">
        <ele>262.399993896484375</ele>
        <time>2020-02-22T09:16:42.000Z</time>
      </trkpt>
      <trkpt lat="38.1671488098800182342529296875" lon="-1.40156610868871212005615234375">
        <ele>262.399993896484375</ele>
        <time>2020-02-22T09:16:44.000Z</time>
      </trkpt>
      <trkpt lat="38.1672011129558086395263671875" lon="-1.40151196159422397613525390625">
        <ele>262.79998779296875</ele>
        <time>2020-02-22T09:16:46.000Z</time>
      </trkpt>
      <trkpt lat="38.1672745384275913238525390625" lon="-1.40148430131375789642333984375">
        <ele>264.20001220703125</ele>
        <time>2020-02-22T09:16:48.000Z</time>
      </trkpt>
      <trkpt lat="38.16733874380588531494140625" lon="-1.40150173567235469818115234375">
        <ele>265.20001220703125</ele>
        <time>2020-02-22T09:16:50.000Z</time>
      </trkpt>
      <trkpt lat="38.16736715845763683319091796875" lon="-1.4015237800776958465576171875">
        <ele>265.399993896484375</ele>
        <time>2020-02-22T09:16:51.000Z</time>
      </trkpt>
      <trkpt lat="38.16746572963893413543701171875" lon="-1.4016012288630008697509765625">
        <ele>266.600006103515625</ele>
        <time>2020-02-22T09:16:54.000Z</time>
      </trkpt>
      <trkpt lat="38.167526833713054656982421875" lon="-1.4016662724316120147705078125">
        <ele>267.20001220703125</ele>
        <time>2020-02-22T09:16:56.000Z</time>
      </trkpt>
      <trkpt lat="38.1675943918526172637939453125" lon="-1.40173383057117462158203125">
        <ele>267.79998779296875</ele>
        <time>2020-02-22T09:16:58.000Z</time>
      </trkpt>
      <trkpt lat="38.16767645068466663360595703125" lon="-1.40183416195213794708251953125">
        <ele>268.600006103515625</ele>
        <time>2020-02-22T09:17:01.000Z</time>
      </trkpt>
      <trkpt lat="38.16770017147064208984375" lon="-1.40186903066933155059814453125">
        <ele>268.79998779296875</ele>
        <time>2020-02-22T09:17:02.000Z</time>
      </trkpt>
      <trkpt lat="38.1677806377410888671875" lon="-1.40196944586932659149169921875">
        <ele>269.600006103515625</ele>
        <time>2020-02-22T09:17:05.000Z</time>
      </trkpt>
      <trkpt lat="38.16781072877347469329833984375" lon="-1.40200448222458362579345703125">
        <ele>270</ele>
        <time>2020-02-22T09:17:06.000Z</time>
      </trkpt>
      <trkpt lat="38.16793561913073062896728515625" lon="-1.40215921215713024139404296875">
        <ele>271</ele>
        <time>2020-02-22T09:17:10.000Z</time>
      </trkpt>
      <trkpt lat="38.16799663938581943511962890625" lon="-1.40224772505462169647216796875">
        <ele>271.399993896484375</ele>
        <time>2020-02-22T09:17:12.000Z</time>
      </trkpt>
      <trkpt lat="38.16802228800952434539794921875" lon="-1.40230271033942699432373046875">
        <ele>271.600006103515625</ele>
        <time>2020-02-22T09:17:13.000Z</time>
      </trkpt>
      <trkpt lat="38.16805816255509853363037109375" lon="-1.40241636894643306732177734375">
        <ele>272</ele>
        <time>2020-02-22T09:17:15.000Z</time>
      </trkpt>
      <trkpt lat="38.1680610962212085723876953125" lon="-1.40258233062922954559326171875">
        <ele>272.600006103515625</ele>
        <time>2020-02-22T09:17:18.000Z</time>
      </trkpt>
      <trkpt lat="38.167994208633899688720703125" lon="-1.4027485437691211700439453125">
        <ele>273</ele>
        <time>2020-02-22T09:17:22.000Z</time>
      </trkpt>
      <trkpt lat="38.16797166131436824798583984375" lon="-1.40278567560017108917236328125">
        <ele>273.20001220703125</ele>
        <time>2020-02-22T09:17:23.000Z</time>
      </trkpt>
      <trkpt lat="38.167847692966461181640625" lon="-1.40296496450901031494140625">
        <ele>274.20001220703125</ele>
        <time>2020-02-22T09:17:28.000Z</time>
      </trkpt>
      <trkpt lat="38.1677881814539432525634765625" lon="-1.40306554734706878662109375">
        <ele>275.20001220703125</ele>
        <time>2020-02-22T09:17:31.000Z</time>
      </trkpt>
      <trkpt lat="38.1677202880382537841796875" lon="-1.40317685902118682861328125">
        <ele>276.399993896484375</ele>
        <time>2020-02-22T09:17:35.000Z</time>
      </trkpt>
      <trkpt lat="38.16765415482223033905029296875" lon="-1.4032859914004802703857421875">
        <ele>277.79998779296875</ele>
        <time>2020-02-22T09:17:39.000Z</time>
      </trkpt>
      <trkpt lat="38.16759531386196613311767578125" lon="-1.4033882506191730499267578125">
        <ele>278.79998779296875</ele>
        <time>2020-02-22T09:17:43.000Z</time>
      </trkpt>
      <trkpt lat="38.1675414182245731353759765625" lon="-1.4034779369831085205078125">
        <ele>280</ele>
        <time>2020-02-22T09:17:47.000Z</time>
      </trkpt>
      <trkpt lat="38.16752641461789608001708984375" lon="-1.40350274741649627685546875">
        <ele>280</ele>
        <time>2020-02-22T09:17:48.000Z</time>
      </trkpt>
      <trkpt lat="38.16747712902724742889404296875" lon="-1.40360374934971332550048828125">
        <ele>281</ele>
        <time>2020-02-22T09:17:52.000Z</time>
      </trkpt>
      <trkpt lat="38.16744544543325901031494140625" lon="-1.40367298386991024017333984375">
        <ele>281.399993896484375</ele>
        <time>2020-02-22T09:17:55.000Z</time>
      </trkpt>
      <trkpt lat="38.16743354313075542449951171875" lon="-1.4036953635513782501220703125">
        <ele>281.600006103515625</ele>
        <time>2020-02-22T09:17:56.000Z</time>
      </trkpt>
      <trkpt lat="38.1673835031688213348388671875" lon="-1.4037617482244968414306640625">
        <ele>282</ele>
        <time>2020-02-22T09:17:59.000Z</time>
      </trkpt>
      <trkpt lat="38.16734318621456623077392578125" lon="-1.40382151119410991668701171875">
        <ele>282.399993896484375</ele>
        <time>2020-02-22T09:18:02.000Z</time>
      </trkpt>
      <trkpt lat="38.1673312000930309295654296875" lon="-1.403850428760051727294921875">
        <ele>282.600006103515625</ele>
        <time>2020-02-22T09:18:03.000Z</time>
      </trkpt>
      <trkpt lat="38.16726154647767543792724609375" lon="-1.4039461500942707061767578125">
        <ele>283.20001220703125</ele>
        <time>2020-02-22T09:18:07.000Z</time>
      </trkpt>
      <trkpt lat="38.1672031246125698089599609375" lon="-1.40404329635202884674072265625">
        <ele>283.600006103515625</ele>
        <time>2020-02-22T09:18:11.000Z</time>
      </trkpt>
      <trkpt lat="38.1671543419361114501953125" lon="-1.4041228406131267547607421875">
        <ele>284.20001220703125</ele>
        <time>2020-02-22T09:18:14.000Z</time>
      </trkpt>
      <trkpt lat="38.167106397449970245361328125" lon="-1.4042240940034389495849609375">
        <ele>285</ele>
        <time>2020-02-22T09:18:18.000Z</time>
      </trkpt>
      <trkpt lat="38.16707697696983814239501953125" lon="-1.40428327023983001708984375">
        <ele>285.20001220703125</ele>
        <time>2020-02-22T09:18:20.000Z</time>
      </trkpt>
      <trkpt lat="38.1670041382312774658203125" lon="-1.40441511757671833038330078125">
        <ele>286.20001220703125</ele>
        <time>2020-02-22T09:18:25.000Z</time>
      </trkpt>
      <trkpt lat="38.1669885478913784027099609375" lon="-1.40444579534232616424560546875">
        <ele>286.399993896484375</ele>
        <time>2020-02-22T09:18:26.000Z</time>
      </trkpt>
      <trkpt lat="38.16690422594547271728515625" lon="-1.4046388305723667144775390625">
        <ele>287.600006103515625</ele>
        <time>2020-02-22T09:18:33.000Z</time>
      </trkpt>
      <trkpt lat="38.166897185146808624267578125" lon="-1.40466950833797454833984375">
        <ele>287.79998779296875</ele>
        <time>2020-02-22T09:18:34.000Z</time>
      </trkpt>
      <trkpt lat="38.166844211518764495849609375" lon="-1.40484980307519435882568359375">
        <ele>288.600006103515625</ele>
        <time>2020-02-22T09:18:40.000Z</time>
      </trkpt>
      <trkpt lat="38.16682954318821430206298828125" lon="-1.40491317026317119598388671875">
        <ele>289</ele>
        <time>2020-02-22T09:18:42.000Z</time>
      </trkpt>
      <trkpt lat="38.16681428812444210052490234375" lon="-1.4050083048641681671142578125">
        <ele>289.600006103515625</ele>
        <time>2020-02-22T09:18:45.000Z</time>
      </trkpt>
      <trkpt lat="38.16678612492978572845458984375" lon="-1.40516571700572967529296875">
        <ele>290.399993896484375</ele>
        <time>2020-02-22T09:18:50.000Z</time>
      </trkpt>
      <trkpt lat="38.1667721271514892578125" lon="-1.4052372984588146209716796875">
        <ele>290.79998779296875</ele>
        <time>2020-02-22T09:18:52.000Z</time>
      </trkpt>
      <trkpt lat="38.166737258434295654296875" lon="-1.405448354780673980712890625">
        <ele>291.600006103515625</ele>
        <time>2020-02-22T09:18:58.000Z</time>
      </trkpt>
      <trkpt lat="38.16672560758888721466064453125" lon="-1.40552035532891750335693359375">
        <ele>291.79998779296875</ele>
        <time>2020-02-22T09:19:00.000Z</time>
      </trkpt>
      <trkpt lat="38.16669275052845478057861328125" lon="-1.4056855626404285430908203125">
        <ele>293</ele>
        <time>2020-02-22T09:19:05.000Z</time>
      </trkpt>
      <trkpt lat="38.166689313948154449462890625" lon="-1.40571766532957553863525390625">
        <ele>293.20001220703125</ele>
        <time>2020-02-22T09:19:06.000Z</time>
      </trkpt>
      <trkpt lat="38.166668526828289031982421875" lon="-1.40583383850753307342529296875">
        <ele>294</ele>
        <time>2020-02-22T09:19:10.000Z</time>
      </trkpt>
      <trkpt lat="38.1666395254433155059814453125" lon="-1.4059668593108654022216796875">
        <ele>294.79998779296875</ele>
        <time>2020-02-22T09:19:14.000Z</time>
      </trkpt>
      <trkpt lat="38.166633658111095428466796875" lon="-1.4060027338564395904541015625">
        <ele>295.20001220703125</ele>
        <time>2020-02-22T09:19:15.000Z</time>
      </trkpt>
      <trkpt lat="38.1665999628603458404541015625" lon="-1.40618269331753253936767578125">
        <ele>296.20001220703125</ele>
        <time>2020-02-22T09:19:20.000Z</time>
      </trkpt>
      <trkpt lat="38.16659518517553806304931640625" lon="-1.40621714293956756591796875">
        <ele>296.399993896484375</ele>
        <time>2020-02-22T09:19:21.000Z</time>
      </trkpt>
      <trkpt lat="38.166590072214603424072265625" lon="-1.40638905577361583709716796875">
        <ele>297.399993896484375</ele>
        <time>2020-02-22T09:19:26.000Z</time>
      </trkpt>
      <trkpt lat="38.166592419147491455078125" lon="-1.4064640738070011138916015625">
        <ele>297.79998779296875</ele>
        <time>2020-02-22T09:19:28.000Z</time>
      </trkpt>
      <trkpt lat="38.16659116186201572418212890625" lon="-1.40656205825507640838623046875">
        <ele>298.600006103515625</ele>
        <time>2020-02-22T09:19:31.000Z</time>
      </trkpt>
      <trkpt lat="38.16658663563430309295654296875" lon="-1.406721062958240509033203125">
        <ele>299.79998779296875</ele>
        <time>2020-02-22T09:19:36.000Z</time>
      </trkpt>
      <trkpt lat="38.1665801815688610076904296875" lon="-1.40684989280998706817626953125">
        <ele>300.79998779296875</ele>
        <time>2020-02-22T09:19:40.000Z</time>
      </trkpt>
      <trkpt lat="38.166571296751499176025390625" lon="-1.4069800637662410736083984375">
        <ele>301.79998779296875</ele>
        <time>2020-02-22T09:19:44.000Z</time>
      </trkpt>
      <trkpt lat="38.16656920127570629119873046875" lon="-1.40701250173151493072509765625">
        <ele>302</ele>
        <time>2020-02-22T09:19:45.000Z</time>
      </trkpt>
      <trkpt lat="38.166566602885723114013671875" lon="-1.40710671432316303253173828125">
        <ele>302.79998779296875</ele>
        <time>2020-02-22T09:19:48.000Z</time>
      </trkpt>
      <trkpt lat="38.1665503419935703277587890625" lon="-1.40730385668575763702392578125">
        <ele>304</ele>
        <time>2020-02-22T09:19:54.000Z</time>
      </trkpt>
      <trkpt lat="38.166548497974872589111328125" lon="-1.4073349535465240478515625">
        <ele>304.20001220703125</ele>
        <time>2020-02-22T09:19:55.000Z</time>
      </trkpt>
      <trkpt lat="38.1665473245084285736083984375" lon="-1.407506279647350311279296875">
        <ele>305</ele>
        <time>2020-02-22T09:20:00.000Z</time>
      </trkpt>
      <trkpt lat="38.16654480993747711181640625" lon="-1.4075656235218048095703125">
        <ele>305.399993896484375</ele>
        <time>2020-02-22T09:20:02.000Z</time>
      </trkpt>
      <trkpt lat="38.16653408110141754150390625" lon="-1.40769545920193195343017578125">
        <ele>306.20001220703125</ele>
        <time>2020-02-22T09:20:06.000Z</time>
      </trkpt>
      <trkpt lat="38.166523687541484832763671875" lon="-1.40785387717187404632568359375">
        <ele>307.399993896484375</ele>
        <time>2020-02-22T09:20:11.000Z</time>
      </trkpt>
      <trkpt lat="38.16652192734181880950927734375" lon="-1.4078809507191181182861328125">
        <ele>307.600006103515625</ele>
        <time>2020-02-22T09:20:12.000Z</time>
      </trkpt>
      <trkpt lat="38.1665091030299663543701171875" lon="-1.4080318249762058258056640625">
        <ele>308.79998779296875</ele>
        <time>2020-02-22T09:20:17.000Z</time>
      </trkpt>
      <trkpt lat="38.16650432534515857696533203125" lon="-1.40812176279723644256591796875">
        <ele>309.399993896484375</ele>
        <time>2020-02-22T09:20:20.000Z</time>
      </trkpt>
      <trkpt lat="38.1665158085525035858154296875" lon="-1.40818563289940357208251953125">
        <ele>310</ele>
        <time>2020-02-22T09:20:22.000Z</time>
      </trkpt>
      <trkpt lat="38.166568614542484283447265625" lon="-1.40835293568670749664306640625">
        <ele>310.399993896484375</ele>
        <time>2020-02-22T09:20:27.000Z</time>
      </trkpt>
      <trkpt lat="38.16662418656051158905029296875" lon="-1.4084985293447971343994140625">
        <ele>311</ele>
        <time>2020-02-22T09:20:31.000Z</time>
      </trkpt>
      <trkpt lat="38.166681267321109771728515625" lon="-1.40862970612943172454833984375">
        <ele>311.600006103515625</ele>
        <time>2020-02-22T09:20:35.000Z</time>
      </trkpt>
      <trkpt lat="38.16670113243162631988525390625" lon="-1.40869508497416973114013671875">
        <ele>312</ele>
        <time>2020-02-22T09:20:37.000Z</time>
      </trkpt>
      <trkpt lat="38.16679769195616245269775390625" lon="-1.4089182950556278228759765625">
        <ele>313.20001220703125</ele>
        <time>2020-02-22T09:20:44.000Z</time>
      </trkpt>
      <trkpt lat="38.1668121926486492156982421875" lon="-1.4089498110115528106689453125">
        <ele>313.399993896484375</ele>
        <time>2020-02-22T09:20:45.000Z</time>
      </trkpt>
      <trkpt lat="38.166869692504405975341796875" lon="-1.409080065786838531494140625">
        <ele>314.20001220703125</ele>
        <time>2020-02-22T09:20:49.000Z</time>
      </trkpt>
      <trkpt lat="38.16693280823528766632080078125" lon="-1.40921660698950290679931640625">
        <ele>315</ele>
        <time>2020-02-22T09:20:54.000Z</time>
      </trkpt>
      <trkpt lat="38.166940771043300628662109375" lon="-1.409247033298015594482421875">
        <ele>315.20001220703125</ele>
        <time>2020-02-22T09:20:55.000Z</time>
      </trkpt>
      <trkpt lat="38.16694705747067928314208984375" lon="-1.4093551598489284515380859375">
        <ele>316</ele>
        <time>2020-02-22T09:20:58.000Z</time>
      </trkpt>
      <trkpt lat="38.166935406625270843505859375" lon="-1.40943202190101146697998046875">
        <ele>316.20001220703125</ele>
        <time>2020-02-22T09:21:00.000Z</time>
      </trkpt>
      <trkpt lat="38.1668862886726856231689453125" lon="-1.409573256969451904296875">
        <ele>317</ele>
        <time>2020-02-22T09:21:04.000Z</time>
      </trkpt>
      <trkpt lat="38.16687078215181827545166015625" lon="-1.409602425992488861083984375">
        <ele>317.20001220703125</ele>
        <time>2020-02-22T09:21:05.000Z</time>
      </trkpt>
      <trkpt lat="38.16677036695182323455810546875" lon="-1.40975237824022769927978515625">
        <ele>318.399993896484375</ele>
        <time>2020-02-22T09:21:10.000Z</time>
      </trkpt>
      <trkpt lat="38.16674388013780117034912109375" lon="-1.409769393503665924072265625">
        <ele>318.600006103515625</ele>
        <time>2020-02-22T09:21:11.000Z</time>
      </trkpt>
      <trkpt lat="38.16662401892244815826416015625" lon="-1.40985463745892047882080078125">
        <ele>319.600006103515625</ele>
        <time>2020-02-22T09:21:16.000Z</time>
      </trkpt>
      <trkpt lat="38.16657842136919498443603515625" lon="-1.409890092909336090087890625">
        <ele>320.20001220703125</ele>
        <time>2020-02-22T09:21:18.000Z</time>
      </trkpt>
      <trkpt lat="38.16649141721427440643310546875" lon="-1.4099563099443912506103515625">
        <ele>320.79998779296875</ele>
        <time>2020-02-22T09:21:22.000Z</time>
      </trkpt>
      <trkpt lat="38.166403658688068389892578125" lon="-1.41002898104488849639892578125">
        <ele>321.600006103515625</ele>
        <time>2020-02-22T09:21:26.000Z</time>
      </trkpt>
      <trkpt lat="38.16634959541261196136474609375" lon="-1.41005831770598888397216796875">
        <ele>322</ele>
        <time>2020-02-22T09:21:28.000Z</time>
      </trkpt>
      <trkpt lat="38.1662182509899139404296875" lon="-1.41016845591366291046142578125">
        <ele>323</ele>
        <time>2020-02-22T09:21:34.000Z</time>
      </trkpt>
      <trkpt lat="38.166199140250682830810546875" lon="-1.41019259579479694366455078125">
        <ele>323.20001220703125</ele>
        <time>2020-02-22T09:21:35.000Z</time>
      </trkpt>
      <trkpt lat="38.166152872145175933837890625" lon="-1.41031664796173572540283203125">
        <ele>324.20001220703125</ele>
        <time>2020-02-22T09:21:39.000Z</time>
      </trkpt>
      <trkpt lat="38.1661382876336574554443359375" lon="-1.41039309091866016387939453125">
        <ele>324.79998779296875</ele>
        <time>2020-02-22T09:21:41.000Z</time>
      </trkpt>
      <trkpt lat="38.16611708141863346099853515625" lon="-1.41050708480179309844970703125">
        <ele>325.399993896484375</ele>
        <time>2020-02-22T09:21:44.000Z</time>
      </trkpt>
      <trkpt lat="38.1660863198339939117431640625" lon="-1.41068478114902973175048828125">
        <ele>326.399993896484375</ele>
        <time>2020-02-22T09:21:49.000Z</time>
      </trkpt>
      <trkpt lat="38.1660712324082851409912109375" lon="-1.4107472263276576995849609375">
        <ele>327</ele>
        <time>2020-02-22T09:21:51.000Z</time>
      </trkpt>
      <trkpt lat="38.16605488769710063934326171875" lon="-1.410810761153697967529296875">
        <ele>327.600006103515625</ele>
        <time>2020-02-22T09:21:53.000Z</time>
      </trkpt>
      <trkpt lat="38.16601197235286235809326171875" lon="-1.4109478890895843505859375">
        <ele>328.79998779296875</ele>
        <time>2020-02-22T09:21:57.000Z</time>
      </trkpt>
      <trkpt lat="38.1659984774887561798095703125" lon="-1.410986445844173431396484375">
        <ele>329</ele>
        <time>2020-02-22T09:21:58.000Z</time>
      </trkpt>
      <trkpt lat="38.16594944335520267486572265625" lon="-1.4111284352838993072509765625">
        <ele>329.79998779296875</ele>
        <time>2020-02-22T09:22:02.000Z</time>
      </trkpt>
      <trkpt lat="38.16592446528375148773193359375" lon="-1.41120647080242633819580078125">
        <ele>330.20001220703125</ele>
        <time>2020-02-22T09:22:04.000Z</time>
      </trkpt>
      <trkpt lat="38.1658854894340038299560546875" lon="-1.41132197342813014984130859375">
        <ele>330.79998779296875</ele>
        <time>2020-02-22T09:22:07.000Z</time>
      </trkpt>
      <trkpt lat="38.16584718413650989532470703125" lon="-1.41144971363246440887451171875">
        <ele>331.399993896484375</ele>
        <time>2020-02-22T09:22:10.000Z</time>
      </trkpt>
      <trkpt lat="38.16581918857991695404052734375" lon="-1.41153939999639987945556640625">
        <ele>332</ele>
        <time>2020-02-22T09:22:12.000Z</time>
      </trkpt>
      <trkpt lat="38.16580208949744701385498046875" lon="-1.41172396950423717498779296875">
        <ele>332.600006103515625</ele>
        <time>2020-02-22T09:22:16.000Z</time>
      </trkpt>
      <trkpt lat="38.1658358685672283172607421875" lon="-1.4118626900017261505126953125">
        <ele>333</ele>
        <time>2020-02-22T09:22:19.000Z</time>
      </trkpt>
      <trkpt lat="38.16587601788341999053955078125" lon="-1.41195111908018589019775390625">
        <ele>333.399993896484375</ele>
        <time>2020-02-22T09:22:21.000Z</time>
      </trkpt>
      <trkpt lat="38.1660048477351665496826171875" lon="-1.41210316680371761322021484375">
        <ele>334.20001220703125</ele>
        <time>2020-02-22T09:22:25.000Z</time>
      </trkpt>
      <trkpt lat="38.16607031039893627166748046875" lon="-1.412171982228755950927734375">
        <ele>334.20001220703125</ele>
        <time>2020-02-22T09:22:27.000Z</time>
      </trkpt>
      <trkpt lat="38.1662563048303127288818359375" lon="-1.41238664276897907257080078125">
        <ele>334.79998779296875</ele>
        <time>2020-02-22T09:22:34.000Z</time>
      </trkpt>
      <trkpt lat="38.1663089431822299957275390625" lon="-1.4124507643282413482666015625">
        <ele>335.20001220703125</ele>
        <time>2020-02-22T09:22:36.000Z</time>
      </trkpt>
      <trkpt lat="38.1664437241852283477783203125" lon="-1.412613205611705780029296875">
        <ele>336</ele>
        <time>2020-02-22T09:22:41.000Z</time>
      </trkpt>
      <trkpt lat="38.16649326123297214508056640625" lon="-1.41269040293991565704345703125">
        <ele>336.399993896484375</ele>
        <time>2020-02-22T09:22:43.000Z</time>
      </trkpt>
      <trkpt lat="38.1665547005832195281982421875" lon="-1.41286022029817104339599609375">
        <ele>337.399993896484375</ele>
        <time>2020-02-22T09:22:47.000Z</time>
      </trkpt>
      <trkpt lat="38.1665711291134357452392578125" lon="-1.4131193049252033233642578125">
        <ele>338.79998779296875</ele>
        <time>2020-02-22T09:22:52.000Z</time>
      </trkpt>
      <trkpt lat="38.1665754877030849456787109375" lon="-1.41317403875291347503662109375">
        <ele>339</ele>
        <time>2020-02-22T09:22:53.000Z</time>
      </trkpt>
      <trkpt lat="38.16657565534114837646484375" lon="-1.41340638510882854461669921875">
        <ele>339.399993896484375</ele>
        <time>2020-02-22T09:22:57.000Z</time>
      </trkpt>
      <trkpt lat="38.16655176691710948944091796875" lon="-1.41353311948478221893310546875">
        <ele>339.399993896484375</ele>
        <time>2020-02-22T09:22:59.000Z</time>
      </trkpt>
      <trkpt lat="38.16645135171711444854736328125" lon="-1.4137435890734195709228515625">
        <ele>339.399993896484375</ele>
        <time>2020-02-22T09:23:02.000Z</time>
      </trkpt>
      <trkpt lat="38.166404664516448974609375" lon="-1.41381927765905857086181640625">
        <ele>339.399993896484375</ele>
        <time>2020-02-22T09:23:03.000Z</time>
      </trkpt>
      <trkpt lat="38.16630936227738857269287109375" lon="-1.41399244777858257293701171875">
        <ele>339.20001220703125</ele>
        <time>2020-02-22T09:23:05.000Z</time>
      </trkpt>
      <trkpt lat="38.166189752519130706787109375" lon="-1.41426511108875274658203125">
        <ele>338.399993896484375</ele>
        <time>2020-02-22T09:23:08.000Z</time>
      </trkpt>
      <trkpt lat="38.166135437786579132080078125" lon="-1.41444540582597255706787109375">
        <ele>337.399993896484375</ele>
        <time>2020-02-22T09:23:10.000Z</time>
      </trkpt>
      <trkpt lat="38.1661027483642101287841796875" lon="-1.41461790539324283599853515625">
        <ele>336</ele>
        <time>2020-02-22T09:23:12.000Z</time>
      </trkpt>
      <trkpt lat="38.16610584966838359832763671875" lon="-1.41470055095851421356201171875">
        <ele>335.20001220703125</ele>
        <time>2020-02-22T09:23:13.000Z</time>
      </trkpt>
      <trkpt lat="38.166122697293758392333984375" lon="-1.41478051431477069854736328125">
        <ele>334.79998779296875</ele>
        <time>2020-02-22T09:23:14.000Z</time>
      </trkpt>
      <trkpt lat="38.1661914288997650146484375" lon="-1.41491496004164218902587890625">
        <ele>334.20001220703125</ele>
        <time>2020-02-22T09:23:16.000Z</time>
      </trkpt>
      <trkpt lat="38.1662301532924175262451171875" lon="-1.41497380100190639495849609375">
        <ele>334.20001220703125</ele>
        <time>2020-02-22T09:23:17.000Z</time>
      </trkpt>
      <trkpt lat="38.16635311581194400787353515625" lon="-1.415151245892047882080078125">
        <ele>334.20001220703125</ele>
        <time>2020-02-22T09:23:21.000Z</time>
      </trkpt>
      <trkpt lat="38.16650432534515857696533203125" lon="-1.41534830443561077117919921875">
        <ele>335.79998779296875</ele>
        <time>2020-02-22T09:23:27.000Z</time>
      </trkpt>
      <trkpt lat="38.16653584130108356475830078125" lon="-1.4153767190873622894287109375">
        <ele>336.399993896484375</ele>
        <time>2020-02-22T09:23:28.000Z</time>
      </trkpt>
      <trkpt lat="38.1665669381618499755859375" lon="-1.4154057204723358154296875">
        <ele>337</ele>
        <time>2020-02-22T09:23:29.000Z</time>
      </trkpt>
      <trkpt lat="38.16669258289039134979248046875" lon="-1.41550789587199687957763671875">
        <ele>338</ele>
        <time>2020-02-22T09:23:33.000Z</time>
      </trkpt>
      <trkpt lat="38.1667826883494853973388671875" lon="-1.41557310707867145538330078125">
        <ele>338.79998779296875</ele>
        <time>2020-02-22T09:23:36.000Z</time>
      </trkpt>
      <trkpt lat="38.16680724732577800750732421875" lon="-1.41559322364628314971923828125">
        <ele>339.20001220703125</ele>
        <time>2020-02-22T09:23:37.000Z</time>
      </trkpt>
      <trkpt lat="38.16686726175248622894287109375" lon="-1.41563563607633113861083984375">
        <ele>339.79998779296875</ele>
        <time>2020-02-22T09:23:39.000Z</time>
      </trkpt>
      <trkpt lat="38.1669074110686779022216796875" lon="-1.4156912080943584442138671875">
        <ele>340.20001220703125</ele>
        <time>2020-02-22T09:23:41.000Z</time>
      </trkpt>
      <trkpt lat="38.166928701102733612060546875" lon="-1.41573035158216953277587890625">
        <ele>340.600006103515625</ele>
        <time>2020-02-22T09:23:42.000Z</time>
      </trkpt>
      <trkpt lat="38.1669821776449680328369140625" lon="-1.4158984087407588958740234375">
        <ele>341.399993896484375</ele>
        <time>2020-02-22T09:23:46.000Z</time>
      </trkpt>
      <trkpt lat="38.1670012883841991424560546875" lon="-1.41597661189734935760498046875">
        <ele>341.600006103515625</ele>
        <time>2020-02-22T09:23:48.000Z</time>
      </trkpt>
      <trkpt lat="38.16702635027468204498291015625" lon="-1.41609563492238521575927734375">
        <ele>342.600006103515625</ele>
        <time>2020-02-22T09:23:51.000Z</time>
      </trkpt>
      <trkpt lat="38.1670854426920413970947265625" lon="-1.41626360826194286346435546875">
        <ele>343.600006103515625</ele>
        <time>2020-02-22T09:23:56.000Z</time>
      </trkpt>
      <trkpt lat="38.16713430918753147125244140625" lon="-1.41647986136376857757568359375">
        <ele>344.79998779296875</ele>
        <time>2020-02-22T09:24:02.000Z</time>
      </trkpt>
      <trkpt lat="38.1671467982232570648193359375" lon="-1.4165511913597583770751953125">
        <ele>345.20001220703125</ele>
        <time>2020-02-22T09:24:04.000Z</time>
      </trkpt>
      <trkpt lat="38.16714285872876644134521484375" lon="-1.4166812784969806671142578125">
        <ele>346</ele>
        <time>2020-02-22T09:24:07.000Z</time>
      </trkpt>
      <trkpt lat="38.16712819039821624755859375" lon="-1.41679619438946247100830078125">
        <ele>346.79998779296875</ele>
        <time>2020-02-22T09:24:10.000Z</time>
      </trkpt>
      <trkpt lat="38.16711804829537868499755859375" lon="-1.4168326556682586669921875">
        <ele>347.20001220703125</ele>
        <time>2020-02-22T09:24:11.000Z</time>
      </trkpt>
      <trkpt lat="38.167054764926433563232421875" lon="-1.41697020269930362701416015625">
        <ele>348.600006103515625</ele>
        <time>2020-02-22T09:24:15.000Z</time>
      </trkpt>
      <trkpt lat="38.1670405156910419464111328125" lon="-1.41700096428394317626953125">
        <ele>349.399993896484375</ele>
        <time>2020-02-22T09:24:16.000Z</time>
      </trkpt>
      <trkpt lat="38.16702182404696941375732421875" lon="-1.4170272834599018096923828125">
        <ele>349.600006103515625</ele>
        <time>2020-02-22T09:24:17.000Z</time>
      </trkpt>
      <trkpt lat="38.1669456325471401214599609375" lon="-1.4171466417610645294189453125">
        <ele>350.79998779296875</ele>
        <time>2020-02-22T09:24:21.000Z</time>
      </trkpt>
      <trkpt lat="38.1668826006352901458740234375" lon="-1.41726247966289520263671875">
        <ele>351.20001220703125</ele>
        <time>2020-02-22T09:24:24.000Z</time>
      </trkpt>
      <trkpt lat="38.16683675162494182586669921875" lon="-1.41736842691898345947265625">
        <ele>351.20001220703125</ele>
        <time>2020-02-22T09:24:26.000Z</time>
      </trkpt>
      <trkpt lat="38.16682267002761363983154296875" lon="-1.4174892939627170562744140625">
        <ele>351.20001220703125</ele>
        <time>2020-02-22T09:24:28.000Z</time>
      </trkpt>
      <trkpt lat="38.16686390899121761322021484375" lon="-1.4177840016782283782958984375">
        <ele>351.20001220703125</ele>
        <time>2020-02-22T09:24:32.000Z</time>
      </trkpt>
      <trkpt lat="38.166888467967510223388671875" lon="-1.4178688265383243560791015625">
        <ele>351.20001220703125</ele>
        <time>2020-02-22T09:24:33.000Z</time>
      </trkpt>
      <trkpt lat="38.1669719517230987548828125" lon="-1.41800788231194019317626953125">
        <ele>351.20001220703125</ele>
        <time>2020-02-22T09:24:35.000Z</time>
      </trkpt>
      <trkpt lat="38.167154006659984588623046875" lon="-1.41814115457236766815185546875">
        <ele>350</ele>
        <time>2020-02-22T09:24:38.000Z</time>
      </trkpt>
      <trkpt lat="38.167213685810565948486328125" lon="-1.4181806333363056182861328125">
        <ele>349.79998779296875</ele>
        <time>2020-02-22T09:24:39.000Z</time>
      </trkpt>
      <trkpt lat="38.16727194003760814666748046875" lon="-1.41822245903313159942626953125">
        <ele>349.79998779296875</ele>
        <time>2020-02-22T09:24:40.000Z</time>
      </trkpt>
      <trkpt lat="38.16746891476213932037353515625" lon="-1.4184233732521533966064453125">
        <ele>349.399993896484375</ele>
        <time>2020-02-22T09:24:44.000Z</time>
      </trkpt>
      <trkpt lat="38.167574442923069000244140625" lon="-1.41859813593327999114990234375">
        <ele>349.20001220703125</ele>
        <time>2020-02-22T09:24:47.000Z</time>
      </trkpt>
      <trkpt lat="38.16759011708199977874755859375" lon="-1.41866669990122318267822265625">
        <ele>349.20001220703125</ele>
        <time>2020-02-22T09:24:48.000Z</time>
      </trkpt>
      <trkpt lat="38.167591877281665802001953125" lon="-1.41874347813427448272705078125">
        <ele>349</ele>
        <time>2020-02-22T09:24:49.000Z</time>
      </trkpt>
      <trkpt lat="38.16757905296981334686279296875" lon="-1.4188201725482940673828125">
        <ele>349</ele>
        <time>2020-02-22T09:24:50.000Z</time>
      </trkpt>
      <trkpt lat="38.16751166246831417083740234375" lon="-1.4189675264060497283935546875">
        <ele>349</ele>
        <time>2020-02-22T09:24:52.000Z</time>
      </trkpt>
      <trkpt lat="38.167469836771488189697265625" lon="-1.41904086805880069732666015625">
        <ele>348.79998779296875</ele>
        <time>2020-02-22T09:24:53.000Z</time>
      </trkpt>
      <trkpt lat="38.1674368120729923248291015625" lon="-1.4191232621669769287109375">
        <ele>348.79998779296875</ele>
        <time>2020-02-22T09:24:54.000Z</time>
      </trkpt>
      <trkpt lat="38.16741116344928741455078125" lon="-1.4192209951579570770263671875">
        <ele>348.600006103515625</ele>
        <time>2020-02-22T09:24:55.000Z</time>
      </trkpt>
      <trkpt lat="38.1674126721918582916259765625" lon="-1.41932375729084014892578125">
        <ele>348.399993896484375</ele>
        <time>2020-02-22T09:24:56.000Z</time>
      </trkpt>
      <trkpt lat="38.16749623976647853851318359375" lon="-1.41946381889283657073974609375">
        <ele>348</ele>
        <time>2020-02-22T09:24:58.000Z</time>
      </trkpt>
      <trkpt lat="38.16761559806764125823974609375" lon="-1.419498436152935028076171875">
        <ele>347.79998779296875</ele>
        <time>2020-02-22T09:25:00.000Z</time>
      </trkpt>
      <trkpt lat="38.1676711700856685638427734375" lon="-1.41950304619967937469482421875">
        <ele>347.600006103515625</ele>
        <time>2020-02-22T09:25:01.000Z</time>
      </trkpt>
      <trkpt lat="38.1677650474011898040771484375" lon="-1.41952089965343475341796875">
        <ele>347.600006103515625</ele>
        <time>2020-02-22T09:25:03.000Z</time>
      </trkpt>
      <trkpt lat="38.16783922724425792694091796875" lon="-1.41956222243607044219970703125">
        <ele>347.600006103515625</ele>
        <time>2020-02-22T09:25:05.000Z</time>
      </trkpt>
      <trkpt lat="38.16793478094041347503662109375" lon="-1.41972835175693035125732421875">
        <ele>348.20001220703125</ele>
        <time>2020-02-22T09:25:09.000Z</time>
      </trkpt>
      <trkpt lat="38.1679514609277248382568359375" lon="-1.419779397547245025634765625">
        <ele>348.79998779296875</ele>
        <time>2020-02-22T09:25:10.000Z</time>
      </trkpt>
      <trkpt lat="38.16797367297112941741943359375" lon="-1.4198791421949863433837890625">
        <ele>350</ele>
        <time>2020-02-22T09:25:12.000Z</time>
      </trkpt>
      <trkpt lat="38.167987167835235595703125" lon="-1.41997796483337879180908203125">
        <ele>351</ele>
        <time>2020-02-22T09:25:14.000Z</time>
      </trkpt>
      <trkpt lat="38.16799831576645374298095703125" lon="-1.4200762845575809478759765625">
        <ele>351.79998779296875</ele>
        <time>2020-02-22T09:25:16.000Z</time>
      </trkpt>
      <trkpt lat="38.16800653003156185150146484375" lon="-1.42012263648211956024169921875">
        <ele>352</ele>
        <time>2020-02-22T09:25:17.000Z</time>
      </trkpt>
      <trkpt lat="38.16806168295443058013916015625" lon="-1.420376859605312347412109375">
        <ele>352.79998779296875</ele>
        <time>2020-02-22T09:25:22.000Z</time>
      </trkpt>
      <trkpt lat="38.16811926662921905517578125" lon="-1.42057090066373348236083984375">
        <ele>353.399993896484375</ele>
        <time>2020-02-22T09:25:26.000Z</time>
      </trkpt>
      <trkpt lat="38.16815078258514404296875" lon="-1.42065287567675113677978515625">
        <ele>353.79998779296875</ele>
        <time>2020-02-22T09:25:28.000Z</time>
      </trkpt>
      <trkpt lat="38.1682377867400646209716796875" lon="-1.42088756896555423736572265625">
        <ele>354.20001220703125</ele>
        <time>2020-02-22T09:25:32.000Z</time>
      </trkpt>
      <trkpt lat="38.16824172623455524444580078125" lon="-1.42095110379159450531005859375">
        <ele>354.399993896484375</ele>
        <time>2020-02-22T09:25:33.000Z</time>
      </trkpt>
      <trkpt lat="38.1682448275387287139892578125" lon="-1.4210703782737255096435546875">
        <ele>354.79998779296875</ele>
        <time>2020-02-22T09:25:35.000Z</time>
      </trkpt>
      <trkpt lat="38.1682394631206989288330078125" lon="-1.42117506824433803558349609375">
        <ele>355</ele>
        <time>2020-02-22T09:25:37.000Z</time>
      </trkpt>
      <trkpt lat="38.168231584131717681884765625" lon="-1.42126475460827350616455078125">
        <ele>355</ele>
        <time>2020-02-22T09:25:39.000Z</time>
      </trkpt>
      <trkpt lat="38.1682173348963260650634765625" lon="-1.4214093424379825592041015625">
        <ele>355.600006103515625</ele>
        <time>2020-02-22T09:25:42.000Z</time>
      </trkpt>
      <trkpt lat="38.16820501349866390228271484375" lon="-1.421525515615940093994140625">
        <ele>356</ele>
        <time>2020-02-22T09:25:44.000Z</time>
      </trkpt>
      <trkpt lat="38.168208785355091094970703125" lon="-1.4216847717761993408203125">
        <ele>357.20001220703125</ele>
        <time>2020-02-22T09:25:47.000Z</time>
      </trkpt>
      <trkpt lat="38.1682299077510833740234375" lon="-1.4218939840793609619140625">
        <ele>357.79998779296875</ele>
        <time>2020-02-22T09:25:51.000Z</time>
      </trkpt>
      <trkpt lat="38.1682394631206989288330078125" lon="-1.42197939567267894744873046875">
        <ele>358.399993896484375</ele>
        <time>2020-02-22T09:25:53.000Z</time>
      </trkpt>
      <trkpt lat="38.168272487819194793701171875" lon="-1.4222180284559726715087890625">
        <ele>359.20001220703125</ele>
        <time>2020-02-22T09:25:58.000Z</time>
      </trkpt>
      <trkpt lat="38.16828279756009578704833984375" lon="-1.4222579263150691986083984375">
        <ele>359.600006103515625</ele>
        <time>2020-02-22T09:25:59.000Z</time>
      </trkpt>
      <trkpt lat="38.16830526106059551239013671875" lon="-1.422377787530422210693359375">
        <ele>360.79998779296875</ele>
        <time>2020-02-22T09:26:02.000Z</time>
      </trkpt>
      <trkpt lat="38.1683286465704441070556640625" lon="-1.422501504421234130859375">
        <ele>361.600006103515625</ele>
        <time>2020-02-22T09:26:05.000Z</time>
      </trkpt>
      <trkpt lat="38.16833510063588619232177734375" lon="-1.4225429110229015350341796875">
        <ele>362</ele>
        <time>2020-02-22T09:26:06.000Z</time>
      </trkpt>
      <trkpt lat="38.1683363579213619232177734375" lon="-1.4227616786956787109375">
        <ele>363.399993896484375</ele>
        <time>2020-02-22T09:26:11.000Z</time>
      </trkpt>
      <trkpt lat="38.16833275370299816131591796875" lon="-1.42280886881053447723388671875">
        <ele>364</ele>
        <time>2020-02-22T09:26:12.000Z</time>
      </trkpt>
      <trkpt lat="38.16832688637077808380126953125" lon="-1.42285664565861225128173828125">
        <ele>364.600006103515625</ele>
        <time>2020-02-22T09:26:13.000Z</time>
      </trkpt>
      <trkpt lat="38.16830660216510295867919921875" lon="-1.4229972101747989654541015625">
        <ele>366</ele>
        <time>2020-02-22T09:26:16.000Z</time>
      </trkpt>
      <trkpt lat="38.1682835519313812255859375" lon="-1.42313651740550994873046875">
        <ele>366.399993896484375</ele>
        <time>2020-02-22T09:26:19.000Z</time>
      </trkpt>
      <trkpt lat="38.16826519556343555450439453125" lon="-1.42323114909231662750244140625">
        <ele>367.20001220703125</ele>
        <time>2020-02-22T09:26:21.000Z</time>
      </trkpt>
      <trkpt lat="38.1682471744716167449951171875" lon="-1.42336140386760234832763671875">
        <ele>368.399993896484375</ele>
        <time>2020-02-22T09:26:24.000Z</time>
      </trkpt>
      <trkpt lat="38.1682391278445720672607421875" lon="-1.42340800724923610687255859375">
        <ele>368.600006103515625</ele>
        <time>2020-02-22T09:26:25.000Z</time>
      </trkpt>
      <trkpt lat="38.16820434294641017913818359375" lon="-1.4235883019864559173583984375">
        <ele>369.600006103515625</ele>
        <time>2020-02-22T09:26:29.000Z</time>
      </trkpt>
      <trkpt lat="38.16817701794207096099853515625" lon="-1.4237130247056484222412109375">
        <ele>370.20001220703125</ele>
        <time>2020-02-22T09:26:32.000Z</time>
      </trkpt>
      <trkpt lat="38.16814701072871685028076171875" lon="-1.42382760532200336456298828125">
        <ele>370.79998779296875</ele>
        <time>2020-02-22T09:26:35.000Z</time>
      </trkpt>
      <trkpt lat="38.168126642704010009765625" lon="-1.423975042998790740966796875">
        <ele>371.600006103515625</ele>
        <time>2020-02-22T09:26:39.000Z</time>
      </trkpt>
      <trkpt lat="38.16812035627663135528564453125" lon="-1.4240107499063014984130859375">
        <ele>372</ele>
        <time>2020-02-22T09:26:40.000Z</time>
      </trkpt>
      <trkpt lat="38.16811180673539638519287109375" lon="-1.4241738617420196533203125">
        <ele>373.20001220703125</ele>
        <time>2020-02-22T09:26:44.000Z</time>
      </trkpt>
      <trkpt lat="38.1681145727634429931640625" lon="-1.42421183176338672637939453125">
        <ele>373.399993896484375</ele>
        <time>2020-02-22T09:26:45.000Z</time>
      </trkpt>
      <trkpt lat="38.1681247986853122711181640625" lon="-1.42432163469493389129638671875">
        <ele>374.20001220703125</ele>
        <time>2020-02-22T09:26:48.000Z</time>
      </trkpt>
      <trkpt lat="38.16813577897846698760986328125" lon="-1.42450469546020030975341796875">
        <ele>375.399993896484375</ele>
        <time>2020-02-22T09:26:52.000Z</time>
      </trkpt>
      <trkpt lat="38.168170563876628875732421875" lon="-1.42474651336669921875">
        <ele>376.600006103515625</ele>
        <time>2020-02-22T09:26:58.000Z</time>
      </trkpt>
      <trkpt lat="38.16818305291235446929931640625" lon="-1.424788422882556915283203125">
        <ele>376.79998779296875</ele>
        <time>2020-02-22T09:26:59.000Z</time>
      </trkpt>
      <trkpt lat="38.1682833842933177947998046875" lon="-1.424958072602748870849609375">
        <ele>378</ele>
        <time>2020-02-22T09:27:04.000Z</time>
      </trkpt>
      <trkpt lat="38.1683879904448986053466796875" lon="-1.42506980337202548980712890625">
        <ele>379</ele>
        <time>2020-02-22T09:27:08.000Z</time>
      </trkpt>
      <trkpt lat="38.16845194436609745025634765625" lon="-1.42516166903078556060791015625">
        <ele>380.20001220703125</ele>
        <time>2020-02-22T09:27:11.000Z</time>
      </trkpt>
      <trkpt lat="38.16848664544522762298583984375" lon="-1.42523174174129962921142578125">
        <ele>380.600006103515625</ele>
        <time>2020-02-22T09:27:13.000Z</time>
      </trkpt>
      <trkpt lat="38.16851397044956684112548828125" lon="-1.4253431372344493865966796875">
        <ele>381.399993896484375</ele>
        <time>2020-02-22T09:27:16.000Z</time>
      </trkpt>
      <trkpt lat="38.16853207536041736602783203125" lon="-1.4254648424685001373291015625">
        <ele>382.399993896484375</ele>
        <time>2020-02-22T09:27:19.000Z</time>
      </trkpt>
      <trkpt lat="38.16853760741651058197021484375" lon="-1.42550465650856494903564453125">
        <ele>382.79998779296875</ele>
        <time>2020-02-22T09:27:20.000Z</time>
      </trkpt>
      <trkpt lat="38.16855101846158504486083984375" lon="-1.4256230928003787994384765625">
        <ele>383.600006103515625</ele>
        <time>2020-02-22T09:27:23.000Z</time>
      </trkpt>
      <trkpt lat="38.168571889400482177734375" lon="-1.42581193707883358001708984375">
        <ele>384.79998779296875</ele>
        <time>2020-02-22T09:27:28.000Z</time>
      </trkpt>
      <trkpt lat="38.1685972027480602264404296875" lon="-1.4260197244584560394287109375">
        <ele>386</ele>
        <time>2020-02-22T09:27:34.000Z</time>
      </trkpt>
      <trkpt lat="38.168611116707324981689453125" lon="-1.4261345565319061279296875">
        <ele>387</ele>
        <time>2020-02-22T09:27:37.000Z</time>
      </trkpt>
      <trkpt lat="38.16863156855106353759765625" lon="-1.42628677189350128173828125">
        <ele>388</ele>
        <time>2020-02-22T09:27:40.000Z</time>
      </trkpt>
      <trkpt lat="38.1686384417116641998291015625" lon="-1.426357515156269073486328125">
        <ele>388</ele>
        <time>2020-02-22T09:27:41.000Z</time>
      </trkpt>
      <trkpt lat="38.1686615757644176483154296875" lon="-1.42662347294390201568603515625">
        <ele>388</ele>
        <time>2020-02-22T09:27:44.000Z</time>
      </trkpt>
      <trkpt lat="38.1686766631901264190673828125" lon="-1.42672204412519931793212890625">
        <ele>388</ele>
        <time>2020-02-22T09:27:45.000Z</time>
      </trkpt>
      <trkpt lat="38.1687400303781032562255859375" lon="-1.4269417338073253631591796875">
        <ele>388</ele>
        <time>2020-02-22T09:27:47.000Z</time>
      </trkpt>
      <trkpt lat="38.16885427571833133697509765625" lon="-1.42713795416057109832763671875">
        <ele>388</ele>
        <time>2020-02-22T09:27:49.000Z</time>
      </trkpt>
      <trkpt lat="38.16892325878143310546875" lon="-1.427207775413990020751953125">
        <ele>387.399993896484375</ele>
        <time>2020-02-22T09:27:50.000Z</time>
      </trkpt>
      <trkpt lat="38.168994002044200897216796875" lon="-1.4272664487361907958984375">
        <ele>386.79998779296875</ele>
        <time>2020-02-22T09:27:51.000Z</time>
      </trkpt>
      <trkpt lat="38.1691262684762477874755859375" lon="-1.42737708985805511474609375">
        <ele>386.20001220703125</ele>
        <time>2020-02-22T09:27:53.000Z</time>
      </trkpt>
      <trkpt lat="38.16924336366355419158935546875" lon="-1.42750709317624568939208984375">
        <ele>385.20001220703125</ele>
        <time>2020-02-22T09:27:55.000Z</time>
      </trkpt>
      <trkpt lat="38.1693539209663867950439453125" lon="-1.42763734795153141021728515625">
        <ele>383.79998779296875</ele>
        <time>2020-02-22T09:27:57.000Z</time>
      </trkpt>
      <trkpt lat="38.16941686905920505523681640625" lon="-1.42778285779058933258056640625">
        <ele>382.79998779296875</ele>
        <time>2020-02-22T09:27:59.000Z</time>
      </trkpt>
      <trkpt lat="38.16942072473466396331787109375" lon="-1.4278650842607021331787109375">
        <ele>382.600006103515625</ele>
        <time>2020-02-22T09:28:00.000Z</time>
      </trkpt>
      <trkpt lat="38.16937663592398166656494140625" lon="-1.4280400983989238739013671875">
        <ele>382.20001220703125</ele>
        <time>2020-02-22T09:28:02.000Z</time>
      </trkpt>
      <trkpt lat="38.16934327594935894012451171875" lon="-1.42813506536185741424560546875">
        <ele>381.600006103515625</ele>
        <time>2020-02-22T09:28:03.000Z</time>
      </trkpt>
      <trkpt lat="38.16930606029927730560302734375" lon="-1.4282312057912349700927734375">
        <ele>381.399993896484375</ele>
        <time>2020-02-22T09:28:04.000Z</time>
      </trkpt>
      <trkpt lat="38.16917345859110355377197265625" lon="-1.4285135082900524139404296875">
        <ele>380.79998779296875</ele>
        <time>2020-02-22T09:28:07.000Z</time>
      </trkpt>
      <trkpt lat="38.1690629012882709503173828125" lon="-1.4287022687494754791259765625">
        <ele>380.600006103515625</ele>
        <time>2020-02-22T09:28:09.000Z</time>
      </trkpt>
      <trkpt lat="38.16899676807224750518798828125" lon="-1.428782902657985687255859375">
        <ele>380.20001220703125</ele>
        <time>2020-02-22T09:28:10.000Z</time>
      </trkpt>
      <trkpt lat="38.16892183385789394378662109375" lon="-1.42884149216115474700927734375">
        <ele>380</ele>
        <time>2020-02-22T09:28:11.000Z</time>
      </trkpt>
      <trkpt lat="38.16867046058177947998046875" lon="-1.42891625873744487762451171875">
        <ele>378.600006103515625</ele>
        <time>2020-02-22T09:28:14.000Z</time>
      </trkpt>
      <trkpt lat="38.16858404316008090972900390625" lon="-1.428922377526760101318359375">
        <ele>378</ele>
        <time>2020-02-22T09:28:15.000Z</time>
      </trkpt>
      <trkpt lat="38.16849703900516033172607421875" lon="-1.42892262898385524749755859375">
        <ele>377.20001220703125</ele>
        <time>2020-02-22T09:28:16.000Z</time>
      </trkpt>
      <trkpt lat="38.1681613437831401824951171875" lon="-1.42892095260322093963623046875">
        <ele>376.399993896484375</ele>
        <time>2020-02-22T09:28:20.000Z</time>
      </trkpt>
      <trkpt lat="38.167992532253265380859375" lon="-1.4289486967027187347412109375">
        <ele>376</ele>
        <time>2020-02-22T09:28:22.000Z</time>
      </trkpt>
      <trkpt lat="38.16785263828933238983154296875" lon="-1.4290455915033817291259765625">
        <ele>375.79998779296875</ele>
        <time>2020-02-22T09:28:24.000Z</time>
      </trkpt>
      <trkpt lat="38.167755492031574249267578125" lon="-1.42930584959685802459716796875">
        <ele>375.79998779296875</ele>
        <time>2020-02-22T09:28:27.000Z</time>
      </trkpt>
      <trkpt lat="38.16773696802556514739990234375" lon="-1.4293988049030303955078125">
        <ele>375.79998779296875</ele>
        <time>2020-02-22T09:28:28.000Z</time>
      </trkpt>
      <trkpt lat="38.16771031357347965240478515625" lon="-1.42966367304325103759765625">
        <ele>375.79998779296875</ele>
        <time>2020-02-22T09:28:31.000Z</time>
      </trkpt>
      <trkpt lat="38.16771534271538257598876953125" lon="-1.42975084483623504638671875">
        <ele>375.79998779296875</ele>
        <time>2020-02-22T09:28:32.000Z</time>
      </trkpt>
      <trkpt lat="38.16780804656445980072021484375" lon="-1.43005586229264736175537109375">
        <ele>376.399993896484375</ele>
        <time>2020-02-22T09:28:36.000Z</time>
      </trkpt>
      <trkpt lat="38.167992532253265380859375" lon="-1.4303796552121639251708984375">
        <ele>377</ele>
        <time>2020-02-22T09:28:41.000Z</time>
      </trkpt>
      <trkpt lat="38.1680416502058506011962890625" lon="-1.43044210039079189300537109375">
        <ele>377</ele>
        <time>2020-02-22T09:28:42.000Z</time>
      </trkpt>
      <trkpt lat="38.1682159937918186187744140625" lon="-1.4305268414318561553955078125">
        <ele>377.399993896484375</ele>
        <time>2020-02-22T09:28:45.000Z</time>
      </trkpt>
      <trkpt lat="38.16836695186793804168701171875" lon="-1.4305194653570652008056640625">
        <ele>377.79998779296875</ele>
        <time>2020-02-22T09:28:48.000Z</time>
      </trkpt>
      <trkpt lat="38.16841020248830318450927734375" lon="-1.4305146038532257080078125">
        <ele>377.79998779296875</ele>
        <time>2020-02-22T09:28:49.000Z</time>
      </trkpt>
      <trkpt lat="38.16849133931100368499755859375" lon="-1.43051770515739917755126953125">
        <ele>378</ele>
        <time>2020-02-22T09:28:51.000Z</time>
      </trkpt>
      <trkpt lat="38.16869418136775493621826171875" lon="-1.430523656308650970458984375">
        <ele>379</ele>
        <time>2020-02-22T09:28:55.000Z</time>
      </trkpt>
      <trkpt lat="38.16890389658510684967041015625" lon="-1.430640332400798797607421875">
        <ele>379.600006103515625</ele>
        <time>2020-02-22T09:28:59.000Z</time>
      </trkpt>
      <trkpt lat="38.1689462251961231231689453125" lon="-1.43068400211632251739501953125">
        <ele>380</ele>
        <time>2020-02-22T09:29:00.000Z</time>
      </trkpt>
      <trkpt lat="38.16902191378176212310791015625" lon="-1.43086069263517856597900390625">
        <ele>380.600006103515625</ele>
        <time>2020-02-22T09:29:03.000Z</time>
      </trkpt>
      <trkpt lat="38.169085867702960968017578125" lon="-1.4310458488762378692626953125">
        <ele>381.20001220703125</ele>
        <time>2020-02-22T09:29:06.000Z</time>
      </trkpt>
      <trkpt lat="38.16912601701915264129638671875" lon="-1.431154310703277587890625">
        <ele>381.79998779296875</ele>
        <time>2020-02-22T09:29:08.000Z</time>
      </trkpt>
      <trkpt lat="38.16921603865921497344970703125" lon="-1.43135623075067996978759765625">
        <ele>382.600006103515625</ele>
        <time>2020-02-22T09:29:12.000Z</time>
      </trkpt>
      <trkpt lat="38.16923632286489009857177734375" lon="-1.4314072765409946441650390625">
        <ele>382.79998779296875</ele>
        <time>2020-02-22T09:29:13.000Z</time>
      </trkpt>
      <trkpt lat="38.16931343637406826019287109375" lon="-1.431533508002758026123046875">
        <ele>384.20001220703125</ele>
        <time>2020-02-22T09:29:16.000Z</time>
      </trkpt>
      <trkpt lat="38.16938166506588459014892578125" lon="-1.43159620463848114013671875">
        <ele>385</ele>
        <time>2020-02-22T09:29:18.000Z</time>
      </trkpt>
      <trkpt lat="38.16942189820110797882080078125" lon="-1.4316148124635219573974609375">
        <ele>385.399993896484375</ele>
        <time>2020-02-22T09:29:19.000Z</time>
      </trkpt>
      <trkpt lat="38.1695581041276454925537109375" lon="-1.431645490229129791259765625">
        <ele>386.20001220703125</ele>
        <time>2020-02-22T09:29:22.000Z</time>
      </trkpt>
      <trkpt lat="38.16960076801478862762451171875" lon="-1.43164775334298610687255859375">
        <ele>386.399993896484375</ele>
        <time>2020-02-22T09:29:23.000Z</time>
      </trkpt>
      <trkpt lat="38.16979405470192432403564453125" lon="-1.431689746677875518798828125">
        <ele>387.20001220703125</ele>
        <time>2020-02-22T09:29:28.000Z</time>
      </trkpt>
      <trkpt lat="38.1698548234999179840087890625" lon="-1.43174163065850734710693359375">
        <ele>387.600006103515625</ele>
        <time>2020-02-22T09:29:30.000Z</time>
      </trkpt>
      <trkpt lat="38.1699332781136035919189453125" lon="-1.43184472806751728057861328125">
        <ele>388.20001220703125</ele>
        <time>2020-02-22T09:29:33.000Z</time>
      </trkpt>
      <trkpt lat="38.16997108049690723419189453125" lon="-1.431921757757663726806640625">
        <ele>388.600006103515625</ele>
        <time>2020-02-22T09:29:35.000Z</time>
      </trkpt>
      <trkpt lat="38.17003478296101093292236328125" lon="-1.43203197978436946868896484375">
        <ele>389.79998779296875</ele>
        <time>2020-02-22T09:29:38.000Z</time>
      </trkpt>
      <trkpt lat="38.1700908578932285308837890625" lon="-1.43215586431324481964111328125">
        <ele>390.600006103515625</ele>
        <time>2020-02-22T09:29:41.000Z</time>
      </trkpt>
      <trkpt lat="38.170105777680873870849609375" lon="-1.43219676800072193145751953125">
        <ele>391</ele>
        <time>2020-02-22T09:29:42.000Z</time>
      </trkpt>
      <trkpt lat="38.17012363113462924957275390625" lon="-1.43239055760204792022705078125">
        <ele>391.600006103515625</ele>
        <time>2020-02-22T09:29:46.000Z</time>
      </trkpt>
      <trkpt lat="38.1701019220054149627685546875" lon="-1.4324955828487873077392578125">
        <ele>392</ele>
        <time>2020-02-22T09:29:48.000Z</time>
      </trkpt>
      <trkpt lat="38.17006462253630161285400390625" lon="-1.43258191645145416259765625">
        <ele>392.399993896484375</ele>
        <time>2020-02-22T09:29:50.000Z</time>
      </trkpt>
      <trkpt lat="38.16997074522078037261962890625" lon="-1.4326853491365909576416015625">
        <ele>393.20001220703125</ele>
        <time>2020-02-22T09:29:53.000Z</time>
      </trkpt>
      <trkpt lat="38.16990436054766178131103515625" lon="-1.43275215290486812591552734375">
        <ele>393.600006103515625</ele>
        <time>2020-02-22T09:29:55.000Z</time>
      </trkpt>
      <trkpt lat="38.16986982710659503936767578125" lon="-1.4327926374971866607666015625">
        <ele>394</ele>
        <time>2020-02-22T09:29:56.000Z</time>
      </trkpt>
      <trkpt lat="38.16981031559407711029052734375" lon="-1.43287922255694866180419921875">
        <ele>394.20001220703125</ele>
        <time>2020-02-22T09:29:58.000Z</time>
      </trkpt>
      <trkpt lat="38.16977779380977153778076171875" lon="-1.43297092057764530181884765625">
        <ele>394.399993896484375</ele>
        <time>2020-02-22T09:30:00.000Z</time>
      </trkpt>
      <trkpt lat="38.16974937915802001953125" lon="-1.433106623589992523193359375">
        <ele>394.600006103515625</ele>
        <time>2020-02-22T09:30:03.000Z</time>
      </trkpt>
      <trkpt lat="38.1697351299226284027099609375" lon="-1.4332134090363979339599609375">
        <ele>394.79998779296875</ele>
        <time>2020-02-22T09:30:05.000Z</time>
      </trkpt>
      <trkpt lat="38.16972549073398113250732421875" lon="-1.43332078121602535247802734375">
        <ele>394.79998779296875</ele>
        <time>2020-02-22T09:30:07.000Z</time>
      </trkpt>
      <trkpt lat="38.16971627064049243927001953125" lon="-1.43342823721468448638916015625">
        <ele>395.20001220703125</ele>
        <time>2020-02-22T09:30:09.000Z</time>
      </trkpt>
      <trkpt lat="38.169694058597087860107421875" lon="-1.4336259663105010986328125">
        <ele>396.20001220703125</ele>
        <time>2020-02-22T09:30:13.000Z</time>
      </trkpt>
      <trkpt lat="38.1696724332869052886962890625" lon="-1.43371271900832653045654296875">
        <ele>396.600006103515625</ele>
        <time>2020-02-22T09:30:15.000Z</time>
      </trkpt>
      <trkpt lat="38.169622309505939483642578125" lon="-1.43390030600130558013916015625">
        <ele>397.600006103515625</ele>
        <time>2020-02-22T09:30:19.000Z</time>
      </trkpt>
      <trkpt lat="38.169582746922969818115234375" lon="-1.43416173756122589111328125">
        <ele>398.600006103515625</ele>
        <time>2020-02-22T09:30:24.000Z</time>
      </trkpt>
      <trkpt lat="38.16958467476069927215576171875" lon="-1.43421496264636516571044921875">
        <ele>398.79998779296875</ele>
        <time>2020-02-22T09:30:25.000Z</time>
      </trkpt>
      <trkpt lat="38.1696402467787265777587890625" lon="-1.43444328568875789642333984375">
        <ele>399.79998779296875</ele>
        <time>2020-02-22T09:30:29.000Z</time>
      </trkpt>
      <trkpt lat="38.16973823122680187225341796875" lon="-1.43471720628440380096435546875">
        <ele>400.79998779296875</ele>
        <time>2020-02-22T09:30:35.000Z</time>
      </trkpt>
      <trkpt lat="38.169714510440826416015625" lon="-1.4349563419818878173828125">
        <ele>401.79998779296875</ele>
        <time>2020-02-22T09:30:40.000Z</time>
      </trkpt>
      <trkpt lat="38.169698752462863922119140625" lon="-1.4350091479718685150146484375">
        <ele>402</ele>
        <time>2020-02-22T09:30:41.000Z</time>
      </trkpt>
      <trkpt lat="38.16959741525352001190185546875" lon="-1.43527074716985225677490234375">
        <ele>403.20001220703125</ele>
        <time>2020-02-22T09:30:46.000Z</time>
      </trkpt>
      <trkpt lat="38.16948258318006992340087890625" lon="-1.435477696359157562255859375">
        <ele>404</ele>
        <time>2020-02-22T09:30:51.000Z</time>
      </trkpt>
      <trkpt lat="38.16945710219442844390869140625" lon="-1.4355187676846981048583984375">
        <ele>404.20001220703125</ele>
        <time>2020-02-22T09:30:52.000Z</time>
      </trkpt>
      <trkpt lat="38.16932768560945987701416015625" lon="-1.4357283152639865875244140625">
        <ele>405.600006103515625</ele>
        <time>2020-02-22T09:30:57.000Z</time>
      </trkpt>
      <trkpt lat="38.16921687684953212738037109375" lon="-1.43586385063827037811279296875">
        <ele>406.600006103515625</ele>
        <time>2020-02-22T09:31:01.000Z</time>
      </trkpt>
      <trkpt lat="38.16904488019645214080810546875" lon="-1.4360645972192287445068359375">
        <ele>407.79998779296875</ele>
        <time>2020-02-22T09:31:07.000Z</time>
      </trkpt>
      <trkpt lat="38.1689901463687419891357421875" lon="-1.43614280037581920623779296875">
        <ele>408.399993896484375</ele>
        <time>2020-02-22T09:31:09.000Z</time>
      </trkpt>
      <trkpt lat="38.1689324788749217987060546875" lon="-1.43621555529534816741943359375">
        <ele>408.79998779296875</ele>
        <time>2020-02-22T09:31:11.000Z</time>
      </trkpt>
      <trkpt lat="38.16881203092634677886962890625" lon="-1.43634748645126819610595703125">
        <ele>410</ele>
        <time>2020-02-22T09:31:15.000Z</time>
      </trkpt>
      <trkpt lat="38.16874832846224308013916015625" lon="-1.4363958500325679779052734375">
        <ele>410.399993896484375</ele>
        <time>2020-02-22T09:31:17.000Z</time>
      </trkpt>
      <trkpt lat="38.1686823628842830657958984375" lon="-1.436439268290996551513671875">
        <ele>411</ele>
        <time>2020-02-22T09:31:19.000Z</time>
      </trkpt>
      <trkpt lat="38.1685164012014865875244140625" lon="-1.43655166961252689361572265625">
        <ele>412.20001220703125</ele>
        <time>2020-02-22T09:31:24.000Z</time>
      </trkpt>
      <trkpt lat="38.16848211921751499176025390625" lon="-1.43657094798982143402099609375">
        <ele>412.20001220703125</ele>
        <time>2020-02-22T09:31:25.000Z</time>
      </trkpt>
      <trkpt lat="38.16834884695708751678466796875" lon="-1.43667471595108509063720703125">
        <ele>413.399993896484375</ele>
        <time>2020-02-22T09:31:29.000Z</time>
      </trkpt>
      <trkpt lat="38.16831883974373340606689453125" lon="-1.436711847782135009765625">
        <ele>413.600006103515625</ele>
        <time>2020-02-22T09:31:30.000Z</time>
      </trkpt>
      <trkpt lat="38.1681643612682819366455078125" lon="-1.43699021078646183013916015625">
        <ele>414.600006103515625</ele>
        <time>2020-02-22T09:31:36.000Z</time>
      </trkpt>
      <trkpt lat="38.16798381507396697998046875" lon="-1.43737971782684326171875">
        <ele>414.79998779296875</ele>
        <time>2020-02-22T09:31:42.000Z</time>
      </trkpt>
      <trkpt lat="38.16790007986128330230712890625" lon="-1.43760896287858486175537109375">
        <ele>414.79998779296875</ele>
        <time>2020-02-22T09:31:45.000Z</time>
      </trkpt>
      <trkpt lat="38.16784157417714595794677734375" lon="-1.437747515738010406494140625">
        <ele>414.399993896484375</ele>
        <time>2020-02-22T09:31:47.000Z</time>
      </trkpt>
      <trkpt lat="38.167778961360454559326171875" lon="-1.43790417350828647613525390625">
        <ele>414</ele>
        <time>2020-02-22T09:31:49.000Z</time>
      </trkpt>
      <trkpt lat="38.167687766253948211669921875" lon="-1.43814926035702228546142578125">
        <ele>413.20001220703125</ele>
        <time>2020-02-22T09:31:52.000Z</time>
      </trkpt>
      <trkpt lat="38.16753814928233623504638671875" lon="-1.43846936523914337158203125">
        <ele>412.20001220703125</ele>
        <time>2020-02-22T09:31:56.000Z</time>
      </trkpt>
      <trkpt lat="38.1674934737384319305419921875" lon="-1.4385426230728626251220703125">
        <ele>412</ele>
        <time>2020-02-22T09:31:57.000Z</time>
      </trkpt>
      <trkpt lat="38.167248554527759552001953125" lon="-1.4388973452150821685791015625">
        <ele>411</ele>
        <time>2020-02-22T09:32:02.000Z</time>
      </trkpt>
      <trkpt lat="38.167192898690700531005859375" lon="-1.4389647357165813446044921875">
        <ele>410.79998779296875</ele>
        <time>2020-02-22T09:32:03.000Z</time>
      </trkpt>
      <trkpt lat="38.167071528732776641845703125" lon="-1.4390958286821842193603515625">
        <ele>410.600006103515625</ele>
        <time>2020-02-22T09:32:05.000Z</time>
      </trkpt>
      <trkpt lat="38.1669382564723491668701171875" lon="-1.43920856527984142303466796875">
        <ele>410.399993896484375</ele>
        <time>2020-02-22T09:32:07.000Z</time>
      </trkpt>
      <trkpt lat="38.1668675132095813751220703125" lon="-1.43925684504210948944091796875">
        <ele>410.399993896484375</ele>
        <time>2020-02-22T09:32:08.000Z</time>
      </trkpt>
      <trkpt lat="38.16671244800090789794921875" lon="-1.4393409155309200286865234375">
        <ele>410</ele>
        <time>2020-02-22T09:32:10.000Z</time>
      </trkpt>
      <trkpt lat="38.1665560416877269744873046875" lon="-1.43937871791422367095947265625">
        <ele>409.600006103515625</ele>
        <time>2020-02-22T09:32:12.000Z</time>
      </trkpt>
      <trkpt lat="38.16640256904065608978271484375" lon="-1.43937167711555957794189453125">
        <ele>408.600006103515625</ele>
        <time>2020-02-22T09:32:14.000Z</time>
      </trkpt>
      <trkpt lat="38.16633601672947406768798828125" lon="-1.43938709981739521026611328125">
        <ele>408.20001220703125</ele>
        <time>2020-02-22T09:32:15.000Z</time>
      </trkpt>
      <trkpt lat="38.1662772595882415771484375" lon="-1.43942557275295257568359375">
        <ele>407.600006103515625</ele>
        <time>2020-02-22T09:32:16.000Z</time>
      </trkpt>
      <trkpt lat="38.16624012775719165802001953125" lon="-1.439490951597690582275390625">
        <ele>407</ele>
        <time>2020-02-22T09:32:17.000Z</time>
      </trkpt>
      <trkpt lat="38.16622302867472171783447265625" lon="-1.43957116641104221343994140625">
        <ele>406.20001220703125</ele>
        <time>2020-02-22T09:32:18.000Z</time>
      </trkpt>
      <trkpt lat="38.166220597922801971435546875" lon="-1.43965758383274078369140625">
        <ele>405.79998779296875</ele>
        <time>2020-02-22T09:32:19.000Z</time>
      </trkpt>
      <trkpt lat="38.16622721962630748748779296875" lon="-1.439828909933567047119140625">
        <ele>405</ele>
        <time>2020-02-22T09:32:21.000Z</time>
      </trkpt>
      <trkpt lat="38.16623275168240070343017578125" lon="-1.43991029821336269378662109375">
        <ele>404.20001220703125</ele>
        <time>2020-02-22T09:32:22.000Z</time>
      </trkpt>
      <trkpt lat="38.1662566401064395904541015625" lon="-1.4401227794587612152099609375">
        <ele>403</ele>
        <time>2020-02-22T09:32:25.000Z</time>
      </trkpt>
      <trkpt lat="38.16627918742597103118896484375" lon="-1.44024574197828769683837890625">
        <ele>403</ele>
        <time>2020-02-22T09:32:27.000Z</time>
      </trkpt>
      <trkpt lat="38.1662898324429988861083984375" lon="-1.44037666730582714080810546875">
        <ele>402.79998779296875</ele>
        <time>2020-02-22T09:32:29.000Z</time>
      </trkpt>
      <trkpt lat="38.16626627929508686065673828125" lon="-1.44056743942201137542724609375">
        <ele>402.79998779296875</ele>
        <time>2020-02-22T09:32:32.000Z</time>
      </trkpt>
      <trkpt lat="38.16618329845368862152099609375" lon="-1.440746225416660308837890625">
        <ele>403.20001220703125</ele>
        <time>2020-02-22T09:32:35.000Z</time>
      </trkpt>
      <trkpt lat="38.16614239476621150970458984375" lon="-1.44079660065472126007080078125">
        <ele>403.399993896484375</ele>
        <time>2020-02-22T09:32:36.000Z</time>
      </trkpt>
      <trkpt lat="38.16604969091713428497314453125" lon="-1.44087530672550201416015625">
        <ele>403.600006103515625</ele>
        <time>2020-02-22T09:32:38.000Z</time>
      </trkpt>
      <trkpt lat="38.1659998185932636260986328125" lon="-1.44090757705271244049072265625">
        <ele>403.79998779296875</ele>
        <time>2020-02-22T09:32:39.000Z</time>
      </trkpt>
      <trkpt lat="38.1659488566219806671142578125" lon="-1.44093859009444713592529296875">
        <ele>404.20001220703125</ele>
        <time>2020-02-22T09:32:40.000Z</time>
      </trkpt>
      <trkpt lat="38.165897391736507415771484375" lon="-1.4409676752984523773193359375">
        <ele>405.20001220703125</ele>
        <time>2020-02-22T09:32:41.000Z</time>
      </trkpt>
      <trkpt lat="38.1658454239368438720703125" lon="-1.44099868834018707275390625">
        <ele>405.399993896484375</ele>
        <time>2020-02-22T09:32:42.000Z</time>
      </trkpt>
      <trkpt lat="38.16550277173519134521484375" lon="-1.44121234305202960968017578125">
        <ele>406.600006103515625</ele>
        <time>2020-02-22T09:32:49.000Z</time>
      </trkpt>
      <trkpt lat="38.16520730964839458465576171875" lon="-1.4414105750620365142822265625">
        <ele>407.600006103515625</ele>
        <time>2020-02-22T09:32:55.000Z</time>
      </trkpt>
      <trkpt lat="38.1651586107909679412841796875" lon="-1.44145223312079906463623046875">
        <ele>407.600006103515625</ele>
        <time>2020-02-22T09:32:56.000Z</time>
      </trkpt>
      <trkpt lat="38.16504470072686672210693359375" lon="-1.44163244403898715972900390625">
        <ele>408</ele>
        <time>2020-02-22T09:32:59.000Z</time>
      </trkpt>
      <trkpt lat="38.16501234658062458038330078125" lon="-1.44169463776051998138427734375">
        <ele>408</ele>
        <time>2020-02-22T09:33:00.000Z</time>
      </trkpt>
      <trkpt lat="38.16495266743004322052001953125" lon="-1.4418367110192775726318359375">
        <ele>408.399993896484375</ele>
        <time>2020-02-22T09:33:02.000Z</time>
      </trkpt>
      <trkpt lat="38.1649007834494113922119140625" lon="-1.44198247231543064117431640625">
        <ele>408.600006103515625</ele>
        <time>2020-02-22T09:33:04.000Z</time>
      </trkpt>
      <trkpt lat="38.16487379372119903564453125" lon="-1.4420516230165958404541015625">
        <ele>408.79998779296875</ele>
        <time>2020-02-22T09:33:05.000Z</time>
      </trkpt>
      <trkpt lat="38.16468025557696819305419921875" lon="-1.44250608980655670166015625">
        <ele>409</ele>
        <time>2020-02-22T09:33:12.000Z</time>
      </trkpt>
      <trkpt lat="38.1646545231342315673828125" lon="-1.44256685860455036163330078125">
        <ele>409.20001220703125</ele>
        <time>2020-02-22T09:33:13.000Z</time>
      </trkpt>
      <trkpt lat="38.16449669189751148223876953125" lon="-1.44291219301521778106689453125">
        <ele>409.600006103515625</ele>
        <time>2020-02-22T09:33:19.000Z</time>
      </trkpt>
      <trkpt lat="38.16444061696529388427734375" lon="-1.44303440116345882415771484375">
        <ele>410</ele>
        <time>2020-02-22T09:33:21.000Z</time>
      </trkpt>
      <trkpt lat="38.1642319075763225555419921875" lon="-1.44345693290233612060546875">
        <ele>410.79998779296875</ele>
        <time>2020-02-22T09:33:28.000Z</time>
      </trkpt>
      <trkpt lat="38.1640483438968658447265625" lon="-1.4437913708388805389404296875">
        <ele>411.20001220703125</ele>
        <time>2020-02-22T09:33:34.000Z</time>
      </trkpt>
      <trkpt lat="38.16387207247316837310791015625" lon="-1.44405162893235683441162109375">
        <ele>412.20001220703125</ele>
        <time>2020-02-22T09:33:40.000Z</time>
      </trkpt>
      <trkpt lat="38.1638181768357753753662109375" lon="-1.44413963891565799713134765625">
        <ele>412.79998779296875</ele>
        <time>2020-02-22T09:33:42.000Z</time>
      </trkpt>
      <trkpt lat="38.1637584976851940155029296875" lon="-1.44422848708927631378173828125">
        <ele>413.20001220703125</ele>
        <time>2020-02-22T09:33:44.000Z</time>
      </trkpt>
      <trkpt lat="38.163726814091205596923828125" lon="-1.44427056424319744110107421875">
        <ele>413.600006103515625</ele>
        <time>2020-02-22T09:33:45.000Z</time>
      </trkpt>
      <trkpt lat="38.16362732090055942535400390625" lon="-1.44439863972365856170654296875">
        <ele>414.600006103515625</ele>
        <time>2020-02-22T09:33:48.000Z</time>
      </trkpt>
      <trkpt lat="38.16352824680507183074951171875" lon="-1.4445410482585430145263671875">
        <ele>415.399993896484375</ele>
        <time>2020-02-22T09:33:51.000Z</time>
      </trkpt>
      <trkpt lat="38.16349589265882968902587890625" lon="-1.44458773545920848846435546875">
        <ele>415.600006103515625</ele>
        <time>2020-02-22T09:33:52.000Z</time>
      </trkpt>
      <trkpt lat="38.163398243486881256103515625" lon="-1.44473358057439327239990234375">
        <ele>416.399993896484375</ele>
        <time>2020-02-22T09:33:55.000Z</time>
      </trkpt>
      <trkpt lat="38.1633350439369678497314453125" lon="-1.4448293857276439666748046875">
        <ele>417</ele>
        <time>2020-02-22T09:33:57.000Z</time>
      </trkpt>
      <trkpt lat="38.16327192820608615875244140625" lon="-1.4449207484722137451171875">
        <ele>417.399993896484375</ele>
        <time>2020-02-22T09:33:59.000Z</time>
      </trkpt>
      <trkpt lat="38.16320956684648990631103515625" lon="-1.4450178109109401702880859375">
        <ele>418.20001220703125</ele>
        <time>2020-02-22T09:34:01.000Z</time>
      </trkpt>
      <trkpt lat="38.16307981498539447784423828125" lon="-1.445204727351665496826171875">
        <ele>419.20001220703125</ele>
        <time>2020-02-22T09:34:05.000Z</time>
      </trkpt>
      <trkpt lat="38.16295207478106021881103515625" lon="-1.44538410007953643798828125">
        <ele>420</ele>
        <time>2020-02-22T09:34:09.000Z</time>
      </trkpt>
      <trkpt lat="38.16291988827288150787353515625" lon="-1.445429027080535888671875">
        <ele>420.399993896484375</ele>
        <time>2020-02-22T09:34:10.000Z</time>
      </trkpt>
      <trkpt lat="38.16272542811930179595947265625" lon="-1.44570856355130672454833984375">
        <ele>420.600006103515625</ele>
        <time>2020-02-22T09:34:15.000Z</time>
      </trkpt>
      <trkpt lat="38.1625810079276561737060546875" lon="-1.4459056220948696136474609375">
        <ele>420.600006103515625</ele>
        <time>2020-02-22T09:34:18.000Z</time>
      </trkpt>
      <trkpt lat="38.16249006427824497222900390625" lon="-1.44604920409619808197021484375">
        <ele>420.600006103515625</ele>
        <time>2020-02-22T09:34:20.000Z</time>
      </trkpt>
      <trkpt lat="38.16244983114302158355712890625" lon="-1.44612799398601055145263671875">
        <ele>420.600006103515625</ele>
        <time>2020-02-22T09:34:21.000Z</time>
      </trkpt>
      <trkpt lat="38.162366263568401336669921875" lon="-1.44640577025711536407470703125">
        <ele>419.600006103515625</ele>
        <time>2020-02-22T09:34:24.000Z</time>
      </trkpt>
      <trkpt lat="38.1623459793627262115478515625" lon="-1.4465158246457576751708984375">
        <ele>419</ele>
        <time>2020-02-22T09:34:25.000Z</time>
      </trkpt>
      <trkpt lat="38.16233332268893718719482421875" lon="-1.44662998616695404052734375">
        <ele>418.399993896484375</ele>
        <time>2020-02-22T09:34:26.000Z</time>
      </trkpt>
      <trkpt lat="38.162313960492610931396484375" lon="-1.4468608237802982330322265625">
        <ele>417.79998779296875</ele>
        <time>2020-02-22T09:34:28.000Z</time>
      </trkpt>
      <trkpt lat="38.16229350864887237548828125" lon="-1.447109095752239227294921875">
        <ele>416.399993896484375</ele>
        <time>2020-02-22T09:34:30.000Z</time>
      </trkpt>
      <trkpt lat="38.1622834503650665283203125" lon="-1.44723541103303432464599609375">
        <ele>416</ele>
        <time>2020-02-22T09:34:31.000Z</time>
      </trkpt>
      <trkpt lat="38.162262327969074249267578125" lon="-1.44748963415622711181640625">
        <ele>415</ele>
        <time>2020-02-22T09:34:33.000Z</time>
      </trkpt>
      <trkpt lat="38.16223374567925930023193359375" lon="-1.44786179065704345703125">
        <ele>413.79998779296875</ele>
        <time>2020-02-22T09:34:36.000Z</time>
      </trkpt>
      <trkpt lat="38.16221497021615505218505859375" lon="-1.44810494966804981231689453125">
        <ele>412.79998779296875</ele>
        <time>2020-02-22T09:34:38.000Z</time>
      </trkpt>
      <trkpt lat="38.1621976196765899658203125" lon="-1.4483313448727130889892578125">
        <ele>411.399993896484375</ele>
        <time>2020-02-22T09:34:40.000Z</time>
      </trkpt>
      <trkpt lat="38.16218697465956211090087890625" lon="-1.44843603484332561492919921875">
        <ele>410.79998779296875</ele>
        <time>2020-02-22T09:34:41.000Z</time>
      </trkpt>
      <trkpt lat="38.16217691637575626373291015625" lon="-1.448537372052669525146484375">
        <ele>410.20001220703125</ele>
        <time>2020-02-22T09:34:42.000Z</time>
      </trkpt>
      <trkpt lat="38.1621521897614002227783203125" lon="-1.44881607033312320709228515625">
        <ele>409.20001220703125</ele>
        <time>2020-02-22T09:34:45.000Z</time>
      </trkpt>
      <trkpt lat="38.162132240831851959228515625" lon="-1.4490689523518085479736328125">
        <ele>408.399993896484375</ele>
        <time>2020-02-22T09:34:48.000Z</time>
      </trkpt>
      <trkpt lat="38.16211271099746227264404296875" lon="-1.449236087501049041748046875">
        <ele>408.20001220703125</ele>
        <time>2020-02-22T09:34:50.000Z</time>
      </trkpt>
      <trkpt lat="38.16204749979078769683837890625" lon="-1.44936860539019107818603515625">
        <ele>408.20001220703125</ele>
        <time>2020-02-22T09:34:52.000Z</time>
      </trkpt>
      <trkpt lat="38.16189863719046115875244140625" lon="-1.44943247549235820770263671875">
        <ele>408.20001220703125</ele>
        <time>2020-02-22T09:34:55.000Z</time>
      </trkpt>
      <trkpt lat="38.16180325113236904144287109375" lon="-1.449438594281673431396484375">
        <ele>408.20001220703125</ele>
        <time>2020-02-22T09:34:57.000Z</time>
      </trkpt>
      <trkpt lat="38.161593116819858551025390625" lon="-1.449441276490688323974609375">
        <ele>408.79998779296875</ele>
        <time>2020-02-22T09:35:01.000Z</time>
      </trkpt>
      <trkpt lat="38.16122733056545257568359375" lon="-1.4494853653013706207275390625">
        <ele>410</ele>
        <time>2020-02-22T09:35:07.000Z</time>
      </trkpt>
      <trkpt lat="38.16117242909967899322509765625" lon="-1.44950925372540950775146484375">
        <ele>410</ele>
        <time>2020-02-22T09:35:08.000Z</time>
      </trkpt>
      <trkpt lat="38.16100202500820159912109375" lon="-1.4496345631778240203857421875">
        <ele>410.20001220703125</ele>
        <time>2020-02-22T09:35:11.000Z</time>
      </trkpt>
      <trkpt lat="38.160944022238254547119140625" lon="-1.44970337860286235809326171875">
        <ele>410.20001220703125</ele>
        <time>2020-02-22T09:35:12.000Z</time>
      </trkpt>
      <trkpt lat="38.16088476218283176422119140625" lon="-1.44978015683591365814208984375">
        <ele>410.20001220703125</ele>
        <time>2020-02-22T09:35:13.000Z</time>
      </trkpt>
      <trkpt lat="38.1608265079557895660400390625" lon="-1.449856348335742950439453125">
        <ele>410.20001220703125</ele>
        <time>2020-02-22T09:35:14.000Z</time>
      </trkpt>
      <trkpt lat="38.1607778929173946380615234375" lon="-1.44993455149233341217041015625">
        <ele>410</ele>
        <time>2020-02-22T09:35:15.000Z</time>
      </trkpt>
      <trkpt lat="38.1607467122375965118408203125" lon="-1.45001954399049282073974609375">
        <ele>410</ele>
        <time>2020-02-22T09:35:16.000Z</time>
      </trkpt>
      <trkpt lat="38.1607775576412677764892578125" lon="-1.45027653314173221588134765625">
        <ele>408.399993896484375</ele>
        <time>2020-02-22T09:35:19.000Z</time>
      </trkpt>
      <trkpt lat="38.160813264548778533935546875" lon="-1.45034224726259708404541015625">
        <ele>408</ele>
        <time>2020-02-22T09:35:20.000Z</time>
      </trkpt>
      <trkpt lat="38.1608888693153858184814453125" lon="-1.45044702105224132537841796875">
        <ele>407.79998779296875</ele>
        <time>2020-02-22T09:35:22.000Z</time>
      </trkpt>
      <trkpt lat="38.16096891649067401885986328125" lon="-1.4505559019744396209716796875">
        <ele>407.79998779296875</ele>
        <time>2020-02-22T09:35:25.000Z</time>
      </trkpt>
      <trkpt lat="38.16101702861487865447998046875" lon="-1.4506071992218494415283203125">
        <ele>407.79998779296875</ele>
        <time>2020-02-22T09:35:27.000Z</time>
      </trkpt>
      <trkpt lat="38.16114124841988086700439453125" lon="-1.4507366158068180084228515625">
        <ele>409.20001220703125</ele>
        <time>2020-02-22T09:35:31.000Z</time>
      </trkpt>
      <trkpt lat="38.16122020594775676727294921875" lon="-1.45082521252334117889404296875">
        <ele>410.399993896484375</ele>
        <time>2020-02-22T09:35:33.000Z</time>
      </trkpt>
      <trkpt lat="38.161509297788143157958984375" lon="-1.45114489831030368804931640625">
        <ele>411.20001220703125</ele>
        <time>2020-02-22T09:35:39.000Z</time>
      </trkpt>
      <trkpt lat="38.16172362305223941802978515625" lon="-1.45139769650995731353759765625">
        <ele>411.20001220703125</ele>
        <time>2020-02-22T09:35:43.000Z</time>
      </trkpt>
      <trkpt lat="38.16176385618746280670166015625" lon="-1.45147128961980342864990234375">
        <ele>411.20001220703125</ele>
        <time>2020-02-22T09:35:44.000Z</time>
      </trkpt>
      <trkpt lat="38.161886818706989288330078125" lon="-1.4517711102962493896484375">
        <ele>410.79998779296875</ele>
        <time>2020-02-22T09:35:48.000Z</time>
      </trkpt>
      <trkpt lat="38.16190861165523529052734375" lon="-1.45185166038572788238525390625">
        <ele>410.600006103515625</ele>
        <time>2020-02-22T09:35:49.000Z</time>
      </trkpt>
      <trkpt lat="38.16196183674037456512451171875" lon="-1.4523102343082427978515625">
        <ele>409.600006103515625</ele>
        <time>2020-02-22T09:35:54.000Z</time>
      </trkpt>
      <trkpt lat="38.1619687937200069427490234375" lon="-1.45259446464478969573974609375">
        <ele>409.399993896484375</ele>
        <time>2020-02-22T09:35:57.000Z</time>
      </trkpt>
      <trkpt lat="38.16199737600982189178466796875" lon="-1.45321346819400787353515625">
        <ele>409.399993896484375</ele>
        <time>2020-02-22T09:36:04.000Z</time>
      </trkpt>
      <trkpt lat="38.1619855575263500213623046875" lon="-1.45337037742137908935546875">
        <ele>409.399993896484375</ele>
        <time>2020-02-22T09:36:06.000Z</time>
      </trkpt>
      <trkpt lat="38.16191975958645343780517578125" lon="-1.4536038972437381744384765625">
        <ele>409.399993896484375</ele>
        <time>2020-02-22T09:36:09.000Z</time>
      </trkpt>
      <trkpt lat="38.16185186617076396942138671875" lon="-1.4537520892918109893798828125">
        <ele>409.399993896484375</ele>
        <time>2020-02-22T09:36:11.000Z</time>
      </trkpt>
      <trkpt lat="38.16171742044389247894287109375" lon="-1.45402072928845882415771484375">
        <ele>410.399993896484375</ele>
        <time>2020-02-22T09:36:15.000Z</time>
      </trkpt>
      <trkpt lat="38.1616853177547454833984375" lon="-1.4540887065231800079345703125">
        <ele>410.79998779296875</ele>
        <time>2020-02-22T09:36:16.000Z</time>
      </trkpt>
      <trkpt lat="38.16143813543021678924560546875" lon="-1.4546382240951061248779296875">
        <ele>411.600006103515625</ele>
        <time>2020-02-22T09:36:24.000Z</time>
      </trkpt>
      <trkpt lat="38.1613760255277156829833984375" lon="-1.45476252771914005279541015625">
        <ele>411.79998779296875</ele>
        <time>2020-02-22T09:36:26.000Z</time>
      </trkpt>
      <trkpt lat="38.1612730957567691802978515625" lon="-1.454927064478397369384765625">
        <ele>412.20001220703125</ele>
        <time>2020-02-22T09:36:29.000Z</time>
      </trkpt>
      <trkpt lat="38.1612345390021800994873046875" lon="-1.454972326755523681640625">
        <ele>412.20001220703125</ele>
        <time>2020-02-22T09:36:30.000Z</time>
      </trkpt>
      <trkpt lat="38.1611185334622859954833984375" lon="-1.45509243942797183990478515625">
        <ele>412.79998779296875</ele>
        <time>2020-02-22T09:36:33.000Z</time>
      </trkpt>
      <trkpt lat="38.16100428812205791473388671875" lon="-1.4552004821598529815673828125">
        <ele>413.600006103515625</ele>
        <time>2020-02-22T09:36:36.000Z</time>
      </trkpt>
      <trkpt lat="38.16096791066229343414306640625" lon="-1.455234847962856292724609375">
        <ele>413.79998779296875</ele>
        <time>2020-02-22T09:36:37.000Z</time>
      </trkpt>
      <trkpt lat="38.1609022803604602813720703125" lon="-1.455305255949497222900390625">
        <ele>415.20001220703125</ele>
        <time>2020-02-22T09:36:39.000Z</time>
      </trkpt>
      <trkpt lat="38.1608737818896770477294921875" lon="-1.4553464949131011962890625">
        <ele>415.600006103515625</ele>
        <time>2020-02-22T09:36:40.000Z</time>
      </trkpt>
      <trkpt lat="38.16079440526664257049560546875" lon="-1.45547750405967235565185546875">
        <ele>416.399993896484375</ele>
        <time>2020-02-22T09:36:43.000Z</time>
      </trkpt>
      <trkpt lat="38.16070991568267345428466796875" lon="-1.45563759841024875640869140625">
        <ele>417.399993896484375</ele>
        <time>2020-02-22T09:36:46.000Z</time>
      </trkpt>
      <trkpt lat="38.1605777330696582794189453125" lon="-1.45586005412042140960693359375">
        <ele>418.399993896484375</ele>
        <time>2020-02-22T09:36:50.000Z</time>
      </trkpt>
      <trkpt lat="38.16054160706698894500732421875" lon="-1.45591923035681247711181640625">
        <ele>418.600006103515625</ele>
        <time>2020-02-22T09:36:51.000Z</time>
      </trkpt>
      <trkpt lat="38.16027824766933917999267578125" lon="-1.45631938241422176361083984375">
        <ele>419.20001220703125</ele>
        <time>2020-02-22T09:36:58.000Z</time>
      </trkpt>
      <trkpt lat="38.16004841588437557220458984375" lon="-1.45666119642555713653564453125">
        <ele>419.399993896484375</ele>
        <time>2020-02-22T09:37:04.000Z</time>
      </trkpt>
      <trkpt lat="38.159926794469356536865234375" lon="-1.4568181894719600677490234375">
        <ele>419.399993896484375</ele>
        <time>2020-02-22T09:37:07.000Z</time>
      </trkpt>
      <trkpt lat="38.159843645989894866943359375" lon="-1.45692287944257259368896484375">
        <ele>419.600006103515625</ele>
        <time>2020-02-22T09:37:09.000Z</time>
      </trkpt>
      <trkpt lat="38.1597224436700344085693359375" lon="-1.45707325078547000885009765625">
        <ele>419.79998779296875</ele>
        <time>2020-02-22T09:37:12.000Z</time>
      </trkpt>
      <trkpt lat="38.159525804221630096435546875" lon="-1.45732395350933074951171875">
        <ele>420.20001220703125</ele>
        <time>2020-02-22T09:37:17.000Z</time>
      </trkpt>
      <trkpt lat="38.15937660634517669677734375" lon="-1.457518078386783599853515625">
        <ele>420.600006103515625</ele>
        <time>2020-02-22T09:37:21.000Z</time>
      </trkpt>
      <trkpt lat="38.1591849960386753082275390625" lon="-1.4577650092542171478271484375">
        <ele>421.399993896484375</ele>
        <time>2020-02-22T09:37:26.000Z</time>
      </trkpt>
      <trkpt lat="38.159119784832000732421875" lon="-1.4578597247600555419921875">
        <ele>421.600006103515625</ele>
        <time>2020-02-22T09:37:28.000Z</time>
      </trkpt>
      <trkpt lat="38.15892641432583332061767578125" lon="-1.45810003392398357391357421875">
        <ele>422.600006103515625</ele>
        <time>2020-02-22T09:37:33.000Z</time>
      </trkpt>
      <trkpt lat="38.1586361490190029144287109375" lon="-1.458442099392414093017578125">
        <ele>423.600006103515625</ele>
        <time>2020-02-22T09:37:40.000Z</time>
      </trkpt>
      <trkpt lat="38.1585942395031452178955078125" lon="-1.4584905467927455902099609375">
        <ele>423.79998779296875</ele>
        <time>2020-02-22T09:37:41.000Z</time>
      </trkpt>
      <trkpt lat="38.1583555229008197784423828125" lon="-1.458799503743648529052734375">
        <ele>424</ele>
        <time>2020-02-22T09:37:47.000Z</time>
      </trkpt>
      <trkpt lat="38.15824999473989009857177734375" lon="-1.45895716734230518341064453125">
        <ele>424.20001220703125</ele>
        <time>2020-02-22T09:37:50.000Z</time>
      </trkpt>
      <trkpt lat="38.15803893841803073883056640625" lon="-1.4592972211539745330810546875">
        <ele>424.399993896484375</ele>
        <time>2020-02-22T09:37:57.000Z</time>
      </trkpt>
      <trkpt lat="38.15784162841737270355224609375" lon="-1.459516324102878570556640625">
        <ele>424.79998779296875</ele>
        <time>2020-02-22T09:38:03.000Z</time>
      </trkpt>
      <trkpt lat="38.1577989645302295684814453125" lon="-1.4595470018684864044189453125">
        <ele>425.399993896484375</ele>
        <time>2020-02-22T09:38:04.000Z</time>
      </trkpt>
      <trkpt lat="38.157754205167293548583984375" lon="-1.45957566797733306884765625">
        <ele>426.399993896484375</ele>
        <time>2020-02-22T09:38:05.000Z</time>
      </trkpt>
      <trkpt lat="38.1576601602137088775634765625" lon="-1.459621600806713104248046875">
        <ele>427.600006103515625</ele>
        <time>2020-02-22T09:38:07.000Z</time>
      </trkpt>
      <trkpt lat="38.15756343305110931396484375" lon="-1.45967516116797924041748046875">
        <ele>428.600006103515625</ele>
        <time>2020-02-22T09:38:09.000Z</time>
      </trkpt>
      <trkpt lat="38.15752311609685420989990234375" lon="-1.4597077667713165283203125">
        <ele>428.600006103515625</ele>
        <time>2020-02-22T09:38:10.000Z</time>
      </trkpt>
      <trkpt lat="38.1574884988367557525634765625" lon="-1.45974657498300075531005859375">
        <ele>428.79998779296875</ele>
        <time>2020-02-22T09:38:11.000Z</time>
      </trkpt>
      <trkpt lat="38.15741029568016529083251953125" lon="-1.45992393605411052703857421875">
        <ele>429.20001220703125</ele>
        <time>2020-02-22T09:38:14.000Z</time>
      </trkpt>
      <trkpt lat="38.1573929451406002044677734375" lon="-1.4599872194230556488037109375">
        <ele>429.399993896484375</ele>
        <time>2020-02-22T09:38:15.000Z</time>
      </trkpt>
      <trkpt lat="38.15735162235796451568603515625" lon="-1.4602339826524257659912109375">
        <ele>429.600006103515625</ele>
        <time>2020-02-22T09:38:19.000Z</time>
      </trkpt>
      <trkpt lat="38.1573222018778324127197265625" lon="-1.4604721963405609130859375">
        <ele>429.79998779296875</ele>
        <time>2020-02-22T09:38:23.000Z</time>
      </trkpt>
      <trkpt lat="38.1572970561683177947998046875" lon="-1.46063472144305706024169921875">
        <ele>429.79998779296875</ele>
        <time>2020-02-22T09:38:26.000Z</time>
      </trkpt>
      <trkpt lat="38.15728976391255855560302734375" lon="-1.4606845937669277191162109375">
        <ele>429.79998779296875</ele>
        <time>2020-02-22T09:38:27.000Z</time>
      </trkpt>
      <trkpt lat="38.15726101398468017578125" lon="-1.46088886074721813201904296875">
        <ele>430</ele>
        <time>2020-02-22T09:38:31.000Z</time>
      </trkpt>
      <trkpt lat="38.1572243012487888336181640625" lon="-1.4610850811004638671875">
        <ele>430.79998779296875</ele>
        <time>2020-02-22T09:38:35.000Z</time>
      </trkpt>
      <trkpt lat="38.15719169564545154571533203125" lon="-1.461274512112140655517578125">
        <ele>432</ele>
        <time>2020-02-22T09:38:39.000Z</time>
      </trkpt>
      <trkpt lat="38.15712489187717437744140625" lon="-1.46144458092749118804931640625">
        <ele>433</ele>
        <time>2020-02-22T09:38:43.000Z</time>
      </trkpt>
      <trkpt lat="38.1570030190050601959228515625" lon="-1.4616233669221401214599609375">
        <ele>434.20001220703125</ele>
        <time>2020-02-22T09:38:48.000Z</time>
      </trkpt>
      <trkpt lat="38.15697862766683101654052734375" lon="-1.46165882237255573272705078125">
        <ele>434.399993896484375</ele>
        <time>2020-02-22T09:38:49.000Z</time>
      </trkpt>
      <trkpt lat="38.1568769551813602447509765625" lon="-1.4617953635752201080322265625">
        <ele>435.399993896484375</ele>
        <time>2020-02-22T09:38:53.000Z</time>
      </trkpt>
      <trkpt lat="38.15679657272994518280029296875" lon="-1.46189586259424686431884765625">
        <ele>436.20001220703125</ele>
        <time>2020-02-22T09:38:56.000Z</time>
      </trkpt>
      <trkpt lat="38.15671174786984920501708984375" lon="-1.4619925059378147125244140625">
        <ele>436.600006103515625</ele>
        <time>2020-02-22T09:38:59.000Z</time>
      </trkpt>
      <trkpt lat="38.15662088803946971893310546875" lon="-1.4621346630156040191650390625">
        <ele>437.20001220703125</ele>
        <time>2020-02-22T09:39:03.000Z</time>
      </trkpt>
      <trkpt lat="38.15653212368488311767578125" lon="-1.4622369222342967987060546875">
        <ele>437.399993896484375</ele>
        <time>2020-02-22T09:39:06.000Z</time>
      </trkpt>
      <trkpt lat="38.1564990989863872528076171875" lon="-1.46227170713245868682861328125">
        <ele>437.600006103515625</ele>
        <time>2020-02-22T09:39:07.000Z</time>
      </trkpt>
      <trkpt lat="38.1564684212207794189453125" lon="-1.46231152117252349853515625">
        <ele>437.79998779296875</ele>
        <time>2020-02-22T09:39:08.000Z</time>
      </trkpt>
      <trkpt lat="38.15638937987387180328369140625" lon="-1.46243733353912830352783203125">
        <ele>438.600006103515625</ele>
        <time>2020-02-22T09:39:11.000Z</time>
      </trkpt>
      <trkpt lat="38.156349398195743560791015625" lon="-1.46253204904496669769287109375">
        <ele>439.20001220703125</ele>
        <time>2020-02-22T09:39:13.000Z</time>
      </trkpt>
      <trkpt lat="38.1563338078558444976806640625" lon="-1.46258451975882053375244140625">
        <ele>439.399993896484375</ele>
        <time>2020-02-22T09:39:14.000Z</time>
      </trkpt>
      <trkpt lat="38.15630690194666385650634765625" lon="-1.4627498947083950042724609375">
        <ele>440</ele>
        <time>2020-02-22T09:39:17.000Z</time>
      </trkpt>
      <trkpt lat="38.15631729550659656524658203125" lon="-1.46286095492541790008544921875">
        <ele>440.399993896484375</ele>
        <time>2020-02-22T09:39:19.000Z</time>
      </trkpt>
      <trkpt lat="38.1563442014157772064208984375" lon="-1.46296329796314239501953125">
        <ele>440.600006103515625</ele>
        <time>2020-02-22T09:39:21.000Z</time>
      </trkpt>
      <trkpt lat="38.15638267435133457183837890625" lon="-1.46311886608600616455078125">
        <ele>441</ele>
        <time>2020-02-22T09:39:24.000Z</time>
      </trkpt>
      <trkpt lat="38.156392984092235565185546875" lon="-1.46316756494343280792236328125">
        <ele>441.20001220703125</ele>
        <time>2020-02-22T09:39:25.000Z</time>
      </trkpt>
      <trkpt lat="38.1564295291900634765625" lon="-1.463324390351772308349609375">
        <ele>442.20001220703125</ele>
        <time>2020-02-22T09:39:28.000Z</time>
      </trkpt>
      <trkpt lat="38.15648107789456844329833984375" lon="-1.4635299146175384521484375">
        <ele>443.399993896484375</ele>
        <time>2020-02-22T09:39:32.000Z</time>
      </trkpt>
      <trkpt lat="38.156492225825786590576171875" lon="-1.46358313970267772674560546875">
        <ele>443.79998779296875</ele>
        <time>2020-02-22T09:39:33.000Z</time>
      </trkpt>
      <trkpt lat="38.156483173370361328125" lon="-1.4637956209480762481689453125">
        <ele>444.399993896484375</ele>
        <time>2020-02-22T09:39:37.000Z</time>
      </trkpt>
      <trkpt lat="38.15647504292428493499755859375" lon="-1.4638502709567546844482421875">
        <ele>444.600006103515625</ele>
        <time>2020-02-22T09:39:38.000Z</time>
      </trkpt>
      <trkpt lat="38.15643782727420330047607421875" lon="-1.4640100300312042236328125">
        <ele>445.79998779296875</ele>
        <time>2020-02-22T09:39:41.000Z</time>
      </trkpt>
      <trkpt lat="38.15638502128422260284423828125" lon="-1.46420490927994251251220703125">
        <ele>447</ele>
        <time>2020-02-22T09:39:45.000Z</time>
      </trkpt>
      <trkpt lat="38.15637311898171901702880859375" lon="-1.46424899809062480926513671875">
        <ele>447.399993896484375</ele>
        <time>2020-02-22T09:39:46.000Z</time>
      </trkpt>
      <trkpt lat="38.1563277728855609893798828125" lon="-1.46438998170197010040283203125">
        <ele>448.20001220703125</ele>
        <time>2020-02-22T09:39:49.000Z</time>
      </trkpt>
      <trkpt lat="38.15629181452095508575439453125" lon="-1.46447698585689067840576171875">
        <ele>448.399993896484375</ele>
        <time>2020-02-22T09:39:51.000Z</time>
      </trkpt>
      <trkpt lat="38.15627907402813434600830078125" lon="-1.4645278640091419219970703125">
        <ele>448.600006103515625</ele>
        <time>2020-02-22T09:39:52.000Z</time>
      </trkpt>
      <trkpt lat="38.15625593997538089752197265625" lon="-1.46463096141815185546875">
        <ele>449.20001220703125</ele>
        <time>2020-02-22T09:39:54.000Z</time>
      </trkpt>
      <trkpt lat="38.15622157417237758636474609375" lon="-1.46482282318174839019775390625">
        <ele>450.399993896484375</ele>
        <time>2020-02-22T09:39:58.000Z</time>
      </trkpt>
      <trkpt lat="38.156211934983730316162109375" lon="-1.4648723602294921875">
        <ele>450.600006103515625</ele>
        <time>2020-02-22T09:39:59.000Z</time>
      </trkpt>
      <trkpt lat="38.15615267492830753326416015625" lon="-1.4651233144104480743408203125">
        <ele>451.600006103515625</ele>
        <time>2020-02-22T09:40:04.000Z</time>
      </trkpt>
      <trkpt lat="38.156118057668209075927734375" lon="-1.46526723168790340423583984375">
        <ele>452.20001220703125</ele>
        <time>2020-02-22T09:40:07.000Z</time>
      </trkpt>
      <trkpt lat="38.15609316341578960418701171875" lon="-1.46537535823881626129150390625">
        <ele>452.79998779296875</ele>
        <time>2020-02-22T09:40:09.000Z</time>
      </trkpt>
      <trkpt lat="38.1560310535132884979248046875" lon="-1.46564793772995471954345703125">
        <ele>454</ele>
        <time>2020-02-22T09:40:14.000Z</time>
      </trkpt>
      <trkpt lat="38.1559720449149608612060546875" lon="-1.465906016528606414794921875">
        <ele>454.600006103515625</ele>
        <time>2020-02-22T09:40:19.000Z</time>
      </trkpt>
      <trkpt lat="38.15596626140177249908447265625" lon="-1.46595940925180912017822265625">
        <ele>454.600006103515625</ele>
        <time>2020-02-22T09:40:20.000Z</time>
      </trkpt>
      <trkpt lat="38.15596357919275760650634765625" lon="-1.46607440896332263946533203125">
        <ele>454.79998779296875</ele>
        <time>2020-02-22T09:40:22.000Z</time>
      </trkpt>
      <trkpt lat="38.15597112290561199188232421875" lon="-1.46618773229420185089111328125">
        <ele>455.20001220703125</ele>
        <time>2020-02-22T09:40:24.000Z</time>
      </trkpt>
      <trkpt lat="38.15601185895502567291259765625" lon="-1.46640851162374019622802734375">
        <ele>456</ele>
        <time>2020-02-22T09:40:28.000Z</time>
      </trkpt>
      <trkpt lat="38.1560473144054412841796875" lon="-1.466555781662464141845703125">
        <ele>456.20001220703125</ele>
        <time>2020-02-22T09:40:31.000Z</time>
      </trkpt>
      <trkpt lat="38.1561017967760562896728515625" lon="-1.466797180473804473876953125">
        <ele>457.20001220703125</ele>
        <time>2020-02-22T09:40:36.000Z</time>
      </trkpt>
      <trkpt lat="38.1561090052127838134765625" lon="-1.466850154101848602294921875">
        <ele>457.399993896484375</ele>
        <time>2020-02-22T09:40:37.000Z</time>
      </trkpt>
      <trkpt lat="38.1561256013810634613037109375" lon="-1.4670018665492534637451171875">
        <ele>458.20001220703125</ele>
        <time>2020-02-22T09:40:40.000Z</time>
      </trkpt>
      <trkpt lat="38.15613674931228160858154296875" lon="-1.46725810132920742034912109375">
        <ele>459</ele>
        <time>2020-02-22T09:40:45.000Z</time>
      </trkpt>
      <trkpt lat="38.1561356596648693084716796875" lon="-1.4675567485392093658447265625">
        <ele>459.399993896484375</ele>
        <time>2020-02-22T09:40:50.000Z</time>
      </trkpt>
      <trkpt lat="38.15613373182713985443115234375" lon="-1.46762539632618427276611328125">
        <ele>459.399993896484375</ele>
        <time>2020-02-22T09:40:51.000Z</time>
      </trkpt>
      <trkpt lat="38.15614244900643825531005859375" lon="-1.46793745458126068115234375">
        <ele>459.399993896484375</ele>
        <time>2020-02-22T09:40:55.000Z</time>
      </trkpt>
      <trkpt lat="38.15614798106253147125244140625" lon="-1.4681017398834228515625">
        <ele>459.399993896484375</ele>
        <time>2020-02-22T09:40:57.000Z</time>
      </trkpt>
      <trkpt lat="38.1562389247119426727294921875" lon="-1.468541957437992095947265625">
        <ele>457.600006103515625</ele>
        <time>2020-02-22T09:41:03.000Z</time>
      </trkpt>
      <trkpt lat="38.15626281313598155975341796875" lon="-1.4686061628162860870361328125">
        <ele>457.600006103515625</ele>
        <time>2020-02-22T09:41:04.000Z</time>
      </trkpt>
      <trkpt lat="38.1562860310077667236328125" lon="-1.4686690270900726318359375">
        <ele>457.399993896484375</ele>
        <time>2020-02-22T09:41:05.000Z</time>
      </trkpt>
      <trkpt lat="38.15641586668789386749267578125" lon="-1.46906876005232334136962890625">
        <ele>456.600006103515625</ele>
        <time>2020-02-22T09:41:10.000Z</time>
      </trkpt>
      <trkpt lat="38.15652231685817241668701171875" lon="-1.46945885382592678070068359375">
        <ele>456.399993896484375</ele>
        <time>2020-02-22T09:41:14.000Z</time>
      </trkpt>
      <trkpt lat="38.156581409275531768798828125" lon="-1.46966353990137577056884765625">
        <ele>456</ele>
        <time>2020-02-22T09:41:16.000Z</time>
      </trkpt>
      <trkpt lat="38.15675701014697551727294921875" lon="-1.4700344391167163848876953125">
        <ele>455.399993896484375</ele>
        <time>2020-02-22T09:41:20.000Z</time>
      </trkpt>
      <trkpt lat="38.15680629573762416839599609375" lon="-1.47011850960552692413330078125">
        <ele>455</ele>
        <time>2020-02-22T09:41:21.000Z</time>
      </trkpt>
      <trkpt lat="38.15690889023244380950927734375" lon="-1.47027541883289813995361328125">
        <ele>454.20001220703125</ele>
        <time>2020-02-22T09:41:23.000Z</time>
      </trkpt>
      <trkpt lat="38.157122544944286346435546875" lon="-1.47058756090700626373291015625">
        <ele>453</ele>
        <time>2020-02-22T09:41:27.000Z</time>
      </trkpt>
      <trkpt lat="38.1572843156754970550537109375" lon="-1.470824517309665679931640625">
        <ele>452</ele>
        <time>2020-02-22T09:41:30.000Z</time>
      </trkpt>
      <trkpt lat="38.1573352776467800140380859375" lon="-1.4709051512181758880615234375">
        <ele>451.79998779296875</ele>
        <time>2020-02-22T09:41:31.000Z</time>
      </trkpt>
      <trkpt lat="38.15742705948650836944580078125" lon="-1.47107438184320926666259765625">
        <ele>451.20001220703125</ele>
        <time>2020-02-22T09:41:33.000Z</time>
      </trkpt>
      <trkpt lat="38.157462179660797119140625" lon="-1.47116792388260364532470703125">
        <ele>450.79998779296875</ele>
        <time>2020-02-22T09:41:34.000Z</time>
      </trkpt>
      <trkpt lat="38.15748187713325023651123046875" lon="-1.47127118892967700958251953125">
        <ele>450.399993896484375</ele>
        <time>2020-02-22T09:41:35.000Z</time>
      </trkpt>
      <trkpt lat="38.15741649828851222991943359375" lon="-1.47158970125019550323486328125">
        <ele>450</ele>
        <time>2020-02-22T09:41:38.000Z</time>
      </trkpt>
      <trkpt lat="38.157367967069149017333984375" lon="-1.47168559022247791290283203125">
        <ele>449.79998779296875</ele>
        <time>2020-02-22T09:41:39.000Z</time>
      </trkpt>
      <trkpt lat="38.1573171727359294891357421875" lon="-1.47178064100444316864013671875">
        <ele>449.399993896484375</ele>
        <time>2020-02-22T09:41:40.000Z</time>
      </trkpt>
      <trkpt lat="38.157174848020076751708984375" lon="-1.47206948138773441314697265625">
        <ele>448.600006103515625</ele>
        <time>2020-02-22T09:41:43.000Z</time>
      </trkpt>
      <trkpt lat="38.157138638198375701904296875" lon="-1.472170650959014892578125">
        <ele>448.399993896484375</ele>
        <time>2020-02-22T09:41:44.000Z</time>
      </trkpt>
      <trkpt lat="38.15707569010555744171142578125" lon="-1.4725785143673419952392578125">
        <ele>448</ele>
        <time>2020-02-22T09:41:48.000Z</time>
      </trkpt>
      <trkpt lat="38.15705557353794574737548828125" lon="-1.472884453833103179931640625">
        <ele>447.399993896484375</ele>
        <time>2020-02-22T09:41:51.000Z</time>
      </trkpt>
      <trkpt lat="38.15699019469320774078369140625" lon="-1.47328854538500308990478515625">
        <ele>447.600006103515625</ele>
        <time>2020-02-22T09:41:55.000Z</time>
      </trkpt>
      <trkpt lat="38.15674267709255218505859375" lon="-1.4739548228681087493896484375">
        <ele>447.79998779296875</ele>
        <time>2020-02-22T09:42:02.000Z</time>
      </trkpt>
      <trkpt lat="38.15649113617837429046630859375" lon="-1.47461405955255031585693359375">
        <ele>447.79998779296875</ele>
        <time>2020-02-22T09:42:09.000Z</time>
      </trkpt>
      <trkpt lat="38.15631511621177196502685546875" lon="-1.4750850386917591094970703125">
        <ele>447.399993896484375</ele>
        <time>2020-02-22T09:42:14.000Z</time>
      </trkpt>
      <trkpt lat="38.156099952757358551025390625" lon="-1.4756573550403118133544921875">
        <ele>447.20001220703125</ele>
        <time>2020-02-22T09:42:20.000Z</time>
      </trkpt>
      <trkpt lat="38.15592368133366107940673828125" lon="-1.476128585636615753173828125">
        <ele>447.20001220703125</ele>
        <time>2020-02-22T09:42:25.000Z</time>
      </trkpt>
      <trkpt lat="38.1558885611593723297119140625" lon="-1.47622221149504184722900390625">
        <ele>447.20001220703125</ele>
        <time>2020-02-22T09:42:26.000Z</time>
      </trkpt>
      <trkpt lat="38.155652694404125213623046875" lon="-1.4768636785447597503662109375">
        <ele>447.399993896484375</ele>
        <time>2020-02-22T09:42:33.000Z</time>
      </trkpt>
      <trkpt lat="38.15556518733501434326171875" lon="-1.4771550334990024566650390625">
        <ele>447.399993896484375</ele>
        <time>2020-02-22T09:42:36.000Z</time>
      </trkpt>
      <trkpt lat="38.1554071046411991119384765625" lon="-1.47783103398978710174560546875">
        <ele>447.399993896484375</ele>
        <time>2020-02-22T09:42:43.000Z</time>
      </trkpt>
      <trkpt lat="38.155364692211151123046875" lon="-1.47802683524787425994873046875">
        <ele>447.399993896484375</ele>
        <time>2020-02-22T09:42:45.000Z</time>
      </trkpt>
      <trkpt lat="38.15520635806024074554443359375" lon="-1.47871800698339939117431640625">
        <ele>447.20001220703125</ele>
        <time>2020-02-22T09:42:52.000Z</time>
      </trkpt>
      <trkpt lat="38.15512522123754024505615234375" lon="-1.4790946058928966522216796875">
        <ele>447.20001220703125</ele>
        <time>2020-02-22T09:42:56.000Z</time>
      </trkpt>
      <trkpt lat="38.15507392399013042449951171875" lon="-1.4796615578234195709228515625">
        <ele>447.399993896484375</ele>
        <time>2020-02-22T09:43:02.000Z</time>
      </trkpt>
      <trkpt lat="38.15507409162819385528564453125" lon="-1.480413414537906646728515625">
        <ele>448.20001220703125</ele>
        <time>2020-02-22T09:43:10.000Z</time>
      </trkpt>
      <trkpt lat="38.15507342107594013214111328125" lon="-1.48050586692988872528076171875">
        <ele>448.20001220703125</ele>
        <time>2020-02-22T09:43:11.000Z</time>
      </trkpt>
      <trkpt lat="38.15502681769430637359619140625" lon="-1.4811273850500583648681640625">
        <ele>448.20001220703125</ele>
        <time>2020-02-22T09:43:17.000Z</time>
      </trkpt>
      <trkpt lat="38.15487192012369632720947265625" lon="-1.4817503280937671661376953125">
        <ele>447.79998779296875</ele>
        <time>2020-02-22T09:43:23.000Z</time>
      </trkpt>
      <trkpt lat="38.154772259294986724853515625" lon="-1.48215224035084247589111328125">
        <ele>446.399993896484375</ele>
        <time>2020-02-22T09:43:27.000Z</time>
      </trkpt>
      <trkpt lat="38.154596574604511260986328125" lon="-1.48284274153411388397216796875">
        <ele>445.79998779296875</ele>
        <time>2020-02-22T09:43:34.000Z</time>
      </trkpt>
      <trkpt lat="38.15452088601887226104736328125" lon="-1.48313761688768863677978515625">
        <ele>445.399993896484375</ele>
        <time>2020-02-22T09:43:37.000Z</time>
      </trkpt>
      <trkpt lat="38.1544755399227142333984375" lon="-1.4833267964422702789306640625">
        <ele>445</ele>
        <time>2020-02-22T09:43:39.000Z</time>
      </trkpt>
      <trkpt lat="38.15441661514341831207275390625" lon="-1.48357816971838474273681640625">
        <ele>444.399993896484375</ele>
        <time>2020-02-22T09:43:42.000Z</time>
      </trkpt>
      <trkpt lat="38.1543762981891632080078125" lon="-1.48374907672405242919921875">
        <ele>444.399993896484375</ele>
        <time>2020-02-22T09:43:44.000Z</time>
      </trkpt>
      <trkpt lat="38.154292814433574676513671875" lon="-1.4840932376682758331298828125">
        <ele>444</ele>
        <time>2020-02-22T09:43:48.000Z</time>
      </trkpt>
      <trkpt lat="38.1542373262345790863037109375" lon="-1.4843411743640899658203125">
        <ele>443.79998779296875</ele>
        <time>2020-02-22T09:43:51.000Z</time>
      </trkpt>
      <trkpt lat="38.154203630983829498291015625" lon="-1.4846809767186641693115234375">
        <ele>443.399993896484375</ele>
        <time>2020-02-22T09:43:55.000Z</time>
      </trkpt>
      <trkpt lat="38.1542034633457660675048828125" lon="-1.4847708307206630706787109375">
        <ele>443.399993896484375</ele>
        <time>2020-02-22T09:43:56.000Z</time>
      </trkpt>
      <trkpt lat="38.1542024575173854827880859375" lon="-1.4848637022078037261962890625">
        <ele>443.399993896484375</ele>
        <time>2020-02-22T09:43:57.000Z</time>
      </trkpt>
      <trkpt lat="38.15420689992606639862060546875" lon="-1.4852767623960971832275390625">
        <ele>443.20001220703125</ele>
        <time>2020-02-22T09:44:01.000Z</time>
      </trkpt>
      <trkpt lat="38.154206983745098114013671875" lon="-1.4853926002979278564453125">
        <ele>443</ele>
        <time>2020-02-22T09:44:02.000Z</time>
      </trkpt>
      <trkpt lat="38.1542336381971836090087890625" lon="-1.48586927913129329681396484375">
        <ele>442.79998779296875</ele>
        <time>2020-02-22T09:44:06.000Z</time>
      </trkpt>
      <trkpt lat="38.15425836481153964996337890625" lon="-1.485976986587047576904296875">
        <ele>442.20001220703125</ele>
        <time>2020-02-22T09:44:07.000Z</time>
      </trkpt>
      <trkpt lat="38.1543307006359100341796875" lon="-1.48617739789187908172607421875">
        <ele>440.600006103515625</ele>
        <time>2020-02-22T09:44:09.000Z</time>
      </trkpt>
      <trkpt lat="38.1543771363794803619384765625" lon="-1.4862777292728424072265625">
        <ele>440</ele>
        <time>2020-02-22T09:44:10.000Z</time>
      </trkpt>
      <trkpt lat="38.15442650578916072845458984375" lon="-1.4863717742264270782470703125">
        <ele>439.20001220703125</ele>
        <time>2020-02-22T09:44:11.000Z</time>
      </trkpt>
      <trkpt lat="38.1546178646385669708251953125" lon="-1.48678139783442020416259765625">
        <ele>438.20001220703125</ele>
        <time>2020-02-22T09:44:15.000Z</time>
      </trkpt>
      <trkpt lat="38.1546648032963275909423828125" lon="-1.48687745444476604461669921875">
        <ele>438</ele>
        <time>2020-02-22T09:44:16.000Z</time>
      </trkpt>
      <trkpt lat="38.15475407056510448455810546875" lon="-1.48707501590251922607421875">
        <ele>437</ele>
        <time>2020-02-22T09:44:18.000Z</time>
      </trkpt>
      <trkpt lat="38.154949285089969635009765625" lon="-1.4875271357595920562744140625">
        <ele>436.399993896484375</ele>
        <time>2020-02-22T09:44:23.000Z</time>
      </trkpt>
      <trkpt lat="38.1551995687186717987060546875" lon="-1.48807682096958160400390625">
        <ele>436.79998779296875</ele>
        <time>2020-02-22T09:44:30.000Z</time>
      </trkpt>
      <trkpt lat="38.1552877463400363922119140625" lon="-1.48832165636122226715087890625">
        <ele>437</ele>
        <time>2020-02-22T09:44:33.000Z</time>
      </trkpt>
      <trkpt lat="38.1553276441991329193115234375" lon="-1.488495580852031707763671875">
        <ele>437.20001220703125</ele>
        <time>2020-02-22T09:44:35.000Z</time>
      </trkpt>
      <trkpt lat="38.15533845685422420501708984375" lon="-1.4885815791785717010498046875">
        <ele>437.20001220703125</ele>
        <time>2020-02-22T09:44:36.000Z</time>
      </trkpt>
      <trkpt lat="38.15534248016774654388427734375" lon="-1.48884594440460205078125">
        <ele>437.600006103515625</ele>
        <time>2020-02-22T09:44:39.000Z</time>
      </trkpt>
      <trkpt lat="38.15533728338778018951416015625" lon="-1.4891116507351398468017578125">
        <ele>437.79998779296875</ele>
        <time>2020-02-22T09:44:42.000Z</time>
      </trkpt>
      <trkpt lat="38.15533585846424102783203125" lon="-1.4895500242710113525390625">
        <ele>438</ele>
        <time>2020-02-22T09:44:47.000Z</time>
      </trkpt>
      <trkpt lat="38.155335523188114166259765625" lon="-1.4900658465921878814697265625">
        <ele>439.20001220703125</ele>
        <time>2020-02-22T09:44:53.000Z</time>
      </trkpt>
      <trkpt lat="38.15532890148460865020751953125" lon="-1.490692980587482452392578125">
        <ele>439.399993896484375</ele>
        <time>2020-02-22T09:45:00.000Z</time>
      </trkpt>
      <trkpt lat="38.1553320027887821197509765625" lon="-1.4912329427897930145263671875">
        <ele>440.20001220703125</ele>
        <time>2020-02-22T09:45:06.000Z</time>
      </trkpt>
      <trkpt lat="38.15533879213035106658935546875" lon="-1.49168497882783412933349609375">
        <ele>440.79998779296875</ele>
        <time>2020-02-22T09:45:11.000Z</time>
      </trkpt>
      <trkpt lat="38.15538204275071620941162109375" lon="-1.4922354184091091156005859375">
        <ele>441.20001220703125</ele>
        <time>2020-02-22T09:45:17.000Z</time>
      </trkpt>
      <trkpt lat="38.1554250419139862060546875" lon="-1.4924074150621891021728515625">
        <ele>441.20001220703125</ele>
        <time>2020-02-22T09:45:19.000Z</time>
      </trkpt>
      <trkpt lat="38.15550793893635272979736328125" lon="-1.49265342392027378082275390625">
        <ele>441.399993896484375</ele>
        <time>2020-02-22T09:45:22.000Z</time>
      </trkpt>
      <trkpt lat="38.15574514679610729217529296875" lon="-1.4933089725673198699951171875">
        <ele>441.600006103515625</ele>
        <time>2020-02-22T09:45:30.000Z</time>
      </trkpt>
      <trkpt lat="38.15577574074268341064453125" lon="-1.4933870919048786163330078125">
        <ele>441.79998779296875</ele>
        <time>2020-02-22T09:45:31.000Z</time>
      </trkpt>
      <trkpt lat="38.15601789392530918121337890625" lon="-1.4940529502928256988525390625">
        <ele>441.79998779296875</ele>
        <time>2020-02-22T09:45:39.000Z</time>
      </trkpt>
      <trkpt lat="38.1562028825283050537109375" lon="-1.49455544538795948028564453125">
        <ele>441.600006103515625</ele>
        <time>2020-02-22T09:45:45.000Z</time>
      </trkpt>
      <trkpt lat="38.15629877150058746337890625" lon="-1.4948214031755924224853515625">
        <ele>441.399993896484375</ele>
        <time>2020-02-22T09:45:48.000Z</time>
      </trkpt>
      <trkpt lat="38.1564937345683574676513671875" lon="-1.495343931019306182861328125">
        <ele>441.20001220703125</ele>
        <time>2020-02-22T09:45:54.000Z</time>
      </trkpt>
      <trkpt lat="38.1565839238464832305908203125" lon="-1.49558859877288341522216796875">
        <ele>441.20001220703125</ele>
        <time>2020-02-22T09:45:57.000Z</time>
      </trkpt>
      <trkpt lat="38.1568400748074054718017578125" lon="-1.4962708018720149993896484375">
        <ele>441.20001220703125</ele>
        <time>2020-02-22T09:46:05.000Z</time>
      </trkpt>
      <trkpt lat="38.15686681307852268218994140625" lon="-1.49635638110339641571044921875">
        <ele>441.20001220703125</ele>
        <time>2020-02-22T09:46:06.000Z</time>
      </trkpt>
      <trkpt lat="38.15710016526281833648681640625" lon="-1.49692232720553874969482421875">
        <ele>441.399993896484375</ele>
        <time>2020-02-22T09:46:13.000Z</time>
      </trkpt>
      <trkpt lat="38.15715246833860874176025390625" lon="-1.49699307046830654144287109375">
        <ele>441.399993896484375</ele>
        <time>2020-02-22T09:46:14.000Z</time>
      </trkpt>
      <trkpt lat="38.15735380165278911590576171875" lon="-1.4971820823848247528076171875">
        <ele>441.399993896484375</ele>
        <time>2020-02-22T09:46:17.000Z</time>
      </trkpt>
      <trkpt lat="38.157430328428745269775390625" lon="-1.497238241136074066162109375">
        <ele>441.399993896484375</ele>
        <time>2020-02-22T09:46:18.000Z</time>
      </trkpt>
      <trkpt lat="38.1577982939779758453369140625" lon="-1.4975510537624359130859375">
        <ele>441</ele>
        <time>2020-02-22T09:46:23.000Z</time>
      </trkpt>
      <trkpt lat="38.15793165005743503570556640625" lon="-1.49784500710666179656982421875">
        <ele>440.399993896484375</ele>
        <time>2020-02-22T09:46:26.000Z</time>
      </trkpt>
      <trkpt lat="38.157962746918201446533203125" lon="-1.49795296601951122283935546875">
        <ele>440.20001220703125</ele>
        <time>2020-02-22T09:46:27.000Z</time>
      </trkpt>
      <trkpt lat="38.1580554507672786712646484375" lon="-1.49828002788126468658447265625">
        <ele>439.79998779296875</ele>
        <time>2020-02-22T09:46:30.000Z</time>
      </trkpt>
      <trkpt lat="38.1581528484821319580078125" lon="-1.49860910139977931976318359375">
        <ele>439</ele>
        <time>2020-02-22T09:46:33.000Z</time>
      </trkpt>
      <trkpt lat="38.1581835262477397918701171875" lon="-1.49871655739843845367431640625">
        <ele>438.600006103515625</ele>
        <time>2020-02-22T09:46:34.000Z</time>
      </trkpt>
      <trkpt lat="38.15827153623104095458984375" lon="-1.4990234188735485076904296875">
        <ele>437.79998779296875</ele>
        <time>2020-02-22T09:46:37.000Z</time>
      </trkpt>
      <trkpt lat="38.15841771662235260009765625" lon="-1.499503366649150848388671875">
        <ele>437.20001220703125</ele>
        <time>2020-02-22T09:46:42.000Z</time>
      </trkpt>
      <trkpt lat="38.15863874740898609161376953125" lon="-1.50014399550855159759521484375">
        <ele>437</ele>
        <time>2020-02-22T09:46:49.000Z</time>
      </trkpt>
      <trkpt lat="38.1588041223585605621337890625" lon="-1.50035203434526920318603515625">
        <ele>437</ele>
        <time>2020-02-22T09:46:52.000Z</time>
      </trkpt>
      <trkpt lat="38.15886430442333221435546875" lon="-1.5004121325910091400146484375">
        <ele>437</ele>
        <time>2020-02-22T09:46:53.000Z</time>
      </trkpt>
      <trkpt lat="38.1591041944921016693115234375" lon="-1.5006739832460880279541015625">
        <ele>437</ele>
        <time>2020-02-22T09:46:57.000Z</time>
      </trkpt>
      <trkpt lat="38.15915800631046295166015625" lon="-1.5007504262030124664306640625">
        <ele>436.79998779296875</ele>
        <time>2020-02-22T09:46:58.000Z</time>
      </trkpt>
      <trkpt lat="38.15920234657824039459228515625" lon="-1.50083684362471103668212890625">
        <ele>436.79998779296875</ele>
        <time>2020-02-22T09:46:59.000Z</time>
      </trkpt>
      <trkpt lat="38.15925565548241138458251953125" lon="-1.50115468539297580718994140625">
        <ele>436.79998779296875</ele>
        <time>2020-02-22T09:47:02.000Z</time>
      </trkpt>
      <trkpt lat="38.159253895282745361328125" lon="-1.50126658380031585693359375">
        <ele>436.79998779296875</ele>
        <time>2020-02-22T09:47:03.000Z</time>
      </trkpt>
      <trkpt lat="38.1592265702784061431884765625" lon="-1.50178668089210987091064453125">
        <ele>436.79998779296875</ele>
        <time>2020-02-22T09:47:08.000Z</time>
      </trkpt>
      <trkpt lat="38.15919916145503520965576171875" lon="-1.5025042556226253509521484375">
        <ele>436.79998779296875</ele>
        <time>2020-02-22T09:47:15.000Z</time>
      </trkpt>
      <trkpt lat="38.15918474458158016204833984375" lon="-1.50292527861893177032470703125">
        <ele>436.399993896484375</ele>
        <time>2020-02-22T09:47:19.000Z</time>
      </trkpt>
      <trkpt lat="38.15916605293750762939453125" lon="-1.5036472119390964508056640625">
        <ele>436.600006103515625</ele>
        <time>2020-02-22T09:47:26.000Z</time>
      </trkpt>
      <trkpt lat="38.1591578386723995208740234375" lon="-1.50404870510101318359375">
        <ele>436.79998779296875</ele>
        <time>2020-02-22T09:47:30.000Z</time>
      </trkpt>
      <trkpt lat="38.159185834228992462158203125" lon="-1.5043402276933193206787109375">
        <ele>436.79998779296875</ele>
        <time>2020-02-22T09:47:33.000Z</time>
      </trkpt>
      <trkpt lat="38.1592369638383388519287109375" lon="-1.50453887879848480224609375">
        <ele>436.79998779296875</ele>
        <time>2020-02-22T09:47:35.000Z</time>
      </trkpt>
      <trkpt lat="38.15941206179559230804443359375" lon="-1.50513173080980777740478515625">
        <ele>436.79998779296875</ele>
        <time>2020-02-22T09:47:41.000Z</time>
      </trkpt>
      <trkpt lat="38.15949437208473682403564453125" lon="-1.5054365806281566619873046875">
        <ele>436.79998779296875</ele>
        <time>2020-02-22T09:47:44.000Z</time>
      </trkpt>
      <trkpt lat="38.1595712341368198394775390625" lon="-1.50594728998839855194091796875">
        <ele>436.20001220703125</ele>
        <time>2020-02-22T09:47:49.000Z</time>
      </trkpt>
      <trkpt lat="38.159590177237987518310546875" lon="-1.50667123496532440185546875">
        <ele>436.20001220703125</ele>
        <time>2020-02-22T09:47:56.000Z</time>
      </trkpt>
      <trkpt lat="38.1596017442643642425537109375" lon="-1.50677626021206378936767578125">
        <ele>436.20001220703125</ele>
        <time>2020-02-22T09:47:57.000Z</time>
      </trkpt>
      <trkpt lat="38.15962194465100765228271484375" lon="-1.50687885470688343048095703125">
        <ele>436.20001220703125</ele>
        <time>2020-02-22T09:47:58.000Z</time>
      </trkpt>
      <trkpt lat="38.1596926040947437286376953125" lon="-1.5070673637092113494873046875">
        <ele>436.20001220703125</ele>
        <time>2020-02-22T09:48:00.000Z</time>
      </trkpt>
      <trkpt lat="38.15985512919723987579345703125" lon="-1.50729308836162090301513671875">
        <ele>436.20001220703125</ele>
        <time>2020-02-22T09:48:03.000Z</time>
      </trkpt>
      <trkpt lat="38.1599148921668529510498046875" lon="-1.50735880248248577117919921875">
        <ele>436.20001220703125</ele>
        <time>2020-02-22T09:48:04.000Z</time>
      </trkpt>
      <trkpt lat="38.16003450192511081695556640625" lon="-1.50748419575393199920654296875">
        <ele>436</ele>
        <time>2020-02-22T09:48:06.000Z</time>
      </trkpt>
      <trkpt lat="38.16044521518051624298095703125" lon="-1.5079347230494022369384765625">
        <ele>435.399993896484375</ele>
        <time>2020-02-22T09:48:13.000Z</time>
      </trkpt>
      <trkpt lat="38.16064956597983837127685546875" lon="-1.5082240663468837738037109375">
        <ele>435.399993896484375</ele>
        <time>2020-02-22T09:48:17.000Z</time>
      </trkpt>
      <trkpt lat="38.160726092755794525146484375" lon="-1.5083957277238368988037109375">
        <ele>435.399993896484375</ele>
        <time>2020-02-22T09:48:19.000Z</time>
      </trkpt>
      <trkpt lat="38.16077831201255321502685546875" lon="-1.50857417844235897064208984375">
        <ele>435.399993896484375</ele>
        <time>2020-02-22T09:48:21.000Z</time>
      </trkpt>
      <trkpt lat="38.1608680821955204010009765625" lon="-1.5089335106313228607177734375">
        <ele>435.399993896484375</ele>
        <time>2020-02-22T09:48:25.000Z</time>
      </trkpt>
      <trkpt lat="38.16105893813073635101318359375" lon="-1.5095970220863819122314453125">
        <ele>436.600006103515625</ele>
        <time>2020-02-22T09:48:33.000Z</time>
      </trkpt>
      <trkpt lat="38.16110839135944843292236328125" lon="-1.5097542665898799896240234375">
        <ele>436.79998779296875</ele>
        <time>2020-02-22T09:48:35.000Z</time>
      </trkpt>
      <trkpt lat="38.16124786622822284698486328125" lon="-1.51020060293376445770263671875">
        <ele>437.600006103515625</ele>
        <time>2020-02-22T09:48:41.000Z</time>
      </trkpt>
      <trkpt lat="38.16127158701419830322265625" lon="-1.5102689154446125030517578125">
        <ele>438</ele>
        <time>2020-02-22T09:48:42.000Z</time>
      </trkpt>
      <trkpt lat="38.16139136441051959991455078125" lon="-1.51062472723424434661865234375">
        <ele>439.20001220703125</ele>
        <time>2020-02-22T09:48:47.000Z</time>
      </trkpt>
      <trkpt lat="38.16146336495876312255859375" lon="-1.510845758020877838134765625">
        <ele>439.399993896484375</ele>
        <time>2020-02-22T09:48:50.000Z</time>
      </trkpt>
      <trkpt lat="38.16153100691735744476318359375" lon="-1.51106745935976505279541015625">
        <ele>440</ele>
        <time>2020-02-22T09:48:53.000Z</time>
      </trkpt>
      <trkpt lat="38.1616455875337123870849609375" lon="-1.5114323236048221588134765625">
        <ele>440.600006103515625</ele>
        <time>2020-02-22T09:48:58.000Z</time>
      </trkpt>
      <trkpt lat="38.16171725280582904815673828125" lon="-1.51171244680881500244140625">
        <ele>441.399993896484375</ele>
        <time>2020-02-22T09:49:03.000Z</time>
      </trkpt>
      <trkpt lat="38.161705769598484039306640625" lon="-1.51183490641415119171142578125">
        <ele>442.20001220703125</ele>
        <time>2020-02-22T09:49:06.000Z</time>
      </trkpt>
      <trkpt lat="38.16167701967060565948486328125" lon="-1.5118738822638988494873046875">
        <ele>442.399993896484375</ele>
        <time>2020-02-22T09:49:07.000Z</time>
      </trkpt>
      <trkpt lat="38.16164298914372920989990234375" lon="-1.5119104273617267608642578125">
        <ele>442.600006103515625</ele>
        <time>2020-02-22T09:49:08.000Z</time>
      </trkpt>
      <trkpt lat="38.16150669939815998077392578125" lon="-1.512027271091938018798828125">
        <ele>443.20001220703125</ele>
        <time>2020-02-22T09:49:11.000Z</time>
      </trkpt>
      <trkpt lat="38.16139672882854938507080078125" lon="-1.51211117394268512725830078125">
        <ele>443.20001220703125</ele>
        <time>2020-02-22T09:49:13.000Z</time>
      </trkpt>
      <trkpt lat="38.16128541715443134307861328125" lon="-1.51220798492431640625">
        <ele>443.20001220703125</ele>
        <time>2020-02-22T09:49:15.000Z</time>
      </trkpt>
      <trkpt lat="38.1609311141073703765869140625" lon="-1.5125397406518459320068359375">
        <ele>443.20001220703125</ele>
        <time>2020-02-22T09:49:21.000Z</time>
      </trkpt>
      <trkpt lat="38.16044605337083339691162109375" lon="-1.513001583516597747802734375">
        <ele>441.399993896484375</ele>
        <time>2020-02-22T09:49:28.000Z</time>
      </trkpt>
      <trkpt lat="38.16030272282660007476806640625" lon="-1.513124965131282806396484375">
        <ele>440.79998779296875</ele>
        <time>2020-02-22T09:49:30.000Z</time>
      </trkpt>
      <trkpt lat="38.1602280400693416595458984375" lon="-1.51318606920540332794189453125">
        <ele>440</ele>
        <time>2020-02-22T09:49:31.000Z</time>
      </trkpt>
      <trkpt lat="38.16008177585899829864501953125" lon="-1.5133051760494709014892578125">
        <ele>439.20001220703125</ele>
        <time>2020-02-22T09:49:33.000Z</time>
      </trkpt>
      <trkpt lat="38.16000759601593017578125" lon="-1.51336460374295711517333984375">
        <ele>438.79998779296875</ele>
        <time>2020-02-22T09:49:34.000Z</time>
      </trkpt>
      <trkpt lat="38.1595839746296405792236328125" lon="-1.5137289650738239288330078125">
        <ele>437.600006103515625</ele>
        <time>2020-02-22T09:49:40.000Z</time>
      </trkpt>
      <trkpt lat="38.15929404459893703460693359375" lon="-1.5139864571392536163330078125">
        <ele>436.79998779296875</ele>
        <time>2020-02-22T09:49:44.000Z</time>
      </trkpt>
      <trkpt lat="38.15899531356990337371826171875" lon="-1.51424554176628589630126953125">
        <ele>435.399993896484375</ele>
        <time>2020-02-22T09:49:48.000Z</time>
      </trkpt>
      <trkpt lat="38.158851899206638336181640625" lon="-1.5143676660954952239990234375">
        <ele>435</ele>
        <time>2020-02-22T09:49:50.000Z</time>
      </trkpt>
      <trkpt lat="38.1584986858069896697998046875" lon="-1.51467720977962017059326171875">
        <ele>434.399993896484375</ele>
        <time>2020-02-22T09:49:55.000Z</time>
      </trkpt>
      <trkpt lat="38.15842852927744388580322265625" lon="-1.51474007405340671539306640625">
        <ele>434.20001220703125</ele>
        <time>2020-02-22T09:49:56.000Z</time>
      </trkpt>
      <trkpt lat="38.15808353014290332794189453125" lon="-1.51504400186240673065185546875">
        <ele>434.20001220703125</ele>
        <time>2020-02-22T09:50:01.000Z</time>
      </trkpt>
      <trkpt lat="38.1576995551586151123046875" lon="-1.51539721526205539703369140625">
        <ele>434.20001220703125</ele>
        <time>2020-02-22T09:50:07.000Z</time>
      </trkpt>
      <trkpt lat="38.1572460941970348358154296875" lon="-1.51581983081996440887451171875">
        <ele>435</ele>
        <time>2020-02-22T09:50:14.000Z</time>
      </trkpt>
      <trkpt lat="38.15679606981575489044189453125" lon="-1.51621093042194843292236328125">
        <ele>435.399993896484375</ele>
        <time>2020-02-22T09:50:21.000Z</time>
      </trkpt>
      <trkpt lat="38.1567334569990634918212890625" lon="-1.51626675389707088470458984375">
        <ele>435.399993896484375</ele>
        <time>2020-02-22T09:50:22.000Z</time>
      </trkpt>
      <trkpt lat="38.15667218528687953948974609375" lon="-1.51631972752511501312255859375">
        <ele>435.399993896484375</ele>
        <time>2020-02-22T09:50:23.000Z</time>
      </trkpt>
      <trkpt lat="38.1562137790024280548095703125" lon="-1.51670244522392749786376953125">
        <ele>436.20001220703125</ele>
        <time>2020-02-22T09:50:31.000Z</time>
      </trkpt>
      <trkpt lat="38.15610590390861034393310546875" lon="-1.5167933888733386993408203125">
        <ele>436.600006103515625</ele>
        <time>2020-02-22T09:50:33.000Z</time>
      </trkpt>
      <trkpt lat="38.15584606491029262542724609375" lon="-1.51703470386564731597900390625">
        <ele>437.600006103515625</ele>
        <time>2020-02-22T09:50:38.000Z</time>
      </trkpt>
      <trkpt lat="38.155671469867229461669921875" lon="-1.51718742214143276214599609375">
        <ele>438</ele>
        <time>2020-02-22T09:50:41.000Z</time>
      </trkpt>
      <trkpt lat="38.15536863170564174652099609375" lon="-1.51745597831904888153076171875">
        <ele>438.79998779296875</ele>
        <time>2020-02-22T09:50:46.000Z</time>
      </trkpt>
      <trkpt lat="38.155253045260906219482421875" lon="-1.5175765939056873321533203125">
        <ele>438.79998779296875</ele>
        <time>2020-02-22T09:50:48.000Z</time>
      </trkpt>
      <trkpt lat="38.154910393059253692626953125" lon="-1.5178565494716167449951171875">
        <ele>438.79998779296875</ele>
        <time>2020-02-22T09:50:53.000Z</time>
      </trkpt>
      <trkpt lat="38.15452046692371368408203125" lon="-1.5181992016732692718505859375">
        <ele>438.79998779296875</ele>
        <time>2020-02-22T09:50:59.000Z</time>
      </trkpt>
      <trkpt lat="38.15414353273808956146240234375" lon="-1.5185447037220001220703125">
        <ele>438</ele>
        <time>2020-02-22T09:51:05.000Z</time>
      </trkpt>
      <trkpt lat="38.15402249805629253387451171875" lon="-1.518675126135349273681640625">
        <ele>438</ele>
        <time>2020-02-22T09:51:07.000Z</time>
      </trkpt>
      <trkpt lat="38.1536965258419513702392578125" lon="-1.5189872682094573974609375">
        <ele>438</ele>
        <time>2020-02-22T09:51:12.000Z</time>
      </trkpt>
      <trkpt lat="38.153295703232288360595703125" lon="-1.51931139640510082244873046875">
        <ele>438.600006103515625</ele>
        <time>2020-02-22T09:51:18.000Z</time>
      </trkpt>
      <trkpt lat="38.15321666188538074493408203125" lon="-1.5193595923483371734619140625">
        <ele>438.600006103515625</ele>
        <time>2020-02-22T09:51:19.000Z</time>
      </trkpt>
      <trkpt lat="38.15278298221528530120849609375" lon="-1.51948825456202030181884765625">
        <ele>438.79998779296875</ele>
        <time>2020-02-22T09:51:24.000Z</time>
      </trkpt>
      <trkpt lat="38.15219809301197528839111328125" lon="-1.51961398310959339141845703125">
        <ele>439.20001220703125</ele>
        <time>2020-02-22T09:51:31.000Z</time>
      </trkpt>
      <trkpt lat="38.15212081186473369598388671875" lon="-1.519640050828456878662109375">
        <ele>439.20001220703125</ele>
        <time>2020-02-22T09:51:32.000Z</time>
      </trkpt>
      <trkpt lat="38.151679672300815582275390625" lon="-1.51979167945683002471923828125">
        <ele>439.600006103515625</ele>
        <time>2020-02-22T09:51:38.000Z</time>
      </trkpt>
      <trkpt lat="38.1516067497432231903076171875" lon="-1.51981313712894916534423828125">
        <ele>439.600006103515625</ele>
        <time>2020-02-22T09:51:39.000Z</time>
      </trkpt>
      <trkpt lat="38.15107977949082851409912109375" lon="-1.5199728123843669891357421875">
        <ele>440</ele>
        <time>2020-02-22T09:51:46.000Z</time>
      </trkpt>
      <trkpt lat="38.15061290748417377471923828125" lon="-1.520142965018749237060546875">
        <ele>440.20001220703125</ele>
        <time>2020-02-22T09:51:53.000Z</time>
      </trkpt>
      <trkpt lat="38.15039413981139659881591796875" lon="-1.5201920829713344573974609375">
        <ele>440.600006103515625</ele>
        <time>2020-02-22T09:51:56.000Z</time>
      </trkpt>
      <trkpt lat="38.1501794792711734771728515625" lon="-1.52023793198168277740478515625">
        <ele>441.399993896484375</ele>
        <time>2020-02-22T09:51:59.000Z</time>
      </trkpt>
      <trkpt lat="38.1501023657619953155517578125" lon="-1.5202494151890277862548828125">
        <ele>441.79998779296875</ele>
        <time>2020-02-22T09:52:00.000Z</time>
      </trkpt>
      <trkpt lat="38.1498287804424762725830078125" lon="-1.52032543905079364776611328125">
        <ele>442.79998779296875</ele>
        <time>2020-02-22T09:52:04.000Z</time>
      </trkpt>
      <trkpt lat="38.14976331777870655059814453125" lon="-1.5203439630568027496337890625">
        <ele>443.20001220703125</ele>
        <time>2020-02-22T09:52:05.000Z</time>
      </trkpt>
      <trkpt lat="38.14943240024149417877197265625" lon="-1.52045049704611301422119140625">
        <ele>444.20001220703125</ele>
        <time>2020-02-22T09:52:10.000Z</time>
      </trkpt>
      <trkpt lat="38.14937205053865909576416015625" lon="-1.52047463692724704742431640625">
        <ele>444.20001220703125</ele>
        <time>2020-02-22T09:52:11.000Z</time>
      </trkpt>
      <trkpt lat="38.14894993789494037628173828125" lon="-1.52058628387749195098876953125">
        <ele>445</ele>
        <time>2020-02-22T09:52:17.000Z</time>
      </trkpt>
      <trkpt lat="38.14873619936406612396240234375" lon="-1.52064244262874126434326171875">
        <ele>445.20001220703125</ele>
        <time>2020-02-22T09:52:20.000Z</time>
      </trkpt>
      <trkpt lat="38.14830050803720951080322265625" lon="-1.52075727470219135284423828125">
        <ele>446</ele>
        <time>2020-02-22T09:52:26.000Z</time>
      </trkpt>
      <trkpt lat="38.1482305191457271575927734375" lon="-1.5207757987082004547119140625">
        <ele>446</ele>
        <time>2020-02-22T09:52:27.000Z</time>
      </trkpt>
      <trkpt lat="38.14789616502821445465087890625" lon="-1.5208777226507663726806640625">
        <ele>447.20001220703125</ele>
        <time>2020-02-22T09:52:32.000Z</time>
      </trkpt>
      <trkpt lat="38.14762040041387081146240234375" lon="-1.5209531597793102264404296875">
        <ele>448</ele>
        <time>2020-02-22T09:52:36.000Z</time>
      </trkpt>
      <trkpt lat="38.1474151276051998138427734375" lon="-1.52100923471152782440185546875">
        <ele>448.399993896484375</ele>
        <time>2020-02-22T09:52:39.000Z</time>
      </trkpt>
      <trkpt lat="38.147039115428924560546875" lon="-1.52112306095659732818603515625">
        <ele>449.600006103515625</ele>
        <time>2020-02-22T09:52:45.000Z</time>
      </trkpt>
      <trkpt lat="38.14698236994445323944091796875" lon="-1.5211422555148601531982421875">
        <ele>449.79998779296875</ele>
        <time>2020-02-22T09:52:46.000Z</time>
      </trkpt>
      <trkpt lat="38.146587498486042022705078125" lon="-1.52125172317028045654296875">
        <ele>450.79998779296875</ele>
        <time>2020-02-22T09:52:53.000Z</time>
      </trkpt>
      <trkpt lat="38.146535865962505340576171875" lon="-1.52126706205308437347412109375">
        <ele>451</ele>
        <time>2020-02-22T09:52:54.000Z</time>
      </trkpt>
      <trkpt lat="38.1463177688419818878173828125" lon="-1.5213404037058353424072265625">
        <ele>451.79998779296875</ele>
        <time>2020-02-22T09:52:58.000Z</time>
      </trkpt>
      <trkpt lat="38.14612247049808502197265625" lon="-1.5213958919048309326171875">
        <ele>452</ele>
        <time>2020-02-22T09:53:01.000Z</time>
      </trkpt>
      <trkpt lat="38.1457602046430110931396484375" lon="-1.5214996598660945892333984375">
        <ele>452.20001220703125</ele>
        <time>2020-02-22T09:53:06.000Z</time>
      </trkpt>
      <trkpt lat="38.1456851027905941009521484375" lon="-1.5215217880904674530029296875">
        <ele>452.20001220703125</ele>
        <time>2020-02-22T09:53:07.000Z</time>
      </trkpt>
      <trkpt lat="38.1455335579812526702880859375" lon="-1.52156445197761058807373046875">
        <ele>452</ele>
        <time>2020-02-22T09:53:09.000Z</time>
      </trkpt>
      <trkpt lat="38.1453867070376873016357421875" lon="-1.52160988189280033111572265625">
        <ele>451.600006103515625</ele>
        <time>2020-02-22T09:53:11.000Z</time>
      </trkpt>
      <trkpt lat="38.145175315439701080322265625" lon="-1.5216672979295253753662109375">
        <ele>451</ele>
        <time>2020-02-22T09:53:14.000Z</time>
      </trkpt>
      <trkpt lat="38.14503843896090984344482421875" lon="-1.52170836925506591796875">
        <ele>450.600006103515625</ele>
        <time>2020-02-22T09:53:16.000Z</time>
      </trkpt>
      <trkpt lat="38.14465655945241451263427734375" lon="-1.52182261459529399871826171875">
        <ele>450.600006103515625</ele>
        <time>2020-02-22T09:53:22.000Z</time>
      </trkpt>
      <trkpt lat="38.1442648731172084808349609375" lon="-1.52194130234420299530029296875">
        <ele>452.399993896484375</ele>
        <time>2020-02-22T09:53:29.000Z</time>
      </trkpt>
      <trkpt lat="38.1441622786223888397216796875" lon="-1.52196946553885936737060546875">
        <ele>453</ele>
        <time>2020-02-22T09:53:31.000Z</time>
      </trkpt>
      <trkpt lat="38.14406127668917179107666015625" lon="-1.52199804782867431640625">
        <ele>453.600006103515625</ele>
        <time>2020-02-22T09:53:33.000Z</time>
      </trkpt>
      <trkpt lat="38.1438514776527881622314453125" lon="-1.52205496095120906829833984375">
        <ele>455</ele>
        <time>2020-02-22T09:53:37.000Z</time>
      </trkpt>
      <trkpt lat="38.14370772801339626312255859375" lon="-1.52211229316890239715576171875">
        <ele>456</ele>
        <time>2020-02-22T09:53:40.000Z</time>
      </trkpt>
      <trkpt lat="38.1436084024608135223388671875" lon="-1.52214732952415943145751953125">
        <ele>456.399993896484375</ele>
        <time>2020-02-22T09:53:42.000Z</time>
      </trkpt>
      <trkpt lat="38.14345677383244037628173828125" lon="-1.52218152768909931182861328125">
        <ele>457.20001220703125</ele>
        <time>2020-02-22T09:53:45.000Z</time>
      </trkpt>
      <trkpt lat="38.14329450018703937530517578125" lon="-1.52222804725170135498046875">
        <ele>458.399993896484375</ele>
        <time>2020-02-22T09:53:48.000Z</time>
      </trkpt>
      <trkpt lat="38.1432372517883777618408203125" lon="-1.52224539779126644134521484375">
        <ele>459</ele>
        <time>2020-02-22T09:53:49.000Z</time>
      </trkpt>
      <trkpt lat="38.1431182287633419036865234375" lon="-1.52228261344134807586669921875">
        <ele>459.600006103515625</ele>
        <time>2020-02-22T09:53:51.000Z</time>
      </trkpt>
      <trkpt lat="38.14274649135768413543701171875" lon="-1.52238353155553340911865234375">
        <ele>460.20001220703125</ele>
        <time>2020-02-22T09:53:57.000Z</time>
      </trkpt>
      <trkpt lat="38.14228280447423458099365234375" lon="-1.52250708080828189849853515625">
        <ele>460.20001220703125</ele>
        <time>2020-02-22T09:54:04.000Z</time>
      </trkpt>
      <trkpt lat="38.14209069125354290008544921875" lon="-1.52256667613983154296875">
        <ele>460.20001220703125</ele>
        <time>2020-02-22T09:54:07.000Z</time>
      </trkpt>
      <trkpt lat="38.141827248036861419677734375" lon="-1.52264320291578769683837890625">
        <ele>460</ele>
        <time>2020-02-22T09:54:11.000Z</time>
      </trkpt>
      <trkpt lat="38.1417623721063137054443359375" lon="-1.5226637385785579681396484375">
        <ele>460</ele>
        <time>2020-02-22T09:54:12.000Z</time>
      </trkpt>
      <trkpt lat="38.141433298587799072265625" lon="-1.52276976965367794036865234375">
        <ele>460</ele>
        <time>2020-02-22T09:54:17.000Z</time>
      </trkpt>
      <trkpt lat="38.1411012075841426849365234375" lon="-1.52287420816719532012939453125">
        <ele>460</ele>
        <time>2020-02-22T09:54:22.000Z</time>
      </trkpt>
      <trkpt lat="38.140573315322399139404296875" lon="-1.52303514070808887481689453125">
        <ele>460</ele>
        <time>2020-02-22T09:54:30.000Z</time>
      </trkpt>
      <trkpt lat="38.14011021517217159271240234375" lon="-1.52315399609506130218505859375">
        <ele>460</ele>
        <time>2020-02-22T09:54:37.000Z</time>
      </trkpt>
      <trkpt lat="38.13954611308872699737548828125" lon="-1.5233252383768558502197265625">
        <ele>460.399993896484375</ele>
        <time>2020-02-22T09:54:46.000Z</time>
      </trkpt>
      <trkpt lat="38.139420635998249053955078125" lon="-1.5233621187508106231689453125">
        <ele>460.600006103515625</ele>
        <time>2020-02-22T09:54:48.000Z</time>
      </trkpt>
      <trkpt lat="38.13895435072481632232666015625" lon="-1.5234888531267642974853515625">
        <ele>461.79998779296875</ele>
        <time>2020-02-22T09:54:56.000Z</time>
      </trkpt>
      <trkpt lat="38.13878151588141918182373046875" lon="-1.523537300527095794677734375">
        <ele>462.20001220703125</ele>
        <time>2020-02-22T09:54:59.000Z</time>
      </trkpt>
      <trkpt lat="38.1386101059615612030029296875" lon="-1.52358985505998134613037109375">
        <ele>462.600006103515625</ele>
        <time>2020-02-22T09:55:02.000Z</time>
      </trkpt>
      <trkpt lat="38.13855755142867565155029296875" lon="-1.52360728941857814788818359375">
        <ele>463</ele>
        <time>2020-02-22T09:55:03.000Z</time>
      </trkpt>
      <trkpt lat="38.13845177181065082550048828125" lon="-1.52364232577383518218994140625">
        <ele>463.399993896484375</ele>
        <time>2020-02-22T09:55:05.000Z</time>
      </trkpt>
      <trkpt lat="38.13835185952484607696533203125" lon="-1.5236756019294261932373046875">
        <ele>464.20001220703125</ele>
        <time>2020-02-22T09:55:07.000Z</time>
      </trkpt>
      <trkpt lat="38.13825018703937530517578125" lon="-1.52371256612241268157958984375">
        <ele>465.399993896484375</ele>
        <time>2020-02-22T09:55:09.000Z</time>
      </trkpt>
      <trkpt lat="38.13809386454522609710693359375" lon="-1.523772664368152618408203125">
        <ele>466.399993896484375</ele>
        <time>2020-02-22T09:55:12.000Z</time>
      </trkpt>
      <trkpt lat="38.1379167549312114715576171875" lon="-1.5238273143768310546875">
        <ele>467.600006103515625</ele>
        <time>2020-02-22T09:55:15.000Z</time>
      </trkpt>
      <trkpt lat="38.1375784613192081451416015625" lon="-1.52392630465328693389892578125">
        <ele>468.399993896484375</ele>
        <time>2020-02-22T09:55:20.000Z</time>
      </trkpt>
      <trkpt lat="38.13743705861270427703857421875" lon="-1.52396318502724170684814453125">
        <ele>468.399993896484375</ele>
        <time>2020-02-22T09:55:22.000Z</time>
      </trkpt>
      <trkpt lat="38.13721477054059505462646484375" lon="-1.52402889914810657501220703125">
        <ele>468.399993896484375</ele>
        <time>2020-02-22T09:55:25.000Z</time>
      </trkpt>
      <trkpt lat="38.13688762485980987548828125" lon="-1.5241201780736446380615234375">
        <ele>467.600006103515625</ele>
        <time>2020-02-22T09:55:29.000Z</time>
      </trkpt>
      <trkpt lat="38.136625774204730987548828125" lon="-1.5241835452616214752197265625">
        <ele>466.399993896484375</ele>
        <time>2020-02-22T09:55:32.000Z</time>
      </trkpt>
      <trkpt lat="38.1363733112812042236328125" lon="-1.5242524445056915283203125">
        <ele>464.79998779296875</ele>
        <time>2020-02-22T09:55:35.000Z</time>
      </trkpt>
      <trkpt lat="38.13621229492127895355224609375" lon="-1.5243012271821498870849609375">
        <ele>464.20001220703125</ele>
        <time>2020-02-22T09:55:37.000Z</time>
      </trkpt>
      <trkpt lat="38.1361320801079273223876953125" lon="-1.524327211081981658935546875">
        <ele>463.79998779296875</ele>
        <time>2020-02-22T09:55:38.000Z</time>
      </trkpt>
      <trkpt lat="38.1358232907950878143310546875" lon="-1.5244259499013423919677734375">
        <ele>463</ele>
        <time>2020-02-22T09:55:42.000Z</time>
      </trkpt>
      <trkpt lat="38.13575045205652713775634765625" lon="-1.52445293962955474853515625">
        <ele>462.600006103515625</ele>
        <time>2020-02-22T09:55:43.000Z</time>
      </trkpt>
      <trkpt lat="38.13527989201247692108154296875" lon="-1.52458009310066699981689453125">
        <ele>462.20001220703125</ele>
        <time>2020-02-22T09:55:49.000Z</time>
      </trkpt>
      <trkpt lat="38.13480396755039691925048828125" lon="-1.5247240103781223297119140625">
        <ele>462</ele>
        <time>2020-02-22T09:55:55.000Z</time>
      </trkpt>
      <trkpt lat="38.134258054196834564208984375" lon="-1.52488720603287220001220703125">
        <ele>462</ele>
        <time>2020-02-22T09:56:01.000Z</time>
      </trkpt>
      <trkpt lat="38.1341683678328990936279296875" lon="-1.52491436339914798736572265625">
        <ele>461.399993896484375</ele>
        <time>2020-02-22T09:56:02.000Z</time>
      </trkpt>
      <trkpt lat="38.1339893303811550140380859375" lon="-1.52496113441884517669677734375">
        <ele>460.399993896484375</ele>
        <time>2020-02-22T09:56:04.000Z</time>
      </trkpt>
      <trkpt lat="38.1336711533367633819580078125" lon="-1.52505216188728809356689453125">
        <ele>459.600006103515625</ele>
        <time>2020-02-22T09:56:08.000Z</time>
      </trkpt>
      <trkpt lat="38.1334605999290943145751953125" lon="-1.52511544525623321533203125">
        <ele>459.600006103515625</ele>
        <time>2020-02-22T09:56:11.000Z</time>
      </trkpt>
      <trkpt lat="38.133194558322429656982421875" lon="-1.52519850991666316986083984375">
        <ele>459.600006103515625</ele>
        <time>2020-02-22T09:56:15.000Z</time>
      </trkpt>
      <trkpt lat="38.1331270001828670501708984375" lon="-1.525218375027179718017578125">
        <ele>459.600006103515625</ele>
        <time>2020-02-22T09:56:16.000Z</time>
      </trkpt>
      <trkpt lat="38.1328453682363033294677734375" lon="-1.52529976330697536468505859375">
        <ele>461.399993896484375</ele>
        <time>2020-02-22T09:56:20.000Z</time>
      </trkpt>
      <trkpt lat="38.13277789391577243804931640625" lon="-1.52531719766557216644287109375">
        <ele>461.600006103515625</ele>
        <time>2020-02-22T09:56:21.000Z</time>
      </trkpt>
      <trkpt lat="38.132574297487735748291015625" lon="-1.525368578732013702392578125">
        <ele>462.399993896484375</ele>
        <time>2020-02-22T09:56:24.000Z</time>
      </trkpt>
      <trkpt lat="38.13200332224369049072265625" lon="-1.525531522929668426513671875">
        <ele>462.600006103515625</ele>
        <time>2020-02-22T09:56:32.000Z</time>
      </trkpt>
      <trkpt lat="38.13192646019160747528076171875" lon="-1.52555339969694614410400390625">
        <ele>462.600006103515625</ele>
        <time>2020-02-22T09:56:33.000Z</time>
      </trkpt>
      <trkpt lat="38.13135556876659393310546875" lon="-1.52572371996939182281494140625">
        <ele>462.20001220703125</ele>
        <time>2020-02-22T09:56:40.000Z</time>
      </trkpt>
      <trkpt lat="38.1311287544667720794677734375" lon="-1.5257925353944301605224609375">
        <ele>461.79998779296875</ele>
        <time>2020-02-22T09:56:43.000Z</time>
      </trkpt>
      <trkpt lat="38.1309047900140285491943359375" lon="-1.5258590877056121826171875">
        <ele>461.399993896484375</ele>
        <time>2020-02-22T09:56:46.000Z</time>
      </trkpt>
      <trkpt lat="38.13035736791789531707763671875" lon="-1.5260208584368228912353515625">
        <ele>461.20001220703125</ele>
        <time>2020-02-22T09:56:53.000Z</time>
      </trkpt>
      <trkpt lat="38.13020364381372928619384765625" lon="-1.5260667912662029266357421875">
        <ele>461.20001220703125</ele>
        <time>2020-02-22T09:56:55.000Z</time>
      </trkpt>
      <trkpt lat="38.12968580983579158782958984375" lon="-1.52622613124549388885498046875">
        <ele>461.600006103515625</ele>
        <time>2020-02-22T09:57:02.000Z</time>
      </trkpt>
      <trkpt lat="38.12934902496635913848876953125" lon="-1.52632151730358600616455078125">
        <ele>461.79998779296875</ele>
        <time>2020-02-22T09:57:07.000Z</time>
      </trkpt>
      <trkpt lat="38.12913998030126094818115234375" lon="-1.526381783187389373779296875">
        <ele>462.20001220703125</ele>
        <time>2020-02-22T09:57:10.000Z</time>
      </trkpt>
      <trkpt lat="38.12907175160944461822509765625" lon="-1.52640081010758876800537109375">
        <ele>462.79998779296875</ele>
        <time>2020-02-22T09:57:11.000Z</time>
      </trkpt>
      <trkpt lat="38.12887628562748432159423828125" lon="-1.52645747177302837371826171875">
        <ele>463.600006103515625</ele>
        <time>2020-02-22T09:57:14.000Z</time>
      </trkpt>
      <trkpt lat="38.12881191261112689971923828125" lon="-1.52647624723613262176513671875">
        <ele>464</ele>
        <time>2020-02-22T09:57:15.000Z</time>
      </trkpt>
      <trkpt lat="38.1286225654184818267822265625" lon="-1.5265350043773651123046875">
        <ele>464.600006103515625</ele>
        <time>2020-02-22T09:57:18.000Z</time>
      </trkpt>
      <trkpt lat="38.1285578571259975433349609375" lon="-1.52655034326016902923583984375">
        <ele>465</ele>
        <time>2020-02-22T09:57:19.000Z</time>
      </trkpt>
      <trkpt lat="38.12830246053636074066162109375" lon="-1.526615805923938751220703125">
        <ele>466.399993896484375</ele>
        <time>2020-02-22T09:57:23.000Z</time>
      </trkpt>
      <trkpt lat="38.1280536018311977386474609375" lon="-1.52668747119605541229248046875">
        <ele>467.600006103515625</ele>
        <time>2020-02-22T09:57:27.000Z</time>
      </trkpt>
      <trkpt lat="38.12798864208161830902099609375" lon="-1.52670465409755706787109375">
        <ele>468</ele>
        <time>2020-02-22T09:57:28.000Z</time>
      </trkpt>
      <trkpt lat="38.12785302288830280303955078125" lon="-1.52674027718603610992431640625">
        <ele>468.600006103515625</ele>
        <time>2020-02-22T09:57:30.000Z</time>
      </trkpt>
      <trkpt lat="38.12747734598815441131591796875" lon="-1.526846475899219512939453125">
        <ele>469.20001220703125</ele>
        <time>2020-02-22T09:57:35.000Z</time>
      </trkpt>
      <trkpt lat="38.12690201215445995330810546875" lon="-1.52701637707650661468505859375">
        <ele>469</ele>
        <time>2020-02-22T09:57:42.000Z</time>
      </trkpt>
      <trkpt lat="38.12681886367499828338623046875" lon="-1.5270431153476238250732421875">
        <ele>468.79998779296875</ele>
        <time>2020-02-22T09:57:43.000Z</time>
      </trkpt>
      <trkpt lat="38.12626540660858154296875" lon="-1.52719994075596332550048828125">
        <ele>468.399993896484375</ele>
        <time>2020-02-22T09:57:50.000Z</time>
      </trkpt>
      <trkpt lat="38.1257985346019268035888671875" lon="-1.52735718525946140289306640625">
        <ele>468.600006103515625</ele>
        <time>2020-02-22T09:57:57.000Z</time>
      </trkpt>
      <trkpt lat="38.12557297758758068084716796875" lon="-1.52747578918933868408203125">
        <ele>469.79998779296875</ele>
        <time>2020-02-22T09:58:01.000Z</time>
      </trkpt>
      <trkpt lat="38.1254079379141330718994140625" lon="-1.5275751985609531402587890625">
        <ele>470.399993896484375</ele>
        <time>2020-02-22T09:58:04.000Z</time>
      </trkpt>
      <trkpt lat="38.12529151327908039093017578125" lon="-1.52764602564275264739990234375">
        <ele>471.20001220703125</ele>
        <time>2020-02-22T09:58:06.000Z</time>
      </trkpt>
      <trkpt lat="38.125077523291110992431640625" lon="-1.5277713350951671600341796875">
        <ele>472.399993896484375</ele>
        <time>2020-02-22T09:58:10.000Z</time>
      </trkpt>
      <trkpt lat="38.1250300817191600799560546875" lon="-1.5278018452227115631103515625">
        <ele>472.600006103515625</ele>
        <time>2020-02-22T09:58:11.000Z</time>
      </trkpt>
      <trkpt lat="38.12493838369846343994140625" lon="-1.5278638713061809539794921875">
        <ele>473.399993896484375</ele>
        <time>2020-02-22T09:58:13.000Z</time>
      </trkpt>
      <trkpt lat="38.1247977353632450103759765625" lon="-1.52795095928013324737548828125">
        <ele>474.600006103515625</ele>
        <time>2020-02-22T09:58:16.000Z</time>
      </trkpt>
      <trkpt lat="38.1246445141732692718505859375" lon="-1.52804148383438587188720703125">
        <ele>476</ele>
        <time>2020-02-22T09:58:19.000Z</time>
      </trkpt>
      <trkpt lat="38.12459028325974941253662109375" lon="-1.5280727483332157135009765625">
        <ele>476.399993896484375</ele>
        <time>2020-02-22T09:58:20.000Z</time>
      </trkpt>
      <trkpt lat="38.12417403794825077056884765625" lon="-1.52832965366542339324951171875">
        <ele>477</ele>
        <time>2020-02-22T09:58:27.000Z</time>
      </trkpt>
      <trkpt lat="38.123660646378993988037109375" lon="-1.528628133237361907958984375">
        <ele>476.79998779296875</ele>
        <time>2020-02-22T09:58:35.000Z</time>
      </trkpt>
      <trkpt lat="38.1235991232097148895263671875" lon="-1.52866576798260211944580078125">
        <ele>476.79998779296875</ele>
        <time>2020-02-22T09:58:36.000Z</time>
      </trkpt>
      <trkpt lat="38.123187907040119171142578125" lon="-1.52889861725270748138427734375">
        <ele>476.399993896484375</ele>
        <time>2020-02-22T09:58:42.000Z</time>
      </trkpt>
      <trkpt lat="38.1230395473539829254150390625" lon="-1.52898344211280345916748046875">
        <ele>476.399993896484375</ele>
        <time>2020-02-22T09:58:44.000Z</time>
      </trkpt>
      <trkpt lat="38.1225124932825565338134765625" lon="-1.52928452007472515106201171875">
        <ele>475</ele>
        <time>2020-02-22T09:58:51.000Z</time>
      </trkpt>
      <trkpt lat="38.12228760682046413421630859375" lon="-1.5294138528406620025634765625">
        <ele>474.20001220703125</ele>
        <time>2020-02-22T09:58:54.000Z</time>
      </trkpt>
      <trkpt lat="38.12213907949626445770263671875" lon="-1.52950312010943889617919921875">
        <ele>473.79998779296875</ele>
        <time>2020-02-22T09:58:56.000Z</time>
      </trkpt>
      <trkpt lat="38.12192098237574100494384765625" lon="-1.52963924221694469451904296875">
        <ele>473.600006103515625</ele>
        <time>2020-02-22T09:58:59.000Z</time>
      </trkpt>
      <trkpt lat="38.12147607095539569854736328125" lon="-1.52989514172077178955078125">
        <ele>473.20001220703125</ele>
        <time>2020-02-22T09:59:05.000Z</time>
      </trkpt>
      <trkpt lat="38.12125059776008129119873046875" lon="-1.5300297550857067108154296875">
        <ele>472.79998779296875</ele>
        <time>2020-02-22T09:59:08.000Z</time>
      </trkpt>
      <trkpt lat="38.1207519583404064178466796875" lon="-1.5303241275250911712646484375">
        <ele>472.399993896484375</ele>
        <time>2020-02-22T09:59:15.000Z</time>
      </trkpt>
      <trkpt lat="38.12042632140219211578369140625" lon="-1.53050878085196018218994140625">
        <ele>472.399993896484375</ele>
        <time>2020-02-22T09:59:20.000Z</time>
      </trkpt>
      <trkpt lat="38.12017704360187053680419921875" lon="-1.530649177730083465576171875">
        <ele>473.399993896484375</ele>
        <time>2020-02-22T09:59:24.000Z</time>
      </trkpt>
      <trkpt lat="38.1200565956532955169677734375" lon="-1.53071723878383636474609375">
        <ele>474.20001220703125</ele>
        <time>2020-02-22T09:59:26.000Z</time>
      </trkpt>
      <trkpt lat="38.1198026239871978759765625" lon="-1.53087138198316097259521484375">
        <ele>475.20001220703125</ele>
        <time>2020-02-22T09:59:30.000Z</time>
      </trkpt>
      <trkpt lat="38.11965350992977619171142578125" lon="-1.53096266090869903564453125">
        <ele>475.600006103515625</ele>
        <time>2020-02-22T09:59:32.000Z</time>
      </trkpt>
      <trkpt lat="38.1192200817167758941650390625" lon="-1.531219817698001861572265625">
        <ele>475.600006103515625</ele>
        <time>2020-02-22T09:59:37.000Z</time>
      </trkpt>
      <trkpt lat="38.11871859245002269744873046875" lon="-1.53150673024356365203857421875">
        <ele>474.20001220703125</ele>
        <time>2020-02-22T09:59:42.000Z</time>
      </trkpt>
      <trkpt lat="38.1186128966510295867919921875" lon="-1.53156825341284275054931640625">
        <ele>473.399993896484375</ele>
        <time>2020-02-22T09:59:43.000Z</time>
      </trkpt>
      <trkpt lat="38.11850753612816333770751953125" lon="-1.53163044713437557220458984375">
        <ele>472.79998779296875</ele>
        <time>2020-02-22T09:59:44.000Z</time>
      </trkpt>
      <trkpt lat="38.11829513870179653167724609375" lon="-1.53175751678645610809326171875">
        <ele>471.20001220703125</ele>
        <time>2020-02-22T09:59:46.000Z</time>
      </trkpt>
      <trkpt lat="38.11808508820831775665283203125" lon="-1.53188291005790233612060546875">
        <ele>469.79998779296875</ele>
        <time>2020-02-22T09:59:48.000Z</time>
      </trkpt>
      <trkpt lat="38.11788685619831085205078125" lon="-1.53200210072100162506103515625">
        <ele>468.20001220703125</ele>
        <time>2020-02-22T09:59:50.000Z</time>
      </trkpt>
      <trkpt lat="38.11779138632118701934814453125" lon="-1.53205758891999721527099609375">
        <ele>467.399993896484375</ele>
        <time>2020-02-22T09:59:51.000Z</time>
      </trkpt>
      <trkpt lat="38.11769885011017322540283203125" lon="-1.53211274184286594390869140625">
        <ele>466.600006103515625</ele>
        <time>2020-02-22T09:59:52.000Z</time>
      </trkpt>
      <trkpt lat="38.11751679517328739166259765625" lon="-1.53221919201314449310302734375">
        <ele>464.79998779296875</ele>
        <time>2020-02-22T09:59:54.000Z</time>
      </trkpt>
      <trkpt lat="38.11708328314125537872314453125" lon="-1.53246779926121234893798828125">
        <ele>464</ele>
        <time>2020-02-22T09:59:59.000Z</time>
      </trkpt>
      <trkpt lat="38.1165258027613162994384765625" lon="-1.53279067017138004302978515625">
        <ele>464.399993896484375</ele>
        <time>2020-02-22T10:00:06.000Z</time>
      </trkpt>
      <trkpt lat="38.11645346693694591522216796875" lon="-1.5328316576778888702392578125">
        <ele>464.600006103515625</ele>
        <time>2020-02-22T10:00:07.000Z</time>
      </trkpt>
      <trkpt lat="38.1160805560648441314697265625" lon="-1.5330435521900653839111328125">
        <ele>465.79998779296875</ele>
        <time>2020-02-22T10:00:13.000Z</time>
      </trkpt>
      <trkpt lat="38.11602481640875339508056640625" lon="-1.533074565231800079345703125">
        <ele>466.20001220703125</ele>
        <time>2020-02-22T10:00:14.000Z</time>
      </trkpt>
      <trkpt lat="38.1158659793436527252197265625" lon="-1.5331763215363025665283203125">
        <ele>467.600006103515625</ele>
        <time>2020-02-22T10:00:17.000Z</time>
      </trkpt>
      <trkpt lat="38.11571250669658184051513671875" lon="-1.53326894156634807586669921875">
        <ele>468.79998779296875</ele>
        <time>2020-02-22T10:00:20.000Z</time>
      </trkpt>
      <trkpt lat="38.1156091578304767608642578125" lon="-1.533321999013423919677734375">
        <ele>469.79998779296875</ele>
        <time>2020-02-22T10:00:22.000Z</time>
      </trkpt>
      <trkpt lat="38.11555861495435237884521484375" lon="-1.53334915637969970703125">
        <ele>470.399993896484375</ele>
        <time>2020-02-22T10:00:23.000Z</time>
      </trkpt>
      <trkpt lat="38.11545752920210361480712890625" lon="-1.53338603675365447998046875">
        <ele>471</ele>
        <time>2020-02-22T10:00:25.000Z</time>
      </trkpt>
      <trkpt lat="38.1153603829443454742431640625" lon="-1.53332836925983428955078125">
        <ele>471.600006103515625</ele>
        <time>2020-02-22T10:00:27.000Z</time>
      </trkpt>
      <trkpt lat="38.11522685922682285308837890625" lon="-1.53313449583947658538818359375">
        <ele>472.79998779296875</ele>
        <time>2020-02-22T10:00:30.000Z</time>
      </trkpt>
      <trkpt lat="38.115182854235172271728515625" lon="-1.53306894935667514801025390625">
        <ele>473.20001220703125</ele>
        <time>2020-02-22T10:00:31.000Z</time>
      </trkpt>
      <trkpt lat="38.11504463665187358856201171875" lon="-1.53287515975534915924072265625">
        <ele>473.79998779296875</ele>
        <time>2020-02-22T10:00:34.000Z</time>
      </trkpt>
      <trkpt lat="38.1148041598498821258544921875" lon="-1.53254893608391284942626953125">
        <ele>474.20001220703125</ele>
        <time>2020-02-22T10:00:39.000Z</time>
      </trkpt>
      <trkpt lat="38.114482462406158447265625" lon="-1.53210251592099666595458984375">
        <ele>474.600006103515625</ele>
        <time>2020-02-22T10:00:46.000Z</time>
      </trkpt>
      <trkpt lat="38.1143398024141788482666015625" lon="-1.53190235607326030731201171875">
        <ele>475</ele>
        <time>2020-02-22T10:00:49.000Z</time>
      </trkpt>
      <trkpt lat="38.11405758373439311981201171875" lon="-1.53150404803454875946044921875">
        <ele>476</ele>
        <time>2020-02-22T10:00:55.000Z</time>
      </trkpt>
      <trkpt lat="38.11396420933306217193603515625" lon="-1.53137614019215106964111328125">
        <ele>476.79998779296875</ele>
        <time>2020-02-22T10:00:57.000Z</time>
      </trkpt>
      <trkpt lat="38.1137842498719692230224609375" lon="-1.531125269830226898193359375">
        <ele>477.20001220703125</ele>
        <time>2020-02-22T10:01:01.000Z</time>
      </trkpt>
      <trkpt lat="38.11351896263659000396728515625" lon="-1.5307594835758209228515625">
        <ele>477.20001220703125</ele>
        <time>2020-02-22T10:01:07.000Z</time>
      </trkpt>
      <trkpt lat="38.11311579309403896331787109375" lon="-1.53020719997584819793701171875">
        <ele>477.79998779296875</ele>
        <time>2020-02-22T10:01:16.000Z</time>
      </trkpt>
      <trkpt lat="38.11302057467401027679443359375" lon="-1.53009454719722270965576171875">
        <ele>478</ele>
        <time>2020-02-22T10:01:18.000Z</time>
      </trkpt>
      <trkpt lat="38.112974055111408233642578125" lon="-1.53004056774079799652099609375">
        <ele>478.20001220703125</ele>
        <time>2020-02-22T10:01:19.000Z</time>
      </trkpt>
      <trkpt lat="38.1126181595027446746826171875" lon="-1.52969137765467166900634765625">
        <ele>478.79998779296875</ele>
        <time>2020-02-22T10:01:26.000Z</time>
      </trkpt>
      <trkpt lat="38.11241246759891510009765625" lon="-1.529491804540157318115234375">
        <ele>479.20001220703125</ele>
        <time>2020-02-22T10:01:30.000Z</time>
      </trkpt>
      <trkpt lat="38.11219126917421817779541015625" lon="-1.52928485535085201263427734375">
        <ele>479.79998779296875</ele>
        <time>2020-02-22T10:01:34.000Z</time>
      </trkpt>
      <trkpt lat="38.1117658875882625579833984375" lon="-1.52889677323400974273681640625">
        <ele>480.399993896484375</ele>
        <time>2020-02-22T10:01:42.000Z</time>
      </trkpt>
      <trkpt lat="38.1116621196269989013671875" lon="-1.52880473993718624114990234375">
        <ele>480.399993896484375</ele>
        <time>2020-02-22T10:01:44.000Z</time>
      </trkpt>
      <trkpt lat="38.111368082463741302490234375" lon="-1.52853232808411121368408203125">
        <ele>481.20001220703125</ele>
        <time>2020-02-22T10:01:50.000Z</time>
      </trkpt>
      <trkpt lat="38.11131804250180721282958984375" lon="-1.52848321013152599334716796875">
        <ele>481.600006103515625</ele>
        <time>2020-02-22T10:01:51.000Z</time>
      </trkpt>
      <trkpt lat="38.1110172159969806671142578125" lon="-1.528158746659755706787109375">
        <ele>482.600006103515625</ele>
        <time>2020-02-22T10:01:57.000Z</time>
      </trkpt>
      <trkpt lat="38.11096667312085628509521484375" lon="-1.52810669504106044769287109375">
        <ele>482.79998779296875</ele>
        <time>2020-02-22T10:01:58.000Z</time>
      </trkpt>
      <trkpt lat="38.11061647720634937286376953125" lon="-1.52772917412221431732177734375">
        <ele>483.600006103515625</ele>
        <time>2020-02-22T10:02:05.000Z</time>
      </trkpt>
      <trkpt lat="38.1103037483990192413330078125" lon="-1.52737948112189769744873046875">
        <ele>484.399993896484375</ele>
        <time>2020-02-22T10:02:12.000Z</time>
      </trkpt>
      <trkpt lat="38.11021565459668636322021484375" lon="-1.5272778086364269256591796875">
        <ele>484.79998779296875</ele>
        <time>2020-02-22T10:02:14.000Z</time>
      </trkpt>
      <trkpt lat="38.1099443323910236358642578125" lon="-1.52696885168552398681640625">
        <ele>486</ele>
        <time>2020-02-22T10:02:20.000Z</time>
      </trkpt>
      <trkpt lat="38.1098108924925327301025390625" lon="-1.52682241983711719512939453125">
        <ele>486.20001220703125</ele>
        <time>2020-02-22T10:02:23.000Z</time>
      </trkpt>
      <trkpt lat="38.10963931493461132049560546875" lon="-1.5266340784728527069091796875">
        <ele>487.20001220703125</ele>
        <time>2020-02-22T10:02:27.000Z</time>
      </trkpt>
      <trkpt lat="38.1094571761786937713623046875" lon="-1.52643299661576747894287109375">
        <ele>488.399993896484375</ele>
        <time>2020-02-22T10:02:31.000Z</time>
      </trkpt>
      <trkpt lat="38.10914914123713970184326171875" lon="-1.52608263306319713592529296875">
        <ele>489.600006103515625</ele>
        <time>2020-02-22T10:02:38.000Z</time>
      </trkpt>
      <trkpt lat="38.10901754535734653472900390625" lon="-1.52593326754868030548095703125">
        <ele>489.79998779296875</ele>
        <time>2020-02-22T10:02:41.000Z</time>
      </trkpt>
      <trkpt lat="38.10870238579809665679931640625" lon="-1.525579132139682769775390625">
        <ele>490.600006103515625</ele>
        <time>2020-02-22T10:02:48.000Z</time>
      </trkpt>
      <trkpt lat="38.1085526011884212493896484375" lon="-1.52542649768292903900146484375">
        <ele>491</ele>
        <time>2020-02-22T10:02:51.000Z</time>
      </trkpt>
      <trkpt lat="38.10835705138742923736572265625" lon="-1.52521410025656223297119140625">
        <ele>491.600006103515625</ele>
        <time>2020-02-22T10:02:55.000Z</time>
      </trkpt>
      <trkpt lat="38.1081187538802623748779296875" lon="-1.52494856156408786773681640625">
        <ele>492.399993896484375</ele>
        <time>2020-02-22T10:03:00.000Z</time>
      </trkpt>
      <trkpt lat="38.10796930454671382904052734375" lon="-1.52479031123220920562744140625">
        <ele>492.79998779296875</ele>
        <time>2020-02-22T10:03:03.000Z</time>
      </trkpt>
      <trkpt lat="38.10774542391300201416015625" lon="-1.52460440061986446380615234375">
        <ele>493.399993896484375</ele>
        <time>2020-02-22T10:03:07.000Z</time>
      </trkpt>
      <trkpt lat="38.10741006396710872650146484375" lon="-1.5243498422205448150634765625">
        <ele>493.79998779296875</ele>
        <time>2020-02-22T10:03:13.000Z</time>
      </trkpt>
      <trkpt lat="38.10712541453540325164794921875" lon="-1.524164266884326934814453125">
        <ele>494.20001220703125</ele>
        <time>2020-02-22T10:03:18.000Z</time>
      </trkpt>
      <trkpt lat="38.10665887780487537384033203125" lon="-1.52383896522223949432373046875">
        <ele>494.79998779296875</ele>
        <time>2020-02-22T10:03:26.000Z</time>
      </trkpt>
      <trkpt lat="38.10659802518784999847412109375" lon="-1.52379420585930347442626953125">
        <ele>494.79998779296875</ele>
        <time>2020-02-22T10:03:27.000Z</time>
      </trkpt>
      <trkpt lat="38.106081783771514892578125" lon="-1.52341090142726898193359375">
        <ele>495.399993896484375</ele>
        <time>2020-02-22T10:03:36.000Z</time>
      </trkpt>
      <trkpt lat="38.10602654702961444854736328125" lon="-1.52336488477885723114013671875">
        <ele>495.600006103515625</ele>
        <time>2020-02-22T10:03:37.000Z</time>
      </trkpt>
      <trkpt lat="38.105792105197906494140625" lon="-1.52320445515215396881103515625">
        <ele>496</ele>
        <time>2020-02-22T10:03:41.000Z</time>
      </trkpt>
      <trkpt lat="38.10561851598322391510009765625" lon="-1.52308794669806957244873046875">
        <ele>496.20001220703125</ele>
        <time>2020-02-22T10:03:44.000Z</time>
      </trkpt>
      <trkpt lat="38.10520746745169162750244140625" lon="-1.5227921493351459503173828125">
        <ele>496.79998779296875</ele>
        <time>2020-02-22T10:03:51.000Z</time>
      </trkpt>
      <trkpt lat="38.1051497161388397216796875" lon="-1.5227512456476688385009765625">
        <ele>497</ele>
        <time>2020-02-22T10:03:52.000Z</time>
      </trkpt>
      <trkpt lat="38.10509213246405124664306640625" lon="-1.52270807884633541107177734375">
        <ele>497.20001220703125</ele>
        <time>2020-02-22T10:03:53.000Z</time>
      </trkpt>
      <trkpt lat="38.104802034795284271240234375" lon="-1.52249467559158802032470703125">
        <ele>498</ele>
        <time>2020-02-22T10:03:58.000Z</time>
      </trkpt>
      <trkpt lat="38.1045219115912914276123046875" lon="-1.5222681127488613128662109375">
        <ele>498.79998779296875</ele>
        <time>2020-02-22T10:04:03.000Z</time>
      </trkpt>
      <trkpt lat="38.10441856272518634796142578125" lon="-1.52217197231948375701904296875">
        <ele>499.20001220703125</ele>
        <time>2020-02-22T10:04:05.000Z</time>
      </trkpt>
      <trkpt lat="38.10398496687412261962890625" lon="-1.5217890031635761260986328125">
        <ele>500.20001220703125</ele>
        <time>2020-02-22T10:04:13.000Z</time>
      </trkpt>
      <trkpt lat="38.1039298139512538909912109375" lon="-1.52174198068678379058837890625">
        <ele>500.399993896484375</ele>
        <time>2020-02-22T10:04:14.000Z</time>
      </trkpt>
      <trkpt lat="38.103491105139255523681640625" lon="-1.5213824808597564697265625">
        <ele>501.399993896484375</ele>
        <time>2020-02-22T10:04:22.000Z</time>
      </trkpt>
      <trkpt lat="38.10310293920338153839111328125" lon="-1.5210671536624431610107421875">
        <ele>502.600006103515625</ele>
        <time>2020-02-22T10:04:29.000Z</time>
      </trkpt>
      <trkpt lat="38.10298911295831203460693359375" lon="-1.5209715999662876129150390625">
        <ele>503</ele>
        <time>2020-02-22T10:04:31.000Z</time>
      </trkpt>
      <trkpt lat="38.1028096564114093780517578125" lon="-1.52083355002105236053466796875">
        <ele>503.600006103515625</ele>
        <time>2020-02-22T10:04:34.000Z</time>
      </trkpt>
      <trkpt lat="38.10241344384849071502685546875" lon="-1.52049374766647815704345703125">
        <ele>504.600006103515625</ele>
        <time>2020-02-22T10:04:41.000Z</time>
      </trkpt>
      <trkpt lat="38.10196534730494022369384765625" lon="-1.52008538134396076202392578125">
        <ele>505.399993896484375</ele>
        <time>2020-02-22T10:04:49.000Z</time>
      </trkpt>
      <trkpt lat="38.10155044309794902801513671875" lon="-1.51964415796101093292236328125">
        <ele>505.600006103515625</ele>
        <time>2020-02-22T10:04:56.000Z</time>
      </trkpt>
      <trkpt lat="38.10111341066658496856689453125" lon="-1.51914727874100208282470703125">
        <ele>505.600006103515625</ele>
        <time>2020-02-22T10:05:03.000Z</time>
      </trkpt>
      <trkpt lat="38.10092498548328876495361328125" lon="-1.51894443668425083160400390625">
        <ele>505.20001220703125</ele>
        <time>2020-02-22T10:05:06.000Z</time>
      </trkpt>
      <trkpt lat="38.1004818342626094818115234375" lon="-1.51846197433769702911376953125">
        <ele>504.20001220703125</ele>
        <time>2020-02-22T10:05:13.000Z</time>
      </trkpt>
      <trkpt lat="38.100358955562114715576171875" lon="-1.5183188952505588531494140625">
        <ele>504</ele>
        <time>2020-02-22T10:05:15.000Z</time>
      </trkpt>
      <trkpt lat="38.09998403303325176239013671875" lon="-1.51787892915308475494384765625">
        <ele>503.79998779296875</ele>
        <time>2020-02-22T10:05:21.000Z</time>
      </trkpt>
      <trkpt lat="38.09979493729770183563232421875" lon="-1.51766066439449787139892578125">
        <ele>503.600006103515625</ele>
        <time>2020-02-22T10:05:24.000Z</time>
      </trkpt>
      <trkpt lat="38.09937131591141223907470703125" lon="-1.5172009170055389404296875">
        <ele>503.600006103515625</ele>
        <time>2020-02-22T10:05:31.000Z</time>
      </trkpt>
      <trkpt lat="38.099245838820934295654296875" lon="-1.51708750985562801361083984375">
        <ele>503.600006103515625</ele>
        <time>2020-02-22T10:05:33.000Z</time>
      </trkpt>
      <trkpt lat="38.09877402149140834808349609375" lon="-1.5167132578790187835693359375">
        <ele>504</ele>
        <time>2020-02-22T10:05:40.000Z</time>
      </trkpt>
      <trkpt lat="38.09870160184800624847412109375" lon="-1.51665366254746913909912109375">
        <ele>504</ele>
        <time>2020-02-22T10:05:41.000Z</time>
      </trkpt>
      <trkpt lat="38.09833983890712261199951171875" lon="-1.51635861955583095550537109375">
        <ele>504.20001220703125</ele>
        <time>2020-02-22T10:05:46.000Z</time>
      </trkpt>
      <trkpt lat="38.09806130826473236083984375" lon="-1.5161396004259586334228515625">
        <ele>504.20001220703125</ele>
        <time>2020-02-22T10:05:50.000Z</time>
      </trkpt>
      <trkpt lat="38.09757792390882968902587890625" lon="-1.5157449804246425628662109375">
        <ele>504.20001220703125</ele>
        <time>2020-02-22T10:05:57.000Z</time>
      </trkpt>
      <trkpt lat="38.09743207879364490509033203125" lon="-1.5156229399144649505615234375">
        <ele>504.20001220703125</ele>
        <time>2020-02-22T10:05:59.000Z</time>
      </trkpt>
      <trkpt lat="38.09695514850318431854248046875" lon="-1.51522169820964336395263671875">
        <ele>504</ele>
        <time>2020-02-22T10:06:05.000Z</time>
      </trkpt>
      <trkpt lat="38.0968779511749744415283203125" lon="-1.5151532180607318878173828125">
        <ele>504</ele>
        <time>2020-02-22T10:06:06.000Z</time>
      </trkpt>
      <trkpt lat="38.0964229814708232879638671875" lon="-1.514702104032039642333984375">
        <ele>502.79998779296875</ele>
        <time>2020-02-22T10:06:12.000Z</time>
      </trkpt>
      <trkpt lat="38.096350729465484619140625" lon="-1.5146275050938129425048828125">
        <ele>502.79998779296875</ele>
        <time>2020-02-22T10:06:13.000Z</time>
      </trkpt>
      <trkpt lat="38.09627990238368511199951171875" lon="-1.51455156505107879638671875">
        <ele>502.600006103515625</ele>
        <time>2020-02-22T10:06:14.000Z</time>
      </trkpt>
      <trkpt lat="38.09586348943412303924560546875" lon="-1.514099277555942535400390625">
        <ele>501.79998779296875</ele>
        <time>2020-02-22T10:06:20.000Z</time>
      </trkpt>
      <trkpt lat="38.09579509310424327850341796875" lon="-1.51402694173157215118408203125">
        <ele>501.79998779296875</ele>
        <time>2020-02-22T10:06:21.000Z</time>
      </trkpt>
      <trkpt lat="38.0955854617059230804443359375" lon="-1.51380582712590694427490234375">
        <ele>501.399993896484375</ele>
        <time>2020-02-22T10:06:24.000Z</time>
      </trkpt>
      <trkpt lat="38.09514717198908329010009765625" lon="-1.51334566064178943634033203125">
        <ele>501</ele>
        <time>2020-02-22T10:06:30.000Z</time>
      </trkpt>
      <trkpt lat="38.09507290832698345184326171875" lon="-1.51326351799070835113525390625">
        <ele>500.600006103515625</ele>
        <time>2020-02-22T10:06:31.000Z</time>
      </trkpt>
      <trkpt lat="38.09492178261280059814453125" lon="-1.51310476474463939666748046875">
        <ele>500.399993896484375</ele>
        <time>2020-02-22T10:06:33.000Z</time>
      </trkpt>
      <trkpt lat="38.0945648811757564544677734375" lon="-1.51272757910192012786865234375">
        <ele>500.20001220703125</ele>
        <time>2020-02-22T10:06:38.000Z</time>
      </trkpt>
      <trkpt lat="38.09435977600514888763427734375" lon="-1.51250696741044521331787109375">
        <ele>499.600006103515625</ele>
        <time>2020-02-22T10:06:41.000Z</time>
      </trkpt>
      <trkpt lat="38.09428970329463481903076171875" lon="-1.5124314464628696441650390625">
        <ele>499.600006103515625</ele>
        <time>2020-02-22T10:06:42.000Z</time>
      </trkpt>
      <trkpt lat="38.0938589572906494140625" lon="-1.51197220198810100555419921875">
        <ele>498.79998779296875</ele>
        <time>2020-02-22T10:06:48.000Z</time>
      </trkpt>
      <trkpt lat="38.09378595091402530670166015625" lon="-1.51189391501247882843017578125">
        <ele>498.600006103515625</ele>
        <time>2020-02-22T10:06:49.000Z</time>
      </trkpt>
      <trkpt lat="38.093711100518703460693359375" lon="-1.5118152089416980743408203125">
        <ele>498.20001220703125</ele>
        <time>2020-02-22T10:06:50.000Z</time>
      </trkpt>
      <trkpt lat="38.09339585714042186737060546875" lon="-1.5114873088896274566650390625">
        <ele>497.399993896484375</ele>
        <time>2020-02-22T10:06:54.000Z</time>
      </trkpt>
      <trkpt lat="38.0931583978235721588134765625" lon="-1.51123794727027416229248046875">
        <ele>496.600006103515625</ele>
        <time>2020-02-22T10:06:57.000Z</time>
      </trkpt>
      <trkpt lat="38.0930797755718231201171875" lon="-1.51115496642887592315673828125">
        <ele>496.399993896484375</ele>
        <time>2020-02-22T10:06:58.000Z</time>
      </trkpt>
      <trkpt lat="38.093003332614898681640625" lon="-1.511076427996158599853515625">
        <ele>496</ele>
        <time>2020-02-22T10:06:59.000Z</time>
      </trkpt>
      <trkpt lat="38.09277559630572795867919921875" lon="-1.51085690595209598541259765625">
        <ele>495.399993896484375</ele>
        <time>2020-02-22T10:07:02.000Z</time>
      </trkpt>
      <trkpt lat="38.09269932098686695098876953125" lon="-1.51078616268932819366455078125">
        <ele>495.20001220703125</ele>
        <time>2020-02-22T10:07:03.000Z</time>
      </trkpt>
      <trkpt lat="38.09238298796117305755615234375" lon="-1.5104958973824977874755859375">
        <ele>494</ele>
        <time>2020-02-22T10:07:07.000Z</time>
      </trkpt>
      <trkpt lat="38.09188149869441986083984375" lon="-1.51001972146332263946533203125">
        <ele>493.399993896484375</ele>
        <time>2020-02-22T10:07:13.000Z</time>
      </trkpt>
      <trkpt lat="38.09171117842197418212890625" lon="-1.50985493324697017669677734375">
        <ele>493.20001220703125</ele>
        <time>2020-02-22T10:07:15.000Z</time>
      </trkpt>
      <trkpt lat="38.091625683009624481201171875" lon="-1.50977312587201595306396484375">
        <ele>493</ele>
        <time>2020-02-22T10:07:16.000Z</time>
      </trkpt>
      <trkpt lat="38.09137581847608089447021484375" lon="-1.50953172706067562103271484375">
        <ele>492</ele>
        <time>2020-02-22T10:07:19.000Z</time>
      </trkpt>
      <trkpt lat="38.0911272950470447540283203125" lon="-1.50928831659257411956787109375">
        <ele>491</ele>
        <time>2020-02-22T10:07:22.000Z</time>
      </trkpt>
      <trkpt lat="38.09078807942569255828857421875" lon="-1.5089596621692180633544921875">
        <ele>490</ele>
        <time>2020-02-22T10:07:26.000Z</time>
      </trkpt>
      <trkpt lat="38.0907021649181842803955078125" lon="-1.508873663842678070068359375">
        <ele>489.79998779296875</ele>
        <time>2020-02-22T10:07:27.000Z</time>
      </trkpt>
      <trkpt lat="38.090441487729549407958984375" lon="-1.508618183434009552001953125">
        <ele>488.399993896484375</ele>
        <time>2020-02-22T10:07:30.000Z</time>
      </trkpt>
      <trkpt lat="38.09026739560067653656005859375" lon="-1.50844844989478588104248046875">
        <ele>487.600006103515625</ele>
        <time>2020-02-22T10:07:32.000Z</time>
      </trkpt>
      <trkpt lat="38.09018022380769252777099609375" lon="-1.50836236774921417236328125">
        <ele>487.399993896484375</ele>
        <time>2020-02-22T10:07:33.000Z</time>
      </trkpt>
      <trkpt lat="38.09000537730753421783447265625" lon="-1.5081895329058170318603515625">
        <ele>487</ele>
        <time>2020-02-22T10:07:35.000Z</time>
      </trkpt>
      <trkpt lat="38.08982013724744319915771484375" lon="-1.50802013464272022247314453125">
        <ele>486.20001220703125</ele>
        <time>2020-02-22T10:07:37.000Z</time>
      </trkpt>
      <trkpt lat="38.08963204734027385711669921875" lon="-1.5078453719615936279296875">
        <ele>485.79998779296875</ele>
        <time>2020-02-22T10:07:39.000Z</time>
      </trkpt>
      <trkpt lat="38.08944613672792911529541015625" lon="-1.5076631493866443634033203125">
        <ele>484.79998779296875</ele>
        <time>2020-02-22T10:07:41.000Z</time>
      </trkpt>
      <trkpt lat="38.089352510869503021240234375" lon="-1.50757069699466228485107421875">
        <ele>484.399993896484375</ele>
        <time>2020-02-22T10:07:42.000Z</time>
      </trkpt>
      <trkpt lat="38.08907054364681243896484375" lon="-1.5072982013225555419921875">
        <ele>483.399993896484375</ele>
        <time>2020-02-22T10:07:45.000Z</time>
      </trkpt>
      <trkpt lat="38.088801316916942596435546875" lon="-1.50703492574393749237060546875">
        <ele>481.79998779296875</ele>
        <time>2020-02-22T10:07:48.000Z</time>
      </trkpt>
      <trkpt lat="38.08862932026386260986328125" lon="-1.50686712004244327545166015625">
        <ele>480.79998779296875</ele>
        <time>2020-02-22T10:07:50.000Z</time>
      </trkpt>
      <trkpt lat="38.08846008963882923126220703125" lon="-1.5066973865032196044921875">
        <ele>479.399993896484375</ele>
        <time>2020-02-22T10:07:52.000Z</time>
      </trkpt>
      <trkpt lat="38.08820662088692188262939453125" lon="-1.50645506568253040313720703125">
        <ele>478.600006103515625</ele>
        <time>2020-02-22T10:07:55.000Z</time>
      </trkpt>
      <trkpt lat="38.08812372386455535888671875" lon="-1.5063755214214324951171875">
        <ele>478.20001220703125</ele>
        <time>2020-02-22T10:07:56.000Z</time>
      </trkpt>
      <trkpt lat="38.0878774635493755340576171875" lon="-1.506141833961009979248046875">
        <ele>477.399993896484375</ele>
        <time>2020-02-22T10:07:59.000Z</time>
      </trkpt>
      <trkpt lat="38.08779506944119930267333984375" lon="-1.506066061556339263916015625">
        <ele>477</ele>
        <time>2020-02-22T10:08:00.000Z</time>
      </trkpt>
      <trkpt lat="38.08746214024722576141357421875" lon="-1.505791135132312774658203125">
        <ele>475.79998779296875</ele>
        <time>2020-02-22T10:08:04.000Z</time>
      </trkpt>
      <trkpt lat="38.08727589435875415802001953125" lon="-1.50568543933331966400146484375">
        <ele>475.600006103515625</ele>
        <time>2020-02-22T10:08:06.000Z</time>
      </trkpt>
      <trkpt lat="38.086986802518367767333984375" lon="-1.50558686815202236175537109375">
        <ele>474.79998779296875</ele>
        <time>2020-02-22T10:08:09.000Z</time>
      </trkpt>
      <trkpt lat="38.08689124882221221923828125" lon="-1.5055601298809051513671875">
        <ele>474.600006103515625</ele>
        <time>2020-02-22T10:08:10.000Z</time>
      </trkpt>
      <trkpt lat="38.08659947477281093597412109375" lon="-1.50546818040311336517333984375">
        <ele>473.79998779296875</ele>
        <time>2020-02-22T10:08:13.000Z</time>
      </trkpt>
      <trkpt lat="38.08614199049770832061767578125" lon="-1.50532208383083343505859375">
        <ele>473</ele>
        <time>2020-02-22T10:08:18.000Z</time>
      </trkpt>
      <trkpt lat="38.08607644401490688323974609375" lon="-1.50530196726322174072265625">
        <ele>472.399993896484375</ele>
        <time>2020-02-22T10:08:19.000Z</time>
      </trkpt>
      <trkpt lat="38.085974939167499542236328125" lon="-1.50525008328258991241455078125">
        <ele>471.20001220703125</ele>
        <time>2020-02-22T10:08:21.000Z</time>
      </trkpt>
      <trkpt lat="38.08589003048837184906005859375" lon="-1.50503785349428653717041015625">
        <ele>469.600006103515625</ele>
        <time>2020-02-22T10:08:24.000Z</time>
      </trkpt>
      <trkpt lat="38.08588013984262943267822265625" lon="-1.5048347599804401397705078125">
        <ele>467.79998779296875</ele>
        <time>2020-02-22T10:08:26.000Z</time>
      </trkpt>
      <trkpt lat="38.085872344672679901123046875" lon="-1.50462336838245391845703125">
        <ele>467</ele>
        <time>2020-02-22T10:08:28.000Z</time>
      </trkpt>
      <trkpt lat="38.08586597442626953125" lon="-1.50452278554439544677734375">
        <ele>466.600006103515625</ele>
        <time>2020-02-22T10:08:29.000Z</time>
      </trkpt>
      <trkpt lat="38.08584518730640411376953125" lon="-1.5042299218475818634033203125">
        <ele>465.399993896484375</ele>
        <time>2020-02-22T10:08:32.000Z</time>
      </trkpt>
      <trkpt lat="38.08583370409905910491943359375" lon="-1.504041664302349090576171875">
        <ele>464.79998779296875</ele>
        <time>2020-02-22T10:08:34.000Z</time>
      </trkpt>
      <trkpt lat="38.085825406014919281005859375" lon="-1.50385064072906970977783203125">
        <ele>464.399993896484375</ele>
        <time>2020-02-22T10:08:36.000Z</time>
      </trkpt>
      <trkpt lat="38.08582046069204807281494140625" lon="-1.503753662109375">
        <ele>464.399993896484375</ele>
        <time>2020-02-22T10:08:37.000Z</time>
      </trkpt>
      <trkpt lat="38.0857950635254383087158203125" lon="-1.50318210013210773468017578125">
        <ele>463.399993896484375</ele>
        <time>2020-02-22T10:08:43.000Z</time>
      </trkpt>
      <trkpt lat="38.08580805547535419464111328125" lon="-1.5030886419117450714111328125">
        <ele>463.399993896484375</ele>
        <time>2020-02-22T10:08:44.000Z</time>
      </trkpt>
      <trkpt lat="38.08592028915882110595703125" lon="-1.5028623305261135101318359375">
        <ele>463</ele>
        <time>2020-02-22T10:08:47.000Z</time>
      </trkpt>
      <trkpt lat="38.0859576724469661712646484375" lon="-1.50279544293880462646484375">
        <ele>463</ele>
        <time>2020-02-22T10:08:48.000Z</time>
      </trkpt>
      <trkpt lat="38.085982985794544219970703125" lon="-1.502701900899410247802734375">
        <ele>463</ele>
        <time>2020-02-22T10:08:50.000Z</time>
      </trkpt>
      <trkpt lat="38.0859271623194217681884765625" lon="-1.5026822872459888458251953125">
        <ele>463</ele>
        <time>2020-02-22T10:08:52.000Z</time>
      </trkpt>
      <trkpt lat="38.08588273823261260986328125" lon="-1.5026848018169403076171875">
        <ele>463</ele>
        <time>2020-02-22T10:08:53.000Z</time>
      </trkpt>
      <trkpt lat="38.0857739411294460296630859375" lon="-1.50270449928939342498779296875">
        <ele>462.79998779296875</ele>
        <time>2020-02-22T10:08:55.000Z</time>
      </trkpt>
      <trkpt lat="38.085730187594890594482421875" lon="-1.502715311944484710693359375">
        <ele>462.600006103515625</ele>
        <time>2020-02-22T10:08:56.000Z</time>
      </trkpt>
      <trkpt lat="38.0856022797524929046630859375" lon="-1.50264968164265155792236328125">
        <ele>462.399993896484375</ele>
        <time>2020-02-22T10:08:59.000Z</time>
      </trkpt>
      <trkpt lat="38.08555416762828826904296875" lon="-1.50260827504098415374755859375">
        <ele>462.399993896484375</ele>
        <time>2020-02-22T10:09:00.000Z</time>
      </trkpt>
      <trkpt lat="38.08546372689306735992431640625" lon="-1.502533592283725738525390625">
        <ele>462.399993896484375</ele>
        <time>2020-02-22T10:09:02.000Z</time>
      </trkpt>
      <trkpt lat="38.08537756092846393585205078125" lon="-1.502451114356517791748046875">
        <ele>462.399993896484375</ele>
        <time>2020-02-22T10:09:04.000Z</time>
      </trkpt>
      <trkpt lat="38.08528385125100612640380859375" lon="-1.502335779368877410888671875">
        <ele>463</ele>
        <time>2020-02-22T10:09:06.000Z</time>
      </trkpt>
      <trkpt lat="38.085193075239658355712890625" lon="-1.50216537527740001678466796875">
        <ele>463.600006103515625</ele>
        <time>2020-02-22T10:09:08.000Z</time>
      </trkpt>
      <trkpt lat="38.08515996672213077545166015625" lon="-1.5018692426383495330810546875">
        <ele>464</ele>
        <time>2020-02-22T10:09:11.000Z</time>
      </trkpt>
      <trkpt lat="38.0851577036082744598388671875" lon="-1.50156372226774692535400390625">
        <ele>464</ele>
        <time>2020-02-22T10:09:14.000Z</time>
      </trkpt>
      <trkpt lat="38.08516767807304859161376953125" lon="-1.50138434953987598419189453125">
        <ele>464</ele>
        <time>2020-02-22T10:09:16.000Z</time>
      </trkpt>
      <trkpt lat="38.0852130241692066192626953125" lon="-1.50108561851084232330322265625">
        <ele>464</ele>
        <time>2020-02-22T10:09:20.000Z</time>
      </trkpt>
      <trkpt lat="38.085229285061359405517578125" lon="-1.50102560408413410186767578125">
        <ele>464</ele>
        <time>2020-02-22T10:09:21.000Z</time>
      </trkpt>
      <trkpt lat="38.08529139496386051177978515625" lon="-1.50076878257095813751220703125">
        <ele>464</ele>
        <time>2020-02-22T10:09:26.000Z</time>
      </trkpt>
      <trkpt lat="38.08533556759357452392578125" lon="-1.50067859329283237457275390625">
        <ele>464.600006103515625</ele>
        <time>2020-02-22T10:09:28.000Z</time>
      </trkpt>
      <trkpt lat="38.0853722803294658660888671875" lon="-1.50058262050151824951171875">
        <ele>465.399993896484375</ele>
        <time>2020-02-22T10:09:30.000Z</time>
      </trkpt>
      <trkpt lat="38.08538191951811313629150390625" lon="-1.50053543038666248321533203125">
        <ele>465.600006103515625</ele>
        <time>2020-02-22T10:09:31.000Z</time>
      </trkpt>
      <trkpt lat="38.08539466001093387603759765625" lon="-1.50042495690286159515380859375">
        <ele>466.399993896484375</ele>
        <time>2020-02-22T10:09:33.000Z</time>
      </trkpt>
      <trkpt lat="38.085404969751834869384765625" lon="-1.50036712177097797393798828125">
        <ele>466.79998779296875</ele>
        <time>2020-02-22T10:09:34.000Z</time>
      </trkpt>
      <trkpt lat="38.0854309536516666412353515625" lon="-1.50023636408150196075439453125">
        <ele>467.79998779296875</ele>
        <time>2020-02-22T10:09:36.000Z</time>
      </trkpt>
      <trkpt lat="38.08543891645967960357666015625" lon="-1.50017182342708110809326171875">
        <ele>468.399993896484375</ele>
        <time>2020-02-22T10:09:37.000Z</time>
      </trkpt>
      <trkpt lat="38.08545735664665699005126953125" lon="-1.50004617869853973388671875">
        <ele>469</ele>
        <time>2020-02-22T10:09:39.000Z</time>
      </trkpt>
      <trkpt lat="38.08549138717353343963623046875" lon="-1.49992019869387149810791015625">
        <ele>469.399993896484375</ele>
        <time>2020-02-22T10:09:41.000Z</time>
      </trkpt>
      <trkpt lat="38.0855493061244487762451171875" lon="-1.4997100643813610076904296875">
        <ele>470</ele>
        <time>2020-02-22T10:09:44.000Z</time>
      </trkpt>
      <trkpt lat="38.08563639409840106964111328125" lon="-1.4996108226478099822998046875">
        <ele>470.600006103515625</ele>
        <time>2020-02-22T10:09:46.000Z</time>
      </trkpt>
      <trkpt lat="38.085830099880695343017578125" lon="-1.49955675937235355377197265625">
        <ele>470.600006103515625</ele>
        <time>2020-02-22T10:09:49.000Z</time>
      </trkpt>
      <trkpt lat="38.085892461240291595458984375" lon="-1.49954552762210369110107421875">
        <ele>470.600006103515625</ele>
        <time>2020-02-22T10:09:50.000Z</time>
      </trkpt>
      <trkpt lat="38.0860280804336071014404296875" lon="-1.4994807355105876922607421875">
        <ele>470.600006103515625</ele>
        <time>2020-02-22T10:09:54.000Z</time>
      </trkpt>
      <trkpt lat="38.086074180901050567626953125" lon="-1.4993529953062534332275390625">
        <ele>469.20001220703125</ele>
        <time>2020-02-22T10:09:57.000Z</time>
      </trkpt>
      <trkpt lat="38.08608013205230236053466796875" lon="-1.499319970607757568359375">
        <ele>468.600006103515625</ele>
        <time>2020-02-22T10:09:58.000Z</time>
      </trkpt>
      <trkpt lat="38.0860968120396137237548828125" lon="-1.4992730319499969482421875">
        <ele>467.79998779296875</ele>
        <time>2020-02-22T10:10:00.000Z</time>
      </trkpt>
      <trkpt lat="38.08624911122024059295654296875" lon="-1.499184183776378631591796875">
        <ele>467.20001220703125</ele>
        <time>2020-02-22T10:10:03.000Z</time>
      </trkpt>
      <trkpt lat="38.08644994162023067474365234375" lon="-1.4991280250251293182373046875">
        <ele>467</ele>
        <time>2020-02-22T10:10:08.000Z</time>
      </trkpt>
      <trkpt lat="38.08657818473875522613525390625" lon="-1.49911067448556423187255859375">
        <ele>467.399993896484375</ele>
        <time>2020-02-22T10:10:12.000Z</time>
      </trkpt>
      <trkpt lat="38.086658902466297149658203125" lon="-1.499099694192409515380859375">
        <ele>468</ele>
        <time>2020-02-22T10:10:14.000Z</time>
      </trkpt>
      <trkpt lat="38.0867301486432552337646484375" lon="-1.49908485822379589080810546875">
        <ele>468.79998779296875</ele>
        <time>2020-02-22T10:10:16.000Z</time>
      </trkpt>
      <trkpt lat="38.08683752082288265228271484375" lon="-1.499046050012111663818359375">
        <ele>469.79998779296875</ele>
        <time>2020-02-22T10:10:19.000Z</time>
      </trkpt>
      <trkpt lat="38.08691781945526599884033203125" lon="-1.49900145828723907470703125">
        <ele>470.600006103515625</ele>
        <time>2020-02-22T10:10:21.000Z</time>
      </trkpt>
      <trkpt lat="38.08695184998214244842529296875" lon="-1.49897756986320018768310546875">
        <ele>471</ele>
        <time>2020-02-22T10:10:22.000Z</time>
      </trkpt>
      <trkpt lat="38.08707355521619319915771484375" lon="-1.49890112690627574920654296875">
        <ele>472</ele>
        <time>2020-02-22T10:10:25.000Z</time>
      </trkpt>
      <trkpt lat="38.08717958629131317138671875" lon="-1.498863659799098968505859375">
        <ele>473.399993896484375</ele>
        <time>2020-02-22T10:10:27.000Z</time>
      </trkpt>
      <trkpt lat="38.087379746139049530029296875" lon="-1.49876114912331104278564453125">
        <ele>474.600006103515625</ele>
        <time>2020-02-22T10:10:32.000Z</time>
      </trkpt>
      <trkpt lat="38.08740715496242046356201171875" lon="-1.49873985908925533294677734375">
        <ele>474.600006103515625</ele>
        <time>2020-02-22T10:10:33.000Z</time>
      </trkpt>
      <trkpt lat="38.08754034340381622314453125" lon="-1.49857456795871257781982421875">
        <ele>475.600006103515625</ele>
        <time>2020-02-22T10:10:37.000Z</time>
      </trkpt>
      <trkpt lat="38.087537996470928192138671875" lon="-1.49854137562215328216552734375">
        <ele>475.600006103515625</ele>
        <time>2020-02-22T10:10:38.000Z</time>
      </trkpt>
      <trkpt lat="38.08751779608428478240966796875" lon="-1.4984926767647266387939453125">
        <ele>476</ele>
        <time>2020-02-22T10:10:40.000Z</time>
      </trkpt>
      <trkpt lat="38.087376393377780914306640625" lon="-1.4984487555921077728271484375">
        <ele>476.600006103515625</ele>
        <time>2020-02-22T10:10:45.000Z</time>
      </trkpt>
      <trkpt lat="38.0873420275747776031494140625" lon="-1.49845453910529613494873046875">
        <ele>476.79998779296875</ele>
        <time>2020-02-22T10:10:46.000Z</time>
      </trkpt>
      <trkpt lat="38.08716475032269954681396484375" lon="-1.49850415997207164764404296875">
        <ele>478</ele>
        <time>2020-02-22T10:10:51.000Z</time>
      </trkpt>
      <trkpt lat="38.08712803758680820465087890625" lon="-1.49851731956005096435546875">
        <ele>478.20001220703125</ele>
        <time>2020-02-22T10:10:52.000Z</time>
      </trkpt>
      <trkpt lat="38.08697498403489589691162109375" lon="-1.49852327071130275726318359375">
        <ele>479</ele>
        <time>2020-02-22T10:10:56.000Z</time>
      </trkpt>
      <trkpt lat="38.08690021745860576629638671875" lon="-1.498498879373073577880859375">
        <ele>479.79998779296875</ele>
        <time>2020-02-22T10:10:58.000Z</time>
      </trkpt>
      <trkpt lat="38.08684037066996097564697265625" lon="-1.4984521083533763885498046875">
        <ele>480.20001220703125</ele>
        <time>2020-02-22T10:11:00.000Z</time>
      </trkpt>
      <trkpt lat="38.0867693759500980377197265625" lon="-1.498354710638523101806640625">
        <ele>481.399993896484375</ele>
        <time>2020-02-22T10:11:03.000Z</time>
      </trkpt>
      <trkpt lat="38.086718581616878509521484375" lon="-1.498213224112987518310546875">
        <ele>482.79998779296875</ele>
        <time>2020-02-22T10:11:07.000Z</time>
      </trkpt>
      <trkpt lat="38.086702823638916015625" lon="-1.498134098947048187255859375">
        <ele>483.399993896484375</ele>
        <time>2020-02-22T10:11:09.000Z</time>
      </trkpt>
      <trkpt lat="38.08668983168900012969970703125" lon="-1.4980481006205081939697265625">
        <ele>483.79998779296875</ele>
        <time>2020-02-22T10:11:11.000Z</time>
      </trkpt>
      <trkpt lat="38.08665446005761623382568359375" lon="-1.49788406677544116973876953125">
        <ele>485</ele>
        <time>2020-02-22T10:11:15.000Z</time>
      </trkpt>
      <trkpt lat="38.0866335891187191009521484375" lon="-1.49781784974038600921630859375">
        <ele>485.600006103515625</ele>
        <time>2020-02-22T10:11:17.000Z</time>
      </trkpt>
      <trkpt lat="38.08662059716880321502685546875" lon="-1.49775263853371143341064453125">
        <ele>486.20001220703125</ele>
        <time>2020-02-22T10:11:19.000Z</time>
      </trkpt>
      <trkpt lat="38.086594529449939727783203125" lon="-1.4976045303046703338623046875">
        <ele>487.399993896484375</ele>
        <time>2020-02-22T10:11:23.000Z</time>
      </trkpt>
      <trkpt lat="38.08658539317548274993896484375" lon="-1.49747553281486034393310546875">
        <ele>488.399993896484375</ele>
        <time>2020-02-22T10:11:26.000Z</time>
      </trkpt>
      <trkpt lat="38.086600564420223236083984375" lon="-1.49730764329433441162109375">
        <ele>489.600006103515625</ele>
        <time>2020-02-22T10:11:30.000Z</time>
      </trkpt>
      <trkpt lat="38.08661992661654949188232421875" lon="-1.49717755615711212158203125">
        <ele>490.79998779296875</ele>
        <time>2020-02-22T10:11:34.000Z</time>
      </trkpt>
      <trkpt lat="38.08660048060119152069091796875" lon="-1.49712315760552883148193359375">
        <ele>491.20001220703125</ele>
        <time>2020-02-22T10:11:36.000Z</time>
      </trkpt>
      <trkpt lat="38.0865531228482723236083984375" lon="-1.49708560667932033538818359375">
        <ele>491.79998779296875</ele>
        <time>2020-02-22T10:11:38.000Z</time>
      </trkpt>
      <trkpt lat="38.08649805374443531036376953125" lon="-1.497063226997852325439453125">
        <ele>492.399993896484375</ele>
        <time>2020-02-22T10:11:40.000Z</time>
      </trkpt>
      <trkpt lat="38.08640870265662670135498046875" lon="-1.49708233773708343505859375">
        <ele>493.20001220703125</ele>
        <time>2020-02-22T10:11:43.000Z</time>
      </trkpt>
      <trkpt lat="38.08631432242691516876220703125" lon="-1.49714268743991851806640625">
        <ele>493.79998779296875</ele>
        <time>2020-02-22T10:11:46.000Z</time>
      </trkpt>
      <trkpt lat="38.0862838961184024810791015625" lon="-1.49717194028198719024658203125">
        <ele>494.20001220703125</ele>
        <time>2020-02-22T10:11:47.000Z</time>
      </trkpt>
      <trkpt lat="38.08615028858184814453125" lon="-1.4972667396068572998046875">
        <ele>495.399993896484375</ele>
        <time>2020-02-22T10:11:51.000Z</time>
      </trkpt>
      <trkpt lat="38.0861127376556396484375" lon="-1.4972880296409130096435546875">
        <ele>495.600006103515625</ele>
        <time>2020-02-22T10:11:52.000Z</time>
      </trkpt>
      <trkpt lat="38.08604442514479160308837890625" lon="-1.49732683785259723663330078125">
        <ele>496.399993896484375</ele>
        <time>2020-02-22T10:11:54.000Z</time>
      </trkpt>
      <trkpt lat="38.08593529276549816131591796875" lon="-1.49738517589867115020751953125">
        <ele>497.399993896484375</ele>
        <time>2020-02-22T10:11:57.000Z</time>
      </trkpt>
      <trkpt lat="38.08583043515682220458984375" lon="-1.49745692498981952667236328125">
        <ele>498.600006103515625</ele>
        <time>2020-02-22T10:12:00.000Z</time>
      </trkpt>
      <trkpt lat="38.08569489978253841400146484375" lon="-1.497537307441234588623046875">
        <ele>499.600006103515625</ele>
        <time>2020-02-22T10:12:04.000Z</time>
      </trkpt>
      <trkpt lat="38.08559632860124111175537109375" lon="-1.497598327696323394775390625">
        <ele>500.399993896484375</ele>
        <time>2020-02-22T10:12:07.000Z</time>
      </trkpt>
      <trkpt lat="38.0855653993785381317138671875" lon="-1.497615762054920196533203125">
        <ele>500.79998779296875</ele>
        <time>2020-02-22T10:12:08.000Z</time>
      </trkpt>
      <trkpt lat="38.08542651124298572540283203125" lon="-1.49770704098045825958251953125">
        <ele>502</ele>
        <time>2020-02-22T10:12:12.000Z</time>
      </trkpt>
      <trkpt lat="38.08539264835417270660400390625" lon="-1.49772816337645053863525390625">
        <ele>502.399993896484375</ele>
        <time>2020-02-22T10:12:13.000Z</time>
      </trkpt>
      <trkpt lat="38.08529893867671489715576171875" lon="-1.497796140611171722412109375">
        <ele>503.20001220703125</ele>
        <time>2020-02-22T10:12:16.000Z</time>
      </trkpt>
      <trkpt lat="38.08517253957688808441162109375" lon="-1.4978791214525699615478515625">
        <ele>504.399993896484375</ele>
        <time>2020-02-22T10:12:20.000Z</time>
      </trkpt>
      <trkpt lat="38.08502979576587677001953125" lon="-1.49798448197543621063232421875">
        <ele>505.399993896484375</ele>
        <time>2020-02-22T10:12:24.000Z</time>
      </trkpt>
      <trkpt lat="38.08495293371379375457763671875" lon="-1.49802890606224536895751953125">
        <ele>506.600006103515625</ele>
        <time>2020-02-22T10:12:26.000Z</time>
      </trkpt>
      <trkpt lat="38.0848784185945987701416015625" lon="-1.49807986803352832794189453125">
        <ele>507.20001220703125</ele>
        <time>2020-02-22T10:12:28.000Z</time>
      </trkpt>
      <trkpt lat="38.08480725623667240142822265625" lon="-1.49812228046357631683349609375">
        <ele>507.600006103515625</ele>
        <time>2020-02-22T10:12:30.000Z</time>
      </trkpt>
      <trkpt lat="38.0846708826720714569091796875" lon="-1.4981962926685810089111328125">
        <ele>508.79998779296875</ele>
        <time>2020-02-22T10:12:34.000Z</time>
      </trkpt>
      <trkpt lat="38.08463685214519500732421875" lon="-1.4982100389897823333740234375">
        <ele>509.20001220703125</ele>
        <time>2020-02-22T10:12:35.000Z</time>
      </trkpt>
      <trkpt lat="38.084523864090442657470703125" lon="-1.49828539229929447174072265625">
        <ele>510.20001220703125</ele>
        <time>2020-02-22T10:12:38.000Z</time>
      </trkpt>
      <trkpt lat="38.0844264663755893707275390625" lon="-1.498401649296283721923828125">
        <ele>511.20001220703125</ele>
        <time>2020-02-22T10:12:41.000Z</time>
      </trkpt>
      <trkpt lat="38.0843946151435375213623046875" lon="-1.49844515137374401092529296875">
        <ele>511.600006103515625</ele>
        <time>2020-02-22T10:12:42.000Z</time>
      </trkpt>
      <trkpt lat="38.0842739157378673553466796875" lon="-1.4986277930438518524169921875">
        <ele>512.79998779296875</ele>
        <time>2020-02-22T10:12:46.000Z</time>
      </trkpt>
      <trkpt lat="38.08418917469680309295654296875" lon="-1.49876534007489681243896484375">
        <ele>513.79998779296875</ele>
        <time>2020-02-22T10:12:49.000Z</time>
      </trkpt>
      <trkpt lat="38.0840707384049892425537109375" lon="-1.49892635643482208251953125">
        <ele>515</ele>
        <time>2020-02-22T10:12:53.000Z</time>
      </trkpt>
      <trkpt lat="38.08399521745741367340087890625" lon="-1.49897539056837558746337890625">
        <ele>515.79998779296875</ele>
        <time>2020-02-22T10:12:55.000Z</time>
      </trkpt>
      <trkpt lat="38.08395045809447765350341796875" lon="-1.49898662231862545013427734375">
        <ele>516.20001220703125</ele>
        <time>2020-02-22T10:12:56.000Z</time>
      </trkpt>
      <trkpt lat="38.08385943062603473663330078125" lon="-1.49895024485886096954345703125">
        <ele>516.79998779296875</ele>
        <time>2020-02-22T10:12:58.000Z</time>
      </trkpt>
      <trkpt lat="38.08380000293254852294921875" lon="-1.49885418824851512908935546875">
        <ele>517.4000244140625</ele>
        <time>2020-02-22T10:13:00.000Z</time>
      </trkpt>
      <trkpt lat="38.08379053138196468353271484375" lon="-1.498783864080905914306640625">
        <ele>517.5999755859375</ele>
        <time>2020-02-22T10:13:01.000Z</time>
      </trkpt>
      <trkpt lat="38.0838226340711116790771484375" lon="-1.49855344556272029876708984375">
        <ele>517.79998779296875</ele>
        <time>2020-02-22T10:13:04.000Z</time>
      </trkpt>
      <trkpt lat="38.0838397331535816192626953125" lon="-1.49847499094903469085693359375">
        <ele>517.79998779296875</ele>
        <time>2020-02-22T10:13:05.000Z</time>
      </trkpt>
      <trkpt lat="38.08385171927511692047119140625" lon="-1.4983920939266681671142578125">
        <ele>517.79998779296875</ele>
        <time>2020-02-22T10:13:06.000Z</time>
      </trkpt>
      <trkpt lat="38.08387083001434803009033203125" lon="-1.498034186661243438720703125">
        <ele>518</ele>
        <time>2020-02-22T10:13:10.000Z</time>
      </trkpt>
      <trkpt lat="38.0838913656771183013916015625" lon="-1.4974399097263813018798828125">
        <ele>517.20001220703125</ele>
        <time>2020-02-22T10:13:16.000Z</time>
      </trkpt>
      <trkpt lat="38.08390066958963871002197265625" lon="-1.4973322860896587371826171875">
        <ele>516.79998779296875</ele>
        <time>2020-02-22T10:13:17.000Z</time>
      </trkpt>
      <trkpt lat="38.0839248932898044586181640625" lon="-1.49699248373508453369140625">
        <ele>516.4000244140625</ele>
        <time>2020-02-22T10:13:20.000Z</time>
      </trkpt>
      <trkpt lat="38.08394995518028736114501953125" lon="-1.4967438764870166778564453125">
        <ele>515.79998779296875</ele>
        <time>2020-02-22T10:13:22.000Z</time>
      </trkpt>
      <trkpt lat="38.08396386913955211639404296875" lon="-1.49661655537784099578857421875">
        <ele>515.20001220703125</ele>
        <time>2020-02-22T10:13:23.000Z</time>
      </trkpt>
      <trkpt lat="38.084006197750568389892578125" lon="-1.49622294120490550994873046875">
        <ele>513.20001220703125</ele>
        <time>2020-02-22T10:13:26.000Z</time>
      </trkpt>
      <trkpt lat="38.08401516638696193695068359375" lon="-1.49595522321760654449462890625">
        <ele>512</ele>
        <time>2020-02-22T10:13:28.000Z</time>
      </trkpt>
      <trkpt lat="38.084024973213672637939453125" lon="-1.49581776000559329986572265625">
        <ele>511</ele>
        <time>2020-02-22T10:13:29.000Z</time>
      </trkpt>
      <trkpt lat="38.0840476043522357940673828125" lon="-1.49568021297454833984375">
        <ele>510</ele>
        <time>2020-02-22T10:13:30.000Z</time>
      </trkpt>
      <trkpt lat="38.08412496931850910186767578125" lon="-1.495407633483409881591796875">
        <ele>508.600006103515625</ele>
        <time>2020-02-22T10:13:32.000Z</time>
      </trkpt>
      <trkpt lat="38.084226138889789581298828125" lon="-1.49513027630746364593505859375">
        <ele>508</ele>
        <time>2020-02-22T10:13:34.000Z</time>
      </trkpt>
      <trkpt lat="38.0842708982527256011962890625" lon="-1.4949813298881053924560546875">
        <ele>507.399993896484375</ele>
        <time>2020-02-22T10:13:35.000Z</time>
      </trkpt>
      <trkpt lat="38.08431155048310756683349609375" lon="-1.49482249282300472259521484375">
        <ele>506.79998779296875</ele>
        <time>2020-02-22T10:13:36.000Z</time>
      </trkpt>
      <trkpt lat="38.08434574864804744720458984375" lon="-1.49465871043503284454345703125">
        <ele>506</ele>
        <time>2020-02-22T10:13:37.000Z</time>
      </trkpt>
      <trkpt lat="38.08439503423869609832763671875" lon="-1.49431706406176090240478515625">
        <ele>504.399993896484375</ele>
        <time>2020-02-22T10:13:39.000Z</time>
      </trkpt>
      <trkpt lat="38.08439813554286956787109375" lon="-1.49414070881903171539306640625">
        <ele>503.600006103515625</ele>
        <time>2020-02-22T10:13:40.000Z</time>
      </trkpt>
      <trkpt lat="38.0843892507255077362060546875" lon="-1.49396250955760478973388671875">
        <ele>502.79998779296875</ele>
        <time>2020-02-22T10:13:41.000Z</time>
      </trkpt>
      <trkpt lat="38.08435949496924877166748046875" lon="-1.4936100505292415618896484375">
        <ele>501.399993896484375</ele>
        <time>2020-02-22T10:13:43.000Z</time>
      </trkpt>
      <trkpt lat="38.08433719910681247711181640625" lon="-1.49326412938535213470458984375">
        <ele>499.79998779296875</ele>
        <time>2020-02-22T10:13:45.000Z</time>
      </trkpt>
      <trkpt lat="38.0843356065452098846435546875" lon="-1.492921896278858184814453125">
        <ele>497.600006103515625</ele>
        <time>2020-02-22T10:13:47.000Z</time>
      </trkpt>
      <trkpt lat="38.0843409709632396697998046875" lon="-1.49275082163512706756591796875">
        <ele>496.20001220703125</ele>
        <time>2020-02-22T10:13:48.000Z</time>
      </trkpt>
      <trkpt lat="38.08434985578060150146484375" lon="-1.4925814233720302581787109375">
        <ele>495</ele>
        <time>2020-02-22T10:13:49.000Z</time>
      </trkpt>
      <trkpt lat="38.08437307365238666534423828125" lon="-1.492410600185394287109375">
        <ele>494.20001220703125</ele>
        <time>2020-02-22T10:13:50.000Z</time>
      </trkpt>
      <trkpt lat="38.08440911583602428436279296875" lon="-1.49223919026553630828857421875">
        <ele>492.79998779296875</ele>
        <time>2020-02-22T10:13:51.000Z</time>
      </trkpt>
      <trkpt lat="38.08449243195354938507080078125" lon="-1.4918924309313297271728515625">
        <ele>491.399993896484375</ele>
        <time>2020-02-22T10:13:53.000Z</time>
      </trkpt>
      <trkpt lat="38.084531910717487335205078125" lon="-1.49172596633434295654296875">
        <ele>491</ele>
        <time>2020-02-22T10:13:54.000Z</time>
      </trkpt>
      <trkpt lat="38.08456904254853725433349609375" lon="-1.49156897328794002532958984375">
        <ele>490.399993896484375</ele>
        <time>2020-02-22T10:13:55.000Z</time>
      </trkpt>
      <trkpt lat="38.0846021510660648345947265625" lon="-1.49142178706824779510498046875">
        <ele>488.399993896484375</ele>
        <time>2020-02-22T10:13:56.000Z</time>
      </trkpt>
      <trkpt lat="38.08463626541197299957275390625" lon="-1.49115893058478832244873046875">
        <ele>487.600006103515625</ele>
        <time>2020-02-22T10:13:58.000Z</time>
      </trkpt>
      <trkpt lat="38.08462352491915225982666015625" lon="-1.49103797972202301025390625">
        <ele>487</ele>
        <time>2020-02-22T10:13:59.000Z</time>
      </trkpt>
      <trkpt lat="38.0845853872597217559814453125" lon="-1.49092189036309719085693359375">
        <ele>485.20001220703125</ele>
        <time>2020-02-22T10:14:00.000Z</time>
      </trkpt>
      <trkpt lat="38.08453802950680255889892578125" lon="-1.49080571718513965606689453125">
        <ele>483.600006103515625</ele>
        <time>2020-02-22T10:14:01.000Z</time>
      </trkpt>
      <trkpt lat="38.08450534008443355560302734375" lon="-1.4906861074268817901611328125">
        <ele>482.600006103515625</ele>
        <time>2020-02-22T10:14:02.000Z</time>
      </trkpt>
      <trkpt lat="38.08449469506740570068359375" lon="-1.4905610494315624237060546875">
        <ele>482</ele>
        <time>2020-02-22T10:14:03.000Z</time>
      </trkpt>
      <trkpt lat="38.08450651355087757110595703125" lon="-1.49043272249400615692138671875">
        <ele>481.600006103515625</ele>
        <time>2020-02-22T10:14:04.000Z</time>
      </trkpt>
      <trkpt lat="38.08457373641431331634521484375" lon="-1.49016567505896091461181640625">
        <ele>480.79998779296875</ele>
        <time>2020-02-22T10:14:06.000Z</time>
      </trkpt>
      <trkpt lat="38.08461514301598072052001953125" lon="-1.49002385325729846954345703125">
        <ele>480</ele>
        <time>2020-02-22T10:14:07.000Z</time>
      </trkpt>
      <trkpt lat="38.084655292332172393798828125" lon="-1.48987968452274799346923828125">
        <ele>479.600006103515625</ele>
        <time>2020-02-22T10:14:08.000Z</time>
      </trkpt>
      <trkpt lat="38.08473701588809490203857421875" lon="-1.48958313278853893280029296875">
        <ele>479</ele>
        <time>2020-02-22T10:14:10.000Z</time>
      </trkpt>
      <trkpt lat="38.08481731452047824859619140625" lon="-1.48926780559122562408447265625">
        <ele>478.399993896484375</ele>
        <time>2020-02-22T10:14:12.000Z</time>
      </trkpt>
      <trkpt lat="38.0848588049411773681640625" lon="-1.48910301737487316131591796875">
        <ele>477.600006103515625</ele>
        <time>2020-02-22T10:14:13.000Z</time>
      </trkpt>
      <trkpt lat="38.08490264229476451873779296875" lon="-1.48893755860626697540283203125">
        <ele>476.600006103515625</ele>
        <time>2020-02-22T10:14:14.000Z</time>
      </trkpt>
      <trkpt lat="38.084945976734161376953125" lon="-1.48877478204667568206787109375">
        <ele>475.79998779296875</ele>
        <time>2020-02-22T10:14:15.000Z</time>
      </trkpt>
      <trkpt lat="38.0849870480597019195556640625" lon="-1.4886174537241458892822265625">
        <ele>474.600006103515625</ele>
        <time>2020-02-22T10:14:16.000Z</time>
      </trkpt>
      <trkpt lat="38.085024766623973846435546875" lon="-1.48847705684602260589599609375">
        <ele>473.600006103515625</ele>
        <time>2020-02-22T10:14:17.000Z</time>
      </trkpt>
      <trkpt lat="38.0850599706172943115234375" lon="-1.48835585452616214752197265625">
        <ele>472.79998779296875</ele>
        <time>2020-02-22T10:14:18.000Z</time>
      </trkpt>
      <trkpt lat="38.0850973539054393768310546875" lon="-1.48825376294553279876708984375">
        <ele>472</ele>
        <time>2020-02-22T10:14:19.000Z</time>
      </trkpt>
      <trkpt lat="38.085145466029644012451171875" lon="-1.488171033561229705810546875">
        <ele>471</ele>
        <time>2020-02-22T10:14:20.000Z</time>
      </trkpt>
      <trkpt lat="38.085211180150508880615234375" lon="-1.48811663500964641571044921875">
        <ele>470</ele>
        <time>2020-02-22T10:14:21.000Z</time>
      </trkpt>
      <trkpt lat="38.0852898024022579193115234375" lon="-1.48809249512851238250732421875">
        <ele>468.79998779296875</ele>
        <time>2020-02-22T10:14:22.000Z</time>
      </trkpt>
      <trkpt lat="38.0853756330907344818115234375" lon="-1.4880857057869434356689453125">
        <ele>467.20001220703125</ele>
        <time>2020-02-22T10:14:23.000Z</time>
      </trkpt>
      <trkpt lat="38.0854594521224498748779296875" lon="-1.48807841353118419647216796875">
        <ele>466.20001220703125</ele>
        <time>2020-02-22T10:14:24.000Z</time>
      </trkpt>
      <trkpt lat="38.085598759353160858154296875" lon="-1.4879797585308551788330078125">
        <ele>465</ele>
        <time>2020-02-22T10:14:26.000Z</time>
      </trkpt>
      <trkpt lat="38.08565952815115451812744140625" lon="-1.4877744019031524658203125">
        <ele>464.399993896484375</ele>
        <time>2020-02-22T10:14:28.000Z</time>
      </trkpt>
      <trkpt lat="38.08561678044497966766357421875" lon="-1.48754012770950794219970703125">
        <ele>464</ele>
        <time>2020-02-22T10:14:30.000Z</time>
      </trkpt>
      <trkpt lat="38.08558342047035694122314453125" lon="-1.48742445744574069976806640625">
        <ele>463.79998779296875</ele>
        <time>2020-02-22T10:14:31.000Z</time>
      </trkpt>
      <trkpt lat="38.0855610407888889312744140625" lon="-1.487303338944911956787109375">
        <ele>463.399993896484375</ele>
        <time>2020-02-22T10:14:32.000Z</time>
      </trkpt>
      <trkpt lat="38.08558098971843719482421875" lon="-1.48703151382505893707275390625">
        <ele>462.600006103515625</ele>
        <time>2020-02-22T10:14:34.000Z</time>
      </trkpt>
      <trkpt lat="38.085704706609249114990234375" lon="-1.48643371649086475372314453125">
        <ele>461.399993896484375</ele>
        <time>2020-02-22T10:14:38.000Z</time>
      </trkpt>
      <trkpt lat="38.0857333727180957794189453125" lon="-1.48627982474863529205322265625">
        <ele>461</ele>
        <time>2020-02-22T10:14:39.000Z</time>
      </trkpt>
      <trkpt lat="38.08582372963428497314453125" lon="-1.48580842651426792144775390625">
        <ele>459.600006103515625</ele>
        <time>2020-02-22T10:14:42.000Z</time>
      </trkpt>
      <trkpt lat="38.0858567543327808380126953125" lon="-1.4854837954044342041015625">
        <ele>457.399993896484375</ele>
        <time>2020-02-22T10:14:44.000Z</time>
      </trkpt>
      <trkpt lat="38.0858423374593257904052734375" lon="-1.48531691171228885650634765625">
        <ele>456.20001220703125</ele>
        <time>2020-02-22T10:14:45.000Z</time>
      </trkpt>
      <trkpt lat="38.08575709350407123565673828125" lon="-1.4849716611206531524658203125">
        <ele>454.600006103515625</ele>
        <time>2020-02-22T10:14:47.000Z</time>
      </trkpt>
      <trkpt lat="38.08569900691509246826171875" lon="-1.48479756899178028106689453125">
        <ele>454.20001220703125</ele>
        <time>2020-02-22T10:14:48.000Z</time>
      </trkpt>
      <trkpt lat="38.08563404716551303863525390625" lon="-1.48462154902517795562744140625">
        <ele>453.399993896484375</ele>
        <time>2020-02-22T10:14:49.000Z</time>
      </trkpt>
      <trkpt lat="38.08548468165099620819091796875" lon="-1.484265066683292388916015625">
        <ele>451.600006103515625</ele>
        <time>2020-02-22T10:14:51.000Z</time>
      </trkpt>
      <trkpt lat="38.08540253899991512298583984375" lon="-1.48408376611769199371337890625">
        <ele>450</ele>
        <time>2020-02-22T10:14:52.000Z</time>
      </trkpt>
      <trkpt lat="38.08531821705400943756103515625" lon="-1.4838984422385692596435546875">
        <ele>448.600006103515625</ele>
        <time>2020-02-22T10:14:53.000Z</time>
      </trkpt>
      <trkpt lat="38.0852348171174526214599609375" lon="-1.483714543282985687255859375">
        <ele>445.20001220703125</ele>
        <time>2020-02-22T10:14:54.000Z</time>
      </trkpt>
      <trkpt lat="38.08515250682830810546875" lon="-1.48353450000286102294921875">
        <ele>443.600006103515625</ele>
        <time>2020-02-22T10:14:55.000Z</time>
      </trkpt>
      <trkpt lat="38.08507028035819530487060546875" lon="-1.4833568036556243896484375">
        <ele>442.399993896484375</ele>
        <time>2020-02-22T10:14:56.000Z</time>
      </trkpt>
      <trkpt lat="38.08499266393482685089111328125" lon="-1.483182795345783233642578125">
        <ele>441.20001220703125</ele>
        <time>2020-02-22T10:14:57.000Z</time>
      </trkpt>
      <trkpt lat="38.0849179811775684356689453125" lon="-1.48301105014979839324951171875">
        <ele>439.79998779296875</ele>
        <time>2020-02-22T10:14:58.000Z</time>
      </trkpt>
      <trkpt lat="38.08486215770244598388671875" lon="-1.4828436635434627532958984375">
        <ele>438</ele>
        <time>2020-02-22T10:14:59.000Z</time>
      </trkpt>
      <trkpt lat="38.08482728898525238037109375" lon="-1.48267409764230251312255859375">
        <ele>436.20001220703125</ele>
        <time>2020-02-22T10:15:00.000Z</time>
      </trkpt>
      <trkpt lat="38.0848110280930995941162109375" lon="-1.482500843703746795654296875">
        <ele>434.600006103515625</ele>
        <time>2020-02-22T10:15:01.000Z</time>
      </trkpt>
      <trkpt lat="38.08481278829276561737060546875" lon="-1.48231736384332180023193359375">
        <ele>433</ele>
        <time>2020-02-22T10:15:02.000Z</time>
      </trkpt>
      <trkpt lat="38.08482519350945949554443359375" lon="-1.4821268431842327117919921875">
        <ele>431.600006103515625</ele>
        <time>2020-02-22T10:15:03.000Z</time>
      </trkpt>
      <trkpt lat="38.08483692817389965057373046875" lon="-1.48192961700260639190673828125">
        <ele>430.20001220703125</ele>
        <time>2020-02-22T10:15:04.000Z</time>
      </trkpt>
      <trkpt lat="38.0848505906760692596435546875" lon="-1.48173113353550434112548828125">
        <ele>428.79998779296875</ele>
        <time>2020-02-22T10:15:05.000Z</time>
      </trkpt>
      <trkpt lat="38.08487154543399810791015625" lon="-1.4813396148383617401123046875">
        <ele>426.79998779296875</ele>
        <time>2020-02-22T10:15:07.000Z</time>
      </trkpt>
      <trkpt lat="38.08487825095653533935546875" lon="-1.4811480045318603515625">
        <ele>425.79998779296875</ele>
        <time>2020-02-22T10:15:08.000Z</time>
      </trkpt>
      <trkpt lat="38.08489409275352954864501953125" lon="-1.48077048361301422119140625">
        <ele>423.79998779296875</ele>
        <time>2020-02-22T10:15:10.000Z</time>
      </trkpt>
      <trkpt lat="38.0848995409905910491943359375" lon="-1.48058247752487659454345703125">
        <ele>421.79998779296875</ele>
        <time>2020-02-22T10:15:11.000Z</time>
      </trkpt>
      <trkpt lat="38.08490415103733539581298828125" lon="-1.48039857856929302215576171875">
        <ele>419.600006103515625</ele>
        <time>2020-02-22T10:15:12.000Z</time>
      </trkpt>
      <trkpt lat="38.08490750379860401153564453125" lon="-1.48022088222205638885498046875">
        <ele>417.600006103515625</ele>
        <time>2020-02-22T10:15:13.000Z</time>
      </trkpt>
      <trkpt lat="38.08490867726504802703857421875" lon="-1.48004922084510326385498046875">
        <ele>416.20001220703125</ele>
        <time>2020-02-22T10:15:14.000Z</time>
      </trkpt>
      <trkpt lat="38.08491135947406291961669921875" lon="-1.4798811636865139007568359375">
        <ele>415</ele>
        <time>2020-02-22T10:15:15.000Z</time>
      </trkpt>
      <trkpt lat="38.0849149636924266815185546875" lon="-1.47971780039370059967041015625">
        <ele>413.79998779296875</ele>
        <time>2020-02-22T10:15:16.000Z</time>
      </trkpt>
      <trkpt lat="38.08491756208240985870361328125" lon="-1.4795576222240924835205078125">
        <ele>413.20001220703125</ele>
        <time>2020-02-22T10:15:17.000Z</time>
      </trkpt>
      <trkpt lat="38.08493189513683319091796875" lon="-1.47924640215933322906494140625">
        <ele>412.79998779296875</ele>
        <time>2020-02-22T10:15:19.000Z</time>
      </trkpt>
      <trkpt lat="38.0849526822566986083984375" lon="-1.47877718321979045867919921875">
        <ele>412.600006103515625</ele>
        <time>2020-02-22T10:15:22.000Z</time>
      </trkpt>
      <trkpt lat="38.08496617712080478668212890625" lon="-1.47830092348158359527587890625">
        <ele>412.20001220703125</ele>
        <time>2020-02-22T10:15:25.000Z</time>
      </trkpt>
      <trkpt lat="38.08498947881162166595458984375" lon="-1.47743926383554935455322265625">
        <ele>412</ele>
        <time>2020-02-22T10:15:30.000Z</time>
      </trkpt>
      <trkpt lat="38.0849997885525226593017578125" lon="-1.47689561359584331512451171875">
        <ele>411.600006103515625</ele>
        <time>2020-02-22T10:15:33.000Z</time>
      </trkpt>
      <trkpt lat="38.0850038118660449981689453125" lon="-1.4765465073287487030029296875">
        <ele>410</ele>
        <time>2020-02-22T10:15:35.000Z</time>
      </trkpt>
      <trkpt lat="38.08500029146671295166015625" lon="-1.4763842336833477020263671875">
        <ele>408.79998779296875</ele>
        <time>2020-02-22T10:15:36.000Z</time>
      </trkpt>
      <trkpt lat="38.0849900655448436737060546875" lon="-1.47622623480856418609619140625">
        <ele>407.399993896484375</ele>
        <time>2020-02-22T10:15:37.000Z</time>
      </trkpt>
      <trkpt lat="38.08496869169175624847412109375" lon="-1.4760710857808589935302734375">
        <ele>406.399993896484375</ele>
        <time>2020-02-22T10:15:38.000Z</time>
      </trkpt>
      <trkpt lat="38.0849344097077846527099609375" lon="-1.4759175293147563934326171875">
        <ele>405.600006103515625</ele>
        <time>2020-02-22T10:15:39.000Z</time>
      </trkpt>
      <trkpt lat="38.0848814360797405242919921875" lon="-1.47576807998120784759521484375">
        <ele>404.399993896484375</ele>
        <time>2020-02-22T10:15:40.000Z</time>
      </trkpt>
      <trkpt lat="38.08480918407440185546875" lon="-1.4756271801888942718505859375">
        <ele>403.20001220703125</ele>
        <time>2020-02-22T10:15:41.000Z</time>
      </trkpt>
      <trkpt lat="38.084725700318813323974609375" lon="-1.47549835033714771270751953125">
        <ele>402.20001220703125</ele>
        <time>2020-02-22T10:15:42.000Z</time>
      </trkpt>
      <trkpt lat="38.084637857973575592041015625" lon="-1.475377567112445831298828125">
        <ele>401.399993896484375</ele>
        <time>2020-02-22T10:15:43.000Z</time>
      </trkpt>
      <trkpt lat="38.08455194346606731414794921875" lon="-1.47525913082063198089599609375">
        <ele>400.79998779296875</ele>
        <time>2020-02-22T10:15:44.000Z</time>
      </trkpt>
      <trkpt lat="38.08422018773853778839111328125" lon="-1.4747853018343448638916015625">
        <ele>399.600006103515625</ele>
        <time>2020-02-22T10:15:48.000Z</time>
      </trkpt>
      <trkpt lat="38.08405271731317043304443359375" lon="-1.474530994892120361328125">
        <ele>398.600006103515625</ele>
        <time>2020-02-22T10:15:50.000Z</time>
      </trkpt>
      <trkpt lat="38.08396789245307445526123046875" lon="-1.47440518252551555633544921875">
        <ele>398</ele>
        <time>2020-02-22T10:15:51.000Z</time>
      </trkpt>
      <trkpt lat="38.0837938003242015838623046875" lon="-1.47413930855691432952880859375">
        <ele>397.20001220703125</ele>
        <time>2020-02-22T10:15:53.000Z</time>
      </trkpt>
      <trkpt lat="38.08370503596961498260498046875" lon="-1.47400327026844024658203125">
        <ele>397</ele>
        <time>2020-02-22T10:15:54.000Z</time>
      </trkpt>
      <trkpt lat="38.08352750726044178009033203125" lon="-1.47373379208147525787353515625">
        <ele>396</ele>
        <time>2020-02-22T10:15:56.000Z</time>
      </trkpt>
      <trkpt lat="38.08343849144876003265380859375" lon="-1.473602615296840667724609375">
        <ele>395.399993896484375</ele>
        <time>2020-02-22T10:15:57.000Z</time>
      </trkpt>
      <trkpt lat="38.08334712870419025421142578125" lon="-1.4734693430364131927490234375">
        <ele>394.399993896484375</ele>
        <time>2020-02-22T10:15:58.000Z</time>
      </trkpt>
      <trkpt lat="38.08325928635895252227783203125" lon="-1.4733365736901760101318359375">
        <ele>393</ele>
        <time>2020-02-22T10:15:59.000Z</time>
      </trkpt>
      <trkpt lat="38.08317370712757110595703125" lon="-1.47320388816297054290771484375">
        <ele>392</ele>
        <time>2020-02-22T10:16:00.000Z</time>
      </trkpt>
      <trkpt lat="38.08309047482907772064208984375" lon="-1.47307346574962139129638671875">
        <ele>390.79998779296875</ele>
        <time>2020-02-22T10:16:01.000Z</time>
      </trkpt>
      <trkpt lat="38.08301000855863094329833984375" lon="-1.472943462431430816650390625">
        <ele>389.79998779296875</ele>
        <time>2020-02-22T10:16:02.000Z</time>
      </trkpt>
      <trkpt lat="38.0828553624451160430908203125" lon="-1.47266979329288005828857421875">
        <ele>388</ele>
        <time>2020-02-22T10:16:04.000Z</time>
      </trkpt>
      <trkpt lat="38.08278554119169712066650390625" lon="-1.47252009250223636627197265625">
        <ele>387</ele>
        <time>2020-02-22T10:16:05.000Z</time>
      </trkpt>
      <trkpt lat="38.082722090184688568115234375" lon="-1.472363434731960296630859375">
        <ele>385.79998779296875</ele>
        <time>2020-02-22T10:16:06.000Z</time>
      </trkpt>
      <trkpt lat="38.08265813626348972320556640625" lon="-1.47219906561076641082763671875">
        <ele>384.79998779296875</ele>
        <time>2020-02-22T10:16:07.000Z</time>
      </trkpt>
      <trkpt lat="38.0825918354094028472900390625" lon="-1.4720276556909084320068359375">
        <ele>383.600006103515625</ele>
        <time>2020-02-22T10:16:08.000Z</time>
      </trkpt>
      <trkpt lat="38.082459233701229095458984375" lon="-1.4716769568622112274169921875">
        <ele>381.79998779296875</ele>
        <time>2020-02-22T10:16:10.000Z</time>
      </trkpt>
      <trkpt lat="38.0823192559182643890380859375" lon="-1.4713101647794246673583984375">
        <ele>380.79998779296875</ele>
        <time>2020-02-22T10:16:12.000Z</time>
      </trkpt>
      <trkpt lat="38.08217081241309642791748046875" lon="-1.470926105976104736328125">
        <ele>379.600006103515625</ele>
        <time>2020-02-22T10:16:14.000Z</time>
      </trkpt>
      <trkpt lat="38.08209411799907684326171875" lon="-1.47073273546993732452392578125">
        <ele>378.600006103515625</ele>
        <time>2020-02-22T10:16:15.000Z</time>
      </trkpt>
      <trkpt lat="38.08201658539474010467529296875" lon="-1.47053995169699192047119140625">
        <ele>377.399993896484375</ele>
        <time>2020-02-22T10:16:16.000Z</time>
      </trkpt>
      <trkpt lat="38.08193963952362537384033203125" lon="-1.47035035304725170135498046875">
        <ele>376.20001220703125</ele>
        <time>2020-02-22T10:16:17.000Z</time>
      </trkpt>
      <trkpt lat="38.08186478912830352783203125" lon="-1.4701603353023529052734375">
        <ele>374.79998779296875</ele>
        <time>2020-02-22T10:16:18.000Z</time>
      </trkpt>
      <trkpt lat="38.08179094456136226654052734375" lon="-1.4699710719287395477294921875">
        <ele>373</ele>
        <time>2020-02-22T10:16:19.000Z</time>
      </trkpt>
      <trkpt lat="38.08171802200376987457275390625" lon="-1.4697821438312530517578125">
        <ele>371.399993896484375</ele>
        <time>2020-02-22T10:16:20.000Z</time>
      </trkpt>
      <trkpt lat="38.0816470272839069366455078125" lon="-1.46959598176181316375732421875">
        <ele>369.600006103515625</ele>
        <time>2020-02-22T10:16:21.000Z</time>
      </trkpt>
      <trkpt lat="38.08157687075436115264892578125" lon="-1.4694125019013881683349609375">
        <ele>366</ele>
        <time>2020-02-22T10:16:22.000Z</time>
      </trkpt>
      <trkpt lat="38.0815075524151325225830078125" lon="-1.46923304535448551177978515625">
        <ele>364.399993896484375</ele>
        <time>2020-02-22T10:16:23.000Z</time>
      </trkpt>
      <trkpt lat="38.081435970962047576904296875" lon="-1.4690574444830417633056640625">
        <ele>362.79998779296875</ele>
        <time>2020-02-22T10:16:24.000Z</time>
      </trkpt>
      <trkpt lat="38.08136581443250179290771484375" lon="-1.4688854478299617767333984375">
        <ele>361.399993896484375</ele>
        <time>2020-02-22T10:16:25.000Z</time>
      </trkpt>
      <trkpt lat="38.081292808055877685546875" lon="-1.46871864795684814453125">
        <ele>360.20001220703125</ele>
        <time>2020-02-22T10:16:26.000Z</time>
      </trkpt>
      <trkpt lat="38.0812208913266658782958984375" lon="-1.46855436265468597412109375">
        <ele>359</ele>
        <time>2020-02-22T10:16:27.000Z</time>
      </trkpt>
      <trkpt lat="38.0811519920825958251953125" lon="-1.46839150227606296539306640625">
        <ele>358</ele>
        <time>2020-02-22T10:16:28.000Z</time>
      </trkpt>
      <trkpt lat="38.0810844339430332183837890625" lon="-1.46822981536388397216796875">
        <ele>356.79998779296875</ele>
        <time>2020-02-22T10:16:29.000Z</time>
      </trkpt>
      <trkpt lat="38.08094990439713001251220703125" lon="-1.46791155450046062469482421875">
        <ele>355.399993896484375</ele>
        <time>2020-02-22T10:16:31.000Z</time>
      </trkpt>
      <trkpt lat="38.0808128602802753448486328125" lon="-1.46758482791483402252197265625">
        <ele>354.399993896484375</ele>
        <time>2020-02-22T10:16:33.000Z</time>
      </trkpt>
      <trkpt lat="38.08066877536475658416748046875" lon="-1.4672576822340488433837890625">
        <ele>353.20001220703125</ele>
        <time>2020-02-22T10:16:35.000Z</time>
      </trkpt>
      <trkpt lat="38.0805999599397182464599609375" lon="-1.46709750406444072723388671875">
        <ele>353</ele>
        <time>2020-02-22T10:16:36.000Z</time>
      </trkpt>
      <trkpt lat="38.0803535319864749908447265625" lon="-1.46650808863341808319091796875">
        <ele>352.20001220703125</ele>
        <time>2020-02-22T10:16:40.000Z</time>
      </trkpt>
      <trkpt lat="38.0802985467016696929931640625" lon="-1.46637565456330776214599609375">
        <ele>352</ele>
        <time>2020-02-22T10:16:41.000Z</time>
      </trkpt>
      <trkpt lat="38.0801262147724628448486328125" lon="-1.4660297334194183349609375">
        <ele>350.79998779296875</ele>
        <time>2020-02-22T10:16:44.000Z</time>
      </trkpt>
      <trkpt lat="38.080056644976139068603515625" lon="-1.4659320004284381866455078125">
        <ele>350.20001220703125</ele>
        <time>2020-02-22T10:16:45.000Z</time>
      </trkpt>
      <trkpt lat="38.079883642494678497314453125" lon="-1.46577316336333751678466796875">
        <ele>349.600006103515625</ele>
        <time>2020-02-22T10:16:47.000Z</time>
      </trkpt>
      <trkpt lat="38.0797872506082057952880859375" lon="-1.465708203613758087158203125">
        <ele>349.399993896484375</ele>
        <time>2020-02-22T10:16:48.000Z</time>
      </trkpt>
      <trkpt lat="38.079306297004222869873046875" lon="-1.4654066227376461029052734375">
        <ele>348.79998779296875</ele>
        <time>2020-02-22T10:16:53.000Z</time>
      </trkpt>
      <trkpt lat="38.07922356761991977691650390625" lon="-1.4653404057025909423828125">
        <ele>348.79998779296875</ele>
        <time>2020-02-22T10:16:54.000Z</time>
      </trkpt>
      <trkpt lat="38.07908073998987674713134765625" lon="-1.4651994220912456512451171875">
        <ele>348.600006103515625</ele>
        <time>2020-02-22T10:16:56.000Z</time>
      </trkpt>
      <trkpt lat="38.07902005501091480255126953125" lon="-1.4651231467723846435546875">
        <ele>348.399993896484375</ele>
        <time>2020-02-22T10:16:57.000Z</time>
      </trkpt>
      <trkpt lat="38.0789591185748577117919921875" lon="-1.4650441892445087432861328125">
        <ele>348.20001220703125</ele>
        <time>2020-02-22T10:16:58.000Z</time>
      </trkpt>
      <trkpt lat="38.07890522293746471405029296875" lon="-1.46495886147022247314453125">
        <ele>348.20001220703125</ele>
        <time>2020-02-22T10:16:59.000Z</time>
      </trkpt>
      <trkpt lat="38.07867388240993022918701171875" lon="-1.4645194821059703826904296875">
        <ele>348</ele>
        <time>2020-02-22T10:17:04.000Z</time>
      </trkpt>
      <trkpt lat="38.0784860439598560333251953125" lon="-1.46415017545223236083984375">
        <ele>347.79998779296875</ele>
        <time>2020-02-22T10:17:08.000Z</time>
      </trkpt>
      <trkpt lat="38.07830122299492359161376953125" lon="-1.46376335062086582183837890625">
        <ele>347.79998779296875</ele>
        <time>2020-02-22T10:17:12.000Z</time>
      </trkpt>
      <trkpt lat="38.078263588249683380126953125" lon="-1.46365723572671413421630859375">
        <ele>347.79998779296875</ele>
        <time>2020-02-22T10:17:13.000Z</time>
      </trkpt>
      <trkpt lat="38.0782069265842437744140625" lon="-1.46342053078114986419677734375">
        <ele>347.399993896484375</ele>
        <time>2020-02-22T10:17:15.000Z</time>
      </trkpt>
      <trkpt lat="38.07817113585770130157470703125" lon="-1.463155411183834075927734375">
        <ele>347.399993896484375</ele>
        <time>2020-02-22T10:17:17.000Z</time>
      </trkpt>
      <trkpt lat="38.07810701429843902587890625" lon="-1.46255753003060817718505859375">
        <ele>346.20001220703125</ele>
        <time>2020-02-22T10:17:21.000Z</time>
      </trkpt>
      <trkpt lat="38.07809452526271343231201171875" lon="-1.46239743568003177642822265625">
        <ele>345.600006103515625</ele>
        <time>2020-02-22T10:17:22.000Z</time>
      </trkpt>
      <trkpt lat="38.0780827067792415618896484375" lon="-1.462239436805248260498046875">
        <ele>345</ele>
        <time>2020-02-22T10:17:23.000Z</time>
      </trkpt>
      <trkpt lat="38.07806074619293212890625" lon="-1.46194850094616413116455078125">
        <ele>343.20001220703125</ele>
        <time>2020-02-22T10:17:25.000Z</time>
      </trkpt>
      <trkpt lat="38.07804532349109649658203125" lon="-1.4618127979338169097900390625">
        <ele>342.20001220703125</ele>
        <time>2020-02-22T10:17:26.000Z</time>
      </trkpt>
      <trkpt lat="38.07802520692348480224609375" lon="-1.46168011240661144256591796875">
        <ele>341.20001220703125</ele>
        <time>2020-02-22T10:17:27.000Z</time>
      </trkpt>
      <trkpt lat="38.07799964211881160736083984375" lon="-1.46154751069843769073486328125">
        <ele>340.20001220703125</ele>
        <time>2020-02-22T10:17:28.000Z</time>
      </trkpt>
      <trkpt lat="38.07793443091213703155517578125" lon="-1.46128800697624683380126953125">
        <ele>338.600006103515625</ele>
        <time>2020-02-22T10:17:30.000Z</time>
      </trkpt>
      <trkpt lat="38.07785413227975368499755859375" lon="-1.46103973500430583953857421875">
        <ele>337.20001220703125</ele>
        <time>2020-02-22T10:17:32.000Z</time>
      </trkpt>
      <trkpt lat="38.07768934406340122222900390625" lon="-1.4605848491191864013671875">
        <ele>336</ele>
        <time>2020-02-22T10:17:36.000Z</time>
      </trkpt>
      <trkpt lat="38.0776361189782619476318359375" lon="-1.4604737050831317901611328125">
        <ele>335.399993896484375</ele>
        <time>2020-02-22T10:17:37.000Z</time>
      </trkpt>
      <trkpt lat="38.07757400907576084136962890625" lon="-1.4603660814464092254638671875">
        <ele>334.600006103515625</ele>
        <time>2020-02-22T10:17:38.000Z</time>
      </trkpt>
      <trkpt lat="38.077425397932529449462890625" lon="-1.460174806416034698486328125">
        <ele>333.399993896484375</ele>
        <time>2020-02-22T10:17:40.000Z</time>
      </trkpt>
      <trkpt lat="38.07734803296625614166259765625" lon="-1.46007992327213287353515625">
        <ele>332.79998779296875</ele>
        <time>2020-02-22T10:17:41.000Z</time>
      </trkpt>
      <trkpt lat="38.07727821171283721923828125" lon="-1.45997841842472553253173828125">
        <ele>331.79998779296875</ele>
        <time>2020-02-22T10:17:42.000Z</time>
      </trkpt>
      <trkpt lat="38.07718408294022083282470703125" lon="-1.45977373234927654266357421875">
        <ele>331.20001220703125</ele>
        <time>2020-02-22T10:17:44.000Z</time>
      </trkpt>
      <trkpt lat="38.07716296054422855377197265625" lon="-1.4596797712147235870361328125">
        <ele>330.79998779296875</ele>
        <time>2020-02-22T10:17:45.000Z</time>
      </trkpt>
      <trkpt lat="38.07715952396392822265625" lon="-1.4594923518598079681396484375">
        <ele>329.79998779296875</ele>
        <time>2020-02-22T10:17:47.000Z</time>
      </trkpt>
      <trkpt lat="38.07716547511518001556396484375" lon="-1.45939855836331844329833984375">
        <ele>329</ele>
        <time>2020-02-22T10:17:48.000Z</time>
      </trkpt>
      <trkpt lat="38.0771617032587528228759765625" lon="-1.45929847843945026397705078125">
        <ele>328.20001220703125</ele>
        <time>2020-02-22T10:17:49.000Z</time>
      </trkpt>
      <trkpt lat="38.07709221728146076202392578125" lon="-1.4591114781796932220458984375">
        <ele>326.79998779296875</ele>
        <time>2020-02-22T10:17:51.000Z</time>
      </trkpt>
      <trkpt lat="38.07702742516994476318359375" lon="-1.45903310738503932952880859375">
        <ele>326.79998779296875</ele>
        <time>2020-02-22T10:17:52.000Z</time>
      </trkpt>
      <trkpt lat="38.0768716894090175628662109375" lon="-1.45891408436000347137451171875">
        <ele>326.20001220703125</ele>
        <time>2020-02-22T10:17:54.000Z</time>
      </trkpt>
      <trkpt lat="38.0766564421355724334716796875" lon="-1.458744518458843231201171875">
        <ele>326.20001220703125</ele>
        <time>2020-02-22T10:17:57.000Z</time>
      </trkpt>
      <trkpt lat="38.0765320546925067901611328125" lon="-1.45861434750258922576904296875">
        <ele>326</ele>
        <time>2020-02-22T10:17:59.000Z</time>
      </trkpt>
      <trkpt lat="38.0762569606304168701171875" lon="-1.458238251507282257080078125">
        <ele>325.79998779296875</ele>
        <time>2020-02-22T10:18:04.000Z</time>
      </trkpt>
      <trkpt lat="38.07620373554527759552001953125" lon="-1.4581572823226451873779296875">
        <ele>325.79998779296875</ele>
        <time>2020-02-22T10:18:05.000Z</time>
      </trkpt>
      <trkpt lat="38.07604950852692127227783203125" lon="-1.4579031430184841156005859375">
        <ele>325.79998779296875</ele>
        <time>2020-02-22T10:18:08.000Z</time>
      </trkpt>
      <trkpt lat="38.0759506858885288238525390625" lon="-1.45771396346390247344970703125">
        <ele>325.79998779296875</ele>
        <time>2020-02-22T10:18:10.000Z</time>
      </trkpt>
      <trkpt lat="38.07590047828853130340576171875" lon="-1.457616984844207763671875">
        <ele>325.79998779296875</ele>
        <time>2020-02-22T10:18:11.000Z</time>
      </trkpt>
      <trkpt lat="38.07574801146984100341796875" lon="-1.45731900818645954132080078125">
        <ele>324.79998779296875</ele>
        <time>2020-02-22T10:18:14.000Z</time>
      </trkpt>
      <trkpt lat="38.07554542087018489837646484375" lon="-1.45691198296844959259033203125">
        <ele>323.600006103515625</ele>
        <time>2020-02-22T10:18:18.000Z</time>
      </trkpt>
      <trkpt lat="38.0754388868808746337890625" lon="-1.45670277066528797149658203125">
        <ele>323</ele>
        <time>2020-02-22T10:18:20.000Z</time>
      </trkpt>
      <trkpt lat="38.075386248528957366943359375" lon="-1.45659514702856540679931640625">
        <ele>322.600006103515625</ele>
        <time>2020-02-22T10:18:21.000Z</time>
      </trkpt>
      <trkpt lat="38.07518701069056987762451171875" lon="-1.45613296888768672943115234375">
        <ele>321</ele>
        <time>2020-02-22T10:18:25.000Z</time>
      </trkpt>
      <trkpt lat="38.07509581558406352996826171875" lon="-1.45589291118085384368896484375">
        <ele>319.79998779296875</ele>
        <time>2020-02-22T10:18:27.000Z</time>
      </trkpt>
      <trkpt lat="38.075004704296588897705078125" lon="-1.455656625330448150634765625">
        <ele>319.20001220703125</ele>
        <time>2020-02-22T10:18:29.000Z</time>
      </trkpt>
      <trkpt lat="38.0748783051967620849609375" lon="-1.45530961453914642333984375">
        <ele>318.600006103515625</ele>
        <time>2020-02-22T10:18:32.000Z</time>
      </trkpt>
      <trkpt lat="38.0747322924435138702392578125" lon="-1.4549684710800647735595703125">
        <ele>317.20001220703125</ele>
        <time>2020-02-22T10:18:35.000Z</time>
      </trkpt>
      <trkpt lat="38.07461720891296863555908203125" lon="-1.45474794320762157440185546875">
        <ele>316.20001220703125</ele>
        <time>2020-02-22T10:18:37.000Z</time>
      </trkpt>
      <trkpt lat="38.07443163357675075531005859375" lon="-1.45442825742065906524658203125">
        <ele>315</ele>
        <time>2020-02-22T10:18:40.000Z</time>
      </trkpt>
      <trkpt lat="38.0743655003607273101806640625" lon="-1.45432666875422000885009765625">
        <ele>314.79998779296875</ele>
        <time>2020-02-22T10:18:41.000Z</time>
      </trkpt>
      <trkpt lat="38.0742399394512176513671875" lon="-1.454119384288787841796875">
        <ele>314.20001220703125</ele>
        <time>2020-02-22T10:18:43.000Z</time>
      </trkpt>
      <trkpt lat="38.07418101467192173004150390625" lon="-1.45401385612785816192626953125">
        <ele>314</ele>
        <time>2020-02-22T10:18:44.000Z</time>
      </trkpt>
      <trkpt lat="38.07402066886425018310546875" lon="-1.453685872256755828857421875">
        <ele>312.79998779296875</ele>
        <time>2020-02-22T10:18:47.000Z</time>
      </trkpt>
      <trkpt lat="38.07397104799747467041015625" lon="-1.4535717107355594635009765625">
        <ele>312.399993896484375</ele>
        <time>2020-02-22T10:18:48.000Z</time>
      </trkpt>
      <trkpt lat="38.07387742213904857635498046875" lon="-1.45335135050117969512939453125">
        <ele>311.399993896484375</ele>
        <time>2020-02-22T10:18:50.000Z</time>
      </trkpt>
      <trkpt lat="38.07383199222385883331298828125" lon="-1.45324305631220340728759765625">
        <ele>310.79998779296875</ele>
        <time>2020-02-22T10:18:51.000Z</time>
      </trkpt>
      <trkpt lat="38.0737395398318767547607421875" lon="-1.45302898250520229339599609375">
        <ele>310.20001220703125</ele>
        <time>2020-02-22T10:18:53.000Z</time>
      </trkpt>
      <trkpt lat="38.073602579534053802490234375" lon="-1.4527093805372714996337890625">
        <ele>309.600006103515625</ele>
        <time>2020-02-22T10:18:56.000Z</time>
      </trkpt>
      <trkpt lat="38.07350694201886653900146484375" lon="-1.4524948038160800933837890625">
        <ele>309</ele>
        <time>2020-02-22T10:18:58.000Z</time>
      </trkpt>
      <trkpt lat="38.07331248186528682708740234375" lon="-1.4520633034408092498779296875">
        <ele>307.79998779296875</ele>
        <time>2020-02-22T10:19:02.000Z</time>
      </trkpt>
      <trkpt lat="38.07317401282489299774169921875" lon="-1.45171738229691982269287109375">
        <ele>307.20001220703125</ele>
        <time>2020-02-22T10:19:05.000Z</time>
      </trkpt>
      <trkpt lat="38.07313562370836734771728515625" lon="-1.4515929110348224639892578125">
        <ele>306.79998779296875</ele>
        <time>2020-02-22T10:19:06.000Z</time>
      </trkpt>
      <trkpt lat="38.0730763636529445648193359375" lon="-1.45133215002715587615966796875">
        <ele>305.600006103515625</ele>
        <time>2020-02-22T10:19:08.000Z</time>
      </trkpt>
      <trkpt lat="38.07304644025862216949462890625" lon="-1.45120172761380672454833984375">
        <ele>305.399993896484375</ele>
        <time>2020-02-22T10:19:09.000Z</time>
      </trkpt>
      <trkpt lat="38.0729670636355876922607421875" lon="-1.45095529966056346893310546875">
        <ele>304.20001220703125</ele>
        <time>2020-02-22T10:19:11.000Z</time>
      </trkpt>
      <trkpt lat="38.07292154990136623382568359375" lon="-1.45083728246390819549560546875">
        <ele>303.600006103515625</ele>
        <time>2020-02-22T10:19:12.000Z</time>
      </trkpt>
      <trkpt lat="38.0728758685290813446044921875" lon="-1.4507181756198406219482421875">
        <ele>303.399993896484375</ele>
        <time>2020-02-22T10:19:13.000Z</time>
      </trkpt>
      <trkpt lat="38.07283085770905017852783203125" lon="-1.4505984820425510406494140625">
        <ele>303</ele>
        <time>2020-02-22T10:19:14.000Z</time>
      </trkpt>
      <trkpt lat="38.07269104756414890289306640625" lon="-1.45023747347295284271240234375">
        <ele>301.79998779296875</ele>
        <time>2020-02-22T10:19:17.000Z</time>
      </trkpt>
      <trkpt lat="38.07255106978118419647216796875" lon="-1.44988090731203556060791015625">
        <ele>300.600006103515625</ele>
        <time>2020-02-22T10:19:20.000Z</time>
      </trkpt>
      <trkpt lat="38.0724621377885341644287109375" lon="-1.44963716156780719757080078125">
        <ele>299.399993896484375</ele>
        <time>2020-02-22T10:19:22.000Z</time>
      </trkpt>
      <trkpt lat="38.07237521745264530181884765625" lon="-1.44939132034778594970703125">
        <ele>298.399993896484375</ele>
        <time>2020-02-22T10:19:24.000Z</time>
      </trkpt>
      <trkpt lat="38.072337247431278228759765625" lon="-1.44926819019019603729248046875">
        <ele>297.79998779296875</ele>
        <time>2020-02-22T10:19:25.000Z</time>
      </trkpt>
      <trkpt lat="38.07224445976316928863525390625" lon="-1.44888572394847869873046875">
        <ele>296.399993896484375</ele>
        <time>2020-02-22T10:19:28.000Z</time>
      </trkpt>
      <trkpt lat="38.0721865408122539520263671875" lon="-1.448624543845653533935546875">
        <ele>295.600006103515625</ele>
        <time>2020-02-22T10:19:30.000Z</time>
      </trkpt>
      <trkpt lat="38.0721587128937244415283203125" lon="-1.448495127260684967041015625">
        <ele>295.20001220703125</ele>
        <time>2020-02-22T10:19:31.000Z</time>
      </trkpt>
      <trkpt lat="38.0720802582800388336181640625" lon="-1.44812238402664661407470703125">
        <ele>294.20001220703125</ele>
        <time>2020-02-22T10:19:34.000Z</time>
      </trkpt>
      <trkpt lat="38.0720014683902263641357421875" lon="-1.447756849229335784912109375">
        <ele>293</ele>
        <time>2020-02-22T10:19:37.000Z</time>
      </trkpt>
      <trkpt lat="38.07191689498722553253173828125" lon="-1.44740506075322628021240234375">
        <ele>291.79998779296875</ele>
        <time>2020-02-22T10:19:40.000Z</time>
      </trkpt>
      <trkpt lat="38.071867860853672027587890625" lon="-1.447093002498149871826171875">
        <ele>290.79998779296875</ele>
        <time>2020-02-22T10:19:43.000Z</time>
      </trkpt>
      <trkpt lat="38.071883283555507659912109375" lon="-1.44699987955391407012939453125">
        <ele>290.600006103515625</ele>
        <time>2020-02-22T10:19:44.000Z</time>
      </trkpt>
      <trkpt lat="38.07194623164832592010498046875" lon="-1.4468115381896495819091796875">
        <ele>290.399993896484375</ele>
        <time>2020-02-22T10:19:46.000Z</time>
      </trkpt>
      <trkpt lat="38.071990907192230224609375" lon="-1.44671422429382801055908203125">
        <ele>290.20001220703125</ele>
        <time>2020-02-22T10:19:47.000Z</time>
      </trkpt>
      <trkpt lat="38.0720380134880542755126953125" lon="-1.44661582075059413909912109375">
        <ele>289.600006103515625</ele>
        <time>2020-02-22T10:19:48.000Z</time>
      </trkpt>
      <trkpt lat="38.07213239371776580810546875" lon="-1.44641499035060405731201171875">
        <ele>289</ele>
        <time>2020-02-22T10:19:50.000Z</time>
      </trkpt>
      <trkpt lat="38.072174303233623504638671875" lon="-1.44631683826446533203125">
        <ele>288.600006103515625</ele>
        <time>2020-02-22T10:19:51.000Z</time>
      </trkpt>
      <trkpt lat="38.0722187273204326629638671875" lon="-1.44622136838734149932861328125">
        <ele>288.20001220703125</ele>
        <time>2020-02-22T10:19:52.000Z</time>
      </trkpt>
      <trkpt lat="38.07230078615248203277587890625" lon="-1.446028836071491241455078125">
        <ele>287.79998779296875</ele>
        <time>2020-02-22T10:19:54.000Z</time>
      </trkpt>
      <trkpt lat="38.07256883941590785980224609375" lon="-1.445391140878200531005859375">
        <ele>287.79998779296875</ele>
        <time>2020-02-22T10:20:01.000Z</time>
      </trkpt>
      <trkpt lat="38.072718791663646697998046875" lon="-1.44503482617437839508056640625">
        <ele>287.79998779296875</ele>
        <time>2020-02-22T10:20:05.000Z</time>
      </trkpt>
      <trkpt lat="38.0728322826325893402099609375" lon="-1.4447839558124542236328125">
        <ele>288.20001220703125</ele>
        <time>2020-02-22T10:20:08.000Z</time>
      </trkpt>
      <trkpt lat="38.07290797121822834014892578125" lon="-1.444624699652194976806640625">
        <ele>288.399993896484375</ele>
        <time>2020-02-22T10:20:10.000Z</time>
      </trkpt>
      <trkpt lat="38.07310846634209156036376953125" lon="-1.44405372440814971923828125">
        <ele>289</ele>
        <time>2020-02-22T10:20:17.000Z</time>
      </trkpt>
      <trkpt lat="38.07315926067531108856201171875" lon="-1.4436881057918071746826171875">
        <ele>289.20001220703125</ele>
        <time>2020-02-22T10:20:22.000Z</time>
      </trkpt>
      <trkpt lat="38.073155991733074188232421875" lon="-1.4436284266412258148193359375">
        <ele>289.399993896484375</ele>
        <time>2020-02-22T10:20:23.000Z</time>
      </trkpt>
      <trkpt lat="38.07314082048833370208740234375" lon="-1.44353044219315052032470703125">
        <ele>289.399993896484375</ele>
        <time>2020-02-22T10:20:25.000Z</time>
      </trkpt>
      <trkpt lat="38.07312590070068836212158203125" lon="-1.44348819740116596221923828125">
        <ele>289.399993896484375</ele>
        <time>2020-02-22T10:20:26.000Z</time>
      </trkpt>
      <trkpt lat="38.07305750437080860137939453125" lon="-1.4434852637350559234619140625">
        <ele>289.79998779296875</ele>
        <time>2020-02-22T10:20:29.000Z</time>
      </trkpt>
      <trkpt lat="38.073025234043598175048828125" lon="-1.4435023628175258636474609375">
        <ele>290.20001220703125</ele>
        <time>2020-02-22T10:20:30.000Z</time>
      </trkpt>
      <trkpt lat="38.07298399507999420166015625" lon="-1.4435030333697795867919921875">
        <ele>290.600006103515625</ele>
        <time>2020-02-22T10:20:31.000Z</time>
      </trkpt>
      <trkpt lat="38.07294250465929508209228515625" lon="-1.4435073919594287872314453125">
        <ele>290.79998779296875</ele>
        <time>2020-02-22T10:20:32.000Z</time>
      </trkpt>
      <trkpt lat="38.07290294207632541656494140625" lon="-1.44350965507328510284423828125">
        <ele>291</ele>
        <time>2020-02-22T10:20:33.000Z</time>
      </trkpt>
      <trkpt lat="38.07275357656180858612060546875" lon="-1.443507559597492218017578125">
        <ele>292</ele>
        <time>2020-02-22T10:20:37.000Z</time>
      </trkpt>
      <trkpt lat="38.07268350385129451751708984375" lon="-1.4434902928769588470458984375">
        <ele>292.20001220703125</ele>
        <time>2020-02-22T10:20:39.000Z</time>
      </trkpt>
      <trkpt lat="38.0725312046706676483154296875" lon="-1.443383507430553436279296875">
        <ele>292.20001220703125</ele>
        <time>2020-02-22T10:20:44.000Z</time>
      </trkpt>
      <trkpt lat="38.07245652191340923309326171875" lon="-1.44329407252371311187744140625">
        <ele>291.600006103515625</ele>
        <time>2020-02-22T10:20:49.000Z</time>
      </trkpt>
      <trkpt lat="38.0724535882472991943359375" lon="-1.44329600036144256591796875">
        <ele>291.600006103515625</ele>
        <time>2020-02-22T10:20:50.000Z</time>
      </trkpt>
      <trkpt lat="38.07237136177718639373779296875" lon="-1.4432331360876560211181640625">
        <ele>291.20001220703125</ele>
        <time>2020-02-22T10:21:38.000Z</time>
      </trkpt>
      <trkpt lat="38.072360716760158538818359375" lon="-1.4432281069457530975341796875">
        <ele>291.20001220703125</ele>
        <time>2020-02-22T10:21:39.000Z</time>
      </trkpt>
      <trkpt lat="38.0723504908382892608642578125" lon="-1.44321955740451812744140625">
        <ele>291.20001220703125</ele>
        <time>2020-02-22T10:21:41.000Z</time>
      </trkpt>
      <trkpt lat="38.07234688661992549896240234375" lon="-1.4432136900722980499267578125">
        <ele>291</ele>
        <time>2020-02-22T10:21:42.000Z</time>
      </trkpt>
      <trkpt lat="38.0722512491047382354736328125" lon="-1.44310665316879749298095703125">
        <ele>291</ele>
        <time>2020-02-22T10:21:52.000Z</time>
      </trkpt>
      <trkpt lat="38.07222199626266956329345703125" lon="-1.443069018423557281494140625">
        <ele>291</ele>
        <time>2020-02-22T10:21:53.000Z</time>
      </trkpt>
      <trkpt lat="38.0720678530633449554443359375" lon="-1.4428608119487762451171875">
        <ele>291</ele>
        <time>2020-02-22T10:21:57.000Z</time>
      </trkpt>
      <trkpt lat="38.07180860079824924468994140625" lon="-1.44259418360888957977294921875">
        <ele>290.20001220703125</ele>
        <time>2020-02-22T10:22:02.000Z</time>
      </trkpt>
      <trkpt lat="38.0717523582279682159423828125" lon="-1.4425713010132312774658203125">
        <ele>289.79998779296875</ele>
        <time>2020-02-22T10:22:03.000Z</time>
      </trkpt>
      <trkpt lat="38.07164498604834079742431640625" lon="-1.4425907470285892486572265625">
        <ele>289</ele>
        <time>2020-02-22T10:22:05.000Z</time>
      </trkpt>
      <trkpt lat="38.0715944431722164154052734375" lon="-1.44262486137449741363525390625">
        <ele>288.399993896484375</ele>
        <time>2020-02-22T10:22:06.000Z</time>
      </trkpt>
      <trkpt lat="38.07150584645569324493408203125" lon="-1.44272343255579471588134765625">
        <ele>287.20001220703125</ele>
        <time>2020-02-22T10:22:08.000Z</time>
      </trkpt>
      <trkpt lat="38.07146427221596240997314453125" lon="-1.4427778311073780059814453125">
        <ele>286.600006103515625</ele>
        <time>2020-02-22T10:22:09.000Z</time>
      </trkpt>
      <trkpt lat="38.0714207701385021209716796875" lon="-1.44283063709735870361328125">
        <ele>286</ele>
        <time>2020-02-22T10:22:10.000Z</time>
      </trkpt>
      <trkpt lat="38.07137307710945606231689453125" lon="-1.44288050942122936248779296875">
        <ele>285.600006103515625</ele>
        <time>2020-02-22T10:22:11.000Z</time>
      </trkpt>
      <trkpt lat="38.07126696221530437469482421875" lon="-1.4429414458572864532470703125">
        <ele>285.20001220703125</ele>
        <time>2020-02-22T10:22:13.000Z</time>
      </trkpt>
      <trkpt lat="38.0711569078266620635986328125" lon="-1.442955024540424346923828125">
        <ele>284.79998779296875</ele>
        <time>2020-02-22T10:22:15.000Z</time>
      </trkpt>
      <trkpt lat="38.07104869745671749114990234375" lon="-1.44294287078082561492919921875">
        <ele>284.399993896484375</ele>
        <time>2020-02-22T10:22:17.000Z</time>
      </trkpt>
      <trkpt lat="38.07094727642834186553955078125" lon="-1.4429401047527790069580078125">
        <ele>284.20001220703125</ele>
        <time>2020-02-22T10:22:19.000Z</time>
      </trkpt>
      <trkpt lat="38.07087435387074947357177734375" lon="-1.44294085912406444549560546875">
        <ele>284</ele>
        <time>2020-02-22T10:22:21.000Z</time>
      </trkpt>
      <trkpt lat="38.07079724036157131195068359375" lon="-1.442925520241260528564453125">
        <ele>284</ele>
        <time>2020-02-22T10:22:25.000Z</time>
      </trkpt>
      <trkpt lat="38.0707834102213382720947265625" lon="-1.4429333992302417755126953125">
        <ele>284</ele>
        <time>2020-02-22T10:22:26.000Z</time>
      </trkpt>
      <trkpt lat="38.07071409188210964202880859375" lon="-1.44303238950669765472412109375">
        <ele>284.79998779296875</ele>
        <time>2020-02-22T10:22:33.000Z</time>
      </trkpt>
      <trkpt lat="38.07070353068411350250244140625" lon="-1.4430480636656284332275390625">
        <ele>284.600006103515625</ele>
        <time>2020-02-22T10:22:34.000Z</time>
      </trkpt>
      <trkpt lat="38.07065290398895740509033203125" lon="-1.44313649274408817291259765625">
        <ele>285.20001220703125</ele>
        <time>2020-02-22T10:22:38.000Z</time>
      </trkpt>
      <trkpt lat="38.0706077255308628082275390625" lon="-1.4432498998939990997314453125">
        <ele>285.20001220703125</ele>
        <time>2020-02-22T10:22:41.000Z</time>
      </trkpt>
      <trkpt lat="38.07049549184739589691162109375" lon="-1.44353815354406833648681640625">
        <ele>285</ele>
        <time>2020-02-22T10:22:49.000Z</time>
      </trkpt>
      <trkpt lat="38.0704313702881336212158203125" lon="-1.4436976611614227294921875">
        <ele>285</ele>
        <time>2020-02-22T10:22:52.000Z</time>
      </trkpt>
      <trkpt lat="38.0703844316303730010986328125" lon="-1.44381911493837833404541015625">
        <ele>285</ele>
        <time>2020-02-22T10:22:54.000Z</time>
      </trkpt>
      <trkpt lat="38.07025308720767498016357421875" lon="-1.44413125701248645782470703125">
        <ele>284.600006103515625</ele>
        <time>2020-02-22T10:22:59.000Z</time>
      </trkpt>
      <trkpt lat="38.07018578052520751953125" lon="-1.4442969672381877899169921875">
        <ele>284</ele>
        <time>2020-02-22T10:23:02.000Z</time>
      </trkpt>
      <trkpt lat="38.07016574777662754058837890625" lon="-1.4443521201610565185546875">
        <ele>284</ele>
        <time>2020-02-22T10:23:03.000Z</time>
      </trkpt>
      <trkpt lat="38.0700074136257171630859375" lon="-1.44475855864584445953369140625">
        <ele>283.399993896484375</ele>
        <time>2020-02-22T10:23:11.000Z</time>
      </trkpt>
      <trkpt lat="38.0699354968965053558349609375" lon="-1.44494421780109405517578125">
        <ele>283.600006103515625</ele>
        <time>2020-02-22T10:23:15.000Z</time>
      </trkpt>
      <trkpt lat="38.069905154407024383544921875" lon="-1.44503541290760040283203125">
        <ele>283.600006103515625</ele>
        <time>2020-02-22T10:23:17.000Z</time>
      </trkpt>
      <trkpt lat="38.0698758177459239959716796875" lon="-1.44512585364282131195068359375">
        <ele>283.79998779296875</ele>
        <time>2020-02-22T10:23:19.000Z</time>
      </trkpt>
      <trkpt lat="38.0698580481112003326416015625" lon="-1.445171870291233062744140625">
        <ele>284</ele>
        <time>2020-02-22T10:23:20.000Z</time>
      </trkpt>
      <trkpt lat="38.0698168091475963592529296875" lon="-1.4452665857970714569091796875">
        <ele>284.399993896484375</ele>
        <time>2020-02-22T10:23:22.000Z</time>
      </trkpt>
      <trkpt lat="38.069776408374309539794921875" lon="-1.44536197185516357421875">
        <ele>284.79998779296875</ele>
        <time>2020-02-22T10:23:24.000Z</time>
      </trkpt>
      <trkpt lat="38.0697417072951793670654296875" lon="-1.4454546757042407989501953125">
        <ele>285</ele>
        <time>2020-02-22T10:23:26.000Z</time>
      </trkpt>
      <trkpt lat="38.0696930922567844390869140625" lon="-1.445584595203399658203125">
        <ele>285.79998779296875</ele>
        <time>2020-02-22T10:23:29.000Z</time>
      </trkpt>
      <trkpt lat="38.0696391128003597259521484375" lon="-1.445714347064495086669921875">
        <ele>286.20001220703125</ele>
        <time>2020-02-22T10:23:32.000Z</time>
      </trkpt>
      <trkpt lat="38.06955906562507152557373046875" lon="-1.44588726572692394256591796875">
        <ele>287.399993896484375</ele>
        <time>2020-02-22T10:23:36.000Z</time>
      </trkpt>
      <trkpt lat="38.06950139813125133514404296875" lon="-1.44601835869252681732177734375">
        <ele>288.20001220703125</ele>
        <time>2020-02-22T10:23:39.000Z</time>
      </trkpt>
      <trkpt lat="38.06948396377265453338623046875" lon="-1.44606194458901882171630859375">
        <ele>288.399993896484375</ele>
        <time>2020-02-22T10:23:40.000Z</time>
      </trkpt>
      <trkpt lat="38.0693796090781688690185546875" lon="-1.44632345996797084808349609375">
        <ele>289.399993896484375</ele>
        <time>2020-02-22T10:23:46.000Z</time>
      </trkpt>
      <trkpt lat="38.0693437345325946807861328125" lon="-1.4464149065315723419189453125">
        <ele>290</ele>
        <time>2020-02-22T10:23:48.000Z</time>
      </trkpt>
      <trkpt lat="38.06928791105747222900390625" lon="-1.4465523697435855865478515625">
        <ele>290.399993896484375</ele>
        <time>2020-02-22T10:23:51.000Z</time>
      </trkpt>
      <trkpt lat="38.0691861547529697418212890625" lon="-1.44677675329148769378662109375">
        <ele>291.399993896484375</ele>
        <time>2020-02-22T10:23:56.000Z</time>
      </trkpt>
      <trkpt lat="38.06908532045781612396240234375" lon="-1.4469627477228641510009765625">
        <ele>292.399993896484375</ele>
        <time>2020-02-22T10:24:00.000Z</time>
      </trkpt>
      <trkpt lat="38.06905849836766719818115234375" lon="-1.44700683653354644775390625">
        <ele>292.600006103515625</ele>
        <time>2020-02-22T10:24:01.000Z</time>
      </trkpt>
      <trkpt lat="38.0689460970461368560791015625" lon="-1.44717606715857982635498046875">
        <ele>293.79998779296875</ele>
        <time>2020-02-22T10:24:05.000Z</time>
      </trkpt>
      <trkpt lat="38.068816177546977996826171875" lon="-1.44734001718461513519287109375">
        <ele>294.20001220703125</ele>
        <time>2020-02-22T10:24:09.000Z</time>
      </trkpt>
      <trkpt lat="38.06870511732995510101318359375" lon="-1.44747127778828144073486328125">
        <ele>294.79998779296875</ele>
        <time>2020-02-22T10:24:12.000Z</time>
      </trkpt>
      <trkpt lat="38.068538568913936614990234375" lon="-1.44762030802667140960693359375">
        <ele>295.399993896484375</ele>
        <time>2020-02-22T10:24:16.000Z</time>
      </trkpt>
      <trkpt lat="38.06840068660676479339599609375" lon="-1.44770965911448001861572265625">
        <ele>295.79998779296875</ele>
        <time>2020-02-22T10:24:19.000Z</time>
      </trkpt>
      <trkpt lat="38.06809365749359130859375" lon="-1.447856426239013671875">
        <ele>296.79998779296875</ele>
        <time>2020-02-22T10:24:25.000Z</time>
      </trkpt>
      <trkpt lat="38.06803775019943714141845703125" lon="-1.44787712953984737396240234375">
        <ele>297</ele>
        <time>2020-02-22T10:24:26.000Z</time>
      </trkpt>
      <trkpt lat="38.06766542606055736541748046875" lon="-1.44794820807874202728271484375">
        <ele>297.399993896484375</ele>
        <time>2020-02-22T10:24:32.000Z</time>
      </trkpt>
      <trkpt lat="38.0672516115009784698486328125" lon="-1.44790445454418659210205078125">
        <ele>297.399993896484375</ele>
        <time>2020-02-22T10:24:38.000Z</time>
      </trkpt>
      <trkpt lat="38.0668083764612674713134765625" lon="-1.4477653987705707550048828125">
        <ele>296.79998779296875</ele>
        <time>2020-02-22T10:24:44.000Z</time>
      </trkpt>
      <trkpt lat="38.0667302571237087249755859375" lon="-1.44773396663367748260498046875">
        <ele>296.600006103515625</ele>
        <time>2020-02-22T10:24:45.000Z</time>
      </trkpt>
      <trkpt lat="38.0663306079804897308349609375" lon="-1.447565071284770965576171875">
        <ele>295.79998779296875</ele>
        <time>2020-02-22T10:24:50.000Z</time>
      </trkpt>
      <trkpt lat="38.0661679990589618682861328125" lon="-1.4474914781749248504638671875">
        <ele>295.399993896484375</ele>
        <time>2020-02-22T10:24:52.000Z</time>
      </trkpt>
      <trkpt lat="38.0660050548613071441650390625" lon="-1.4474203996360301971435546875">
        <ele>294.79998779296875</ele>
        <time>2020-02-22T10:24:54.000Z</time>
      </trkpt>
      <trkpt lat="38.0656731314957141876220703125" lon="-1.44727505743503570556640625">
        <ele>294.20001220703125</ele>
        <time>2020-02-22T10:24:58.000Z</time>
      </trkpt>
      <trkpt lat="38.0654240213334560394287109375" lon="-1.4471733011305332183837890625">
        <ele>293.600006103515625</ele>
        <time>2020-02-22T10:25:01.000Z</time>
      </trkpt>
      <trkpt lat="38.06526551954448223114013671875" lon="-1.4471065811812877655029296875">
        <ele>293</ele>
        <time>2020-02-22T10:25:03.000Z</time>
      </trkpt>
      <trkpt lat="38.06518823839724063873291015625" lon="-1.44707531668245792388916015625">
        <ele>292.79998779296875</ele>
        <time>2020-02-22T10:25:04.000Z</time>
      </trkpt>
      <trkpt lat="38.065110705792903900146484375" lon="-1.44704195670783519744873046875">
        <ele>292.20001220703125</ele>
        <time>2020-02-22T10:25:05.000Z</time>
      </trkpt>
      <trkpt lat="38.0649583227932453155517578125" lon="-1.44697657786309719085693359375">
        <ele>291.600006103515625</ele>
        <time>2020-02-22T10:25:07.000Z</time>
      </trkpt>
      <trkpt lat="38.0645878426730632781982421875" lon="-1.446822099387645721435546875">
        <ele>291</ele>
        <time>2020-02-22T10:25:12.000Z</time>
      </trkpt>
      <trkpt lat="38.0645157583057880401611328125" lon="-1.44678982906043529510498046875">
        <ele>291</ele>
        <time>2020-02-22T10:25:13.000Z</time>
      </trkpt>
      <trkpt lat="38.06395609863102436065673828125" lon="-1.44654088653624057769775390625">
        <ele>290.79998779296875</ele>
        <time>2020-02-22T10:25:21.000Z</time>
      </trkpt>
      <trkpt lat="38.0638141930103302001953125" lon="-1.4464833028614521026611328125">
        <ele>290.79998779296875</ele>
        <time>2020-02-22T10:25:23.000Z</time>
      </trkpt>
      <trkpt lat="38.06340985000133514404296875" lon="-1.44630619324743747711181640625">
        <ele>290.79998779296875</ele>
        <time>2020-02-22T10:25:29.000Z</time>
      </trkpt>
      <trkpt lat="38.0632014758884906768798828125" lon="-1.44620862789452075958251953125">
        <ele>291</ele>
        <time>2020-02-22T10:25:32.000Z</time>
      </trkpt>
      <trkpt lat="38.06291288696229457855224609375" lon="-1.4460856653749942779541015625">
        <ele>291.600006103515625</ele>
        <time>2020-02-22T10:25:36.000Z</time>
      </trkpt>
      <trkpt lat="38.06277257390320301055908203125" lon="-1.44603126682341098785400390625">
        <ele>291.600006103515625</ele>
        <time>2020-02-22T10:25:38.000Z</time>
      </trkpt>
      <trkpt lat="38.06255615316331386566162109375" lon="-1.44595750607550144195556640625">
        <ele>291.79998779296875</ele>
        <time>2020-02-22T10:25:41.000Z</time>
      </trkpt>
      <trkpt lat="38.0621812306344509124755859375" lon="-1.44589413888752460479736328125">
        <ele>292</ele>
        <time>2020-02-22T10:25:46.000Z</time>
      </trkpt>
      <trkpt lat="38.0621044524013996124267578125" lon="-1.44589237868785858154296875">
        <ele>292.20001220703125</ele>
        <time>2020-02-22T10:25:47.000Z</time>
      </trkpt>
      <trkpt lat="38.0618767999112606048583984375" lon="-1.445906795561313629150390625">
        <ele>292.399993896484375</ele>
        <time>2020-02-22T10:25:50.000Z</time>
      </trkpt>
      <trkpt lat="38.061650656163692474365234375" lon="-1.44595331512391567230224609375">
        <ele>292.399993896484375</ele>
        <time>2020-02-22T10:25:53.000Z</time>
      </trkpt>
      <trkpt lat="38.06120348162949085235595703125" lon="-1.4461634494364261627197265625">
        <ele>292.79998779296875</ele>
        <time>2020-02-22T10:25:59.000Z</time>
      </trkpt>
      <trkpt lat="38.06081213057041168212890625" lon="-1.446501910686492919921875">
        <ele>293.20001220703125</ele>
        <time>2020-02-22T10:26:05.000Z</time>
      </trkpt>
      <trkpt lat="38.06063686497509479522705078125" lon="-1.4466985501348972320556640625">
        <ele>293.399993896484375</ele>
        <time>2020-02-22T10:26:08.000Z</time>
      </trkpt>
      <trkpt lat="38.06041910313069820404052734375" lon="-1.44697708077728748321533203125">
        <ele>293.600006103515625</ele>
        <time>2020-02-22T10:26:12.000Z</time>
      </trkpt>
      <trkpt lat="38.06003252975642681121826171875" lon="-1.4474901370704174041748046875">
        <ele>294</ele>
        <time>2020-02-22T10:26:19.000Z</time>
      </trkpt>
      <trkpt lat="38.05991702713072299957275390625" lon="-1.447636149823665618896484375">
        <ele>294</ele>
        <time>2020-02-22T10:26:21.000Z</time>
      </trkpt>
      <trkpt lat="38.0597913824021816253662109375" lon="-1.447789371013641357421875">
        <ele>294</ele>
        <time>2020-02-22T10:26:23.000Z</time>
      </trkpt>
      <trkpt lat="38.0595110915601253509521484375" lon="-1.44810377620160579681396484375">
        <ele>293.79998779296875</ele>
        <time>2020-02-22T10:26:27.000Z</time>
      </trkpt>
      <trkpt lat="38.05943213403224945068359375" lon="-1.44817904569208621978759765625">
        <ele>293.79998779296875</ele>
        <time>2020-02-22T10:26:28.000Z</time>
      </trkpt>
      <trkpt lat="38.0591711215674877166748046875" lon="-1.4483876712620258331298828125">
        <ele>293.399993896484375</ele>
        <time>2020-02-22T10:26:31.000Z</time>
      </trkpt>
      <trkpt lat="38.05907514877617359161376953125" lon="-1.44844693131744861602783203125">
        <ele>292.600006103515625</ele>
        <time>2020-02-22T10:26:32.000Z</time>
      </trkpt>
      <trkpt lat="38.058975152671337127685546875" lon="-1.4485014975070953369140625">
        <ele>292.20001220703125</ele>
        <time>2020-02-22T10:26:33.000Z</time>
      </trkpt>
      <trkpt lat="38.058656640350818634033203125" lon="-1.44862747751176357269287109375">
        <ele>290.79998779296875</ele>
        <time>2020-02-22T10:26:36.000Z</time>
      </trkpt>
      <trkpt lat="38.05854423902928829193115234375" lon="-1.4486548863351345062255859375">
        <ele>290.20001220703125</ele>
        <time>2020-02-22T10:26:37.000Z</time>
      </trkpt>
      <trkpt lat="38.05843032896518707275390625" lon="-1.448674499988555908203125">
        <ele>289.600006103515625</ele>
        <time>2020-02-22T10:26:38.000Z</time>
      </trkpt>
      <trkpt lat="38.05820167064666748046875" lon="-1.4486914314329624176025390625">
        <ele>288.600006103515625</ele>
        <time>2020-02-22T10:26:40.000Z</time>
      </trkpt>
      <trkpt lat="38.05808675475418567657470703125" lon="-1.44868950359523296356201171875">
        <ele>287.79998779296875</ele>
        <time>2020-02-22T10:26:41.000Z</time>
      </trkpt>
      <trkpt lat="38.0579731799662113189697265625" lon="-1.44868363626301288604736328125">
        <ele>286.600006103515625</ele>
        <time>2020-02-22T10:26:42.000Z</time>
      </trkpt>
      <trkpt lat="38.05774510838091373443603515625" lon="-1.448658071458339691162109375">
        <ele>285.20001220703125</ele>
        <time>2020-02-22T10:26:44.000Z</time>
      </trkpt>
      <trkpt lat="38.057410083711147308349609375" lon="-1.44860065542161464691162109375">
        <ele>283.20001220703125</ele>
        <time>2020-02-22T10:26:47.000Z</time>
      </trkpt>
      <trkpt lat="38.05719248950481414794921875" lon="-1.44855824299156665802001953125">
        <ele>281.600006103515625</ele>
        <time>2020-02-22T10:26:49.000Z</time>
      </trkpt>
      <trkpt lat="38.056680858135223388671875" lon="-1.448476016521453857421875">
        <ele>281</ele>
        <time>2020-02-22T10:26:54.000Z</time>
      </trkpt>
      <trkpt lat="38.05640936829149723052978515625" lon="-1.44842782057821750640869140625">
        <ele>280.79998779296875</ele>
        <time>2020-02-22T10:26:57.000Z</time>
      </trkpt>
      <trkpt lat="38.0561563186347484588623046875" lon="-1.44837752915918827056884765625">
        <ele>281</ele>
        <time>2020-02-22T10:27:00.000Z</time>
      </trkpt>
      <trkpt lat="38.05585004389286041259765625" lon="-1.4483289979398250579833984375">
        <ele>281.399993896484375</ele>
        <time>2020-02-22T10:27:04.000Z</time>
      </trkpt>
      <trkpt lat="38.0557047016918659210205078125" lon="-1.4483135752379894256591796875">
        <ele>281.79998779296875</ele>
        <time>2020-02-22T10:27:06.000Z</time>
      </trkpt>
      <trkpt lat="38.0556339584290981292724609375" lon="-1.44830745644867420196533203125">
        <ele>282.20001220703125</ele>
        <time>2020-02-22T10:27:07.000Z</time>
      </trkpt>
      <trkpt lat="38.0554887838661670684814453125" lon="-1.44829639233648777008056640625">
        <ele>282.79998779296875</ele>
        <time>2020-02-22T10:27:09.000Z</time>
      </trkpt>
      <trkpt lat="38.0554173700511455535888671875" lon="-1.44829354248940944671630859375">
        <ele>283.20001220703125</ele>
        <time>2020-02-22T10:27:10.000Z</time>
      </trkpt>
      <trkpt lat="38.05527177639305591583251953125" lon="-1.4482869207859039306640625">
        <ele>284.20001220703125</ele>
        <time>2020-02-22T10:27:12.000Z</time>
      </trkpt>
      <trkpt lat="38.05519960820674896240234375" lon="-1.4482857473194599151611328125">
        <ele>284.600006103515625</ele>
        <time>2020-02-22T10:27:13.000Z</time>
      </trkpt>
      <trkpt lat="38.05505887605249881744384765625" lon="-1.4482813887298107147216796875">
        <ele>285.600006103515625</ele>
        <time>2020-02-22T10:27:15.000Z</time>
      </trkpt>
      <trkpt lat="38.05498796515166759490966796875" lon="-1.44828113727271556854248046875">
        <ele>286.20001220703125</ele>
        <time>2020-02-22T10:27:16.000Z</time>
      </trkpt>
      <trkpt lat="38.0548527650535106658935546875" lon="-1.4482834003865718841552734375">
        <ele>286.79998779296875</ele>
        <time>2020-02-22T10:27:18.000Z</time>
      </trkpt>
      <trkpt lat="38.054574988782405853271484375" lon="-1.44830770790576934814453125">
        <ele>288.20001220703125</ele>
        <time>2020-02-22T10:27:22.000Z</time>
      </trkpt>
      <trkpt lat="38.05443928577005863189697265625" lon="-1.4483303390443325042724609375">
        <ele>288.600006103515625</ele>
        <time>2020-02-22T10:27:24.000Z</time>
      </trkpt>
      <trkpt lat="38.05422571487724781036376953125" lon="-1.44837166182696819305419921875">
        <ele>289.20001220703125</ele>
        <time>2020-02-22T10:27:27.000Z</time>
      </trkpt>
      <trkpt lat="38.053847439587116241455078125" lon="-1.448475681245326995849609375">
        <ele>290</ele>
        <time>2020-02-22T10:27:32.000Z</time>
      </trkpt>
      <trkpt lat="38.05326900444924831390380859375" lon="-1.44869788549840450286865234375">
        <ele>290</ele>
        <time>2020-02-22T10:27:39.000Z</time>
      </trkpt>
      <trkpt lat="38.0528444610536098480224609375" lon="-1.44891397096216678619384765625">
        <ele>290</ele>
        <time>2020-02-22T10:27:44.000Z</time>
      </trkpt>
      <trkpt lat="38.052673302590847015380859375" lon="-1.4490186609327793121337890625">
        <ele>289.600006103515625</ele>
        <time>2020-02-22T10:27:46.000Z</time>
      </trkpt>
      <trkpt lat="38.0523985438048839569091796875" lon="-1.449207253754138946533203125">
        <ele>288.600006103515625</ele>
        <time>2020-02-22T10:27:49.000Z</time>
      </trkpt>
      <trkpt lat="38.05230190046131610870361328125" lon="-1.449278332293033599853515625">
        <ele>288.20001220703125</ele>
        <time>2020-02-22T10:27:50.000Z</time>
      </trkpt>
      <trkpt lat="38.05210894905030727386474609375" lon="-1.4494300447404384613037109375">
        <ele>287</ele>
        <time>2020-02-22T10:27:52.000Z</time>
      </trkpt>
      <trkpt lat="38.05183050222694873809814453125" lon="-1.4496751315891742706298828125">
        <ele>285.79998779296875</ele>
        <time>2020-02-22T10:27:55.000Z</time>
      </trkpt>
      <trkpt lat="38.05165104568004608154296875" lon="-1.44983950071036815643310546875">
        <ele>284.79998779296875</ele>
        <time>2020-02-22T10:27:57.000Z</time>
      </trkpt>
      <trkpt lat="38.05156010203063488006591796875" lon="-1.4499222300946712493896484375">
        <ele>284.600006103515625</ele>
        <time>2020-02-22T10:27:58.000Z</time>
      </trkpt>
      <trkpt lat="38.05146723054349422454833984375" lon="-1.4500050432980060577392578125">
        <ele>284.399993896484375</ele>
        <time>2020-02-22T10:27:59.000Z</time>
      </trkpt>
      <trkpt lat="38.0512850917875766754150390625" lon="-1.4501710049808025360107421875">
        <ele>282.79998779296875</ele>
        <time>2020-02-22T10:28:01.000Z</time>
      </trkpt>
      <trkpt lat="38.0511152744293212890625" lon="-1.4503307640552520751953125">
        <ele>281.600006103515625</ele>
        <time>2020-02-22T10:28:03.000Z</time>
      </trkpt>
      <trkpt lat="38.05095258168876171112060546875" lon="-1.45047987811267375946044921875">
        <ele>280.20001220703125</ele>
        <time>2020-02-22T10:28:05.000Z</time>
      </trkpt>
      <trkpt lat="38.05087999440729618072509765625" lon="-1.45054827444255352020263671875">
        <ele>279.79998779296875</ele>
        <time>2020-02-22T10:28:06.000Z</time>
      </trkpt>
      <trkpt lat="38.05081310681998729705810546875" lon="-1.4506169222295284271240234375">
        <ele>279.20001220703125</ele>
        <time>2020-02-22T10:28:07.000Z</time>
      </trkpt>
      <trkpt lat="38.05075787007808685302734375" lon="-1.45069411955773830413818359375">
        <ele>278.399993896484375</ele>
        <time>2020-02-22T10:28:08.000Z</time>
      </trkpt>
      <trkpt lat="38.050708584487438201904296875" lon="-1.45077710039913654327392578125">
        <ele>278</ele>
        <time>2020-02-22T10:28:09.000Z</time>
      </trkpt>
      <trkpt lat="38.05065787397325038909912109375" lon="-1.45085848867893218994140625">
        <ele>277.399993896484375</ele>
        <time>2020-02-22T10:28:10.000Z</time>
      </trkpt>
      <trkpt lat="38.05044279433786869049072265625" lon="-1.4510185830295085906982421875">
        <ele>276.79998779296875</ele>
        <time>2020-02-22T10:28:13.000Z</time>
      </trkpt>
      <trkpt lat="38.050357215106487274169921875" lon="-1.4510604925453662872314453125">
        <ele>276.600006103515625</ele>
        <time>2020-02-22T10:28:14.000Z</time>
      </trkpt>
      <trkpt lat="38.0502738989889621734619140625" lon="-1.45111287944018840789794921875">
        <ele>276.600006103515625</ele>
        <time>2020-02-22T10:28:15.000Z</time>
      </trkpt>
      <trkpt lat="38.0501179955899715423583984375" lon="-1.4512469060719013214111328125">
        <ele>276.399993896484375</ele>
        <time>2020-02-22T10:28:17.000Z</time>
      </trkpt>
      <trkpt lat="38.049966953694820404052734375" lon="-1.45138646475970745086669921875">
        <ele>276.399993896484375</ele>
        <time>2020-02-22T10:28:19.000Z</time>
      </trkpt>
      <trkpt lat="38.04989461787045001983642578125" lon="-1.451454274356365203857421875">
        <ele>276.20001220703125</ele>
        <time>2020-02-22T10:28:20.000Z</time>
      </trkpt>
      <trkpt lat="38.04954643361270427703857421875" lon="-1.4517820067703723907470703125">
        <ele>275.79998779296875</ele>
        <time>2020-02-22T10:28:25.000Z</time>
      </trkpt>
      <trkpt lat="38.04940343834459781646728515625" lon="-1.45191620104014873504638671875">
        <ele>275.79998779296875</ele>
        <time>2020-02-22T10:28:27.000Z</time>
      </trkpt>
      <trkpt lat="38.04897822439670562744140625" lon="-1.45230310969054698944091796875">
        <ele>275</ele>
        <time>2020-02-22T10:28:33.000Z</time>
      </trkpt>
      <trkpt lat="38.04891921579837799072265625" lon="-1.45237921737134456634521484375">
        <ele>275</ele>
        <time>2020-02-22T10:28:34.000Z</time>
      </trkpt>
      <trkpt lat="38.04881326854228973388671875" lon="-1.4525569975376129150390625">
        <ele>274.600006103515625</ele>
        <time>2020-02-22T10:28:36.000Z</time>
      </trkpt>
      <trkpt lat="38.0487457104027271270751953125" lon="-1.4526342786848545074462890625">
        <ele>274.600006103515625</ele>
        <time>2020-02-22T10:28:37.000Z</time>
      </trkpt>
      <trkpt lat="38.04849542677402496337890625" lon="-1.4527590014040470123291015625">
        <ele>274.399993896484375</ele>
        <time>2020-02-22T10:28:40.000Z</time>
      </trkpt>
      <trkpt lat="38.04841420613229274749755859375" lon="-1.45280501805245876312255859375">
        <ele>274.399993896484375</ele>
        <time>2020-02-22T10:28:41.000Z</time>
      </trkpt>
      <trkpt lat="38.04819979704916477203369140625" lon="-1.45298087038099765777587890625">
        <ele>274.600006103515625</ele>
        <time>2020-02-22T10:28:44.000Z</time>
      </trkpt>
      <trkpt lat="38.04774717427790164947509765625" lon="-1.4534018933773040771484375">
        <ele>274.600006103515625</ele>
        <time>2020-02-22T10:28:51.000Z</time>
      </trkpt>
      <trkpt lat="38.047614656388759613037109375" lon="-1.4535227604210376739501953125">
        <ele>274.79998779296875</ele>
        <time>2020-02-22T10:28:53.000Z</time>
      </trkpt>
      <trkpt lat="38.0471883527934551239013671875" lon="-1.45390522666275501251220703125">
        <ele>275</ele>
        <time>2020-02-22T10:29:00.000Z</time>
      </trkpt>
      <trkpt lat="38.0470530688762664794921875" lon="-1.45408795215189456939697265625">
        <ele>275.399993896484375</ele>
        <time>2020-02-22T10:29:03.000Z</time>
      </trkpt>
      <trkpt lat="38.04703538306057453155517578125" lon="-1.45417093299329280853271484375">
        <ele>275.399993896484375</ele>
        <time>2020-02-22T10:29:04.000Z</time>
      </trkpt>
      <trkpt lat="38.046952821314334869384765625" lon="-1.454497911036014556884765625">
        <ele>275.600006103515625</ele>
        <time>2020-02-22T10:29:08.000Z</time>
      </trkpt>
      <trkpt lat="38.04678962565958499908447265625" lon="-1.4546167664229869842529296875">
        <ele>275.600006103515625</ele>
        <time>2020-02-22T10:29:11.000Z</time>
      </trkpt>
      <trkpt lat="38.04651327431201934814453125" lon="-1.4546201191842555999755859375">
        <ele>275.79998779296875</ele>
        <time>2020-02-22T10:29:15.000Z</time>
      </trkpt>
      <trkpt lat="38.04631479084491729736328125" lon="-1.45472363568842411041259765625">
        <ele>275.79998779296875</ele>
        <time>2020-02-22T10:29:18.000Z</time>
      </trkpt>
      <trkpt lat="38.04625754244625568389892578125" lon="-1.45477275364100933074951171875">
        <ele>276</ele>
        <time>2020-02-22T10:29:19.000Z</time>
      </trkpt>
      <trkpt lat="38.0462016351521015167236328125" lon="-1.45482405088841915130615234375">
        <ele>276</ele>
        <time>2020-02-22T10:29:20.000Z</time>
      </trkpt>
      <trkpt lat="38.0459857173264026641845703125" lon="-1.455038376152515411376953125">
        <ele>276</ele>
        <time>2020-02-22T10:29:24.000Z</time>
      </trkpt>
      <trkpt lat="38.0457295663654804229736328125" lon="-1.4552901685237884521484375">
        <ele>276.20001220703125</ele>
        <time>2020-02-22T10:29:29.000Z</time>
      </trkpt>
      <trkpt lat="38.04561448283493518829345703125" lon="-1.45550466142594814300537109375">
        <ele>276.399993896484375</ele>
        <time>2020-02-22T10:29:32.000Z</time>
      </trkpt>
      <trkpt lat="38.04547416977584362030029296875" lon="-1.4557506702840328216552734375">
        <ele>277</ele>
        <time>2020-02-22T10:29:36.000Z</time>
      </trkpt>
      <trkpt lat="38.04529731161892414093017578125" lon="-1.45579911768436431884765625">
        <ele>277.399993896484375</ele>
        <time>2020-02-22T10:29:39.000Z</time>
      </trkpt>
      <trkpt lat="38.0452330224215984344482421875" lon="-1.45580808632075786590576171875">
        <ele>277.600006103515625</ele>
        <time>2020-02-22T10:29:40.000Z</time>
      </trkpt>
      <trkpt lat="38.045167140662670135498046875" lon="-1.45582686178386211395263671875">
        <ele>278</ele>
        <time>2020-02-22T10:29:41.000Z</time>
      </trkpt>
      <trkpt lat="38.045032024383544921875" lon="-1.455906741321086883544921875">
        <ele>278.399993896484375</ele>
        <time>2020-02-22T10:29:43.000Z</time>
      </trkpt>
      <trkpt lat="38.0448994226753711700439453125" lon="-1.45602450706064701080322265625">
        <ele>278.399993896484375</ele>
        <time>2020-02-22T10:29:45.000Z</time>
      </trkpt>
      <trkpt lat="38.04469968192279338836669921875" lon="-1.45620538853108882904052734375">
        <ele>278.399993896484375</ele>
        <time>2020-02-22T10:29:48.000Z</time>
      </trkpt>
      <trkpt lat="38.0443512462079524993896484375" lon="-1.45648802630603313446044921875">
        <ele>278</ele>
        <time>2020-02-22T10:29:53.000Z</time>
      </trkpt>
      <trkpt lat="38.04412468336522579193115234375" lon="-1.45663169212639331817626953125">
        <ele>277.399993896484375</ele>
        <time>2020-02-22T10:29:56.000Z</time>
      </trkpt>
      <trkpt lat="38.0440468154847621917724609375" lon="-1.45667594857513904571533203125">
        <ele>277.20001220703125</ele>
        <time>2020-02-22T10:29:57.000Z</time>
      </trkpt>
      <trkpt lat="38.04396760649979114532470703125" lon="-1.45671718753874301910400390625">
        <ele>277</ele>
        <time>2020-02-22T10:29:58.000Z</time>
      </trkpt>
      <trkpt lat="38.04388864897191524505615234375" lon="-1.45675339736044406890869140625">
        <ele>277</ele>
        <time>2020-02-22T10:29:59.000Z</time>
      </trkpt>
      <trkpt lat="38.04373375140130519866943359375" lon="-1.45682732574641704559326171875">
        <ele>276.79998779296875</ele>
        <time>2020-02-22T10:30:01.000Z</time>
      </trkpt>
      <trkpt lat="38.0434972979128360748291015625" lon="-1.456941068172454833984375">
        <ele>276.600006103515625</ele>
        <time>2020-02-22T10:30:04.000Z</time>
      </trkpt>
      <trkpt lat="38.042959012091159820556640625" lon="-1.45720149390399456024169921875">
        <ele>276</ele>
        <time>2020-02-22T10:30:11.000Z</time>
      </trkpt>
      <trkpt lat="38.04273529909551143646240234375" lon="-1.45730962045490741729736328125">
        <ele>275.600006103515625</ele>
        <time>2020-02-22T10:30:14.000Z</time>
      </trkpt>
      <trkpt lat="38.04241728968918323516845703125" lon="-1.45745077170431613922119140625">
        <ele>275.399993896484375</ele>
        <time>2020-02-22T10:30:18.000Z</time>
      </trkpt>
      <trkpt lat="38.0421848595142364501953125" lon="-1.457560323178768157958984375">
        <ele>275.20001220703125</ele>
        <time>2020-02-22T10:30:21.000Z</time>
      </trkpt>
      <trkpt lat="38.04198612459003925323486328125" lon="-1.45767222158610820770263671875">
        <ele>275.20001220703125</ele>
        <time>2020-02-22T10:30:24.000Z</time>
      </trkpt>
      <trkpt lat="38.04185067303478717803955078125" lon="-1.45776744000613689422607421875">
        <ele>275</ele>
        <time>2020-02-22T10:30:26.000Z</time>
      </trkpt>
      <trkpt lat="38.04178856313228607177734375" lon="-1.4578350819647312164306640625">
        <ele>274.79998779296875</ele>
        <time>2020-02-22T10:30:27.000Z</time>
      </trkpt>
      <trkpt lat="38.041682280600070953369140625" lon="-1.4580067433416843414306640625">
        <ele>274.600006103515625</ele>
        <time>2020-02-22T10:30:29.000Z</time>
      </trkpt>
      <trkpt lat="38.04164431057870388031005859375" lon="-1.458108834922313690185546875">
        <ele>274.600006103515625</ele>
        <time>2020-02-22T10:30:30.000Z</time>
      </trkpt>
      <trkpt lat="38.0416190810501575469970703125" lon="-1.4584466256201267242431640625">
        <ele>274</ele>
        <time>2020-02-22T10:30:33.000Z</time>
      </trkpt>
      <trkpt lat="38.04162939079105854034423828125" lon="-1.45856522955000400543212890625">
        <ele>273.79998779296875</ele>
        <time>2020-02-22T10:30:34.000Z</time>
      </trkpt>
      <trkpt lat="38.04167850874364376068115234375" lon="-1.4591798745095729827880859375">
        <ele>272.600006103515625</ele>
        <time>2020-02-22T10:30:39.000Z</time>
      </trkpt>
      <trkpt lat="38.04168705828487873077392578125" lon="-1.45930971018970012664794921875">
        <ele>272.399993896484375</ele>
        <time>2020-02-22T10:30:40.000Z</time>
      </trkpt>
      <trkpt lat="38.04171086288988590240478515625" lon="-1.45983894355595111846923828125">
        <ele>271.399993896484375</ele>
        <time>2020-02-22T10:30:44.000Z</time>
      </trkpt>
      <trkpt lat="38.041715137660503387451171875" lon="-1.45997188054025173187255859375">
        <ele>271.20001220703125</ele>
        <time>2020-02-22T10:30:45.000Z</time>
      </trkpt>
      <trkpt lat="38.0417206697165966033935546875" lon="-1.4602383412420749664306640625">
        <ele>270.20001220703125</ele>
        <time>2020-02-22T10:30:47.000Z</time>
      </trkpt>
      <trkpt lat="38.04172578267753124237060546875" lon="-1.4606426842510700225830078125">
        <ele>269</ele>
        <time>2020-02-22T10:30:50.000Z</time>
      </trkpt>
      <trkpt lat="38.04171756841242313385009765625" lon="-1.4611774496734142303466796875">
        <ele>267.79998779296875</ele>
        <time>2020-02-22T10:30:54.000Z</time>
      </trkpt>
      <trkpt lat="38.04171237163245677947998046875" lon="-1.46156678907573223114013671875">
        <ele>266.79998779296875</ele>
        <time>2020-02-22T10:30:57.000Z</time>
      </trkpt>
      <trkpt lat="38.04170231334865093231201171875" lon="-1.46194942295551300048828125">
        <ele>265.600006103515625</ele>
        <time>2020-02-22T10:31:00.000Z</time>
      </trkpt>
      <trkpt lat="38.0416948534548282623291015625" lon="-1.462203226983547210693359375">
        <ele>264.79998779296875</ele>
        <time>2020-02-22T10:31:02.000Z</time>
      </trkpt>
      <trkpt lat="38.041692674160003662109375" lon="-1.46232895553112030029296875">
        <ele>264.600006103515625</ele>
        <time>2020-02-22T10:31:03.000Z</time>
      </trkpt>
      <trkpt lat="38.04168521426618099212646484375" lon="-1.46270639263093471527099609375">
        <ele>263.399993896484375</ele>
        <time>2020-02-22T10:31:06.000Z</time>
      </trkpt>
      <trkpt lat="38.04167733527719974517822265625" lon="-1.463291533291339874267578125">
        <ele>263.20001220703125</ele>
        <time>2020-02-22T10:31:11.000Z</time>
      </trkpt>
      <trkpt lat="38.04167783819139003753662109375" lon="-1.46360007114708423614501953125">
        <ele>263.20001220703125</ele>
        <time>2020-02-22T10:31:14.000Z</time>
      </trkpt>
      <trkpt lat="38.04167591035366058349609375" lon="-1.4638807810842990875244140625">
        <ele>263.399993896484375</ele>
        <time>2020-02-22T10:31:17.000Z</time>
      </trkpt>
      <trkpt lat="38.04166853427886962890625" lon="-1.4641334116458892822265625">
        <ele>264.399993896484375</ele>
        <time>2020-02-22T10:31:20.000Z</time>
      </trkpt>
      <trkpt lat="38.04166979156434535980224609375" lon="-1.46421178244054317474365234375">
        <ele>264.79998779296875</ele>
        <time>2020-02-22T10:31:21.000Z</time>
      </trkpt>
      <trkpt lat="38.04167834110558032989501953125" lon="-1.4644391834735870361328125">
        <ele>265.79998779296875</ele>
        <time>2020-02-22T10:31:24.000Z</time>
      </trkpt>
      <trkpt lat="38.04167901165783405303955078125" lon="-1.46451369859278202056884765625">
        <ele>266.399993896484375</ele>
        <time>2020-02-22T10:31:25.000Z</time>
      </trkpt>
      <trkpt lat="38.04168420843780040740966796875" lon="-1.464732550084590911865234375">
        <ele>267.600006103515625</ele>
        <time>2020-02-22T10:31:28.000Z</time>
      </trkpt>
      <trkpt lat="38.04168437607586383819580078125" lon="-1.4649483002722263336181640625">
        <ele>268.399993896484375</ele>
        <time>2020-02-22T10:31:31.000Z</time>
      </trkpt>
      <trkpt lat="38.0416827835142612457275390625" lon="-1.465018205344676971435546875">
        <ele>269</ele>
        <time>2020-02-22T10:31:32.000Z</time>
      </trkpt>
      <trkpt lat="38.04168068803846836090087890625" lon="-1.46508869715034961700439453125">
        <ele>269.399993896484375</ele>
        <time>2020-02-22T10:31:33.000Z</time>
      </trkpt>
      <trkpt lat="38.04167767055332660675048828125" lon="-1.46522314287722110748291015625">
        <ele>270.399993896484375</ele>
        <time>2020-02-22T10:31:35.000Z</time>
      </trkpt>
      <trkpt lat="38.04167733527719974517822265625" lon="-1.4654847420752048492431640625">
        <ele>271.600006103515625</ele>
        <time>2020-02-22T10:31:39.000Z</time>
      </trkpt>
      <trkpt lat="38.041676245629787445068359375" lon="-1.46561876870691776275634765625">
        <ele>272.20001220703125</ele>
        <time>2020-02-22T10:31:41.000Z</time>
      </trkpt>
      <trkpt lat="38.041678257286548614501953125" lon="-1.4657536335289478302001953125">
        <ele>272.79998779296875</ele>
        <time>2020-02-22T10:31:43.000Z</time>
      </trkpt>
      <trkpt lat="38.041676580905914306640625" lon="-1.4659514464437961578369140625">
        <ele>273.79998779296875</ele>
        <time>2020-02-22T10:31:46.000Z</time>
      </trkpt>
      <trkpt lat="38.04167431779205799102783203125" lon="-1.466072313487529754638671875">
        <ele>274.79998779296875</ele>
        <time>2020-02-22T10:31:48.000Z</time>
      </trkpt>
      <trkpt lat="38.04167079739272594451904296875" lon="-1.46613241173326969146728515625">
        <ele>275</ele>
        <time>2020-02-22T10:31:49.000Z</time>
      </trkpt>
      <trkpt lat="38.04165470413863658905029296875" lon="-1.46637800149619579315185546875">
        <ele>276.399993896484375</ele>
        <time>2020-02-22T10:31:53.000Z</time>
      </trkpt>
      <trkpt lat="38.0416378565132617950439453125" lon="-1.466577239334583282470703125">
        <ele>277</ele>
        <time>2020-02-22T10:31:56.000Z</time>
      </trkpt>
      <trkpt lat="38.041633330285549163818359375" lon="-1.46664328873157501220703125">
        <ele>277.399993896484375</ele>
        <time>2020-02-22T10:31:57.000Z</time>
      </trkpt>
      <trkpt lat="38.04161832667887210845947265625" lon="-1.46691041998565196990966796875">
        <ele>278.399993896484375</ele>
        <time>2020-02-22T10:32:01.000Z</time>
      </trkpt>
      <trkpt lat="38.0416016466915607452392578125" lon="-1.4672409184277057647705078125">
        <ele>279.20001220703125</ele>
        <time>2020-02-22T10:32:06.000Z</time>
      </trkpt>
      <trkpt lat="38.041590414941310882568359375" lon="-1.46744065918028354644775390625">
        <ele>279.399993896484375</ele>
        <time>2020-02-22T10:32:09.000Z</time>
      </trkpt>
      <trkpt lat="38.04156862199306488037109375" lon="-1.46785154007375240325927734375">
        <ele>279.79998779296875</ele>
        <time>2020-02-22T10:32:15.000Z</time>
      </trkpt>
      <trkpt lat="38.04154716432094573974609375" lon="-1.46852779202163219451904296875">
        <ele>280</ele>
        <time>2020-02-22T10:32:24.000Z</time>
      </trkpt>
      <trkpt lat="38.0415392853319644927978515625" lon="-1.46875955164432525634765625">
        <ele>280.20001220703125</ele>
        <time>2020-02-22T10:32:27.000Z</time>
      </trkpt>
      <trkpt lat="38.04152796976268291473388671875" lon="-1.46907747723162174224853515625">
        <ele>280.399993896484375</ele>
        <time>2020-02-22T10:32:31.000Z</time>
      </trkpt>
      <trkpt lat="38.04151958785951137542724609375" lon="-1.46932524628937244415283203125">
        <ele>280.600006103515625</ele>
        <time>2020-02-22T10:32:34.000Z</time>
      </trkpt>
      <trkpt lat="38.04149544797837734222412109375" lon="-1.47001574747264385223388671875">
        <ele>280.79998779296875</ele>
        <time>2020-02-22T10:32:42.000Z</time>
      </trkpt>
      <trkpt lat="38.04149159230291843414306640625" lon="-1.470103673636913299560546875">
        <ele>280.79998779296875</ele>
        <time>2020-02-22T10:32:43.000Z</time>
      </trkpt>
      <trkpt lat="38.04146745242178440093994140625" lon="-1.4707207493484020233154296875">
        <ele>281</ele>
        <time>2020-02-22T10:32:50.000Z</time>
      </trkpt>
      <trkpt lat="38.04144565947353839874267578125" lon="-1.471081674098968505859375">
        <ele>281.20001220703125</ele>
        <time>2020-02-22T10:32:54.000Z</time>
      </trkpt>
      <trkpt lat="38.04130651988089084625244140625" lon="-1.4718050323426723480224609375">
        <ele>281.399993896484375</ele>
        <time>2020-02-22T10:33:02.000Z</time>
      </trkpt>
      <trkpt lat="38.04105757735669612884521484375" lon="-1.47244716994464397430419921875">
        <ele>281.600006103515625</ele>
        <time>2020-02-22T10:33:09.000Z</time>
      </trkpt>
      <trkpt lat="38.0407540686428546905517578125" lon="-1.4730512537062168121337890625">
        <ele>281.600006103515625</ele>
        <time>2020-02-22T10:33:16.000Z</time>
      </trkpt>
      <trkpt lat="38.04066664539277553558349609375" lon="-1.473213024437427520751953125">
        <ele>281.600006103515625</ele>
        <time>2020-02-22T10:33:18.000Z</time>
      </trkpt>
      <trkpt lat="38.04037034511566162109375" lon="-1.47379942238330841064453125">
        <ele>281.600006103515625</ele>
        <time>2020-02-22T10:33:25.000Z</time>
      </trkpt>
      <trkpt lat="38.04024771787226200103759765625" lon="-1.474048197269439697265625">
        <ele>281.600006103515625</ele>
        <time>2020-02-22T10:33:28.000Z</time>
      </trkpt>
      <trkpt lat="38.0399235896766185760498046875" lon="-1.47471212781965732574462890625">
        <ele>281.399993896484375</ele>
        <time>2020-02-22T10:33:36.000Z</time>
      </trkpt>
      <trkpt lat="38.03980372846126556396484375" lon="-1.4749767445027828216552734375">
        <ele>281.399993896484375</ele>
        <time>2020-02-22T10:33:39.000Z</time>
      </trkpt>
      <trkpt lat="38.03963248617947101593017578125" lon="-1.47532853297889232635498046875">
        <ele>281.79998779296875</ele>
        <time>2020-02-22T10:33:43.000Z</time>
      </trkpt>
      <trkpt lat="38.03936661221086978912353515625" lon="-1.475834548473358154296875">
        <ele>282.600006103515625</ele>
        <time>2020-02-22T10:33:49.000Z</time>
      </trkpt>
      <trkpt lat="38.03932051174342632293701171875" lon="-1.4759181998670101165771484375">
        <ele>283</ele>
        <time>2020-02-22T10:33:50.000Z</time>
      </trkpt>
      <trkpt lat="38.03902580402791500091552734375" lon="-1.47640342824161052703857421875">
        <ele>284</ele>
        <time>2020-02-22T10:33:56.000Z</time>
      </trkpt>
      <trkpt lat="38.03897350095212459564208984375" lon="-1.4764851517975330352783203125">
        <ele>284</ele>
        <time>2020-02-22T10:33:57.000Z</time>
      </trkpt>
      <trkpt lat="38.0386129952967166900634765625" lon="-1.47704229690134525299072265625">
        <ele>284.399993896484375</ele>
        <time>2020-02-22T10:34:04.000Z</time>
      </trkpt>
      <trkpt lat="38.03846019320189952850341796875" lon="-1.47727464325726032257080078125">
        <ele>284.399993896484375</ele>
        <time>2020-02-22T10:34:07.000Z</time>
      </trkpt>
      <trkpt lat="38.0383573472499847412109375" lon="-1.47743239067494869232177734375">
        <ele>284.600006103515625</ele>
        <time>2020-02-22T10:34:09.000Z</time>
      </trkpt>
      <trkpt lat="38.03809725679457187652587890625" lon="-1.4778252504765987396240234375">
        <ele>285</ele>
        <time>2020-02-22T10:34:14.000Z</time>
      </trkpt>
      <trkpt lat="38.03799281828105449676513671875" lon="-1.47798291407525539398193359375">
        <ele>285</ele>
        <time>2020-02-22T10:34:16.000Z</time>
      </trkpt>
      <trkpt lat="38.03770087659358978271484375" lon="-1.47845129482448101043701171875">
        <ele>285.399993896484375</ele>
        <time>2020-02-22T10:34:22.000Z</time>
      </trkpt>
      <trkpt lat="38.037408180534839630126953125" lon="-1.47908295504748821258544921875">
        <ele>286</ele>
        <time>2020-02-22T10:34:30.000Z</time>
      </trkpt>
      <trkpt lat="38.03725454024970531463623046875" lon="-1.4796783216297626495361328125">
        <ele>286.79998779296875</ele>
        <time>2020-02-22T10:34:37.000Z</time>
      </trkpt>
      <trkpt lat="38.03717507980763912200927734375" lon="-1.4801014401018619537353515625">
        <ele>287.399993896484375</ele>
        <time>2020-02-22T10:34:42.000Z</time>
      </trkpt>
      <trkpt lat="38.037069551646709442138671875" lon="-1.480691023170948028564453125">
        <ele>288.399993896484375</ele>
        <time>2020-02-22T10:34:49.000Z</time>
      </trkpt>
      <trkpt lat="38.0370532907545566558837890625" lon="-1.4807763509452342987060546875">
        <ele>288.399993896484375</ele>
        <time>2020-02-22T10:34:50.000Z</time>
      </trkpt>
      <trkpt lat="38.03695564158260822296142578125" lon="-1.48130047135055065155029296875">
        <ele>289.20001220703125</ele>
        <time>2020-02-22T10:34:56.000Z</time>
      </trkpt>
      <trkpt lat="38.0369218625128269195556640625" lon="-1.48147112689912319183349609375">
        <ele>289.399993896484375</ele>
        <time>2020-02-22T10:34:58.000Z</time>
      </trkpt>
      <trkpt lat="38.036889843642711639404296875" lon="-1.4816383458673954010009765625">
        <ele>289.399993896484375</ele>
        <time>2020-02-22T10:35:00.000Z</time>
      </trkpt>
      <trkpt lat="38.03677291609346866607666015625" lon="-1.482229940593242645263671875">
        <ele>290.600006103515625</ele>
        <time>2020-02-22T10:35:07.000Z</time>
      </trkpt>
      <trkpt lat="38.03675749339163303375244140625" lon="-1.48231543600559234619140625">
        <ele>290.79998779296875</ele>
        <time>2020-02-22T10:35:08.000Z</time>
      </trkpt>
      <trkpt lat="38.036739639937877655029296875" lon="-1.4823992550373077392578125">
        <ele>290.79998779296875</ele>
        <time>2020-02-22T10:35:09.000Z</time>
      </trkpt>
      <trkpt lat="38.036666214466094970703125" lon="-1.482732184231281280517578125">
        <ele>292</ele>
        <time>2020-02-22T10:35:13.000Z</time>
      </trkpt>
      <trkpt lat="38.03655934520065784454345703125" lon="-1.48315538652241230010986328125">
        <ele>293</ele>
        <time>2020-02-22T10:35:18.000Z</time>
      </trkpt>
      <trkpt lat="38.03635683842003345489501953125" lon="-1.4838213287293910980224609375">
        <ele>294</ele>
        <time>2020-02-22T10:35:26.000Z</time>
      </trkpt>
      <trkpt lat="38.03633118979632854461669921875" lon="-1.4839058183133602142333984375">
        <ele>294.20001220703125</ele>
        <time>2020-02-22T10:35:27.000Z</time>
      </trkpt>
      <trkpt lat="38.0360830016434192657470703125" lon="-1.4845612831413745880126953125">
        <ele>294.79998779296875</ele>
        <time>2020-02-22T10:35:35.000Z</time>
      </trkpt>
      <trkpt lat="38.0360142700374126434326171875" lon="-1.48472414351999759674072265625">
        <ele>295</ele>
        <time>2020-02-22T10:35:37.000Z</time>
      </trkpt>
      <trkpt lat="38.03598049096763134002685546875" lon="-1.4848046936094760894775390625">
        <ele>295.20001220703125</ele>
        <time>2020-02-22T10:35:38.000Z</time>
      </trkpt>
      <trkpt lat="38.03572098724544048309326171875" lon="-1.485350020229816436767578125">
        <ele>296.20001220703125</ele>
        <time>2020-02-22T10:35:45.000Z</time>
      </trkpt>
      <trkpt lat="38.03564102388918399810791015625" lon="-1.4855057559907436370849609375">
        <ele>296.399993896484375</ele>
        <time>2020-02-22T10:35:47.000Z</time>
      </trkpt>
      <trkpt lat="38.03535184822976589202880859375" lon="-1.4860844425857067108154296875">
        <ele>297</ele>
        <time>2020-02-22T10:35:54.000Z</time>
      </trkpt>
      <trkpt lat="38.03523399867117404937744140625" lon="-1.486329026520252227783203125">
        <ele>297</ele>
        <time>2020-02-22T10:35:57.000Z</time>
      </trkpt>
      <trkpt lat="38.03504683077335357666015625" lon="-1.48673898540437221527099609375">
        <ele>297.20001220703125</ele>
        <time>2020-02-22T10:36:02.000Z</time>
      </trkpt>
      <trkpt lat="38.0348713137209415435791015625" lon="-1.4871553145349025726318359375">
        <ele>297.20001220703125</ele>
        <time>2020-02-22T10:36:07.000Z</time>
      </trkpt>
      <trkpt lat="38.03468330763280391693115234375" lon="-1.48764573968946933746337890625">
        <ele>297.20001220703125</ele>
        <time>2020-02-22T10:36:13.000Z</time>
      </trkpt>
      <trkpt lat="38.03467358462512493133544921875" lon="-1.4877091906964778900146484375">
        <ele>297.399993896484375</ele>
        <time>2020-02-22T10:36:14.000Z</time>
      </trkpt>
      <trkpt lat="38.03467492572963237762451171875" lon="-1.4877846278250217437744140625">
        <ele>297.399993896484375</ele>
        <time>2020-02-22T10:36:16.000Z</time>
      </trkpt>
      <trkpt lat="38.03468112833797931671142578125" lon="-1.48780725896358489990234375">
        <ele>297.399993896484375</ele>
        <time>2020-02-22T10:36:17.000Z</time>
      </trkpt>
      <trkpt lat="38.03468741476535797119140625" lon="-1.4878329075872898101806640625">
        <ele>297.399993896484375</ele>
        <time>2020-02-22T10:36:18.000Z</time>
      </trkpt>
      <trkpt lat="38.03468070924282073974609375" lon="-1.48798537440598011016845703125">
        <ele>297.79998779296875</ele>
        <time>2020-02-22T10:36:22.000Z</time>
      </trkpt>
      <trkpt lat="38.03465900011360645294189453125" lon="-1.48803063668310642242431640625">
        <ele>297.79998779296875</ele>
        <time>2020-02-22T10:36:23.000Z</time>
      </trkpt>
      <trkpt lat="38.03455037064850330352783203125" lon="-1.4881715364754199981689453125">
        <ele>297.79998779296875</ele>
        <time>2020-02-22T10:36:26.000Z</time>
      </trkpt>
      <trkpt lat="38.0345139093697071075439453125" lon="-1.488220654428005218505859375">
        <ele>298</ele>
        <time>2020-02-22T10:36:27.000Z</time>
      </trkpt>
      <trkpt lat="38.0343838222324848175048828125" lon="-1.48846716620028018951416015625">
        <ele>298</ele>
        <time>2020-02-22T10:36:31.000Z</time>
      </trkpt>
      <trkpt lat="38.03420721553266048431396484375" lon="-1.48894577287137508392333984375">
        <ele>298</ele>
        <time>2020-02-22T10:36:38.000Z</time>
      </trkpt>
      <trkpt lat="38.0339824967086315155029296875" lon="-1.48963107727468013763427734375">
        <ele>298</ele>
        <time>2020-02-22T10:36:47.000Z</time>
      </trkpt>
      <trkpt lat="38.03395978175103664398193359375" lon="-1.48971808142960071563720703125">
        <ele>298</ele>
        <time>2020-02-22T10:36:48.000Z</time>
      </trkpt>
      <trkpt lat="38.03380723111331462860107421875" lon="-1.49037505500018596649169921875">
        <ele>298</ele>
        <time>2020-02-22T10:36:56.000Z</time>
      </trkpt>
      <trkpt lat="38.03376783616840839385986328125" lon="-1.49054638110101222991943359375">
        <ele>298</ele>
        <time>2020-02-22T10:36:58.000Z</time>
      </trkpt>
      <trkpt lat="38.03361696191132068634033203125" lon="-1.49117200635373592376708984375">
        <ele>298.399993896484375</ele>
        <time>2020-02-22T10:37:05.000Z</time>
      </trkpt>
      <trkpt lat="38.0335493199527263641357421875" lon="-1.49143989197909832000732421875">
        <ele>298.399993896484375</ele>
        <time>2020-02-22T10:37:08.000Z</time>
      </trkpt>
      <trkpt lat="38.03332661278545856475830078125" lon="-1.49210256524384021759033203125">
        <ele>299.20001220703125</ele>
        <time>2020-02-22T10:37:16.000Z</time>
      </trkpt>
      <trkpt lat="38.0332968570291996002197265625" lon="-1.49218420498073101043701171875">
        <ele>299.20001220703125</ele>
        <time>2020-02-22T10:37:17.000Z</time>
      </trkpt>
      <trkpt lat="38.03326760418713092803955078125" lon="-1.4922659285366535186767578125">
        <ele>299.600006103515625</ele>
        <time>2020-02-22T10:37:18.000Z</time>
      </trkpt>
      <trkpt lat="38.0331714637577533721923828125" lon="-1.49251051247119903564453125">
        <ele>299.79998779296875</ele>
        <time>2020-02-22T10:37:21.000Z</time>
      </trkpt>
      <trkpt lat="38.03298396058380603790283203125" lon="-1.49298635311424732208251953125">
        <ele>300.399993896484375</ele>
        <time>2020-02-22T10:37:27.000Z</time>
      </trkpt>
      <trkpt lat="38.0329257063567638397216796875" lon="-1.49313990958034992218017578125">
        <ele>300.600006103515625</ele>
        <time>2020-02-22T10:37:29.000Z</time>
      </trkpt>
      <trkpt lat="38.032701574265956878662109375" lon="-1.4936992339789867401123046875">
        <ele>301.20001220703125</ele>
        <time>2020-02-22T10:37:36.000Z</time>
      </trkpt>
      <trkpt lat="38.0326407216489315032958984375" lon="-1.49385538883507251739501953125">
        <ele>301.600006103515625</ele>
        <time>2020-02-22T10:37:38.000Z</time>
      </trkpt>
      <trkpt lat="38.0323919467628002166748046875" lon="-1.49447531439363956451416015625">
        <ele>302.399993896484375</ele>
        <time>2020-02-22T10:37:46.000Z</time>
      </trkpt>
      <trkpt lat="38.0323034338653087615966796875" lon="-1.4947100915014743804931640625">
        <ele>302.79998779296875</ele>
        <time>2020-02-22T10:37:49.000Z</time>
      </trkpt>
      <trkpt lat="38.03216706030070781707763671875" lon="-1.495106220245361328125">
        <ele>303.20001220703125</ele>
        <time>2020-02-22T10:37:54.000Z</time>
      </trkpt>
      <trkpt lat="38.0320174433290958404541015625" lon="-1.49566470645368099212646484375">
        <ele>303.600006103515625</ele>
        <time>2020-02-22T10:38:01.000Z</time>
      </trkpt>
      <trkpt lat="38.031989447772502899169921875" lon="-1.4958128146827220916748046875">
        <ele>303.79998779296875</ele>
        <time>2020-02-22T10:38:03.000Z</time>
      </trkpt>
      <trkpt lat="38.031951896846294403076171875" lon="-1.4961080253124237060546875">
        <ele>304.20001220703125</ele>
        <time>2020-02-22T10:38:07.000Z</time>
      </trkpt>
      <trkpt lat="38.03194041363894939422607421875" lon="-1.49618119932711124420166015625">
        <ele>304.399993896484375</ele>
        <time>2020-02-22T10:38:08.000Z</time>
      </trkpt>
      <trkpt lat="38.03191895596683025360107421875" lon="-1.496459729969501495361328125">
        <ele>304.600006103515625</ele>
        <time>2020-02-22T10:38:12.000Z</time>
      </trkpt>
      <trkpt lat="38.03193421103060245513916015625" lon="-1.49657648988068103790283203125">
        <ele>304.79998779296875</ele>
        <time>2020-02-22T10:38:14.000Z</time>
      </trkpt>
      <trkpt lat="38.03197511471807956695556640625" lon="-1.49666869081556797027587890625">
        <ele>305</ele>
        <time>2020-02-22T10:38:17.000Z</time>
      </trkpt>
      <trkpt lat="38.0319892801344394683837890625" lon="-1.49668260477483272552490234375">
        <ele>305.20001220703125</ele>
        <time>2020-02-22T10:38:18.000Z</time>
      </trkpt>
      <trkpt lat="38.03203429095447063446044921875" lon="-1.4967827685177326202392578125">
        <ele>305.79998779296875</ele>
        <time>2020-02-22T10:38:22.000Z</time>
      </trkpt>
      <trkpt lat="38.0320395715534687042236328125" lon="-1.49682224728167057037353515625">
        <ele>305.79998779296875</ele>
        <time>2020-02-22T10:38:23.000Z</time>
      </trkpt>
      <trkpt lat="38.0320207960903644561767578125" lon="-1.496927104890346527099609375">
        <ele>305.79998779296875</ele>
        <time>2020-02-22T10:38:25.000Z</time>
      </trkpt>
      <trkpt lat="38.03199506364762783050537109375" lon="-1.4969869516789913177490234375">
        <ele>306</ele>
        <time>2020-02-22T10:38:26.000Z</time>
      </trkpt>
      <trkpt lat="38.0318736098706722259521484375" lon="-1.49709843099117279052734375">
        <ele>306</ele>
        <time>2020-02-22T10:38:29.000Z</time>
      </trkpt>
      <trkpt lat="38.03177394904196262359619140625" lon="-1.49709901772439479827880859375">
        <ele>306</ele>
        <time>2020-02-22T10:38:31.000Z</time>
      </trkpt>
      <trkpt lat="38.0317227356135845184326171875" lon="-1.49708795361220836639404296875">
        <ele>306</ele>
        <time>2020-02-22T10:38:32.000Z</time>
      </trkpt>
      <trkpt lat="38.031670935451984405517578125" lon="-1.49707957170903682708740234375">
        <ele>306</ele>
        <time>2020-02-22T10:38:33.000Z</time>
      </trkpt>
      <trkpt lat="38.0316188000142574310302734375" lon="-1.49707253091037273406982421875">
        <ele>306</ele>
        <time>2020-02-22T10:38:34.000Z</time>
      </trkpt>
      <trkpt lat="38.03145459853112697601318359375" lon="-1.49710404686629772186279296875">
        <ele>305.79998779296875</ele>
        <time>2020-02-22T10:38:37.000Z</time>
      </trkpt>
      <trkpt lat="38.0312924087047576904296875" lon="-1.49715601466596126556396484375">
        <ele>305.399993896484375</ele>
        <time>2020-02-22T10:38:40.000Z</time>
      </trkpt>
      <trkpt lat="38.03100734017789363861083984375" lon="-1.49725844152271747589111328125">
        <ele>305.20001220703125</ele>
        <time>2020-02-22T10:38:45.000Z</time>
      </trkpt>
      <trkpt lat="38.030567206442356109619140625" lon="-1.4974047057330608367919921875">
        <ele>305.399993896484375</ele>
        <time>2020-02-22T10:38:53.000Z</time>
      </trkpt>
      <trkpt lat="38.030341230332851409912109375" lon="-1.49750419892370700836181640625">
        <ele>305.600006103515625</ele>
        <time>2020-02-22T10:38:57.000Z</time>
      </trkpt>
      <trkpt lat="38.030159510672092437744140625" lon="-1.49757896549999713897705078125">
        <ele>306.20001220703125</ele>
        <time>2020-02-22T10:39:00.000Z</time>
      </trkpt>
      <trkpt lat="38.0300983227789402008056640625" lon="-1.497602351009845733642578125">
        <ele>306.399993896484375</ele>
        <time>2020-02-22T10:39:01.000Z</time>
      </trkpt>
      <trkpt lat="38.02991710603237152099609375" lon="-1.49766731075942516326904296875">
        <ele>306.79998779296875</ele>
        <time>2020-02-22T10:39:04.000Z</time>
      </trkpt>
      <trkpt lat="38.02967294119298458099365234375" lon="-1.49777032434940338134765625">
        <ele>307.20001220703125</ele>
        <time>2020-02-22T10:39:08.000Z</time>
      </trkpt>
      <trkpt lat="38.02942064590752124786376953125" lon="-1.49787266738712787628173828125">
        <ele>307.399993896484375</ele>
        <time>2020-02-22T10:39:12.000Z</time>
      </trkpt>
      <trkpt lat="38.02929189987480640411376953125" lon="-1.497922874987125396728515625">
        <ele>307.79998779296875</ele>
        <time>2020-02-22T10:39:14.000Z</time>
      </trkpt>
      <trkpt lat="38.02889920771121978759765625" lon="-1.4980212785303592681884765625">
        <ele>308.399993896484375</ele>
        <time>2020-02-22T10:39:20.000Z</time>
      </trkpt>
      <trkpt lat="38.028328232467174530029296875" lon="-1.49804927408695220947265625">
        <ele>308.79998779296875</ele>
        <time>2020-02-22T10:39:28.000Z</time>
      </trkpt>
      <trkpt lat="38.0282588303089141845703125" lon="-1.4980491064488887786865234375">
        <ele>308.79998779296875</ele>
        <time>2020-02-22T10:39:29.000Z</time>
      </trkpt>
      <trkpt lat="38.0280491150915622711181640625" lon="-1.4980504475533962249755859375">
        <ele>308.79998779296875</ele>
        <time>2020-02-22T10:39:32.000Z</time>
      </trkpt>
      <trkpt lat="38.0277621187269687652587890625" lon="-1.49805732071399688720703125">
        <ele>308.79998779296875</ele>
        <time>2020-02-22T10:39:36.000Z</time>
      </trkpt>
      <trkpt lat="38.02721737883985042572021484375" lon="-1.49806025438010692596435546875">
        <ele>309</ele>
        <time>2020-02-22T10:39:44.000Z</time>
      </trkpt>
      <trkpt lat="38.02680817432701587677001953125" lon="-1.49805723689496517181396484375">
        <ele>309.20001220703125</ele>
        <time>2020-02-22T10:39:50.000Z</time>
      </trkpt>
      <trkpt lat="38.02622010000050067901611328125" lon="-1.49807198904454708099365234375">
        <ele>309.399993896484375</ele>
        <time>2020-02-22T10:39:59.000Z</time>
      </trkpt>
      <trkpt lat="38.02615304477512836456298828125" lon="-1.4980712346732616424560546875">
        <ele>309.399993896484375</ele>
        <time>2020-02-22T10:40:00.000Z</time>
      </trkpt>
      <trkpt lat="38.02568298764526844024658203125" lon="-1.49806444533169269561767578125">
        <ele>309.79998779296875</ele>
        <time>2020-02-22T10:40:07.000Z</time>
      </trkpt>
      <trkpt lat="38.02540428936481475830078125" lon="-1.498064696788787841796875">
        <ele>310</ele>
        <time>2020-02-22T10:40:11.000Z</time>
      </trkpt>
      <trkpt lat="38.02483297884464263916015625" lon="-1.4980759285390377044677734375">
        <ele>310.20001220703125</ele>
        <time>2020-02-22T10:40:19.000Z</time>
      </trkpt>
      <trkpt lat="38.024686463177204132080078125" lon="-1.4980776049196720123291015625">
        <ele>310.20001220703125</ele>
        <time>2020-02-22T10:40:21.000Z</time>
      </trkpt>
      <trkpt lat="38.02409361116588115692138671875" lon="-1.498074419796466827392578125">
        <ele>310.399993896484375</ele>
        <time>2020-02-22T10:40:29.000Z</time>
      </trkpt>
      <trkpt lat="38.02387408912181854248046875" lon="-1.49807433597743511199951171875">
        <ele>310.399993896484375</ele>
        <time>2020-02-22T10:40:32.000Z</time>
      </trkpt>
      <trkpt lat="38.0232751183211803436279296875" lon="-1.498064361512660980224609375">
        <ele>310.79998779296875</ele>
        <time>2020-02-22T10:40:40.000Z</time>
      </trkpt>
      <trkpt lat="38.02319708280265331268310546875" lon="-1.49806209839880466461181640625">
        <ele>310.79998779296875</ele>
        <time>2020-02-22T10:40:41.000Z</time>
      </trkpt>
      <trkpt lat="38.02263868041336536407470703125" lon="-1.49805388413369655609130859375">
        <ele>310.399993896484375</ele>
        <time>2020-02-22T10:40:48.000Z</time>
      </trkpt>
      <trkpt lat="38.02239543758332729339599609375" lon="-1.498049609363079071044921875">
        <ele>310.20001220703125</ele>
        <time>2020-02-22T10:40:51.000Z</time>
      </trkpt>
      <trkpt lat="38.02230977453291416168212890625" lon="-1.49804717861115932464599609375">
        <ele>310</ele>
        <time>2020-02-22T10:40:52.000Z</time>
      </trkpt>
      <trkpt lat="38.02213241346180438995361328125" lon="-1.498045586049556732177734375">
        <ele>309.600006103515625</ele>
        <time>2020-02-22T10:40:54.000Z</time>
      </trkpt>
      <trkpt lat="38.02204138599336147308349609375" lon="-1.49804701097309589385986328125">
        <ele>309.600006103515625</ele>
        <time>2020-02-22T10:40:55.000Z</time>
      </trkpt>
      <trkpt lat="38.02185899578034877777099609375" lon="-1.49805732071399688720703125">
        <ele>309</ele>
        <time>2020-02-22T10:40:57.000Z</time>
      </trkpt>
      <trkpt lat="38.02156412042677402496337890625" lon="-1.49806930683553218841552734375">
        <ele>308.399993896484375</ele>
        <time>2020-02-22T10:41:00.000Z</time>
      </trkpt>
      <trkpt lat="38.0213553272187709808349609375" lon="-1.4980848133563995361328125">
        <ele>308</ele>
        <time>2020-02-22T10:41:02.000Z</time>
      </trkpt>
      <trkpt lat="38.021031282842159271240234375" lon="-1.49812244810163974761962890625">
        <ele>306.600006103515625</ele>
        <time>2020-02-22T10:41:05.000Z</time>
      </trkpt>
      <trkpt lat="38.02081109024584293365478515625" lon="-1.4981580711901187896728515625">
        <ele>305</ele>
        <time>2020-02-22T10:41:07.000Z</time>
      </trkpt>
      <trkpt lat="38.02058964036405086517333984375" lon="-1.49820073507726192474365234375">
        <ele>304</ele>
        <time>2020-02-22T10:41:09.000Z</time>
      </trkpt>
      <trkpt lat="38.02047816105186939239501953125" lon="-1.4982296526432037353515625">
        <ele>303.399993896484375</ele>
        <time>2020-02-22T10:41:10.000Z</time>
      </trkpt>
      <trkpt lat="38.02025218494236469268798828125" lon="-1.4982886612415313720703125">
        <ele>302.20001220703125</ele>
        <time>2020-02-22T10:41:12.000Z</time>
      </trkpt>
      <trkpt lat="38.0199307389557361602783203125" lon="-1.4983917586505413055419921875">
        <ele>301</ele>
        <time>2020-02-22T10:41:15.000Z</time>
      </trkpt>
      <trkpt lat="38.01971456967294216156005859375" lon="-1.49846929125487804412841796875">
        <ele>299.79998779296875</ele>
        <time>2020-02-22T10:41:17.000Z</time>
      </trkpt>
      <trkpt lat="38.01949831657111644744873046875" lon="-1.4985577203333377838134765625">
        <ele>298.79998779296875</ele>
        <time>2020-02-22T10:41:19.000Z</time>
      </trkpt>
      <trkpt lat="38.019282817840576171875" lon="-1.49865134619176387786865234375">
        <ele>297.79998779296875</ele>
        <time>2020-02-22T10:41:21.000Z</time>
      </trkpt>
      <trkpt lat="38.0191760323941707611083984375" lon="-1.498701386153697967529296875">
        <ele>297.20001220703125</ele>
        <time>2020-02-22T10:41:22.000Z</time>
      </trkpt>
      <trkpt lat="38.0190707556903362274169921875" lon="-1.49875561706721782684326171875">
        <ele>296.600006103515625</ele>
        <time>2020-02-22T10:41:23.000Z</time>
      </trkpt>
      <trkpt lat="38.01896690391004085540771484375" lon="-1.4988116919994354248046875">
        <ele>296.20001220703125</ele>
        <time>2020-02-22T10:41:24.000Z</time>
      </trkpt>
      <trkpt lat="38.01876540295779705047607421875" lon="-1.49892560206353664398193359375">
        <ele>295</ele>
        <time>2020-02-22T10:41:26.000Z</time>
      </trkpt>
      <trkpt lat="38.018479160964488983154296875" lon="-1.4990931563079357147216796875">
        <ele>293.20001220703125</ele>
        <time>2020-02-22T10:41:29.000Z</time>
      </trkpt>
      <trkpt lat="38.01829350180923938751220703125" lon="-1.4992105029523372650146484375">
        <ele>292.79998779296875</ele>
        <time>2020-02-22T10:41:31.000Z</time>
      </trkpt>
      <trkpt lat="38.01811647601425647735595703125" lon="-1.49933346547186374664306640625">
        <ele>292</ele>
        <time>2020-02-22T10:41:33.000Z</time>
      </trkpt>
      <trkpt lat="38.0177923478186130523681640625" lon="-1.49956866167485713958740234375">
        <ele>291.20001220703125</ele>
        <time>2020-02-22T10:41:37.000Z</time>
      </trkpt>
      <trkpt lat="38.0176444910466670989990234375" lon="-1.49968600831925868988037109375">
        <ele>291</ele>
        <time>2020-02-22T10:41:39.000Z</time>
      </trkpt>
      <trkpt lat="38.01744357682764530181884765625" lon="-1.499869488179683685302734375">
        <ele>290.79998779296875</ele>
        <time>2020-02-22T10:41:42.000Z</time>
      </trkpt>
      <trkpt lat="38.01737601868808269500732421875" lon="-1.4999296702444553375244140625">
        <ele>290.79998779296875</ele>
        <time>2020-02-22T10:41:43.000Z</time>
      </trkpt>
      <trkpt lat="38.0172435007989406585693359375" lon="-1.5000480227172374725341796875">
        <ele>290.79998779296875</ele>
        <time>2020-02-22T10:41:45.000Z</time>
      </trkpt>
      <trkpt lat="38.01706102676689624786376953125" lon="-1.50021390058100223541259765625">
        <ele>290.79998779296875</ele>
        <time>2020-02-22T10:41:48.000Z</time>
      </trkpt>
      <trkpt lat="38.01695005036890506744384765625" lon="-1.50031548924744129180908203125">
        <ele>290.79998779296875</ele>
        <time>2020-02-22T10:41:50.000Z</time>
      </trkpt>
      <trkpt lat="38.01680068485438823699951171875" lon="-1.500452868640422821044921875">
        <ele>291</ele>
        <time>2020-02-22T10:41:53.000Z</time>
      </trkpt>
      <trkpt lat="38.01670982502400875091552734375" lon="-1.50052738375961780548095703125">
        <ele>291.79998779296875</ele>
        <time>2020-02-22T10:41:55.000Z</time>
      </trkpt>
      <trkpt lat="38.01666808314621448516845703125" lon="-1.5005630068480968475341796875">
        <ele>291.79998779296875</ele>
        <time>2020-02-22T10:41:56.000Z</time>
      </trkpt>
      <trkpt lat="38.01658627577126026153564453125" lon="-1.500639952719211578369140625">
        <ele>292.79998779296875</ele>
        <time>2020-02-22T10:41:58.000Z</time>
      </trkpt>
      <trkpt lat="38.01650203764438629150390625" lon="-1.50071245618164539337158203125">
        <ele>294</ele>
        <time>2020-02-22T10:42:00.000Z</time>
      </trkpt>
      <trkpt lat="38.0164180509746074676513671875" lon="-1.5007836185395717620849609375">
        <ele>295.20001220703125</ele>
        <time>2020-02-22T10:42:02.000Z</time>
      </trkpt>
      <trkpt lat="38.01633775234222412109375" lon="-1.5008582174777984619140625">
        <ele>296.20001220703125</ele>
        <time>2020-02-22T10:42:04.000Z</time>
      </trkpt>
      <trkpt lat="38.016299195587635040283203125" lon="-1.5008915774524211883544921875">
        <ele>296.600006103515625</ele>
        <time>2020-02-22T10:42:05.000Z</time>
      </trkpt>
      <trkpt lat="38.01622233353555202484130859375" lon="-1.5009579621255397796630859375">
        <ele>297.20001220703125</ele>
        <time>2020-02-22T10:42:07.000Z</time>
      </trkpt>
      <trkpt lat="38.01611001603305339813232421875" lon="-1.5010501630604267120361328125">
        <ele>298.399993896484375</ele>
        <time>2020-02-22T10:42:10.000Z</time>
      </trkpt>
      <trkpt lat="38.01599585451185703277587890625" lon="-1.501134820282459259033203125">
        <ele>299.20001220703125</ele>
        <time>2020-02-22T10:42:13.000Z</time>
      </trkpt>
      <trkpt lat="38.01595696248114109039306640625" lon="-1.50116709060966968536376953125">
        <ele>299.399993896484375</ele>
        <time>2020-02-22T10:42:14.000Z</time>
      </trkpt>
      <trkpt lat="38.015841208398342132568359375" lon="-1.501256190240383148193359375">
        <ele>300.600006103515625</ele>
        <time>2020-02-22T10:42:17.000Z</time>
      </trkpt>
      <trkpt lat="38.015731237828731536865234375" lon="-1.501344032585620880126953125">
        <ele>301.600006103515625</ele>
        <time>2020-02-22T10:42:20.000Z</time>
      </trkpt>
      <trkpt lat="38.01562990061938762664794921875" lon="-1.5014250017702579498291015625">
        <ele>302.600006103515625</ele>
        <time>2020-02-22T10:42:23.000Z</time>
      </trkpt>
      <trkpt lat="38.015595115721225738525390625" lon="-1.501451991498470306396484375">
        <ele>302.79998779296875</ele>
        <time>2020-02-22T10:42:24.000Z</time>
      </trkpt>
      <trkpt lat="38.015456981956958770751953125" lon="-1.50156070478260517120361328125">
        <ele>304</ele>
        <time>2020-02-22T10:42:28.000Z</time>
      </trkpt>
      <trkpt lat="38.0153528787195682525634765625" lon="-1.5016389079391956329345703125">
        <ele>305.20001220703125</ele>
        <time>2020-02-22T10:42:31.000Z</time>
      </trkpt>
      <trkpt lat="38.01523829810321331024169921875" lon="-1.50171342305839061737060546875">
        <ele>306.399993896484375</ele>
        <time>2020-02-22T10:42:34.000Z</time>
      </trkpt>
      <trkpt lat="38.01512095145881175994873046875" lon="-1.5017810650169849395751953125">
        <ele>307.399993896484375</ele>
        <time>2020-02-22T10:42:37.000Z</time>
      </trkpt>
      <trkpt lat="38.01495683379471302032470703125" lon="-1.50187167339026927947998046875">
        <ele>308.600006103515625</ele>
        <time>2020-02-22T10:42:41.000Z</time>
      </trkpt>
      <trkpt lat="38.01487804390490055084228515625" lon="-1.5019208751618862152099609375">
        <ele>309.20001220703125</ele>
        <time>2020-02-22T10:42:43.000Z</time>
      </trkpt>
      <trkpt lat="38.01479456014931201934814453125" lon="-1.50196420960128307342529296875">
        <ele>309.600006103515625</ele>
        <time>2020-02-22T10:42:45.000Z</time>
      </trkpt>
      <trkpt lat="38.0146340467035770416259765625" lon="-1.50204316712915897369384765625">
        <ele>311</ele>
        <time>2020-02-22T10:42:49.000Z</time>
      </trkpt>
      <trkpt lat="38.01446079276502132415771484375" lon="-1.502129919826984405517578125">
        <ele>311.79998779296875</ele>
        <time>2020-02-22T10:42:53.000Z</time>
      </trkpt>
      <trkpt lat="38.01441536284983158111572265625" lon="-1.50215305387973785400390625">
        <ele>312.20001220703125</ele>
        <time>2020-02-22T10:42:54.000Z</time>
      </trkpt>
      <trkpt lat="38.01418125629425048828125" lon="-1.50226159952580928802490234375">
        <ele>313.20001220703125</ele>
        <time>2020-02-22T10:42:59.000Z</time>
      </trkpt>
      <trkpt lat="38.01407220773398876190185546875" lon="-1.50230686180293560028076171875">
        <ele>313.600006103515625</ele>
        <time>2020-02-22T10:43:01.000Z</time>
      </trkpt>
      <trkpt lat="38.01349528133869171142578125" lon="-1.50252646766602993011474609375">
        <ele>314</ele>
        <time>2020-02-22T10:43:11.000Z</time>
      </trkpt>
      <trkpt lat="38.01317584700882434844970703125" lon="-1.50264029391109943389892578125">
        <ele>313.79998779296875</ele>
        <time>2020-02-22T10:43:16.000Z</time>
      </trkpt>
      <trkpt lat="38.0130495317280292510986328125" lon="-1.50268723256886005401611328125">
        <ele>313.600006103515625</ele>
        <time>2020-02-22T10:43:18.000Z</time>
      </trkpt>
      <trkpt lat="38.01292371936142444610595703125" lon="-1.50272897444665431976318359375">
        <ele>313.399993896484375</ele>
        <time>2020-02-22T10:43:20.000Z</time>
      </trkpt>
      <trkpt lat="38.01279765553772449493408203125" lon="-1.50276853702962398529052734375">
        <ele>313.399993896484375</ele>
        <time>2020-02-22T10:43:22.000Z</time>
      </trkpt>
      <trkpt lat="38.01273286342620849609375" lon="-1.50278764776885509490966796875">
        <ele>313.399993896484375</ele>
        <time>2020-02-22T10:43:23.000Z</time>
      </trkpt>
      <trkpt lat="38.0124648101627826690673828125" lon="-1.50287364609539508819580078125">
        <ele>313.20001220703125</ele>
        <time>2020-02-22T10:43:27.000Z</time>
      </trkpt>
      <trkpt lat="38.01232676021754741668701171875" lon="-1.50291471742093563079833984375">
        <ele>313</ele>
        <time>2020-02-22T10:43:29.000Z</time>
      </trkpt>
      <trkpt lat="38.0122586153447628021240234375" lon="-1.5029350854456424713134765625">
        <ele>313</ele>
        <time>2020-02-22T10:43:30.000Z</time>
      </trkpt>
      <trkpt lat="38.0120544321835041046142578125" lon="-1.5030018053948879241943359375">
        <ele>313</ele>
        <time>2020-02-22T10:43:33.000Z</time>
      </trkpt>
      <trkpt lat="38.01184304058551788330078125" lon="-1.50306927971541881561279296875">
        <ele>312.79998779296875</ele>
        <time>2020-02-22T10:43:36.000Z</time>
      </trkpt>
      <trkpt lat="38.011702559888362884521484375" lon="-1.5031087584793567657470703125">
        <ele>312.399993896484375</ele>
        <time>2020-02-22T10:43:38.000Z</time>
      </trkpt>
      <trkpt lat="38.01156735979020595550537109375" lon="-1.5031488239765167236328125">
        <ele>312.20001220703125</ele>
        <time>2020-02-22T10:43:40.000Z</time>
      </trkpt>
      <trkpt lat="38.01136451773345470428466796875" lon="-1.5032140351831912994384765625">
        <ele>312.20001220703125</ele>
        <time>2020-02-22T10:43:43.000Z</time>
      </trkpt>
      <trkpt lat="38.0107854120433330535888671875" lon="-1.50341712869703769683837890625">
        <ele>312.399993896484375</ele>
        <time>2020-02-22T10:43:52.000Z</time>
      </trkpt>
      <trkpt lat="38.01071994937956333160400390625" lon="-1.50343975983560085296630859375">
        <ele>312.399993896484375</ele>
        <time>2020-02-22T10:43:53.000Z</time>
      </trkpt>
      <trkpt lat="38.010452650487422943115234375" lon="-1.5035134367644786834716796875">
        <ele>312.79998779296875</ele>
        <time>2020-02-22T10:43:57.000Z</time>
      </trkpt>
      <trkpt lat="38.01024804823100566864013671875" lon="-1.5035784803330898284912109375">
        <ele>313.399993896484375</ele>
        <time>2020-02-22T10:44:00.000Z</time>
      </trkpt>
      <trkpt lat="38.01018065772950649261474609375" lon="-1.50360119529068470001220703125">
        <ele>313.600006103515625</ele>
        <time>2020-02-22T10:44:01.000Z</time>
      </trkpt>
      <trkpt lat="38.0097088403999805450439453125" lon="-1.5037397481501102447509765625">
        <ele>314.600006103515625</ele>
        <time>2020-02-22T10:44:08.000Z</time>
      </trkpt>
      <trkpt lat="38.00950708799064159393310546875" lon="-1.503797583281993865966796875">
        <ele>315</ele>
        <time>2020-02-22T10:44:11.000Z</time>
      </trkpt>
      <trkpt lat="38.00944020040333271026611328125" lon="-1.50381661020219326019287109375">
        <ele>315.20001220703125</ele>
        <time>2020-02-22T10:44:12.000Z</time>
      </trkpt>
      <trkpt lat="38.0092454887926578521728515625" lon="-1.5038772113621234893798828125">
        <ele>315.79998779296875</ele>
        <time>2020-02-22T10:44:15.000Z</time>
      </trkpt>
      <trkpt lat="38.00865397788584232330322265625" lon="-1.50406035594642162322998046875">
        <ele>316.79998779296875</ele>
        <time>2020-02-22T10:44:24.000Z</time>
      </trkpt>
      <trkpt lat="38.00836832262575626373291015625" lon="-1.5041484497487545013427734375">
        <ele>317.600006103515625</ele>
        <time>2020-02-22T10:44:28.000Z</time>
      </trkpt>
      <trkpt lat="38.00816380418837070465087890625" lon="-1.50421910919249057769775390625">
        <ele>318</ele>
        <time>2020-02-22T10:44:31.000Z</time>
      </trkpt>
      <trkpt lat="38.0079630576074123382568359375" lon="-1.50428230874240398406982421875">
        <ele>318.399993896484375</ele>
        <time>2020-02-22T10:44:34.000Z</time>
      </trkpt>
      <trkpt lat="38.007687628269195556640625" lon="-1.504375934600830078125">
        <ele>319</ele>
        <time>2020-02-22T10:44:38.000Z</time>
      </trkpt>
      <trkpt lat="38.007341288030147552490234375" lon="-1.504490263760089874267578125">
        <ele>319.399993896484375</ele>
        <time>2020-02-22T10:44:43.000Z</time>
      </trkpt>
      <trkpt lat="38.00698061473667621612548828125" lon="-1.504591517150402069091796875">
        <ele>320</ele>
        <time>2020-02-22T10:44:48.000Z</time>
      </trkpt>
      <trkpt lat="38.00654827617108821868896484375" lon="-1.50473065674304962158203125">
        <ele>320.79998779296875</ele>
        <time>2020-02-22T10:44:54.000Z</time>
      </trkpt>
      <trkpt lat="38.00647686235606670379638671875" lon="-1.5047559700906276702880859375">
        <ele>321</ele>
        <time>2020-02-22T10:44:55.000Z</time>
      </trkpt>
      <trkpt lat="38.005907647311687469482421875" lon="-1.504933834075927734375">
        <ele>322</ele>
        <time>2020-02-22T10:45:03.000Z</time>
      </trkpt>
      <trkpt lat="38.00583614967763423919677734375" lon="-1.5049557946622371673583984375">
        <ele>322</ele>
        <time>2020-02-22T10:45:04.000Z</time>
      </trkpt>
      <trkpt lat="38.0055564455687999725341796875" lon="-1.505044810473918914794921875">
        <ele>322.79998779296875</ele>
        <time>2020-02-22T10:45:08.000Z</time>
      </trkpt>
      <trkpt lat="38.00541889853775501251220703125" lon="-1.505088396370410919189453125">
        <ele>323.20001220703125</ele>
        <time>2020-02-22T10:45:10.000Z</time>
      </trkpt>
      <trkpt lat="38.00487290136516094207763671875" lon="-1.5052608959376811981201171875">
        <ele>324.20001220703125</ele>
        <time>2020-02-22T10:45:18.000Z</time>
      </trkpt>
      <trkpt lat="38.0048040859401226043701171875" lon="-1.505279503762722015380859375">
        <ele>324.20001220703125</ele>
        <time>2020-02-22T10:45:19.000Z</time>
      </trkpt>
      <trkpt lat="38.004736192524433135986328125" lon="-1.50529685430228710174560546875">
        <ele>324.399993896484375</ele>
        <time>2020-02-22T10:45:20.000Z</time>
      </trkpt>
      <trkpt lat="38.0042753554880619049072265625" lon="-1.50544345378875732421875">
        <ele>325.399993896484375</ele>
        <time>2020-02-22T10:45:27.000Z</time>
      </trkpt>
      <trkpt lat="38.0041526444256305694580078125" lon="-1.50548343546688556671142578125">
        <ele>325.399993896484375</ele>
        <time>2020-02-22T10:45:29.000Z</time>
      </trkpt>
      <trkpt lat="38.0038351379334926605224609375" lon="-1.5055800788104534149169921875">
        <ele>326</ele>
        <time>2020-02-22T10:45:34.000Z</time>
      </trkpt>
      <trkpt lat="38.00358829088509082794189453125" lon="-1.505663394927978515625">
        <ele>326.399993896484375</ele>
        <time>2020-02-22T10:45:38.000Z</time>
      </trkpt>
      <trkpt lat="38.00352794118225574493408203125" lon="-1.505682505667209625244140625">
        <ele>326.600006103515625</ele>
        <time>2020-02-22T10:45:39.000Z</time>
      </trkpt>
      <trkpt lat="38.0030331574380397796630859375" lon="-1.5058385767042636871337890625">
        <ele>327.600006103515625</ele>
        <time>2020-02-22T10:45:47.000Z</time>
      </trkpt>
      <trkpt lat="38.00284582190215587615966796875" lon="-1.5058995969593524932861328125">
        <ele>328</ele>
        <time>2020-02-22T10:45:50.000Z</time>
      </trkpt>
      <trkpt lat="38.0025299079716205596923828125" lon="-1.50600009597837924957275390625">
        <ele>328.600006103515625</ele>
        <time>2020-02-22T10:45:55.000Z</time>
      </trkpt>
      <trkpt lat="38.0022137425839900970458984375" lon="-1.50609095580875873565673828125">
        <ele>329.600006103515625</ele>
        <time>2020-02-22T10:46:00.000Z</time>
      </trkpt>
      <trkpt lat="38.00208424217998981475830078125" lon="-1.50613076984882354736328125">
        <ele>329.79998779296875</ele>
        <time>2020-02-22T10:46:02.000Z</time>
      </trkpt>
      <trkpt lat="38.00165073014795780181884765625" lon="-1.50626379065215587615966796875">
        <ele>330.600006103515625</ele>
        <time>2020-02-22T10:46:09.000Z</time>
      </trkpt>
      <trkpt lat="38.0014188028872013092041015625" lon="-1.50633470155298709869384765625">
        <ele>331</ele>
        <time>2020-02-22T10:46:13.000Z</time>
      </trkpt>
      <trkpt lat="38.00118989311158657073974609375" lon="-1.5064058639109134674072265625">
        <ele>331.600006103515625</ele>
        <time>2020-02-22T10:46:17.000Z</time>
      </trkpt>
      <trkpt lat="38.0008391104638576507568359375" lon="-1.50652664713561534881591796875">
        <ele>332.399993896484375</ele>
        <time>2020-02-22T10:46:23.000Z</time>
      </trkpt>
      <trkpt lat="38.00071866251528263092041015625" lon="-1.50656067766249179840087890625">
        <ele>332.79998779296875</ele>
        <time>2020-02-22T10:46:25.000Z</time>
      </trkpt>
      <trkpt lat="38.00047944299876689910888671875" lon="-1.50663636624813079833984375">
        <ele>333.399993896484375</ele>
        <time>2020-02-22T10:46:29.000Z</time>
      </trkpt>
      <trkpt lat="38.0003021657466888427734375" lon="-1.50670166127383708953857421875">
        <ele>333.79998779296875</ele>
        <time>2020-02-22T10:46:32.000Z</time>
      </trkpt>
      <trkpt lat="37.9999942146241664886474609375" lon="-1.506786234676837921142578125">
        <ele>334.79998779296875</ele>
        <time>2020-02-22T10:46:37.000Z</time>
      </trkpt>
      <trkpt lat="37.99974954687058925628662109375" lon="-1.50687198154628276824951171875">
        <ele>335.79998779296875</ele>
        <time>2020-02-22T10:46:41.000Z</time>
      </trkpt>
      <trkpt lat="37.99968953244388103485107421875" lon="-1.50689075700938701629638671875">
        <ele>335.79998779296875</ele>
        <time>2020-02-22T10:46:42.000Z</time>
      </trkpt>
      <trkpt lat="37.99920589663088321685791015625" lon="-1.50703660212457180023193359375">
        <ele>337</ele>
        <time>2020-02-22T10:46:50.000Z</time>
      </trkpt>
      <trkpt lat="37.99909022636711597442626953125" lon="-1.5070750750601291656494140625">
        <ele>337.20001220703125</ele>
        <time>2020-02-22T10:46:52.000Z</time>
      </trkpt>
      <trkpt lat="37.99886441789567470550537109375" lon="-1.50714196264743804931640625">
        <ele>338</ele>
        <time>2020-02-22T10:46:56.000Z</time>
      </trkpt>
      <trkpt lat="37.9985806904733180999755859375" lon="-1.5072306431829929351806640625">
        <ele>339</ele>
        <time>2020-02-22T10:47:01.000Z</time>
      </trkpt>
      <trkpt lat="37.99852612428367137908935546875" lon="-1.50724765844643115997314453125">
        <ele>339.20001220703125</ele>
        <time>2020-02-22T10:47:02.000Z</time>
      </trkpt>
      <trkpt lat="37.99825086258351802825927734375" lon="-1.50733818300068378448486328125">
        <ele>340.399993896484375</ele>
        <time>2020-02-22T10:47:07.000Z</time>
      </trkpt>
      <trkpt lat="37.998030669987201690673828125" lon="-1.5074083395302295684814453125">
        <ele>341.600006103515625</ele>
        <time>2020-02-22T10:47:11.000Z</time>
      </trkpt>
      <trkpt lat="37.9979766905307769775390625" lon="-1.50742451660335063934326171875">
        <ele>341.79998779296875</ele>
        <time>2020-02-22T10:47:12.000Z</time>
      </trkpt>
      <trkpt lat="37.9977089725434780120849609375" lon="-1.50750900618731975555419921875">
        <ele>342.600006103515625</ele>
        <time>2020-02-22T10:47:17.000Z</time>
      </trkpt>
      <trkpt lat="37.99744921736419200897216796875" lon="-1.50758913718163967132568359375">
        <ele>343.79998779296875</ele>
        <time>2020-02-22T10:47:22.000Z</time>
      </trkpt>
      <trkpt lat="37.99739976413547992706298828125" lon="-1.5076048113405704498291015625">
        <ele>344.20001220703125</ele>
        <time>2020-02-22T10:47:23.000Z</time>
      </trkpt>
      <trkpt lat="37.99729901365935802459716796875" lon="-1.50763607583940029144287109375">
        <ele>345</ele>
        <time>2020-02-22T10:47:25.000Z</time>
      </trkpt>
      <trkpt lat="37.99709533341228961944580078125" lon="-1.5076939947903156280517578125">
        <ele>346</ele>
        <time>2020-02-22T10:47:29.000Z</time>
      </trkpt>
      <trkpt lat="37.996842451393604278564453125" lon="-1.50776289403438568115234375">
        <ele>347.20001220703125</ele>
        <time>2020-02-22T10:47:34.000Z</time>
      </trkpt>
      <trkpt lat="37.99660633318126201629638671875" lon="-1.50783036835491657257080078125">
        <ele>348.399993896484375</ele>
        <time>2020-02-22T10:47:39.000Z</time>
      </trkpt>
      <trkpt lat="37.99645931459963321685791015625" lon="-1.507866494357585906982421875">
        <ele>349</ele>
        <time>2020-02-22T10:47:42.000Z</time>
      </trkpt>
      <trkpt lat="37.9963604919612407684326171875" lon="-1.5078881196677684783935546875">
        <ele>349.399993896484375</ele>
        <time>2020-02-22T10:47:44.000Z</time>
      </trkpt>
      <trkpt lat="37.996063269674777984619140625" lon="-1.50794838555157184600830078125">
        <ele>350.600006103515625</ele>
        <time>2020-02-22T10:47:50.000Z</time>
      </trkpt>
      <trkpt lat="37.995972074568271636962890625" lon="-1.5079632215201854705810546875">
        <ele>351</ele>
        <time>2020-02-22T10:47:52.000Z</time>
      </trkpt>
      <trkpt lat="37.9959303326904773712158203125" lon="-1.50797487236559391021728515625">
        <ele>351</ele>
        <time>2020-02-22T10:47:53.000Z</time>
      </trkpt>
      <trkpt lat="37.99579379148781299591064453125" lon="-1.5079980902373790740966796875">
        <ele>351.79998779296875</ele>
        <time>2020-02-22T10:47:56.000Z</time>
      </trkpt>
      <trkpt lat="37.99564878456294536590576171875" lon="-1.50801795534789562225341796875">
        <ele>352.20001220703125</ele>
        <time>2020-02-22T10:47:59.000Z</time>
      </trkpt>
      <trkpt lat="37.99539749510586261749267578125" lon="-1.50804829783737659454345703125">
        <ele>352.79998779296875</ele>
        <time>2020-02-22T10:48:04.000Z</time>
      </trkpt>
      <trkpt lat="37.9951716028153896331787109375" lon="-1.50808568112552165985107421875">
        <ele>353.600006103515625</ele>
        <time>2020-02-22T10:48:09.000Z</time>
      </trkpt>
      <trkpt lat="37.99512960948050022125244140625" lon="-1.50808802805840969085693359375">
        <ele>353.79998779296875</ele>
        <time>2020-02-22T10:48:10.000Z</time>
      </trkpt>
      <trkpt lat="37.99508459866046905517578125" lon="-1.50809791870415210723876953125">
        <ele>354</ele>
        <time>2020-02-22T10:48:11.000Z</time>
      </trkpt>
      <trkpt lat="37.99495048820972442626953125" lon="-1.5081270039081573486328125">
        <ele>354.399993896484375</ele>
        <time>2020-02-22T10:48:14.000Z</time>
      </trkpt>
      <trkpt lat="37.99480103887617588043212890625" lon="-1.5081430971622467041015625">
        <ele>355</ele>
        <time>2020-02-22T10:48:17.000Z</time>
      </trkpt>
      <trkpt lat="37.9947059042751789093017578125" lon="-1.50815583765506744384765625">
        <ele>355.600006103515625</ele>
        <time>2020-02-22T10:48:19.000Z</time>
      </trkpt>
      <trkpt lat="37.99460104666650295257568359375" lon="-1.50816732086241245269775390625">
        <ele>356</ele>
        <time>2020-02-22T10:48:21.000Z</time>
      </trkpt>
      <trkpt lat="37.9945489950478076934814453125" lon="-1.50817486457526683807373046875">
        <ele>356.20001220703125</ele>
        <time>2020-02-22T10:48:22.000Z</time>
      </trkpt>
      <trkpt lat="37.994346320629119873046875" lon="-1.50821660645306110382080078125">
        <ele>357.399993896484375</ele>
        <time>2020-02-22T10:48:26.000Z</time>
      </trkpt>
      <trkpt lat="37.99413568340241909027099609375" lon="-1.508242674171924591064453125">
        <ele>358.20001220703125</ele>
        <time>2020-02-22T10:48:30.000Z</time>
      </trkpt>
      <trkpt lat="37.99408757127821445465087890625" lon="-1.50824829004704952239990234375">
        <ele>358.399993896484375</ele>
        <time>2020-02-22T10:48:31.000Z</time>
      </trkpt>
      <trkpt lat="37.99389763735234737396240234375" lon="-1.50827745907008647918701171875">
        <ele>359.600006103515625</ele>
        <time>2020-02-22T10:48:35.000Z</time>
      </trkpt>
      <trkpt lat="37.99371038563549518585205078125" lon="-1.5083088912069797515869140625">
        <ele>360.600006103515625</ele>
        <time>2020-02-22T10:48:39.000Z</time>
      </trkpt>
      <trkpt lat="37.993560768663883209228515625" lon="-1.5083280019462108612060546875">
        <ele>361.600006103515625</ele>
        <time>2020-02-22T10:48:42.000Z</time>
      </trkpt>
      <trkpt lat="37.99345741979777812957763671875" lon="-1.508339233696460723876953125">
        <ele>362</ele>
        <time>2020-02-22T10:48:44.000Z</time>
      </trkpt>
      <trkpt lat="37.99325457774102687835693359375" lon="-1.50836907327175140380859375">
        <ele>363.20001220703125</ele>
        <time>2020-02-22T10:48:48.000Z</time>
      </trkpt>
      <trkpt lat="37.9931099899113178253173828125" lon="-1.50839463807642459869384765625">
        <ele>363.600006103515625</ele>
        <time>2020-02-22T10:48:51.000Z</time>
      </trkpt>
      <trkpt lat="37.99288786947727203369140625" lon="-1.5084413252770900726318359375">
        <ele>364.20001220703125</ele>
        <time>2020-02-22T10:48:56.000Z</time>
      </trkpt>
      <trkpt lat="37.99284202046692371368408203125" lon="-1.50844710879027843475341796875">
        <ele>364.20001220703125</ele>
        <time>2020-02-22T10:48:57.000Z</time>
      </trkpt>
      <trkpt lat="37.99257673323154449462890625" lon="-1.50850913487374782562255859375">
        <ele>365.399993896484375</ele>
        <time>2020-02-22T10:49:03.000Z</time>
      </trkpt>
      <trkpt lat="37.99247891642153263092041015625" lon="-1.50853000581264495849609375">
        <ele>365.600006103515625</ele>
        <time>2020-02-22T10:49:05.000Z</time>
      </trkpt>
      <trkpt lat="37.992429547011852264404296875" lon="-1.50852858088910579681396484375">
        <ele>365.79998779296875</ele>
        <time>2020-02-22T10:49:06.000Z</time>
      </trkpt>
      <trkpt lat="37.9921977035701274871826171875" lon="-1.5085439197719097137451171875">
        <ele>366.600006103515625</ele>
        <time>2020-02-22T10:49:11.000Z</time>
      </trkpt>
      <trkpt lat="37.99198840744793415069580078125" lon="-1.50855992920696735382080078125">
        <ele>367.600006103515625</ele>
        <time>2020-02-22T10:49:15.000Z</time>
      </trkpt>
      <trkpt lat="37.99184105359017848968505859375" lon="-1.50856495834887027740478515625">
        <ele>368.399993896484375</ele>
        <time>2020-02-22T10:49:18.000Z</time>
      </trkpt>
      <trkpt lat="37.99179277382791042327880859375" lon="-1.5085566602647304534912109375">
        <ele>368.600006103515625</ele>
        <time>2020-02-22T10:49:19.000Z</time>
      </trkpt>
      <trkpt lat="37.99174248240888118743896484375" lon="-1.50853478349745273590087890625">
        <ele>368.79998779296875</ele>
        <time>2020-02-22T10:49:20.000Z</time>
      </trkpt>
      <trkpt lat="37.9916327632963657379150390625" lon="-1.50843738578259944915771484375">
        <ele>369.399993896484375</ele>
        <time>2020-02-22T10:49:23.000Z</time>
      </trkpt>
      <trkpt lat="37.991585992276668548583984375" lon="-1.508346609771251678466796875">
        <ele>370</ele>
        <time>2020-02-22T10:49:25.000Z</time>
      </trkpt>
      <trkpt lat="37.991479374468326568603515625" lon="-1.5081509761512279510498046875">
        <ele>370.600006103515625</ele>
        <time>2020-02-22T10:49:29.000Z</time>
      </trkpt>
      <trkpt lat="37.99142564646899700164794921875" lon="-1.5080627985298633575439453125">
        <ele>371</ele>
        <time>2020-02-22T10:49:31.000Z</time>
      </trkpt>
      <trkpt lat="37.99130427651107311248779296875" lon="-1.50784612633287906646728515625">
        <ele>371.600006103515625</ele>
        <time>2020-02-22T10:49:36.000Z</time>
      </trkpt>
      <trkpt lat="37.99128382466733455657958984375" lon="-1.50779566727578639984130859375">
        <ele>371.79998779296875</ele>
        <time>2020-02-22T10:49:37.000Z</time>
      </trkpt>
      <trkpt lat="37.99124233424663543701171875" lon="-1.50771033950150012969970703125">
        <ele>372</ele>
        <time>2020-02-22T10:49:39.000Z</time>
      </trkpt>
      <trkpt lat="37.9911898635327816009521484375" lon="-1.50761662982404232025146484375">
        <ele>372.399993896484375</ele>
        <time>2020-02-22T10:49:41.000Z</time>
      </trkpt>
      <trkpt lat="37.99108483828604221343994140625" lon="-1.50743340142071247100830078125">
        <ele>373.20001220703125</ele>
        <time>2020-02-22T10:49:45.000Z</time>
      </trkpt>
      <trkpt lat="37.99096765927970409393310546875" lon="-1.507258303463459014892578125">
        <ele>374.399993896484375</ele>
        <time>2020-02-22T10:49:49.000Z</time>
      </trkpt>
      <trkpt lat="37.9907972551882266998291015625" lon="-1.50703056715428829193115234375">
        <ele>375.600006103515625</ele>
        <time>2020-02-22T10:49:54.000Z</time>
      </trkpt>
      <trkpt lat="37.990761883556842803955078125" lon="-1.5069852210581302642822265625">
        <ele>375.79998779296875</ele>
        <time>2020-02-22T10:49:55.000Z</time>
      </trkpt>
      <trkpt lat="37.99068803898990154266357421875" lon="-1.50690886192023754119873046875">
        <ele>376.79998779296875</ele>
        <time>2020-02-22T10:49:57.000Z</time>
      </trkpt>
      <trkpt lat="37.9905380867421627044677734375" lon="-1.5067897550761699676513671875">
        <ele>378</ele>
        <time>2020-02-22T10:50:01.000Z</time>
      </trkpt>
      <trkpt lat="37.99038344062864780426025390625" lon="-1.5066931955516338348388671875">
        <ele>379</ele>
        <time>2020-02-22T10:50:05.000Z</time>
      </trkpt>
      <trkpt lat="37.9902601428329944610595703125" lon="-1.50667257606983184814453125">
        <ele>379.79998779296875</ele>
        <time>2020-02-22T10:50:08.000Z</time>
      </trkpt>
      <trkpt lat="37.99017104320228099822998046875" lon="-1.50667584501206874847412109375">
        <ele>380.399993896484375</ele>
        <time>2020-02-22T10:50:10.000Z</time>
      </trkpt>
      <trkpt lat="37.99000893719494342803955078125" lon="-1.5066828019917011260986328125">
        <ele>381.600006103515625</ele>
        <time>2020-02-22T10:50:14.000Z</time>
      </trkpt>
      <trkpt lat="37.989973984658718109130859375" lon="-1.5066915191709995269775390625">
        <ele>381.79998779296875</ele>
        <time>2020-02-22T10:50:15.000Z</time>
      </trkpt>
      <trkpt lat="37.98985169269144535064697265625" lon="-1.50673300959169864654541015625">
        <ele>382.600006103515625</ele>
        <time>2020-02-22T10:50:18.000Z</time>
      </trkpt>
      <trkpt lat="37.98975496552884578704833984375" lon="-1.50680107064545154571533203125">
        <ele>383.20001220703125</ele>
        <time>2020-02-22T10:50:21.000Z</time>
      </trkpt>
      <trkpt lat="37.9896905086934566497802734375" lon="-1.50686762295663356781005859375">
        <ele>383.79998779296875</ele>
        <time>2020-02-22T10:50:23.000Z</time>
      </trkpt>
      <trkpt lat="37.9896030016243457794189453125" lon="-1.506988741457462310791015625">
        <ele>384.79998779296875</ele>
        <time>2020-02-22T10:50:26.000Z</time>
      </trkpt>
      <trkpt lat="37.98954776488244533538818359375" lon="-1.5070814453065395355224609375">
        <ele>385.20001220703125</ele>
        <time>2020-02-22T10:50:28.000Z</time>
      </trkpt>
      <trkpt lat="37.98949663527309894561767578125" lon="-1.50717624463140964508056640625">
        <ele>385.79998779296875</ele>
        <time>2020-02-22T10:50:30.000Z</time>
      </trkpt>
      <trkpt lat="37.98941097222268581390380859375" lon="-1.507424600422382354736328125">
        <ele>387</ele>
        <time>2020-02-22T10:50:35.000Z</time>
      </trkpt>
      <trkpt lat="37.989347688853740692138671875" lon="-1.50762132368981838226318359375">
        <ele>388.20001220703125</ele>
        <time>2020-02-22T10:50:39.000Z</time>
      </trkpt>
      <trkpt lat="37.989289350807666778564453125" lon="-1.507802791893482208251953125">
        <ele>389.20001220703125</ele>
        <time>2020-02-22T10:50:43.000Z</time>
      </trkpt>
      <trkpt lat="37.98919589258730411529541015625" lon="-1.50797889567911624908447265625">
        <ele>390.399993896484375</ele>
        <time>2020-02-22T10:50:48.000Z</time>
      </trkpt>
      <trkpt lat="37.9891497083008289337158203125" lon="-1.50802440941333770751953125">
        <ele>391</ele>
        <time>2020-02-22T10:50:50.000Z</time>
      </trkpt>
      <trkpt lat="37.98911894671618938446044921875" lon="-1.50806196033954620361328125">
        <ele>391.79998779296875</ele>
        <time>2020-02-22T10:50:52.000Z</time>
      </trkpt>
      <trkpt lat="37.9890816472470760345458984375" lon="-1.5081047080457210540771484375">
        <ele>392.399993896484375</ele>
        <time>2020-02-22T10:50:55.000Z</time>
      </trkpt>
      <trkpt lat="37.9890568368136882781982421875" lon="-1.50812692008912563323974609375">
        <ele>392.79998779296875</ele>
        <time>2020-02-22T10:50:57.000Z</time>
      </trkpt>
      <trkpt lat="37.9890095628798007965087890625" lon="-1.50814753957092761993408203125">
        <ele>393.20001220703125</ele>
        <time>2020-02-22T10:51:00.000Z</time>
      </trkpt>
      <trkpt lat="37.98897947184741497039794921875" lon="-1.50813982822000980377197265625">
        <ele>393.399993896484375</ele>
        <time>2020-02-22T10:51:02.000Z</time>
      </trkpt>
      <trkpt lat="37.9889619536697864532470703125" lon="-1.508133374154567718505859375">
        <ele>393.399993896484375</ele>
        <time>2020-02-22T10:51:03.000Z</time>
      </trkpt>
      <trkpt lat="37.98892079852521419525146484375" lon="-1.508133374154567718505859375">
        <ele>393.79998779296875</ele>
        <time>2020-02-22T10:51:05.000Z</time>
      </trkpt>
      <trkpt lat="37.98888592980802059173583984375" lon="-1.50816128589212894439697265625">
        <ele>394</ele>
        <time>2020-02-22T10:51:07.000Z</time>
      </trkpt>
      <trkpt lat="37.9888452775776386260986328125" lon="-1.50821895338594913482666015625">
        <ele>394</ele>
        <time>2020-02-22T10:51:09.000Z</time>
      </trkpt>
      <trkpt lat="37.98879942856729030609130859375" lon="-1.50830478407442569732666015625">
        <ele>394</ele>
        <time>2020-02-22T10:51:11.000Z</time>
      </trkpt>
      <trkpt lat="37.988661043345928192138671875" lon="-1.5084939636290073394775390625">
        <ele>394</ele>
        <time>2020-02-22T10:51:15.000Z</time>
      </trkpt>
      <trkpt lat="37.98861620016396045684814453125" lon="-1.50855003856122493743896484375">
        <ele>394</ele>
        <time>2020-02-22T10:51:16.000Z</time>
      </trkpt>
      <trkpt lat="37.98856389708817005157470703125" lon="-1.50861323811113834381103515625">
        <ele>393.79998779296875</ele>
        <time>2020-02-22T10:51:17.000Z</time>
      </trkpt>
      <trkpt lat="37.9883805848658084869384765625" lon="-1.5088191814720630645751953125">
        <ele>393</ele>
        <time>2020-02-22T10:51:20.000Z</time>
      </trkpt>
      <trkpt lat="37.988310344517230987548828125" lon="-1.508897133171558380126953125">
        <ele>392.600006103515625</ele>
        <time>2020-02-22T10:51:21.000Z</time>
      </trkpt>
      <trkpt lat="37.9880090989172458648681640625" lon="-1.50921774096786975860595703125">
        <ele>391.20001220703125</ele>
        <time>2020-02-22T10:51:25.000Z</time>
      </trkpt>
      <trkpt lat="37.98787876032292842864990234375" lon="-1.5094049088656902313232421875">
        <ele>389.600006103515625</ele>
        <time>2020-02-22T10:51:27.000Z</time>
      </trkpt>
      <trkpt lat="37.987818159162998199462890625" lon="-1.50960548780858516693115234375">
        <ele>387.600006103515625</ele>
        <time>2020-02-22T10:51:29.000Z</time>
      </trkpt>
      <trkpt lat="37.9878193326294422149658203125" lon="-1.50985208339989185333251953125">
        <ele>386.600006103515625</ele>
        <time>2020-02-22T10:51:32.000Z</time>
      </trkpt>
      <trkpt lat="37.98782276920974254608154296875" lon="-1.5099255926907062530517578125">
        <ele>386.600006103515625</ele>
        <time>2020-02-22T10:51:33.000Z</time>
      </trkpt>
      <trkpt lat="37.987839616835117340087890625" lon="-1.51012801565229892730712890625">
        <ele>386.600006103515625</ele>
        <time>2020-02-22T10:51:36.000Z</time>
      </trkpt>
      <trkpt lat="37.98785210587084293365478515625" lon="-1.51027612388134002685546875">
        <ele>386.600006103515625</ele>
        <time>2020-02-22T10:51:38.000Z</time>
      </trkpt>
      <trkpt lat="37.98784892074763774871826171875" lon="-1.51035969145596027374267578125">
        <ele>386.399993896484375</ele>
        <time>2020-02-22T10:51:39.000Z</time>
      </trkpt>
      <trkpt lat="37.98778706230223178863525390625" lon="-1.5105409920215606689453125">
        <ele>386.399993896484375</ele>
        <time>2020-02-22T10:51:41.000Z</time>
      </trkpt>
      <trkpt lat="37.98759226687252521514892578125" lon="-1.51072966866195201873779296875">
        <ele>386.399993896484375</ele>
        <time>2020-02-22T10:51:44.000Z</time>
      </trkpt>
      <trkpt lat="37.98742596991360187530517578125" lon="-1.5108092129230499267578125">
        <ele>386.399993896484375</ele>
        <time>2020-02-22T10:51:46.000Z</time>
      </trkpt>
      <trkpt lat="37.98725447617471218109130859375" lon="-1.51090510189533233642578125">
        <ele>386.399993896484375</ele>
        <time>2020-02-22T10:51:48.000Z</time>
      </trkpt>
      <trkpt lat="37.98718071542680263519287109375" lon="-1.51096721179783344268798828125">
        <ele>386</ele>
        <time>2020-02-22T10:51:49.000Z</time>
      </trkpt>
      <trkpt lat="37.9870398156344890594482421875" lon="-1.5111123025417327880859375">
        <ele>385.399993896484375</ele>
        <time>2020-02-22T10:51:51.000Z</time>
      </trkpt>
      <trkpt lat="37.98697317950427532196044921875" lon="-1.51119218207895755767822265625">
        <ele>384.79998779296875</ele>
        <time>2020-02-22T10:51:52.000Z</time>
      </trkpt>
      <trkpt lat="37.9868564195930957794189453125" lon="-1.5113666094839572906494140625">
        <ele>384</ele>
        <time>2020-02-22T10:51:54.000Z</time>
      </trkpt>
      <trkpt lat="37.98675910569727420806884765625" lon="-1.5115533582866191864013671875">
        <ele>382.79998779296875</ele>
        <time>2020-02-22T10:51:56.000Z</time>
      </trkpt>
      <trkpt lat="37.9866840876638889312744140625" lon="-1.5117394365370273590087890625">
        <ele>381.600006103515625</ele>
        <time>2020-02-22T10:51:58.000Z</time>
      </trkpt>
      <trkpt lat="37.9865493066608905792236328125" lon="-1.512095667421817779541015625">
        <ele>380.600006103515625</ele>
        <time>2020-02-22T10:52:02.000Z</time>
      </trkpt>
      <trkpt lat="37.98651653341948986053466796875" lon="-1.51217822916805744171142578125">
        <ele>380.399993896484375</ele>
        <time>2020-02-22T10:52:03.000Z</time>
      </trkpt>
      <trkpt lat="37.98630396835505962371826171875" lon="-1.51258994825184345245361328125">
        <ele>380</ele>
        <time>2020-02-22T10:52:08.000Z</time>
      </trkpt>
      <trkpt lat="37.98614672385156154632568359375" lon="-1.51282531209290027618408203125">
        <ele>379.399993896484375</ele>
        <time>2020-02-22T10:52:11.000Z</time>
      </trkpt>
      <trkpt lat="37.98608981072902679443359375" lon="-1.512907706201076507568359375">
        <ele>379.399993896484375</ele>
        <time>2020-02-22T10:52:12.000Z</time>
      </trkpt>
      <trkpt lat="37.9859746433794498443603515625" lon="-1.51308062486350536346435546875">
        <ele>379.20001220703125</ele>
        <time>2020-02-22T10:52:14.000Z</time>
      </trkpt>
      <trkpt lat="37.98567800782620906829833984375" lon="-1.51352788321673870086669921875">
        <ele>378.20001220703125</ele>
        <time>2020-02-22T10:52:19.000Z</time>
      </trkpt>
      <trkpt lat="37.985565103590488433837890625" lon="-1.513707004487514495849609375">
        <ele>377.20001220703125</ele>
        <time>2020-02-22T10:52:21.000Z</time>
      </trkpt>
      <trkpt lat="37.98550835810601711273193359375" lon="-1.5137943439185619354248046875">
        <ele>377</ele>
        <time>2020-02-22T10:52:22.000Z</time>
      </trkpt>
      <trkpt lat="37.98539905808866024017333984375" lon="-1.5139636583626270294189453125">
        <ele>376</ele>
        <time>2020-02-22T10:52:24.000Z</time>
      </trkpt>
      <trkpt lat="37.98523963429033756256103515625" lon="-1.5142127685248851776123046875">
        <ele>374.79998779296875</ele>
        <time>2020-02-22T10:52:27.000Z</time>
      </trkpt>
      <trkpt lat="37.9851334355771541595458984375" lon="-1.51437453925609588623046875">
        <ele>374</ele>
        <time>2020-02-22T10:52:29.000Z</time>
      </trkpt>
      <trkpt lat="37.9850807972252368927001953125" lon="-1.51445500552654266357421875">
        <ele>373.600006103515625</ele>
        <time>2020-02-22T10:52:30.000Z</time>
      </trkpt>
      <trkpt lat="37.98473152332007884979248046875" lon="-1.5149986557662487030029296875">
        <ele>372.600006103515625</ele>
        <time>2020-02-22T10:52:37.000Z</time>
      </trkpt>
      <trkpt lat="37.9846824891865253448486328125" lon="-1.51507384143769741058349609375">
        <ele>372.600006103515625</ele>
        <time>2020-02-22T10:52:38.000Z</time>
      </trkpt>
      <trkpt lat="37.9845762066543102264404296875" lon="-1.515225470066070556640625">
        <ele>372.399993896484375</ele>
        <time>2020-02-22T10:52:40.000Z</time>
      </trkpt>
      <trkpt lat="37.9844571836292743682861328125" lon="-1.51537609286606311798095703125">
        <ele>372.20001220703125</ele>
        <time>2020-02-22T10:52:42.000Z</time>
      </trkpt>
      <trkpt lat="37.9843296110630035400390625" lon="-1.515521518886089324951171875">
        <ele>372</ele>
        <time>2020-02-22T10:52:44.000Z</time>
      </trkpt>
      <trkpt lat="37.98419474624097347259521484375" lon="-1.51565822772681713104248046875">
        <ele>372</ele>
        <time>2020-02-22T10:52:46.000Z</time>
      </trkpt>
      <trkpt lat="37.9838396050035953521728515625" lon="-1.515971459448337554931640625">
        <ele>371.399993896484375</ele>
        <time>2020-02-22T10:52:51.000Z</time>
      </trkpt>
      <trkpt lat="37.98356853425502777099609375" lon="-1.5161965973675251007080078125">
        <ele>370.399993896484375</ele>
        <time>2020-02-22T10:52:55.000Z</time>
      </trkpt>
      <trkpt lat="37.98344154842197895050048828125" lon="-1.5163042210042476654052734375">
        <ele>370.20001220703125</ele>
        <time>2020-02-22T10:52:57.000Z</time>
      </trkpt>
      <trkpt lat="37.9830865748226642608642578125" lon="-1.51658535003662109375">
        <ele>369.79998779296875</ele>
        <time>2020-02-22T10:53:03.000Z</time>
      </trkpt>
      <trkpt lat="37.9829574935138225555419921875" lon="-1.516687609255313873291015625">
        <ele>369.79998779296875</ele>
        <time>2020-02-22T10:53:05.000Z</time>
      </trkpt>
      <trkpt lat="37.98282623291015625" lon="-1.51678106747567653656005859375">
        <ele>369.79998779296875</ele>
        <time>2020-02-22T10:53:07.000Z</time>
      </trkpt>
      <trkpt lat="37.98270176164805889129638671875" lon="-1.51686019264161586761474609375">
        <ele>369.79998779296875</ele>
        <time>2020-02-22T10:53:09.000Z</time>
      </trkpt>
      <trkpt lat="37.98258290626108646392822265625" lon="-1.51692875660955905914306640625">
        <ele>369.79998779296875</ele>
        <time>2020-02-22T10:53:11.000Z</time>
      </trkpt>
      <trkpt lat="37.98247477971017360687255859375" lon="-1.5169828198850154876708984375">
        <ele>370.20001220703125</ele>
        <time>2020-02-22T10:53:13.000Z</time>
      </trkpt>
      <trkpt lat="37.9823653958737850189208984375" lon="-1.51703520677983760833740234375">
        <ele>370.79998779296875</ele>
        <time>2020-02-22T10:53:15.000Z</time>
      </trkpt>
      <trkpt lat="37.98214604146778583526611328125" lon="-1.5171179361641407012939453125">
        <ele>371.79998779296875</ele>
        <time>2020-02-22T10:53:19.000Z</time>
      </trkpt>
      <trkpt lat="37.98193062655627727508544921875" lon="-1.5171876735985279083251953125">
        <ele>373</ele>
        <time>2020-02-22T10:53:23.000Z</time>
      </trkpt>
      <trkpt lat="37.98159367404878139495849609375" lon="-1.5172751806676387786865234375">
        <ele>374</ele>
        <time>2020-02-22T10:53:29.000Z</time>
      </trkpt>
      <trkpt lat="37.98141765408217906951904296875" lon="-1.51732019148766994476318359375">
        <ele>374.399993896484375</ele>
        <time>2020-02-22T10:53:32.000Z</time>
      </trkpt>
      <trkpt lat="37.9809937812387943267822265625" lon="-1.51744793169200420379638671875">
        <ele>375</ele>
        <time>2020-02-22T10:53:39.000Z</time>
      </trkpt>
      <trkpt lat="37.980866543948650360107421875" lon="-1.51749537326395511627197265625">
        <ele>375.20001220703125</ele>
        <time>2020-02-22T10:53:41.000Z</time>
      </trkpt>
      <trkpt lat="37.98037561587989330291748046875" lon="-1.517746411263942718505859375">
        <ele>375.399993896484375</ele>
        <time>2020-02-22T10:53:49.000Z</time>
      </trkpt>
      <trkpt lat="37.98005995340645313262939453125" lon="-1.51802209205925464630126953125">
        <ele>375.20001220703125</ele>
        <time>2020-02-22T10:53:54.000Z</time>
      </trkpt>
      <trkpt lat="37.97987647354602813720703125" lon="-1.51825477369129657745361328125">
        <ele>375.20001220703125</ele>
        <time>2020-02-22T10:53:57.000Z</time>
      </trkpt>
      <trkpt lat="37.97975334338843822479248046875" lon="-1.51844018138945102691650390625">
        <ele>375.20001220703125</ele>
        <time>2020-02-22T10:53:59.000Z</time>
      </trkpt>
      <trkpt lat="37.97962828539311885833740234375" lon="-1.5186514891684055328369140625">
        <ele>375</ele>
        <time>2020-02-22T10:54:01.000Z</time>
      </trkpt>
      <trkpt lat="37.97944321297109127044677734375" lon="-1.51899891905486583709716796875">
        <ele>373.79998779296875</ele>
        <time>2020-02-22T10:54:04.000Z</time>
      </trkpt>
      <trkpt lat="37.979328967630863189697265625" lon="-1.51923210360109806060791015625">
        <ele>372.79998779296875</ele>
        <time>2020-02-22T10:54:06.000Z</time>
      </trkpt>
      <trkpt lat="37.9792178235948085784912109375" lon="-1.51945891790091991424560546875">
        <ele>371</ele>
        <time>2020-02-22T10:54:08.000Z</time>
      </trkpt>
      <trkpt lat="37.97910726629197597503662109375" lon="-1.51967919431626796722412109375">
        <ele>369.399993896484375</ele>
        <time>2020-02-22T10:54:10.000Z</time>
      </trkpt>
      <trkpt lat="37.9790555499494075775146484375" lon="-1.51978614740073680877685546875">
        <ele>368.600006103515625</ele>
        <time>2020-02-22T10:54:11.000Z</time>
      </trkpt>
      <trkpt lat="37.97900475561618804931640625" lon="-1.51988958008587360382080078125">
        <ele>367.79998779296875</ele>
        <time>2020-02-22T10:54:12.000Z</time>
      </trkpt>
      <trkpt lat="37.978904508054256439208984375" lon="-1.5200854651629924774169921875">
        <ele>366.20001220703125</ele>
        <time>2020-02-22T10:54:14.000Z</time>
      </trkpt>
      <trkpt lat="37.97880602069199085235595703125" lon="-1.520277746021747589111328125">
        <ele>365.600006103515625</ele>
        <time>2020-02-22T10:54:16.000Z</time>
      </trkpt>
      <trkpt lat="37.978712059557437896728515625" lon="-1.5204624831676483154296875">
        <ele>365.600006103515625</ele>
        <time>2020-02-22T10:54:18.000Z</time>
      </trkpt>
      <trkpt lat="37.97862245701253414154052734375" lon="-1.52063925750553607940673828125">
        <ele>365.399993896484375</ele>
        <time>2020-02-22T10:54:20.000Z</time>
      </trkpt>
      <trkpt lat="37.97853344120085239410400390625" lon="-1.5207989327609539031982421875">
        <ele>365.399993896484375</ele>
        <time>2020-02-22T10:54:22.000Z</time>
      </trkpt>
      <trkpt lat="37.9784394800662994384765625" lon="-1.52092985808849334716796875">
        <ele>365.79998779296875</ele>
        <time>2020-02-22T10:54:24.000Z</time>
      </trkpt>
      <trkpt lat="37.97829019837081432342529296875" lon="-1.5210896171629428863525390625">
        <ele>366.600006103515625</ele>
        <time>2020-02-22T10:54:27.000Z</time>
      </trkpt>
      <trkpt lat="37.97818961553275585174560546875" lon="-1.5211754478514194488525390625">
        <ele>367.399993896484375</ele>
        <time>2020-02-22T10:54:29.000Z</time>
      </trkpt>
      <trkpt lat="37.97813848592340946197509765625" lon="-1.52121492661535739898681640625">
        <ele>367.79998779296875</ele>
        <time>2020-02-22T10:54:30.000Z</time>
      </trkpt>
      <trkpt lat="37.9780862666666507720947265625" lon="-1.5212482027709484100341796875">
        <ele>368.399993896484375</ele>
        <time>2020-02-22T10:54:31.000Z</time>
      </trkpt>
      <trkpt lat="37.97803136520087718963623046875" lon="-1.5212773717939853668212890625">
        <ele>368.79998779296875</ele>
        <time>2020-02-22T10:54:32.000Z</time>
      </trkpt>
      <trkpt lat="37.9779226519167423248291015625" lon="-1.52133042924106121063232421875">
        <ele>369.600006103515625</ele>
        <time>2020-02-22T10:54:34.000Z</time>
      </trkpt>
      <trkpt lat="37.97786976210772991180419921875" lon="-1.52135758660733699798583984375">
        <ele>370.20001220703125</ele>
        <time>2020-02-22T10:54:35.000Z</time>
      </trkpt>
      <trkpt lat="37.977816872298717498779296875" lon="-1.5213873423635959625244140625">
        <ele>370.79998779296875</ele>
        <time>2020-02-22T10:54:36.000Z</time>
      </trkpt>
      <trkpt lat="37.97776448540389537811279296875" lon="-1.52141776867210865020751953125">
        <ele>371.20001220703125</ele>
        <time>2020-02-22T10:54:37.000Z</time>
      </trkpt>
      <trkpt lat="37.9776544310152530670166015625" lon="-1.52146873064339160919189453125">
        <ele>372.399993896484375</ele>
        <time>2020-02-22T10:54:39.000Z</time>
      </trkpt>
      <trkpt lat="37.97755233943462371826171875" lon="-1.52151717804372310638427734375">
        <ele>373.399993896484375</ele>
        <time>2020-02-22T10:54:41.000Z</time>
      </trkpt>
      <trkpt lat="37.977409176528453826904296875" lon="-1.52158842422068119049072265625">
        <ele>374.600006103515625</ele>
        <time>2020-02-22T10:54:44.000Z</time>
      </trkpt>
      <trkpt lat="37.9772802628576755523681640625" lon="-1.52166545391082763671875">
        <ele>376</ele>
        <time>2020-02-22T10:54:47.000Z</time>
      </trkpt>
      <trkpt lat="37.97723743133246898651123046875" lon="-1.52169294655323028564453125">
        <ele>377</ele>
        <time>2020-02-22T10:54:48.000Z</time>
      </trkpt>
      <trkpt lat="37.9770683683454990386962890625" lon="-1.52181725017726421356201171875">
        <ele>378.20001220703125</ele>
        <time>2020-02-22T10:54:52.000Z</time>
      </trkpt>
      <trkpt lat="37.97685085795819759368896484375" lon="-1.52201908640563488006591796875">
        <ele>379.399993896484375</ele>
        <time>2020-02-22T10:54:57.000Z</time>
      </trkpt>
      <trkpt lat="37.976804338395595550537109375" lon="-1.52206443250179290771484375">
        <ele>379.600006103515625</ele>
        <time>2020-02-22T10:54:58.000Z</time>
      </trkpt>
      <trkpt lat="37.97675748355686664581298828125" lon="-1.52211028151214122772216796875">
        <ele>380</ele>
        <time>2020-02-22T10:54:59.000Z</time>
      </trkpt>
      <trkpt lat="37.9766107164323329925537109375" lon="-1.5222577191889286041259765625">
        <ele>380.399993896484375</ele>
        <time>2020-02-22T10:55:02.000Z</time>
      </trkpt>
      <trkpt lat="37.97636990435421466827392578125" lon="-1.52250456623733043670654296875">
        <ele>381</ele>
        <time>2020-02-22T10:55:07.000Z</time>
      </trkpt>
      <trkpt lat="37.975948043167591094970703125" lon="-1.522914357483386993408203125">
        <ele>381.600006103515625</ele>
        <time>2020-02-22T10:55:16.000Z</time>
      </trkpt>
      <trkpt lat="37.97590009868144989013671875" lon="-1.52295492589473724365234375">
        <ele>381.600006103515625</ele>
        <time>2020-02-22T10:55:17.000Z</time>
      </trkpt>
      <trkpt lat="37.97552324831485748291015625" lon="-1.52319624088704586029052734375">
        <ele>382.399993896484375</ele>
        <time>2020-02-22T10:55:24.000Z</time>
      </trkpt>
      <trkpt lat="37.97535401768982410430908203125" lon="-1.52328341268002986907958984375">
        <ele>382.600006103515625</ele>
        <time>2020-02-22T10:55:27.000Z</time>
      </trkpt>
      <trkpt lat="37.97506601549685001373291015625" lon="-1.52343370020389556884765625">
        <ele>382.600006103515625</ele>
        <time>2020-02-22T10:55:32.000Z</time>
      </trkpt>
      <trkpt lat="37.97481908462941646575927734375" lon="-1.52355984784662723541259765625">
        <ele>382.79998779296875</ele>
        <time>2020-02-22T10:55:36.000Z</time>
      </trkpt>
      <trkpt lat="37.97457466833293437957763671875" lon="-1.52372882701456546783447265625">
        <ele>382.79998779296875</ele>
        <time>2020-02-22T10:55:40.000Z</time>
      </trkpt>
      <trkpt lat="37.974453382194042205810546875" lon="-1.5238442458212375640869140625">
        <ele>382.79998779296875</ele>
        <time>2020-02-22T10:55:42.000Z</time>
      </trkpt>
      <trkpt lat="37.9742688126862049102783203125" lon="-1.524055637419223785400390625">
        <ele>382.79998779296875</ele>
        <time>2020-02-22T10:55:45.000Z</time>
      </trkpt>
      <trkpt lat="37.97415666282176971435546875" lon="-1.52421866543591022491455078125">
        <ele>382.399993896484375</ele>
        <time>2020-02-22T10:55:47.000Z</time>
      </trkpt>
      <trkpt lat="37.97395055182278156280517578125" lon="-1.5245835296809673309326171875">
        <ele>381.20001220703125</ele>
        <time>2020-02-22T10:55:51.000Z</time>
      </trkpt>
      <trkpt lat="37.97374217770993709564208984375" lon="-1.52496716938912868499755859375">
        <ele>379.79998779296875</ele>
        <time>2020-02-22T10:55:55.000Z</time>
      </trkpt>
      <trkpt lat="37.9736383259296417236328125" lon="-1.52516196481883525848388671875">
        <ele>378.79998779296875</ele>
        <time>2020-02-22T10:55:57.000Z</time>
      </trkpt>
      <trkpt lat="37.9734825901687145233154296875" lon="-1.52545876801013946533203125">
        <ele>377.79998779296875</ele>
        <time>2020-02-22T10:56:00.000Z</time>
      </trkpt>
      <trkpt lat="37.9733206517994403839111328125" lon="-1.5257630310952663421630859375">
        <ele>376.79998779296875</ele>
        <time>2020-02-22T10:56:03.000Z</time>
      </trkpt>
      <trkpt lat="37.9732668399810791015625" lon="-1.525862105190753936767578125">
        <ele>376.600006103515625</ele>
        <time>2020-02-22T10:56:04.000Z</time>
      </trkpt>
      <trkpt lat="37.97306366264820098876953125" lon="-1.52623526751995086669921875">
        <ele>376.399993896484375</ele>
        <time>2020-02-22T10:56:08.000Z</time>
      </trkpt>
      <trkpt lat="37.9729716293513774871826171875" lon="-1.52640399523079395294189453125">
        <ele>376.20001220703125</ele>
        <time>2020-02-22T10:56:10.000Z</time>
      </trkpt>
      <trkpt lat="37.9728130437433719635009765625" lon="-1.526699624955654144287109375">
        <ele>376</ele>
        <time>2020-02-22T10:56:14.000Z</time>
      </trkpt>
      <trkpt lat="37.972739450633525848388671875" lon="-1.52683566324412822723388671875">
        <ele>376</ele>
        <time>2020-02-22T10:56:16.000Z</time>
      </trkpt>
      <trkpt lat="37.97266828827559947967529296875" lon="-1.52696507982909679412841796875">
        <ele>376.399993896484375</ele>
        <time>2020-02-22T10:56:18.000Z</time>
      </trkpt>
      <trkpt lat="37.972561754286289215087890625" lon="-1.527162976562976837158203125">
        <ele>377.20001220703125</ele>
        <time>2020-02-22T10:56:21.000Z</time>
      </trkpt>
      <trkpt lat="37.97252655029296875" lon="-1.52722743339836597442626953125">
        <ele>377.600006103515625</ele>
        <time>2020-02-22T10:56:22.000Z</time>
      </trkpt>
      <trkpt lat="37.972424291074275970458984375" lon="-1.5274228155612945556640625">
        <ele>378.79998779296875</ele>
        <time>2020-02-22T10:56:25.000Z</time>
      </trkpt>
      <trkpt lat="37.97231323085725307464599609375" lon="-1.52764284051954746246337890625">
        <ele>380</ele>
        <time>2020-02-22T10:56:28.000Z</time>
      </trkpt>
      <trkpt lat="37.97212497331202030181884765625" lon="-1.52804517187178134918212890625">
        <ele>380.600006103515625</ele>
        <time>2020-02-22T10:56:33.000Z</time>
      </trkpt>
      <trkpt lat="37.9718970693647861480712890625" lon="-1.5286400355398654937744140625">
        <ele>380.79998779296875</ele>
        <time>2020-02-22T10:56:39.000Z</time>
      </trkpt>
      <trkpt lat="37.97171317040920257568359375" lon="-1.5292539261281490325927734375">
        <ele>379.600006103515625</ele>
        <time>2020-02-22T10:56:44.000Z</time>
      </trkpt>
      <trkpt lat="37.97164167277514934539794921875" lon="-1.529519967734813690185546875">
        <ele>379</ele>
        <time>2020-02-22T10:56:46.000Z</time>
      </trkpt>
      <trkpt lat="37.971606217324733734130859375" lon="-1.529655419290065765380859375">
        <ele>377.79998779296875</ele>
        <time>2020-02-22T10:56:47.000Z</time>
      </trkpt>
      <trkpt lat="37.9715354740619659423828125" lon="-1.52992506511509418487548828125">
        <ele>376.399993896484375</ele>
        <time>2020-02-22T10:56:49.000Z</time>
      </trkpt>
      <trkpt lat="37.97146364115178585052490234375" lon="-1.53019378893077373504638671875">
        <ele>375.20001220703125</ele>
        <time>2020-02-22T10:56:51.000Z</time>
      </trkpt>
      <trkpt lat="37.9713933169841766357421875" lon="-1.53046251274645328521728515625">
        <ele>373.79998779296875</ele>
        <time>2020-02-22T10:56:53.000Z</time>
      </trkpt>
      <trkpt lat="37.971321903169155120849609375" lon="-1.53073039837181568145751953125">
        <ele>372.399993896484375</ele>
        <time>2020-02-22T10:56:55.000Z</time>
      </trkpt>
      <trkpt lat="37.9712592065334320068359375" lon="-1.53098654933273792266845703125">
        <ele>371</ele>
        <time>2020-02-22T10:56:57.000Z</time>
      </trkpt>
      <trkpt lat="37.9712003655731678009033203125" lon="-1.5312287025153636932373046875">
        <ele>370</ele>
        <time>2020-02-22T10:56:59.000Z</time>
      </trkpt>
      <trkpt lat="37.97117144800722599029541015625" lon="-1.53134462423622608184814453125">
        <ele>369.600006103515625</ele>
        <time>2020-02-22T10:57:00.000Z</time>
      </trkpt>
      <trkpt lat="37.971003390848636627197265625" lon="-1.5319575928151607513427734375">
        <ele>369</ele>
        <time>2020-02-22T10:57:06.000Z</time>
      </trkpt>
      <trkpt lat="37.97092518769204616546630859375" lon="-1.53227803297340869903564453125">
        <ele>369</ele>
        <time>2020-02-22T10:57:10.000Z</time>
      </trkpt>
      <trkpt lat="37.97091261483728885650634765625" lon="-1.532348692417144775390625">
        <ele>369.20001220703125</ele>
        <time>2020-02-22T10:57:11.000Z</time>
      </trkpt>
      <trkpt lat="37.97088168561458587646484375" lon="-1.5325423143804073333740234375">
        <ele>370.600006103515625</ele>
        <time>2020-02-22T10:57:14.000Z</time>
      </trkpt>
      <trkpt lat="37.97087321989238262176513671875" lon="-1.5326016582548618316650390625">
        <ele>371.20001220703125</ele>
        <time>2020-02-22T10:57:15.000Z</time>
      </trkpt>
      <trkpt lat="37.970858551561832427978515625" lon="-1.53271623887121677398681640625">
        <ele>372.399993896484375</ele>
        <time>2020-02-22T10:57:17.000Z</time>
      </trkpt>
      <trkpt lat="37.9708530195057392120361328125" lon="-1.53277474455535411834716796875">
        <ele>372.79998779296875</ele>
        <time>2020-02-22T10:57:18.000Z</time>
      </trkpt>
      <trkpt lat="37.97084413468837738037109375" lon="-1.53289594687521457672119140625">
        <ele>373.79998779296875</ele>
        <time>2020-02-22T10:57:20.000Z</time>
      </trkpt>
      <trkpt lat="37.97083583660423755645751953125" lon="-1.53301530517637729644775390625">
        <ele>375</ele>
        <time>2020-02-22T10:57:22.000Z</time>
      </trkpt>
      <trkpt lat="37.97082829289138317108154296875" lon="-1.5331307239830493927001953125">
        <ele>375.79998779296875</ele>
        <time>2020-02-22T10:57:24.000Z</time>
      </trkpt>
      <trkpt lat="37.970823012292385101318359375" lon="-1.53318646363914012908935546875">
        <ele>376.20001220703125</ele>
        <time>2020-02-22T10:57:25.000Z</time>
      </trkpt>
      <trkpt lat="37.97081722877919673919677734375" lon="-1.53329073451459407806396484375">
        <ele>377.20001220703125</ele>
        <time>2020-02-22T10:57:27.000Z</time>
      </trkpt>
      <trkpt lat="37.9708211682736873626708984375" lon="-1.533437334001064300537109375">
        <ele>378.600006103515625</ele>
        <time>2020-02-22T10:57:30.000Z</time>
      </trkpt>
      <trkpt lat="37.97082393430173397064208984375" lon="-1.533585526049137115478515625">
        <ele>380</ele>
        <time>2020-02-22T10:57:33.000Z</time>
      </trkpt>
      <trkpt lat="37.97082376666367053985595703125" lon="-1.53373204171657562255859375">
        <ele>381.399993896484375</ele>
        <time>2020-02-22T10:57:36.000Z</time>
      </trkpt>
      <trkpt lat="37.97082309611141681671142578125" lon="-1.5338894538581371307373046875">
        <ele>382.79998779296875</ele>
        <time>2020-02-22T10:57:39.000Z</time>
      </trkpt>
      <trkpt lat="37.97083432786166667938232421875" lon="-1.534042172133922576904296875">
        <ele>384</ele>
        <time>2020-02-22T10:57:42.000Z</time>
      </trkpt>
      <trkpt lat="37.97083533369004726409912109375" lon="-1.53414367698132991790771484375">
        <ele>384.79998779296875</ele>
        <time>2020-02-22T10:57:44.000Z</time>
      </trkpt>
      <trkpt lat="37.9708369262516498565673828125" lon="-1.53419413603842258453369140625">
        <ele>385</ele>
        <time>2020-02-22T10:57:45.000Z</time>
      </trkpt>
      <trkpt lat="37.9708375968039035797119140625" lon="-1.5343402326107025146484375">
        <ele>386.399993896484375</ele>
        <time>2020-02-22T10:57:48.000Z</time>
      </trkpt>
      <trkpt lat="37.9708392731845378875732421875" lon="-1.53449923731386661529541015625">
        <ele>387.399993896484375</ele>
        <time>2020-02-22T10:57:51.000Z</time>
      </trkpt>
      <trkpt lat="37.9708369262516498565673828125" lon="-1.53471331112086772918701171875">
        <ele>388.399993896484375</ele>
        <time>2020-02-22T10:57:55.000Z</time>
      </trkpt>
      <trkpt lat="37.97083650715649127960205078125" lon="-1.53494280762970447540283203125">
        <ele>389.399993896484375</ele>
        <time>2020-02-22T10:57:59.000Z</time>
      </trkpt>
      <trkpt lat="37.97082963399589061737060546875" lon="-1.53519711457192897796630859375">
        <ele>390.600006103515625</ele>
        <time>2020-02-22T10:58:03.000Z</time>
      </trkpt>
      <trkpt lat="37.9707705415785312652587890625" lon="-1.53572064824402332305908203125">
        <ele>391.600006103515625</ele>
        <time>2020-02-22T10:58:10.000Z</time>
      </trkpt>
      <trkpt lat="37.9707544483244419097900390625" lon="-1.53580094687640666961669921875">
        <ele>391.600006103515625</ele>
        <time>2020-02-22T10:58:11.000Z</time>
      </trkpt>
      <trkpt lat="37.9706303961575031280517578125" lon="-1.5363758616149425506591796875">
        <ele>391.79998779296875</ele>
        <time>2020-02-22T10:58:18.000Z</time>
      </trkpt>
      <trkpt lat="37.97046435065567493438720703125" lon="-1.53704817406833171844482421875">
        <ele>391.79998779296875</ele>
        <time>2020-02-22T10:58:26.000Z</time>
      </trkpt>
      <trkpt lat="37.9704084433615207672119140625" lon="-1.53720307163894176483154296875">
        <ele>391.79998779296875</ele>
        <time>2020-02-22T10:58:28.000Z</time>
      </trkpt>
      <trkpt lat="37.9702260531485080718994140625" lon="-1.53753541409969329833984375">
        <ele>392</ele>
        <time>2020-02-22T10:58:33.000Z</time>
      </trkpt>
      <trkpt lat="37.97018640674650669097900390625" lon="-1.5375959314405918121337890625">
        <ele>392</ele>
        <time>2020-02-22T10:58:34.000Z</time>
      </trkpt>
      <trkpt lat="37.96997736208140850067138671875" lon="-1.53789642266929149627685546875">
        <ele>392.20001220703125</ele>
        <time>2020-02-22T10:58:39.000Z</time>
      </trkpt>
      <trkpt lat="37.96984107233583927154541015625" lon="-1.53808526694774627685546875">
        <ele>392.79998779296875</ele>
        <time>2020-02-22T10:58:42.000Z</time>
      </trkpt>
      <trkpt lat="37.96974987722933292388916015625" lon="-1.5382195450365543365478515625">
        <ele>393</ele>
        <time>2020-02-22T10:58:44.000Z</time>
      </trkpt>
      <trkpt lat="37.96961073763668537139892578125" lon="-1.53841844759881496429443359375">
        <ele>393.20001220703125</ele>
        <time>2020-02-22T10:58:47.000Z</time>
      </trkpt>
      <trkpt lat="37.96943086199462413787841796875" lon="-1.53869136236608028411865234375">
        <ele>393.399993896484375</ele>
        <time>2020-02-22T10:58:51.000Z</time>
      </trkpt>
      <trkpt lat="37.96930345706641674041748046875" lon="-1.538909040391445159912109375">
        <ele>393.600006103515625</ele>
        <time>2020-02-22T10:58:54.000Z</time>
      </trkpt>
      <trkpt lat="37.9691773094236850738525390625" lon="-1.53912940062582492828369140625">
        <ele>393.79998779296875</ele>
        <time>2020-02-22T10:58:57.000Z</time>
      </trkpt>
      <trkpt lat="37.96884815208613872528076171875" lon="-1.53971596620976924896240234375">
        <ele>394</ele>
        <time>2020-02-22T10:59:05.000Z</time>
      </trkpt>
      <trkpt lat="37.968805320560932159423828125" lon="-1.53978846967220306396484375">
        <ele>394</ele>
        <time>2020-02-22T10:59:06.000Z</time>
      </trkpt>
      <trkpt lat="37.96848244965076446533203125" lon="-1.540380232036113739013671875">
        <ele>394.20001220703125</ele>
        <time>2020-02-22T10:59:14.000Z</time>
      </trkpt>
      <trkpt lat="37.96837256290018558502197265625" lon="-1.54061635024845600128173828125">
        <ele>394.399993896484375</ele>
        <time>2020-02-22T10:59:17.000Z</time>
      </trkpt>
      <trkpt lat="37.96817743219435214996337890625" lon="-1.54116486199200153350830078125">
        <ele>394.79998779296875</ele>
        <time>2020-02-22T10:59:24.000Z</time>
      </trkpt>
      <trkpt lat="37.96807299368083477020263671875" lon="-1.5414509363472461700439453125">
        <ele>395.20001220703125</ele>
        <time>2020-02-22T10:59:28.000Z</time>
      </trkpt>
      <trkpt lat="37.9679344408214092254638671875" lon="-1.54182133264839649200439453125">
        <ele>395.79998779296875</ele>
        <time>2020-02-22T10:59:33.000Z</time>
      </trkpt>
      <trkpt lat="37.96790770255029201507568359375" lon="-1.5418946743011474609375">
        <ele>396</ele>
        <time>2020-02-22T10:59:34.000Z</time>
      </trkpt>
      <trkpt lat="37.96768709085881710052490234375" lon="-1.54237302951514720916748046875">
        <ele>396.20001220703125</ele>
        <time>2020-02-22T10:59:41.000Z</time>
      </trkpt>
      <trkpt lat="37.9674653895199298858642578125" lon="-1.5426428429782390594482421875">
        <ele>396.79998779296875</ele>
        <time>2020-02-22T10:59:46.000Z</time>
      </trkpt>
      <trkpt lat="37.96741585247218608856201171875" lon="-1.54268852435052394866943359375">
        <ele>397</ele>
        <time>2020-02-22T10:59:47.000Z</time>
      </trkpt>
      <trkpt lat="37.9670818336308002471923828125" lon="-1.54291366226971149444580078125">
        <ele>398.20001220703125</ele>
        <time>2020-02-22T10:59:53.000Z</time>
      </trkpt>
      <trkpt lat="37.9670221544802188873291015625" lon="-1.54294945299625396728515625">
        <ele>398.399993896484375</ele>
        <time>2020-02-22T10:59:54.000Z</time>
      </trkpt>
      <trkpt lat="37.966721244156360626220703125" lon="-1.54312153346836566925048828125">
        <ele>399.20001220703125</ele>
        <time>2020-02-22T10:59:59.000Z</time>
      </trkpt>
      <trkpt lat="37.96642963774502277374267578125" lon="-1.5432952903211116790771484375">
        <ele>399.79998779296875</ele>
        <time>2020-02-22T11:00:04.000Z</time>
      </trkpt>
      <trkpt lat="37.965995036065578460693359375" lon="-1.5435568057000637054443359375">
        <ele>400.600006103515625</ele>
        <time>2020-02-22T11:00:12.000Z</time>
      </trkpt>
      <trkpt lat="37.9658976383507251739501953125" lon="-1.5436258725821971893310546875">
        <ele>400.79998779296875</ele>
        <time>2020-02-22T11:00:14.000Z</time>
      </trkpt>
      <trkpt lat="37.96580367721617221832275390625" lon="-1.54369468800723552703857421875">
        <ele>401.600006103515625</ele>
        <time>2020-02-22T11:00:16.000Z</time>
      </trkpt>
      <trkpt lat="37.96562531031668186187744140625" lon="-1.5438642539083957672119140625">
        <ele>402.600006103515625</ele>
        <time>2020-02-22T11:00:20.000Z</time>
      </trkpt>
      <trkpt lat="37.96554811298847198486328125" lon="-1.5439691953361034393310546875">
        <ele>403</ele>
        <time>2020-02-22T11:00:22.000Z</time>
      </trkpt>
      <trkpt lat="37.96541106887161731719970703125" lon="-1.54420430772006511688232421875">
        <ele>403.600006103515625</ele>
        <time>2020-02-22T11:00:26.000Z</time>
      </trkpt>
      <trkpt lat="37.965308725833892822265625" lon="-1.54440413229167461395263671875">
        <ele>404.600006103515625</ele>
        <time>2020-02-22T11:00:29.000Z</time>
      </trkpt>
      <trkpt lat="37.96523823402822017669677734375" lon="-1.54454628936946392059326171875">
        <ele>404.79998779296875</ele>
        <time>2020-02-22T11:00:31.000Z</time>
      </trkpt>
      <trkpt lat="37.9650980047881603240966796875" lon="-1.54481828212738037109375">
        <ele>406</ele>
        <time>2020-02-22T11:00:35.000Z</time>
      </trkpt>
      <trkpt lat="37.9649625532329082489013671875" lon="-1.54508390463888645172119140625">
        <ele>406.79998779296875</ele>
        <time>2020-02-22T11:00:39.000Z</time>
      </trkpt>
      <trkpt lat="37.96487060375511646270751953125" lon="-1.5452844835817813873291015625">
        <ele>407</ele>
        <time>2020-02-22T11:00:42.000Z</time>
      </trkpt>
      <trkpt lat="37.96463758684694766998291015625" lon="-1.545850597321987152099609375">
        <ele>408.20001220703125</ele>
        <time>2020-02-22T11:00:50.000Z</time>
      </trkpt>
      <trkpt lat="37.9646078310906887054443359375" lon="-1.54591991566121578216552734375">
        <ele>408.20001220703125</ele>
        <time>2020-02-22T11:00:51.000Z</time>
      </trkpt>
      <trkpt lat="37.964444719254970550537109375" lon="-1.5464230813086032867431640625">
        <ele>409.20001220703125</ele>
        <time>2020-02-22T11:00:58.000Z</time>
      </trkpt>
      <trkpt lat="37.9644368402659893035888671875" lon="-1.54650329612195491790771484375">
        <ele>409.399993896484375</ele>
        <time>2020-02-22T11:00:59.000Z</time>
      </trkpt>
      <trkpt lat="37.96443692408502101898193359375" lon="-1.54675022698938846588134765625">
        <ele>409.600006103515625</ele>
        <time>2020-02-22T11:01:02.000Z</time>
      </trkpt>
      <trkpt lat="37.9644549451768398284912109375" lon="-1.54699598439037799835205078125">
        <ele>409.600006103515625</ele>
        <time>2020-02-22T11:01:05.000Z</time>
      </trkpt>
      <trkpt lat="37.96445871703326702117919921875" lon="-1.54731516726315021514892578125">
        <ele>409.79998779296875</ele>
        <time>2020-02-22T11:01:09.000Z</time>
      </trkpt>
      <trkpt lat="37.9644495807588100433349609375" lon="-1.5473957173526287078857421875">
        <ele>410</ele>
        <time>2020-02-22T11:01:10.000Z</time>
      </trkpt>
      <trkpt lat="37.9644177295267581939697265625" lon="-1.547554470598697662353515625">
        <ele>410</ele>
        <time>2020-02-22T11:01:12.000Z</time>
      </trkpt>
      <trkpt lat="37.96434774063527584075927734375" lon="-1.547790504992008209228515625">
        <ele>410.20001220703125</ele>
        <time>2020-02-22T11:01:15.000Z</time>
      </trkpt>
      <trkpt lat="37.96426073648035526275634765625" lon="-1.548028551042079925537109375">
        <ele>410.399993896484375</ele>
        <time>2020-02-22T11:01:18.000Z</time>
      </trkpt>
      <trkpt lat="37.96404666267335414886474609375" lon="-1.5485889650881290435791015625">
        <ele>410.399993896484375</ele>
        <time>2020-02-22T11:01:25.000Z</time>
      </trkpt>
      <trkpt lat="37.9639557190239429473876953125" lon="-1.54882743023335933685302734375">
        <ele>410.399993896484375</ele>
        <time>2020-02-22T11:01:28.000Z</time>
      </trkpt>
      <trkpt lat="37.96377056278288364410400390625" lon="-1.54930402524769306182861328125">
        <ele>410.600006103515625</ele>
        <time>2020-02-22T11:01:34.000Z</time>
      </trkpt>
      <trkpt lat="37.96363276429474353790283203125" lon="-1.54961348511278629302978515625">
        <ele>410.79998779296875</ele>
        <time>2020-02-22T11:01:38.000Z</time>
      </trkpt>
      <trkpt lat="37.96329279430210590362548828125" lon="-1.5501947700977325439453125">
        <ele>411.399993896484375</ele>
        <time>2020-02-22T11:01:46.000Z</time>
      </trkpt>
      <trkpt lat="37.9632492922246456146240234375" lon="-1.5502650104463100433349609375">
        <ele>411.399993896484375</ele>
        <time>2020-02-22T11:01:47.000Z</time>
      </trkpt>
      <trkpt lat="37.96295785345137119293212890625" lon="-1.5506944991648197174072265625">
        <ele>411.600006103515625</ele>
        <time>2020-02-22T11:01:53.000Z</time>
      </trkpt>
      <trkpt lat="37.9628102481365203857421875" lon="-1.5509117580950260162353515625">
        <ele>411.600006103515625</ele>
        <time>2020-02-22T11:01:56.000Z</time>
      </trkpt>
      <trkpt lat="37.96242199838161468505859375" lon="-1.5514715015888214111328125">
        <ele>412.20001220703125</ele>
        <time>2020-02-22T11:02:04.000Z</time>
      </trkpt>
      <trkpt lat="37.96228252351284027099609375" lon="-1.55170091427862644195556640625">
        <ele>412.399993896484375</ele>
        <time>2020-02-22T11:02:07.000Z</time>
      </trkpt>
      <trkpt lat="37.96223969198763370513916015625" lon="-1.5517771057784557342529296875">
        <ele>412.600006103515625</ele>
        <time>2020-02-22T11:02:08.000Z</time>
      </trkpt>
      <trkpt lat="37.9620312340557575225830078125" lon="-1.55217759311199188232421875">
        <ele>412.79998779296875</ele>
        <time>2020-02-22T11:02:13.000Z</time>
      </trkpt>
      <trkpt lat="37.96191263012588024139404296875" lon="-1.552432738244533538818359375">
        <ele>413</ele>
        <time>2020-02-22T11:02:16.000Z</time>
      </trkpt>
      <trkpt lat="37.96165564097464084625244140625" lon="-1.5530317090451717376708984375">
        <ele>413.600006103515625</ele>
        <time>2020-02-22T11:02:23.000Z</time>
      </trkpt>
      <trkpt lat="37.9616201855242252349853515625" lon="-1.55311695300042629241943359375">
        <ele>413.600006103515625</ele>
        <time>2020-02-22T11:02:24.000Z</time>
      </trkpt>
      <trkpt lat="37.9615139029920101165771484375" lon="-1.55337628908455371856689453125">
        <ele>413.79998779296875</ele>
        <time>2020-02-22T11:02:27.000Z</time>
      </trkpt>
      <trkpt lat="37.96136897988617420196533203125" lon="-1.55373017303645610809326171875">
        <ele>413.79998779296875</ele>
        <time>2020-02-22T11:02:31.000Z</time>
      </trkpt>
      <trkpt lat="37.96122866682708263397216796875" lon="-1.55407081358134746551513671875">
        <ele>414</ele>
        <time>2020-02-22T11:02:35.000Z</time>
      </trkpt>
      <trkpt lat="37.9609663970768451690673828125" lon="-1.5547335706651210784912109375">
        <ele>414.600006103515625</ele>
        <time>2020-02-22T11:02:43.000Z</time>
      </trkpt>
      <trkpt lat="37.96093412674963474273681640625" lon="-1.554819233715534210205078125">
        <ele>414.600006103515625</ele>
        <time>2020-02-22T11:02:44.000Z</time>
      </trkpt>
      <trkpt lat="37.9606713540852069854736328125" lon="-1.555488109588623046875">
        <ele>415.79998779296875</ele>
        <time>2020-02-22T11:02:52.000Z</time>
      </trkpt>
      <trkpt lat="37.96044051647186279296875" lon="-1.55618087388575077056884765625">
        <ele>416.79998779296875</ele>
        <time>2020-02-22T11:03:00.000Z</time>
      </trkpt>
      <trkpt lat="37.9604115150868892669677734375" lon="-1.55626938678324222564697265625">
        <ele>417</ele>
        <time>2020-02-22T11:03:01.000Z</time>
      </trkpt>
      <trkpt lat="37.96018830500543117523193359375" lon="-1.55697799287736415863037109375">
        <ele>417.399993896484375</ele>
        <time>2020-02-22T11:03:09.000Z</time>
      </trkpt>
      <trkpt lat="37.96008017845451831817626953125" lon="-1.55732165090739727020263671875">
        <ele>417.600006103515625</ele>
        <time>2020-02-22T11:03:13.000Z</time>
      </trkpt>
      <trkpt lat="37.96002485789358615875244140625" lon="-1.55748903751373291015625">
        <ele>418</ele>
        <time>2020-02-22T11:03:15.000Z</time>
      </trkpt>
      <trkpt lat="37.95982821844518184661865234375" lon="-1.55809110961854457855224609375">
        <ele>419</ele>
        <time>2020-02-22T11:03:22.000Z</time>
      </trkpt>
      <trkpt lat="37.95979988761246204376220703125" lon="-1.55817861668765544891357421875">
        <ele>419.20001220703125</ele>
        <time>2020-02-22T11:03:23.000Z</time>
      </trkpt>
      <trkpt lat="37.95959369279444217681884765625" lon="-1.5588531084358692169189453125">
        <ele>419.600006103515625</ele>
        <time>2020-02-22T11:03:31.000Z</time>
      </trkpt>
      <trkpt lat="37.95951674692332744598388671875" lon="-1.5591112710535526275634765625">
        <ele>420</ele>
        <time>2020-02-22T11:03:34.000Z</time>
      </trkpt>
      <trkpt lat="37.959404848515987396240234375" lon="-1.55974368564784526824951171875">
        <ele>420.600006103515625</ele>
        <time>2020-02-22T11:03:41.000Z</time>
      </trkpt>
      <trkpt lat="37.9593647830188274383544921875" lon="-1.56052068807184696197509765625">
        <ele>420.79998779296875</ele>
        <time>2020-02-22T11:03:49.000Z</time>
      </trkpt>
      <trkpt lat="37.95935086905956268310546875" lon="-1.5607293136417865753173828125">
        <ele>420.79998779296875</ele>
        <time>2020-02-22T11:03:51.000Z</time>
      </trkpt>
      <trkpt lat="37.95933033339679241180419921875" lon="-1.56094280071556568145751953125">
        <ele>420.600006103515625</ele>
        <time>2020-02-22T11:03:53.000Z</time>
      </trkpt>
      <trkpt lat="37.95929177664220333099365234375" lon="-1.5612784959375858306884765625">
        <ele>420.399993896484375</ele>
        <time>2020-02-22T11:03:56.000Z</time>
      </trkpt>
      <trkpt lat="37.9592450894415378570556640625" lon="-1.5615044720470905303955078125">
        <ele>420.20001220703125</ele>
        <time>2020-02-22T11:03:58.000Z</time>
      </trkpt>
      <trkpt lat="37.95920862816274166107177734375" lon="-1.5616142749786376953125">
        <ele>420.20001220703125</ele>
        <time>2020-02-22T11:03:59.000Z</time>
      </trkpt>
      <trkpt lat="37.95905314385890960693359375" lon="-1.561927087604999542236328125">
        <ele>419.399993896484375</ele>
        <time>2020-02-22T11:04:02.000Z</time>
      </trkpt>
      <trkpt lat="37.958991788327693939208984375" lon="-1.56202943064272403717041015625">
        <ele>419.20001220703125</ele>
        <time>2020-02-22T11:04:03.000Z</time>
      </trkpt>
      <trkpt lat="37.9586855135858058929443359375" lon="-1.56252513639628887176513671875">
        <ele>418</ele>
        <time>2020-02-22T11:04:08.000Z</time>
      </trkpt>
      <trkpt lat="37.958624660968780517578125" lon="-1.56262136064469814300537109375">
        <ele>417.600006103515625</ele>
        <time>2020-02-22T11:04:09.000Z</time>
      </trkpt>
      <trkpt lat="37.958444617688655853271484375" lon="-1.56290517188608646392822265625">
        <ele>416.79998779296875</ele>
        <time>2020-02-22T11:04:12.000Z</time>
      </trkpt>
      <trkpt lat="37.9582278616726398468017578125" lon="-1.563246734440326690673828125">
        <ele>416</ele>
        <time>2020-02-22T11:04:16.000Z</time>
      </trkpt>
      <trkpt lat="37.95802024193108081817626953125" lon="-1.5636277757585048675537109375">
        <ele>416</ele>
        <time>2020-02-22T11:04:21.000Z</time>
      </trkpt>
      <trkpt lat="37.9578570462763309478759765625" lon="-1.56398509629070758819580078125">
        <ele>418.399993896484375</ele>
        <time>2020-02-22T11:04:26.000Z</time>
      </trkpt>
      <trkpt lat="37.95780348591506481170654296875" lon="-1.564123816788196563720703125">
        <ele>419.20001220703125</ele>
        <time>2020-02-22T11:04:28.000Z</time>
      </trkpt>
      <trkpt lat="37.95777867548167705535888671875" lon="-1.56419456005096435546875">
        <ele>419.399993896484375</ele>
        <time>2020-02-22T11:04:29.000Z</time>
      </trkpt>
      <trkpt lat="37.95771069824695587158203125" lon="-1.5644099749624729156494140625">
        <ele>420.79998779296875</ele>
        <time>2020-02-22T11:04:32.000Z</time>
      </trkpt>
      <trkpt lat="37.95765747316181659698486328125" lon="-1.56462840735912322998046875">
        <ele>421.600006103515625</ele>
        <time>2020-02-22T11:04:35.000Z</time>
      </trkpt>
      <trkpt lat="37.95764288865029811859130859375" lon="-1.5646986477077007293701171875">
        <ele>421.79998779296875</ele>
        <time>2020-02-22T11:04:36.000Z</time>
      </trkpt>
      <trkpt lat="37.95760349370539188385009765625" lon="-1.56490392051637172698974609375">
        <ele>423</ele>
        <time>2020-02-22T11:04:39.000Z</time>
      </trkpt>
      <trkpt lat="37.95755404047667980194091796875" lon="-1.56519125215709209442138671875">
        <ele>423.79998779296875</ele>
        <time>2020-02-22T11:04:43.000Z</time>
      </trkpt>
      <trkpt lat="37.9575370252132415771484375" lon="-1.56525881029665470123291015625">
        <ele>424.20001220703125</ele>
        <time>2020-02-22T11:04:44.000Z</time>
      </trkpt>
      <trkpt lat="37.957474328577518463134765625" lon="-1.56545679084956645965576171875">
        <ele>425.399993896484375</ele>
        <time>2020-02-22T11:04:47.000Z</time>
      </trkpt>
      <trkpt lat="37.95740425586700439453125" lon="-1.5656541846692562103271484375">
        <ele>426.20001220703125</ele>
        <time>2020-02-22T11:04:50.000Z</time>
      </trkpt>
      <trkpt lat="37.95734633691608905792236328125" lon="-1.56578217633068561553955078125">
        <ele>426.79998779296875</ele>
        <time>2020-02-22T11:04:52.000Z</time>
      </trkpt>
      <trkpt lat="37.957178615033626556396484375" lon="-1.56608727760612964630126953125">
        <ele>427.399993896484375</ele>
        <time>2020-02-22T11:04:57.000Z</time>
      </trkpt>
      <trkpt lat="37.957143746316432952880859375" lon="-1.566150225698947906494140625">
        <ele>427.79998779296875</ele>
        <time>2020-02-22T11:04:58.000Z</time>
      </trkpt>
      <trkpt lat="37.9568186961114406585693359375" lon="-1.5667263977229595184326171875">
        <ele>428.600006103515625</ele>
        <time>2020-02-22T11:05:07.000Z</time>
      </trkpt>
      <trkpt lat="37.95678265392780303955078125" lon="-1.5667904354631900787353515625">
        <ele>428.600006103515625</ele>
        <time>2020-02-22T11:05:08.000Z</time>
      </trkpt>
      <trkpt lat="37.95651636086404323577880859375" lon="-1.56725638546049594879150390625">
        <ele>429.20001220703125</ele>
        <time>2020-02-22T11:05:15.000Z</time>
      </trkpt>
      <trkpt lat="37.95635928399860858917236328125" lon="-1.56753181479871273040771484375">
        <ele>429.399993896484375</ele>
        <time>2020-02-22T11:05:19.000Z</time>
      </trkpt>
      <trkpt lat="37.95601814053952693939208984375" lon="-1.56814771704375743865966796875">
        <ele>430.20001220703125</ele>
        <time>2020-02-22T11:05:28.000Z</time>
      </trkpt>
      <trkpt lat="37.95593951828777790069580078125" lon="-1.56829087994992733001708984375">
        <ele>430.600006103515625</ele>
        <time>2020-02-22T11:05:30.000Z</time>
      </trkpt>
      <trkpt lat="37.955631315708160400390625" lon="-1.5689036808907985687255859375">
        <ele>430.79998779296875</ele>
        <time>2020-02-22T11:05:38.000Z</time>
      </trkpt>
      <trkpt lat="37.9555942676961421966552734375" lon="-1.56898372806608676910400390625">
        <ele>431</ele>
        <time>2020-02-22T11:05:39.000Z</time>
      </trkpt>
      <trkpt lat="37.95534901320934295654296875" lon="-1.56962796114385128021240234375">
        <ele>431.20001220703125</ele>
        <time>2020-02-22T11:05:47.000Z</time>
      </trkpt>
      <trkpt lat="37.955133430659770965576171875" lon="-1.5703058056533336639404296875">
        <ele>431.79998779296875</ele>
        <time>2020-02-22T11:05:55.000Z</time>
      </trkpt>
      <trkpt lat="37.9550454206764698028564453125" lon="-1.5705549158155918121337890625">
        <ele>432.20001220703125</ele>
        <time>2020-02-22T11:05:58.000Z</time>
      </trkpt>
      <trkpt lat="37.95501650311052799224853515625" lon="-1.57063563354313373565673828125">
        <ele>432.20001220703125</ele>
        <time>2020-02-22T11:05:59.000Z</time>
      </trkpt>
      <trkpt lat="37.95480050146579742431640625" lon="-1.5710985660552978515625">
        <ele>432.600006103515625</ele>
        <time>2020-02-22T11:06:05.000Z</time>
      </trkpt>
      <trkpt lat="37.95442608185112476348876953125" lon="-1.57167800702154636383056640625">
        <ele>433.20001220703125</ele>
        <time>2020-02-22T11:06:13.000Z</time>
      </trkpt>
      <trkpt lat="37.9543785564601421356201171875" lon="-1.5717508457601070404052734375">
        <ele>433.20001220703125</ele>
        <time>2020-02-22T11:06:14.000Z</time>
      </trkpt>
      <trkpt lat="37.9543316178023815155029296875" lon="-1.57182267867028713226318359375">
        <ele>433.399993896484375</ele>
        <time>2020-02-22T11:06:15.000Z</time>
      </trkpt>
      <trkpt lat="37.95396256260573863983154296875" lon="-1.57237772829830646514892578125">
        <ele>434.20001220703125</ele>
        <time>2020-02-22T11:06:23.000Z</time>
      </trkpt>
      <trkpt lat="37.9539158754050731658935546875" lon="-1.57244704663753509521484375">
        <ele>434.399993896484375</ele>
        <time>2020-02-22T11:06:24.000Z</time>
      </trkpt>
      <trkpt lat="37.95386868529021739959716796875" lon="-1.5725176222622394561767578125">
        <ele>434.600006103515625</ele>
        <time>2020-02-22T11:06:25.000Z</time>
      </trkpt>
      <trkpt lat="37.95353055931627750396728515625" lon="-1.5730728395283222198486328125">
        <ele>435.399993896484375</ele>
        <time>2020-02-22T11:06:33.000Z</time>
      </trkpt>
      <trkpt lat="37.953455038368701934814453125" lon="-1.57321474514901638031005859375">
        <ele>435.600006103515625</ele>
        <time>2020-02-22T11:06:35.000Z</time>
      </trkpt>
      <trkpt lat="37.95341782271862030029296875" lon="-1.57328465022146701812744140625">
        <ele>435.79998779296875</ele>
        <time>2020-02-22T11:06:36.000Z</time>
      </trkpt>
      <trkpt lat="37.95311716385185718536376953125" lon="-1.57387188635766506195068359375">
        <ele>436.79998779296875</ele>
        <time>2020-02-22T11:06:44.000Z</time>
      </trkpt>
      <trkpt lat="37.9530818760395050048828125" lon="-1.57394832931458950042724609375">
        <ele>436.79998779296875</ele>
        <time>2020-02-22T11:06:45.000Z</time>
      </trkpt>
      <trkpt lat="37.95304642058908939361572265625" lon="-1.574023850262165069580078125">
        <ele>436.79998779296875</ele>
        <time>2020-02-22T11:06:46.000Z</time>
      </trkpt>
      <trkpt lat="37.952778451144695281982421875" lon="-1.57462156377732753753662109375">
        <ele>437.79998779296875</ele>
        <time>2020-02-22T11:06:54.000Z</time>
      </trkpt>
      <trkpt lat="37.95274366624653339385986328125" lon="-1.574697084724903106689453125">
        <ele>438</ele>
        <time>2020-02-22T11:06:55.000Z</time>
      </trkpt>
      <trkpt lat="37.9527112282812595367431640625" lon="-1.57477394677698612213134765625">
        <ele>438.20001220703125</ele>
        <time>2020-02-22T11:06:56.000Z</time>
      </trkpt>
      <trkpt lat="37.95251668430864810943603515625" lon="-1.57523210160434246063232421875">
        <ele>438.79998779296875</ele>
        <time>2020-02-22T11:07:02.000Z</time>
      </trkpt>
      <trkpt lat="37.952447198331356048583984375" lon="-1.57538951374590396881103515625">
        <ele>439</ele>
        <time>2020-02-22T11:07:04.000Z</time>
      </trkpt>
      <trkpt lat="37.9523390717804431915283203125" lon="-1.5756261348724365234375">
        <ele>439.399993896484375</ele>
        <time>2020-02-22T11:07:07.000Z</time>
      </trkpt>
      <trkpt lat="37.95219146646559238433837890625" lon="-1.575941629707813262939453125">
        <ele>440</ele>
        <time>2020-02-22T11:07:11.000Z</time>
      </trkpt>
      <trkpt lat="37.95200807042419910430908203125" lon="-1.576302386820316314697265625">
        <ele>440.600006103515625</ele>
        <time>2020-02-22T11:07:16.000Z</time>
      </trkpt>
      <trkpt lat="37.95177438296377658843994140625" lon="-1.576616205275058746337890625">
        <ele>440.79998779296875</ele>
        <time>2020-02-22T11:07:21.000Z</time>
      </trkpt>
      <trkpt lat="37.95152309350669384002685546875" lon="-1.57676515169441699981689453125">
        <ele>441</ele>
        <time>2020-02-22T11:07:25.000Z</time>
      </trkpt>
      <trkpt lat="37.95117021538317203521728515625" lon="-1.576834134757518768310546875">
        <ele>441.399993896484375</ele>
        <time>2020-02-22T11:07:30.000Z</time>
      </trkpt>
      <trkpt lat="37.95060259290039539337158203125" lon="-1.57684092409908771514892578125">
        <ele>442</ele>
        <time>2020-02-22T11:07:38.000Z</time>
      </trkpt>
      <trkpt lat="37.95053386129438877105712890625" lon="-1.57684159465134143829345703125">
        <ele>442</ele>
        <time>2020-02-22T11:07:39.000Z</time>
      </trkpt>
      <trkpt lat="37.95046764425933361053466796875" lon="-1.5768403373658657073974609375">
        <ele>442.20001220703125</ele>
        <time>2020-02-22T11:07:40.000Z</time>
      </trkpt>
      <trkpt lat="37.95004427433013916015625" lon="-1.576848886907100677490234375">
        <ele>442.79998779296875</ele>
        <time>2020-02-22T11:07:46.000Z</time>
      </trkpt>
      <trkpt lat="37.9499679990112781524658203125" lon="-1.57685165293514728546142578125">
        <ele>443</ele>
        <time>2020-02-22T11:07:47.000Z</time>
      </trkpt>
      <trkpt lat="37.9494161345064640045166015625" lon="-1.57687227241694927215576171875">
        <ele>443.20001220703125</ele>
        <time>2020-02-22T11:07:54.000Z</time>
      </trkpt>
      <trkpt lat="37.949340529739856719970703125" lon="-1.57687746919691562652587890625">
        <ele>443.20001220703125</ele>
        <time>2020-02-22T11:07:55.000Z</time>
      </trkpt>
      <trkpt lat="37.94896292500197887420654296875" lon="-1.576874367892742156982421875">
        <ele>443</ele>
        <time>2020-02-22T11:08:00.000Z</time>
      </trkpt>
      <trkpt lat="37.948886565864086151123046875" lon="-1.57685793936252593994140625">
        <ele>443</ele>
        <time>2020-02-22T11:08:01.000Z</time>
      </trkpt>
      <trkpt lat="37.94881255365908145904541015625" lon="-1.5768349729478359222412109375">
        <ele>443</ele>
        <time>2020-02-22T11:08:02.000Z</time>
      </trkpt>
      <trkpt lat="37.94859127141535282135009765625" lon="-1.57672123052179813385009765625">
        <ele>442.600006103515625</ele>
        <time>2020-02-22T11:08:05.000Z</time>
      </trkpt>
      <trkpt lat="37.94845716096460819244384765625" lon="-1.5766120143234729766845703125">
        <ele>442.600006103515625</ele>
        <time>2020-02-22T11:08:07.000Z</time>
      </trkpt>
      <trkpt lat="37.9482131637632846832275390625" lon="-1.5763434581458568572998046875">
        <ele>442.399993896484375</ele>
        <time>2020-02-22T11:08:11.000Z</time>
      </trkpt>
      <trkpt lat="37.94810646213591098785400390625" lon="-1.57618738710880279541015625">
        <ele>442.20001220703125</ele>
        <time>2020-02-22T11:08:13.000Z</time>
      </trkpt>
      <trkpt lat="37.948012836277484893798828125" lon="-1.57601212151348590850830078125">
        <ele>442</ele>
        <time>2020-02-22T11:08:15.000Z</time>
      </trkpt>
      <trkpt lat="37.94793698005378246307373046875" lon="-1.57581347040832042694091796875">
        <ele>442</ele>
        <time>2020-02-22T11:08:17.000Z</time>
      </trkpt>
      <trkpt lat="37.9476934857666492462158203125" lon="-1.57515012659132480621337890625">
        <ele>441.20001220703125</ele>
        <time>2020-02-22T11:08:23.000Z</time>
      </trkpt>
      <trkpt lat="37.94757018797099590301513671875" lon="-1.57481753267347812652587890625">
        <ele>440.20001220703125</ele>
        <time>2020-02-22T11:08:26.000Z</time>
      </trkpt>
      <trkpt lat="37.9474473930895328521728515625" lon="-1.57449868507683277130126953125">
        <ele>438.399993896484375</ele>
        <time>2020-02-22T11:08:29.000Z</time>
      </trkpt>
      <trkpt lat="37.9473719559609889984130859375" lon="-1.5743116848170757293701171875">
        <ele>437.20001220703125</ele>
        <time>2020-02-22T11:08:31.000Z</time>
      </trkpt>
      <trkpt lat="37.9472371749579906463623046875" lon="-1.57402493990957736968994140625">
        <ele>436.79998779296875</ele>
        <time>2020-02-22T11:08:35.000Z</time>
      </trkpt>
      <trkpt lat="37.94716467149555683135986328125" lon="-1.57391279004514217376708984375">
        <ele>436.79998779296875</ele>
        <time>2020-02-22T11:08:37.000Z</time>
      </trkpt>
      <trkpt lat="37.9470608197152614593505859375" lon="-1.57379058189690113067626953125">
        <ele>436.79998779296875</ele>
        <time>2020-02-22T11:08:40.000Z</time>
      </trkpt>
      <trkpt lat="37.9469503462314605712890625" lon="-1.573707349598407745361328125">
        <ele>438.20001220703125</ele>
        <time>2020-02-22T11:08:44.000Z</time>
      </trkpt>
      <trkpt lat="37.94692327268421649932861328125" lon="-1.57368463464081287384033203125">
        <ele>438.79998779296875</ele>
        <time>2020-02-22T11:08:45.000Z</time>
      </trkpt>
      <trkpt lat="37.9468539543449878692626953125" lon="-1.5736391209065914154052734375">
        <ele>439.79998779296875</ele>
        <time>2020-02-22T11:08:47.000Z</time>
      </trkpt>
      <trkpt lat="37.946772985160350799560546875" lon="-1.5735858120024204254150390625">
        <ele>440.79998779296875</ele>
        <time>2020-02-22T11:08:49.000Z</time>
      </trkpt>
      <trkpt lat="37.94669461436569690704345703125" lon="-1.57352705486118793487548828125">
        <ele>441.399993896484375</ele>
        <time>2020-02-22T11:08:51.000Z</time>
      </trkpt>
      <trkpt lat="37.946576178073883056640625" lon="-1.57344021834433078765869140625">
        <ele>442</ele>
        <time>2020-02-22T11:08:54.000Z</time>
      </trkpt>
      <trkpt lat="37.94644852168858051300048828125" lon="-1.57335497438907623291015625">
        <ele>442.600006103515625</ele>
        <time>2020-02-22T11:08:57.000Z</time>
      </trkpt>
      <trkpt lat="37.946314327418804168701171875" lon="-1.57326914370059967041015625">
        <ele>443</ele>
        <time>2020-02-22T11:09:00.000Z</time>
      </trkpt>
      <trkpt lat="37.94614459387958049774169921875" lon="-1.5731585025787353515625">
        <ele>444.20001220703125</ele>
        <time>2020-02-22T11:09:04.000Z</time>
      </trkpt>
      <trkpt lat="37.9459758661687374114990234375" lon="-1.5730517171323299407958984375">
        <ele>445.20001220703125</ele>
        <time>2020-02-22T11:09:08.000Z</time>
      </trkpt>
      <trkpt lat="37.94593504630029201507568359375" lon="-1.5730238892138004302978515625">
        <ele>445.399993896484375</ele>
        <time>2020-02-22T11:09:09.000Z</time>
      </trkpt>
      <trkpt lat="37.94578199274837970733642578125" lon="-1.5729206241667270660400390625">
        <ele>446.399993896484375</ele>
        <time>2020-02-22T11:09:13.000Z</time>
      </trkpt>
      <trkpt lat="37.9456714354455471038818359375" lon="-1.57285532914102077484130859375">
        <ele>447.600006103515625</ele>
        <time>2020-02-22T11:09:16.000Z</time>
      </trkpt>
      <trkpt lat="37.9456332139670848846435546875" lon="-1.57283454202115535736083984375">
        <ele>447.79998779296875</ele>
        <time>2020-02-22T11:09:17.000Z</time>
      </trkpt>
      <trkpt lat="37.94552768580615520477294921875" lon="-1.57277804799377918243408203125">
        <ele>448.600006103515625</ele>
        <time>2020-02-22T11:09:20.000Z</time>
      </trkpt>
      <trkpt lat="37.94535300694406032562255859375" lon="-1.57272825948894023895263671875">
        <ele>449.600006103515625</ele>
        <time>2020-02-22T11:09:25.000Z</time>
      </trkpt>
      <trkpt lat="37.94531411491334438323974609375" lon="-1.57272398471832275390625">
        <ele>449.79998779296875</ele>
        <time>2020-02-22T11:09:26.000Z</time>
      </trkpt>
      <trkpt lat="37.94510758481919765472412109375" lon="-1.57270093448460102081298828125">
        <ele>451</ele>
        <time>2020-02-22T11:09:31.000Z</time>
      </trkpt>
      <trkpt lat="37.945032231509685516357421875" lon="-1.57269372604787349700927734375">
        <ele>451.20001220703125</ele>
        <time>2020-02-22T11:09:33.000Z</time>
      </trkpt>
      <trkpt lat="37.944828383624553680419921875" lon="-1.57269841991364955902099609375">
        <ele>452.20001220703125</ele>
        <time>2020-02-22T11:09:38.000Z</time>
      </trkpt>
      <trkpt lat="37.944715730845928192138671875" lon="-1.57272557727992534637451171875">
        <ele>452.399993896484375</ele>
        <time>2020-02-22T11:09:41.000Z</time>
      </trkpt>
      <trkpt lat="37.94461615383625030517578125" lon="-1.5727724321186542510986328125">
        <ele>453.399993896484375</ele>
        <time>2020-02-22T11:09:44.000Z</time>
      </trkpt>
      <trkpt lat="37.94448874890804290771484375" lon="-1.57284426502883434295654296875">
        <ele>454.399993896484375</ele>
        <time>2020-02-22T11:09:48.000Z</time>
      </trkpt>
      <trkpt lat="37.94442462734878063201904296875" lon="-1.57288081012666225433349609375">
        <ele>455.20001220703125</ele>
        <time>2020-02-22T11:09:50.000Z</time>
      </trkpt>
      <trkpt lat="37.94439210556447505950927734375" lon="-1.57290168106555938720703125">
        <ele>455.399993896484375</ele>
        <time>2020-02-22T11:09:51.000Z</time>
      </trkpt>
      <trkpt lat="37.94427207671105861663818359375" lon="-1.57299027778208255767822265625">
        <ele>456.79998779296875</ele>
        <time>2020-02-22T11:09:55.000Z</time>
      </trkpt>
      <trkpt lat="37.94415506534278392791748046875" lon="-1.5730983205139636993408203125">
        <ele>457.79998779296875</ele>
        <time>2020-02-22T11:09:59.000Z</time>
      </trkpt>
      <trkpt lat="37.9441274888813495635986328125" lon="-1.573126651346683502197265625">
        <ele>458</ele>
        <time>2020-02-22T11:10:00.000Z</time>
      </trkpt>
      <trkpt lat="37.9440480284392833709716796875" lon="-1.5732180140912532806396484375">
        <ele>459</ele>
        <time>2020-02-22T11:10:03.000Z</time>
      </trkpt>
      <trkpt lat="37.94389472343027591705322265625" lon="-1.57342328689992427825927734375">
        <ele>460.20001220703125</ele>
        <time>2020-02-22T11:10:09.000Z</time>
      </trkpt>
      <trkpt lat="37.94373965822160243988037109375" lon="-1.5736951120197772979736328125">
        <ele>461.20001220703125</ele>
        <time>2020-02-22T11:10:16.000Z</time>
      </trkpt>
      <trkpt lat="37.9436024464666843414306640625" lon="-1.57394363544881343841552734375">
        <ele>462.20001220703125</ele>
        <time>2020-02-22T11:10:22.000Z</time>
      </trkpt>
      <trkpt lat="37.94358090497553348541259765625" lon="-1.57398403622210025787353515625">
        <ele>462.20001220703125</ele>
        <time>2020-02-22T11:10:23.000Z</time>
      </trkpt>
      <trkpt lat="37.9434527456760406494140625" lon="-1.574223339557647705078125">
        <ele>463.20001220703125</ele>
        <time>2020-02-22T11:10:29.000Z</time>
      </trkpt>
      <trkpt lat="37.94338862411677837371826171875" lon="-1.5743432007730007171630859375">
        <ele>464</ele>
        <time>2020-02-22T11:10:32.000Z</time>
      </trkpt>
      <trkpt lat="37.943347804248332977294921875" lon="-1.5744266845285892486572265625">
        <ele>464.20001220703125</ele>
        <time>2020-02-22T11:10:34.000Z</time>
      </trkpt>
      <trkpt lat="37.943232469260692596435546875" lon="-1.57462877221405506134033203125">
        <ele>465.600006103515625</ele>
        <time>2020-02-22T11:10:39.000Z</time>
      </trkpt>
      <trkpt lat="37.94316834770143032073974609375" lon="-1.5747532434761524200439453125">
        <ele>466.399993896484375</ele>
        <time>2020-02-22T11:10:42.000Z</time>
      </trkpt>
      <trkpt lat="37.94314630329608917236328125" lon="-1.574795655906200408935546875">
        <ele>466.600006103515625</ele>
        <time>2020-02-22T11:10:43.000Z</time>
      </trkpt>
      <trkpt lat="37.94305770657956600189208984375" lon="-1.57495399005711078643798828125">
        <ele>467.600006103515625</ele>
        <time>2020-02-22T11:10:47.000Z</time>
      </trkpt>
      <trkpt lat="37.9429758153855800628662109375" lon="-1.57511123456060886383056640625">
        <ele>468.399993896484375</ele>
        <time>2020-02-22T11:10:51.000Z</time>
      </trkpt>
      <trkpt lat="37.9429369233548641204833984375" lon="-1.5751968137919902801513671875">
        <ele>468.79998779296875</ele>
        <time>2020-02-22T11:10:53.000Z</time>
      </trkpt>
      <trkpt lat="37.94280507601797580718994140625" lon="-1.57545271329581737518310546875">
        <ele>469.79998779296875</ele>
        <time>2020-02-22T11:10:59.000Z</time>
      </trkpt>
      <trkpt lat="37.94278345070779323577880859375" lon="-1.57549378462135791778564453125">
        <ele>470</ele>
        <time>2020-02-22T11:11:00.000Z</time>
      </trkpt>
      <trkpt lat="37.94267515651881694793701171875" lon="-1.5757024101912975311279296875">
        <ele>471</ele>
        <time>2020-02-22T11:11:05.000Z</time>
      </trkpt>
      <trkpt lat="37.94259519316256046295166015625" lon="-1.57585236243903636932373046875">
        <ele>471.600006103515625</ele>
        <time>2020-02-22T11:11:09.000Z</time>
      </trkpt>
      <trkpt lat="37.942549847066402435302734375" lon="-1.57592696137726306915283203125">
        <ele>471.79998779296875</ele>
        <time>2020-02-22T11:11:11.000Z</time>
      </trkpt>
      <trkpt lat="37.94252939522266387939453125" lon="-1.57596853561699390411376953125">
        <ele>472</ele>
        <time>2020-02-22T11:11:12.000Z</time>
      </trkpt>
      <trkpt lat="37.9423847235739231109619140625" lon="-1.57625083811581134796142578125">
        <ele>472.600006103515625</ele>
        <time>2020-02-22T11:11:18.000Z</time>
      </trkpt>
      <trkpt lat="37.94227383099496364593505859375" lon="-1.57644487917423248291015625">
        <ele>472.600006103515625</ele>
        <time>2020-02-22T11:11:22.000Z</time>
      </trkpt>
      <trkpt lat="37.9421993158757686614990234375" lon="-1.57657873816788196563720703125">
        <ele>472.600006103515625</ele>
        <time>2020-02-22T11:11:25.000Z</time>
      </trkpt>
      <trkpt lat="37.9421304166316986083984375" lon="-1.576720811426639556884765625">
        <ele>472.600006103515625</ele>
        <time>2020-02-22T11:11:28.000Z</time>
      </trkpt>
      <trkpt lat="37.94202111661434173583984375" lon="-1.5770532377064228057861328125">
        <ele>472.600006103515625</ele>
        <time>2020-02-22T11:11:34.000Z</time>
      </trkpt>
      <trkpt lat="37.94200762175023555755615234375" lon="-1.57711618579924106597900390625">
        <ele>472.600006103515625</ele>
        <time>2020-02-22T11:11:35.000Z</time>
      </trkpt>
      <trkpt lat="37.9419485293328762054443359375" lon="-1.5774513781070709228515625">
        <ele>472.600006103515625</ele>
        <time>2020-02-22T11:11:40.000Z</time>
      </trkpt>
      <trkpt lat="37.94191516935825347900390625" lon="-1.5776634402573108673095703125">
        <ele>472.399993896484375</ele>
        <time>2020-02-22T11:11:43.000Z</time>
      </trkpt>
      <trkpt lat="37.94182053767144680023193359375" lon="-1.57820734195411205291748046875">
        <ele>472.20001220703125</ele>
        <time>2020-02-22T11:11:50.000Z</time>
      </trkpt>
      <trkpt lat="37.94170771725475788116455078125" lon="-1.578651331365108489990234375">
        <ele>471.79998779296875</ele>
        <time>2020-02-22T11:11:56.000Z</time>
      </trkpt>
      <trkpt lat="37.9416565038263797760009765625" lon="-1.57879105769097805023193359375">
        <ele>471.79998779296875</ele>
        <time>2020-02-22T11:11:58.000Z</time>
      </trkpt>
      <trkpt lat="37.941571511328220367431640625" lon="-1.578990630805492401123046875">
        <ele>471.79998779296875</ele>
        <time>2020-02-22T11:12:01.000Z</time>
      </trkpt>
      <trkpt lat="37.94138300232589244842529296875" lon="-1.57936756499111652374267578125">
        <ele>471.79998779296875</ele>
        <time>2020-02-22T11:12:07.000Z</time>
      </trkpt>
      <trkpt lat="37.941250987350940704345703125" lon="-1.579615585505962371826171875">
        <ele>472</ele>
        <time>2020-02-22T11:12:11.000Z</time>
      </trkpt>
      <trkpt lat="37.94118267484009265899658203125" lon="-1.57974064350128173828125">
        <ele>472</ele>
        <time>2020-02-22T11:12:13.000Z</time>
      </trkpt>
      <trkpt lat="37.9410159587860107421875" lon="-1.58005773089826107025146484375">
        <ele>472.600006103515625</ele>
        <time>2020-02-22T11:12:18.000Z</time>
      </trkpt>
      <trkpt lat="37.94098285026848316192626953125" lon="-1.58012176863849163055419921875">
        <ele>472.600006103515625</ele>
        <time>2020-02-22T11:12:19.000Z</time>
      </trkpt>
      <trkpt lat="37.940845973789691925048828125" lon="-1.580383367836475372314453125">
        <ele>472.79998779296875</ele>
        <time>2020-02-22T11:12:23.000Z</time>
      </trkpt>
      <trkpt lat="37.94070675037801265716552734375" lon="-1.58064161427319049835205078125">
        <ele>473</ele>
        <time>2020-02-22T11:12:27.000Z</time>
      </trkpt>
      <trkpt lat="37.94056476093828678131103515625" lon="-1.58090614713728427886962890625">
        <ele>473.20001220703125</ele>
        <time>2020-02-22T11:12:31.000Z</time>
      </trkpt>
      <trkpt lat="37.940418161451816558837890625" lon="-1.581165231764316558837890625">
        <ele>473.399993896484375</ele>
        <time>2020-02-22T11:12:35.000Z</time>
      </trkpt>
      <trkpt lat="37.94023719616234302520751953125" lon="-1.5815120749175548553466796875">
        <ele>473.399993896484375</ele>
        <time>2020-02-22T11:12:40.000Z</time>
      </trkpt>
      <trkpt lat="37.939952127635478973388671875" lon="-1.58192505128681659698486328125">
        <ele>473.79998779296875</ele>
        <time>2020-02-22T11:12:46.000Z</time>
      </trkpt>
      <trkpt lat="37.93989119119942188262939453125" lon="-1.5819861553609371185302734375">
        <ele>473.79998779296875</ele>
        <time>2020-02-22T11:12:47.000Z</time>
      </trkpt>
      <trkpt lat="37.93954543769359588623046875" lon="-1.58225295133888721466064453125">
        <ele>473.79998779296875</ele>
        <time>2020-02-22T11:12:52.000Z</time>
      </trkpt>
      <trkpt lat="37.939129360020160675048828125" lon="-1.5825105272233486175537109375">
        <ele>473.399993896484375</ele>
        <time>2020-02-22T11:12:57.000Z</time>
      </trkpt>
      <trkpt lat="37.939037494361400604248046875" lon="-1.582566685974597930908203125">
        <ele>473.20001220703125</ele>
        <time>2020-02-22T11:12:58.000Z</time>
      </trkpt>
      <trkpt lat="37.938759885728359222412109375" lon="-1.58274429850280284881591796875">
        <ele>471.600006103515625</ele>
        <time>2020-02-22T11:13:01.000Z</time>
      </trkpt>
      <trkpt lat="37.93846392072737216949462890625" lon="-1.58292233012616634368896484375">
        <ele>470.600006103515625</ele>
        <time>2020-02-22T11:13:04.000Z</time>
      </trkpt>
      <trkpt lat="37.938260324299335479736328125" lon="-1.5830362401902675628662109375">
        <ele>469.20001220703125</ele>
        <time>2020-02-22T11:13:06.000Z</time>
      </trkpt>
      <trkpt lat="37.9380663670599460601806640625" lon="-1.58315568231046199798583984375">
        <ele>468.20001220703125</ele>
        <time>2020-02-22T11:13:08.000Z</time>
      </trkpt>
      <trkpt lat="37.937788255512714385986328125" lon="-1.58332834951579570770263671875">
        <ele>466.79998779296875</ele>
        <time>2020-02-22T11:13:11.000Z</time>
      </trkpt>
      <trkpt lat="37.93752078898251056671142578125" lon="-1.58348911441862583160400390625">
        <ele>465.399993896484375</ele>
        <time>2020-02-22T11:13:14.000Z</time>
      </trkpt>
      <trkpt lat="37.9373448528349399566650390625" lon="-1.58359237946569919586181640625">
        <ele>465.20001220703125</ele>
        <time>2020-02-22T11:13:16.000Z</time>
      </trkpt>
      <trkpt lat="37.9370796494185924530029296875" lon="-1.58374878577888011932373046875">
        <ele>465</ele>
        <time>2020-02-22T11:13:19.000Z</time>
      </trkpt>
      <trkpt lat="37.93681670911610126495361328125" lon="-1.5839089639484882354736328125">
        <ele>465</ele>
        <time>2020-02-22T11:13:22.000Z</time>
      </trkpt>
      <trkpt lat="37.93655687011778354644775390625" lon="-1.58406746573746204376220703125">
        <ele>465</ele>
        <time>2020-02-22T11:13:25.000Z</time>
      </trkpt>
      <trkpt lat="37.936294265091419219970703125" lon="-1.5842244587838649749755859375">
        <ele>465</ele>
        <time>2020-02-22T11:13:28.000Z</time>
      </trkpt>
      <trkpt lat="37.9360339231789112091064453125" lon="-1.5843820385634899139404296875">
        <ele>465</ele>
        <time>2020-02-22T11:13:31.000Z</time>
      </trkpt>
      <trkpt lat="37.93568573892116546630859375" lon="-1.58458999358117580413818359375">
        <ele>465.20001220703125</ele>
        <time>2020-02-22T11:13:35.000Z</time>
      </trkpt>
      <trkpt lat="37.93543000705540180206298828125" lon="-1.58474757336080074310302734375">
        <ele>465.399993896484375</ele>
        <time>2020-02-22T11:13:38.000Z</time>
      </trkpt>
      <trkpt lat="37.935093306005001068115234375" lon="-1.5849540196359157562255859375">
        <ele>465.399993896484375</ele>
        <time>2020-02-22T11:13:42.000Z</time>
      </trkpt>
      <trkpt lat="37.934613861143589019775390625" lon="-1.5852457098662853240966796875">
        <ele>465.79998779296875</ele>
        <time>2020-02-22T11:13:48.000Z</time>
      </trkpt>
      <trkpt lat="37.93431487865746021270751953125" lon="-1.58542516641318798065185546875">
        <ele>465.79998779296875</ele>
        <time>2020-02-22T11:13:52.000Z</time>
      </trkpt>
      <trkpt lat="37.934039197862148284912109375" lon="-1.5855954028666019439697265625">
        <ele>466</ele>
        <time>2020-02-22T11:13:56.000Z</time>
      </trkpt>
      <trkpt lat="37.93366067111492156982421875" lon="-1.58584945835173130035400390625">
        <ele>466.600006103515625</ele>
        <time>2020-02-22T11:14:02.000Z</time>
      </trkpt>
      <trkpt lat="37.93360526673495769500732421875" lon="-1.585897319018840789794921875">
        <ele>466.79998779296875</ele>
        <time>2020-02-22T11:14:03.000Z</time>
      </trkpt>
      <trkpt lat="37.933506108820438385009765625" lon="-1.58601424656808376312255859375">
        <ele>467.79998779296875</ele>
        <time>2020-02-22T11:14:05.000Z</time>
      </trkpt>
      <trkpt lat="37.93341902084648609161376953125" lon="-1.586151123046875">
        <ele>468.20001220703125</ele>
        <time>2020-02-22T11:14:07.000Z</time>
      </trkpt>
      <trkpt lat="37.93338364921510219573974609375" lon="-1.58622530288994312286376953125">
        <ele>468.399993896484375</ele>
        <time>2020-02-22T11:14:08.000Z</time>
      </trkpt>
      <trkpt lat="37.933296896517276763916015625" lon="-1.58645865507423877716064453125">
        <ele>469.20001220703125</ele>
        <time>2020-02-22T11:14:11.000Z</time>
      </trkpt>
      <trkpt lat="37.93323210440576076507568359375" lon="-1.5867034904658794403076171875">
        <ele>470.20001220703125</ele>
        <time>2020-02-22T11:14:14.000Z</time>
      </trkpt>
      <trkpt lat="37.93318927288055419921875" lon="-1.58686752431094646453857421875">
        <ele>470.600006103515625</ele>
        <time>2020-02-22T11:14:16.000Z</time>
      </trkpt>
      <trkpt lat="37.933107130229473114013671875" lon="-1.5871770679950714111328125">
        <ele>471.79998779296875</ele>
        <time>2020-02-22T11:14:20.000Z</time>
      </trkpt>
      <trkpt lat="37.93302255682647228240966796875" lon="-1.58748929388821125030517578125">
        <ele>472.399993896484375</ele>
        <time>2020-02-22T11:14:24.000Z</time>
      </trkpt>
      <trkpt lat="37.93297628872096538543701171875" lon="-1.5876486338675022125244140625">
        <ele>473</ele>
        <time>2020-02-22T11:14:26.000Z</time>
      </trkpt>
      <trkpt lat="37.9328833334147930145263671875" lon="-1.58795918338000774383544921875">
        <ele>474</ele>
        <time>2020-02-22T11:14:30.000Z</time>
      </trkpt>
      <trkpt lat="37.9327894560992717742919921875" lon="-1.5882521308958530426025390625">
        <ele>474.79998779296875</ele>
        <time>2020-02-22T11:14:34.000Z</time>
      </trkpt>
      <trkpt lat="37.93276808224618434906005859375" lon="-1.58832304179668426513671875">
        <ele>475</ele>
        <time>2020-02-22T11:14:35.000Z</time>
      </trkpt>
      <trkpt lat="37.93268443085253238677978515625" lon="-1.58861615695059299468994140625">
        <ele>476.20001220703125</ele>
        <time>2020-02-22T11:14:39.000Z</time>
      </trkpt>
      <trkpt lat="37.93256658129394054412841796875" lon="-1.58898361958563327789306640625">
        <ele>477.399993896484375</ele>
        <time>2020-02-22T11:14:44.000Z</time>
      </trkpt>
      <trkpt lat="37.93239290826022624969482421875" lon="-1.58940305002033710479736328125">
        <ele>478.600006103515625</ele>
        <time>2020-02-22T11:14:50.000Z</time>
      </trkpt>
      <trkpt lat="37.9323606379330158233642578125" lon="-1.5894671715795993804931640625">
        <ele>478.79998779296875</ele>
        <time>2020-02-22T11:14:51.000Z</time>
      </trkpt>
      <trkpt lat="37.93212217278778553009033203125" lon="-1.58983790315687656402587890625">
        <ele>479.79998779296875</ele>
        <time>2020-02-22T11:14:57.000Z</time>
      </trkpt>
      <trkpt lat="37.93207808397710323333740234375" lon="-1.589898504316806793212890625">
        <ele>479.79998779296875</ele>
        <time>2020-02-22T11:14:58.000Z</time>
      </trkpt>
      <trkpt lat="37.9316885769367218017578125" lon="-1.5904263965785503387451171875">
        <ele>480.600006103515625</ele>
        <time>2020-02-22T11:15:07.000Z</time>
      </trkpt>
      <trkpt lat="37.93159595690667629241943359375" lon="-1.59054416231811046600341796875">
        <ele>480.79998779296875</ele>
        <time>2020-02-22T11:15:09.000Z</time>
      </trkpt>
      <trkpt lat="37.93123335577547550201416015625" lon="-1.591029725968837738037109375">
        <ele>481</ele>
        <time>2020-02-22T11:15:17.000Z</time>
      </trkpt>
      <trkpt lat="37.93118675239384174346923828125" lon="-1.5910925902426242828369140625">
        <ele>481.20001220703125</ele>
        <time>2020-02-22T11:15:18.000Z</time>
      </trkpt>
      <trkpt lat="37.930807135999202728271484375" lon="-1.591593325138092041015625">
        <ele>481.600006103515625</ele>
        <time>2020-02-22T11:15:26.000Z</time>
      </trkpt>
      <trkpt lat="37.930760197341442108154296875" lon="-1.59165694378316402435302734375">
        <ele>481.79998779296875</ele>
        <time>2020-02-22T11:15:27.000Z</time>
      </trkpt>
      <trkpt lat="37.930616028606891632080078125" lon="-1.5918466262519359588623046875">
        <ele>482.20001220703125</ele>
        <time>2020-02-22T11:15:30.000Z</time>
      </trkpt>
      <trkpt lat="37.930211685597896575927734375" lon="-1.59240134060382843017578125">
        <ele>482.79998779296875</ele>
        <time>2020-02-22T11:15:39.000Z</time>
      </trkpt>
      <trkpt lat="37.9301679320633411407470703125" lon="-1.59246261231601238250732421875">
        <ele>482.79998779296875</ele>
        <time>2020-02-22T11:15:40.000Z</time>
      </trkpt>
      <trkpt lat="37.9298695363104343414306640625" lon="-1.59288413822650909423828125">
        <ele>484</ele>
        <time>2020-02-22T11:15:47.000Z</time>
      </trkpt>
      <trkpt lat="37.92975747026503086090087890625" lon="-1.59306493587791919708251953125">
        <ele>484.600006103515625</ele>
        <time>2020-02-22T11:15:50.000Z</time>
      </trkpt>
      <trkpt lat="37.929652445018291473388671875" lon="-1.5932427160441875457763671875">
        <ele>485</ele>
        <time>2020-02-22T11:15:53.000Z</time>
      </trkpt>
      <trkpt lat="37.929465360939502716064453125" lon="-1.59360305406153202056884765625">
        <ele>486.20001220703125</ele>
        <time>2020-02-22T11:15:59.000Z</time>
      </trkpt>
      <trkpt lat="37.929435856640338897705078125" lon="-1.59366642124950885772705078125">
        <ele>486.20001220703125</ele>
        <time>2020-02-22T11:16:00.000Z</time>
      </trkpt>
      <trkpt lat="37.929385565221309661865234375" lon="-1.593793071806430816650390625">
        <ele>486.600006103515625</ele>
        <time>2020-02-22T11:16:02.000Z</time>
      </trkpt>
      <trkpt lat="37.92937760241329669952392578125" lon="-1.59393346868455410003662109375">
        <ele>487</ele>
        <time>2020-02-22T11:16:04.000Z</time>
      </trkpt>
      <trkpt lat="37.92939570732414722442626953125" lon="-1.5940001048147678375244140625">
        <ele>487.20001220703125</ele>
        <time>2020-02-22T11:16:05.000Z</time>
      </trkpt>
      <trkpt lat="37.929445914924144744873046875" lon="-1.594115607440471649169921875">
        <ele>487.399993896484375</ele>
        <time>2020-02-22T11:16:07.000Z</time>
      </trkpt>
      <trkpt lat="37.92947181500494480133056640625" lon="-1.59416715614497661590576171875">
        <ele>487.399993896484375</ele>
        <time>2020-02-22T11:16:08.000Z</time>
      </trkpt>
      <trkpt lat="37.92951808311045169830322265625" lon="-1.59427176229655742645263671875">
        <ele>487.600006103515625</ele>
        <time>2020-02-22T11:16:10.000Z</time>
      </trkpt>
      <trkpt lat="37.92959720827639102935791015625" lon="-1.59450687468051910400390625">
        <ele>488</ele>
        <time>2020-02-22T11:16:14.000Z</time>
      </trkpt>
      <trkpt lat="37.92963693849742412567138671875" lon="-1.59462648443877696990966796875">
        <ele>488.20001220703125</ele>
        <time>2020-02-22T11:16:16.000Z</time>
      </trkpt>
      <trkpt lat="37.92969502508640289306640625" lon="-1.59480133093893527984619140625">
        <ele>489.399993896484375</ele>
        <time>2020-02-22T11:16:19.000Z</time>
      </trkpt>
      <trkpt lat="37.92979636229574680328369140625" lon="-1.5951110422611236572265625">
        <ele>490.20001220703125</ele>
        <time>2020-02-22T11:16:24.000Z</time>
      </trkpt>
      <trkpt lat="37.9298564605414867401123046875" lon="-1.5952934324741363525390625">
        <ele>490.399993896484375</ele>
        <time>2020-02-22T11:16:27.000Z</time>
      </trkpt>
      <trkpt lat="37.93003893457353115081787109375" lon="-1.5958481468260288238525390625">
        <ele>491</ele>
        <time>2020-02-22T11:16:36.000Z</time>
      </trkpt>
      <trkpt lat="37.9300777427852153778076171875" lon="-1.5959715284407138824462890625">
        <ele>491.600006103515625</ele>
        <time>2020-02-22T11:16:38.000Z</time>
      </trkpt>
      <trkpt lat="37.930237837135791778564453125" lon="-1.59647754393517971038818359375">
        <ele>492.20001220703125</ele>
        <time>2020-02-22T11:16:46.000Z</time>
      </trkpt>
      <trkpt lat="37.93027438223361968994140625" lon="-1.5966041944921016693115234375">
        <ele>492.600006103515625</ele>
        <time>2020-02-22T11:16:48.000Z</time>
      </trkpt>
      <trkpt lat="37.93042902834713459014892578125" lon="-1.59707567654550075531005859375">
        <ele>493.399993896484375</ele>
        <time>2020-02-22T11:16:56.000Z</time>
      </trkpt>
      <trkpt lat="37.930478565394878387451171875" lon="-1.597185395658016204833984375">
        <ele>493.79998779296875</ele>
        <time>2020-02-22T11:16:58.000Z</time>
      </trkpt>
      <trkpt lat="37.93062164448201656341552734375" lon="-1.59745328128337860107421875">
        <ele>494.399993896484375</ele>
        <time>2020-02-22T11:17:03.000Z</time>
      </trkpt>
      <trkpt lat="37.930720634758472442626953125" lon="-1.5976056642830371856689453125">
        <ele>494.79998779296875</ele>
        <time>2020-02-22T11:17:06.000Z</time>
      </trkpt>
      <trkpt lat="37.93093630112707614898681640625" lon="-1.59797119908034801483154296875">
        <ele>495.600006103515625</ele>
        <time>2020-02-22T11:17:13.000Z</time>
      </trkpt>
      <trkpt lat="37.9309672303497791290283203125" lon="-1.59802450798451900482177734375">
        <ele>495.79998779296875</ele>
        <time>2020-02-22T11:17:14.000Z</time>
      </trkpt>
      <trkpt lat="37.93112221173942089080810546875" lon="-1.59829373471438884735107421875">
        <ele>496.79998779296875</ele>
        <time>2020-02-22T11:17:19.000Z</time>
      </trkpt>
      <trkpt lat="37.9312455095350742340087890625" lon="-1.5984991751611232757568359375">
        <ele>497.399993896484375</ele>
        <time>2020-02-22T11:17:23.000Z</time>
      </trkpt>
      <trkpt lat="37.93139982037246227264404296875" lon="-1.5987427532672882080078125">
        <ele>498.20001220703125</ele>
        <time>2020-02-22T11:17:28.000Z</time>
      </trkpt>
      <trkpt lat="37.931554131209850311279296875" lon="-1.59898892976343631744384765625">
        <ele>498.79998779296875</ele>
        <time>2020-02-22T11:17:33.000Z</time>
      </trkpt>
      <trkpt lat="37.93163652531802654266357421875" lon="-1.59914416261017322540283203125">
        <ele>499.399993896484375</ele>
        <time>2020-02-22T11:17:36.000Z</time>
      </trkpt>
      <trkpt lat="37.93177616782486438751220703125" lon="-1.599473655223846435546875">
        <ele>500</ele>
        <time>2020-02-22T11:17:42.000Z</time>
      </trkpt>
      <trkpt lat="37.93185210786759853363037109375" lon="-1.59971228800714015960693359375">
        <ele>500.399993896484375</ele>
        <time>2020-02-22T11:17:46.000Z</time>
      </trkpt>
      <trkpt lat="37.93195302598178386688232421875" lon="-1.6000870428979396820068359375">
        <ele>501.20001220703125</ele>
        <time>2020-02-22T11:17:52.000Z</time>
      </trkpt>
      <trkpt lat="37.932001054286956787109375" lon="-1.6002689301967620849609375">
        <ele>501.399993896484375</ele>
        <time>2020-02-22T11:17:55.000Z</time>
      </trkpt>
      <trkpt lat="37.9321014694869518280029296875" lon="-1.6006149351596832275390625">
        <ele>502.399993896484375</ele>
        <time>2020-02-22T11:18:01.000Z</time>
      </trkpt>
      <trkpt lat="37.9321360029280185699462890625" lon="-1.60072817467153072357177734375">
        <ele>502.79998779296875</ele>
        <time>2020-02-22T11:18:03.000Z</time>
      </trkpt>
      <trkpt lat="37.93219995684921741485595703125" lon="-1.6009533964097499847412109375">
        <ele>503.79998779296875</ele>
        <time>2020-02-22T11:18:07.000Z</time>
      </trkpt>
      <trkpt lat="37.93230070732533931732177734375" lon="-1.6012819670140743255615234375">
        <ele>504.79998779296875</ele>
        <time>2020-02-22T11:18:13.000Z</time>
      </trkpt>
      <trkpt lat="37.93231688439846038818359375" lon="-1.60133653320372104644775390625">
        <ele>505</ele>
        <time>2020-02-22T11:18:14.000Z</time>
      </trkpt>
      <trkpt lat="37.9324075765907764434814453125" lon="-1.6016098670661449432373046875">
        <ele>506</ele>
        <time>2020-02-22T11:18:19.000Z</time>
      </trkpt>
      <trkpt lat="37.93250153772532939910888671875" lon="-1.601811535656452178955078125">
        <ele>506.399993896484375</ele>
        <time>2020-02-22T11:18:23.000Z</time>
      </trkpt>
      <trkpt lat="37.93256071396172046661376953125" lon="-1.6019028984010219573974609375">
        <ele>507</ele>
        <time>2020-02-22T11:18:25.000Z</time>
      </trkpt>
      <trkpt lat="37.93273438699543476104736328125" lon="-1.60213482566177845001220703125">
        <ele>508</ele>
        <time>2020-02-22T11:18:30.000Z</time>
      </trkpt>
      <trkpt lat="37.9330617003142833709716796875" lon="-1.60248602740466594696044921875">
        <ele>509</ele>
        <time>2020-02-22T11:18:38.000Z</time>
      </trkpt>
      <trkpt lat="37.9334432445466518402099609375" lon="-1.60290176980197429656982421875">
        <ele>509</ele>
        <time>2020-02-22T11:18:46.000Z</time>
      </trkpt>
      <trkpt lat="37.93386057950556278228759765625" lon="-1.60343921743333339691162109375">
        <ele>509</ele>
        <time>2020-02-22T11:18:56.000Z</time>
      </trkpt>
      <trkpt lat="37.9342043213546276092529296875" lon="-1.6038917563855648040771484375">
        <ele>510</ele>
        <time>2020-02-22T11:19:05.000Z</time>
      </trkpt>
      <trkpt lat="37.93442753143608570098876953125" lon="-1.6041743941605091094970703125">
        <ele>511.20001220703125</ele>
        <time>2020-02-22T11:19:11.000Z</time>
      </trkpt>
      <trkpt lat="37.9346148669719696044921875" lon="-1.604412607848644256591796875">
        <ele>511.79998779296875</ele>
        <time>2020-02-22T11:19:16.000Z</time>
      </trkpt>
      <trkpt lat="37.93469038791954517364501953125" lon="-1.6045043058693408966064453125">
        <ele>512.4000244140625</ele>
        <time>2020-02-22T11:19:18.000Z</time>
      </trkpt>
      <trkpt lat="37.93496397323906421661376953125" lon="-1.6047889553010463714599609375">
        <ele>513.5999755859375</ele>
        <time>2020-02-22T11:19:25.000Z</time>
      </trkpt>
      <trkpt lat="37.935179807245731353759765625" lon="-1.6049307771027088165283203125">
        <ele>514.5999755859375</ele>
        <time>2020-02-22T11:19:30.000Z</time>
      </trkpt>
      <trkpt lat="37.9352745227515697479248046875" lon="-1.60496992059051990509033203125">
        <ele>515</ele>
        <time>2020-02-22T11:19:32.000Z</time>
      </trkpt>
      <trkpt lat="37.935419194400310516357421875" lon="-1.60501652397215366363525390625">
        <ele>515.79998779296875</ele>
        <time>2020-02-22T11:19:35.000Z</time>
      </trkpt>
      <trkpt lat="37.93564609251916408538818359375" lon="-1.605082489550113677978515625">
        <ele>517.20001220703125</ele>
        <time>2020-02-22T11:19:40.000Z</time>
      </trkpt>
      <trkpt lat="37.93591414578258991241455078125" lon="-1.60514719784259796142578125">
        <ele>518.4000244140625</ele>
        <time>2020-02-22T11:19:46.000Z</time>
      </trkpt>
      <trkpt lat="37.9360873997211456298828125" lon="-1.60519304685294628143310546875">
        <ele>519.5999755859375</ele>
        <time>2020-02-22T11:19:50.000Z</time>
      </trkpt>
      <trkpt lat="37.93630021624267101287841796875" lon="-1.60524752922356128692626953125">
        <ele>520.5999755859375</ele>
        <time>2020-02-22T11:19:55.000Z</time>
      </trkpt>
      <trkpt lat="37.93650842271745204925537109375" lon="-1.60529932938516139984130859375">
        <ele>521.79998779296875</ele>
        <time>2020-02-22T11:20:00.000Z</time>
      </trkpt>
      <trkpt lat="37.93654941022396087646484375" lon="-1.605310477316379547119140625">
        <ele>522.20001220703125</ele>
        <time>2020-02-22T11:20:01.000Z</time>
      </trkpt>
      <trkpt lat="37.9366333968937397003173828125" lon="-1.60533134825527667999267578125">
        <ele>522.4000244140625</ele>
        <time>2020-02-22T11:20:03.000Z</time>
      </trkpt>
      <trkpt lat="37.93671612627804279327392578125" lon="-1.6053517162799835205078125">
        <ele>523</ele>
        <time>2020-02-22T11:20:05.000Z</time>
      </trkpt>
      <trkpt lat="37.9369562678039073944091796875" lon="-1.6054444201290607452392578125">
        <ele>524.4000244140625</ele>
        <time>2020-02-22T11:20:11.000Z</time>
      </trkpt>
      <trkpt lat="37.9371255822479724884033203125" lon="-1.60558037459850311279296875">
        <ele>525.79998779296875</ele>
        <time>2020-02-22T11:20:16.000Z</time>
      </trkpt>
      <trkpt lat="37.93716087006032466888427734375" lon="-1.60561515949666500091552734375">
        <ele>526</ele>
        <time>2020-02-22T11:20:17.000Z</time>
      </trkpt>
      <trkpt lat="37.9372932203114032745361328125" lon="-1.60578749142587184906005859375">
        <ele>527</ele>
        <time>2020-02-22T11:20:21.000Z</time>
      </trkpt>
      <trkpt lat="37.93738936074078083038330078125" lon="-1.6059235297143459320068359375">
        <ele>527.4000244140625</ele>
        <time>2020-02-22T11:20:24.000Z</time>
      </trkpt>
      <trkpt lat="37.93751559220254421234130859375" lon="-1.6061012260615825653076171875">
        <ele>528</ele>
        <time>2020-02-22T11:20:28.000Z</time>
      </trkpt>
      <trkpt lat="37.93770485557615756988525390625" lon="-1.6063557006418704986572265625">
        <ele>528.5999755859375</ele>
        <time>2020-02-22T11:20:34.000Z</time>
      </trkpt>
      <trkpt lat="37.93787232600152492523193359375" lon="-1.60657254047691822052001953125">
        <ele>529.20001220703125</ele>
        <time>2020-02-22T11:20:39.000Z</time>
      </trkpt>
      <trkpt lat="37.93800543062388896942138671875" lon="-1.6068207286298274993896484375">
        <ele>529.79998779296875</ele>
        <time>2020-02-22T11:20:44.000Z</time>
      </trkpt>
      <trkpt lat="37.93809595517814159393310546875" lon="-1.60719732753932476043701171875">
        <ele>530</ele>
        <time>2020-02-22T11:20:50.000Z</time>
      </trkpt>
      <trkpt lat="37.9381553828716278076171875" lon="-1.60743646323680877685546875">
        <ele>530.4000244140625</ele>
        <time>2020-02-22T11:20:54.000Z</time>
      </trkpt>
      <trkpt lat="37.9382162354886531829833984375" lon="-1.6078040935099124908447265625">
        <ele>531.20001220703125</ele>
        <time>2020-02-22T11:21:00.000Z</time>
      </trkpt>
      <trkpt lat="37.9382266290485858917236328125" lon="-1.60786519758403301239013671875">
        <ele>531.5999755859375</ele>
        <time>2020-02-22T11:21:01.000Z</time>
      </trkpt>
      <trkpt lat="37.9382521100342273712158203125" lon="-1.60803685896098613739013671875">
        <ele>531.79998779296875</ele>
        <time>2020-02-22T11:21:04.000Z</time>
      </trkpt>
      <trkpt lat="37.9382893256843090057373046875" lon="-1.60820986144244670867919921875">
        <ele>532.79998779296875</ele>
        <time>2020-02-22T11:21:07.000Z</time>
      </trkpt>
      <trkpt lat="37.93834791518747806549072265625" lon="-1.60857330076396465301513671875">
        <ele>533.5999755859375</ele>
        <time>2020-02-22T11:21:13.000Z</time>
      </trkpt>
      <trkpt lat="37.938350178301334381103515625" lon="-1.60872098989784717559814453125">
        <ele>533.5999755859375</ele>
        <time>2020-02-22T11:21:15.000Z</time>
      </trkpt>
      <trkpt lat="37.93834389187395572662353515625" lon="-1.60894252359867095947265625">
        <ele>533.5999755859375</ele>
        <time>2020-02-22T11:21:18.000Z</time>
      </trkpt>
      <trkpt lat="37.93833282776176929473876953125" lon="-1.60916514694690704345703125">
        <ele>533.5999755859375</ele>
        <time>2020-02-22T11:21:21.000Z</time>
      </trkpt>
      <trkpt lat="37.9383275471627712249755859375" lon="-1.60940713249146938323974609375">
        <ele>533.4000244140625</ele>
        <time>2020-02-22T11:21:24.000Z</time>
      </trkpt>
      <trkpt lat="37.9383825324475765228271484375" lon="-1.60979747772216796875">
        <ele>532.79998779296875</ele>
        <time>2020-02-22T11:21:28.000Z</time>
      </trkpt>
      <trkpt lat="37.9384837858378887176513671875" lon="-1.6101054288446903228759765625">
        <ele>532.4000244140625</ele>
        <time>2020-02-22T11:21:31.000Z</time>
      </trkpt>
      <trkpt lat="37.9385344125330448150634765625" lon="-1.6102009825408458709716796875">
        <ele>532</ele>
        <time>2020-02-22T11:21:32.000Z</time>
      </trkpt>
      <trkpt lat="37.93866994790732860565185546875" lon="-1.61033785901963710784912109375">
        <ele>531</ele>
        <time>2020-02-22T11:21:34.000Z</time>
      </trkpt>
      <trkpt lat="37.93873951770365238189697265625" lon="-1.61039871163666248321533203125">
        <ele>530.79998779296875</ele>
        <time>2020-02-22T11:21:35.000Z</time>
      </trkpt>
      <trkpt lat="37.9388053156435489654541015625" lon="-1.61046258173882961273193359375">
        <ele>530.20001220703125</ele>
        <time>2020-02-22T11:21:36.000Z</time>
      </trkpt>
      <trkpt lat="37.938862144947052001953125" lon="-1.61053315736353397369384765625">
        <ele>529.5999755859375</ele>
        <time>2020-02-22T11:21:37.000Z</time>
      </trkpt>
      <trkpt lat="37.9389518313109874725341796875" lon="-1.6106824390590190887451171875">
        <ele>529</ele>
        <time>2020-02-22T11:21:39.000Z</time>
      </trkpt>
      <trkpt lat="37.93901427648961544036865234375" lon="-1.61082384176552295684814453125">
        <ele>529</ele>
        <time>2020-02-22T11:21:41.000Z</time>
      </trkpt>
      <trkpt lat="37.9390847682952880859375" lon="-1.61102123558521270751953125">
        <ele>529</ele>
        <time>2020-02-22T11:21:44.000Z</time>
      </trkpt>
      <trkpt lat="37.93914151377975940704345703125" lon="-1.61129750311374664306640625">
        <ele>529.20001220703125</ele>
        <time>2020-02-22T11:21:48.000Z</time>
      </trkpt>
      <trkpt lat="37.93915157206356525421142578125" lon="-1.6113704256713390350341796875">
        <ele>529.79998779296875</ele>
        <time>2020-02-22T11:21:49.000Z</time>
      </trkpt>
      <trkpt lat="37.939167916774749755859375" lon="-1.61152104847133159637451171875">
        <ele>530.4000244140625</ele>
        <time>2020-02-22T11:21:51.000Z</time>
      </trkpt>
      <trkpt lat="37.9391979239881038665771484375" lon="-1.611823551356792449951171875">
        <ele>531.4000244140625</ele>
        <time>2020-02-22T11:21:55.000Z</time>
      </trkpt>
      <trkpt lat="37.93923161923885345458984375" lon="-1.61211499013006687164306640625">
        <ele>531.79998779296875</ele>
        <time>2020-02-22T11:21:59.000Z</time>
      </trkpt>
      <trkpt lat="37.9393206350505352020263671875" lon="-1.6124533675611019134521484375">
        <ele>532.4000244140625</ele>
        <time>2020-02-22T11:22:04.000Z</time>
      </trkpt>
      <trkpt lat="37.9393437691032886505126953125" lon="-1.61251732148230075836181640625">
        <ele>532.5999755859375</ele>
        <time>2020-02-22T11:22:05.000Z</time>
      </trkpt>
      <trkpt lat="37.93946421705186367034912109375" lon="-1.61284958012402057647705078125">
        <ele>533.5999755859375</ele>
        <time>2020-02-22T11:22:10.000Z</time>
      </trkpt>
      <trkpt lat="37.9395989142358303070068359375" lon="-1.6131784021854400634765625">
        <ele>534.4000244140625</ele>
        <time>2020-02-22T11:22:15.000Z</time>
      </trkpt>
      <trkpt lat="37.939654402434825897216796875" lon="-1.61331209354102611541748046875">
        <ele>534.5999755859375</ele>
        <time>2020-02-22T11:22:17.000Z</time>
      </trkpt>
      <trkpt lat="37.93986101634800434112548828125" lon="-1.61383143626153469085693359375">
        <ele>535.20001220703125</ele>
        <time>2020-02-22T11:22:25.000Z</time>
      </trkpt>
      <trkpt lat="37.94002815149724483489990234375" lon="-1.614191271364688873291015625">
        <ele>535.79998779296875</ele>
        <time>2020-02-22T11:22:31.000Z</time>
      </trkpt>
      <trkpt lat="37.9400867410004138946533203125" lon="-1.6142732463777065277099609375">
        <ele>535.79998779296875</ele>
        <time>2020-02-22T11:22:33.000Z</time>
      </trkpt>
      <trkpt lat="37.9402651078999042510986328125" lon="-1.614477597177028656005859375">
        <ele>536.4000244140625</ele>
        <time>2020-02-22T11:22:38.000Z</time>
      </trkpt>
      <trkpt lat="37.94034934602677822113037109375" lon="-1.61456367932260036468505859375">
        <ele>536.79998779296875</ele>
        <time>2020-02-22T11:22:40.000Z</time>
      </trkpt>
      <trkpt lat="37.940597198903560638427734375" lon="-1.6148293018341064453125">
        <ele>537.20001220703125</ele>
        <time>2020-02-22T11:22:46.000Z</time>
      </trkpt>
      <trkpt lat="37.94070675037801265716552734375" lon="-1.6149513423442840576171875">
        <ele>538</ele>
        <time>2020-02-22T11:22:49.000Z</time>
      </trkpt>
      <trkpt lat="37.9407418705523014068603515625" lon="-1.61498948000371456146240234375">
        <ele>538</ele>
        <time>2020-02-22T11:22:50.000Z</time>
      </trkpt>
      <trkpt lat="37.9409101791679859161376953125" lon="-1.61515929736196994781494140625">
        <ele>538.4000244140625</ele>
        <time>2020-02-22T11:22:55.000Z</time>
      </trkpt>
      <trkpt lat="37.94099986553192138671875" lon="-1.615252085030078887939453125">
        <ele>539.20001220703125</ele>
        <time>2020-02-22T11:22:58.000Z</time>
      </trkpt>
      <trkpt lat="37.94107421301305294036865234375" lon="-1.6153437830507755279541015625">
        <ele>540.4000244140625</ele>
        <time>2020-02-22T11:23:01.000Z</time>
      </trkpt>
      <trkpt lat="37.94115752913057804107666015625" lon="-1.6154359839856624603271484375">
        <ele>541.4000244140625</ele>
        <time>2020-02-22T11:23:05.000Z</time>
      </trkpt>
      <trkpt lat="37.94117479585111141204833984375" lon="-1.61546154879033565521240234375">
        <ele>541.79998779296875</ele>
        <time>2020-02-22T11:23:06.000Z</time>
      </trkpt>
      <trkpt lat="37.9412414319813251495361328125" lon="-1.61559951491653919219970703125">
        <ele>542.79998779296875</ele>
        <time>2020-02-22T11:23:10.000Z</time>
      </trkpt>
      <trkpt lat="37.9412721097469329833984375" lon="-1.61567478440701961517333984375">
        <ele>543.4000244140625</ele>
        <time>2020-02-22T11:23:12.000Z</time>
      </trkpt>
      <trkpt lat="37.9413034580647945404052734375" lon="-1.61574770696461200714111328125">
        <ele>544</ele>
        <time>2020-02-22T11:23:14.000Z</time>
      </trkpt>
      <trkpt lat="37.94135056436061859130859375" lon="-1.61592020653188228607177734375">
        <ele>545.20001220703125</ele>
        <time>2020-02-22T11:23:18.000Z</time>
      </trkpt>
      <trkpt lat="37.941363640129566192626953125" lon="-1.6159606911242008209228515625">
        <ele>545.4000244140625</ele>
        <time>2020-02-22T11:23:19.000Z</time>
      </trkpt>
      <trkpt lat="37.94140714220702648162841796875" lon="-1.61608046852052211761474609375">
        <ele>546.4000244140625</ele>
        <time>2020-02-22T11:23:22.000Z</time>
      </trkpt>
      <trkpt lat="37.9414410889148712158203125" lon="-1.61621608771383762359619140625">
        <ele>547.5999755859375</ele>
        <time>2020-02-22T11:23:25.000Z</time>
      </trkpt>
      <trkpt lat="37.94146053493022918701171875" lon="-1.616312228143215179443359375">
        <ele>548.4000244140625</ele>
        <time>2020-02-22T11:23:27.000Z</time>
      </trkpt>
      <trkpt lat="37.941471599042415618896484375" lon="-1.616360507905483245849609375">
        <ele>548.5999755859375</ele>
        <time>2020-02-22T11:23:28.000Z</time>
      </trkpt>
      <trkpt lat="37.9415193758904933929443359375" lon="-1.61654516123235225677490234375">
        <ele>549.5999755859375</ele>
        <time>2020-02-22T11:23:32.000Z</time>
      </trkpt>
      <trkpt lat="37.9415663145482540130615234375" lon="-1.616727299988269805908203125">
        <ele>550.4000244140625</ele>
        <time>2020-02-22T11:23:36.000Z</time>
      </trkpt>
      <trkpt lat="37.94160143472254276275634765625" lon="-1.6168615780770778656005859375">
        <ele>550.79998779296875</ele>
        <time>2020-02-22T11:23:39.000Z</time>
      </trkpt>
      <trkpt lat="37.94166966341435909271240234375" lon="-1.617114543914794921875">
        <ele>551.79998779296875</ele>
        <time>2020-02-22T11:23:45.000Z</time>
      </trkpt>
      <trkpt lat="37.94168072752654552459716796875" lon="-1.61715938709676265716552734375">
        <ele>552.20001220703125</ele>
        <time>2020-02-22T11:23:46.000Z</time>
      </trkpt>
      <trkpt lat="37.94174208305776119232177734375" lon="-1.6173812560737133026123046875">
        <ele>553.20001220703125</ele>
        <time>2020-02-22T11:23:51.000Z</time>
      </trkpt>
      <trkpt lat="37.9417607747018337249755859375" lon="-1.6174825094640254974365234375">
        <ele>553.5999755859375</ele>
        <time>2020-02-22T11:23:53.000Z</time>
      </trkpt>
      <trkpt lat="37.9418764449656009674072265625" lon="-1.61786313168704509735107421875">
        <ele>554.20001220703125</ele>
        <time>2020-02-22T11:24:00.000Z</time>
      </trkpt>
      <trkpt lat="37.94189379550516605377197265625" lon="-1.6179254092276096343994140625">
        <ele>554.4000244140625</ele>
        <time>2020-02-22T11:24:01.000Z</time>
      </trkpt>
      <trkpt lat="37.9419877566397190093994140625" lon="-1.61833419464528560638427734375">
        <ele>554.5999755859375</ele>
        <time>2020-02-22T11:24:07.000Z</time>
      </trkpt>
      <trkpt lat="37.9420055262744426727294921875" lon="-1.61839865148067474365234375">
        <ele>554.5999755859375</ele>
        <time>2020-02-22T11:24:08.000Z</time>
      </trkpt>
      <trkpt lat="37.942085154354572296142578125" lon="-1.618753038346767425537109375">
        <ele>554.5999755859375</ele>
        <time>2020-02-22T11:24:13.000Z</time>
      </trkpt>
      <trkpt lat="37.94213586486876010894775390625" lon="-1.61898496560752391815185546875">
        <ele>554.5999755859375</ele>
        <time>2020-02-22T11:24:16.000Z</time>
      </trkpt>
      <trkpt lat="37.94220753014087677001953125" lon="-1.61929911933839321136474609375">
        <ele>554.4000244140625</ele>
        <time>2020-02-22T11:24:20.000Z</time>
      </trkpt>
      <trkpt lat="37.9423216916620731353759765625" lon="-1.6197670809924602508544921875">
        <ele>554.4000244140625</ele>
        <time>2020-02-22T11:24:26.000Z</time>
      </trkpt>
      <trkpt lat="37.942381203174591064453125" lon="-1.61990345455706119537353515625">
        <ele>554.4000244140625</ele>
        <time>2020-02-22T11:24:28.000Z</time>
      </trkpt>
      <trkpt lat="37.94250123202800750732421875" lon="-1.62006472237408161163330078125">
        <ele>554.4000244140625</ele>
        <time>2020-02-22T11:24:31.000Z</time>
      </trkpt>
      <trkpt lat="37.94259519316256046295166015625" lon="-1.62013697437942028045654296875">
        <ele>554.5999755859375</ele>
        <time>2020-02-22T11:24:33.000Z</time>
      </trkpt>
      <trkpt lat="37.94275528751313686370849609375" lon="-1.62026739679276943206787109375">
        <ele>554.79998779296875</ele>
        <time>2020-02-22T11:24:37.000Z</time>
      </trkpt>
      <trkpt lat="37.94284497387707233428955078125" lon="-1.620361022651195526123046875">
        <ele>555.4000244140625</ele>
        <time>2020-02-22T11:24:40.000Z</time>
      </trkpt>
      <trkpt lat="37.94291638769209384918212890625" lon="-1.6204486973583698272705078125">
        <ele>556.20001220703125</ele>
        <time>2020-02-22T11:24:43.000Z</time>
      </trkpt>
      <trkpt lat="37.94293968938291072845458984375" lon="-1.62047409452497959136962890625">
        <ele>556.4000244140625</ele>
        <time>2020-02-22T11:24:44.000Z</time>
      </trkpt>
      <trkpt lat="37.943030297756195068359375" lon="-1.620547436177730560302734375">
        <ele>557.4000244140625</ele>
        <time>2020-02-22T11:24:47.000Z</time>
      </trkpt>
      <trkpt lat="37.94311721809208393096923828125" lon="-1.62062346003949642181396484375">
        <ele>558.5999755859375</ele>
        <time>2020-02-22T11:24:50.000Z</time>
      </trkpt>
      <trkpt lat="37.943230457603931427001953125" lon="-1.62075438536703586578369140625">
        <ele>559.79998779296875</ele>
        <time>2020-02-22T11:24:54.000Z</time>
      </trkpt>
      <trkpt lat="37.94337890110909938812255859375" lon="-1.62087776698172092437744140625">
        <ele>561.4000244140625</ele>
        <time>2020-02-22T11:24:58.000Z</time>
      </trkpt>
      <trkpt lat="37.94356464408338069915771484375" lon="-1.621139533817768096923828125">
        <ele>562.4000244140625</ele>
        <time>2020-02-22T11:25:04.000Z</time>
      </trkpt>
      <trkpt lat="37.943591885268688201904296875" lon="-1.6211903281509876251220703125">
        <ele>562.5999755859375</ele>
        <time>2020-02-22T11:25:05.000Z</time>
      </trkpt>
      <trkpt lat="37.9436312802135944366455078125" lon="-1.621289737522602081298828125">
        <ele>562.79998779296875</ele>
        <time>2020-02-22T11:25:07.000Z</time>
      </trkpt>
      <trkpt lat="37.94372406788170337677001953125" lon="-1.62151806056499481201171875">
        <ele>563.79998779296875</ele>
        <time>2020-02-22T11:25:11.000Z</time>
      </trkpt>
      <trkpt lat="37.94388315640389919281005859375" lon="-1.6220672428607940673828125">
        <ele>564.79998779296875</ele>
        <time>2020-02-22T11:25:19.000Z</time>
      </trkpt>
      <trkpt lat="37.94393763877451419830322265625" lon="-1.622276790440082550048828125">
        <ele>564.79998779296875</ele>
        <time>2020-02-22T11:25:22.000Z</time>
      </trkpt>
      <trkpt lat="37.94399379752576351165771484375" lon="-1.62245876155793666839599609375">
        <ele>564.5999755859375</ele>
        <time>2020-02-22T11:25:25.000Z</time>
      </trkpt>
      <trkpt lat="37.94409639202058315277099609375" lon="-1.62278112955391407012939453125">
        <ele>564</ele>
        <time>2020-02-22T11:25:30.000Z</time>
      </trkpt>
      <trkpt lat="37.94413075782358646392822265625" lon="-1.62292395718395709991455078125">
        <ele>564</ele>
        <time>2020-02-22T11:25:32.000Z</time>
      </trkpt>
      <trkpt lat="37.9441693983972072601318359375" lon="-1.62308170460164546966552734375">
        <ele>563.79998779296875</ele>
        <time>2020-02-22T11:25:34.000Z</time>
      </trkpt>
      <trkpt lat="37.944249026477336883544921875" lon="-1.623453609645366668701171875">
        <ele>563.5999755859375</ele>
        <time>2020-02-22T11:25:38.000Z</time>
      </trkpt>
      <trkpt lat="37.94428917579352855682373046875" lon="-1.623897850513458251953125">
        <ele>562.79998779296875</ele>
        <time>2020-02-22T11:25:43.000Z</time>
      </trkpt>
      <trkpt lat="37.9443548060953617095947265625" lon="-1.6244200430810451507568359375">
        <ele>562.4000244140625</ele>
        <time>2020-02-22T11:25:50.000Z</time>
      </trkpt>
      <trkpt lat="37.94437416829168796539306640625" lon="-1.62447988986968994140625">
        <ele>562.4000244140625</ele>
        <time>2020-02-22T11:25:51.000Z</time>
      </trkpt>
      <trkpt lat="37.9444892518222332000732421875" lon="-1.6246674768626689910888671875">
        <ele>562.79998779296875</ele>
        <time>2020-02-22T11:25:55.000Z</time>
      </trkpt>
      <trkpt lat="37.9445207677781581878662109375" lon="-1.62470050156116485595703125">
        <ele>563</ele>
        <time>2020-02-22T11:25:56.000Z</time>
      </trkpt>
      <trkpt lat="37.944582961499691009521484375" lon="-1.624758504331111907958984375">
        <ele>563.79998779296875</ele>
        <time>2020-02-22T11:25:58.000Z</time>
      </trkpt>
      <trkpt lat="37.94470692984759807586669921875" lon="-1.62484802305698394775390625">
        <ele>565</ele>
        <time>2020-02-22T11:26:02.000Z</time>
      </trkpt>
      <trkpt lat="37.94473819434642791748046875" lon="-1.62487258203327655792236328125">
        <ele>565.20001220703125</ele>
        <time>2020-02-22T11:26:03.000Z</time>
      </trkpt>
      <trkpt lat="37.944797538220882415771484375" lon="-1.624925471842288970947265625">
        <ele>566</ele>
        <time>2020-02-22T11:26:05.000Z</time>
      </trkpt>
      <trkpt lat="37.9449180699884891510009765625" lon="-1.625032089650630950927734375">
        <ele>567</ele>
        <time>2020-02-22T11:26:09.000Z</time>
      </trkpt>
      <trkpt lat="37.94500398449599742889404296875" lon="-1.62510417401790618896484375">
        <ele>568.20001220703125</ele>
        <time>2020-02-22T11:26:12.000Z</time>
      </trkpt>
      <trkpt lat="37.945032902061939239501953125" lon="-1.6251291520893573760986328125">
        <ele>568.4000244140625</ele>
        <time>2020-02-22T11:26:13.000Z</time>
      </trkpt>
      <trkpt lat="37.94515469111502170562744140625" lon="-1.6252320818603038787841796875">
        <ele>569.4000244140625</ele>
        <time>2020-02-22T11:26:17.000Z</time>
      </trkpt>
      <trkpt lat="37.94527002610266208648681640625" lon="-1.6253236122429370880126953125">
        <ele>570.4000244140625</ele>
        <time>2020-02-22T11:26:21.000Z</time>
      </trkpt>
      <trkpt lat="37.9452972672879695892333984375" lon="-1.62534967996180057525634765625">
        <ele>570.5999755859375</ele>
        <time>2020-02-22T11:26:22.000Z</time>
      </trkpt>
      <trkpt lat="37.9454008676111698150634765625" lon="-1.625453867018222808837890625">
        <ele>571.5999755859375</ele>
        <time>2020-02-22T11:26:26.000Z</time>
      </trkpt>
      <trkpt lat="37.94556356035172939300537109375" lon="-1.625603400170803070068359375">
        <ele>572.79998779296875</ele>
        <time>2020-02-22T11:26:32.000Z</time>
      </trkpt>
      <trkpt lat="37.9455869458615779876708984375" lon="-1.6256267018616199493408203125">
        <ele>573</ele>
        <time>2020-02-22T11:26:33.000Z</time>
      </trkpt>
      <trkpt lat="37.945683002471923828125" lon="-1.625718735158443450927734375">
        <ele>574</ele>
        <time>2020-02-22T11:26:37.000Z</time>
      </trkpt>
      <trkpt lat="37.9457840882241725921630859375" lon="-1.62581018172204494476318359375">
        <ele>575</ele>
        <time>2020-02-22T11:26:41.000Z</time>
      </trkpt>
      <trkpt lat="37.94583580456674098968505859375" lon="-1.62585393525660037994384765625">
        <ele>575.5999755859375</ele>
        <time>2020-02-22T11:26:43.000Z</time>
      </trkpt>
      <trkpt lat="37.94588944874703884124755859375" lon="-1.62589802406728267669677734375">
        <ele>576</ele>
        <time>2020-02-22T11:26:45.000Z</time>
      </trkpt>
      <trkpt lat="37.9459969885647296905517578125" lon="-1.625984609127044677734375">
        <ele>577.20001220703125</ele>
        <time>2020-02-22T11:26:49.000Z</time>
      </trkpt>
      <trkpt lat="37.94607653282582759857177734375" lon="-1.62606046535074710845947265625">
        <ele>578.20001220703125</ele>
        <time>2020-02-22T11:26:52.000Z</time>
      </trkpt>
      <trkpt lat="37.94626998715102672576904296875" lon="-1.62624017335474491119384765625">
        <ele>579.4000244140625</ele>
        <time>2020-02-22T11:26:59.000Z</time>
      </trkpt>
      <trkpt lat="37.946347855031490325927734375" lon="-1.62632080726325511932373046875">
        <ele>580.20001220703125</ele>
        <time>2020-02-22T11:27:02.000Z</time>
      </trkpt>
      <trkpt lat="37.94637300074100494384765625" lon="-1.62634913809597492218017578125">
        <ele>580.4000244140625</ele>
        <time>2020-02-22T11:27:03.000Z</time>
      </trkpt>
      <trkpt lat="37.94649512507021427154541015625" lon="-1.626470088958740234375">
        <ele>581.5999755859375</ele>
        <time>2020-02-22T11:27:08.000Z</time>
      </trkpt>
      <trkpt lat="37.9466138966381549835205078125" lon="-1.6265919618308544158935546875">
        <ele>582.5999755859375</ele>
        <time>2020-02-22T11:27:13.000Z</time>
      </trkpt>
      <trkpt lat="37.94663728214800357818603515625" lon="-1.626614592969417572021484375">
        <ele>583</ele>
        <time>2020-02-22T11:27:14.000Z</time>
      </trkpt>
      <trkpt lat="37.9467131383717060089111328125" lon="-1.62668273784220218658447265625">
        <ele>583.79998779296875</ele>
        <time>2020-02-22T11:27:17.000Z</time>
      </trkpt>
      <trkpt lat="37.9468381963670253753662109375" lon="-1.62679731845855712890625">
        <ele>585</ele>
        <time>2020-02-22T11:27:22.000Z</time>
      </trkpt>
      <trkpt lat="37.94686250388622283935546875" lon="-1.62682087160646915435791015625">
        <ele>585.4000244140625</ele>
        <time>2020-02-22T11:27:23.000Z</time>
      </trkpt>
      <trkpt lat="37.94693802483379840850830078125" lon="-1.6268963925540447235107421875">
        <ele>586.4000244140625</ele>
        <time>2020-02-22T11:27:26.000Z</time>
      </trkpt>
      <trkpt lat="37.94705704785883426666259765625" lon="-1.627015583217144012451171875">
        <ele>587.4000244140625</ele>
        <time>2020-02-22T11:27:31.000Z</time>
      </trkpt>
      <trkpt lat="37.94710457324981689453125" lon="-1.6270683892071247100830078125">
        <ele>588</ele>
        <time>2020-02-22T11:27:33.000Z</time>
      </trkpt>
      <trkpt lat="37.9471771605312824249267578125" lon="-1.62714458070695400238037109375">
        <ele>588.5999755859375</ele>
        <time>2020-02-22T11:27:36.000Z</time>
      </trkpt>
      <trkpt lat="37.947298027575016021728515625" lon="-1.62726469337940216064453125">
        <ele>589.79998779296875</ele>
        <time>2020-02-22T11:27:41.000Z</time>
      </trkpt>
      <trkpt lat="37.94737371616065502166748046875" lon="-1.62733484990894794464111328125">
        <ele>590.5999755859375</ele>
        <time>2020-02-22T11:27:44.000Z</time>
      </trkpt>
      <trkpt lat="37.94742451049387454986572265625" lon="-1.62738581188023090362548828125">
        <ele>591</ele>
        <time>2020-02-22T11:27:46.000Z</time>
      </trkpt>
      <trkpt lat="37.9475176334381103515625" lon="-1.6274791024625301361083984375">
        <ele>592.20001220703125</ele>
        <time>2020-02-22T11:27:50.000Z</time>
      </trkpt>
      <trkpt lat="37.94761494733393192291259765625" lon="-1.6275773383677005767822265625">
        <ele>593.4000244140625</ele>
        <time>2020-02-22T11:27:54.000Z</time>
      </trkpt>
      <trkpt lat="37.947635985910892486572265625" lon="-1.62760122679173946380615234375">
        <ele>593.5999755859375</ele>
        <time>2020-02-22T11:27:55.000Z</time>
      </trkpt>
      <trkpt lat="37.94773212634027004241943359375" lon="-1.627703569829463958740234375">
        <ele>594.5999755859375</ele>
        <time>2020-02-22T11:27:59.000Z</time>
      </trkpt>
      <trkpt lat="37.947893477976322174072265625" lon="-1.6278643347322940826416015625">
        <ele>595.4000244140625</ele>
        <time>2020-02-22T11:28:05.000Z</time>
      </trkpt>
      <trkpt lat="37.94792222790420055389404296875" lon="-1.62789375521242618560791015625">
        <ele>595.5999755859375</ele>
        <time>2020-02-22T11:28:06.000Z</time>
      </trkpt>
      <trkpt lat="37.94820302166044712066650390625" lon="-1.62816683761775493621826171875">
        <ele>596.4000244140625</ele>
        <time>2020-02-22T11:28:15.000Z</time>
      </trkpt>
      <trkpt lat="37.9483848251402378082275390625" lon="-1.62837822921574115753173828125">
        <ele>596.79998779296875</ele>
        <time>2020-02-22T11:28:21.000Z</time>
      </trkpt>
      <trkpt lat="37.94843989424407482147216796875" lon="-1.6284550912678241729736328125">
        <ele>597</ele>
        <time>2020-02-22T11:28:23.000Z</time>
      </trkpt>
      <trkpt lat="37.948571406304836273193359375" lon="-1.628662459552288055419921875">
        <ele>597.20001220703125</ele>
        <time>2020-02-22T11:28:28.000Z</time>
      </trkpt>
      <trkpt lat="37.94868213124573230743408203125" lon="-1.62882230244576930999755859375">
        <ele>597.4000244140625</ele>
        <time>2020-02-22T11:28:32.000Z</time>
      </trkpt>
      <trkpt lat="37.94875605963170528411865234375" lon="-1.62893344648182392120361328125">
        <ele>597.79998779296875</ele>
        <time>2020-02-22T11:28:35.000Z</time>
      </trkpt>
      <trkpt lat="37.94886100105941295623779296875" lon="-1.6291011683642864227294921875">
        <ele>598.4000244140625</ele>
        <time>2020-02-22T11:28:40.000Z</time>
      </trkpt>
      <trkpt lat="37.94894347898662090301513671875" lon="-1.6292292438447475433349609375">
        <ele>599</ele>
        <time>2020-02-22T11:28:44.000Z</time>
      </trkpt>
      <trkpt lat="37.949001230299472808837890625" lon="-1.62932672537863254547119140625">
        <ele>600</ele>
        <time>2020-02-22T11:28:47.000Z</time>
      </trkpt>
      <trkpt lat="37.949038781225681304931640625" lon="-1.62938992492854595184326171875">
        <ele>600.5999755859375</ele>
        <time>2020-02-22T11:28:49.000Z</time>
      </trkpt>
      <trkpt lat="37.94907909817993640899658203125" lon="-1.6294535435736179351806640625">
        <ele>601</ele>
        <time>2020-02-22T11:28:51.000Z</time>
      </trkpt>
      <trkpt lat="37.949208430945873260498046875" lon="-1.62964020855724811553955078125">
        <ele>602.20001220703125</ele>
        <time>2020-02-22T11:28:57.000Z</time>
      </trkpt>
      <trkpt lat="37.94922762550413608551025390625" lon="-1.62966937758028507232666015625">
        <ele>602.4000244140625</ele>
        <time>2020-02-22T11:28:58.000Z</time>
      </trkpt>
      <trkpt lat="37.9493081755936145782470703125" lon="-1.6297827847301959991455078125">
        <ele>603.20001220703125</ele>
        <time>2020-02-22T11:29:02.000Z</time>
      </trkpt>
      <trkpt lat="37.94943348504602909088134765625" lon="-1.62995285354554653167724609375">
        <ele>604</ele>
        <time>2020-02-22T11:29:08.000Z</time>
      </trkpt>
      <trkpt lat="37.9494738020002841949462890625" lon="-1.63000901229679584503173828125">
        <ele>604.4000244140625</ele>
        <time>2020-02-22T11:29:10.000Z</time>
      </trkpt>
      <trkpt lat="37.94954563491046428680419921875" lon="-1.63012216798961162567138671875">
        <ele>605.4000244140625</ele>
        <time>2020-02-22T11:29:14.000Z</time>
      </trkpt>
      <trkpt lat="37.9496002011001110076904296875" lon="-1.630215458571910858154296875">
        <ele>606.4000244140625</ele>
        <time>2020-02-22T11:29:17.000Z</time>
      </trkpt>
      <trkpt lat="37.9496213234961032867431640625" lon="-1.63024286739528179168701171875">
        <ele>606.79998779296875</ele>
        <time>2020-02-22T11:29:18.000Z</time>
      </trkpt>
      <trkpt lat="37.94967236928641796112060546875" lon="-1.6303229145705699920654296875">
        <ele>607.5999755859375</ele>
        <time>2020-02-22T11:29:21.000Z</time>
      </trkpt>
      <trkpt lat="37.94974277727305889129638671875" lon="-1.63043548353016376495361328125">
        <ele>608.5999755859375</ele>
        <time>2020-02-22T11:29:26.000Z</time>
      </trkpt>
      <trkpt lat="37.9497970081865787506103515625" lon="-1.63053564727306365966796875">
        <ele>609.79998779296875</ele>
        <time>2020-02-22T11:29:30.000Z</time>
      </trkpt>
      <trkpt lat="37.94985040090978145599365234375" lon="-1.63064016960561275482177734375">
        <ele>611</ele>
        <time>2020-02-22T11:29:34.000Z</time>
      </trkpt>
      <trkpt lat="37.94988267123699188232421875" lon="-1.63068325258791446685791015625">
        <ele>611.5999755859375</ele>
        <time>2020-02-22T11:29:36.000Z</time>
      </trkpt>
      <trkpt lat="37.94991577975451946258544921875" lon="-1.63072717376053333282470703125">
        <ele>612.20001220703125</ele>
        <time>2020-02-22T11:29:38.000Z</time>
      </trkpt>
      <trkpt lat="37.94997646473348140716552734375" lon="-1.63081686012446880340576171875">
        <ele>613.4000244140625</ele>
        <time>2020-02-22T11:29:42.000Z</time>
      </trkpt>
      <trkpt lat="37.95000479556620121002197265625" lon="-1.63086019456386566162109375">
        <ele>614.20001220703125</ele>
        <time>2020-02-22T11:29:44.000Z</time>
      </trkpt>
      <trkpt lat="37.9500176198780536651611328125" lon="-1.63088391534984111785888671875">
        <ele>614.5999755859375</ele>
        <time>2020-02-22T11:29:45.000Z</time>
      </trkpt>
      <trkpt lat="37.950070090591907501220703125" lon="-1.63097745738923549652099609375">
        <ele>615.79998779296875</ele>
        <time>2020-02-22T11:29:49.000Z</time>
      </trkpt>
      <trkpt lat="37.95012817718088626861572265625" lon="-1.6310672275722026824951171875">
        <ele>616.79998779296875</ele>
        <time>2020-02-22T11:29:53.000Z</time>
      </trkpt>
      <trkpt lat="37.95014108531177043914794921875" lon="-1.6310933791100978851318359375">
        <ele>617.20001220703125</ele>
        <time>2020-02-22T11:29:54.000Z</time>
      </trkpt>
      <trkpt lat="37.95019841752946376800537109375" lon="-1.63118147291243076324462890625">
        <ele>618</ele>
        <time>2020-02-22T11:29:58.000Z</time>
      </trkpt>
      <trkpt lat="37.95025424100458621978759765625" lon="-1.63125489838421344757080078125">
        <ele>619.4000244140625</ele>
        <time>2020-02-22T11:30:02.000Z</time>
      </trkpt>
      <trkpt lat="37.95029698871076107025146484375" lon="-1.631309799849987030029296875">
        <ele>620.4000244140625</ele>
        <time>2020-02-22T11:30:06.000Z</time>
      </trkpt>
      <trkpt lat="37.95035012997686862945556640625" lon="-1.63137559778988361358642578125">
        <ele>621.4000244140625</ele>
        <time>2020-02-22T11:30:10.000Z</time>
      </trkpt>
      <trkpt lat="37.950406707823276519775390625" lon="-1.63145472295582294464111328125">
        <ele>622.79998779296875</ele>
        <time>2020-02-22T11:30:14.000Z</time>
      </trkpt>
      <trkpt lat="37.9504575021564960479736328125" lon="-1.6315262205898761749267578125">
        <ele>623.79998779296875</ele>
        <time>2020-02-22T11:30:18.000Z</time>
      </trkpt>
      <trkpt lat="37.95047233812510967254638671875" lon="-1.631542146205902099609375">
        <ele>624</ele>
        <time>2020-02-22T11:30:19.000Z</time>
      </trkpt>
      <trkpt lat="37.950534112751483917236328125" lon="-1.63163057528436183929443359375">
        <ele>625.20001220703125</ele>
        <time>2020-02-22T11:30:24.000Z</time>
      </trkpt>
      <trkpt lat="37.95054559595882892608642578125" lon="-1.63164951838552951812744140625">
        <ele>625.4000244140625</ele>
        <time>2020-02-22T11:30:25.000Z</time>
      </trkpt>
      <trkpt lat="37.95058943331241607666015625" lon="-1.63174130022525787353515625">
        <ele>626.20001220703125</ele>
        <time>2020-02-22T11:30:29.000Z</time>
      </trkpt>
      <trkpt lat="37.9506405629217624664306640625" lon="-1.631826795637607574462890625">
        <ele>627.4000244140625</ele>
        <time>2020-02-22T11:30:34.000Z</time>
      </trkpt>
      <trkpt lat="37.95066076330840587615966796875" lon="-1.631903238594532012939453125">
        <ele>628.5999755859375</ele>
        <time>2020-02-22T11:30:38.000Z</time>
      </trkpt>
      <trkpt lat="37.95067266561090946197509765625" lon="-1.63195461966097354888916015625">
        <ele>629.20001220703125</ele>
        <time>2020-02-22T11:30:40.000Z</time>
      </trkpt>
      <trkpt lat="37.9506807960569858551025390625" lon="-1.63200725801289081573486328125">
        <ele>630</ele>
        <time>2020-02-22T11:30:42.000Z</time>
      </trkpt>
      <trkpt lat="37.95068725012242794036865234375" lon="-1.63210800848901271820068359375">
        <ele>631.20001220703125</ele>
        <time>2020-02-22T11:30:47.000Z</time>
      </trkpt>
      <trkpt lat="37.95066143386065959930419921875" lon="-1.6322380118072032928466796875">
        <ele>632.20001220703125</ele>
        <time>2020-02-22T11:30:52.000Z</time>
      </trkpt>
      <trkpt lat="37.95064173638820648193359375" lon="-1.63228134624660015106201171875">
        <ele>632.79998779296875</ele>
        <time>2020-02-22T11:30:54.000Z</time>
      </trkpt>
      <trkpt lat="37.9506207816302776336669921875" lon="-1.632326357066631317138671875">
        <ele>633.5999755859375</ele>
        <time>2020-02-22T11:30:56.000Z</time>
      </trkpt>
      <trkpt lat="37.95056286267936229705810546875" lon="-1.63244512863457202911376953125">
        <ele>634.5999755859375</ele>
        <time>2020-02-22T11:31:02.000Z</time>
      </trkpt>
      <trkpt lat="37.95051676221191883087158203125" lon="-1.6325427778065204620361328125">
        <ele>635.79998779296875</ele>
        <time>2020-02-22T11:31:06.000Z</time>
      </trkpt>
      <trkpt lat="37.9504803009331226348876953125" lon="-1.63263757713139057159423828125">
        <ele>636.79998779296875</ele>
        <time>2020-02-22T11:31:10.000Z</time>
      </trkpt>
      <trkpt lat="37.9504719190299510955810546875" lon="-1.63265719078481197357177734375">
        <ele>637.20001220703125</ele>
        <time>2020-02-22T11:31:11.000Z</time>
      </trkpt>
      <trkpt lat="37.9504645429551601409912109375" lon="-1.63277269341051578521728515625">
        <ele>638.4000244140625</ele>
        <time>2020-02-22T11:31:16.000Z</time>
      </trkpt>
      <trkpt lat="37.9504729248583316802978515625" lon="-1.63279800675809383392333984375">
        <ele>638.5999755859375</ele>
        <time>2020-02-22T11:31:17.000Z</time>
      </trkpt>
      <trkpt lat="37.95053981244564056396484375" lon="-1.63288660347461700439453125">
        <ele>639.4000244140625</ele>
        <time>2020-02-22T11:31:22.000Z</time>
      </trkpt>
      <trkpt lat="37.95055967755615711212158203125" lon="-1.63289121352136135101318359375">
        <ele>640</ele>
        <time>2020-02-22T11:31:23.000Z</time>
      </trkpt>
      <trkpt lat="37.95059773139655590057373046875" lon="-1.632893644273281097412109375">
        <ele>640.5999755859375</ele>
        <time>2020-02-22T11:31:25.000Z</time>
      </trkpt>
      <trkpt lat="37.95065975748002529144287109375" lon="-1.632878221571445465087890625">
        <ele>641.5999755859375</ele>
        <time>2020-02-22T11:31:28.000Z</time>
      </trkpt>
      <trkpt lat="37.9506938718259334564208984375" lon="-1.63286237977445125579833984375">
        <ele>642.20001220703125</ele>
        <time>2020-02-22T11:31:30.000Z</time>
      </trkpt>
      <trkpt lat="37.95072413049638271331787109375" lon="-1.6328468732535839080810546875">
        <ele>642.79998779296875</ele>
        <time>2020-02-22T11:31:32.000Z</time>
      </trkpt>
      <trkpt lat="37.950762100517749786376953125" lon="-1.63280622102320194244384765625">
        <ele>643.5999755859375</ele>
        <time>2020-02-22T11:31:35.000Z</time>
      </trkpt>
      <trkpt lat="37.95079462230205535888671875" lon="-1.6327764652669429779052734375">
        <ele>644</ele>
        <time>2020-02-22T11:31:37.000Z</time>
      </trkpt>
      <trkpt lat="37.9508675448596477508544921875" lon="-1.632721312344074249267578125">
        <ele>645</ele>
        <time>2020-02-22T11:31:41.000Z</time>
      </trkpt>
      <trkpt lat="37.95093518681824207305908203125" lon="-1.632671356201171875">
        <ele>645.5999755859375</ele>
        <time>2020-02-22T11:31:44.000Z</time>
      </trkpt>
      <trkpt lat="37.9509902559220790863037109375" lon="-1.6326312907040119171142578125">
        <ele>646.20001220703125</ele>
        <time>2020-02-22T11:31:47.000Z</time>
      </trkpt>
      <trkpt lat="37.951099388301372528076171875" lon="-1.63258544169366359710693359375">
        <ele>647</ele>
        <time>2020-02-22T11:31:51.000Z</time>
      </trkpt>
      <trkpt lat="37.951149009168148040771484375" lon="-1.6325682587921619415283203125">
        <ele>647.5999755859375</ele>
        <time>2020-02-22T11:31:53.000Z</time>
      </trkpt>
      <trkpt lat="37.95125705190002918243408203125" lon="-1.63257219828665256500244140625">
        <ele>648.79998779296875</ele>
        <time>2020-02-22T11:31:57.000Z</time>
      </trkpt>
      <trkpt lat="37.95136434026062488555908203125" lon="-1.63264461793005466461181640625">
        <ele>649.79998779296875</ele>
        <time>2020-02-22T11:32:03.000Z</time>
      </trkpt>
      <trkpt lat="37.95142938382923603057861328125" lon="-1.632727347314357757568359375">
        <ele>651</ele>
        <time>2020-02-22T11:32:08.000Z</time>
      </trkpt>
      <trkpt lat="37.95146458782255649566650390625" lon="-1.63277621380984783172607421875">
        <ele>652</ele>
        <time>2020-02-22T11:32:10.000Z</time>
      </trkpt>
      <trkpt lat="37.9514767415821552276611328125" lon="-1.63279884494841098785400390625">
        <ele>652.20001220703125</ele>
        <time>2020-02-22T11:32:11.000Z</time>
      </trkpt>
      <trkpt lat="37.95159350149333477020263671875" lon="-1.6328931413590908050537109375">
        <ele>653.20001220703125</ele>
        <time>2020-02-22T11:32:17.000Z</time>
      </trkpt>
      <trkpt lat="37.95161361806094646453857421875" lon="-1.63290931843221187591552734375">
        <ele>653.4000244140625</ele>
        <time>2020-02-22T11:32:18.000Z</time>
      </trkpt>
      <trkpt lat="37.95166508294641971588134765625" lon="-1.63296380080282688140869140625">
        <ele>654.4000244140625</ele>
        <time>2020-02-22T11:32:21.000Z</time>
      </trkpt>
      <trkpt lat="37.9517449624836444854736328125" lon="-1.63304393179714679718017578125">
        <ele>655.5999755859375</ele>
        <time>2020-02-22T11:32:25.000Z</time>
      </trkpt>
      <trkpt lat="37.95176181010901927947998046875" lon="-1.63306270726025104522705078125">
        <ele>655.79998779296875</ele>
        <time>2020-02-22T11:32:26.000Z</time>
      </trkpt>
      <trkpt lat="37.951810173690319061279296875" lon="-1.63312255404889583587646484375">
        <ele>656.79998779296875</ele>
        <time>2020-02-22T11:32:29.000Z</time>
      </trkpt>
      <trkpt lat="37.95186457224190235137939453125" lon="-1.63317837752401828765869140625">
        <ele>658</ele>
        <time>2020-02-22T11:32:32.000Z</time>
      </trkpt>
      <trkpt lat="37.9519313760101795196533203125" lon="-1.6332538984715938568115234375">
        <ele>659.20001220703125</ele>
        <time>2020-02-22T11:32:36.000Z</time>
      </trkpt>
      <trkpt lat="37.95198426581919193267822265625" lon="-1.63330628536641597747802734375">
        <ele>660.4000244140625</ele>
        <time>2020-02-22T11:32:39.000Z</time>
      </trkpt>
      <trkpt lat="37.95203304849565029144287109375" lon="-1.63335573859512805938720703125">
        <ele>661.4000244140625</ele>
        <time>2020-02-22T11:32:42.000Z</time>
      </trkpt>
      <trkpt lat="37.95206506736576557159423828125" lon="-1.63338926620781421661376953125">
        <ele>662.20001220703125</ele>
        <time>2020-02-22T11:32:44.000Z</time>
      </trkpt>
      <trkpt lat="37.95208074152469635009765625" lon="-1.6334094665944576263427734375">
        <ele>662.5999755859375</ele>
        <time>2020-02-22T11:32:45.000Z</time>
      </trkpt>
      <trkpt lat="37.95214134268462657928466796875" lon="-1.63346570916473865509033203125">
        <ele>663.79998779296875</ele>
        <time>2020-02-22T11:32:49.000Z</time>
      </trkpt>
      <trkpt lat="37.95218207873404026031494140625" lon="-1.633517928421497344970703125">
        <ele>664.79998779296875</ele>
        <time>2020-02-22T11:32:52.000Z</time>
      </trkpt>
      <trkpt lat="37.95220068655908107757568359375" lon="-1.63356813602149486541748046875">
        <ele>665.4000244140625</ele>
        <time>2020-02-22T11:32:54.000Z</time>
      </trkpt>
      <trkpt lat="37.95221962966024875640869140625" lon="-1.63362999446690082550048828125">
        <ele>666</ele>
        <time>2020-02-22T11:32:56.000Z</time>
      </trkpt>
      <trkpt lat="37.9522383213043212890625" lon="-1.63375203497707843780517578125">
        <ele>667.4000244140625</ele>
        <time>2020-02-22T11:33:00.000Z</time>
      </trkpt>
      <trkpt lat="37.95223052613437175750732421875" lon="-1.633810959756374359130859375">
        <ele>668</ele>
        <time>2020-02-22T11:33:02.000Z</time>
      </trkpt>
      <trkpt lat="37.952211834490299224853515625" lon="-1.63387625478208065032958984375">
        <ele>668.5999755859375</ele>
        <time>2020-02-22T11:33:04.000Z</time>
      </trkpt>
      <trkpt lat="37.952170930802822113037109375" lon="-1.63396728225052356719970703125">
        <ele>669.79998779296875</ele>
        <time>2020-02-22T11:33:07.000Z</time>
      </trkpt>
      <trkpt lat="37.95214134268462657928466796875" lon="-1.63402209989726543426513671875">
        <ele>670.20001220703125</ele>
        <time>2020-02-22T11:33:09.000Z</time>
      </trkpt>
      <trkpt lat="37.95209281146526336669921875" lon="-1.63409762084484100341796875">
        <ele>671</ele>
        <time>2020-02-22T11:33:12.000Z</time>
      </trkpt>
      <trkpt lat="37.95204226858913898468017578125" lon="-1.634170375764369964599609375">
        <ele>672</ele>
        <time>2020-02-22T11:33:15.000Z</time>
      </trkpt>
      <trkpt lat="37.9519494809210300445556640625" lon="-1.6342771612107753753662109375">
        <ele>673.20001220703125</ele>
        <time>2020-02-22T11:33:19.000Z</time>
      </trkpt>
      <trkpt lat="37.95179131440818309783935546875" lon="-1.63444739766418933868408203125">
        <ele>674</ele>
        <time>2020-02-22T11:33:26.000Z</time>
      </trkpt>
      <trkpt lat="37.95176734216511249542236328125" lon="-1.6344746388494968414306640625">
        <ele>674.20001220703125</ele>
        <time>2020-02-22T11:33:27.000Z</time>
      </trkpt>
      <trkpt lat="37.95161847956478595733642578125" lon="-1.63470924831926822662353515625">
        <ele>674.79998779296875</ele>
        <time>2020-02-22T11:33:34.000Z</time>
      </trkpt>
      <trkpt lat="37.95153784565627574920654296875" lon="-1.6349069774150848388671875">
        <ele>675.20001220703125</ele>
        <time>2020-02-22T11:33:39.000Z</time>
      </trkpt>
      <trkpt lat="37.95150197111070156097412109375" lon="-1.6350352205336093902587890625">
        <ele>675.5999755859375</ele>
        <time>2020-02-22T11:33:42.000Z</time>
      </trkpt>
      <trkpt lat="37.95143860392272472381591796875" lon="-1.63540259934961795806884765625">
        <ele>676.20001220703125</ele>
        <time>2020-02-22T11:33:50.000Z</time>
      </trkpt>
      <trkpt lat="37.9514338262379169464111328125" lon="-1.635450460016727447509765625">
        <ele>676.4000244140625</ele>
        <time>2020-02-22T11:33:51.000Z</time>
      </trkpt>
      <trkpt lat="37.95143189840018749237060546875" lon="-1.63549781776964664459228515625">
        <ele>676.4000244140625</ele>
        <time>2020-02-22T11:33:52.000Z</time>
      </trkpt>
      <trkpt lat="37.9514666832983493804931640625" lon="-1.6358063556253910064697265625">
        <ele>677.4000244140625</ele>
        <time>2020-02-22T11:33:58.000Z</time>
      </trkpt>
      <trkpt lat="37.95148017816245555877685546875" lon="-1.63585857488214969635009765625">
        <ele>677.4000244140625</ele>
        <time>2020-02-22T11:33:59.000Z</time>
      </trkpt>
      <trkpt lat="37.951571457087993621826171875" lon="-1.6361952759325504302978515625">
        <ele>678.5999755859375</ele>
        <time>2020-02-22T11:34:05.000Z</time>
      </trkpt>
      <trkpt lat="37.951602302491664886474609375" lon="-1.63629577495157718658447265625">
        <ele>678.79998779296875</ele>
        <time>2020-02-22T11:34:07.000Z</time>
      </trkpt>
      <trkpt lat="37.95169324614107608795166015625" lon="-1.63661696948111057281494140625">
        <ele>679.4000244140625</ele>
        <time>2020-02-22T11:34:13.000Z</time>
      </trkpt>
      <trkpt lat="37.95170950703322887420654296875" lon="-1.63666994310915470123291015625">
        <ele>679.5999755859375</ele>
        <time>2020-02-22T11:34:14.000Z</time>
      </trkpt>
      <trkpt lat="37.951768934726715087890625" lon="-1.63689340464770793914794921875">
        <ele>680.5999755859375</ele>
        <time>2020-02-22T11:34:18.000Z</time>
      </trkpt>
      <trkpt lat="37.95180858112871646881103515625" lon="-1.63706950843334197998046875">
        <ele>681.4000244140625</ele>
        <time>2020-02-22T11:34:21.000Z</time>
      </trkpt>
      <trkpt lat="37.95183121226727962493896484375" lon="-1.637187860906124114990234375">
        <ele>681.79998779296875</ele>
        <time>2020-02-22T11:34:23.000Z</time>
      </trkpt>
      <trkpt lat="37.95193783007562160491943359375" lon="-1.637636460363864898681640625">
        <ele>683</ele>
        <time>2020-02-22T11:34:31.000Z</time>
      </trkpt>
      <trkpt lat="37.95198686420917510986328125" lon="-1.6379350237548351287841796875">
        <ele>683.4000244140625</ele>
        <time>2020-02-22T11:34:36.000Z</time>
      </trkpt>
      <trkpt lat="37.951997257769107818603515625" lon="-1.6381348483264446258544921875">
        <ele>683.79998779296875</ele>
        <time>2020-02-22T11:34:39.000Z</time>
      </trkpt>
      <trkpt lat="37.952011339366436004638671875" lon="-1.63826334290206432342529296875">
        <ele>684</ele>
        <time>2020-02-22T11:34:41.000Z</time>
      </trkpt>
      <trkpt lat="37.952053248882293701171875" lon="-1.63873356766998767852783203125">
        <ele>684.5999755859375</ele>
        <time>2020-02-22T11:34:48.000Z</time>
      </trkpt>
      <trkpt lat="37.95208719559013843536376953125" lon="-1.63920563645660877227783203125">
        <ele>685</ele>
        <time>2020-02-22T11:34:55.000Z</time>
      </trkpt>
      <trkpt lat="37.95209951698780059814453125" lon="-1.6393995098769664764404296875">
        <ele>685.20001220703125</ele>
        <time>2020-02-22T11:34:58.000Z</time>
      </trkpt>
      <trkpt lat="37.95211485587060451507568359375" lon="-1.63964702747762203216552734375">
        <ele>685.79998779296875</ele>
        <time>2020-02-22T11:35:02.000Z</time>
      </trkpt>
      <trkpt lat="37.9521224834024906158447265625" lon="-1.6397726722061634063720703125">
        <ele>686.20001220703125</ele>
        <time>2020-02-22T11:35:04.000Z</time>
      </trkpt>
      <trkpt lat="37.9521369002759456634521484375" lon="-1.6399567387998104095458984375">
        <ele>686.79998779296875</ele>
        <time>2020-02-22T11:35:07.000Z</time>
      </trkpt>
      <trkpt lat="37.9521459527313709259033203125" lon="-1.640072576701641082763671875">
        <ele>687.4000244140625</ele>
        <time>2020-02-22T11:35:09.000Z</time>
      </trkpt>
      <trkpt lat="37.9521677456796169281005859375" lon="-1.64041715674102306365966796875">
        <ele>688.5999755859375</ele>
        <time>2020-02-22T11:35:15.000Z</time>
      </trkpt>
      <trkpt lat="37.95217269100248813629150390625" lon="-1.64053634740412235260009765625">
        <ele>688.79998779296875</ele>
        <time>2020-02-22T11:35:17.000Z</time>
      </trkpt>
      <trkpt lat="37.95218174345791339874267578125" lon="-1.640716306865215301513671875">
        <ele>689.4000244140625</ele>
        <time>2020-02-22T11:35:20.000Z</time>
      </trkpt>
      <trkpt lat="37.95218308456242084503173828125" lon="-1.64084203541278839111328125">
        <ele>689.5999755859375</ele>
        <time>2020-02-22T11:35:22.000Z</time>
      </trkpt>
      <trkpt lat="37.952192388474941253662109375" lon="-1.64096516557037830352783203125">
        <ele>690</ele>
        <time>2020-02-22T11:35:24.000Z</time>
      </trkpt>
      <trkpt lat="37.9522182047367095947265625" lon="-1.6412901319563388824462890625">
        <ele>690.5999755859375</ele>
        <time>2020-02-22T11:35:29.000Z</time>
      </trkpt>
      <trkpt lat="37.95225617475807666778564453125" lon="-1.64147646166384220123291015625">
        <ele>690.79998779296875</ele>
        <time>2020-02-22T11:35:32.000Z</time>
      </trkpt>
      <trkpt lat="37.9523576796054840087890625" lon="-1.6419251449406147003173828125">
        <ele>691</ele>
        <time>2020-02-22T11:35:39.000Z</time>
      </trkpt>
      <trkpt lat="37.95248617418110370635986328125" lon="-1.64230392314493656158447265625">
        <ele>691.20001220703125</ele>
        <time>2020-02-22T11:35:46.000Z</time>
      </trkpt>
      <trkpt lat="37.9525251500308513641357421875" lon="-1.642415486276149749755859375">
        <ele>691.79998779296875</ele>
        <time>2020-02-22T11:35:48.000Z</time>
      </trkpt>
      <trkpt lat="37.95265674591064453125" lon="-1.64274103939533233642578125">
        <ele>692.79998779296875</ele>
        <time>2020-02-22T11:35:54.000Z</time>
      </trkpt>
      <trkpt lat="37.95272053219377994537353515625" lon="-1.64290289394557476043701171875">
        <ele>693</ele>
        <time>2020-02-22T11:35:57.000Z</time>
      </trkpt>
      <trkpt lat="37.9527940414845943450927734375" lon="-1.6430607251822948455810546875">
        <ele>693.79998779296875</ele>
        <time>2020-02-22T11:36:00.000Z</time>
      </trkpt>
      <trkpt lat="37.9529571533203125" lon="-1.6434513218700885772705078125">
        <ele>694.5999755859375</ele>
        <time>2020-02-22T11:36:07.000Z</time>
      </trkpt>
      <trkpt lat="37.9529801197350025177001953125" lon="-1.64350840263068675994873046875">
        <ele>694.79998779296875</ele>
        <time>2020-02-22T11:36:08.000Z</time>
      </trkpt>
      <trkpt lat="37.95313543640077114105224609375" lon="-1.64387033320963382720947265625">
        <ele>696</ele>
        <time>2020-02-22T11:36:14.000Z</time>
      </trkpt>
      <trkpt lat="37.95315605588257312774658203125" lon="-1.643936634063720703125">
        <ele>696.20001220703125</ele>
        <time>2020-02-22T11:36:15.000Z</time>
      </trkpt>
      <trkpt lat="37.95333794318139553070068359375" lon="-1.64442655630409717559814453125">
        <ele>696.5999755859375</ele>
        <time>2020-02-22T11:36:23.000Z</time>
      </trkpt>
      <trkpt lat="37.95342561788856983184814453125" lon="-1.64464943110942840576171875">
        <ele>697</ele>
        <time>2020-02-22T11:36:27.000Z</time>
      </trkpt>
      <trkpt lat="37.95352779328823089599609375" lon="-1.64493248797953128814697265625">
        <ele>697.79998779296875</ele>
        <time>2020-02-22T11:36:32.000Z</time>
      </trkpt>
      <trkpt lat="37.95356023125350475311279296875" lon="-1.6451132856309413909912109375">
        <ele>698.4000244140625</ele>
        <time>2020-02-22T11:36:35.000Z</time>
      </trkpt>
      <trkpt lat="37.953577749431133270263671875" lon="-1.64535351097583770751953125">
        <ele>699</ele>
        <time>2020-02-22T11:36:39.000Z</time>
      </trkpt>
      <trkpt lat="37.95357431285083293914794921875" lon="-1.64558594115078449249267578125">
        <ele>699.4000244140625</ele>
        <time>2020-02-22T11:36:43.000Z</time>
      </trkpt>
      <trkpt lat="37.9535651765763759613037109375" lon="-1.6457684151828289031982421875">
        <ele>700</ele>
        <time>2020-02-22T11:36:46.000Z</time>
      </trkpt>
      <trkpt lat="37.95356458984315395355224609375" lon="-1.6460034437477588653564453125">
        <ele>700.4000244140625</ele>
        <time>2020-02-22T11:36:50.000Z</time>
      </trkpt>
      <trkpt lat="37.9535427130758762359619140625" lon="-1.64620687253773212432861328125">
        <ele>701</ele>
        <time>2020-02-22T11:36:53.000Z</time>
      </trkpt>
      <trkpt lat="37.953510694205760955810546875" lon="-1.6465348564088344573974609375">
        <ele>701.5999755859375</ele>
        <time>2020-02-22T11:36:58.000Z</time>
      </trkpt>
      <trkpt lat="37.9534894041717052459716796875" lon="-1.64674314670264720916748046875">
        <ele>701.5999755859375</ele>
        <time>2020-02-22T11:37:01.000Z</time>
      </trkpt>
      <trkpt lat="37.95344271697103977203369140625" lon="-1.64720985107123851776123046875">
        <ele>702.4000244140625</ele>
        <time>2020-02-22T11:37:08.000Z</time>
      </trkpt>
      <trkpt lat="37.95343450270593166351318359375" lon="-1.6472751460969448089599609375">
        <ele>702.5999755859375</ele>
        <time>2020-02-22T11:37:09.000Z</time>
      </trkpt>
      <trkpt lat="37.9534233547747135162353515625" lon="-1.64740649051964282989501953125">
        <ele>703.4000244140625</ele>
        <time>2020-02-22T11:37:11.000Z</time>
      </trkpt>
      <trkpt lat="37.9534149728715419769287109375" lon="-1.64754093624651432037353515625">
        <ele>703.79998779296875</ele>
        <time>2020-02-22T11:37:13.000Z</time>
      </trkpt>
      <trkpt lat="37.9533876478672027587890625" lon="-1.6478700935840606689453125">
        <ele>704.79998779296875</ele>
        <time>2020-02-22T11:37:18.000Z</time>
      </trkpt>
      <trkpt lat="37.9533891566097736358642578125" lon="-1.64793538860976696014404296875">
        <ele>705</ele>
        <time>2020-02-22T11:37:19.000Z</time>
      </trkpt>
      <trkpt lat="37.95339292846620082855224609375" lon="-1.64800059981644153594970703125">
        <ele>705</ele>
        <time>2020-02-22T11:37:20.000Z</time>
      </trkpt>
      <trkpt lat="37.953407764434814453125" lon="-1.648268066346645355224609375">
        <ele>705.5999755859375</ele>
        <time>2020-02-22T11:37:24.000Z</time>
      </trkpt>
      <trkpt lat="37.9534200020134449005126953125" lon="-1.648333109915256500244140625">
        <ele>705.5999755859375</ele>
        <time>2020-02-22T11:37:25.000Z</time>
      </trkpt>
      <trkpt lat="37.9534642584621906280517578125" lon="-1.6486531309783458709716796875">
        <ele>705.79998779296875</ele>
        <time>2020-02-22T11:37:30.000Z</time>
      </trkpt>
      <trkpt lat="37.95350289903581142425537109375" lon="-1.64889779873192310333251953125">
        <ele>706.4000244140625</ele>
        <time>2020-02-22T11:37:34.000Z</time>
      </trkpt>
      <trkpt lat="37.953530810773372650146484375" lon="-1.64913140237331390380859375">
        <ele>706.79998779296875</ele>
        <time>2020-02-22T11:37:38.000Z</time>
      </trkpt>
      <trkpt lat="37.95355771668255329132080078125" lon="-1.649291999638080596923828125">
        <ele>707.4000244140625</ele>
        <time>2020-02-22T11:37:41.000Z</time>
      </trkpt>
      <trkpt lat="37.9535899870097637176513671875" lon="-1.64956013672053813934326171875">
        <ele>708</ele>
        <time>2020-02-22T11:37:46.000Z</time>
      </trkpt>
      <trkpt lat="37.953615970909595489501953125" lon="-1.64977379143238067626953125">
        <ele>709</ele>
        <time>2020-02-22T11:37:50.000Z</time>
      </trkpt>
      <trkpt lat="37.95362058095633983612060546875" lon="-1.64982835762202739715576171875">
        <ele>709.20001220703125</ele>
        <time>2020-02-22T11:37:51.000Z</time>
      </trkpt>
      <trkpt lat="37.9536533541977405548095703125" lon="-1.6500951535999774932861328125">
        <ele>710.4000244140625</ele>
        <time>2020-02-22T11:37:56.000Z</time>
      </trkpt>
      <trkpt lat="37.95368478633463382720947265625" lon="-1.65031115524470806121826171875">
        <ele>711</ele>
        <time>2020-02-22T11:38:00.000Z</time>
      </trkpt>
      <trkpt lat="37.95370724983513355255126953125" lon="-1.65048457682132720947265625">
        <ele>711.4000244140625</ele>
        <time>2020-02-22T11:38:03.000Z</time>
      </trkpt>
      <trkpt lat="37.95374647714197635650634765625" lon="-1.65082412771880626678466796875">
        <ele>712.4000244140625</ele>
        <time>2020-02-22T11:38:09.000Z</time>
      </trkpt>
      <trkpt lat="37.9537872970104217529296875" lon="-1.65120969526469707489013671875">
        <ele>713.5999755859375</ele>
        <time>2020-02-22T11:38:16.000Z</time>
      </trkpt>
      <trkpt lat="37.95383230783045291900634765625" lon="-1.6515956819057464599609375">
        <ele>715</ele>
        <time>2020-02-22T11:38:22.000Z</time>
      </trkpt>
      <trkpt lat="37.953851334750652313232421875" lon="-1.6517906449735164642333984375">
        <ele>715.20001220703125</ele>
        <time>2020-02-22T11:38:25.000Z</time>
      </trkpt>
      <trkpt lat="37.95391738414764404296875" lon="-1.65225215256214141845703125">
        <ele>716</ele>
        <time>2020-02-22T11:38:33.000Z</time>
      </trkpt>
      <trkpt lat="37.95396231114864349365234375" lon="-1.65252833627164363861083984375">
        <ele>717</ele>
        <time>2020-02-22T11:38:38.000Z</time>
      </trkpt>
      <trkpt lat="37.95400380156934261322021484375" lon="-1.65276939980685710906982421875">
        <ele>717.79998779296875</ele>
        <time>2020-02-22T11:38:42.000Z</time>
      </trkpt>
      <trkpt lat="37.95402626506984233856201171875" lon="-1.65294156409800052642822265625">
        <ele>718.20001220703125</ele>
        <time>2020-02-22T11:38:45.000Z</time>
      </trkpt>
      <trkpt lat="37.95406381599605083465576171875" lon="-1.65315748192369937896728515625">
        <ele>719</ele>
        <time>2020-02-22T11:38:49.000Z</time>
      </trkpt>
      <trkpt lat="37.95407437719404697418212890625" lon="-1.65320970118045806884765625">
        <ele>719.20001220703125</ele>
        <time>2020-02-22T11:38:50.000Z</time>
      </trkpt>
      <trkpt lat="37.95410974882543087005615234375" lon="-1.65350600145757198333740234375">
        <ele>720</ele>
        <time>2020-02-22T11:38:55.000Z</time>
      </trkpt>
      <trkpt lat="37.9541066475212574005126953125" lon="-1.65357179939746856689453125">
        <ele>720.20001220703125</ele>
        <time>2020-02-22T11:38:56.000Z</time>
      </trkpt>
      <trkpt lat="37.9541022889316082000732421875" lon="-1.653632819652557373046875">
        <ele>720.4000244140625</ele>
        <time>2020-02-22T11:38:57.000Z</time>
      </trkpt>
      <trkpt lat="37.95409264974296092987060546875" lon="-1.65369811467826366424560546875">
        <ele>720.5999755859375</ele>
        <time>2020-02-22T11:38:58.000Z</time>
      </trkpt>
      <trkpt lat="37.9540622234344482421875" lon="-1.653823591768741607666015625">
        <ele>721.4000244140625</ele>
        <time>2020-02-22T11:39:00.000Z</time>
      </trkpt>
      <trkpt lat="37.9540332220494747161865234375" lon="-1.65394135750830173492431640625">
        <ele>721.79998779296875</ele>
        <time>2020-02-22T11:39:02.000Z</time>
      </trkpt>
      <trkpt lat="37.95397060923278331756591796875" lon="-1.65410949848592281341552734375">
        <ele>722.4000244140625</ele>
        <time>2020-02-22T11:39:05.000Z</time>
      </trkpt>
      <trkpt lat="37.95391394756734371185302734375" lon="-1.6543273441493511199951171875">
        <ele>723</ele>
        <time>2020-02-22T11:39:09.000Z</time>
      </trkpt>
      <trkpt lat="37.9538731276988983154296875" lon="-1.65442784316837787628173828125">
        <ele>723.4000244140625</ele>
        <time>2020-02-22T11:39:11.000Z</time>
      </trkpt>
      <trkpt lat="37.95380062423646450042724609375" lon="-1.65469556115567684173583984375">
        <ele>724.4000244140625</ele>
        <time>2020-02-22T11:39:16.000Z</time>
      </trkpt>
      <trkpt lat="37.95379023067653179168701171875" lon="-1.65474526584148406982421875">
        <ele>724.5999755859375</ele>
        <time>2020-02-22T11:39:17.000Z</time>
      </trkpt>
      <trkpt lat="37.95378151349723339080810546875" lon="-1.6550069488584995269775390625">
        <ele>725.5999755859375</ele>
        <time>2020-02-22T11:39:22.000Z</time>
      </trkpt>
      <trkpt lat="37.953784279525279998779296875" lon="-1.65531967766582965850830078125">
        <ele>726.79998779296875</ele>
        <time>2020-02-22T11:39:28.000Z</time>
      </trkpt>
      <trkpt lat="37.953780926764011383056640625" lon="-1.6553749144077301025390625">
        <ele>727</ele>
        <time>2020-02-22T11:39:29.000Z</time>
      </trkpt>
      <trkpt lat="37.9537753947079181671142578125" lon="-1.6558307223021984100341796875">
        <ele>728</ele>
        <time>2020-02-22T11:39:37.000Z</time>
      </trkpt>
      <trkpt lat="37.95379442162811756134033203125" lon="-1.656124256551265716552734375">
        <ele>729</ele>
        <time>2020-02-22T11:39:43.000Z</time>
      </trkpt>
      <trkpt lat="37.95380263589322566986083984375" lon="-1.656184606254100799560546875">
        <ele>729.20001220703125</ele>
        <time>2020-02-22T11:39:44.000Z</time>
      </trkpt>
      <trkpt lat="37.9538692720234394073486328125" lon="-1.65658651851117610931396484375">
        <ele>730</ele>
        <time>2020-02-22T11:39:50.000Z</time>
      </trkpt>
      <trkpt lat="37.9538914002478122711181640625" lon="-1.65663513354957103729248046875">
        <ele>730.20001220703125</ele>
        <time>2020-02-22T11:39:51.000Z</time>
      </trkpt>
      <trkpt lat="37.954036407172679901123046875" lon="-1.656897403299808502197265625">
        <ele>731.20001220703125</ele>
        <time>2020-02-22T11:39:57.000Z</time>
      </trkpt>
      <trkpt lat="37.954080998897552490234375" lon="-1.6569683142006397247314453125">
        <ele>731.79998779296875</ele>
        <time>2020-02-22T11:39:59.000Z</time>
      </trkpt>
      <trkpt lat="37.95414327643811702728271484375" lon="-1.657074429094791412353515625">
        <ele>732.4000244140625</ele>
        <time>2020-02-22T11:40:02.000Z</time>
      </trkpt>
      <trkpt lat="37.95421469025313854217529296875" lon="-1.6572130657732486724853515625">
        <ele>733.4000244140625</ele>
        <time>2020-02-22T11:40:07.000Z</time>
      </trkpt>
      <trkpt lat="37.95422424562275409698486328125" lon="-1.6572408936917781829833984375">
        <ele>733.5999755859375</ele>
        <time>2020-02-22T11:40:08.000Z</time>
      </trkpt>
      <trkpt lat="37.95424838550388813018798828125" lon="-1.6573126427829265594482421875">
        <ele>735</ele>
        <time>2020-02-22T11:40:11.000Z</time>
      </trkpt>
      <trkpt lat="37.95425458811223506927490234375" lon="-1.65742571465671062469482421875">
        <ele>736</ele>
        <time>2020-02-22T11:40:15.000Z</time>
      </trkpt>
      <trkpt lat="37.954229526221752166748046875" lon="-1.65749855339527130126953125">
        <ele>737.4000244140625</ele>
        <time>2020-02-22T11:40:17.000Z</time>
      </trkpt>
      <trkpt lat="37.95418837107717990875244140625" lon="-1.65755563415586948394775390625">
        <ele>737.79998779296875</ele>
        <time>2020-02-22T11:40:19.000Z</time>
      </trkpt>
      <trkpt lat="37.95412592589855194091796875" lon="-1.6575986333191394805908203125">
        <ele>738.20001220703125</ele>
        <time>2020-02-22T11:40:21.000Z</time>
      </trkpt>
      <trkpt lat="37.9540902189910411834716796875" lon="-1.6576177440583705902099609375">
        <ele>738.4000244140625</ele>
        <time>2020-02-22T11:40:22.000Z</time>
      </trkpt>
      <trkpt lat="37.9539447091519832611083984375" lon="-1.6577111184597015380859375">
        <ele>738.5999755859375</ele>
        <time>2020-02-22T11:40:26.000Z</time>
      </trkpt>
      <trkpt lat="37.95363868586719036102294921875" lon="-1.6579255275428295135498046875">
        <ele>738.5999755859375</ele>
        <time>2020-02-22T11:40:34.000Z</time>
      </trkpt>
      <trkpt lat="37.9534253664314746856689453125" lon="-1.65806877426803112030029296875">
        <ele>738.5999755859375</ele>
        <time>2020-02-22T11:40:39.000Z</time>
      </trkpt>
      <trkpt lat="37.9533465765416622161865234375" lon="-1.6581360809504985809326171875">
        <ele>738.5999755859375</ele>
        <time>2020-02-22T11:40:41.000Z</time>
      </trkpt>
      <trkpt lat="37.95310090295970439910888671875" lon="-1.65837697684764862060546875">
        <ele>739.20001220703125</ele>
        <time>2020-02-22T11:40:47.000Z</time>
      </trkpt>
      <trkpt lat="37.95299026183784008026123046875" lon="-1.65851150639355182647705078125">
        <ele>739.4000244140625</ele>
        <time>2020-02-22T11:40:50.000Z</time>
      </trkpt>
      <trkpt lat="37.95292756520211696624755859375" lon="-1.658679060637950897216796875">
        <ele>739.5999755859375</ele>
        <time>2020-02-22T11:40:53.000Z</time>
      </trkpt>
      <trkpt lat="37.95296587049961090087890625" lon="-1.65895742364227771759033203125">
        <ele>739.5999755859375</ele>
        <time>2020-02-22T11:40:57.000Z</time>
      </trkpt>
      <trkpt lat="37.95312420465052127838134765625" lon="-1.65918993763625621795654296875">
        <ele>739.5999755859375</ele>
        <time>2020-02-22T11:41:01.000Z</time>
      </trkpt>
      <trkpt lat="37.95315722934901714324951171875" lon="-1.65924274362623691558837890625">
        <ele>739.5999755859375</ele>
        <time>2020-02-22T11:41:02.000Z</time>
      </trkpt>
      <trkpt lat="37.9533395357429981231689453125" lon="-1.65933184325695037841796875">
        <ele>739.5999755859375</ele>
        <time>2020-02-22T11:41:05.000Z</time>
      </trkpt>
      <trkpt lat="37.9534096084535121917724609375" lon="-1.65935472585260868072509765625">
        <ele>739.5999755859375</ele>
        <time>2020-02-22T11:41:06.000Z</time>
      </trkpt>
      <trkpt lat="37.9535380192101001739501953125" lon="-1.65941591374576091766357421875">
        <ele>739.4000244140625</ele>
        <time>2020-02-22T11:41:08.000Z</time>
      </trkpt>
      <trkpt lat="37.95369635336101055145263671875" lon="-1.6595827974379062652587890625">
        <ele>739.4000244140625</ele>
        <time>2020-02-22T11:41:11.000Z</time>
      </trkpt>
      <trkpt lat="37.95377799309790134429931640625" lon="-1.65972168557345867156982421875">
        <ele>739.20001220703125</ele>
        <time>2020-02-22T11:41:13.000Z</time>
      </trkpt>
      <trkpt lat="37.95388712547719478607177734375" lon="-1.65996082127094268798828125">
        <ele>738.4000244140625</ele>
        <time>2020-02-22T11:41:16.000Z</time>
      </trkpt>
      <trkpt lat="37.95390891842544078826904296875" lon="-1.66005008853971958160400390625">
        <ele>738.4000244140625</ele>
        <time>2020-02-22T11:41:17.000Z</time>
      </trkpt>
      <trkpt lat="37.95391830615699291229248046875" lon="-1.660145558416843414306640625">
        <ele>738.4000244140625</ele>
        <time>2020-02-22T11:41:18.000Z</time>
      </trkpt>
      <trkpt lat="37.953920401632785797119140625" lon="-1.66023063473403453826904296875">
        <ele>738.20001220703125</ele>
        <time>2020-02-22T11:41:19.000Z</time>
      </trkpt>
      <trkpt lat="37.95387187041342258453369140625" lon="-1.6605292819440364837646484375">
        <ele>737.4000244140625</ele>
        <time>2020-02-22T11:41:22.000Z</time>
      </trkpt>
      <trkpt lat="37.9538436233997344970703125" lon="-1.66064453311264514923095703125">
        <ele>737.20001220703125</ele>
        <time>2020-02-22T11:41:23.000Z</time>
      </trkpt>
      <trkpt lat="37.95373373664915561676025390625" lon="-1.66120930574834346771240234375">
        <ele>737</ele>
        <time>2020-02-22T11:41:29.000Z</time>
      </trkpt>
      <trkpt lat="37.95375267975032329559326171875" lon="-1.66161063127219676971435546875">
        <ele>737.4000244140625</ele>
        <time>2020-02-22T11:41:34.000Z</time>
      </trkpt>
      <trkpt lat="37.95384337194263935089111328125" lon="-1.66210248135030269622802734375">
        <ele>738.4000244140625</ele>
        <time>2020-02-22T11:41:41.000Z</time>
      </trkpt>
      <trkpt lat="37.9539128579199314117431640625" lon="-1.6624306328594684600830078125">
        <ele>739.4000244140625</ele>
        <time>2020-02-22T11:41:46.000Z</time>
      </trkpt>
      <trkpt lat="37.95396591536700725555419921875" lon="-1.66261025704443454742431640625">
        <ele>740</ele>
        <time>2020-02-22T11:41:49.000Z</time>
      </trkpt>
      <trkpt lat="37.95403012074530124664306640625" lon="-1.66278610937297344207763671875">
        <ele>740.4000244140625</ele>
        <time>2020-02-22T11:41:52.000Z</time>
      </trkpt>
      <trkpt lat="37.9541681706905364990234375" lon="-1.663087271153926849365234375">
        <ele>741.5999755859375</ele>
        <time>2020-02-22T11:41:58.000Z</time>
      </trkpt>
      <trkpt lat="37.95432172715663909912109375" lon="-1.663388349115848541259765625">
        <ele>742.79998779296875</ele>
        <time>2020-02-22T11:42:04.000Z</time>
      </trkpt>
      <trkpt lat="37.954344861209392547607421875" lon="-1.6634388081729412078857421875">
        <ele>743.20001220703125</ele>
        <time>2020-02-22T11:42:05.000Z</time>
      </trkpt>
      <trkpt lat="37.95442490838468074798583984375" lon="-1.6635742597281932830810546875">
        <ele>743.79998779296875</ele>
        <time>2020-02-22T11:42:08.000Z</time>
      </trkpt>
      <trkpt lat="37.95447821728885173797607421875" lon="-1.66367040015757083892822265625">
        <ele>744</ele>
        <time>2020-02-22T11:42:10.000Z</time>
      </trkpt>
      <trkpt lat="37.9545012675225734710693359375" lon="-1.66372220031917095184326171875">
        <ele>744</ele>
        <time>2020-02-22T11:42:11.000Z</time>
      </trkpt>
      <trkpt lat="37.95459992252290248870849609375" lon="-1.6639070212841033935546875">
        <ele>745</ele>
        <time>2020-02-22T11:42:15.000Z</time>
      </trkpt>
      <trkpt lat="37.95471123419702053070068359375" lon="-1.66408605873584747314453125">
        <ele>745.79998779296875</ele>
        <time>2020-02-22T11:42:19.000Z</time>
      </trkpt>
      <trkpt lat="37.95476739294826984405517578125" lon="-1.66417591273784637451171875">
        <ele>746.20001220703125</ele>
        <time>2020-02-22T11:42:21.000Z</time>
      </trkpt>
      <trkpt lat="37.9549146629869937896728515625" lon="-1.6643869690597057342529296875">
        <ele>747.20001220703125</ele>
        <time>2020-02-22T11:42:26.000Z</time>
      </trkpt>
      <trkpt lat="37.95494525693356990814208984375" lon="-1.66443097405135631561279296875">
        <ele>747.5999755859375</ele>
        <time>2020-02-22T11:42:27.000Z</time>
      </trkpt>
      <trkpt lat="37.9550410620868206024169921875" lon="-1.6645485721528530120849609375">
        <ele>748.4000244140625</ele>
        <time>2020-02-22T11:42:30.000Z</time>
      </trkpt>
      <trkpt lat="37.955189757049083709716796875" lon="-1.664671115577220916748046875">
        <ele>749.4000244140625</ele>
        <time>2020-02-22T11:42:34.000Z</time>
      </trkpt>
      <trkpt lat="37.9552318342030048370361328125" lon="-1.66469684801995754241943359375">
        <ele>749.5999755859375</ele>
        <time>2020-02-22T11:42:35.000Z</time>
      </trkpt>
      <trkpt lat="37.95534809119999408721923828125" lon="-1.664775721728801727294921875">
        <ele>750</ele>
        <time>2020-02-22T11:42:38.000Z</time>
      </trkpt>
      <trkpt lat="37.95541045255959033966064453125" lon="-1.66484554298222064971923828125">
        <ele>750.5999755859375</ele>
        <time>2020-02-22T11:42:40.000Z</time>
      </trkpt>
      <trkpt lat="37.95550148002803325653076171875" lon="-1.66508610360324382781982421875">
        <ele>751.4000244140625</ele>
        <time>2020-02-22T11:42:44.000Z</time>
      </trkpt>
      <trkpt lat="37.9555275477468967437744140625" lon="-1.66528609581291675567626953125">
        <ele>751.5999755859375</ele>
        <time>2020-02-22T11:42:47.000Z</time>
      </trkpt>
      <trkpt lat="37.955533079802989959716796875" lon="-1.6654085554182529449462890625">
        <ele>751.5999755859375</ele>
        <time>2020-02-22T11:42:49.000Z</time>
      </trkpt>
      <trkpt lat="37.95553718693554401397705078125" lon="-1.66546563617885112762451171875">
        <ele>751.79998779296875</ele>
        <time>2020-02-22T11:42:50.000Z</time>
      </trkpt>
      <trkpt lat="37.9555521905422210693359375" lon="-1.66574425064027309417724609375">
        <ele>752</ele>
        <time>2020-02-22T11:42:55.000Z</time>
      </trkpt>
      <trkpt lat="37.95557356439530849456787109375" lon="-1.66589118540287017822265625">
        <ele>752.5999755859375</ele>
        <time>2020-02-22T11:42:58.000Z</time>
      </trkpt>
      <trkpt lat="37.95558010227978229522705078125" lon="-1.666008532047271728515625">
        <ele>752.79998779296875</ele>
        <time>2020-02-22T11:43:00.000Z</time>
      </trkpt>
      <trkpt lat="37.95558798126876354217529296875" lon="-1.66626225225627422332763671875">
        <ele>753</ele>
        <time>2020-02-22T11:43:04.000Z</time>
      </trkpt>
      <trkpt lat="37.9555449821054935455322265625" lon="-1.66645905934274196624755859375">
        <ele>753.4000244140625</ele>
        <time>2020-02-22T11:43:07.000Z</time>
      </trkpt>
      <trkpt lat="37.9554806090891361236572265625" lon="-1.6665893979370594024658203125">
        <ele>753.5999755859375</ele>
        <time>2020-02-22T11:43:09.000Z</time>
      </trkpt>
      <trkpt lat="37.95535437762737274169921875" lon="-1.6667168028652667999267578125">
        <ele>754</ele>
        <time>2020-02-22T11:43:12.000Z</time>
      </trkpt>
      <trkpt lat="37.9553039185702800750732421875" lon="-1.666751168668270111083984375">
        <ele>754.20001220703125</ele>
        <time>2020-02-22T11:43:13.000Z</time>
      </trkpt>
      <trkpt lat="37.95495850034058094024658203125" lon="-1.66692174039781093597412109375">
        <ele>754.4000244140625</ele>
        <time>2020-02-22T11:43:20.000Z</time>
      </trkpt>
      <trkpt lat="37.9549072869122028350830078125" lon="-1.6669431142508983612060546875">
        <ele>754.4000244140625</ele>
        <time>2020-02-22T11:43:21.000Z</time>
      </trkpt>
      <trkpt lat="37.9547674767673015594482421875" lon="-1.66696566157042980194091796875">
        <ele>754.5999755859375</ele>
        <time>2020-02-22T11:43:24.000Z</time>
      </trkpt>
      <trkpt lat="37.9546383954584598541259765625" lon="-1.66691176593303680419921875">
        <ele>754.5999755859375</ele>
        <time>2020-02-22T11:43:28.000Z</time>
      </trkpt>
      <trkpt lat="37.95460947789251804351806640625" lon="-1.66689164936542510986328125">
        <ele>754.5999755859375</ele>
        <time>2020-02-22T11:43:29.000Z</time>
      </trkpt>
      <trkpt lat="37.95454979874193668365478515625" lon="-1.6668520867824554443359375">
        <ele>754.79998779296875</ele>
        <time>2020-02-22T11:43:31.000Z</time>
      </trkpt>
      <trkpt lat="37.95440278016030788421630859375" lon="-1.66673046536743640899658203125">
        <ele>756</ele>
        <time>2020-02-22T11:43:35.000Z</time>
      </trkpt>
      <trkpt lat="37.95436372049152851104736328125" lon="-1.66670129634439945220947265625">
        <ele>756.20001220703125</ele>
        <time>2020-02-22T11:43:36.000Z</time>
      </trkpt>
      <trkpt lat="37.95414847321808338165283203125" lon="-1.6665370948612689971923828125">
        <ele>757.4000244140625</ele>
        <time>2020-02-22T11:43:42.000Z</time>
      </trkpt>
      <trkpt lat="37.95411343686282634735107421875" lon="-1.66651253588497638702392578125">
        <ele>757.4000244140625</ele>
        <time>2020-02-22T11:43:43.000Z</time>
      </trkpt>
      <trkpt lat="37.95399256981909275054931640625" lon="-1.66641966439783573150634765625">
        <ele>758.20001220703125</ele>
        <time>2020-02-22T11:43:47.000Z</time>
      </trkpt>
      <trkpt lat="37.95390774495899677276611328125" lon="-1.66634975932538509368896484375">
        <ele>759.20001220703125</ele>
        <time>2020-02-22T11:43:50.000Z</time>
      </trkpt>
      <trkpt lat="37.95387354679405689239501953125" lon="-1.6663225181400775909423828125">
        <ele>759.4000244140625</ele>
        <time>2020-02-22T11:43:51.000Z</time>
      </trkpt>
      <trkpt lat="37.95371286571025848388671875" lon="-1.66618195362389087677001953125">
        <ele>760.5999755859375</ele>
        <time>2020-02-22T11:43:56.000Z</time>
      </trkpt>
      <trkpt lat="37.9536781646311283111572265625" lon="-1.66615295223891735076904296875">
        <ele>761</ele>
        <time>2020-02-22T11:43:57.000Z</time>
      </trkpt>
      <trkpt lat="37.95350004918873310089111328125" lon="-1.6660137288272380828857421875">
        <ele>761.79998779296875</ele>
        <time>2020-02-22T11:44:02.000Z</time>
      </trkpt>
      <trkpt lat="37.95342385768890380859375" lon="-1.6659637726843357086181640625">
        <ele>762.4000244140625</ele>
        <time>2020-02-22T11:44:04.000Z</time>
      </trkpt>
      <trkpt lat="37.953233756124973297119140625" lon="-1.66587668471038341522216796875">
        <ele>763.20001220703125</ele>
        <time>2020-02-22T11:44:09.000Z</time>
      </trkpt>
      <trkpt lat="37.9531340114772319793701171875" lon="-1.66583343409001827239990234375">
        <ele>764.4000244140625</ele>
        <time>2020-02-22T11:44:12.000Z</time>
      </trkpt>
      <trkpt lat="37.95297182165086269378662109375" lon="-1.6657585836946964263916015625">
        <ele>765.5999755859375</ele>
        <time>2020-02-22T11:44:17.000Z</time>
      </trkpt>
      <trkpt lat="37.95287693850696086883544921875" lon="-1.66571910493075847625732421875">
        <ele>766.20001220703125</ele>
        <time>2020-02-22T11:44:20.000Z</time>
      </trkpt>
      <trkpt lat="37.952803932130336761474609375" lon="-1.6656854934990406036376953125">
        <ele>766.5999755859375</ele>
        <time>2020-02-22T11:44:22.000Z</time>
      </trkpt>
      <trkpt lat="37.952620871365070343017578125" lon="-1.66560930199921131134033203125">
        <ele>767.79998779296875</ele>
        <time>2020-02-22T11:44:27.000Z</time>
      </trkpt>
      <trkpt lat="37.9524342902004718780517578125" lon="-1.6655295901000499725341796875">
        <ele>768.79998779296875</ele>
        <time>2020-02-22T11:44:32.000Z</time>
      </trkpt>
      <trkpt lat="37.952371425926685333251953125" lon="-1.66550469584763050079345703125">
        <ele>769.20001220703125</ele>
        <time>2020-02-22T11:44:34.000Z</time>
      </trkpt>
      <trkpt lat="37.95226975344121456146240234375" lon="-1.66546027176082134246826171875">
        <ele>770</ele>
        <time>2020-02-22T11:44:37.000Z</time>
      </trkpt>
      <trkpt lat="37.9521538317203521728515625" lon="-1.66542020626366138458251953125">
        <ele>770.79998779296875</ele>
        <time>2020-02-22T11:44:40.000Z</time>
      </trkpt>
      <trkpt lat="37.95211770571768283843994140625" lon="-1.66540729813277721405029296875">
        <ele>771</ele>
        <time>2020-02-22T11:44:41.000Z</time>
      </trkpt>
      <trkpt lat="37.951957695186138153076171875" lon="-1.6653178632259368896484375">
        <ele>771.79998779296875</ele>
        <time>2020-02-22T11:44:46.000Z</time>
      </trkpt>
      <trkpt lat="37.95192475430667400360107421875" lon="-1.665292717516422271728515625">
        <ele>772.20001220703125</ele>
        <time>2020-02-22T11:44:47.000Z</time>
      </trkpt>
      <trkpt lat="37.9517945833504199981689453125" lon="-1.66512516327202320098876953125">
        <ele>773.4000244140625</ele>
        <time>2020-02-22T11:44:52.000Z</time>
      </trkpt>
      <trkpt lat="37.95170296914875507354736328125" lon="-1.6649562679231166839599609375">
        <ele>774.5999755859375</ele>
        <time>2020-02-22T11:44:56.000Z</time>
      </trkpt>
      <trkpt lat="37.95162602327764034271240234375" lon="-1.664834730327129364013671875">
        <ele>775.4000244140625</ele>
        <time>2020-02-22T11:44:59.000Z</time>
      </trkpt>
      <trkpt lat="37.95158277265727519989013671875" lon="-1.6647551022469997406005859375">
        <ele>775.79998779296875</ele>
        <time>2020-02-22T11:45:01.000Z</time>
      </trkpt>
      <trkpt lat="37.9514821060001850128173828125" lon="-1.66450046002864837646484375">
        <ele>776.79998779296875</ele>
        <time>2020-02-22T11:45:07.000Z</time>
      </trkpt>
      <trkpt lat="37.95145000331103801727294921875" lon="-1.66435562074184417724609375">
        <ele>777.79998779296875</ele>
        <time>2020-02-22T11:45:10.000Z</time>
      </trkpt>
      <trkpt lat="37.95136970467865467071533203125" lon="-1.66421354748308658599853515625">
        <ele>778.5999755859375</ele>
        <time>2020-02-22T11:45:14.000Z</time>
      </trkpt>
      <trkpt lat="37.9513349197804927825927734375" lon="-1.6641388647258281707763671875">
        <ele>779</ele>
        <time>2020-02-22T11:45:16.000Z</time>
      </trkpt>
      <trkpt lat="37.95121371746063232421875" lon="-1.6639534570276737213134765625">
        <ele>780</ele>
        <time>2020-02-22T11:45:21.000Z</time>
      </trkpt>
      <trkpt lat="37.951098382472991943359375" lon="-1.66381515562534332275390625">
        <ele>781.20001220703125</ele>
        <time>2020-02-22T11:45:26.000Z</time>
      </trkpt>
      <trkpt lat="37.95107097364962100982666015625" lon="-1.6637908481061458587646484375">
        <ele>781.4000244140625</ele>
        <time>2020-02-22T11:45:27.000Z</time>
      </trkpt>
      <trkpt lat="37.9509805329144001007080078125" lon="-1.663665287196636199951171875">
        <ele>782.4000244140625</ele>
        <time>2020-02-22T11:45:31.000Z</time>
      </trkpt>
      <trkpt lat="37.950874753296375274658203125" lon="-1.66355271823704242706298828125">
        <ele>783.5999755859375</ele>
        <time>2020-02-22T11:45:35.000Z</time>
      </trkpt>
      <trkpt lat="37.95080241747200489044189453125" lon="-1.66342833079397678375244140625">
        <ele>784.5999755859375</ele>
        <time>2020-02-22T11:45:38.000Z</time>
      </trkpt>
      <trkpt lat="37.95071256347000598907470703125" lon="-1.66325750760734081268310546875">
        <ele>785.20001220703125</ele>
        <time>2020-02-22T11:45:42.000Z</time>
      </trkpt>
      <trkpt lat="37.95067082159221172332763671875" lon="-1.66314326226711273193359375">
        <ele>785.5999755859375</ele>
        <time>2020-02-22T11:45:45.000Z</time>
      </trkpt>
      <trkpt lat="37.95063612051308155059814453125" lon="-1.66300244629383087158203125">
        <ele>786.20001220703125</ele>
        <time>2020-02-22T11:45:48.000Z</time>
      </trkpt>
      <trkpt lat="37.9505862481892108917236328125" lon="-1.66278258897364139556884765625">
        <ele>786.79998779296875</ele>
        <time>2020-02-22T11:45:53.000Z</time>
      </trkpt>
      <trkpt lat="37.95057065784931182861328125" lon="-1.662697680294513702392578125">
        <ele>787</ele>
        <time>2020-02-22T11:45:55.000Z</time>
      </trkpt>
      <trkpt lat="37.9505007527768611907958984375" lon="-1.66251738555729389190673828125">
        <ele>787.79998779296875</ele>
        <time>2020-02-22T11:45:59.000Z</time>
      </trkpt>
      <trkpt lat="37.9504762776196002960205078125" lon="-1.66247405111789703369140625">
        <ele>787.79998779296875</ele>
        <time>2020-02-22T11:46:00.000Z</time>
      </trkpt>
      <trkpt lat="37.950341999530792236328125" lon="-1.66224430315196514129638671875">
        <ele>788.79998779296875</ele>
        <time>2020-02-22T11:46:06.000Z</time>
      </trkpt>
      <trkpt lat="37.950317524373531341552734375" lon="-1.66221119463443756103515625">
        <ele>789</ele>
        <time>2020-02-22T11:46:07.000Z</time>
      </trkpt>
      <trkpt lat="37.9501550830900669097900390625" lon="-1.66209443472325801849365234375">
        <ele>790.20001220703125</ele>
        <time>2020-02-22T11:46:12.000Z</time>
      </trkpt>
      <trkpt lat="37.9499606229364871978759765625" lon="-1.662078760564327239990234375">
        <ele>790.4000244140625</ele>
        <time>2020-02-22T11:46:17.000Z</time>
      </trkpt>
      <trkpt lat="37.9497758857905864715576171875" lon="-1.6620973683893680572509765625">
        <ele>791.20001220703125</ele>
        <time>2020-02-22T11:46:22.000Z</time>
      </trkpt>
      <trkpt lat="37.94971243478357791900634765625" lon="-1.66212997399270534515380859375">
        <ele>791.5999755859375</ele>
        <time>2020-02-22T11:46:24.000Z</time>
      </trkpt>
      <trkpt lat="37.94958067126572132110595703125" lon="-1.662165932357311248779296875">
        <ele>792.20001220703125</ele>
        <time>2020-02-22T11:46:27.000Z</time>
      </trkpt>
      <trkpt lat="37.9495126940310001373291015625" lon="-1.6621966101229190826416015625">
        <ele>792.5999755859375</ele>
        <time>2020-02-22T11:46:29.000Z</time>
      </trkpt>
      <trkpt lat="37.94931781478226184844970703125" lon="-1.66232828982174396514892578125">
        <ele>793.4000244140625</ele>
        <time>2020-02-22T11:46:34.000Z</time>
      </trkpt>
      <trkpt lat="37.949106507003307342529296875" lon="-1.66258762590587139129638671875">
        <ele>794</ele>
        <time>2020-02-22T11:46:40.000Z</time>
      </trkpt>
      <trkpt lat="37.9490325786173343658447265625" lon="-1.66266138665378093719482421875">
        <ele>794.5999755859375</ele>
        <time>2020-02-22T11:46:42.000Z</time>
      </trkpt>
      <trkpt lat="37.94895839877426624298095703125" lon="-1.66273699142038822174072265625">
        <ele>795.20001220703125</ele>
        <time>2020-02-22T11:46:44.000Z</time>
      </trkpt>
      <trkpt lat="37.9488377831876277923583984375" lon="-1.662829108536243438720703125">
        <ele>795.79998779296875</ele>
        <time>2020-02-22T11:46:47.000Z</time>
      </trkpt>
      <trkpt lat="37.94870744459331035614013671875" lon="-1.662891805171966552734375">
        <ele>796.20001220703125</ele>
        <time>2020-02-22T11:46:50.000Z</time>
      </trkpt>
      <trkpt lat="37.9485638625919818878173828125" lon="-1.6629248298704624176025390625">
        <ele>796.4000244140625</ele>
        <time>2020-02-22T11:46:53.000Z</time>
      </trkpt>
      <trkpt lat="37.948473505675792694091796875" lon="-1.66294519789516925811767578125">
        <ele>796.79998779296875</ele>
        <time>2020-02-22T11:46:55.000Z</time>
      </trkpt>
      <trkpt lat="37.94831492006778717041015625" lon="-1.6629908792674541473388671875">
        <ele>797.4000244140625</ele>
        <time>2020-02-22T11:46:59.000Z</time>
      </trkpt>
      <trkpt lat="37.9481088928878307342529296875" lon="-1.6630166955292224884033203125">
        <ele>797.79998779296875</ele>
        <time>2020-02-22T11:47:04.000Z</time>
      </trkpt>
      <trkpt lat="37.94803186319768428802490234375" lon="-1.66301946155726909637451171875">
        <ele>798.20001220703125</ele>
        <time>2020-02-22T11:47:06.000Z</time>
      </trkpt>
      <trkpt lat="37.94792189262807369232177734375" lon="-1.663031615316867828369140625">
        <ele>798.79998779296875</ele>
        <time>2020-02-22T11:47:09.000Z</time>
      </trkpt>
      <trkpt lat="37.9477907158434391021728515625" lon="-1.66305718012154102325439453125">
        <ele>799.5999755859375</ele>
        <time>2020-02-22T11:47:13.000Z</time>
      </trkpt>
      <trkpt lat="37.94776397757232189178466796875" lon="-1.66306681931018829345703125">
        <ele>799.79998779296875</ele>
        <time>2020-02-22T11:47:14.000Z</time>
      </trkpt>
      <trkpt lat="37.94759868644177913665771484375" lon="-1.66312088258564472198486328125">
        <ele>800.79998779296875</ele>
        <time>2020-02-22T11:47:19.000Z</time>
      </trkpt>
      <trkpt lat="37.9475546814501285552978515625" lon="-1.6631259955465793609619140625">
        <ele>800.79998779296875</ele>
        <time>2020-02-22T11:47:20.000Z</time>
      </trkpt>
      <trkpt lat="37.94730749912559986114501953125" lon="-1.663184501230716705322265625">
        <ele>802</ele>
        <time>2020-02-22T11:47:26.000Z</time>
      </trkpt>
      <trkpt lat="37.94705168344080448150634765625" lon="-1.66323940269649028778076171875">
        <ele>803</ele>
        <time>2020-02-22T11:47:33.000Z</time>
      </trkpt>
      <trkpt lat="37.94698412530124187469482421875" lon="-1.66324476711452007293701171875">
        <ele>803.5999755859375</ele>
        <time>2020-02-22T11:47:35.000Z</time>
      </trkpt>
      <trkpt lat="37.94691891409456729888916015625" lon="-1.6632466949522495269775390625">
        <ele>804</ele>
        <time>2020-02-22T11:47:37.000Z</time>
      </trkpt>
      <trkpt lat="37.94683626852929592132568359375" lon="-1.66325348429381847381591796875">
        <ele>805</ele>
        <time>2020-02-22T11:47:40.000Z</time>
      </trkpt>
      <trkpt lat="37.94680391438305377960205078125" lon="-1.6632591001689434051513671875">
        <ele>805.20001220703125</ele>
        <time>2020-02-22T11:47:41.000Z</time>
      </trkpt>
      <trkpt lat="37.94664851389825344085693359375" lon="-1.6632715053856372833251953125">
        <ele>805.79998779296875</ele>
        <time>2020-02-22T11:47:46.000Z</time>
      </trkpt>
      <trkpt lat="37.94655446894466876983642578125" lon="-1.66325851343572139739990234375">
        <ele>806.4000244140625</ele>
        <time>2020-02-22T11:47:48.000Z</time>
      </trkpt>
      <trkpt lat="37.946431003510951995849609375" lon="-1.6632396541535854339599609375">
        <ele>807</ele>
        <time>2020-02-22T11:47:51.000Z</time>
      </trkpt>
      <trkpt lat="37.94639890082180500030517578125" lon="-1.66324208490550518035888671875">
        <ele>807.4000244140625</ele>
        <time>2020-02-22T11:47:52.000Z</time>
      </trkpt>
      <trkpt lat="37.9462055303156375885009765625" lon="-1.66321626864373683929443359375">
        <ele>808.4000244140625</ele>
        <time>2020-02-22T11:47:57.000Z</time>
      </trkpt>
      <trkpt lat="37.94616906903684139251708984375" lon="-1.6632175259292125701904296875">
        <ele>808.5999755859375</ele>
        <time>2020-02-22T11:47:58.000Z</time>
      </trkpt>
      <trkpt lat="37.9459512233734130859375" lon="-1.66321299970149993896484375">
        <ele>809.5999755859375</ele>
        <time>2020-02-22T11:48:04.000Z</time>
      </trkpt>
      <trkpt lat="37.94592331163585186004638671875" lon="-1.66321777738630771636962890625">
        <ele>809.79998779296875</ele>
        <time>2020-02-22T11:48:05.000Z</time>
      </trkpt>
      <trkpt lat="37.9457488842308521270751953125" lon="-1.6632497124373912811279296875">
        <ele>810.79998779296875</ele>
        <time>2020-02-22T11:48:11.000Z</time>
      </trkpt>
      <trkpt lat="37.94571476988494396209716796875" lon="-1.66325666941702365875244140625">
        <ele>810.79998779296875</ele>
        <time>2020-02-22T11:48:12.000Z</time>
      </trkpt>
      <trkpt lat="37.9455091618001461029052734375" lon="-1.66336898691952228546142578125">
        <ele>811.79998779296875</ele>
        <time>2020-02-22T11:48:18.000Z</time>
      </trkpt>
      <trkpt lat="37.945377565920352935791015625" lon="-1.66347996331751346588134765625">
        <ele>812.5999755859375</ele>
        <time>2020-02-22T11:48:22.000Z</time>
      </trkpt>
      <trkpt lat="37.9453036375343799591064453125" lon="-1.66356344707310199737548828125">
        <ele>813.4000244140625</ele>
        <time>2020-02-22T11:48:25.000Z</time>
      </trkpt>
      <trkpt lat="37.94528025202453136444091796875" lon="-1.6635933704674243927001953125">
        <ele>813.79998779296875</ele>
        <time>2020-02-22T11:48:26.000Z</time>
      </trkpt>
      <trkpt lat="37.94512870721518993377685546875" lon="-1.66380174458026885986328125">
        <ele>814.79998779296875</ele>
        <time>2020-02-22T11:48:32.000Z</time>
      </trkpt>
      <trkpt lat="37.94510205276310443878173828125" lon="-1.663838289678096771240234375">
        <ele>815.20001220703125</ele>
        <time>2020-02-22T11:48:33.000Z</time>
      </trkpt>
      <trkpt lat="37.9450209997594356536865234375" lon="-1.6639407165348529815673828125">
        <ele>816</ele>
        <time>2020-02-22T11:48:36.000Z</time>
      </trkpt>
      <trkpt lat="37.944898791611194610595703125" lon="-1.66405194438993930816650390625">
        <ele>817</ele>
        <time>2020-02-22T11:48:40.000Z</time>
      </trkpt>
      <trkpt lat="37.94486585073173046112060546875" lon="-1.6640754975378513336181640625">
        <ele>817.20001220703125</ele>
        <time>2020-02-22T11:48:41.000Z</time>
      </trkpt>
      <trkpt lat="37.9446736536920070648193359375" lon="-1.6641904972493648529052734375">
        <ele>818</ele>
        <time>2020-02-22T11:48:47.000Z</time>
      </trkpt>
      <trkpt lat="37.9446086101233959197998046875" lon="-1.66422561742365360260009765625">
        <ele>818.4000244140625</ele>
        <time>2020-02-22T11:48:49.000Z</time>
      </trkpt>
      <trkpt lat="37.94440937228500843048095703125" lon="-1.66433223523199558258056640625">
        <ele>819.20001220703125</ele>
        <time>2020-02-22T11:48:55.000Z</time>
      </trkpt>
      <trkpt lat="37.944308035075664520263671875" lon="-1.6643772460520267486572265625">
        <ele>819.79998779296875</ele>
        <time>2020-02-22T11:48:58.000Z</time>
      </trkpt>
      <trkpt lat="37.9442413151264190673828125" lon="-1.6644101031124591827392578125">
        <ele>820.20001220703125</ele>
        <time>2020-02-22T11:49:00.000Z</time>
      </trkpt>
      <trkpt lat="37.94413872063159942626953125" lon="-1.66444958187639713287353515625">
        <ele>821.4000244140625</ele>
        <time>2020-02-22T11:49:03.000Z</time>
      </trkpt>
      <trkpt lat="37.9440696537494659423828125" lon="-1.6644890606403350830078125">
        <ele>822</ele>
        <time>2020-02-22T11:49:05.000Z</time>
      </trkpt>
      <trkpt lat="37.944035120308399200439453125" lon="-1.6645110212266445159912109375">
        <ele>822.4000244140625</ele>
        <time>2020-02-22T11:49:06.000Z</time>
      </trkpt>
      <trkpt lat="37.94391073286533355712890625" lon="-1.66461453773081302642822265625">
        <ele>823.4000244140625</ele>
        <time>2020-02-22T11:49:10.000Z</time>
      </trkpt>
      <trkpt lat="37.94387695379555225372314453125" lon="-1.664648316800594329833984375">
        <ele>823.5999755859375</ele>
        <time>2020-02-22T11:49:11.000Z</time>
      </trkpt>
      <trkpt lat="37.943782322108745574951171875" lon="-1.66480028070509433746337890625">
        <ele>824.5999755859375</ele>
        <time>2020-02-22T11:49:15.000Z</time>
      </trkpt>
      <trkpt lat="37.943765558302402496337890625" lon="-1.66488108225166797637939453125">
        <ele>825.20001220703125</ele>
        <time>2020-02-22T11:49:17.000Z</time>
      </trkpt>
      <trkpt lat="37.94375709258019924163818359375" lon="-1.66500781662762165069580078125">
        <ele>825.5999755859375</ele>
        <time>2020-02-22T11:49:20.000Z</time>
      </trkpt>
      <trkpt lat="37.94374569319188594818115234375" lon="-1.665141843259334564208984375">
        <ele>826.4000244140625</ele>
        <time>2020-02-22T11:49:23.000Z</time>
      </trkpt>
      <trkpt lat="37.94374099932610988616943359375" lon="-1.6652275063097476959228515625">
        <ele>827</ele>
        <time>2020-02-22T11:49:25.000Z</time>
      </trkpt>
      <trkpt lat="37.94371702708303928375244140625" lon="-1.66554543189704418182373046875">
        <ele>828.4000244140625</ele>
        <time>2020-02-22T11:49:32.000Z</time>
      </trkpt>
      <trkpt lat="37.94370311312377452850341796875" lon="-1.665761768817901611328125">
        <ele>829.4000244140625</ele>
        <time>2020-02-22T11:49:37.000Z</time>
      </trkpt>
      <trkpt lat="37.94369691051542758941650390625" lon="-1.66598095558583736419677734375">
        <ele>830.4000244140625</ele>
        <time>2020-02-22T11:49:42.000Z</time>
      </trkpt>
      <trkpt lat="37.9436956532299518585205078125" lon="-1.6660257987678050994873046875">
        <ele>830.5999755859375</ele>
        <time>2020-02-22T11:49:43.000Z</time>
      </trkpt>
      <trkpt lat="37.9436812363564968109130859375" lon="-1.6662812791764736175537109375">
        <ele>831.79998779296875</ele>
        <time>2020-02-22T11:49:49.000Z</time>
      </trkpt>
      <trkpt lat="37.94367813505232334136962890625" lon="-1.66636417619884014129638671875">
        <ele>832</ele>
        <time>2020-02-22T11:49:51.000Z</time>
      </trkpt>
      <trkpt lat="37.94366707094013690948486328125" lon="-1.666544973850250244140625">
        <ele>832.79998779296875</ele>
        <time>2020-02-22T11:49:55.000Z</time>
      </trkpt>
      <trkpt lat="37.94366531074047088623046875" lon="-1.6666671819984912872314453125">
        <ele>833.4000244140625</ele>
        <time>2020-02-22T11:49:58.000Z</time>
      </trkpt>
      <trkpt lat="37.94366070069372653961181640625" lon="-1.6667845286428928375244140625">
        <ele>834</ele>
        <time>2020-02-22T11:50:01.000Z</time>
      </trkpt>
      <trkpt lat="37.94365198351442813873291015625" lon="-1.66694990359246730804443359375">
        <ele>835.20001220703125</ele>
        <time>2020-02-22T11:50:05.000Z</time>
      </trkpt>
      <trkpt lat="37.9436393268406391143798828125" lon="-1.667210496962070465087890625">
        <ele>836.4000244140625</ele>
        <time>2020-02-22T11:50:11.000Z</time>
      </trkpt>
      <trkpt lat="37.9436296038329601287841796875" lon="-1.6672968305647373199462890625">
        <ele>837</ele>
        <time>2020-02-22T11:50:13.000Z</time>
      </trkpt>
      <trkpt lat="37.94360630214214324951171875" lon="-1.66738341562449932098388671875">
        <ele>837.5999755859375</ele>
        <time>2020-02-22T11:50:15.000Z</time>
      </trkpt>
      <trkpt lat="37.94353120028972625732421875" lon="-1.66753579862415790557861328125">
        <ele>838.4000244140625</ele>
        <time>2020-02-22T11:50:19.000Z</time>
      </trkpt>
      <trkpt lat="37.9434817470610141754150390625" lon="-1.66760268621146678924560546875">
        <ele>838.79998779296875</ele>
        <time>2020-02-22T11:50:21.000Z</time>
      </trkpt>
      <trkpt lat="37.9433583654463291168212890625" lon="-1.66768616996705532073974609375">
        <ele>839.4000244140625</ele>
        <time>2020-02-22T11:50:25.000Z</time>
      </trkpt>
      <trkpt lat="37.9432534240186214447021484375" lon="-1.667711399495601654052734375">
        <ele>839.5999755859375</ele>
        <time>2020-02-22T11:50:28.000Z</time>
      </trkpt>
      <trkpt lat="37.94311956502497196197509765625" lon="-1.667745597660541534423828125">
        <ele>840.79998779296875</ele>
        <time>2020-02-22T11:50:32.000Z</time>
      </trkpt>
      <trkpt lat="37.94308871962130069732666015625" lon="-1.66775339283049106597900390625">
        <ele>841</ele>
        <time>2020-02-22T11:50:33.000Z</time>
      </trkpt>
      <trkpt lat="37.9429781623184680938720703125" lon="-1.6677615232765674591064453125">
        <ele>842</ele>
        <time>2020-02-22T11:50:36.000Z</time>
      </trkpt>
      <trkpt lat="37.94281781651079654693603515625" lon="-1.6677688993513584136962890625">
        <ele>843.20001220703125</ele>
        <time>2020-02-22T11:50:40.000Z</time>
      </trkpt>
      <trkpt lat="37.94261883012950420379638671875" lon="-1.667761020362377166748046875">
        <ele>844.4000244140625</ele>
        <time>2020-02-22T11:50:46.000Z</time>
      </trkpt>
      <trkpt lat="37.94258832000195980072021484375" lon="-1.66774417273700237274169921875">
        <ele>844.5999755859375</ele>
        <time>2020-02-22T11:50:47.000Z</time>
      </trkpt>
      <trkpt lat="37.94245521537959575653076171875" lon="-1.66757117025554180145263671875">
        <ele>845.20001220703125</ele>
        <time>2020-02-22T11:50:52.000Z</time>
      </trkpt>
      <trkpt lat="37.94243576936423778533935546875" lon="-1.66753110475838184356689453125">
        <ele>845.4000244140625</ele>
        <time>2020-02-22T11:50:53.000Z</time>
      </trkpt>
      <trkpt lat="37.942367456853389739990234375" lon="-1.6672720201313495635986328125">
        <ele>846.20001220703125</ele>
        <time>2020-02-22T11:50:59.000Z</time>
      </trkpt>
      <trkpt lat="37.9422905109822750091552734375" lon="-1.6669110953807830810546875">
        <ele>847.4000244140625</ele>
        <time>2020-02-22T11:51:07.000Z</time>
      </trkpt>
      <trkpt lat="37.94220023788511753082275390625" lon="-1.6666561178863048553466796875">
        <ele>848.5999755859375</ele>
        <time>2020-02-22T11:51:13.000Z</time>
      </trkpt>
      <trkpt lat="37.94217978604137897491455078125" lon="-1.666617058217525482177734375">
        <ele>848.79998779296875</ele>
        <time>2020-02-22T11:51:14.000Z</time>
      </trkpt>
      <trkpt lat="37.9420719109475612640380859375" lon="-1.66650532744824886322021484375">
        <ele>849.5999755859375</ele>
        <time>2020-02-22T11:51:18.000Z</time>
      </trkpt>
      <trkpt lat="37.94201198033988475799560546875" lon="-1.6664846241474151611328125">
        <ele>850</ele>
        <time>2020-02-22T11:51:20.000Z</time>
      </trkpt>
      <trkpt lat="37.9419153369963169097900390625" lon="-1.66646911762654781341552734375">
        <ele>851</ele>
        <time>2020-02-22T11:51:23.000Z</time>
      </trkpt>
      <trkpt lat="37.94178918935358524322509765625" lon="-1.66646224446594715118408203125">
        <ele>851.5999755859375</ele>
        <time>2020-02-22T11:51:27.000Z</time>
      </trkpt>
      <trkpt lat="37.9416326992213726043701171875" lon="-1.66643693111836910247802734375">
        <ele>852</ele>
        <time>2020-02-22T11:51:31.000Z</time>
      </trkpt>
      <trkpt lat="37.94149280525743961334228515625" lon="-1.6664288006722927093505859375">
        <ele>852.4000244140625</ele>
        <time>2020-02-22T11:51:35.000Z</time>
      </trkpt>
      <trkpt lat="37.94123849831521511077880859375" lon="-1.6664231009781360626220703125">
        <ele>853</ele>
        <time>2020-02-22T11:51:42.000Z</time>
      </trkpt>
      <trkpt lat="37.94102869927883148193359375" lon="-1.6665132902562618255615234375">
        <ele>853.5999755859375</ele>
        <time>2020-02-22T11:51:47.000Z</time>
      </trkpt>
      <trkpt lat="37.94084069319069385528564453125" lon="-1.66661580093204975128173828125">
        <ele>854</ele>
        <time>2020-02-22T11:51:51.000Z</time>
      </trkpt>
      <trkpt lat="37.94067456386983394622802734375" lon="-1.66673599742352962493896484375">
        <ele>854.5999755859375</ele>
        <time>2020-02-22T11:51:55.000Z</time>
      </trkpt>
      <trkpt lat="37.9404920898377895355224609375" lon="-1.66687178425490856170654296875">
        <ele>855.20001220703125</ele>
        <time>2020-02-22T11:52:00.000Z</time>
      </trkpt>
      <trkpt lat="37.94046216644346714019775390625" lon="-1.66690112091600894927978515625">
        <ele>855.20001220703125</ele>
        <time>2020-02-22T11:52:01.000Z</time>
      </trkpt>
      <trkpt lat="37.94018304906785488128662109375" lon="-1.667112596333026885986328125">
        <ele>856.4000244140625</ele>
        <time>2020-02-22T11:52:09.000Z</time>
      </trkpt>
      <trkpt lat="37.93994232080876827239990234375" lon="-1.667201779782772064208984375">
        <ele>857.5999755859375</ele>
        <time>2020-02-22T11:52:15.000Z</time>
      </trkpt>
      <trkpt lat="37.93980267830193042755126953125" lon="-1.66718996129930019378662109375">
        <ele>858.79998779296875</ele>
        <time>2020-02-22T11:52:19.000Z</time>
      </trkpt>
      <trkpt lat="37.93972154147922992706298828125" lon="-1.6671794839203357696533203125">
        <ele>859</ele>
        <time>2020-02-22T11:52:21.000Z</time>
      </trkpt>
      <trkpt lat="37.93950411491096019744873046875" lon="-1.6671493090689182281494140625">
        <ele>860</ele>
        <time>2020-02-22T11:52:26.000Z</time>
      </trkpt>
      <trkpt lat="37.93937872163951396942138671875" lon="-1.6671231575310230255126953125">
        <ele>860.5999755859375</ele>
        <time>2020-02-22T11:52:29.000Z</time>
      </trkpt>
      <trkpt lat="37.93926824815571308135986328125" lon="-1.6671043820679187774658203125">
        <ele>861.20001220703125</ele>
        <time>2020-02-22T11:52:32.000Z</time>
      </trkpt>
      <trkpt lat="37.93916095979511737823486328125" lon="-1.66709558106958866119384765625">
        <ele>861.79998779296875</ele>
        <time>2020-02-22T11:52:35.000Z</time>
      </trkpt>
      <trkpt lat="37.93905987404286861419677734375" lon="-1.66709373705089092254638671875">
        <ele>862.20001220703125</ele>
        <time>2020-02-22T11:52:38.000Z</time>
      </trkpt>
      <trkpt lat="37.93892157264053821563720703125" lon="-1.6670765541493892669677734375">
        <ele>863.4000244140625</ele>
        <time>2020-02-22T11:52:42.000Z</time>
      </trkpt>
      <trkpt lat="37.9388795793056488037109375" lon="-1.6670638136565685272216796875">
        <ele>863.5999755859375</ele>
        <time>2020-02-22T11:52:43.000Z</time>
      </trkpt>
      <trkpt lat="37.93873214162886142730712890625" lon="-1.6670359857380390167236328125">
        <ele>864.4000244140625</ele>
        <time>2020-02-22T11:52:47.000Z</time>
      </trkpt>
      <trkpt lat="37.9385920800268650054931640625" lon="-1.66701503098011016845703125">
        <ele>865.20001220703125</ele>
        <time>2020-02-22T11:52:51.000Z</time>
      </trkpt>
      <trkpt lat="37.9385052435100078582763671875" lon="-1.66698913089931011199951171875">
        <ele>865.5999755859375</ele>
        <time>2020-02-22T11:52:53.000Z</time>
      </trkpt>
      <trkpt lat="37.9383094422519207000732421875" lon="-1.6669558547437191009521484375">
        <ele>866.79998779296875</ele>
        <time>2020-02-22T11:52:58.000Z</time>
      </trkpt>
      <trkpt lat="37.9382728971540927886962890625" lon="-1.66694470681250095367431640625">
        <ele>867.20001220703125</ele>
        <time>2020-02-22T11:52:59.000Z</time>
      </trkpt>
      <trkpt lat="37.93815865181386470794677734375" lon="-1.6669058986008167266845703125">
        <ele>867.79998779296875</ele>
        <time>2020-02-22T11:53:02.000Z</time>
      </trkpt>
      <trkpt lat="37.93804599903523921966552734375" lon="-1.66688754223287105560302734375">
        <ele>868.4000244140625</ele>
        <time>2020-02-22T11:53:05.000Z</time>
      </trkpt>
      <trkpt lat="37.93800794519484043121337890625" lon="-1.66689139790832996368408203125">
        <ele>869</ele>
        <time>2020-02-22T11:53:06.000Z</time>
      </trkpt>
      <trkpt lat="37.93786176480352878570556640625" lon="-1.66690078563988208770751953125">
        <ele>869.5999755859375</ele>
        <time>2020-02-22T11:53:09.000Z</time>
      </trkpt>
      <trkpt lat="37.93777207843959331512451171875" lon="-1.66693682782351970672607421875">
        <ele>870</ele>
        <time>2020-02-22T11:53:11.000Z</time>
      </trkpt>
      <trkpt lat="37.93773218058049678802490234375" lon="-1.66696348227560520172119140625">
        <ele>870</ele>
        <time>2020-02-22T11:53:12.000Z</time>
      </trkpt>
      <trkpt lat="37.9376516304910182952880859375" lon="-1.66707043536007404327392578125">
        <ele>871</ele>
        <time>2020-02-22T11:53:15.000Z</time>
      </trkpt>
      <trkpt lat="37.93762304820120334625244140625" lon="-1.66715048253536224365234375">
        <ele>871.4000244140625</ele>
        <time>2020-02-22T11:53:17.000Z</time>
      </trkpt>
      <trkpt lat="37.937594465911388397216796875" lon="-1.66728056967258453369140625">
        <ele>872</ele>
        <time>2020-02-22T11:53:20.000Z</time>
      </trkpt>
      <trkpt lat="37.93757736682891845703125" lon="-1.667412333190441131591796875">
        <ele>872.5999755859375</ele>
        <time>2020-02-22T11:53:23.000Z</time>
      </trkpt>
      <trkpt lat="37.9375760257244110107421875" lon="-1.6674517281353473663330078125">
        <ele>873</ele>
        <time>2020-02-22T11:53:24.000Z</time>
      </trkpt>
      <trkpt lat="37.937559597194194793701171875" lon="-1.66766546666622161865234375">
        <ele>874.20001220703125</ele>
        <time>2020-02-22T11:53:29.000Z</time>
      </trkpt>
      <trkpt lat="37.9375533945858478546142578125" lon="-1.6677471064031124114990234375">
        <ele>874.5999755859375</ele>
        <time>2020-02-22T11:53:31.000Z</time>
      </trkpt>
      <trkpt lat="37.93752841651439666748046875" lon="-1.66790661402046680450439453125">
        <ele>875.20001220703125</ele>
        <time>2020-02-22T11:53:35.000Z</time>
      </trkpt>
      <trkpt lat="37.93751223944127559661865234375" lon="-1.66803552769124507904052734375">
        <ele>876</ele>
        <time>2020-02-22T11:53:38.000Z</time>
      </trkpt>
      <trkpt lat="37.93750318698585033416748046875" lon="-1.66812144219875335693359375">
        <ele>876.4000244140625</ele>
        <time>2020-02-22T11:53:40.000Z</time>
      </trkpt>
      <trkpt lat="37.93747602961957454681396484375" lon="-1.66836946271359920501708984375">
        <ele>877.5999755859375</ele>
        <time>2020-02-22T11:53:45.000Z</time>
      </trkpt>
      <trkpt lat="37.93747317977249622344970703125" lon="-1.6684169881045818328857421875">
        <ele>877.79998779296875</ele>
        <time>2020-02-22T11:53:46.000Z</time>
      </trkpt>
      <trkpt lat="37.9374675638973712921142578125" lon="-1.6686355881392955780029296875">
        <ele>878.5999755859375</ele>
        <time>2020-02-22T11:53:51.000Z</time>
      </trkpt>
      <trkpt lat="37.93744795024394989013671875" lon="-1.66881454177200794219970703125">
        <ele>879.79998779296875</ele>
        <time>2020-02-22T11:53:55.000Z</time>
      </trkpt>
      <trkpt lat="37.93735968880355358123779296875" lon="-1.66902400553226470947265625">
        <ele>880.79998779296875</ele>
        <time>2020-02-22T11:54:00.000Z</time>
      </trkpt>
      <trkpt lat="37.93733538128435611724853515625" lon="-1.66905485093593597412109375">
        <ele>881</ele>
        <time>2020-02-22T11:54:01.000Z</time>
      </trkpt>
      <trkpt lat="37.9371959902346134185791015625" lon="-1.6691458784043788909912109375">
        <ele>882.20001220703125</ele>
        <time>2020-02-22T11:54:06.000Z</time>
      </trkpt>
      <trkpt lat="37.937058694660663604736328125" lon="-1.66917144320905208587646484375">
        <ele>883.20001220703125</ele>
        <time>2020-02-22T11:54:10.000Z</time>
      </trkpt>
      <trkpt lat="37.93695350177586078643798828125" lon="-1.66916389949619770050048828125">
        <ele>883.79998779296875</ele>
        <time>2020-02-22T11:54:13.000Z</time>
      </trkpt>
      <trkpt lat="37.93689197860658168792724609375" lon="-1.66916121728718280792236328125">
        <ele>884.20001220703125</ele>
        <time>2020-02-22T11:54:15.000Z</time>
      </trkpt>
      <trkpt lat="37.9367671720683574676513671875" lon="-1.66915568523108959197998046875">
        <ele>884.79998779296875</ele>
        <time>2020-02-22T11:54:19.000Z</time>
      </trkpt>
      <trkpt lat="37.936687208712100982666015625" lon="-1.6691482253372669219970703125">
        <ele>885.5999755859375</ele>
        <time>2020-02-22T11:54:22.000Z</time>
      </trkpt>
      <trkpt lat="37.93650590814650058746337890625" lon="-1.66914847679436206817626953125">
        <ele>886.5999755859375</ele>
        <time>2020-02-22T11:54:28.000Z</time>
      </trkpt>
      <trkpt lat="37.93638219125568866729736328125" lon="-1.6692151129245758056640625">
        <ele>887.79998779296875</ele>
        <time>2020-02-22T11:54:32.000Z</time>
      </trkpt>
      <trkpt lat="37.93634899891912937164306640625" lon="-1.66923665441572666168212890625">
        <ele>887.79998779296875</ele>
        <time>2020-02-22T11:54:33.000Z</time>
      </trkpt>
      <trkpt lat="37.93626911938190460205078125" lon="-1.6693111695349216461181640625">
        <ele>888.5999755859375</ele>
        <time>2020-02-22T11:54:36.000Z</time>
      </trkpt>
      <trkpt lat="37.93615537695586681365966796875" lon="-1.66939909569919109344482421875">
        <ele>889.79998779296875</ele>
        <time>2020-02-22T11:54:41.000Z</time>
      </trkpt>
      <trkpt lat="37.936025373637676239013671875" lon="-1.669516526162624359130859375">
        <ele>891</ele>
        <time>2020-02-22T11:54:46.000Z</time>
      </trkpt>
      <trkpt lat="37.9359692148864269256591796875" lon="-1.6695693321526050567626953125">
        <ele>891.4000244140625</ele>
        <time>2020-02-22T11:54:48.000Z</time>
      </trkpt>
      <trkpt lat="37.93588866479694843292236328125" lon="-1.6696518100798130035400390625">
        <ele>892.4000244140625</ele>
        <time>2020-02-22T11:54:51.000Z</time>
      </trkpt>
      <trkpt lat="37.93580233119428157806396484375" lon="-1.66977125220000743865966796875">
        <ele>892.79998779296875</ele>
        <time>2020-02-22T11:54:55.000Z</time>
      </trkpt>
      <trkpt lat="37.93571918271481990814208984375" lon="-1.669883988797664642333984375">
        <ele>893.5999755859375</ele>
        <time>2020-02-22T11:54:58.000Z</time>
      </trkpt>
      <trkpt lat="37.93564550578594207763671875" lon="-1.67000343091785907745361328125">
        <ele>894.20001220703125</ele>
        <time>2020-02-22T11:55:01.000Z</time>
      </trkpt>
      <trkpt lat="37.93561826460063457489013671875" lon="-1.67008456774055957794189453125">
        <ele>894.5999755859375</ele>
        <time>2020-02-22T11:55:03.000Z</time>
      </trkpt>
      <trkpt lat="37.9355806298553943634033203125" lon="-1.67027751915156841278076171875">
        <ele>895.5999755859375</ele>
        <time>2020-02-22T11:55:08.000Z</time>
      </trkpt>
      <trkpt lat="37.93557752855122089385986328125" lon="-1.67032060213387012481689453125">
        <ele>895.79998779296875</ele>
        <time>2020-02-22T11:55:09.000Z</time>
      </trkpt>
      <trkpt lat="37.93555808253586292266845703125" lon="-1.67048404924571514129638671875">
        <ele>896.79998779296875</ele>
        <time>2020-02-22T11:55:13.000Z</time>
      </trkpt>
      <trkpt lat="37.93555456213653087615966796875" lon="-1.670555211603641510009765625">
        <ele>897.20001220703125</ele>
        <time>2020-02-22T11:55:15.000Z</time>
      </trkpt>
      <trkpt lat="37.93556227348744869232177734375" lon="-1.67071354575455188751220703125">
        <ele>898</ele>
        <time>2020-02-22T11:55:19.000Z</time>
      </trkpt>
      <trkpt lat="37.93557618744671344757080078125" lon="-1.6707842051982879638671875">
        <ele>898.4000244140625</ele>
        <time>2020-02-22T11:55:21.000Z</time>
      </trkpt>
      <trkpt lat="37.9356061108410358428955078125" lon="-1.67092745192348957061767578125">
        <ele>899.20001220703125</ele>
        <time>2020-02-22T11:55:25.000Z</time>
      </trkpt>
      <trkpt lat="37.93562027625739574432373046875" lon="-1.6710053198039531707763671875">
        <ele>899.5999755859375</ele>
        <time>2020-02-22T11:55:27.000Z</time>
      </trkpt>
      <trkpt lat="37.9356436617672443389892578125" lon="-1.6711642406880855560302734375">
        <ele>900.20001220703125</ele>
        <time>2020-02-22T11:55:31.000Z</time>
      </trkpt>
      <trkpt lat="37.935665287077426910400390625" lon="-1.6713456250727176666259765625">
        <ele>901.4000244140625</ele>
        <time>2020-02-22T11:55:35.000Z</time>
      </trkpt>
      <trkpt lat="37.935749106109142303466796875" lon="-1.67165282182395458221435546875">
        <ele>902.5999755859375</ele>
        <time>2020-02-22T11:55:42.000Z</time>
      </trkpt>
      <trkpt lat="37.9359021596610546112060546875" lon="-1.67183403857052326202392578125">
        <ele>903.4000244140625</ele>
        <time>2020-02-22T11:55:48.000Z</time>
      </trkpt>
      <trkpt lat="37.93593116104602813720703125" lon="-1.67186873964965343475341796875">
        <ele>903.5999755859375</ele>
        <time>2020-02-22T11:55:49.000Z</time>
      </trkpt>
      <trkpt lat="37.93613576330244541168212890625" lon="-1.67203386314213275909423828125">
        <ele>904.5999755859375</ele>
        <time>2020-02-22T11:55:56.000Z</time>
      </trkpt>
      <trkpt lat="37.93626509606838226318359375" lon="-1.6723427362740039825439453125">
        <ele>905.79998779296875</ele>
        <time>2020-02-22T11:56:03.000Z</time>
      </trkpt>
      <trkpt lat="37.936261408030986785888671875" lon="-1.672684885561466217041015625">
        <ele>906.20001220703125</ele>
        <time>2020-02-22T11:56:09.000Z</time>
      </trkpt>
      <trkpt lat="37.93623022735118865966796875" lon="-1.67288160882890224456787109375">
        <ele>906.79998779296875</ele>
        <time>2020-02-22T11:56:13.000Z</time>
      </trkpt>
      <trkpt lat="37.93619544245302677154541015625" lon="-1.67302544228732585906982421875">
        <ele>907</ele>
        <time>2020-02-22T11:56:16.000Z</time>
      </trkpt>
      <trkpt lat="37.936168201267719268798828125" lon="-1.67315670289099216461181640625">
        <ele>907.79998779296875</ele>
        <time>2020-02-22T11:56:19.000Z</time>
      </trkpt>
      <trkpt lat="37.93612369336187839508056640625" lon="-1.67341209948062896728515625">
        <ele>909</ele>
        <time>2020-02-22T11:56:25.000Z</time>
      </trkpt>
      <trkpt lat="37.93610692955553531646728515625" lon="-1.67349901981651782989501953125">
        <ele>909.5999755859375</ele>
        <time>2020-02-22T11:56:27.000Z</time>
      </trkpt>
      <trkpt lat="37.93609301559627056121826171875" lon="-1.6735842637717723846435546875">
        <ele>910</ele>
        <time>2020-02-22T11:56:29.000Z</time>
      </trkpt>
      <trkpt lat="37.93606703169643878936767578125" lon="-1.67375005781650543212890625">
        <ele>910.20001220703125</ele>
        <time>2020-02-22T11:56:33.000Z</time>
      </trkpt>
      <trkpt lat="37.935998551547527313232421875" lon="-1.6739785484969615936279296875">
        <ele>911.20001220703125</ele>
        <time>2020-02-22T11:56:38.000Z</time>
      </trkpt>
      <trkpt lat="37.9359588213264942169189453125" lon="-1.67411408387124538421630859375">
        <ele>911.5999755859375</ele>
        <time>2020-02-22T11:56:41.000Z</time>
      </trkpt>
      <trkpt lat="37.93591297231614589691162109375" lon="-1.6742836497724056243896484375">
        <ele>912.20001220703125</ele>
        <time>2020-02-22T11:56:45.000Z</time>
      </trkpt>
      <trkpt lat="37.93584826402366161346435546875" lon="-1.67446880601346492767333984375">
        <ele>913</ele>
        <time>2020-02-22T11:56:49.000Z</time>
      </trkpt>
      <trkpt lat="37.935787998139858245849609375" lon="-1.67459570802748203277587890625">
        <ele>913.4000244140625</ele>
        <time>2020-02-22T11:56:52.000Z</time>
      </trkpt>
      <trkpt lat="37.93570962734520435333251953125" lon="-1.67469863779842853546142578125">
        <ele>913.79998779296875</ele>
        <time>2020-02-22T11:56:55.000Z</time>
      </trkpt>
      <trkpt lat="37.9356144927442073822021484375" lon="-1.6747654415667057037353515625">
        <ele>914.5999755859375</ele>
        <time>2020-02-22T11:56:58.000Z</time>
      </trkpt>
      <trkpt lat="37.93551432900130748748779296875" lon="-1.67480726726353168487548828125">
        <ele>914.79998779296875</ele>
        <time>2020-02-22T11:57:01.000Z</time>
      </trkpt>
      <trkpt lat="37.935401089489459991455078125" lon="-1.674863509833812713623046875">
        <ele>915.5999755859375</ele>
        <time>2020-02-22T11:57:05.000Z</time>
      </trkpt>
      <trkpt lat="37.93533495627343654632568359375" lon="-1.67487851344048976898193359375">
        <ele>916.20001220703125</ele>
        <time>2020-02-22T11:57:08.000Z</time>
      </trkpt>
      <trkpt lat="37.9352406598627567291259765625" lon="-1.674909107387065887451171875">
        <ele>916.5999755859375</ele>
        <time>2020-02-22T11:57:11.000Z</time>
      </trkpt>
      <trkpt lat="37.9351725988090038299560546875" lon="-1.67496149428188800811767578125">
        <ele>917</ele>
        <time>2020-02-22T11:57:13.000Z</time>
      </trkpt>
      <trkpt lat="37.93503890745341777801513671875" lon="-1.67507900856435298919677734375">
        <ele>917.5999755859375</ele>
        <time>2020-02-22T11:57:17.000Z</time>
      </trkpt>
      <trkpt lat="37.93494544923305511474609375" lon="-1.67518277652561664581298828125">
        <ele>918.20001220703125</ele>
        <time>2020-02-22T11:57:20.000Z</time>
      </trkpt>
      <trkpt lat="37.9347141087055206298828125" lon="-1.6754118539392948150634765625">
        <ele>918.79998779296875</ele>
        <time>2020-02-22T11:57:27.000Z</time>
      </trkpt>
      <trkpt lat="37.93469130992889404296875" lon="-1.67545435018837451934814453125">
        <ele>918.79998779296875</ele>
        <time>2020-02-22T11:57:28.000Z</time>
      </trkpt>
      <trkpt lat="37.93439886532723903656005859375" lon="-1.67582483030855655670166015625">
        <ele>919.79998779296875</ele>
        <time>2020-02-22T11:57:37.000Z</time>
      </trkpt>
      <trkpt lat="37.93436902575194835662841796875" lon="-1.675865985453128814697265625">
        <ele>919.79998779296875</ele>
        <time>2020-02-22T11:57:38.000Z</time>
      </trkpt>
      <trkpt lat="37.93416249565780162811279296875" lon="-1.67615155689418315887451171875">
        <ele>920.5999755859375</ele>
        <time>2020-02-22T11:57:45.000Z</time>
      </trkpt>
      <trkpt lat="37.9340175725519657135009765625" lon="-1.67634417302906513214111328125">
        <ele>920.79998779296875</ele>
        <time>2020-02-22T11:57:50.000Z</time>
      </trkpt>
      <trkpt lat="37.933976836502552032470703125" lon="-1.67642799206078052520751953125">
        <ele>921</ele>
        <time>2020-02-22T11:57:52.000Z</time>
      </trkpt>
      <trkpt lat="37.93391020037233829498291015625" lon="-1.676722951233386993408203125">
        <ele>921.4000244140625</ele>
        <time>2020-02-22T11:57:59.000Z</time>
      </trkpt>
      <trkpt lat="37.933924198150634765625" lon="-1.67687256820499897003173828125">
        <ele>921.79998779296875</ele>
        <time>2020-02-22T11:58:02.000Z</time>
      </trkpt>
      <trkpt lat="37.933952026069164276123046875" lon="-1.67700827121734619140625">
        <ele>922.4000244140625</ele>
        <time>2020-02-22T11:58:05.000Z</time>
      </trkpt>
      <trkpt lat="37.9339790157973766326904296875" lon="-1.6770999692380428314208984375">
        <ele>922.79998779296875</ele>
        <time>2020-02-22T11:58:07.000Z</time>
      </trkpt>
      <trkpt lat="37.9340688697993755340576171875" lon="-1.6774238459765911102294921875">
        <ele>923.5999755859375</ele>
        <time>2020-02-22T11:58:14.000Z</time>
      </trkpt>
      <trkpt lat="37.93402050621807575225830078125" lon="-1.67761906050145626068115234375">
        <ele>923.79998779296875</ele>
        <time>2020-02-22T11:58:18.000Z</time>
      </trkpt>
      <trkpt lat="37.93386317789554595947265625" lon="-1.67789138853549957275390625">
        <ele>924</ele>
        <time>2020-02-22T11:58:24.000Z</time>
      </trkpt>
      <trkpt lat="37.93361633084714412689208984375" lon="-1.67813303880393505096435546875">
        <ele>924.20001220703125</ele>
        <time>2020-02-22T11:58:31.000Z</time>
      </trkpt>
      <trkpt lat="37.93353050015866756439208984375" lon="-1.6781763732433319091796875">
        <ele>924.20001220703125</ele>
        <time>2020-02-22T11:58:33.000Z</time>
      </trkpt>
      <trkpt lat="37.9334040172398090362548828125" lon="-1.67822507210075855255126953125">
        <ele>924.20001220703125</ele>
        <time>2020-02-22T11:58:36.000Z</time>
      </trkpt>
      <trkpt lat="37.93327510356903076171875" lon="-1.6782690770924091339111328125">
        <ele>924.20001220703125</ele>
        <time>2020-02-22T11:58:39.000Z</time>
      </trkpt>
      <trkpt lat="37.9332199506461620330810546875" lon="-1.67828341014683246612548828125">
        <ele>924.20001220703125</ele>
        <time>2020-02-22T11:58:40.000Z</time>
      </trkpt>
      <trkpt lat="37.9331022687256336212158203125" lon="-1.678302772343158721923828125">
        <ele>924</ele>
        <time>2020-02-22T11:58:42.000Z</time>
      </trkpt>
      <trkpt lat="37.93300914578139781951904296875" lon="-1.67832481674849987030029296875">
        <ele>924</ele>
        <time>2020-02-22T11:58:44.000Z</time>
      </trkpt>
      <trkpt lat="37.93295801617205142974853515625" lon="-1.67833252809941768646240234375">
        <ele>924</ele>
        <time>2020-02-22T11:58:45.000Z</time>
      </trkpt>
      <trkpt lat="37.93262408114969730377197265625" lon="-1.678356416523456573486328125">
        <ele>923.5999755859375</ele>
        <time>2020-02-22T11:58:51.000Z</time>
      </trkpt>
      <trkpt lat="37.93225544504821300506591796875" lon="-1.67837074957787990570068359375">
        <ele>924</ele>
        <time>2020-02-22T11:58:59.000Z</time>
      </trkpt>
      <trkpt lat="37.9321172274649143218994140625" lon="-1.67837259359657764434814453125">
        <ele>924.5999755859375</ele>
        <time>2020-02-22T11:59:02.000Z</time>
      </trkpt>
      <trkpt lat="37.9319140501320362091064453125" lon="-1.67836488224565982818603515625">
        <ele>925.5999755859375</ele>
        <time>2020-02-22T11:59:06.000Z</time>
      </trkpt>
      <trkpt lat="37.93186468072235584259033203125" lon="-1.67836270295083522796630859375">
        <ele>925.79998779296875</ele>
        <time>2020-02-22T11:59:07.000Z</time>
      </trkpt>
      <trkpt lat="37.93163166381418704986572265625" lon="-1.67835717089474201202392578125">
        <ele>926</ele>
        <time>2020-02-22T11:59:12.000Z</time>
      </trkpt>
      <trkpt lat="37.93151624500751495361328125" lon="-1.6783539019525051116943359375">
        <ele>926.20001220703125</ele>
        <time>2020-02-22T11:59:15.000Z</time>
      </trkpt>
      <trkpt lat="37.93135740794241428375244140625" lon="-1.67835884727537631988525390625">
        <ele>926.79998779296875</ele>
        <time>2020-02-22T11:59:19.000Z</time>
      </trkpt>
      <trkpt lat="37.931236959993839263916015625" lon="-1.67837611399590969085693359375">
        <ele>927.79998779296875</ele>
        <time>2020-02-22T11:59:22.000Z</time>
      </trkpt>
      <trkpt lat="37.93119513429701328277587890625" lon="-1.6783901117742061614990234375">
        <ele>928.20001220703125</ele>
        <time>2020-02-22T11:59:23.000Z</time>
      </trkpt>
      <trkpt lat="37.93107443489134311676025390625" lon="-1.6784370504319667816162109375">
        <ele>929</ele>
        <time>2020-02-22T11:59:26.000Z</time>
      </trkpt>
      <trkpt lat="37.9309300146996974945068359375" lon="-1.678523719310760498046875">
        <ele>930</ele>
        <time>2020-02-22T11:59:30.000Z</time>
      </trkpt>
      <trkpt lat="37.9308927990496158599853515625" lon="-1.67855062521994113922119140625">
        <ele>930.20001220703125</ele>
        <time>2020-02-22T11:59:31.000Z</time>
      </trkpt>
      <trkpt lat="37.93067243881523609161376953125" lon="-1.67871306650340557098388671875">
        <ele>931.20001220703125</ele>
        <time>2020-02-22T11:59:37.000Z</time>
      </trkpt>
      <trkpt lat="37.93063379824161529541015625" lon="-1.6787414811551570892333984375">
        <ele>931.4000244140625</ele>
        <time>2020-02-22T11:59:38.000Z</time>
      </trkpt>
      <trkpt lat="37.93047144077718257904052734375" lon="-1.67886360548436641693115234375">
        <ele>932.4000244140625</ele>
        <time>2020-02-22T11:59:42.000Z</time>
      </trkpt>
      <trkpt lat="37.9302782379090785980224609375" lon="-1.67903476394712924957275390625">
        <ele>932.5999755859375</ele>
        <time>2020-02-22T11:59:47.000Z</time>
      </trkpt>
      <trkpt lat="37.9299183189868927001953125" lon="-1.67934254743158817291259765625">
        <ele>933</ele>
        <time>2020-02-22T11:59:56.000Z</time>
      </trkpt>
      <trkpt lat="37.92988143861293792724609375" lon="-1.67936802841722965240478515625">
        <ele>933</ele>
        <time>2020-02-22T11:59:57.000Z</time>
      </trkpt>
      <trkpt lat="37.92965135537087917327880859375" lon="-1.67946852743625640869140625">
        <ele>933.4000244140625</ele>
        <time>2020-02-22T12:00:03.000Z</time>
      </trkpt>
      <trkpt lat="37.9295486770570278167724609375" lon="-1.67948252521455287933349609375">
        <ele>933.5999755859375</ele>
        <time>2020-02-22T12:00:05.000Z</time>
      </trkpt>
      <trkpt lat="37.92944155633449554443359375" lon="-1.67946710251271724700927734375">
        <ele>933.79998779296875</ele>
        <time>2020-02-22T12:00:07.000Z</time>
      </trkpt>
      <trkpt lat="37.9293389618396759033203125" lon="-1.67942217551171779632568359375">
        <ele>933.79998779296875</ele>
        <time>2020-02-22T12:00:09.000Z</time>
      </trkpt>
      <trkpt lat="37.92918113060295581817626953125" lon="-1.67934975586831569671630859375">
        <ele>933.79998779296875</ele>
        <time>2020-02-22T12:00:12.000Z</time>
      </trkpt>
      <trkpt lat="37.92906110174953937530517578125" lon="-1.67929711751639842987060546875">
        <ele>933.79998779296875</ele>
        <time>2020-02-22T12:00:14.000Z</time>
      </trkpt>
      <trkpt lat="37.92892632074654102325439453125" lon="-1.67923207394778728485107421875">
        <ele>933.79998779296875</ele>
        <time>2020-02-22T12:00:16.000Z</time>
      </trkpt>
      <trkpt lat="37.92885591275990009307861328125" lon="-1.67920298874378204345703125">
        <ele>933.5999755859375</ele>
        <time>2020-02-22T12:00:17.000Z</time>
      </trkpt>
      <trkpt lat="37.928495742380619049072265625" lon="-1.679063178598880767822265625">
        <ele>932.79998779296875</ele>
        <time>2020-02-22T12:00:23.000Z</time>
      </trkpt>
      <trkpt lat="37.92845291085541248321533203125" lon="-1.679041050374507904052734375">
        <ele>932.5999755859375</ele>
        <time>2020-02-22T12:00:24.000Z</time>
      </trkpt>
      <trkpt lat="37.92832902632653713226318359375" lon="-1.67897500097751617431640625">
        <ele>932.5999755859375</ele>
        <time>2020-02-22T12:00:27.000Z</time>
      </trkpt>
      <trkpt lat="37.9281924851238727569580078125" lon="-1.67895865626633167266845703125">
        <ele>932.5999755859375</ele>
        <time>2020-02-22T12:00:31.000Z</time>
      </trkpt>
      <trkpt lat="37.9280178062617778778076171875" lon="-1.67888003401458263397216796875">
        <ele>934.20001220703125</ele>
        <time>2020-02-22T12:00:36.000Z</time>
      </trkpt>
      <trkpt lat="37.92796893976628780364990234375" lon="-1.67884625494480133056640625">
        <ele>934.5999755859375</ele>
        <time>2020-02-22T12:00:37.000Z</time>
      </trkpt>
      <trkpt lat="37.9278796724975109100341796875" lon="-1.678770817816257476806640625">
        <ele>935.79998779296875</ele>
        <time>2020-02-22T12:00:39.000Z</time>
      </trkpt>
      <trkpt lat="37.927763164043426513671875" lon="-1.6786429099738597869873046875">
        <ele>936.4000244140625</ele>
        <time>2020-02-22T12:00:42.000Z</time>
      </trkpt>
      <trkpt lat="37.92769820429384708404541015625" lon="-1.67853537015616893768310546875">
        <ele>936.5999755859375</ele>
        <time>2020-02-22T12:00:44.000Z</time>
      </trkpt>
      <trkpt lat="37.927636764943599700927734375" lon="-1.67842783033847808837890625">
        <ele>936.79998779296875</ele>
        <time>2020-02-22T12:00:46.000Z</time>
      </trkpt>
      <trkpt lat="37.9274761676788330078125" lon="-1.6782060451805591583251953125">
        <ele>938</ele>
        <time>2020-02-22T12:00:51.000Z</time>
      </trkpt>
      <trkpt lat="37.927418164908885955810546875" lon="-1.67811535298824310302734375">
        <ele>938.20001220703125</ele>
        <time>2020-02-22T12:00:53.000Z</time>
      </trkpt>
      <trkpt lat="37.92716897092759609222412109375" lon="-1.67780019342899322509765625">
        <ele>939.20001220703125</ele>
        <time>2020-02-22T12:01:01.000Z</time>
      </trkpt>
      <trkpt lat="37.92702530510723590850830078125" lon="-1.6776721179485321044921875">
        <ele>940.20001220703125</ele>
        <time>2020-02-22T12:01:05.000Z</time>
      </trkpt>
      <trkpt lat="37.92690753936767578125" lon="-1.67757413350045680999755859375">
        <ele>941.20001220703125</ele>
        <time>2020-02-22T12:01:08.000Z</time>
      </trkpt>
      <trkpt lat="37.9268681444227695465087890625" lon="-1.67754278518259525299072265625">
        <ele>941.20001220703125</ele>
        <time>2020-02-22T12:01:09.000Z</time>
      </trkpt>
      <trkpt lat="37.9265161044895648956298828125" lon="-1.6772991232573986053466796875">
        <ele>941.5999755859375</ele>
        <time>2020-02-22T12:01:17.000Z</time>
      </trkpt>
      <trkpt lat="37.9262324608862400054931640625" lon="-1.677043139934539794921875">
        <ele>941.5999755859375</ele>
        <time>2020-02-22T12:01:25.000Z</time>
      </trkpt>
      <trkpt lat="37.92613975703716278076171875" lon="-1.676952950656414031982421875">
        <ele>942.20001220703125</ele>
        <time>2020-02-22T12:01:28.000Z</time>
      </trkpt>
      <trkpt lat="37.92602165602147579193115234375" lon="-1.67682546190917491912841796875">
        <ele>943.4000244140625</ele>
        <time>2020-02-22T12:01:32.000Z</time>
      </trkpt>
      <trkpt lat="37.92592643760144710540771484375" lon="-1.67674348689615726470947265625">
        <ele>944.4000244140625</ele>
        <time>2020-02-22T12:01:35.000Z</time>
      </trkpt>
      <trkpt lat="37.925802133977413177490234375" lon="-1.6766394674777984619140625">
        <ele>945.4000244140625</ele>
        <time>2020-02-22T12:01:39.000Z</time>
      </trkpt>
      <trkpt lat="37.925775311887264251708984375" lon="-1.6766148246824741363525390625">
        <ele>945.5999755859375</ele>
        <time>2020-02-22T12:01:40.000Z</time>
      </trkpt>
      <trkpt lat="37.92563416063785552978515625" lon="-1.6764951311051845550537109375">
        <ele>946.79998779296875</ele>
        <time>2020-02-22T12:01:45.000Z</time>
      </trkpt>
      <trkpt lat="37.92556115426123142242431640625" lon="-1.67642983607947826385498046875">
        <ele>947.5999755859375</ele>
        <time>2020-02-22T12:01:48.000Z</time>
      </trkpt>
      <trkpt lat="37.92544011957943439483642578125" lon="-1.67632841505110263824462890625">
        <ele>947.79998779296875</ele>
        <time>2020-02-22T12:01:52.000Z</time>
      </trkpt>
      <trkpt lat="37.92535722255706787109375" lon="-1.67625029571354389190673828125">
        <ele>948.4000244140625</ele>
        <time>2020-02-22T12:01:55.000Z</time>
      </trkpt>
      <trkpt lat="37.92528069578111171722412109375" lon="-1.67618106119334697723388671875">
        <ele>949.20001220703125</ele>
        <time>2020-02-22T12:01:58.000Z</time>
      </trkpt>
      <trkpt lat="37.92514197528362274169921875" lon="-1.6760626249015331268310546875">
        <ele>950.4000244140625</ele>
        <time>2020-02-22T12:02:03.000Z</time>
      </trkpt>
      <trkpt lat="37.925050444900989532470703125" lon="-1.67598299682140350341796875">
        <ele>951.5999755859375</ele>
        <time>2020-02-22T12:02:06.000Z</time>
      </trkpt>
      <trkpt lat="37.9249376244843006134033203125" lon="-1.6758938133716583251953125">
        <ele>952.20001220703125</ele>
        <time>2020-02-22T12:02:10.000Z</time>
      </trkpt>
      <trkpt lat="37.92489093728363513946533203125" lon="-1.67586087249219417572021484375">
        <ele>952.5999755859375</ele>
        <time>2020-02-22T12:02:12.000Z</time>
      </trkpt>
      <trkpt lat="37.9248078726232051849365234375" lon="-1.67582742869853973388671875">
        <ele>953.20001220703125</ele>
        <time>2020-02-22T12:02:15.000Z</time>
      </trkpt>
      <trkpt lat="37.92477828450500965118408203125" lon="-1.6758265905082225799560546875">
        <ele>953.5999755859375</ele>
        <time>2020-02-22T12:02:16.000Z</time>
      </trkpt>
      <trkpt lat="37.9246284998953342437744140625" lon="-1.6758641414344310760498046875">
        <ele>954.4000244140625</ele>
        <time>2020-02-22T12:02:21.000Z</time>
      </trkpt>
      <trkpt lat="37.9245902784168720245361328125" lon="-1.67587830685079097747802734375">
        <ele>954.5999755859375</ele>
        <time>2020-02-22T12:02:22.000Z</time>
      </trkpt>
      <trkpt lat="37.9243767075240612030029296875" lon="-1.67593203485012054443359375">
        <ele>955.5999755859375</ele>
        <time>2020-02-22T12:02:27.000Z</time>
      </trkpt>
      <trkpt lat="37.92425307445228099822998046875" lon="-1.67596782557666301727294921875">
        <ele>956.4000244140625</ele>
        <time>2020-02-22T12:02:30.000Z</time>
      </trkpt>
      <trkpt lat="37.92414243333041667938232421875" lon="-1.6760066337883472442626953125">
        <ele>956.79998779296875</ele>
        <time>2020-02-22T12:02:33.000Z</time>
      </trkpt>
      <trkpt lat="37.92401066981256008148193359375" lon="-1.67604845948517322540283203125">
        <ele>957.5999755859375</ele>
        <time>2020-02-22T12:02:37.000Z</time>
      </trkpt>
      <trkpt lat="37.92393959127366542816162109375" lon="-1.676072515547275543212890625">
        <ele>957.79998779296875</ele>
        <time>2020-02-22T12:02:39.000Z</time>
      </trkpt>
      <trkpt lat="37.92378737591207027435302734375" lon="-1.6761233098804950714111328125">
        <ele>959</ele>
        <time>2020-02-22T12:02:43.000Z</time>
      </trkpt>
      <trkpt lat="37.92375619523227214813232421875" lon="-1.67613730765879154205322265625">
        <ele>959</ele>
        <time>2020-02-22T12:02:44.000Z</time>
      </trkpt>
      <trkpt lat="37.92354295961558818817138671875" lon="-1.67624392546713352203369140625">
        <ele>960.20001220703125</ele>
        <time>2020-02-22T12:02:50.000Z</time>
      </trkpt>
      <trkpt lat="37.923400886356830596923828125" lon="-1.6763392277061939239501953125">
        <ele>961.20001220703125</ele>
        <time>2020-02-22T12:02:54.000Z</time>
      </trkpt>
      <trkpt lat="37.9233068414032459259033203125" lon="-1.67641424573957920074462890625">
        <ele>962.20001220703125</ele>
        <time>2020-02-22T12:02:57.000Z</time>
      </trkpt>
      <trkpt lat="37.92327381670475006103515625" lon="-1.6764329373836517333984375">
        <ele>962.4000244140625</ele>
        <time>2020-02-22T12:02:58.000Z</time>
      </trkpt>
      <trkpt lat="37.92305094189941883087158203125" lon="-1.67657618410885334014892578125">
        <ele>963.20001220703125</ele>
        <time>2020-02-22T12:03:04.000Z</time>
      </trkpt>
      <trkpt lat="37.9227590002119541168212890625" lon="-1.6767884977161884307861328125">
        <ele>963.20001220703125</ele>
        <time>2020-02-22T12:03:10.000Z</time>
      </trkpt>
      <trkpt lat="37.922507040202617645263671875" lon="-1.6769645176827907562255859375">
        <ele>962.79998779296875</ele>
        <time>2020-02-22T12:03:14.000Z</time>
      </trkpt>
      <trkpt lat="37.9223938845098018646240234375" lon="-1.6770560480654239654541015625">
        <ele>962.20001220703125</ele>
        <time>2020-02-22T12:03:16.000Z</time>
      </trkpt>
      <trkpt lat="37.922252900898456573486328125" lon="-1.6771821118891239166259765625">
        <ele>961.4000244140625</ele>
        <time>2020-02-22T12:03:19.000Z</time>
      </trkpt>
      <trkpt lat="37.922162711620330810546875" lon="-1.6772555373609066009521484375">
        <ele>961.20001220703125</ele>
        <time>2020-02-22T12:03:21.000Z</time>
      </trkpt>
      <trkpt lat="37.922114096581935882568359375" lon="-1.67729099281132221221923828125">
        <ele>961.20001220703125</ele>
        <time>2020-02-22T12:03:22.000Z</time>
      </trkpt>
      <trkpt lat="37.92187714017927646636962890625" lon="-1.6774774901568889617919921875">
        <ele>961.20001220703125</ele>
        <time>2020-02-22T12:03:28.000Z</time>
      </trkpt>
      <trkpt lat="37.92161621153354644775390625" lon="-1.67764437384903430938720703125">
        <ele>962.20001220703125</ele>
        <time>2020-02-22T12:03:34.000Z</time>
      </trkpt>
      <trkpt lat="37.9215385951101779937744140625" lon="-1.67768075130879878997802734375">
        <ele>962.5999755859375</ele>
        <time>2020-02-22T12:03:36.000Z</time>
      </trkpt>
      <trkpt lat="37.92149743996560573577880859375" lon="-1.67769022285938262939453125">
        <ele>962.79998779296875</ele>
        <time>2020-02-22T12:03:37.000Z</time>
      </trkpt>
      <trkpt lat="37.92131706140935420989990234375" lon="-1.677715368568897247314453125">
        <ele>963.20001220703125</ele>
        <time>2020-02-22T12:03:41.000Z</time>
      </trkpt>
      <trkpt lat="37.9212241061031818389892578125" lon="-1.6777209006249904632568359375">
        <ele>964</ele>
        <time>2020-02-22T12:03:43.000Z</time>
      </trkpt>
      <trkpt lat="37.92117901146411895751953125" lon="-1.67772450484335422515869140625">
        <ele>964.4000244140625</ele>
        <time>2020-02-22T12:03:44.000Z</time>
      </trkpt>
      <trkpt lat="37.92095915414392948150634765625" lon="-1.677746884524822235107421875">
        <ele>964.79998779296875</ele>
        <time>2020-02-22T12:03:49.000Z</time>
      </trkpt>
      <trkpt lat="37.92091925628483295440673828125" lon="-1.67775132693350315093994140625">
        <ele>964.79998779296875</ele>
        <time>2020-02-22T12:03:50.000Z</time>
      </trkpt>
      <trkpt lat="37.92069076560437679290771484375" lon="-1.6777916438877582550048828125">
        <ele>965.20001220703125</ele>
        <time>2020-02-22T12:03:56.000Z</time>
      </trkpt>
      <trkpt lat="37.92065405286848545074462890625" lon="-1.677793823182582855224609375">
        <ele>965.4000244140625</ele>
        <time>2020-02-22T12:03:57.000Z</time>
      </trkpt>
      <trkpt lat="37.92047761380672454833984375" lon="-1.6778362356126308441162109375">
        <ele>966</ele>
        <time>2020-02-22T12:04:01.000Z</time>
      </trkpt>
      <trkpt lat="37.92012549005448818206787109375" lon="-1.67798149399459362030029296875">
        <ele>966.20001220703125</ele>
        <time>2020-02-22T12:04:07.000Z</time>
      </trkpt>
      <trkpt lat="37.91987679898738861083984375" lon="-1.678119041025638580322265625">
        <ele>966.20001220703125</ele>
        <time>2020-02-22T12:04:11.000Z</time>
      </trkpt>
      <trkpt lat="37.91969013400375843048095703125" lon="-1.67822708375751972198486328125">
        <ele>966</ele>
        <time>2020-02-22T12:04:14.000Z</time>
      </trkpt>
      <trkpt lat="37.91956692002713680267333984375" lon="-1.6782955639064311981201171875">
        <ele>965.79998779296875</ele>
        <time>2020-02-22T12:04:16.000Z</time>
      </trkpt>
      <trkpt lat="37.91919342242181301116943359375" lon="-1.67851877398788928985595703125">
        <ele>964.20001220703125</ele>
        <time>2020-02-22T12:04:22.000Z</time>
      </trkpt>
      <trkpt lat="37.91907959617674350738525390625" lon="-1.6785916127264499664306640625">
        <ele>963.79998779296875</ele>
        <time>2020-02-22T12:04:24.000Z</time>
      </trkpt>
      <trkpt lat="37.91902142576873302459716796875" lon="-1.67862505652010440826416015625">
        <ele>963.5999755859375</ele>
        <time>2020-02-22T12:04:25.000Z</time>
      </trkpt>
      <trkpt lat="37.9184916056692600250244140625" lon="-1.67892001569271087646484375">
        <ele>963.20001220703125</ele>
        <time>2020-02-22T12:04:34.000Z</time>
      </trkpt>
      <trkpt lat="37.91812933981418609619140625" lon="-1.679084636270999908447265625">
        <ele>963.4000244140625</ele>
        <time>2020-02-22T12:04:41.000Z</time>
      </trkpt>
      <trkpt lat="37.91793563403189182281494140625" lon="-1.67913786135613918304443359375">
        <ele>963.5999755859375</ele>
        <time>2020-02-22T12:04:45.000Z</time>
      </trkpt>
      <trkpt lat="37.9178076423704624176025390625" lon="-1.679168455302715301513671875">
        <ele>964.20001220703125</ele>
        <time>2020-02-22T12:04:48.000Z</time>
      </trkpt>
      <trkpt lat="37.91770312003791332244873046875" lon="-1.67920164763927459716796875">
        <ele>965</ele>
        <time>2020-02-22T12:04:51.000Z</time>
      </trkpt>
      <trkpt lat="37.91754470206797122955322265625" lon="-1.6792733967304229736328125">
        <ele>966</ele>
        <time>2020-02-22T12:04:55.000Z</time>
      </trkpt>
      <trkpt lat="37.9175008647143840789794921875" lon="-1.679297871887683868408203125">
        <ele>966.20001220703125</ele>
        <time>2020-02-22T12:04:56.000Z</time>
      </trkpt>
      <trkpt lat="37.91746079921722412109375" lon="-1.6793270409107208251953125">
        <ele>966.20001220703125</ele>
        <time>2020-02-22T12:04:57.000Z</time>
      </trkpt>
      <trkpt lat="37.9173560254275798797607421875" lon="-1.67944245971739292144775390625">
        <ele>967</ele>
        <time>2020-02-22T12:05:00.000Z</time>
      </trkpt>
      <trkpt lat="37.91732878424227237701416015625" lon="-1.6794888116419315338134765625">
        <ele>967.20001220703125</ele>
        <time>2020-02-22T12:05:01.000Z</time>
      </trkpt>
      <trkpt lat="37.91730330325663089752197265625" lon="-1.67953683994710445404052734375">
        <ele>967.4000244140625</ele>
        <time>2020-02-22T12:05:02.000Z</time>
      </trkpt>
      <trkpt lat="37.9171793349087238311767578125" lon="-1.67980170808732509613037109375">
        <ele>968.4000244140625</ele>
        <time>2020-02-22T12:05:07.000Z</time>
      </trkpt>
      <trkpt lat="37.91708637960255146026611328125" lon="-1.6800192184746265411376953125">
        <ele>969</ele>
        <time>2020-02-22T12:05:12.000Z</time>
      </trkpt>
      <trkpt lat="37.917070873081684112548828125" lon="-1.68005584739148616790771484375">
        <ele>969</ele>
        <time>2020-02-22T12:05:13.000Z</time>
      </trkpt>
      <trkpt lat="37.91703206486999988555908203125" lon="-1.6801338829100131988525390625">
        <ele>969.5999755859375</ele>
        <time>2020-02-22T12:05:15.000Z</time>
      </trkpt>
      <trkpt lat="37.91697464883327484130859375" lon="-1.6802944801747798919677734375">
        <ele>970.5999755859375</ele>
        <time>2020-02-22T12:05:19.000Z</time>
      </trkpt>
      <trkpt lat="37.9169624112546443939208984375" lon="-1.68032591231167316436767578125">
        <ele>970.79998779296875</ele>
        <time>2020-02-22T12:05:20.000Z</time>
      </trkpt>
      <trkpt lat="37.9168816097080707550048828125" lon="-1.6804627887904644012451171875">
        <ele>971.79998779296875</ele>
        <time>2020-02-22T12:05:24.000Z</time>
      </trkpt>
      <trkpt lat="37.9168249480426311492919921875" lon="-1.680543422698974609375">
        <ele>972</ele>
        <time>2020-02-22T12:05:26.000Z</time>
      </trkpt>
      <trkpt lat="37.916685305535793304443359375" lon="-1.68065649457275867462158203125">
        <ele>973.20001220703125</ele>
        <time>2020-02-22T12:05:30.000Z</time>
      </trkpt>
      <trkpt lat="37.91665404103696346282958984375" lon="-1.6806676425039768218994140625">
        <ele>973.20001220703125</ele>
        <time>2020-02-22T12:05:31.000Z</time>
      </trkpt>
      <trkpt lat="37.91651909239590167999267578125" lon="-1.68070494197309017181396484375">
        <ele>974.4000244140625</ele>
        <time>2020-02-22T12:05:36.000Z</time>
      </trkpt>
      <trkpt lat="37.91648841463029384613037109375" lon="-1.6806974820792675018310546875">
        <ele>974.5999755859375</ele>
        <time>2020-02-22T12:05:37.000Z</time>
      </trkpt>
      <trkpt lat="37.91632681153714656829833984375" lon="-1.68062615208327770233154296875">
        <ele>975.20001220703125</ele>
        <time>2020-02-22T12:05:41.000Z</time>
      </trkpt>
      <trkpt lat="37.9161604307591915130615234375" lon="-1.6805040277540683746337890625">
        <ele>975.5999755859375</ele>
        <time>2020-02-22T12:05:45.000Z</time>
      </trkpt>
      <trkpt lat="37.9160571657121181488037109375" lon="-1.68044887483119964599609375">
        <ele>975.79998779296875</ele>
        <time>2020-02-22T12:05:48.000Z</time>
      </trkpt>
      <trkpt lat="37.91592598892748355865478515625" lon="-1.68044216930866241455078125">
        <ele>976</ele>
        <time>2020-02-22T12:05:52.000Z</time>
      </trkpt>
      <trkpt lat="37.91572063229978084564208984375" lon="-1.68042029254138469696044921875">
        <ele>976.20001220703125</ele>
        <time>2020-02-22T12:05:57.000Z</time>
      </trkpt>
      <trkpt lat="37.9156757891178131103515625" lon="-1.6804275847971439361572265625">
        <ele>976.5999755859375</ele>
        <time>2020-02-22T12:05:58.000Z</time>
      </trkpt>
      <trkpt lat="37.91548510082066059112548828125" lon="-1.68044225312769412994384765625">
        <ele>977.79998779296875</ele>
        <time>2020-02-22T12:06:02.000Z</time>
      </trkpt>
      <trkpt lat="37.9154010303318500518798828125" lon="-1.68045549653470516204833984375">
        <ele>978</ele>
        <time>2020-02-22T12:06:04.000Z</time>
      </trkpt>
      <trkpt lat="37.91520615108311176300048828125" lon="-1.68049355037510395050048828125">
        <ele>978.5999755859375</ele>
        <time>2020-02-22T12:06:09.000Z</time>
      </trkpt>
      <trkpt lat="37.9151116870343685150146484375" lon="-1.68051190674304962158203125">
        <ele>979</ele>
        <time>2020-02-22T12:06:11.000Z</time>
      </trkpt>
      <trkpt lat="37.914843298494815826416015625" lon="-1.6805844940245151519775390625">
        <ele>979.79998779296875</ele>
        <time>2020-02-22T12:06:17.000Z</time>
      </trkpt>
      <trkpt lat="37.9147157259285449981689453125" lon="-1.68061860837042331695556640625">
        <ele>980.20001220703125</ele>
        <time>2020-02-22T12:06:20.000Z</time>
      </trkpt>
      <trkpt lat="37.9144783504307270050048828125" lon="-1.68069790117442607879638671875">
        <ele>980.5999755859375</ele>
        <time>2020-02-22T12:06:26.000Z</time>
      </trkpt>
      <trkpt lat="37.91435974650084972381591796875" lon="-1.68076269328594207763671875">
        <ele>981.20001220703125</ele>
        <time>2020-02-22T12:06:29.000Z</time>
      </trkpt>
      <trkpt lat="37.91428548283874988555908203125" lon="-1.68082346208393573760986328125">
        <ele>981.4000244140625</ele>
        <time>2020-02-22T12:06:31.000Z</time>
      </trkpt>
      <trkpt lat="37.9142247140407562255859375" lon="-1.680897809565067291259765625">
        <ele>982</ele>
        <time>2020-02-22T12:06:33.000Z</time>
      </trkpt>
      <trkpt lat="37.91417081840336322784423828125" lon="-1.68098120950162410736083984375">
        <ele>982.5999755859375</ele>
        <time>2020-02-22T12:06:35.000Z</time>
      </trkpt>
      <trkpt lat="37.91412320919334888458251953125" lon="-1.68106989003717899322509765625">
        <ele>983</ele>
        <time>2020-02-22T12:06:37.000Z</time>
      </trkpt>
      <trkpt lat="37.9139774478971958160400390625" lon="-1.681351102888584136962890625">
        <ele>984</ele>
        <time>2020-02-22T12:06:43.000Z</time>
      </trkpt>
      <trkpt lat="37.91378944180905818939208984375" lon="-1.68172099627554416656494140625">
        <ele>985</ele>
        <time>2020-02-22T12:06:51.000Z</time>
      </trkpt>
      <trkpt lat="37.9137665592133998870849609375" lon="-1.681766845285892486572265625">
        <ele>985.20001220703125</ele>
        <time>2020-02-22T12:06:52.000Z</time>
      </trkpt>
      <trkpt lat="37.913720794022083282470703125" lon="-1.68185628019273281097412109375">
        <ele>985.4000244140625</ele>
        <time>2020-02-22T12:06:54.000Z</time>
      </trkpt>
      <trkpt lat="37.91360956616699695587158203125" lon="-1.682072617113590240478515625">
        <ele>986.20001220703125</ele>
        <time>2020-02-22T12:06:59.000Z</time>
      </trkpt>
      <trkpt lat="37.91351820342242717742919921875" lon="-1.68225978501141071319580078125">
        <ele>986.79998779296875</ele>
        <time>2020-02-22T12:07:03.000Z</time>
      </trkpt>
      <trkpt lat="37.91347109712660312652587890625" lon="-1.68235248886048793792724609375">
        <ele>987.20001220703125</ele>
        <time>2020-02-22T12:07:05.000Z</time>
      </trkpt>
      <trkpt lat="37.913311757147312164306640625" lon="-1.68264887295663356781005859375">
        <ele>987.79998779296875</ele>
        <time>2020-02-22T12:07:11.000Z</time>
      </trkpt>
      <trkpt lat="37.91328384540975093841552734375" lon="-1.68269698508083820343017578125">
        <ele>987.79998779296875</ele>
        <time>2020-02-22T12:07:12.000Z</time>
      </trkpt>
      <trkpt lat="37.913221232593059539794921875" lon="-1.68278633616864681243896484375">
        <ele>987.79998779296875</ele>
        <time>2020-02-22T12:07:14.000Z</time>
      </trkpt>
      <trkpt lat="37.91307882405817508697509765625" lon="-1.6829310916364192962646484375">
        <ele>988</ele>
        <time>2020-02-22T12:07:18.000Z</time>
      </trkpt>
      <trkpt lat="37.91277229785919189453125" lon="-1.6831724904477596282958984375">
        <ele>988.20001220703125</ele>
        <time>2020-02-22T12:07:25.000Z</time>
      </trkpt>
      <trkpt lat="37.91248505003750324249267578125" lon="-1.6834014840424060821533203125">
        <ele>988.4000244140625</ele>
        <time>2020-02-22T12:07:32.000Z</time>
      </trkpt>
      <trkpt lat="37.9121324233710765838623046875" lon="-1.683666519820690155029296875">
        <ele>989</ele>
        <time>2020-02-22T12:07:41.000Z</time>
      </trkpt>
      <trkpt lat="37.9120901785790920257568359375" lon="-1.68369761668145656585693359375">
        <ele>989.20001220703125</ele>
        <time>2020-02-22T12:07:42.000Z</time>
      </trkpt>
      <trkpt lat="37.91183612309396266937255859375" lon="-1.68388118036091327667236328125">
        <ele>990</ele>
        <time>2020-02-22T12:07:48.000Z</time>
      </trkpt>
      <trkpt lat="37.911796979606151580810546875" lon="-1.68390934355556964874267578125">
        <ele>990.20001220703125</ele>
        <time>2020-02-22T12:07:49.000Z</time>
      </trkpt>
      <trkpt lat="37.911759428679943084716796875" lon="-1.68393700383603572845458984375">
        <ele>990.20001220703125</ele>
        <time>2020-02-22T12:07:50.000Z</time>
      </trkpt>
      <trkpt lat="37.911603190004825592041015625" lon="-1.684100367128849029541015625">
        <ele>991</ele>
        <time>2020-02-22T12:07:55.000Z</time>
      </trkpt>
      <trkpt lat="37.91157527826726436614990234375" lon="-1.68414034880697727203369140625">
        <ele>991.20001220703125</ele>
        <time>2020-02-22T12:07:56.000Z</time>
      </trkpt>
      <trkpt lat="37.91152230463922023773193359375" lon="-1.68422584421932697296142578125">
        <ele>991.79998779296875</ele>
        <time>2020-02-22T12:07:58.000Z</time>
      </trkpt>
      <trkpt lat="37.91149917058646678924560546875" lon="-1.68427144177258014678955078125">
        <ele>992.20001220703125</ele>
        <time>2020-02-22T12:07:59.000Z</time>
      </trkpt>
      <trkpt lat="37.91146044619381427764892578125" lon="-1.6843650676310062408447265625">
        <ele>992.79998779296875</ele>
        <time>2020-02-22T12:08:01.000Z</time>
      </trkpt>
      <trkpt lat="37.91142792440950870513916015625" lon="-1.68446238152682781219482421875">
        <ele>993.5999755859375</ele>
        <time>2020-02-22T12:08:03.000Z</time>
      </trkpt>
      <trkpt lat="37.91136271320283412933349609375" lon="-1.68461476452648639678955078125">
        <ele>994.4000244140625</ele>
        <time>2020-02-22T12:08:06.000Z</time>
      </trkpt>
      <trkpt lat="37.91129297576844692230224609375" lon="-1.68470595963299274444580078125">
        <ele>994.5999755859375</ele>
        <time>2020-02-22T12:08:08.000Z</time>
      </trkpt>
      <trkpt lat="37.9112523235380649566650390625" lon="-1.6847383975982666015625">
        <ele>994.5999755859375</ele>
        <time>2020-02-22T12:08:09.000Z</time>
      </trkpt>
      <trkpt lat="37.91116364300251007080078125" lon="-1.68479480780661106109619140625">
        <ele>995</ele>
        <time>2020-02-22T12:08:11.000Z</time>
      </trkpt>
      <trkpt lat="37.91091914288699626922607421875" lon="-1.68491542339324951171875">
        <ele>995.4000244140625</ele>
        <time>2020-02-22T12:08:16.000Z</time>
      </trkpt>
      <trkpt lat="37.91081872768700122833251953125" lon="-1.6849357075989246368408203125">
        <ele>995.4000244140625</ele>
        <time>2020-02-22T12:08:18.000Z</time>
      </trkpt>
      <trkpt lat="37.910731136798858642578125" lon="-1.6849253140389919281005859375">
        <ele>995.5999755859375</ele>
        <time>2020-02-22T12:08:20.000Z</time>
      </trkpt>
      <trkpt lat="37.91060172021389007568359375" lon="-1.68488147668540477752685546875">
        <ele>995.5999755859375</ele>
        <time>2020-02-22T12:08:23.000Z</time>
      </trkpt>
      <trkpt lat="37.9105522669851779937744140625" lon="-1.68485381640493869781494140625">
        <ele>995.79998779296875</ele>
        <time>2020-02-22T12:08:24.000Z</time>
      </trkpt>
      <trkpt lat="37.91050591506063938140869140625" lon="-1.6848207078874111175537109375">
        <ele>995.79998779296875</ele>
        <time>2020-02-22T12:08:25.000Z</time>
      </trkpt>
      <trkpt lat="37.91012294590473175048828125" lon="-1.68461912311613559722900390625">
        <ele>996.20001220703125</ele>
        <time>2020-02-22T12:08:32.000Z</time>
      </trkpt>
      <trkpt lat="37.9098089598119258880615234375" lon="-1.684579141438007354736328125">
        <ele>996.4000244140625</ele>
        <time>2020-02-22T12:08:38.000Z</time>
      </trkpt>
      <trkpt lat="37.9094525612890720367431640625" lon="-1.68446640484035015106201171875">
        <ele>996.5999755859375</ele>
        <time>2020-02-22T12:08:45.000Z</time>
      </trkpt>
      <trkpt lat="37.909405790269374847412109375" lon="-1.6844418458640575408935546875">
        <ele>996.5999755859375</ele>
        <time>2020-02-22T12:08:46.000Z</time>
      </trkpt>
      <trkpt lat="37.90903438813984394073486328125" lon="-1.68428351171314716339111328125">
        <ele>997.20001220703125</ele>
        <time>2020-02-22T12:08:54.000Z</time>
      </trkpt>
      <trkpt lat="37.90890480391681194305419921875" lon="-1.6842359863221645355224609375">
        <ele>997.79998779296875</ele>
        <time>2020-02-22T12:08:57.000Z</time>
      </trkpt>
      <trkpt lat="37.908740937709808349609375" lon="-1.6842131875455379486083984375">
        <ele>998.5999755859375</ele>
        <time>2020-02-22T12:09:01.000Z</time>
      </trkpt>
      <trkpt lat="37.90865686722099781036376953125" lon="-1.6842309571802616119384765625">
        <ele>998.79998779296875</ele>
        <time>2020-02-22T12:09:03.000Z</time>
      </trkpt>
      <trkpt lat="37.90844815783202648162841796875" lon="-1.68426943011581897735595703125">
        <ele>999.4000244140625</ele>
        <time>2020-02-22T12:09:08.000Z</time>
      </trkpt>
      <trkpt lat="37.90832092054188251495361328125" lon="-1.68429776094853878021240234375">
        <ele>1000</ele>
        <time>2020-02-22T12:09:11.000Z</time>
      </trkpt>
      <trkpt lat="37.90816836990416049957275390625" lon="-1.6843481361865997314453125">
        <ele>1000.5999755859375</ele>
        <time>2020-02-22T12:09:15.000Z</time>
      </trkpt>
      <trkpt lat="37.9081302322447299957275390625" lon="-1.68436045758426189422607421875">
        <ele>1001</ele>
        <time>2020-02-22T12:09:16.000Z</time>
      </trkpt>
      <trkpt lat="37.90791423059999942779541015625" lon="-1.6844180412590503692626953125">
        <ele>1002</ele>
        <time>2020-02-22T12:09:21.000Z</time>
      </trkpt>
      <trkpt lat="37.907742150127887725830078125" lon="-1.6844555921852588653564453125">
        <ele>1002.79998779296875</ele>
        <time>2020-02-22T12:09:25.000Z</time>
      </trkpt>
      <trkpt lat="37.9077015817165374755859375" lon="-1.68446548283100128173828125">
        <ele>1003</ele>
        <time>2020-02-22T12:09:26.000Z</time>
      </trkpt>
      <trkpt lat="37.90744920261204242706298828125" lon="-1.68451870791614055633544921875">
        <ele>1004.20001220703125</ele>
        <time>2020-02-22T12:09:32.000Z</time>
      </trkpt>
      <trkpt lat="37.90732330642640590667724609375" lon="-1.68453748337924480438232421875">
        <ele>1004.79998779296875</ele>
        <time>2020-02-22T12:09:35.000Z</time>
      </trkpt>
      <trkpt lat="37.9072497971355915069580078125" lon="-1.6845511458814144134521484375">
        <ele>1005.20001220703125</ele>
        <time>2020-02-22T12:09:37.000Z</time>
      </trkpt>
      <trkpt lat="37.90708911605179309844970703125" lon="-1.68452910147607326507568359375">
        <ele>1006</ele>
        <time>2020-02-22T12:09:41.000Z</time>
      </trkpt>
      <trkpt lat="37.907001189887523651123046875" lon="-1.684491299092769622802734375">
        <ele>1006.4000244140625</ele>
        <time>2020-02-22T12:09:43.000Z</time>
      </trkpt>
      <trkpt lat="37.9067659936845302581787109375" lon="-1.6843345575034618377685546875">
        <ele>1006.5999755859375</ele>
        <time>2020-02-22T12:09:48.000Z</time>
      </trkpt>
      <trkpt lat="37.906503640115261077880859375" lon="-1.68414319865405559539794921875">
        <ele>1007</ele>
        <time>2020-02-22T12:09:54.000Z</time>
      </trkpt>
      <trkpt lat="37.9064233414828777313232421875" lon="-1.68408787809312343597412109375">
        <ele>1006.79998779296875</ele>
        <time>2020-02-22T12:09:56.000Z</time>
      </trkpt>
      <trkpt lat="37.9063160531222820281982421875" lon="-1.6840090043842792510986328125">
        <ele>1007.20001220703125</ele>
        <time>2020-02-22T12:09:59.000Z</time>
      </trkpt>
      <trkpt lat="37.9062322340905666351318359375" lon="-1.68395058251917362213134765625">
        <ele>1007</ele>
        <time>2020-02-22T12:10:02.000Z</time>
      </trkpt>
      <trkpt lat="37.90621253661811351776123046875" lon="-1.683931387960910797119140625">
        <ele>1007.20001220703125</ele>
        <time>2020-02-22T12:10:03.000Z</time>
      </trkpt>
      <trkpt lat="37.90620298124849796295166015625" lon="-1.6839087568223476409912109375">
        <ele>1007.20001220703125</ele>
        <time>2020-02-22T12:10:04.000Z</time>
      </trkpt>
      <trkpt lat="37.90619208477437496185302734375" lon="-1.68387464247643947601318359375">
        <ele>1007.4000244140625</ele>
        <time>2020-02-22T12:10:06.000Z</time>
      </trkpt>
      <trkpt lat="37.90619024075567722320556640625" lon="-1.68386206962168216705322265625">
        <ele>1007.5999755859375</ele>
        <time>2020-02-22T12:10:08.000Z</time>
      </trkpt>
      <trkpt lat="37.90610005147755146026611328125" lon="-1.68383860029280185699462890625">
        <ele>1009.20001220703125</ele>
        <time>2020-02-22T12:11:26.000Z</time>
      </trkpt>
      <trkpt lat="37.90608756244182586669921875" lon="-1.68382837437093257904052734375">
        <ele>1009.20001220703125</ele>
        <time>2020-02-22T12:11:27.000Z</time>
      </trkpt>
      <trkpt lat="37.905955128371715545654296875" lon="-1.68372762389481067657470703125">
        <ele>1009.20001220703125</ele>
        <time>2020-02-22T12:11:36.000Z</time>
      </trkpt>
      <trkpt lat="37.905943393707275390625" lon="-1.6837156377732753753662109375">
        <ele>1009.20001220703125</ele>
        <time>2020-02-22T12:11:39.000Z</time>
      </trkpt>
      <trkpt lat="37.90589469484984874725341796875" lon="-1.68368034996092319488525390625">
        <ele>1009.4000244140625</ele>
        <time>2020-02-22T12:11:49.000Z</time>
      </trkpt>
      <trkpt lat="37.9058776795864105224609375" lon="-1.6836670227348804473876953125">
        <ele>1009.4000244140625</ele>
        <time>2020-02-22T12:11:50.000Z</time>
      </trkpt>
      <trkpt lat="37.905814312398433685302734375" lon="-1.68361916206777095794677734375">
        <ele>1009.4000244140625</ele>
        <time>2020-02-22T12:11:53.000Z</time>
      </trkpt>
      <trkpt lat="37.905728481709957122802734375" lon="-1.68355621397495269775390625">
        <ele>1009.4000244140625</ele>
        <time>2020-02-22T12:11:56.000Z</time>
      </trkpt>
      <trkpt lat="37.9056537151336669921875" lon="-1.6834950260818004608154296875">
        <ele>1009.20001220703125</ele>
        <time>2020-02-22T12:11:58.000Z</time>
      </trkpt>
      <trkpt lat="37.90548599325120449066162109375" lon="-1.68337172828614711761474609375">
        <ele>1008.79998779296875</ele>
        <time>2020-02-22T12:12:02.000Z</time>
      </trkpt>
      <trkpt lat="37.90532623417675495147705078125" lon="-1.6832888312637805938720703125">
        <ele>1008.20001220703125</ele>
        <time>2020-02-22T12:12:05.000Z</time>
      </trkpt>
      <trkpt lat="37.905268482863903045654296875" lon="-1.683263517916202545166015625">
        <ele>1007.79998779296875</ele>
        <time>2020-02-22T12:12:06.000Z</time>
      </trkpt>
      <trkpt lat="37.9051489569246768951416015625" lon="-1.683209873735904693603515625">
        <ele>1007.4000244140625</ele>
        <time>2020-02-22T12:12:08.000Z</time>
      </trkpt>
      <trkpt lat="37.90502406656742095947265625" lon="-1.68315296061336994171142578125">
        <ele>1007</ele>
        <time>2020-02-22T12:12:10.000Z</time>
      </trkpt>
      <trkpt lat="37.904956676065921783447265625" lon="-1.6831248812377452850341796875">
        <ele>1006.79998779296875</ele>
        <time>2020-02-22T12:12:11.000Z</time>
      </trkpt>
      <trkpt lat="37.90482013486325740814208984375" lon="-1.68307668529450893402099609375">
        <ele>1005.5999755859375</ele>
        <time>2020-02-22T12:12:13.000Z</time>
      </trkpt>
      <trkpt lat="37.90474972687661647796630859375" lon="-1.68305807746946811676025390625">
        <ele>1005.4000244140625</ele>
        <time>2020-02-22T12:12:14.000Z</time>
      </trkpt>
      <trkpt lat="37.9046017862856388092041015625" lon="-1.68304257094860076904296875">
        <ele>1004.4000244140625</ele>
        <time>2020-02-22T12:12:16.000Z</time>
      </trkpt>
      <trkpt lat="37.90444948710501194000244140625" lon="-1.68305891565978527069091796875">
        <ele>1003.4000244140625</ele>
        <time>2020-02-22T12:12:18.000Z</time>
      </trkpt>
      <trkpt lat="37.90437555871903896331787109375" lon="-1.68307232670485973358154296875">
        <ele>1003.20001220703125</ele>
        <time>2020-02-22T12:12:19.000Z</time>
      </trkpt>
      <trkpt lat="37.9042222537100315093994140625" lon="-1.6831009089946746826171875">
        <ele>1002.4000244140625</ele>
        <time>2020-02-22T12:12:21.000Z</time>
      </trkpt>
      <trkpt lat="37.904064841568470001220703125" lon="-1.68313552625477313995361328125">
        <ele>1001.79998779296875</ele>
        <time>2020-02-22T12:12:23.000Z</time>
      </trkpt>
      <trkpt lat="37.9038246162235736846923828125" lon="-1.68318246491253376007080078125">
        <ele>1000.5999755859375</ele>
        <time>2020-02-22T12:12:26.000Z</time>
      </trkpt>
      <trkpt lat="37.9037414677441120147705078125" lon="-1.68319671414792537689208984375">
        <ele>1000.20001220703125</ele>
        <time>2020-02-22T12:12:27.000Z</time>
      </trkpt>
      <trkpt lat="37.9035724885761737823486328125" lon="-1.6832271404564380645751953125">
        <ele>999.20001220703125</ele>
        <time>2020-02-22T12:12:29.000Z</time>
      </trkpt>
      <trkpt lat="37.90330820716917514801025390625" lon="-1.683270223438739776611328125">
        <ele>998</ele>
        <time>2020-02-22T12:12:32.000Z</time>
      </trkpt>
      <trkpt lat="37.90312799625098705291748046875" lon="-1.6833002306520938873291015625">
        <ele>997</ele>
        <time>2020-02-22T12:12:34.000Z</time>
      </trkpt>
      <trkpt lat="37.90303864516317844390869140625" lon="-1.68331473134458065032958984375">
        <ele>996.79998779296875</ele>
        <time>2020-02-22T12:12:35.000Z</time>
      </trkpt>
      <trkpt lat="37.902947030961513519287109375" lon="-1.6833304055035114288330078125">
        <ele>996.5999755859375</ele>
        <time>2020-02-22T12:12:36.000Z</time>
      </trkpt>
      <trkpt lat="37.902762629091739654541015625" lon="-1.68336175382137298583984375">
        <ele>995.5999755859375</ele>
        <time>2020-02-22T12:12:38.000Z</time>
      </trkpt>
      <trkpt lat="37.90257713757455348968505859375" lon="-1.6833951137959957122802734375">
        <ele>994.4000244140625</ele>
        <time>2020-02-22T12:12:40.000Z</time>
      </trkpt>
      <trkpt lat="37.9024841822683811187744140625" lon="-1.68340978212654590606689453125">
        <ele>993</ele>
        <time>2020-02-22T12:12:41.000Z</time>
      </trkpt>
      <trkpt lat="37.9022109322249889373779296875" lon="-1.68348572216928005218505859375">
        <ele>991.79998779296875</ele>
        <time>2020-02-22T12:12:44.000Z</time>
      </trkpt>
      <trkpt lat="37.90204321034252643585205078125" lon="-1.68358228169381618499755859375">
        <ele>991.5999755859375</ele>
        <time>2020-02-22T12:12:46.000Z</time>
      </trkpt>
      <trkpt lat="37.901887558400630950927734375" lon="-1.68369929306209087371826171875">
        <ele>991</ele>
        <time>2020-02-22T12:12:48.000Z</time>
      </trkpt>
      <trkpt lat="37.901810444891452789306640625" lon="-1.68376006186008453369140625">
        <ele>990.79998779296875</ele>
        <time>2020-02-22T12:12:49.000Z</time>
      </trkpt>
      <trkpt lat="37.901653535664081573486328125" lon="-1.683881096541881561279296875">
        <ele>990.20001220703125</ele>
        <time>2020-02-22T12:12:51.000Z</time>
      </trkpt>
      <trkpt lat="37.90149134583771228790283203125" lon="-1.68400523252785205841064453125">
        <ele>989.4000244140625</ele>
        <time>2020-02-22T12:12:53.000Z</time>
      </trkpt>
      <trkpt lat="37.9013261385262012481689453125" lon="-1.68412777595221996307373046875">
        <ele>989</ele>
        <time>2020-02-22T12:12:55.000Z</time>
      </trkpt>
      <trkpt lat="37.9012426547706127166748046875" lon="-1.68418862856924533843994140625">
        <ele>988.79998779296875</ele>
        <time>2020-02-22T12:12:56.000Z</time>
      </trkpt>
      <trkpt lat="37.90107342414557933807373046875" lon="-1.68431418947875499725341796875">
        <ele>988.4000244140625</ele>
        <time>2020-02-22T12:12:58.000Z</time>
      </trkpt>
      <trkpt lat="37.90066237561404705047607421875" lon="-1.684628091752529144287109375">
        <ele>987.20001220703125</ele>
        <time>2020-02-22T12:13:03.000Z</time>
      </trkpt>
      <trkpt lat="37.90041544474661350250244140625" lon="-1.68481308035552501678466796875">
        <ele>986.5999755859375</ele>
        <time>2020-02-22T12:13:06.000Z</time>
      </trkpt>
      <trkpt lat="37.9003333859145641326904296875" lon="-1.68487443588674068450927734375">
        <ele>986.20001220703125</ele>
        <time>2020-02-22T12:13:07.000Z</time>
      </trkpt>
      <trkpt lat="37.9000916518270969390869140625" lon="-1.68506219051778316497802734375">
        <ele>985.20001220703125</ele>
        <time>2020-02-22T12:13:10.000Z</time>
      </trkpt>
      <trkpt lat="37.899760566651821136474609375" lon="-1.685306690633296966552734375">
        <ele>984.20001220703125</ele>
        <time>2020-02-22T12:13:14.000Z</time>
      </trkpt>
      <trkpt lat="37.8996782563626766204833984375" lon="-1.68536812998354434967041015625">
        <ele>984</ele>
        <time>2020-02-22T12:13:15.000Z</time>
      </trkpt>
      <trkpt lat="37.8992843069136142730712890625" lon="-1.68567054904997348785400390625">
        <ele>982.79998779296875</ele>
        <time>2020-02-22T12:13:20.000Z</time>
      </trkpt>
      <trkpt lat="37.8989074565470218658447265625" lon="-1.68595268391072750091552734375">
        <ele>981.79998779296875</ele>
        <time>2020-02-22T12:13:25.000Z</time>
      </trkpt>
      <trkpt lat="37.89883612655103206634521484375" lon="-1.68600683100521564483642578125">
        <ele>981.4000244140625</ele>
        <time>2020-02-22T12:13:26.000Z</time>
      </trkpt>
      <trkpt lat="37.8984873555600643157958984375" lon="-1.68632048182189464569091796875">
        <ele>980.4000244140625</ele>
        <time>2020-02-22T12:13:31.000Z</time>
      </trkpt>
      <trkpt lat="37.8984236530959606170654296875" lon="-1.6863998584449291229248046875">
        <ele>980.4000244140625</ele>
        <time>2020-02-22T12:13:32.000Z</time>
      </trkpt>
      <trkpt lat="37.89811762981116771697998046875" lon="-1.68682658113539218902587890625">
        <ele>980</ele>
        <time>2020-02-22T12:13:37.000Z</time>
      </trkpt>
      <trkpt lat="37.897999025881290435791015625" lon="-1.686999835073947906494140625">
        <ele>979.5999755859375</ele>
        <time>2020-02-22T12:13:39.000Z</time>
      </trkpt>
      <trkpt lat="37.89793993346393108367919921875" lon="-1.687090359628200531005859375">
        <ele>979</ele>
        <time>2020-02-22T12:13:40.000Z</time>
      </trkpt>
      <trkpt lat="37.89776307530701160430908203125" lon="-1.687361933290958404541015625">
        <ele>978</ele>
        <time>2020-02-22T12:13:43.000Z</time>
      </trkpt>
      <trkpt lat="37.897703982889652252197265625" lon="-1.68745388276875019073486328125">
        <ele>976.79998779296875</ele>
        <time>2020-02-22T12:13:44.000Z</time>
      </trkpt>
      <trkpt lat="37.89758437313139438629150390625" lon="-1.687635518610477447509765625">
        <ele>975.20001220703125</ele>
        <time>2020-02-22T12:13:46.000Z</time>
      </trkpt>
      <trkpt lat="37.8975220955908298492431640625" lon="-1.687727384269237518310546875">
        <ele>974.79998779296875</ele>
        <time>2020-02-22T12:13:47.000Z</time>
      </trkpt>
      <trkpt lat="37.8974604047834873199462890625" lon="-1.68782092630863189697265625">
        <ele>974.4000244140625</ele>
        <time>2020-02-22T12:13:48.000Z</time>
      </trkpt>
      <trkpt lat="37.89739678613841533660888671875" lon="-1.68791539035737514495849609375">
        <ele>974.20001220703125</ele>
        <time>2020-02-22T12:13:49.000Z</time>
      </trkpt>
      <trkpt lat="37.89733207784593105316162109375" lon="-1.68801002204418182373046875">
        <ele>973.4000244140625</ele>
        <time>2020-02-22T12:13:50.000Z</time>
      </trkpt>
      <trkpt lat="37.8972672857344150543212890625" lon="-1.68810582719743251800537109375">
        <ele>973</ele>
        <time>2020-02-22T12:13:51.000Z</time>
      </trkpt>
      <trkpt lat="37.897135354578495025634765625" lon="-1.6883015446364879608154296875">
        <ele>971.79998779296875</ele>
        <time>2020-02-22T12:13:53.000Z</time>
      </trkpt>
      <trkpt lat="37.8969323448836803436279296875" lon="-1.68860136531293392181396484375">
        <ele>970.4000244140625</ele>
        <time>2020-02-22T12:13:56.000Z</time>
      </trkpt>
      <trkpt lat="37.89686344563961029052734375" lon="-1.68870270252227783203125">
        <ele>970</ele>
        <time>2020-02-22T12:13:57.000Z</time>
      </trkpt>
      <trkpt lat="37.89679370820522308349609375" lon="-1.68880571611225605010986328125">
        <ele>969.4000244140625</ele>
        <time>2020-02-22T12:13:58.000Z</time>
      </trkpt>
      <trkpt lat="37.89665649645030498504638671875" lon="-1.68900956399738788604736328125">
        <ele>968.20001220703125</ele>
        <time>2020-02-22T12:14:00.000Z</time>
      </trkpt>
      <trkpt lat="37.89651819504797458648681640625" lon="-1.68920838274061679840087890625">
        <ele>966.5999755859375</ele>
        <time>2020-02-22T12:14:02.000Z</time>
      </trkpt>
      <trkpt lat="37.896389029920101165771484375" lon="-1.68939915485680103302001953125">
        <ele>965</ele>
        <time>2020-02-22T12:14:04.000Z</time>
      </trkpt>
      <trkpt lat="37.89632591418921947479248046875" lon="-1.68949370272457599639892578125">
        <ele>964.20001220703125</ele>
        <time>2020-02-22T12:14:05.000Z</time>
      </trkpt>
      <trkpt lat="37.89626388810575008392333984375" lon="-1.68958858586847782135009765625">
        <ele>964</ele>
        <time>2020-02-22T12:14:06.000Z</time>
      </trkpt>
      <trkpt lat="37.89610966108739376068115234375" lon="-1.689897961914539337158203125">
        <ele>962.79998779296875</ele>
        <time>2020-02-22T12:14:09.000Z</time>
      </trkpt>
      <trkpt lat="37.896069176495075225830078125" lon="-1.69000734575092792510986328125">
        <ele>962.5999755859375</ele>
        <time>2020-02-22T12:14:10.000Z</time>
      </trkpt>
      <trkpt lat="37.8959878720343112945556640625" lon="-1.69022686779499053955078125">
        <ele>962.4000244140625</ele>
        <time>2020-02-22T12:14:12.000Z</time>
      </trkpt>
      <trkpt lat="37.89594789035618305206298828125" lon="-1.6903373412787914276123046875">
        <ele>962.4000244140625</ele>
        <time>2020-02-22T12:14:13.000Z</time>
      </trkpt>
      <trkpt lat="37.89586893282830715179443359375" lon="-1.690561138093471527099609375">
        <ele>962.20001220703125</ele>
        <time>2020-02-22T12:14:15.000Z</time>
      </trkpt>
      <trkpt lat="37.8957042284309864044189453125" lon="-1.6910095699131488800048828125">
        <ele>961.79998779296875</ele>
        <time>2020-02-22T12:14:19.000Z</time>
      </trkpt>
      <trkpt lat="37.8956110216677188873291015625" lon="-1.69122154824435710906982421875">
        <ele>960.79998779296875</ele>
        <time>2020-02-22T12:14:21.000Z</time>
      </trkpt>
      <trkpt lat="37.89555452764034271240234375" lon="-1.69131609611213207244873046875">
        <ele>960.4000244140625</ele>
        <time>2020-02-22T12:14:22.000Z</time>
      </trkpt>
      <trkpt lat="37.89541932754218578338623046875" lon="-1.6914769448339939117431640625">
        <ele>959.4000244140625</ele>
        <time>2020-02-22T12:14:24.000Z</time>
      </trkpt>
      <trkpt lat="37.89527297951281070709228515625" lon="-1.69161901809275150299072265625">
        <ele>958.79998779296875</ele>
        <time>2020-02-22T12:14:26.000Z</time>
      </trkpt>
      <trkpt lat="37.8951999731361865997314453125" lon="-1.6916895098984241485595703125">
        <ele>958.20001220703125</ele>
        <time>2020-02-22T12:14:27.000Z</time>
      </trkpt>
      <trkpt lat="37.8949847258627414703369140625" lon="-1.6918997280299663543701171875">
        <ele>956.79998779296875</ele>
        <time>2020-02-22T12:14:30.000Z</time>
      </trkpt>
      <trkpt lat="37.89477559737861156463623046875" lon="-1.6921002231538295745849609375">
        <ele>955.5999755859375</ele>
        <time>2020-02-22T12:14:33.000Z</time>
      </trkpt>
      <trkpt lat="37.89457283914089202880859375" lon="-1.6922946833074092864990234375">
        <ele>954.20001220703125</ele>
        <time>2020-02-22T12:14:36.000Z</time>
      </trkpt>
      <trkpt lat="37.8944372199475765228271484375" lon="-1.692427955567836761474609375">
        <ele>953</ele>
        <time>2020-02-22T12:14:38.000Z</time>
      </trkpt>
      <trkpt lat="37.894233204424381256103515625" lon="-1.69263222254812717437744140625">
        <ele>952.5999755859375</ele>
        <time>2020-02-22T12:14:41.000Z</time>
      </trkpt>
      <trkpt lat="37.89402541704475879669189453125" lon="-1.6928371600806713104248046875">
        <ele>952.20001220703125</ele>
        <time>2020-02-22T12:14:44.000Z</time>
      </trkpt>
      <trkpt lat="37.893954254686832427978515625" lon="-1.6929062269628047943115234375">
        <ele>952</ele>
        <time>2020-02-22T12:14:45.000Z</time>
      </trkpt>
      <trkpt lat="37.893882505595684051513671875" lon="-1.69297638349235057830810546875">
        <ele>951.79998779296875</ele>
        <time>2020-02-22T12:14:46.000Z</time>
      </trkpt>
      <trkpt lat="37.893648482859134674072265625" lon="-1.693162210285663604736328125">
        <ele>951.20001220703125</ele>
        <time>2020-02-22T12:14:49.000Z</time>
      </trkpt>
      <trkpt lat="37.89355988614261150360107421875" lon="-1.69319598935544490814208984375">
        <ele>951</ele>
        <time>2020-02-22T12:14:50.000Z</time>
      </trkpt>
      <trkpt lat="37.8934665955603122711181640625" lon="-1.69321057386696338653564453125">
        <ele>950.79998779296875</ele>
        <time>2020-02-22T12:14:51.000Z</time>
      </trkpt>
      <trkpt lat="37.893267609179019927978515625" lon="-1.6931908763945102691650390625">
        <ele>950.4000244140625</ele>
        <time>2020-02-22T12:14:53.000Z</time>
      </trkpt>
      <trkpt lat="37.8931641764938831329345703125" lon="-1.6931721009314060211181640625">
        <ele>950.20001220703125</ele>
        <time>2020-02-22T12:14:54.000Z</time>
      </trkpt>
      <trkpt lat="37.89295974187552928924560546875" lon="-1.69314066879451274871826171875">
        <ele>949.4000244140625</ele>
        <time>2020-02-22T12:14:56.000Z</time>
      </trkpt>
      <trkpt lat="37.89275564253330230712890625" lon="-1.6931134276092052459716796875">
        <ele>948</ele>
        <time>2020-02-22T12:14:58.000Z</time>
      </trkpt>
      <trkpt lat="37.892452217638492584228515625" lon="-1.69307143427431583404541015625">
        <ele>947</ele>
        <time>2020-02-22T12:15:01.000Z</time>
      </trkpt>
      <trkpt lat="37.89235532283782958984375" lon="-1.693058274686336517333984375">
        <ele>946.4000244140625</ele>
        <time>2020-02-22T12:15:02.000Z</time>
      </trkpt>
      <trkpt lat="37.892261110246181488037109375" lon="-1.6930457018315792083740234375">
        <ele>945.4000244140625</ele>
        <time>2020-02-22T12:15:03.000Z</time>
      </trkpt>
      <trkpt lat="37.89208316244184970855712890625" lon="-1.69302265159785747528076171875">
        <ele>944.4000244140625</ele>
        <time>2020-02-22T12:15:05.000Z</time>
      </trkpt>
      <trkpt lat="37.891998924314975738525390625" lon="-1.693011336028575897216796875">
        <ele>944</ele>
        <time>2020-02-22T12:15:06.000Z</time>
      </trkpt>
      <trkpt lat="37.89191703312098979949951171875" lon="-1.69300152920186519622802734375">
        <ele>943.4000244140625</ele>
        <time>2020-02-22T12:15:07.000Z</time>
      </trkpt>
      <trkpt lat="37.89184344001114368438720703125" lon="-1.692993901669979095458984375">
        <ele>943.4000244140625</ele>
        <time>2020-02-22T12:15:08.000Z</time>
      </trkpt>
      <trkpt lat="37.8917768038809299468994140625" lon="-1.69298862107098102569580078125">
        <ele>943.20001220703125</ele>
        <time>2020-02-22T12:15:09.000Z</time>
      </trkpt>
      <trkpt lat="37.89153280667960643768310546875" lon="-1.69299767352640628814697265625">
        <ele>943</ele>
        <time>2020-02-22T12:15:13.000Z</time>
      </trkpt>
      <trkpt lat="37.8914103470742702484130859375" lon="-1.69304310344159603118896484375">
        <ele>942.79998779296875</ele>
        <time>2020-02-22T12:15:15.000Z</time>
      </trkpt>
      <trkpt lat="37.89127933792769908905029296875" lon="-1.69311652891337871551513671875">
        <ele>942.5999755859375</ele>
        <time>2020-02-22T12:15:17.000Z</time>
      </trkpt>
      <trkpt lat="37.8910797648131847381591796875" lon="-1.69325147755444049835205078125">
        <ele>942.4000244140625</ele>
        <time>2020-02-22T12:15:20.000Z</time>
      </trkpt>
      <trkpt lat="37.8909379430115222930908203125" lon="-1.6933544911444187164306640625">
        <ele>942.20001220703125</ele>
        <time>2020-02-22T12:15:22.000Z</time>
      </trkpt>
      <trkpt lat="37.890863679349422454833984375" lon="-1.6934072971343994140625">
        <ele>941.79998779296875</ele>
        <time>2020-02-22T12:15:23.000Z</time>
      </trkpt>
      <trkpt lat="37.89071288891136646270751953125" lon="-1.69351131655275821685791015625">
        <ele>941.20001220703125</ele>
        <time>2020-02-22T12:15:25.000Z</time>
      </trkpt>
      <trkpt lat="37.89055891335010528564453125" lon="-1.693608798086643218994140625">
        <ele>940.5999755859375</ele>
        <time>2020-02-22T12:15:27.000Z</time>
      </trkpt>
      <trkpt lat="37.89039940573275089263916015625" lon="-1.693708710372447967529296875">
        <ele>940.4000244140625</ele>
        <time>2020-02-22T12:15:29.000Z</time>
      </trkpt>
      <trkpt lat="37.8902385570108890533447265625" lon="-1.69380501843988895416259765625">
        <ele>939.79998779296875</ele>
        <time>2020-02-22T12:15:31.000Z</time>
      </trkpt>
      <trkpt lat="37.89015985094010829925537109375" lon="-1.69385396875441074371337890625">
        <ele>939.5999755859375</ele>
        <time>2020-02-22T12:15:32.000Z</time>
      </trkpt>
      <trkpt lat="37.88991811685264110565185546875" lon="-1.6940002329647541046142578125">
        <ele>939</ele>
        <time>2020-02-22T12:15:35.000Z</time>
      </trkpt>
      <trkpt lat="37.88956155069172382354736328125" lon="-1.69422478415071964263916015625">
        <ele>938.4000244140625</ele>
        <time>2020-02-22T12:15:39.000Z</time>
      </trkpt>
      <trkpt lat="37.889268435537815093994140625" lon="-1.69440549798309803009033203125">
        <ele>937.20001220703125</ele>
        <time>2020-02-22T12:15:42.000Z</time>
      </trkpt>
      <trkpt lat="37.889064252376556396484375" lon="-1.694531142711639404296875">
        <ele>936</ele>
        <time>2020-02-22T12:15:44.000Z</time>
      </trkpt>
      <trkpt lat="37.88895956240594387054443359375" lon="-1.694595851004123687744140625">
        <ele>935.5999755859375</ele>
        <time>2020-02-22T12:15:45.000Z</time>
      </trkpt>
      <trkpt lat="37.88885302841663360595703125" lon="-1.69466265477240085601806640625">
        <ele>935</ele>
        <time>2020-02-22T12:15:46.000Z</time>
      </trkpt>
      <trkpt lat="37.88865261711180210113525390625" lon="-1.6948159597814083099365234375">
        <ele>933.5999755859375</ele>
        <time>2020-02-22T12:15:48.000Z</time>
      </trkpt>
      <trkpt lat="37.88846335373818874359130859375" lon="-1.69499315321445465087890625">
        <ele>932.5999755859375</ele>
        <time>2020-02-22T12:15:50.000Z</time>
      </trkpt>
      <trkpt lat="37.88827358745038509368896484375" lon="-1.69517420232295989990234375">
        <ele>930.79998779296875</ele>
        <time>2020-02-22T12:15:52.000Z</time>
      </trkpt>
      <trkpt lat="37.8880800493061542510986328125" lon="-1.69535768218338489532470703125">
        <ele>929</ele>
        <time>2020-02-22T12:15:54.000Z</time>
      </trkpt>
      <trkpt lat="37.8879804722964763641357421875" lon="-1.69545038603246212005615234375">
        <ele>927.79998779296875</ele>
        <time>2020-02-22T12:15:55.000Z</time>
      </trkpt>
      <trkpt lat="37.8877803124487400054931640625" lon="-1.69563462026417255401611328125">
        <ele>926</ele>
        <time>2020-02-22T12:15:57.000Z</time>
      </trkpt>
      <trkpt lat="37.887579314410686492919921875" lon="-1.695824302732944488525390625">
        <ele>924.4000244140625</ele>
        <time>2020-02-22T12:15:59.000Z</time>
      </trkpt>
      <trkpt lat="37.8873742930591106414794921875" lon="-1.6960145719349384307861328125">
        <ele>922.5999755859375</ele>
        <time>2020-02-22T12:16:01.000Z</time>
      </trkpt>
      <trkpt lat="37.887170948088169097900390625" lon="-1.6962083615362644195556640625">
        <ele>921</ele>
        <time>2020-02-22T12:16:03.000Z</time>
      </trkpt>
      <trkpt lat="37.886967770755290985107421875" lon="-1.6963993012905120849609375">
        <ele>919.20001220703125</ele>
        <time>2020-02-22T12:16:05.000Z</time>
      </trkpt>
      <trkpt lat="37.88676652126014232635498046875" lon="-1.696588061749935150146484375">
        <ele>917.5999755859375</ele>
        <time>2020-02-22T12:16:07.000Z</time>
      </trkpt>
      <trkpt lat="37.8866661898791790008544921875" lon="-1.69668336398899555206298828125">
        <ele>916.4000244140625</ele>
        <time>2020-02-22T12:16:08.000Z</time>
      </trkpt>
      <trkpt lat="37.8865646012127399444580078125" lon="-1.69678059406578540802001953125">
        <ele>915</ele>
        <time>2020-02-22T12:16:09.000Z</time>
      </trkpt>
      <trkpt lat="37.8864626772701740264892578125" lon="-1.69687681831419467926025390625">
        <ele>914</ele>
        <time>2020-02-22T12:16:10.000Z</time>
      </trkpt>
      <trkpt lat="37.8863600827753543853759765625" lon="-1.6969724558293819427490234375">
        <ele>912.79998779296875</ele>
        <time>2020-02-22T12:16:11.000Z</time>
      </trkpt>
      <trkpt lat="37.88615631870925426483154296875" lon="-1.6971665807068347930908203125">
        <ele>911.20001220703125</ele>
        <time>2020-02-22T12:16:13.000Z</time>
      </trkpt>
      <trkpt lat="37.88594760932028293609619140625" lon="-1.69736162759363651275634765625">
        <ele>909.20001220703125</ele>
        <time>2020-02-22T12:16:15.000Z</time>
      </trkpt>
      <trkpt lat="37.8857461921870708465576171875" lon="-1.6975471191108226776123046875">
        <ele>907.5999755859375</ele>
        <time>2020-02-22T12:16:17.000Z</time>
      </trkpt>
      <trkpt lat="37.88564586080610752105712890625" lon="-1.697637140750885009765625">
        <ele>906.5999755859375</ele>
        <time>2020-02-22T12:16:18.000Z</time>
      </trkpt>
      <trkpt lat="37.885461039841175079345703125" lon="-1.69781223870813846588134765625">
        <ele>904.5999755859375</ele>
        <time>2020-02-22T12:16:20.000Z</time>
      </trkpt>
      <trkpt lat="37.88529130630195140838623046875" lon="-1.69797979295253753662109375">
        <ele>902.79998779296875</ele>
        <time>2020-02-22T12:16:22.000Z</time>
      </trkpt>
      <trkpt lat="37.88520614616572856903076171875" lon="-1.69805984012782573699951171875">
        <ele>902.4000244140625</ele>
        <time>2020-02-22T12:16:23.000Z</time>
      </trkpt>
      <trkpt lat="37.88468194194138050079345703125" lon="-1.698482036590576171875">
        <ele>902</ele>
        <time>2020-02-22T12:16:29.000Z</time>
      </trkpt>
      <trkpt lat="37.8842119686305522918701171875" lon="-1.698648668825626373291015625">
        <ele>902</ele>
        <time>2020-02-22T12:16:34.000Z</time>
      </trkpt>
      <trkpt lat="37.88364225067198276519775390625" lon="-1.698859222233295440673828125">
        <ele>901.79998779296875</ele>
        <time>2020-02-22T12:16:40.000Z</time>
      </trkpt>
      <trkpt lat="37.8833583556115627288818359375" lon="-1.698965169489383697509765625">
        <ele>901.4000244140625</ele>
        <time>2020-02-22T12:16:43.000Z</time>
      </trkpt>
      <trkpt lat="37.88307529874145984649658203125" lon="-1.69907086528837680816650390625">
        <ele>900.4000244140625</ele>
        <time>2020-02-22T12:16:46.000Z</time>
      </trkpt>
      <trkpt lat="37.8828842751681804656982421875" lon="-1.69914655387401580810546875">
        <ele>899.20001220703125</ele>
        <time>2020-02-22T12:16:48.000Z</time>
      </trkpt>
      <trkpt lat="37.8825868852436542510986328125" lon="-1.69925878755748271942138671875">
        <ele>898</ele>
        <time>2020-02-22T12:16:51.000Z</time>
      </trkpt>
      <trkpt lat="37.88238831795752048492431640625" lon="-1.69934964738786220550537109375">
        <ele>897.5999755859375</ele>
        <time>2020-02-22T12:16:53.000Z</time>
      </trkpt>
      <trkpt lat="37.88219989277422428131103515625" lon="-1.699474789202213287353515625">
        <ele>896.79998779296875</ele>
        <time>2020-02-22T12:16:55.000Z</time>
      </trkpt>
      <trkpt lat="37.882019765675067901611328125" lon="-1.6996214725077152252197265625">
        <ele>895.79998779296875</ele>
        <time>2020-02-22T12:16:57.000Z</time>
      </trkpt>
      <trkpt lat="37.8818375431001186370849609375" lon="-1.69977008365094661712646484375">
        <ele>894.4000244140625</ele>
        <time>2020-02-22T12:16:59.000Z</time>
      </trkpt>
      <trkpt lat="37.88155213929712772369384765625" lon="-1.69999153353273868560791015625">
        <ele>892.79998779296875</ele>
        <time>2020-02-22T12:17:02.000Z</time>
      </trkpt>
      <trkpt lat="37.88126095198094844818115234375" lon="-1.70021516270935535430908203125">
        <ele>891</ele>
        <time>2020-02-22T12:17:05.000Z</time>
      </trkpt>
      <trkpt lat="37.8811643086373805999755859375" lon="-1.70029009692370891571044921875">
        <ele>890.5999755859375</ele>
        <time>2020-02-22T12:17:06.000Z</time>
      </trkpt>
      <trkpt lat="37.8810680843889713287353515625" lon="-1.70036570169031620025634765625">
        <ele>889.79998779296875</ele>
        <time>2020-02-22T12:17:07.000Z</time>
      </trkpt>
      <trkpt lat="37.880874462425708770751953125" lon="-1.70052043162286281585693359375">
        <ele>888.79998779296875</ele>
        <time>2020-02-22T12:17:09.000Z</time>
      </trkpt>
      <trkpt lat="37.88067589513957500457763671875" lon="-1.7006816156208515167236328125">
        <ele>887.4000244140625</ele>
        <time>2020-02-22T12:17:11.000Z</time>
      </trkpt>
      <trkpt lat="37.88048311136662960052490234375" lon="-1.70086383819580078125">
        <ele>886.4000244140625</ele>
        <time>2020-02-22T12:17:13.000Z</time>
      </trkpt>
      <trkpt lat="37.8803904913365840911865234375" lon="-1.700962744653224945068359375">
        <ele>885.79998779296875</ele>
        <time>2020-02-22T12:17:14.000Z</time>
      </trkpt>
      <trkpt lat="37.88029904477298259735107421875" lon="-1.70106156729161739349365234375">
        <ele>885.4000244140625</ele>
        <time>2020-02-22T12:17:15.000Z</time>
      </trkpt>
      <trkpt lat="37.8801123797893524169921875" lon="-1.70125787146389484405517578125">
        <ele>884.4000244140625</ele>
        <time>2020-02-22T12:17:17.000Z</time>
      </trkpt>
      <trkpt lat="37.88001808337867259979248046875" lon="-1.7013541795313358306884765625">
        <ele>883.20001220703125</ele>
        <time>2020-02-22T12:17:18.000Z</time>
      </trkpt>
      <trkpt lat="37.87974558770656585693359375" lon="-1.70165249146521091461181640625">
        <ele>881.79998779296875</ele>
        <time>2020-02-22T12:17:21.000Z</time>
      </trkpt>
      <trkpt lat="37.87950552999973297119140625" lon="-1.7019995860755443572998046875">
        <ele>880.20001220703125</ele>
        <time>2020-02-22T12:17:24.000Z</time>
      </trkpt>
      <trkpt lat="37.879354991018772125244140625" lon="-1.70224073342978954315185546875">
        <ele>878.5999755859375</ele>
        <time>2020-02-22T12:17:26.000Z</time>
      </trkpt>
      <trkpt lat="37.87911954335868358612060546875" lon="-1.70260149054229259490966796875">
        <ele>877.20001220703125</ele>
        <time>2020-02-22T12:17:29.000Z</time>
      </trkpt>
      <trkpt lat="37.8790426813066005706787109375" lon="-1.70272269286215305328369140625">
        <ele>876.20001220703125</ele>
        <time>2020-02-22T12:17:30.000Z</time>
      </trkpt>
      <trkpt lat="37.87883631885051727294921875" lon="-1.703112535178661346435546875">
        <ele>874.79998779296875</ele>
        <time>2020-02-22T12:17:33.000Z</time>
      </trkpt>
      <trkpt lat="37.87878292612731456756591796875" lon="-1.70326047576963901519775390625">
        <ele>873.4000244140625</ele>
        <time>2020-02-22T12:17:34.000Z</time>
      </trkpt>
      <trkpt lat="37.878691814839839935302734375" lon="-1.7035661637783050537109375">
        <ele>872.20001220703125</ele>
        <time>2020-02-22T12:17:36.000Z</time>
      </trkpt>
      <trkpt lat="37.87864588201045989990234375" lon="-1.7037178762257099151611328125">
        <ele>871.4000244140625</ele>
        <time>2020-02-22T12:17:37.000Z</time>
      </trkpt>
      <trkpt lat="37.87860070355236530303955078125" lon="-1.70386615209281444549560546875">
        <ele>870.79998779296875</ele>
        <time>2020-02-22T12:17:38.000Z</time>
      </trkpt>
      <trkpt lat="37.87851185537874698638916015625" lon="-1.7041517235338687896728515625">
        <ele>869.79998779296875</ele>
        <time>2020-02-22T12:17:40.000Z</time>
      </trkpt>
      <trkpt lat="37.87846617400646209716796875" lon="-1.70427736826241016387939453125">
        <ele>869.20001220703125</ele>
        <time>2020-02-22T12:17:41.000Z</time>
      </trkpt>
      <trkpt lat="37.8784153796732425689697265625" lon="-1.704375185072422027587890625">
        <ele>868.5999755859375</ele>
        <time>2020-02-22T12:17:42.000Z</time>
      </trkpt>
      <trkpt lat="37.8782889805734157562255859375" lon="-1.70449697412550449371337890625">
        <ele>867</ele>
        <time>2020-02-22T12:17:44.000Z</time>
      </trkpt>
      <trkpt lat="37.87821329198777675628662109375" lon="-1.70454181730747222900390625">
        <ele>866.5999755859375</ele>
        <time>2020-02-22T12:17:45.000Z</time>
      </trkpt>
      <trkpt lat="37.87813215516507625579833984375" lon="-1.70458666048943996429443359375">
        <ele>866.20001220703125</ele>
        <time>2020-02-22T12:17:46.000Z</time>
      </trkpt>
      <trkpt lat="37.878048084676265716552734375" lon="-1.70463494025170803070068359375">
        <ele>865.5999755859375</ele>
        <time>2020-02-22T12:17:47.000Z</time>
      </trkpt>
      <trkpt lat="37.877813391387462615966796875" lon="-1.70479260385036468505859375">
        <ele>864.79998779296875</ele>
        <time>2020-02-22T12:17:50.000Z</time>
      </trkpt>
      <trkpt lat="37.87765321321785449981689453125" lon="-1.70489578507840633392333984375">
        <ele>864.5999755859375</ele>
        <time>2020-02-22T12:17:52.000Z</time>
      </trkpt>
      <trkpt lat="37.8773911111056804656982421875" lon="-1.70504934154450893402099609375">
        <ele>863.20001220703125</ele>
        <time>2020-02-22T12:17:55.000Z</time>
      </trkpt>
      <trkpt lat="37.87729983218014240264892578125" lon="-1.7051029019057750701904296875">
        <ele>862.5999755859375</ele>
        <time>2020-02-22T12:17:56.000Z</time>
      </trkpt>
      <trkpt lat="37.877109311521053314208984375" lon="-1.70521438121795654296875">
        <ele>861.79998779296875</ele>
        <time>2020-02-22T12:17:58.000Z</time>
      </trkpt>
      <trkpt lat="37.876926921308040618896484375" lon="-1.70533382333815097808837890625">
        <ele>860.79998779296875</ele>
        <time>2020-02-22T12:18:00.000Z</time>
      </trkpt>
      <trkpt lat="37.87674914114177227020263671875" lon="-1.70544681139290332794189453125">
        <ele>860</ele>
        <time>2020-02-22T12:18:02.000Z</time>
      </trkpt>
      <trkpt lat="37.87665928713977336883544921875" lon="-1.70550179667770862579345703125">
        <ele>859.79998779296875</ele>
        <time>2020-02-22T12:18:03.000Z</time>
      </trkpt>
      <trkpt lat="37.87656909786164760589599609375" lon="-1.70555837452411651611328125">
        <ele>859.5999755859375</ele>
        <time>2020-02-22T12:18:04.000Z</time>
      </trkpt>
      <trkpt lat="37.8762957639992237091064453125" lon="-1.70572324655950069427490234375">
        <ele>858</ele>
        <time>2020-02-22T12:18:07.000Z</time>
      </trkpt>
      <trkpt lat="37.87611119449138641357421875" lon="-1.7058312892913818359375">
        <ele>857</ele>
        <time>2020-02-22T12:18:09.000Z</time>
      </trkpt>
      <trkpt lat="37.8759269602596759796142578125" lon="-1.70594167895615100860595703125">
        <ele>856</ele>
        <time>2020-02-22T12:18:11.000Z</time>
      </trkpt>
      <trkpt lat="37.87583584897220134735107421875" lon="-1.7059967480599880218505859375">
        <ele>855.5999755859375</ele>
        <time>2020-02-22T12:18:12.000Z</time>
      </trkpt>
      <trkpt lat="37.87556746043264865875244140625" lon="-1.70616514049470424652099609375">
        <ele>855</ele>
        <time>2020-02-22T12:18:15.000Z</time>
      </trkpt>
      <trkpt lat="37.8753881715238094329833984375" lon="-1.70627058483660221099853515625">
        <ele>854.20001220703125</ele>
        <time>2020-02-22T12:18:17.000Z</time>
      </trkpt>
      <trkpt lat="37.87513461895287036895751953125" lon="-1.706417687237262725830078125">
        <ele>852.5999755859375</ele>
        <time>2020-02-22T12:18:20.000Z</time>
      </trkpt>
      <trkpt lat="37.8749201260507106781005859375" lon="-1.70651634223759174346923828125">
        <ele>851.79998779296875</ele>
        <time>2020-02-22T12:18:23.000Z</time>
      </trkpt>
      <trkpt lat="37.87484074942767620086669921875" lon="-1.7065251432359218597412109375">
        <ele>851.4000244140625</ele>
        <time>2020-02-22T12:18:24.000Z</time>
      </trkpt>
      <trkpt lat="37.874674536287784576416015625" lon="-1.706503517925739288330078125">
        <ele>850.5999755859375</ele>
        <time>2020-02-22T12:18:26.000Z</time>
      </trkpt>
      <trkpt lat="37.87458962760865688323974609375" lon="-1.70647946186363697052001953125">
        <ele>850</ele>
        <time>2020-02-22T12:18:27.000Z</time>
      </trkpt>
      <trkpt lat="37.87450212053954601287841796875" lon="-1.70644962228834629058837890625">
        <ele>849.5999755859375</ele>
        <time>2020-02-22T12:18:28.000Z</time>
      </trkpt>
      <trkpt lat="37.87433783523738384246826171875" lon="-1.7063933797180652618408203125">
        <ele>849</ele>
        <time>2020-02-22T12:18:30.000Z</time>
      </trkpt>
      <trkpt lat="37.8740249387919902801513671875" lon="-1.7062954790890216827392578125">
        <ele>847.5999755859375</ele>
        <time>2020-02-22T12:18:34.000Z</time>
      </trkpt>
      <trkpt lat="37.87386090494692325592041015625" lon="-1.706252731382846832275390625">
        <ele>846.4000244140625</ele>
        <time>2020-02-22T12:18:36.000Z</time>
      </trkpt>
      <trkpt lat="37.8736879862844944000244140625" lon="-1.7062349617481231689453125">
        <ele>845.4000244140625</ele>
        <time>2020-02-22T12:18:38.000Z</time>
      </trkpt>
      <trkpt lat="37.8736055083572864532470703125" lon="-1.70624091289937496185302734375">
        <ele>845</ele>
        <time>2020-02-22T12:18:39.000Z</time>
      </trkpt>
      <trkpt lat="37.87352646701037883758544921875" lon="-1.706252060830593109130859375">
        <ele>844.4000244140625</ele>
        <time>2020-02-22T12:18:40.000Z</time>
      </trkpt>
      <trkpt lat="37.87339319474995136260986328125" lon="-1.70627142302691936492919921875">
        <ele>843</ele>
        <time>2020-02-22T12:18:42.000Z</time>
      </trkpt>
      <trkpt lat="37.87334315478801727294921875" lon="-1.7062805593013763427734375">
        <ele>842.20001220703125</ele>
        <time>2020-02-22T12:18:43.000Z</time>
      </trkpt>
      <trkpt lat="37.87330384366214275360107421875" lon="-1.7062854208052158355712890625">
        <ele>841.20001220703125</ele>
        <time>2020-02-22T12:18:44.000Z</time>
      </trkpt>
      <trkpt lat="37.8732353635132312774658203125" lon="-1.70629338361322879791259765625">
        <ele>840.20001220703125</ele>
        <time>2020-02-22T12:18:46.000Z</time>
      </trkpt>
      <trkpt lat="37.87320435047149658203125" lon="-1.706296317279338836669921875">
        <ele>839.5999755859375</ele>
        <time>2020-02-22T12:18:47.000Z</time>
      </trkpt>
      <trkpt lat="37.873149029910564422607421875" lon="-1.70630243606865406036376953125">
        <ele>839</ele>
        <time>2020-02-22T12:18:49.000Z</time>
      </trkpt>
      <trkpt lat="37.8730742633342742919921875" lon="-1.70632548630237579345703125">
        <ele>838.5999755859375</ele>
        <time>2020-02-22T12:18:52.000Z</time>
      </trkpt>
      <trkpt lat="37.873034365475177764892578125" lon="-1.706330515444278717041015625">
        <ele>838.5999755859375</ele>
        <time>2020-02-22T12:18:54.000Z</time>
      </trkpt>
      <trkpt lat="37.87301785312592983245849609375" lon="-1.706273518502712249755859375">
        <ele>838.20001220703125</ele>
        <time>2020-02-22T12:18:57.000Z</time>
      </trkpt>
      <trkpt lat="37.8730487823486328125" lon="-1.70628164894878864288330078125">
        <ele>838</ele>
        <time>2020-02-22T12:19:00.000Z</time>
      </trkpt>
      <trkpt lat="37.873057834804058074951171875" lon="-1.7062991671264171600341796875">
        <ele>838</ele>
        <time>2020-02-22T12:19:01.000Z</time>
      </trkpt>
      <trkpt lat="37.873094379901885986328125" lon="-1.70629799365997314453125">
        <ele>838</ele>
        <time>2020-02-22T12:19:03.000Z</time>
      </trkpt>
      <trkpt lat="37.873136289417743682861328125" lon="-1.7062693275511264801025390625">
        <ele>837.79998779296875</ele>
        <time>2020-02-22T12:19:05.000Z</time>
      </trkpt>
      <trkpt lat="37.87318515591323375701904296875" lon="-1.70624443329870700836181640625">
        <ele>837.79998779296875</ele>
        <time>2020-02-22T12:19:07.000Z</time>
      </trkpt>
      <trkpt lat="37.87328054197132587432861328125" lon="-1.7062421701848506927490234375">
        <ele>838</ele>
        <time>2020-02-22T12:19:10.000Z</time>
      </trkpt>
      <trkpt lat="37.87336863577365875244140625" lon="-1.706238649785518646240234375">
        <ele>838.4000244140625</ele>
        <time>2020-02-22T12:19:13.000Z</time>
      </trkpt>
      <trkpt lat="37.87352127023041248321533203125" lon="-1.70620520599186420440673828125">
        <ele>839.20001220703125</ele>
        <time>2020-02-22T12:19:18.000Z</time>
      </trkpt>
      <trkpt lat="37.873632498085498809814453125" lon="-1.70618601143360137939453125">
        <ele>840.20001220703125</ele>
        <time>2020-02-22T12:19:24.000Z</time>
      </trkpt>
      <trkpt lat="37.87365437485277652740478515625" lon="-1.7061808146536350250244140625">
        <ele>840.4000244140625</ele>
        <time>2020-02-22T12:19:25.000Z</time>
      </trkpt>
      <trkpt lat="37.87378144450485706329345703125" lon="-1.70616933144629001617431640625">
        <ele>841.4000244140625</ele>
        <time>2020-02-22T12:19:30.000Z</time>
      </trkpt>
      <trkpt lat="37.87384095601737499237060546875" lon="-1.7061741091310977935791015625">
        <ele>841.5999755859375</ele>
        <time>2020-02-22T12:19:32.000Z</time>
      </trkpt>
      <trkpt lat="37.87397104315459728240966796875" lon="-1.7061935551464557647705078125">
        <ele>842.20001220703125</ele>
        <time>2020-02-22T12:19:36.000Z</time>
      </trkpt>
      <trkpt lat="37.8740028105676174163818359375" lon="-1.70620537362992763519287109375">
        <ele>842.4000244140625</ele>
        <time>2020-02-22T12:19:37.000Z</time>
      </trkpt>
      <trkpt lat="37.8740997053682804107666015625" lon="-1.7062351293861865997314453125">
        <ele>842.79998779296875</ele>
        <time>2020-02-22T12:19:40.000Z</time>
      </trkpt>
      <trkpt lat="37.8742794133722782135009765625" lon="-1.70629321597516536712646484375">
        <ele>843.5999755859375</ele>
        <time>2020-02-22T12:19:45.000Z</time>
      </trkpt>
      <trkpt lat="37.87437974475324153900146484375" lon="-1.70632489956915378570556640625">
        <ele>844.20001220703125</ele>
        <time>2020-02-22T12:19:48.000Z</time>
      </trkpt>
      <trkpt lat="37.87441260181367397308349609375" lon="-1.70633529312908649444580078125">
        <ele>844.20001220703125</ele>
        <time>2020-02-22T12:19:49.000Z</time>
      </trkpt>
      <trkpt lat="37.8744755499064922332763671875" lon="-1.70635742135345935821533203125">
        <ele>844.5999755859375</ele>
        <time>2020-02-22T12:19:51.000Z</time>
      </trkpt>
      <trkpt lat="37.87462298758327960968017578125" lon="-1.7064091376960277557373046875">
        <ele>845.5999755859375</ele>
        <time>2020-02-22T12:19:56.000Z</time>
      </trkpt>
      <trkpt lat="37.87467914633452892303466796875" lon="-1.7064312659204006195068359375">
        <ele>846.20001220703125</ele>
        <time>2020-02-22T12:19:58.000Z</time>
      </trkpt>
      <trkpt lat="37.8747642226517200469970703125" lon="-1.7064661346375942230224609375">
        <ele>846.79998779296875</ele>
        <time>2020-02-22T12:20:01.000Z</time>
      </trkpt>
      <trkpt lat="37.8748631291091442108154296875" lon="-1.70654417015612125396728515625">
        <ele>847.5999755859375</ele>
        <time>2020-02-22T12:20:05.000Z</time>
      </trkpt>
      <trkpt lat="37.874905206263065338134765625" lon="-1.70659328810870647430419921875">
        <ele>848</ele>
        <time>2020-02-22T12:20:07.000Z</time>
      </trkpt>
      <trkpt lat="37.8749995864927768707275390625" lon="-1.7067199386656284332275390625">
        <ele>848.79998779296875</ele>
        <time>2020-02-22T12:20:12.000Z</time>
      </trkpt>
      <trkpt lat="37.875015176832675933837890625" lon="-1.7067447490990161895751953125">
        <ele>849</ele>
        <time>2020-02-22T12:20:13.000Z</time>
      </trkpt>
      <trkpt lat="37.87509656511247158050537109375" lon="-1.70683703385293483734130859375">
        <ele>850.20001220703125</ele>
        <time>2020-02-22T12:20:18.000Z</time>
      </trkpt>
      <trkpt lat="37.87515121512115001678466796875" lon="-1.70688715763390064239501953125">
        <ele>851</ele>
        <time>2020-02-22T12:20:21.000Z</time>
      </trkpt>
      <trkpt lat="37.87516839802265167236328125" lon="-1.70690408907830715179443359375">
        <ele>851.20001220703125</ele>
        <time>2020-02-22T12:20:22.000Z</time>
      </trkpt>
      <trkpt lat="37.87520536221563816070556640625" lon="-1.70692755840718746185302734375">
        <ele>852.4000244140625</ele>
        <time>2020-02-22T12:20:24.000Z</time>
      </trkpt>
      <trkpt lat="37.87528331391513347625732421875" lon="-1.7069724015891551971435546875">
        <ele>853</ele>
        <time>2020-02-22T12:20:28.000Z</time>
      </trkpt>
      <trkpt lat="37.875339053571224212646484375" lon="-1.70701204799115657806396484375">
        <ele>853.4000244140625</ele>
        <time>2020-02-22T12:20:31.000Z</time>
      </trkpt>
      <trkpt lat="37.87541658617556095123291015625" lon="-1.70704565942287445068359375">
        <ele>854</ele>
        <time>2020-02-22T12:20:35.000Z</time>
      </trkpt>
      <trkpt lat="37.875484563410282135009765625" lon="-1.70705932192504405975341796875">
        <ele>854.5999755859375</ele>
        <time>2020-02-22T12:20:38.000Z</time>
      </trkpt>
      <trkpt lat="37.87559042684733867645263671875" lon="-1.70701171271502971649169921875">
        <ele>855.4000244140625</ele>
        <time>2020-02-22T12:20:42.000Z</time>
      </trkpt>
      <trkpt lat="37.87564717233180999755859375" lon="-1.70699176378548145294189453125">
        <ele>855.5999755859375</ele>
        <time>2020-02-22T12:20:44.000Z</time>
      </trkpt>
      <trkpt lat="37.87580198608338832855224609375" lon="-1.70691733248531818389892578125">
        <ele>856.4000244140625</ele>
        <time>2020-02-22T12:20:50.000Z</time>
      </trkpt>
      <trkpt lat="37.87584833800792694091796875" lon="-1.706887073814868927001953125">
        <ele>856.79998779296875</ele>
        <time>2020-02-22T12:20:52.000Z</time>
      </trkpt>
      <trkpt lat="37.87599192000925540924072265625" lon="-1.70679889619350433349609375">
        <ele>857.4000244140625</ele>
        <time>2020-02-22T12:20:58.000Z</time>
      </trkpt>
      <trkpt lat="37.87603332661092281341552734375" lon="-1.70676545239984989166259765625">
        <ele>857.79998779296875</ele>
        <time>2020-02-22T12:21:00.000Z</time>
      </trkpt>
      <trkpt lat="37.876149080693721771240234375" lon="-1.70669035054743289947509765625">
        <ele>858.20001220703125</ele>
        <time>2020-02-22T12:21:05.000Z</time>
      </trkpt>
      <trkpt lat="37.87625729106366634368896484375" lon="-1.7066170088946819305419921875">
        <ele>859</ele>
        <time>2020-02-22T12:21:10.000Z</time>
      </trkpt>
      <trkpt lat="37.87628428079187870025634765625" lon="-1.706611476838588714599609375">
        <ele>859.20001220703125</ele>
        <time>2020-02-22T12:21:11.000Z</time>
      </trkpt>
      <trkpt lat="37.87641084752976894378662109375" lon="-1.7065568268299102783203125">
        <ele>860</ele>
        <time>2020-02-22T12:21:16.000Z</time>
      </trkpt>
      <trkpt lat="37.8764365799725055694580078125" lon="-1.70654366724193096160888671875">
        <ele>860.20001220703125</ele>
        <time>2020-02-22T12:21:17.000Z</time>
      </trkpt>
      <trkpt lat="37.8765691816806793212890625" lon="-1.7064704932272434234619140625">
        <ele>861.20001220703125</ele>
        <time>2020-02-22T12:21:22.000Z</time>
      </trkpt>
      <trkpt lat="37.8766575269401073455810546875" lon="-1.7064416594803333282470703125">
        <ele>861.5999755859375</ele>
        <time>2020-02-22T12:21:25.000Z</time>
      </trkpt>
      <trkpt lat="37.87674528546631336212158203125" lon="-1.70640016905963420867919921875">
        <ele>861.79998779296875</ele>
        <time>2020-02-22T12:21:28.000Z</time>
      </trkpt>
      <trkpt lat="37.87681401707231998443603515625" lon="-1.7063705809414386749267578125">
        <ele>862.4000244140625</ele>
        <time>2020-02-22T12:21:31.000Z</time>
      </trkpt>
      <trkpt lat="37.876833379268646240234375" lon="-1.7063668929040431976318359375">
        <ele>862.4000244140625</ele>
        <time>2020-02-22T12:21:32.000Z</time>
      </trkpt>
      <trkpt lat="37.8769264183938503265380859375" lon="-1.70630813576281070709228515625">
        <ele>862.79998779296875</ele>
        <time>2020-02-22T12:21:36.000Z</time>
      </trkpt>
      <trkpt lat="37.8769441880285739898681640625" lon="-1.7062912881374359130859375">
        <ele>862.79998779296875</ele>
        <time>2020-02-22T12:21:37.000Z</time>
      </trkpt>
      <trkpt lat="37.8770226426422595977783203125" lon="-1.7061905376613140106201171875">
        <ele>863.4000244140625</ele>
        <time>2020-02-22T12:21:42.000Z</time>
      </trkpt>
      <trkpt lat="37.87704594433307647705078125" lon="-1.70616128481924533843994140625">
        <ele>863.4000244140625</ele>
        <time>2020-02-22T12:21:44.000Z</time>
      </trkpt>
      <trkpt lat="37.8770695813000202178955078125" lon="-1.70613312162458896636962890625">
        <ele>863.5999755859375</ele>
        <time>2020-02-22T12:21:46.000Z</time>
      </trkpt>
      <trkpt lat="37.8771067969501018524169921875" lon="-1.70608718879520893096923828125">
        <ele>863.79998779296875</ele>
        <time>2020-02-22T12:21:49.000Z</time>
      </trkpt>
      <trkpt lat="37.877065725624561309814453125" lon="-1.706103868782520294189453125">
        <ele>863.79998779296875</ele>
        <time>2020-02-22T12:22:28.000Z</time>
      </trkpt>
      <trkpt lat="37.87705658935010433197021484375" lon="-1.70612675137817859649658203125">
        <ele>863.79998779296875</ele>
        <time>2020-02-22T12:22:29.000Z</time>
      </trkpt>
      <trkpt lat="37.87700613029301166534423828125" lon="-1.70619179494678974151611328125">
        <ele>863.79998779296875</ele>
        <time>2020-02-22T12:22:32.000Z</time>
      </trkpt>
      <trkpt lat="37.876989953219890594482421875" lon="-1.70621073804795742034912109375">
        <ele>863.79998779296875</ele>
        <time>2020-02-22T12:22:33.000Z</time>
      </trkpt>
      <trkpt lat="37.87694008089601993560791015625" lon="-1.70630746521055698394775390625">
        <ele>863.79998779296875</ele>
        <time>2020-02-22T12:22:36.000Z</time>
      </trkpt>
      <trkpt lat="37.8769063018262386322021484375" lon="-1.7063950560986995697021484375">
        <ele>863.79998779296875</ele>
        <time>2020-02-22T12:22:39.000Z</time>
      </trkpt>
      <trkpt lat="37.87691543810069561004638671875" lon="-1.70641441829502582550048828125">
        <ele>863.79998779296875</ele>
        <time>2020-02-22T12:22:40.000Z</time>
      </trkpt>
      <trkpt lat="37.87695500068366527557373046875" lon="-1.706445179879665374755859375">
        <ele>863.79998779296875</ele>
        <time>2020-02-22T12:22:42.000Z</time>
      </trkpt>
      <trkpt lat="37.87697176449000835418701171875" lon="-1.70645917765796184539794921875">
        <ele>863.79998779296875</ele>
        <time>2020-02-22T12:22:43.000Z</time>
      </trkpt>
      <trkpt lat="37.8770082257688045501708984375" lon="-1.70649220235645771026611328125">
        <ele>863.79998779296875</ele>
        <time>2020-02-22T12:22:45.000Z</time>
      </trkpt>
      <trkpt lat="37.8770400770008563995361328125" lon="-1.706534363329410552978515625">
        <ele>863.79998779296875</ele>
        <time>2020-02-22T12:22:47.000Z</time>
      </trkpt>
      <trkpt lat="37.87707033567130565643310546875" lon="-1.7065690644085407257080078125">
        <ele>864.4000244140625</ele>
        <time>2020-02-22T12:22:49.000Z</time>
      </trkpt>
      <trkpt lat="37.8770866803824901580810546875" lon="-1.70658859424293041229248046875">
        <ele>864.5999755859375</ele>
        <time>2020-02-22T12:22:50.000Z</time>
      </trkpt>
      <trkpt lat="37.87710587494075298309326171875" lon="-1.70660912990570068359375">
        <ele>864.79998779296875</ele>
        <time>2020-02-22T12:22:51.000Z</time>
      </trkpt>
      <trkpt lat="37.877190113067626953125" lon="-1.706697642803192138671875">
        <ele>865.5999755859375</ele>
        <time>2020-02-22T12:22:55.000Z</time>
      </trkpt>
      <trkpt lat="37.877259515225887298583984375" lon="-1.706763692200183868408203125">
        <ele>866.20001220703125</ele>
        <time>2020-02-22T12:22:59.000Z</time>
      </trkpt>
      <trkpt lat="37.8773202002048492431640625" lon="-1.70680585317313671112060546875">
        <ele>866.5999755859375</ele>
        <time>2020-02-22T12:23:02.000Z</time>
      </trkpt>
      <trkpt lat="37.8774266503751277923583984375" lon="-1.7068835534155368804931640625">
        <ele>867.79998779296875</ele>
        <time>2020-02-22T12:23:07.000Z</time>
      </trkpt>
      <trkpt lat="37.87744416855275630950927734375" lon="-1.7069073580205440521240234375">
        <ele>868</ele>
        <time>2020-02-22T12:23:08.000Z</time>
      </trkpt>
      <trkpt lat="37.87748926319181919097900390625" lon="-1.70697147957980632781982421875">
        <ele>868.79998779296875</ele>
        <time>2020-02-22T12:23:11.000Z</time>
      </trkpt>
      <trkpt lat="37.877513654530048370361328125" lon="-1.7070096172392368316650390625">
        <ele>869.20001220703125</ele>
        <time>2020-02-22T12:23:14.000Z</time>
      </trkpt>
      <trkpt lat="37.877520360052585601806640625" lon="-1.70702411793172359466552734375">
        <ele>869.4000244140625</ele>
        <time>2020-02-22T12:23:15.000Z</time>
      </trkpt>
      <trkpt lat="37.8774588368833065032958984375" lon="-1.70697198249399662017822265625">
        <ele>872</ele>
        <time>2020-02-22T12:36:50.000Z</time>
      </trkpt>
      <trkpt lat="37.87743947468698024749755859375" lon="-1.70695454813539981842041015625">
        <ele>872</ele>
        <time>2020-02-22T12:36:51.000Z</time>
      </trkpt>
      <trkpt lat="37.8774149157106876373291015625" lon="-1.7069361917674541473388671875">
        <ele>872</ele>
        <time>2020-02-22T12:36:52.000Z</time>
      </trkpt>
      <trkpt lat="37.87724442780017852783203125" lon="-1.70684449374675750732421875">
        <ele>871.4000244140625</ele>
        <time>2020-02-22T12:36:57.000Z</time>
      </trkpt>
      <trkpt lat="37.8772129118442535400390625" lon="-1.706811301410198211669921875">
        <ele>871.4000244140625</ele>
        <time>2020-02-22T12:36:58.000Z</time>
      </trkpt>
      <trkpt lat="37.87714107893407344818115234375" lon="-1.7067424021661281585693359375">
        <ele>871</ele>
        <time>2020-02-22T12:37:00.000Z</time>
      </trkpt>
      <trkpt lat="37.87705533206462860107421875" lon="-1.70667425729334354400634765625">
        <ele>870.20001220703125</ele>
        <time>2020-02-22T12:37:02.000Z</time>
      </trkpt>
      <trkpt lat="37.8769703395664691925048828125" lon="-1.7066039331257343292236328125">
        <ele>869.5999755859375</ele>
        <time>2020-02-22T12:37:04.000Z</time>
      </trkpt>
      <trkpt lat="37.8768684156239032745361328125" lon="-1.70652388595044612884521484375">
        <ele>868.79998779296875</ele>
        <time>2020-02-22T12:37:07.000Z</time>
      </trkpt>
      <trkpt lat="37.87684167735278606414794921875" lon="-1.706484071910381317138671875">
        <ele>868.4000244140625</ele>
        <time>2020-02-22T12:37:08.000Z</time>
      </trkpt>
      <trkpt lat="37.8767393343150615692138671875" lon="-1.706378795206546783447265625">
        <ele>867.4000244140625</ele>
        <time>2020-02-22T12:37:11.000Z</time>
      </trkpt>
      <trkpt lat="37.8766957484185695648193359375" lon="-1.70633881352841854095458984375">
        <ele>867</ele>
        <time>2020-02-22T12:37:12.000Z</time>
      </trkpt>
      <trkpt lat="37.87666548974812030792236328125" lon="-1.70628969557583332061767578125">
        <ele>866.4000244140625</ele>
        <time>2020-02-22T12:37:13.000Z</time>
      </trkpt>
      <trkpt lat="37.87662710063159465789794921875" lon="-1.706240661442279815673828125">
        <ele>866</ele>
        <time>2020-02-22T12:37:14.000Z</time>
      </trkpt>
      <trkpt lat="37.87658301182091236114501953125" lon="-1.70619548298418521881103515625">
        <ele>865.5999755859375</ele>
        <time>2020-02-22T12:37:15.000Z</time>
      </trkpt>
      <trkpt lat="37.8765073232352733612060546875" lon="-1.70609674416482448577880859375">
        <ele>865</ele>
        <time>2020-02-22T12:37:17.000Z</time>
      </trkpt>
      <trkpt lat="37.876438759267330169677734375" lon="-1.7060084827244281768798828125">
        <ele>863.79998779296875</ele>
        <time>2020-02-22T12:37:19.000Z</time>
      </trkpt>
      <trkpt lat="37.876406572759151458740234375" lon="-1.70597638003528118133544921875">
        <ele>862.5999755859375</ele>
        <time>2020-02-22T12:37:20.000Z</time>
      </trkpt>
      <trkpt lat="37.8763423673808574676513671875" lon="-1.70591988600790500640869140625">
        <ele>861.5999755859375</ele>
        <time>2020-02-22T12:37:22.000Z</time>
      </trkpt>
      <trkpt lat="37.87627086974680423736572265625" lon="-1.70586473308503627777099609375">
        <ele>860.4000244140625</ele>
        <time>2020-02-22T12:37:25.000Z</time>
      </trkpt>
      <trkpt lat="37.8762451373040676116943359375" lon="-1.70581494458019733428955078125">
        <ele>859.20001220703125</ele>
        <time>2020-02-22T12:37:27.000Z</time>
      </trkpt>
      <trkpt lat="37.876198031008243560791015625" lon="-1.705779321491718292236328125">
        <ele>858.20001220703125</ele>
        <time>2020-02-22T12:37:30.000Z</time>
      </trkpt>
      <trkpt lat="37.87617900408804416656494140625" lon="-1.705779321491718292236328125">
        <ele>857.79998779296875</ele>
        <time>2020-02-22T12:37:31.000Z</time>
      </trkpt>
      <trkpt lat="37.87605143152177333831787109375" lon="-1.70584780164062976837158203125">
        <ele>857.4000244140625</ele>
        <time>2020-02-22T12:37:36.000Z</time>
      </trkpt>
      <trkpt lat="37.87601404823362827301025390625" lon="-1.705869175493717193603515625">
        <ele>857.20001220703125</ele>
        <time>2020-02-22T12:37:37.000Z</time>
      </trkpt>
      <trkpt lat="37.8759242780506610870361328125" lon="-1.7059162817895412445068359375">
        <ele>857.20001220703125</ele>
        <time>2020-02-22T12:37:39.000Z</time>
      </trkpt>
      <trkpt lat="37.87587323226034641265869140625" lon="-1.70594134368002414703369140625">
        <ele>857.20001220703125</ele>
        <time>2020-02-22T12:37:40.000Z</time>
      </trkpt>
      <trkpt lat="37.87571833468973636627197265625" lon="-1.70603773556649684906005859375">
        <ele>856.79998779296875</ele>
        <time>2020-02-22T12:37:43.000Z</time>
      </trkpt>
      <trkpt lat="37.87549537606537342071533203125" lon="-1.7061754502356052398681640625">
        <ele>856</ele>
        <time>2020-02-22T12:37:47.000Z</time>
      </trkpt>
      <trkpt lat="37.87530678324401378631591796875" lon="-1.70628550462424755096435546875">
        <ele>855.20001220703125</ele>
        <time>2020-02-22T12:37:50.000Z</time>
      </trkpt>
      <trkpt lat="37.8751715831458568572998046875" lon="-1.706360019743442535400390625">
        <ele>854.79998779296875</ele>
        <time>2020-02-22T12:37:52.000Z</time>
      </trkpt>
      <trkpt lat="37.87495792843401432037353515625" lon="-1.7064785398542881011962890625">
        <ele>854</ele>
        <time>2020-02-22T12:37:55.000Z</time>
      </trkpt>
      <trkpt lat="37.87487863563001155853271484375" lon="-1.70649806968867778778076171875">
        <ele>853.5999755859375</ele>
        <time>2020-02-22T12:37:56.000Z</time>
      </trkpt>
      <trkpt lat="37.874614186584949493408203125" lon="-1.70647158287465572357177734375">
        <ele>853</ele>
        <time>2020-02-22T12:37:59.000Z</time>
      </trkpt>
      <trkpt lat="37.87452240474522113800048828125" lon="-1.706443838775157928466796875">
        <ele>852.5999755859375</ele>
        <time>2020-02-22T12:38:00.000Z</time>
      </trkpt>
      <trkpt lat="37.8743504919111728668212890625" lon="-1.7063863389194011688232421875">
        <ele>851.79998779296875</ele>
        <time>2020-02-22T12:38:02.000Z</time>
      </trkpt>
      <trkpt lat="37.87426449358463287353515625" lon="-1.70635641552507877349853515625">
        <ele>851.20001220703125</ele>
        <time>2020-02-22T12:38:03.000Z</time>
      </trkpt>
      <trkpt lat="37.873989902436733245849609375" lon="-1.7062669806182384490966796875">
        <ele>850.20001220703125</ele>
        <time>2020-02-22T12:38:06.000Z</time>
      </trkpt>
      <trkpt lat="37.87379854358732700347900390625" lon="-1.70622834004461765289306640625">
        <ele>849.20001220703125</ele>
        <time>2020-02-22T12:38:08.000Z</time>
      </trkpt>
      <trkpt lat="37.8735951147973537445068359375" lon="-1.70623420737683773040771484375">
        <ele>848.20001220703125</ele>
        <time>2020-02-22T12:38:10.000Z</time>
      </trkpt>
      <trkpt lat="37.87348807789385318756103515625" lon="-1.70624694786965847015380859375">
        <ele>847.79998779296875</ele>
        <time>2020-02-22T12:38:11.000Z</time>
      </trkpt>
      <trkpt lat="37.87326528690755367279052734375" lon="-1.70627594925463199615478515625">
        <ele>846</ele>
        <time>2020-02-22T12:38:13.000Z</time>
      </trkpt>
      <trkpt lat="37.873039729893207550048828125" lon="-1.70630268752574920654296875">
        <ele>843.4000244140625</ele>
        <time>2020-02-22T12:38:15.000Z</time>
      </trkpt>
      <trkpt lat="37.87281501106917858123779296875" lon="-1.70633353292942047119140625">
        <ele>842.4000244140625</ele>
        <time>2020-02-22T12:38:17.000Z</time>
      </trkpt>
      <trkpt lat="37.87251426838338375091552734375" lon="-1.7063749395310878753662109375">
        <ele>841</ele>
        <time>2020-02-22T12:38:20.000Z</time>
      </trkpt>
      <trkpt lat="37.87232617847621440887451171875" lon="-1.7063984088599681854248046875">
        <ele>839.5999755859375</ele>
        <time>2020-02-22T12:38:22.000Z</time>
      </trkpt>
      <trkpt lat="37.8722275234758853912353515625" lon="-1.7064094729721546173095703125">
        <ele>838.79998779296875</ele>
        <time>2020-02-22T12:38:23.000Z</time>
      </trkpt>
      <trkpt lat="37.872125767171382904052734375" lon="-1.706419028341770172119140625">
        <ele>838</ele>
        <time>2020-02-22T12:38:24.000Z</time>
      </trkpt>
      <trkpt lat="37.87202359177172183990478515625" lon="-1.70642816461622714996337890625">
        <ele>836.79998779296875</ele>
        <time>2020-02-22T12:38:25.000Z</time>
      </trkpt>
      <trkpt lat="37.8719207458198070526123046875" lon="-1.7064376361668109893798828125">
        <ele>835.79998779296875</ele>
        <time>2020-02-22T12:38:26.000Z</time>
      </trkpt>
      <trkpt lat="37.87171262316405773162841796875" lon="-1.70642615295946598052978515625">
        <ele>834.5999755859375</ele>
        <time>2020-02-22T12:38:28.000Z</time>
      </trkpt>
      <trkpt lat="37.8714976273477077484130859375" lon="-1.70636437833309173583984375">
        <ele>833.5999755859375</ele>
        <time>2020-02-22T12:38:30.000Z</time>
      </trkpt>
      <trkpt lat="37.8712830506265163421630859375" lon="-1.70628617517650127410888671875">
        <ele>832.5999755859375</ele>
        <time>2020-02-22T12:38:32.000Z</time>
      </trkpt>
      <trkpt lat="37.87105967290699481964111328125" lon="-1.70620135031640529632568359375">
        <ele>830.79998779296875</ele>
        <time>2020-02-22T12:38:34.000Z</time>
      </trkpt>
      <trkpt lat="37.870948277413845062255859375" lon="-1.7061586864292621612548828125">
        <ele>830</ele>
        <time>2020-02-22T12:38:35.000Z</time>
      </trkpt>
      <trkpt lat="37.87083637900650501251220703125" lon="-1.70611736364662647247314453125">
        <ele>829</ele>
        <time>2020-02-22T12:38:36.000Z</time>
      </trkpt>
      <trkpt lat="37.87062079645693302154541015625" lon="-1.7060322873294353485107421875">
        <ele>827.4000244140625</ele>
        <time>2020-02-22T12:38:38.000Z</time>
      </trkpt>
      <trkpt lat="37.87051216699182987213134765625" lon="-1.70599984936416149139404296875">
        <ele>826.5999755859375</ele>
        <time>2020-02-22T12:38:39.000Z</time>
      </trkpt>
      <trkpt lat="37.87040320225059986114501953125" lon="-1.705980487167835235595703125">
        <ele>825.79998779296875</ele>
        <time>2020-02-22T12:38:40.000Z</time>
      </trkpt>
      <trkpt lat="37.8701746277511119842529296875" lon="-1.70599850825965404510498046875">
        <ele>824.20001220703125</ele>
        <time>2020-02-22T12:38:42.000Z</time>
      </trkpt>
      <trkpt lat="37.8700562752783298492431640625" lon="-1.70602063648402690887451171875">
        <ele>822.5999755859375</ele>
        <time>2020-02-22T12:38:43.000Z</time>
      </trkpt>
      <trkpt lat="37.86981797777116298675537109375" lon="-1.70606070198118686676025390625">
        <ele>821.20001220703125</ele>
        <time>2020-02-22T12:38:45.000Z</time>
      </trkpt>
      <trkpt lat="37.86958646960556507110595703125" lon="-1.70608450658619403839111328125">
        <ele>819.5999755859375</ele>
        <time>2020-02-22T12:38:47.000Z</time>
      </trkpt>
      <trkpt lat="37.86947549320757389068603515625" lon="-1.7060849256813526153564453125">
        <ele>818.5999755859375</ele>
        <time>2020-02-22T12:38:48.000Z</time>
      </trkpt>
      <trkpt lat="37.86936736665666103363037109375" lon="-1.70606841333210468292236328125">
        <ele>817.4000244140625</ele>
        <time>2020-02-22T12:38:49.000Z</time>
      </trkpt>
      <trkpt lat="37.8691636025905609130859375" lon="-1.70597973279654979705810546875">
        <ele>815.5999755859375</ele>
        <time>2020-02-22T12:38:51.000Z</time>
      </trkpt>
      <trkpt lat="37.8689713217318058013916015625" lon="-1.705859787762165069580078125">
        <ele>814.4000244140625</ele>
        <time>2020-02-22T12:38:53.000Z</time>
      </trkpt>
      <trkpt lat="37.868787758052349090576171875" lon="-1.70573229901492595672607421875">
        <ele>814</ele>
        <time>2020-02-22T12:38:55.000Z</time>
      </trkpt>
      <trkpt lat="37.8686057031154632568359375" lon="-1.7056021280586719512939453125">
        <ele>813.79998779296875</ele>
        <time>2020-02-22T12:38:57.000Z</time>
      </trkpt>
      <trkpt lat="37.86851777695119380950927734375" lon="-1.705541275441646575927734375">
        <ele>813.79998779296875</ele>
        <time>2020-02-22T12:38:58.000Z</time>
      </trkpt>
      <trkpt lat="37.86818660795688629150390625" lon="-1.705326028168201446533203125">
        <ele>813.4000244140625</ele>
        <time>2020-02-22T12:39:02.000Z</time>
      </trkpt>
      <trkpt lat="37.8681094944477081298828125" lon="-1.70527347363531589508056640625">
        <ele>813.4000244140625</ele>
        <time>2020-02-22T12:39:03.000Z</time>
      </trkpt>
      <trkpt lat="37.86788963712751865386962890625" lon="-1.70511891134083271026611328125">
        <ele>813</ele>
        <time>2020-02-22T12:39:06.000Z</time>
      </trkpt>
      <trkpt lat="37.8676681034266948699951171875" lon="-1.70498429797589778900146484375">
        <ele>812.79998779296875</ele>
        <time>2020-02-22T12:39:09.000Z</time>
      </trkpt>
      <trkpt lat="37.867214977741241455078125" lon="-1.7046760953962802886962890625">
        <ele>812.20001220703125</ele>
        <time>2020-02-22T12:39:15.000Z</time>
      </trkpt>
      <trkpt lat="37.867136187851428985595703125" lon="-1.704626977443695068359375">
        <ele>812.20001220703125</ele>
        <time>2020-02-22T12:39:16.000Z</time>
      </trkpt>
      <trkpt lat="37.8669717349112033843994140625" lon="-1.7045242153108119964599609375">
        <ele>811.79998779296875</ele>
        <time>2020-02-22T12:39:18.000Z</time>
      </trkpt>
      <trkpt lat="37.86662665195763111114501953125" lon="-1.70426831580698490142822265625">
        <ele>811.20001220703125</ele>
        <time>2020-02-22T12:39:22.000Z</time>
      </trkpt>
      <trkpt lat="37.86654182709753513336181640625" lon="-1.70418902300298213958740234375">
        <ele>811</ele>
        <time>2020-02-22T12:39:23.000Z</time>
      </trkpt>
      <trkpt lat="37.8662829101085662841796875" lon="-1.70393697917461395263671875">
        <ele>809.79998779296875</ele>
        <time>2020-02-22T12:39:26.000Z</time>
      </trkpt>
      <trkpt lat="37.866112254559993743896484375" lon="-1.70377411879599094390869140625">
        <ele>808.79998779296875</ele>
        <time>2020-02-22T12:39:28.000Z</time>
      </trkpt>
      <trkpt lat="37.86593715660274028778076171875" lon="-1.70360866002738475799560546875">
        <ele>807.79998779296875</ele>
        <time>2020-02-22T12:39:30.000Z</time>
      </trkpt>
      <trkpt lat="37.86566658876836299896240234375" lon="-1.70334110967814922332763671875">
        <ele>806.5999755859375</ele>
        <time>2020-02-22T12:39:33.000Z</time>
      </trkpt>
      <trkpt lat="37.865577153861522674560546875" lon="-1.70324522070586681365966796875">
        <ele>806</ele>
        <time>2020-02-22T12:39:34.000Z</time>
      </trkpt>
      <trkpt lat="37.86548830568790435791015625" lon="-1.70314438641071319580078125">
        <ele>805.5999755859375</ele>
        <time>2020-02-22T12:39:35.000Z</time>
      </trkpt>
      <trkpt lat="37.865313626825809478759765625" lon="-1.702933497726917266845703125">
        <ele>804.5999755859375</ele>
        <time>2020-02-22T12:39:37.000Z</time>
      </trkpt>
      <trkpt lat="37.86522570066154003143310546875" lon="-1.7028243653476238250732421875">
        <ele>803.79998779296875</ele>
        <time>2020-02-22T12:39:38.000Z</time>
      </trkpt>
      <trkpt lat="37.86513668484985828399658203125" lon="-1.70271531678736209869384765625">
        <ele>803</ele>
        <time>2020-02-22T12:39:39.000Z</time>
      </trkpt>
      <trkpt lat="37.86504666320979595184326171875" lon="-1.70260392129421234130859375">
        <ele>802.20001220703125</ele>
        <time>2020-02-22T12:39:40.000Z</time>
      </trkpt>
      <trkpt lat="37.86495714448392391204833984375" lon="-1.7024900950491428375244140625">
        <ele>801.4000244140625</ele>
        <time>2020-02-22T12:39:41.000Z</time>
      </trkpt>
      <trkpt lat="37.86486661992967128753662109375" lon="-1.70237467624247074127197265625">
        <ele>800.5999755859375</ele>
        <time>2020-02-22T12:39:42.000Z</time>
      </trkpt>
      <trkpt lat="37.86477492190897464752197265625" lon="-1.70225615613162517547607421875">
        <ele>799.20001220703125</ele>
        <time>2020-02-22T12:39:43.000Z</time>
      </trkpt>
      <trkpt lat="37.864584065973758697509765625" lon="-1.70201911590993404388427734375">
        <ele>797.20001220703125</ele>
        <time>2020-02-22T12:39:45.000Z</time>
      </trkpt>
      <trkpt lat="37.86439170129597187042236328125" lon="-1.7017886973917484283447265625">
        <ele>795.5999755859375</ele>
        <time>2020-02-22T12:39:47.000Z</time>
      </trkpt>
      <trkpt lat="37.86429715342819690704345703125" lon="-1.70167629607021808624267578125">
        <ele>794.4000244140625</ele>
        <time>2020-02-22T12:39:48.000Z</time>
      </trkpt>
      <trkpt lat="37.86420562304556369781494140625" lon="-1.70156381092965602874755859375">
        <ele>793.20001220703125</ele>
        <time>2020-02-22T12:39:49.000Z</time>
      </trkpt>
      <trkpt lat="37.86402239464223384857177734375" lon="-1.70134286396205425262451171875">
        <ele>791.5999755859375</ele>
        <time>2020-02-22T12:39:51.000Z</time>
      </trkpt>
      <trkpt lat="37.8638385795056819915771484375" lon="-1.7011194862425327301025390625">
        <ele>789.5999755859375</ele>
        <time>2020-02-22T12:39:53.000Z</time>
      </trkpt>
      <trkpt lat="37.8636588715016841888427734375" lon="-1.70089443214237689971923828125">
        <ele>788.20001220703125</ele>
        <time>2020-02-22T12:39:55.000Z</time>
      </trkpt>
      <trkpt lat="37.86356918513774871826171875" lon="-1.70078136026859283447265625">
        <ele>787</ele>
        <time>2020-02-22T12:39:56.000Z</time>
      </trkpt>
      <trkpt lat="37.8633815981447696685791015625" lon="-1.700550355017185211181640625">
        <ele>785.79998779296875</ele>
        <time>2020-02-22T12:39:58.000Z</time>
      </trkpt>
      <trkpt lat="37.8631971962749958038330078125" lon="-1.700325049459934234619140625">
        <ele>784.4000244140625</ele>
        <time>2020-02-22T12:40:00.000Z</time>
      </trkpt>
      <trkpt lat="37.863027043640613555908203125" lon="-1.70011575333774089813232421875">
        <ele>783.20001220703125</ele>
        <time>2020-02-22T12:40:02.000Z</time>
      </trkpt>
      <trkpt lat="37.86286854185163974761962890625" lon="-1.69991961680352687835693359375">
        <ele>781.5999755859375</ele>
        <time>2020-02-22T12:40:04.000Z</time>
      </trkpt>
      <trkpt lat="37.862788997590541839599609375" lon="-1.69982356019318103790283203125">
        <ele>780.20001220703125</ele>
        <time>2020-02-22T12:40:05.000Z</time>
      </trkpt>
      <trkpt lat="37.862633429467678070068359375" lon="-1.6996335424482822418212890625">
        <ele>779</ele>
        <time>2020-02-22T12:40:07.000Z</time>
      </trkpt>
      <trkpt lat="37.86247828043997287750244140625" lon="-1.699447967112064361572265625">
        <ele>778.5999755859375</ele>
        <time>2020-02-22T12:40:09.000Z</time>
      </trkpt>
      <trkpt lat="37.8624012507498264312744140625" lon="-1.69935484416782855987548828125">
        <ele>778.5999755859375</ele>
        <time>2020-02-22T12:40:10.000Z</time>
      </trkpt>
      <trkpt lat="37.86216102540493011474609375" lon="-1.6990743018686771392822265625">
        <ele>777.79998779296875</ele>
        <time>2020-02-22T12:40:13.000Z</time>
      </trkpt>
      <trkpt lat="37.86208081059157848358154296875" lon="-1.69897983781993389129638671875">
        <ele>777.5999755859375</ele>
        <time>2020-02-22T12:40:14.000Z</time>
      </trkpt>
      <trkpt lat="37.86191954277455806732177734375" lon="-1.69879660941660404205322265625">
        <ele>776.79998779296875</ele>
        <time>2020-02-22T12:40:16.000Z</time>
      </trkpt>
      <trkpt lat="37.86168686114251613616943359375" lon="-1.6985147260129451751708984375">
        <ele>776.20001220703125</ele>
        <time>2020-02-22T12:40:19.000Z</time>
      </trkpt>
      <trkpt lat="37.86154168657958507537841796875" lon="-1.69830962084233760833740234375">
        <ele>775.20001220703125</ele>
        <time>2020-02-22T12:40:21.000Z</time>
      </trkpt>
      <trkpt lat="37.86141931079328060150146484375" lon="-1.6980798728764057159423828125">
        <ele>774.20001220703125</ele>
        <time>2020-02-22T12:40:23.000Z</time>
      </trkpt>
      <trkpt lat="37.8613585419952869415283203125" lon="-1.69796579517424106597900390625">
        <ele>773.79998779296875</ele>
        <time>2020-02-22T12:40:24.000Z</time>
      </trkpt>
      <trkpt lat="37.8611748106777667999267578125" lon="-1.69762163423001766204833984375">
        <ele>772.5999755859375</ele>
        <time>2020-02-22T12:40:27.000Z</time>
      </trkpt>
      <trkpt lat="37.860943637788295745849609375" lon="-1.69716683216392993927001953125">
        <ele>771.4000244140625</ele>
        <time>2020-02-22T12:40:31.000Z</time>
      </trkpt>
      <trkpt lat="37.86088454537093639373779296875" lon="-1.6970616392791271209716796875">
        <ele>770.79998779296875</ele>
        <time>2020-02-22T12:40:32.000Z</time>
      </trkpt>
      <trkpt lat="37.86082821898162364959716796875" lon="-1.6969540156424045562744140625">
        <ele>770.20001220703125</ele>
        <time>2020-02-22T12:40:33.000Z</time>
      </trkpt>
      <trkpt lat="37.860651947557926177978515625" lon="-1.696638353168964385986328125">
        <ele>769</ele>
        <time>2020-02-22T12:40:36.000Z</time>
      </trkpt>
      <trkpt lat="37.8605126403272151947021484375" lon="-1.696458645164966583251953125">
        <ele>768.5999755859375</ele>
        <time>2020-02-22T12:40:38.000Z</time>
      </trkpt>
      <trkpt lat="37.86044172942638397216796875" lon="-1.6963770054280757904052734375">
        <ele>768.4000244140625</ele>
        <time>2020-02-22T12:40:39.000Z</time>
      </trkpt>
      <trkpt lat="37.86029328592121601104736328125" lon="-1.69623711146414279937744140625">
        <ele>767.5999755859375</ele>
        <time>2020-02-22T12:40:41.000Z</time>
      </trkpt>
      <trkpt lat="37.8601471893489360809326171875" lon="-1.69609378091990947723388671875">
        <ele>766.5999755859375</ele>
        <time>2020-02-22T12:40:43.000Z</time>
      </trkpt>
      <trkpt lat="37.85976137034595012664794921875" lon="-1.695727407932281494140625">
        <ele>765</ele>
        <time>2020-02-22T12:40:48.000Z</time>
      </trkpt>
      <trkpt lat="37.85960831679403781890869140625" lon="-1.6955696605145931243896484375">
        <ele>764.5999755859375</ele>
        <time>2020-02-22T12:40:50.000Z</time>
      </trkpt>
      <trkpt lat="37.85955014638602733612060546875" lon="-1.69547385536134243011474609375">
        <ele>764.20001220703125</ele>
        <time>2020-02-22T12:40:51.000Z</time>
      </trkpt>
      <trkpt lat="37.85950404591858386993408203125" lon="-1.69537310488522052764892578125">
        <ele>763.79998779296875</ele>
        <time>2020-02-22T12:40:52.000Z</time>
      </trkpt>
      <trkpt lat="37.85948141478002071380615234375" lon="-1.69512969441711902618408203125">
        <ele>762.79998779296875</ele>
        <time>2020-02-22T12:40:54.000Z</time>
      </trkpt>
      <trkpt lat="37.85954050719738006591796875" lon="-1.6947566159069538116455078125">
        <ele>762</ele>
        <time>2020-02-22T12:40:57.000Z</time>
      </trkpt>
      <trkpt lat="37.85956439562141895294189453125" lon="-1.694642119109630584716796875">
        <ele>761.79998779296875</ele>
        <time>2020-02-22T12:40:58.000Z</time>
      </trkpt>
      <trkpt lat="37.85958484746515750885009765625" lon="-1.6945289634168148040771484375">
        <ele>761.79998779296875</ele>
        <time>2020-02-22T12:40:59.000Z</time>
      </trkpt>
      <trkpt lat="37.85966095514595508575439453125" lon="-1.69412755407392978668212890625">
        <ele>760.79998779296875</ele>
        <time>2020-02-22T12:41:03.000Z</time>
      </trkpt>
      <trkpt lat="37.85966833122074604034423828125" lon="-1.6940327547490596771240234375">
        <ele>760.79998779296875</ele>
        <time>2020-02-22T12:41:04.000Z</time>
      </trkpt>
      <trkpt lat="37.85966699011623859405517578125" lon="-1.69393745250999927520751953125">
        <ele>760.5999755859375</ele>
        <time>2020-02-22T12:41:05.000Z</time>
      </trkpt>
      <trkpt lat="37.85964067094027996063232421875" lon="-1.693769395351409912109375">
        <ele>760.5999755859375</ele>
        <time>2020-02-22T12:41:07.000Z</time>
      </trkpt>
      <trkpt lat="37.85961837507784366607666015625" lon="-1.69368834234774112701416015625">
        <ele>760.5999755859375</ele>
        <time>2020-02-22T12:41:08.000Z</time>
      </trkpt>
      <trkpt lat="37.85959725268185138702392578125" lon="-1.69361005537211894989013671875">
        <ele>760.5999755859375</ele>
        <time>2020-02-22T12:41:09.000Z</time>
      </trkpt>
      <trkpt lat="37.85954394377768039703369140625" lon="-1.693362034857273101806640625">
        <ele>760.79998779296875</ele>
        <time>2020-02-22T12:41:12.000Z</time>
      </trkpt>
      <trkpt lat="37.85949449054896831512451171875" lon="-1.69313848949968814849853515625">
        <ele>761.5999755859375</ele>
        <time>2020-02-22T12:41:15.000Z</time>
      </trkpt>
      <trkpt lat="37.85947739146649837493896484375" lon="-1.6930658183991909027099609375">
        <ele>761.79998779296875</ele>
        <time>2020-02-22T12:41:16.000Z</time>
      </trkpt>
      <trkpt lat="37.85942743532359600067138671875" lon="-1.69285668991506099700927734375">
        <ele>762.20001220703125</ele>
        <time>2020-02-22T12:41:19.000Z</time>
      </trkpt>
      <trkpt lat="37.85937798209488391876220703125" lon="-1.6925729624927043914794921875">
        <ele>763</ele>
        <time>2020-02-22T12:41:23.000Z</time>
      </trkpt>
      <trkpt lat="37.85930321551859378814697265625" lon="-1.6922202520072460174560546875">
        <ele>763.79998779296875</ele>
        <time>2020-02-22T12:41:28.000Z</time>
      </trkpt>
      <trkpt lat="37.859262563288211822509765625" lon="-1.692072562873363494873046875">
        <ele>764</ele>
        <time>2020-02-22T12:41:30.000Z</time>
      </trkpt>
      <trkpt lat="37.8592446260154247283935546875" lon="-1.6920029930770397186279296875">
        <ele>764.20001220703125</ele>
        <time>2020-02-22T12:41:31.000Z</time>
      </trkpt>
      <trkpt lat="37.8591976873576641082763671875" lon="-1.6918668709695339202880859375">
        <ele>764.4000244140625</ele>
        <time>2020-02-22T12:41:33.000Z</time>
      </trkpt>
      <trkpt lat="37.85912116058170795440673828125" lon="-1.691747009754180908203125">
        <ele>764.5999755859375</ele>
        <time>2020-02-22T12:41:35.000Z</time>
      </trkpt>
      <trkpt lat="37.85902745090425014495849609375" lon="-1.69165137223899364471435546875">
        <ele>764.5999755859375</ele>
        <time>2020-02-22T12:41:37.000Z</time>
      </trkpt>
      <trkpt lat="37.858871631324291229248046875" lon="-1.69152732007205486297607421875">
        <ele>764.79998779296875</ele>
        <time>2020-02-22T12:41:40.000Z</time>
      </trkpt>
      <trkpt lat="37.85877331160008907318115234375" lon="-1.6914531402289867401123046875">
        <ele>765.20001220703125</ele>
        <time>2020-02-22T12:41:42.000Z</time>
      </trkpt>
      <trkpt lat="37.85846753977239131927490234375" lon="-1.69124183245003223419189453125">
        <ele>766.20001220703125</ele>
        <time>2020-02-22T12:41:48.000Z</time>
      </trkpt>
      <trkpt lat="37.85820300690829753875732421875" lon="-1.69103362597525119781494140625">
        <ele>766.5999755859375</ele>
        <time>2020-02-22T12:41:53.000Z</time>
      </trkpt>
      <trkpt lat="37.8580460138618946075439453125" lon="-1.69091125018894672393798828125">
        <ele>766.79998779296875</ele>
        <time>2020-02-22T12:41:56.000Z</time>
      </trkpt>
      <trkpt lat="37.85789966583251953125" lon="-1.69079071842133998870849609375">
        <ele>767.5999755859375</ele>
        <time>2020-02-22T12:41:59.000Z</time>
      </trkpt>
      <trkpt lat="37.8577293455600738525390625" lon="-1.6905950009822845458984375">
        <ele>768.20001220703125</ele>
        <time>2020-02-22T12:42:03.000Z</time>
      </trkpt>
      <trkpt lat="37.8576232306659221649169921875" lon="-1.69032099656760692596435546875">
        <ele>768.5999755859375</ele>
        <time>2020-02-22T12:42:07.000Z</time>
      </trkpt>
      <trkpt lat="37.85760529339313507080078125" lon="-1.69024053029716014862060546875">
        <ele>768.5999755859375</ele>
        <time>2020-02-22T12:42:08.000Z</time>
      </trkpt>
      <trkpt lat="37.85754226148128509521484375" lon="-1.6898652724921703338623046875">
        <ele>768.5999755859375</ele>
        <time>2020-02-22T12:42:12.000Z</time>
      </trkpt>
      <trkpt lat="37.857510410249233245849609375" lon="-1.6896490193903446197509765625">
        <ele>768.5999755859375</ele>
        <time>2020-02-22T12:42:14.000Z</time>
      </trkpt>
      <trkpt lat="37.8574629686772823333740234375" lon="-1.68929102830588817596435546875">
        <ele>768.20001220703125</ele>
        <time>2020-02-22T12:42:17.000Z</time>
      </trkpt>
      <trkpt lat="37.8573861904442310333251953125" lon="-1.68875961564481258392333984375">
        <ele>766.5999755859375</ele>
        <time>2020-02-22T12:42:21.000Z</time>
      </trkpt>
      <trkpt lat="37.85734771750867366790771484375" lon="-1.68850078247487545013427734375">
        <ele>765.4000244140625</ele>
        <time>2020-02-22T12:42:23.000Z</time>
      </trkpt>
      <trkpt lat="37.85732760094106197357177734375" lon="-1.68837882578372955322265625">
        <ele>765</ele>
        <time>2020-02-22T12:42:24.000Z</time>
      </trkpt>
      <trkpt lat="37.85730899311602115631103515625" lon="-1.68825552798807621002197265625">
        <ele>764.20001220703125</ele>
        <time>2020-02-22T12:42:25.000Z</time>
      </trkpt>
      <trkpt lat="37.857290469110012054443359375" lon="-1.68813432566821575164794921875">
        <ele>763.5999755859375</ele>
        <time>2020-02-22T12:42:26.000Z</time>
      </trkpt>
      <trkpt lat="37.85727211274206638336181640625" lon="-1.68801731429994106292724609375">
        <ele>763.20001220703125</ele>
        <time>2020-02-22T12:42:27.000Z</time>
      </trkpt>
      <trkpt lat="37.85723925568163394927978515625" lon="-1.68779469095170497894287109375">
        <ele>762</ele>
        <time>2020-02-22T12:42:29.000Z</time>
      </trkpt>
      <trkpt lat="37.85722349770367145538330078125" lon="-1.6876896657049655914306640625">
        <ele>761.79998779296875</ele>
        <time>2020-02-22T12:42:30.000Z</time>
      </trkpt>
      <trkpt lat="37.8571333922445774078369140625" lon="-1.687090694904327392578125">
        <ele>761.5999755859375</ele>
        <time>2020-02-22T12:42:36.000Z</time>
      </trkpt>
      <trkpt lat="37.857118807733058929443359375" lon="-1.6869899444282054901123046875">
        <ele>761.5999755859375</ele>
        <time>2020-02-22T12:42:37.000Z</time>
      </trkpt>
      <trkpt lat="37.85700724460184574127197265625" lon="-1.68623968027532100677490234375">
        <ele>762.20001220703125</ele>
        <time>2020-02-22T12:42:45.000Z</time>
      </trkpt>
      <trkpt lat="37.85698813386261463165283203125" lon="-1.686144880950450897216796875">
        <ele>762.20001220703125</ele>
        <time>2020-02-22T12:42:46.000Z</time>
      </trkpt>
      <trkpt lat="37.85695762373507022857666015625" lon="-1.68595301918685436248779296875">
        <ele>762.4000244140625</ele>
        <time>2020-02-22T12:42:48.000Z</time>
      </trkpt>
      <trkpt lat="37.85687782801687717437744140625" lon="-1.68541054241359233856201171875">
        <ele>762.20001220703125</ele>
        <time>2020-02-22T12:42:53.000Z</time>
      </trkpt>
      <trkpt lat="37.85682837478816509246826171875" lon="-1.68506688438355922698974609375">
        <ele>762.20001220703125</ele>
        <time>2020-02-22T12:42:56.000Z</time>
      </trkpt>
      <trkpt lat="37.85673516802489757537841796875" lon="-1.68448559939861297607421875">
        <ele>761.20001220703125</ele>
        <time>2020-02-22T12:43:01.000Z</time>
      </trkpt>
      <trkpt lat="37.85671572200953960418701171875" lon="-1.68437319807708263397216796875">
        <ele>761.20001220703125</ele>
        <time>2020-02-22T12:43:02.000Z</time>
      </trkpt>
      <trkpt lat="37.85667666234076023101806640625" lon="-1.68414085172116756439208984375">
        <ele>760</ele>
        <time>2020-02-22T12:43:04.000Z</time>
      </trkpt>
      <trkpt lat="37.85663475282490253448486328125" lon="-1.68390749953687191009521484375">
        <ele>759.20001220703125</ele>
        <time>2020-02-22T12:43:06.000Z</time>
      </trkpt>
      <trkpt lat="37.85661547444760799407958984375" lon="-1.68379115872085094451904296875">
        <ele>758.79998779296875</ele>
        <time>2020-02-22T12:43:07.000Z</time>
      </trkpt>
      <trkpt lat="37.85655654966831207275390625" lon="-1.68341397307813167572021484375">
        <ele>758</ele>
        <time>2020-02-22T12:43:10.000Z</time>
      </trkpt>
      <trkpt lat="37.85651723854243755340576171875" lon="-1.68314851820468902587890625">
        <ele>757.5999755859375</ele>
        <time>2020-02-22T12:43:12.000Z</time>
      </trkpt>
      <trkpt lat="37.85648186691105365753173828125" lon="-1.68289194814860820770263671875">
        <ele>756</ele>
        <time>2020-02-22T12:43:14.000Z</time>
      </trkpt>
      <trkpt lat="37.856428809463977813720703125" lon="-1.68252892792224884033203125">
        <ele>755</ele>
        <time>2020-02-22T12:43:17.000Z</time>
      </trkpt>
      <trkpt lat="37.85641263239085674285888671875" lon="-1.68241954408586025238037109375">
        <ele>754.5999755859375</ele>
        <time>2020-02-22T12:43:18.000Z</time>
      </trkpt>
      <trkpt lat="37.85630098544061183929443359375" lon="-1.68168646283447742462158203125">
        <ele>754.20001220703125</ele>
        <time>2020-02-22T12:43:25.000Z</time>
      </trkpt>
      <trkpt lat="37.85628497600555419921875" lon="-1.6815812699496746063232421875">
        <ele>754.20001220703125</ele>
        <time>2020-02-22T12:43:26.000Z</time>
      </trkpt>
      <trkpt lat="37.8562157414853572845458984375" lon="-1.68111733160912990570068359375">
        <ele>754.4000244140625</ele>
        <time>2020-02-22T12:43:31.000Z</time>
      </trkpt>
      <trkpt lat="37.856146506965160369873046875" lon="-1.68075674213469028472900390625">
        <ele>754.4000244140625</ele>
        <time>2020-02-22T12:43:35.000Z</time>
      </trkpt>
      <trkpt lat="37.85611591301858425140380859375" lon="-1.680563203990459442138671875">
        <ele>754.4000244140625</ele>
        <time>2020-02-22T12:43:37.000Z</time>
      </trkpt>
      <trkpt lat="37.85610116086900234222412109375" lon="-1.6804535686969757080078125">
        <ele>754.4000244140625</ele>
        <time>2020-02-22T12:43:38.000Z</time>
      </trkpt>
      <trkpt lat="37.8560702316462993621826171875" lon="-1.68022097088396549224853515625">
        <ele>754.4000244140625</ele>
        <time>2020-02-22T12:43:40.000Z</time>
      </trkpt>
      <trkpt lat="37.85597576759755611419677734375" lon="-1.67956265620887279510498046875">
        <ele>754</ele>
        <time>2020-02-22T12:43:46.000Z</time>
      </trkpt>
      <trkpt lat="37.855876944959163665771484375" lon="-1.6788460873067378997802734375">
        <ele>753.4000244140625</ele>
        <time>2020-02-22T12:43:52.000Z</time>
      </trkpt>
      <trkpt lat="37.85586697049438953399658203125" lon="-1.67872153222560882568359375">
        <ele>753.20001220703125</ele>
        <time>2020-02-22T12:43:53.000Z</time>
      </trkpt>
      <trkpt lat="37.8558603487908840179443359375" lon="-1.6785921156406402587890625">
        <ele>753</ele>
        <time>2020-02-22T12:43:54.000Z</time>
      </trkpt>
      <trkpt lat="37.855868227779865264892578125" lon="-1.6783307678997516632080078125">
        <ele>751.79998779296875</ele>
        <time>2020-02-22T12:43:56.000Z</time>
      </trkpt>
      <trkpt lat="37.8558740951120853424072265625" lon="-1.67806967161595821380615234375">
        <ele>751</ele>
        <time>2020-02-22T12:43:58.000Z</time>
      </trkpt>
      <trkpt lat="37.85588758997619152069091796875" lon="-1.67779617011547088623046875">
        <ele>750.4000244140625</ele>
        <time>2020-02-22T12:44:00.000Z</time>
      </trkpt>
      <trkpt lat="37.85590485669672489166259765625" lon="-1.677496433258056640625">
        <ele>749.4000244140625</ele>
        <time>2020-02-22T12:44:02.000Z</time>
      </trkpt>
      <trkpt lat="37.85591281950473785400390625" lon="-1.67734161950647830963134765625">
        <ele>749</ele>
        <time>2020-02-22T12:44:03.000Z</time>
      </trkpt>
      <trkpt lat="37.8559270687401294708251953125" lon="-1.67702746577560901641845703125">
        <ele>748.20001220703125</ele>
        <time>2020-02-22T12:44:05.000Z</time>
      </trkpt>
      <trkpt lat="37.85593838430941104888916015625" lon="-1.6767145693302154541015625">
        <ele>747</ele>
        <time>2020-02-22T12:44:07.000Z</time>
      </trkpt>
      <trkpt lat="37.85594240762293338775634765625" lon="-1.67655774392187595367431640625">
        <ele>746</ele>
        <time>2020-02-22T12:44:08.000Z</time>
      </trkpt>
      <trkpt lat="37.855952717363834381103515625" lon="-1.676253564655780792236328125">
        <ele>744.5999755859375</ele>
        <time>2020-02-22T12:44:10.000Z</time>
      </trkpt>
      <trkpt lat="37.855958752334117889404296875" lon="-1.6759796440601348876953125">
        <ele>743.5999755859375</ele>
        <time>2020-02-22T12:44:12.000Z</time>
      </trkpt>
      <trkpt lat="37.855963446199893951416015625" lon="-1.67584628798067569732666015625">
        <ele>743.4000244140625</ele>
        <time>2020-02-22T12:44:13.000Z</time>
      </trkpt>
      <trkpt lat="37.85596755333244800567626953125" lon="-1.67571184225380420684814453125">
        <ele>742.4000244140625</ele>
        <time>2020-02-22T12:44:14.000Z</time>
      </trkpt>
      <trkpt lat="37.85597492940723896026611328125" lon="-1.67544177733361721038818359375">
        <ele>741.4000244140625</ele>
        <time>2020-02-22T12:44:16.000Z</time>
      </trkpt>
      <trkpt lat="37.855979539453983306884765625" lon="-1.67530716396868228912353515625">
        <ele>741</ele>
        <time>2020-02-22T12:44:17.000Z</time>
      </trkpt>
      <trkpt lat="37.8559941239655017852783203125" lon="-1.6749112866818904876708984375">
        <ele>739.79998779296875</ele>
        <time>2020-02-22T12:44:20.000Z</time>
      </trkpt>
      <trkpt lat="37.85600543953478336334228515625" lon="-1.67464750818908214569091796875">
        <ele>739.4000244140625</ele>
        <time>2020-02-22T12:44:22.000Z</time>
      </trkpt>
      <trkpt lat="37.85601801238954067230224609375" lon="-1.67438481934368610382080078125">
        <ele>739.20001220703125</ele>
        <time>2020-02-22T12:44:24.000Z</time>
      </trkpt>
      <trkpt lat="37.85602438263595104217529296875" lon="-1.67412296868860721588134765625">
        <ele>739</ele>
        <time>2020-02-22T12:44:26.000Z</time>
      </trkpt>
      <trkpt lat="37.8560256399214267730712890625" lon="-1.67399589903652667999267578125">
        <ele>738.5999755859375</ele>
        <time>2020-02-22T12:44:27.000Z</time>
      </trkpt>
      <trkpt lat="37.85603796131908893585205078125" lon="-1.67361301369965076446533203125">
        <ele>737.4000244140625</ele>
        <time>2020-02-22T12:44:30.000Z</time>
      </trkpt>
      <trkpt lat="37.856049947440624237060546875" lon="-1.6733468882739543914794921875">
        <ele>737</ele>
        <time>2020-02-22T12:44:32.000Z</time>
      </trkpt>
      <trkpt lat="37.85605489276349544525146484375" lon="-1.6732097603380680084228515625">
        <ele>736.79998779296875</ele>
        <time>2020-02-22T12:44:33.000Z</time>
      </trkpt>
      <trkpt lat="37.85606704652309417724609375" lon="-1.67279896326363086700439453125">
        <ele>736</ele>
        <time>2020-02-22T12:44:36.000Z</time>
      </trkpt>
      <trkpt lat="37.85607953555881977081298828125" lon="-1.6723900102078914642333984375">
        <ele>735</ele>
        <time>2020-02-22T12:44:39.000Z</time>
      </trkpt>
      <trkpt lat="37.85609814338386058807373046875" lon="-1.6718666441738605499267578125">
        <ele>733.79998779296875</ele>
        <time>2020-02-22T12:44:43.000Z</time>
      </trkpt>
      <trkpt lat="37.856104932725429534912109375" lon="-1.67162884958088397979736328125">
        <ele>732.5999755859375</ele>
        <time>2020-02-22T12:44:45.000Z</time>
      </trkpt>
      <trkpt lat="37.85611272789537906646728515625" lon="-1.67131754569709300994873046875">
        <ele>732.20001220703125</ele>
        <time>2020-02-22T12:44:48.000Z</time>
      </trkpt>
      <trkpt lat="37.8561299107968807220458984375" lon="-1.67112417519092559814453125">
        <ele>732.20001220703125</ele>
        <time>2020-02-22T12:44:50.000Z</time>
      </trkpt>
      <trkpt lat="37.856196127831935882568359375" lon="-1.6708400286734104156494140625">
        <ele>732.20001220703125</ele>
        <time>2020-02-22T12:44:53.000Z</time>
      </trkpt>
      <trkpt lat="37.8562796115875244140625" lon="-1.6706688702106475830078125">
        <ele>732.4000244140625</ele>
        <time>2020-02-22T12:44:55.000Z</time>
      </trkpt>
      <trkpt lat="37.856390587985515594482421875" lon="-1.67053517885506153106689453125">
        <ele>732.5999755859375</ele>
        <time>2020-02-22T12:44:57.000Z</time>
      </trkpt>
      <trkpt lat="37.856446243822574615478515625" lon="-1.67047650553286075592041015625">
        <ele>732.79998779296875</ele>
        <time>2020-02-22T12:44:58.000Z</time>
      </trkpt>
      <trkpt lat="37.85649578087031841278076171875" lon="-1.6704182513058185577392578125">
        <ele>733.20001220703125</ele>
        <time>2020-02-22T12:44:59.000Z</time>
      </trkpt>
      <trkpt lat="37.85657423548400402069091796875" lon="-1.6702901758253574371337890625">
        <ele>733.79998779296875</ele>
        <time>2020-02-22T12:45:01.000Z</time>
      </trkpt>
      <trkpt lat="37.85661128349602222442626953125" lon="-1.6702291555702686309814453125">
        <ele>734</ele>
        <time>2020-02-22T12:45:02.000Z</time>
      </trkpt>
      <trkpt lat="37.85678143613040447235107421875" lon="-1.66992614977061748504638671875">
        <ele>735</ele>
        <time>2020-02-22T12:45:07.000Z</time>
      </trkpt>
      <trkpt lat="37.8568517602980136871337890625" lon="-1.66980980895459651947021484375">
        <ele>735.5999755859375</ele>
        <time>2020-02-22T12:45:09.000Z</time>
      </trkpt>
      <trkpt lat="37.8569339029490947723388671875" lon="-1.66967838071286678314208984375">
        <ele>736</ele>
        <time>2020-02-22T12:45:11.000Z</time>
      </trkpt>
      <trkpt lat="37.856963239610195159912109375" lon="-1.66953085921704769134521484375">
        <ele>736.5999755859375</ele>
        <time>2020-02-22T12:45:13.000Z</time>
      </trkpt>
      <trkpt lat="37.85692258737981319427490234375" lon="-1.66938065551221370697021484375">
        <ele>737</ele>
        <time>2020-02-22T12:45:15.000Z</time>
      </trkpt>
      <trkpt lat="37.856904901564121246337890625" lon="-1.6693143546581268310546875">
        <ele>737.20001220703125</ele>
        <time>2020-02-22T12:45:16.000Z</time>
      </trkpt>
      <trkpt lat="37.856883108615875244140625" lon="-1.6692437790334224700927734375">
        <ele>737.20001220703125</ele>
        <time>2020-02-22T12:45:17.000Z</time>
      </trkpt>
      <trkpt lat="37.8567240200936794281005859375" lon="-1.66876072995364665985107421875">
        <ele>737.5999755859375</ele>
        <time>2020-02-22T12:45:22.000Z</time>
      </trkpt>
      <trkpt lat="37.85653199069201946258544921875" lon="-1.6682040877640247344970703125">
        <ele>737</ele>
        <time>2020-02-22T12:45:27.000Z</time>
      </trkpt>
      <trkpt lat="37.85649460740387439727783203125" lon="-1.66809688322246074676513671875">
        <ele>736.20001220703125</ele>
        <time>2020-02-22T12:45:28.000Z</time>
      </trkpt>
      <trkpt lat="37.8564226068556308746337890625" lon="-1.6678865812718868255615234375">
        <ele>735.20001220703125</ele>
        <time>2020-02-22T12:45:30.000Z</time>
      </trkpt>
      <trkpt lat="37.85635211504995822906494140625" lon="-1.66768616996705532073974609375">
        <ele>734</ele>
        <time>2020-02-22T12:45:32.000Z</time>
      </trkpt>
      <trkpt lat="37.85628003068268299102783203125" lon="-1.66749472729861736297607421875">
        <ele>733.20001220703125</ele>
        <time>2020-02-22T12:45:34.000Z</time>
      </trkpt>
      <trkpt lat="37.85624717362225055694580078125" lon="-1.66741191409528255462646484375">
        <ele>732.79998779296875</ele>
        <time>2020-02-22T12:45:35.000Z</time>
      </trkpt>
      <trkpt lat="37.85618330352008342742919921875" lon="-1.667260788381099700927734375">
        <ele>732.5999755859375</ele>
        <time>2020-02-22T12:45:37.000Z</time>
      </trkpt>
      <trkpt lat="37.85609512589871883392333984375" lon="-1.66704780422151088714599609375">
        <ele>732.4000244140625</ele>
        <time>2020-02-22T12:45:41.000Z</time>
      </trkpt>
      <trkpt lat="37.8560631908476352691650390625" lon="-1.6669411025941371917724609375">
        <ele>732.5999755859375</ele>
        <time>2020-02-22T12:45:43.000Z</time>
      </trkpt>
      <trkpt lat="37.85603343509137630462646484375" lon="-1.66684613563120365142822265625">
        <ele>733</ele>
        <time>2020-02-22T12:45:45.000Z</time>
      </trkpt>
      <trkpt lat="37.8560098819434642791748046875" lon="-1.66674572043120861053466796875">
        <ele>734</ele>
        <time>2020-02-22T12:45:47.000Z</time>
      </trkpt>
      <trkpt lat="37.8559904359281063079833984375" lon="-1.66657917201519012451171875">
        <ele>735.20001220703125</ele>
        <time>2020-02-22T12:45:50.000Z</time>
      </trkpt>
      <trkpt lat="37.85599068738520145416259765625" lon="-1.666437350213527679443359375">
        <ele>736</ele>
        <time>2020-02-22T12:45:53.000Z</time>
      </trkpt>
      <trkpt lat="37.8559944592416286468505859375" lon="-1.66639384813606739044189453125">
        <ele>736.20001220703125</ele>
        <time>2020-02-22T12:45:54.000Z</time>
      </trkpt>
      <trkpt lat="37.8560011647641658782958984375" lon="-1.666260994970798492431640625">
        <ele>737.20001220703125</ele>
        <time>2020-02-22T12:45:57.000Z</time>
      </trkpt>
      <trkpt lat="37.8560035116970539093017578125" lon="-1.66621430777013301849365234375">
        <ele>737.4000244140625</ele>
        <time>2020-02-22T12:45:58.000Z</time>
      </trkpt>
      <trkpt lat="37.85600661300122737884521484375" lon="-1.666107438504695892333984375">
        <ele>737.79998779296875</ele>
        <time>2020-02-22T12:46:00.000Z</time>
      </trkpt>
      <trkpt lat="37.85601650364696979522705078125" lon="-1.66596804745495319366455078125">
        <ele>738.5999755859375</ele>
        <time>2020-02-22T12:46:03.000Z</time>
      </trkpt>
      <trkpt lat="37.8560286574065685272216796875" lon="-1.665799319744110107421875">
        <ele>739.5999755859375</ele>
        <time>2020-02-22T12:46:07.000Z</time>
      </trkpt>
      <trkpt lat="37.85603092052042484283447265625" lon="-1.6657161712646484375">
        <ele>740.5999755859375</ele>
        <time>2020-02-22T12:46:09.000Z</time>
      </trkpt>
      <trkpt lat="37.8560340218245983123779296875" lon="-1.66567660868167877197265625">
        <ele>740.79998779296875</ele>
        <time>2020-02-22T12:46:10.000Z</time>
      </trkpt>
      <trkpt lat="37.85604952834546566009521484375" lon="-1.66544501669704914093017578125">
        <ele>741.79998779296875</ele>
        <time>2020-02-22T12:46:15.000Z</time>
      </trkpt>
      <trkpt lat="37.8560504503548145294189453125" lon="-1.66536748409271240234375">
        <ele>742.5999755859375</ele>
        <time>2020-02-22T12:46:17.000Z</time>
      </trkpt>
      <trkpt lat="37.8560477681457996368408203125" lon="-1.66530017741024494171142578125">
        <ele>743</ele>
        <time>2020-02-22T12:46:19.000Z</time>
      </trkpt>
      <trkpt lat="37.85603829659521579742431640625" lon="-1.6651131771504878997802734375">
        <ele>743.79998779296875</ele>
        <time>2020-02-22T12:46:24.000Z</time>
      </trkpt>
      <trkpt lat="37.85603620111942291259765625" lon="-1.665072776377201080322265625">
        <ele>744</ele>
        <time>2020-02-22T12:46:25.000Z</time>
      </trkpt>
      <trkpt lat="37.85603377036750316619873046875" lon="-1.66489013470709323883056640625">
        <ele>745</ele>
        <time>2020-02-22T12:46:29.000Z</time>
      </trkpt>
      <trkpt lat="37.85603997297585010528564453125" lon="-1.664710342884063720703125">
        <ele>746</ele>
        <time>2020-02-22T12:46:33.000Z</time>
      </trkpt>
      <trkpt lat="37.85604064352810382843017578125" lon="-1.66466633789241313934326171875">
        <ele>746.20001220703125</ele>
        <time>2020-02-22T12:46:34.000Z</time>
      </trkpt>
      <trkpt lat="37.8560558147728443145751953125" lon="-1.66446827352046966552734375">
        <ele>747.20001220703125</ele>
        <time>2020-02-22T12:46:39.000Z</time>
      </trkpt>
      <trkpt lat="37.856055982410907745361328125" lon="-1.664399206638336181640625">
        <ele>747.79998779296875</ele>
        <time>2020-02-22T12:46:41.000Z</time>
      </trkpt>
      <trkpt lat="37.8560474328696727752685546875" lon="-1.664282195270061492919921875">
        <ele>748.4000244140625</ele>
        <time>2020-02-22T12:46:44.000Z</time>
      </trkpt>
      <trkpt lat="37.8560199402272701263427734375" lon="-1.664135344326496124267578125">
        <ele>749.20001220703125</ele>
        <time>2020-02-22T12:46:48.000Z</time>
      </trkpt>
      <trkpt lat="37.85601264797151088714599609375" lon="-1.66409804485738277435302734375">
        <ele>749.4000244140625</ele>
        <time>2020-02-22T12:46:49.000Z</time>
      </trkpt>
      <trkpt lat="37.8559760190546512603759765625" lon="-1.66394834406673908233642578125">
        <ele>750.5999755859375</ele>
        <time>2020-02-22T12:46:54.000Z</time>
      </trkpt>
      <trkpt lat="37.8559669665992259979248046875" lon="-1.663918085396289825439453125">
        <ele>750.5999755859375</ele>
        <time>2020-02-22T12:46:55.000Z</time>
      </trkpt>
      <trkpt lat="37.8559025935828685760498046875" lon="-1.66373292915523052215576171875">
        <ele>751.79998779296875</ele>
        <time>2020-02-22T12:47:01.000Z</time>
      </trkpt>
      <trkpt lat="37.855826653540134429931640625" lon="-1.6635739244520664215087890625">
        <ele>752.79998779296875</ele>
        <time>2020-02-22T12:47:06.000Z</time>
      </trkpt>
      <trkpt lat="37.8558107279241085052490234375" lon="-1.6635464318096637725830078125">
        <ele>753</ele>
        <time>2020-02-22T12:47:07.000Z</time>
      </trkpt>
      <trkpt lat="37.8557081334292888641357421875" lon="-1.66342447511851787567138671875">
        <ele>754</ele>
        <time>2020-02-22T12:47:12.000Z</time>
      </trkpt>
      <trkpt lat="37.85564920864999294281005859375" lon="-1.663384325802326202392578125">
        <ele>754.4000244140625</ele>
        <time>2020-02-22T12:47:14.000Z</time>
      </trkpt>
      <trkpt lat="37.8555260784924030303955078125" lon="-1.663331687450408935546875">
        <ele>755.20001220703125</ele>
        <time>2020-02-22T12:47:18.000Z</time>
      </trkpt>
      <trkpt lat="37.8554395772516727447509765625" lon="-1.6633174382150173187255859375">
        <ele>755.5999755859375</ele>
        <time>2020-02-22T12:47:21.000Z</time>
      </trkpt>
      <trkpt lat="37.85536036826670169830322265625" lon="-1.663303859531879425048828125">
        <ele>756.20001220703125</ele>
        <time>2020-02-22T12:47:24.000Z</time>
      </trkpt>
      <trkpt lat="37.85523463971912860870361328125" lon="-1.6632242314517498016357421875">
        <ele>756.5999755859375</ele>
        <time>2020-02-22T12:47:29.000Z</time>
      </trkpt>
      <trkpt lat="37.8551854379475116729736328125" lon="-1.6631860099732875823974609375">
        <ele>757.5999755859375</ele>
        <time>2020-02-22T12:47:31.000Z</time>
      </trkpt>
      <trkpt lat="37.85509952344000339508056640625" lon="-1.66308601386845111846923828125">
        <ele>758.5999755859375</ele>
        <time>2020-02-22T12:47:35.000Z</time>
      </trkpt>
      <trkpt lat="37.8550013713538646697998046875" lon="-1.6629881970584392547607421875">
        <ele>759.4000244140625</ele>
        <time>2020-02-22T12:47:39.000Z</time>
      </trkpt>
      <trkpt lat="37.85497966222465038299560546875" lon="-1.66296355426311492919921875">
        <ele>759.79998779296875</ele>
        <time>2020-02-22T12:47:40.000Z</time>
      </trkpt>
      <trkpt lat="37.854838930070400238037109375" lon="-1.66281410492956638336181640625">
        <ele>760.79998779296875</ele>
        <time>2020-02-22T12:47:47.000Z</time>
      </trkpt>
      <trkpt lat="37.8548206575214862823486328125" lon="-1.66279147379100322723388671875">
        <ele>761</ele>
        <time>2020-02-22T12:47:48.000Z</time>
      </trkpt>
      <trkpt lat="37.85470959730446338653564453125" lon="-1.66266608051955699920654296875">
        <ele>762</ele>
        <time>2020-02-22T12:47:53.000Z</time>
      </trkpt>
      <trkpt lat="37.8546432964503765106201171875" lon="-1.66259097866714000701904296875">
        <ele>762.4000244140625</ele>
        <time>2020-02-22T12:47:56.000Z</time>
      </trkpt>
      <trkpt lat="37.85453625954687595367431640625" lon="-1.662450246512889862060546875">
        <ele>763</ele>
        <time>2020-02-22T12:48:01.000Z</time>
      </trkpt>
      <trkpt lat="37.854469455778598785400390625" lon="-1.66236952878534793853759765625">
        <ele>763.4000244140625</ele>
        <time>2020-02-22T12:48:04.000Z</time>
      </trkpt>
      <trkpt lat="37.854382283985614776611328125" lon="-1.66224472224712371826171875">
        <ele>764.20001220703125</ele>
        <time>2020-02-22T12:48:08.000Z</time>
      </trkpt>
      <trkpt lat="37.854337356984615325927734375" lon="-1.662129722535610198974609375">
        <ele>764.79998779296875</ele>
        <time>2020-02-22T12:48:11.000Z</time>
      </trkpt>
      <trkpt lat="37.854295112192630767822265625" lon="-1.66197926737368106842041015625">
        <ele>764.79998779296875</ele>
        <time>2020-02-22T12:48:14.000Z</time>
      </trkpt>
      <trkpt lat="37.85425965674221515655517578125" lon="-1.66183769702911376953125">
        <ele>764.79998779296875</ele>
        <time>2020-02-22T12:48:16.000Z</time>
      </trkpt>
      <trkpt lat="37.8541829623281955718994140625" lon="-1.6615709848701953887939453125">
        <ele>764.79998779296875</ele>
        <time>2020-02-22T12:48:19.000Z</time>
      </trkpt>
      <trkpt lat="37.85411439836025238037109375" lon="-1.66138381697237491607666015625">
        <ele>764.79998779296875</ele>
        <time>2020-02-22T12:48:21.000Z</time>
      </trkpt>
      <trkpt lat="37.85407391376793384552001953125" lon="-1.661298237740993499755859375">
        <ele>764.79998779296875</ele>
        <time>2020-02-22T12:48:22.000Z</time>
      </trkpt>
      <trkpt lat="37.853905856609344482421875" lon="-1.6611173562705516815185546875">
        <ele>763.5999755859375</ele>
        <time>2020-02-22T12:48:25.000Z</time>
      </trkpt>
      <trkpt lat="37.85383737646043300628662109375" lon="-1.66108089499175548553466796875">
        <ele>762.79998779296875</ele>
        <time>2020-02-22T12:48:26.000Z</time>
      </trkpt>
      <trkpt lat="37.853769399225711822509765625" lon="-1.66104854084551334381103515625">
        <ele>762.20001220703125</ele>
        <time>2020-02-22T12:48:27.000Z</time>
      </trkpt>
      <trkpt lat="37.85370544530451297760009765625" lon="-1.6610161028802394866943359375">
        <ele>761.4000244140625</ele>
        <time>2020-02-22T12:48:28.000Z</time>
      </trkpt>
      <trkpt lat="37.853639312088489532470703125" lon="-1.6609946452081203460693359375">
        <ele>760.79998779296875</ele>
        <time>2020-02-22T12:48:29.000Z</time>
      </trkpt>
      <trkpt lat="37.8535741008818149566650390625" lon="-1.66097025386989116668701171875">
        <ele>760.4000244140625</ele>
        <time>2020-02-22T12:48:30.000Z</time>
      </trkpt>
      <trkpt lat="37.85330705344676971435546875" lon="-1.6609071381390094757080078125">
        <ele>759.79998779296875</ele>
        <time>2020-02-22T12:48:34.000Z</time>
      </trkpt>
      <trkpt lat="37.85282199271023273468017578125" lon="-1.66089749895036220550537109375">
        <ele>759.5999755859375</ele>
        <time>2020-02-22T12:48:41.000Z</time>
      </trkpt>
      <trkpt lat="37.8527526743710041046142578125" lon="-1.660897247493267059326171875">
        <ele>759.5999755859375</ele>
        <time>2020-02-22T12:48:42.000Z</time>
      </trkpt>
      <trkpt lat="37.85254086367785930633544921875" lon="-1.6608954034745693206787109375">
        <ele>759.4000244140625</ele>
        <time>2020-02-22T12:48:45.000Z</time>
      </trkpt>
      <trkpt lat="37.85224464721977710723876953125" lon="-1.66088484227657318115234375">
        <ele>759.4000244140625</ele>
        <time>2020-02-22T12:48:49.000Z</time>
      </trkpt>
      <trkpt lat="37.85203090868890285491943359375" lon="-1.660884507000446319580078125">
        <ele>759.5999755859375</ele>
        <time>2020-02-22T12:48:52.000Z</time>
      </trkpt>
      <trkpt lat="37.85184080712497234344482421875" lon="-1.66087679564952850341796875">
        <ele>759.5999755859375</ele>
        <time>2020-02-22T12:48:55.000Z</time>
      </trkpt>
      <trkpt lat="37.8516157530248165130615234375" lon="-1.66086472570896148681640625">
        <ele>760</ele>
        <time>2020-02-22T12:48:59.000Z</time>
      </trkpt>
      <trkpt lat="37.85146177746355533599853515625" lon="-1.66084134019911289215087890625">
        <ele>760.5999755859375</ele>
        <time>2020-02-22T12:49:02.000Z</time>
      </trkpt>
      <trkpt lat="37.85132624208927154541015625" lon="-1.66077931411564350128173828125">
        <ele>761.4000244140625</ele>
        <time>2020-02-22T12:49:05.000Z</time>
      </trkpt>
      <trkpt lat="37.8512838296592235565185546875" lon="-1.66074528358876705169677734375">
        <ele>762</ele>
        <time>2020-02-22T12:49:06.000Z</time>
      </trkpt>
      <trkpt lat="37.8511552512645721435546875" lon="-1.660625003278255462646484375">
        <ele>763</ele>
        <time>2020-02-22T12:49:09.000Z</time>
      </trkpt>
      <trkpt lat="37.8511161915957927703857421875" lon="-1.66058083064854145050048828125">
        <ele>763.4000244140625</ele>
        <time>2020-02-22T12:49:10.000Z</time>
      </trkpt>
      <trkpt lat="37.85085626877844333648681640625" lon="-1.66026801802217960357666015625">
        <ele>763.79998779296875</ele>
        <time>2020-02-22T12:49:17.000Z</time>
      </trkpt>
      <trkpt lat="37.85082408227026462554931640625" lon="-1.660220324993133544921875">
        <ele>764</ele>
        <time>2020-02-22T12:49:18.000Z</time>
      </trkpt>
      <trkpt lat="37.85076188854873180389404296875" lon="-1.6601101867854595184326171875">
        <ele>764.20001220703125</ele>
        <time>2020-02-22T12:49:20.000Z</time>
      </trkpt>
      <trkpt lat="37.85070053301751613616943359375" lon="-1.6599938459694385528564453125">
        <ele>764.79998779296875</ele>
        <time>2020-02-22T12:49:22.000Z</time>
      </trkpt>
      <trkpt lat="37.850603051483631134033203125" lon="-1.65980014018714427947998046875">
        <ele>765.20001220703125</ele>
        <time>2020-02-22T12:49:25.000Z</time>
      </trkpt>
      <trkpt lat="37.85053490661084651947021484375" lon="-1.65964054875075817108154296875">
        <ele>765.20001220703125</ele>
        <time>2020-02-22T12:49:27.000Z</time>
      </trkpt>
      <trkpt lat="37.85049970261752605438232421875" lon="-1.659560166299343109130859375">
        <ele>765.20001220703125</ele>
        <time>2020-02-22T12:49:28.000Z</time>
      </trkpt>
      <trkpt lat="37.850258052349090576171875" lon="-1.65904191322624683380126953125">
        <ele>763.79998779296875</ele>
        <time>2020-02-22T12:49:35.000Z</time>
      </trkpt>
      <trkpt lat="37.85022796131670475006103515625" lon="-1.65898072533309459686279296875">
        <ele>763.4000244140625</ele>
        <time>2020-02-22T12:49:36.000Z</time>
      </trkpt>
      <trkpt lat="37.85017364658415317535400390625" lon="-1.65884695015847682952880859375">
        <ele>763</ele>
        <time>2020-02-22T12:49:38.000Z</time>
      </trkpt>
      <trkpt lat="37.85011027939617633819580078125" lon="-1.65860923938453197479248046875">
        <ele>762.79998779296875</ele>
        <time>2020-02-22T12:49:41.000Z</time>
      </trkpt>
      <trkpt lat="37.8500731475651264190673828125" lon="-1.6584401763975620269775390625">
        <ele>762.5999755859375</ele>
        <time>2020-02-22T12:49:43.000Z</time>
      </trkpt>
      <trkpt lat="37.85003316588699817657470703125" lon="-1.6582609713077545166015625">
        <ele>762.5999755859375</ele>
        <time>2020-02-22T12:49:45.000Z</time>
      </trkpt>
      <trkpt lat="37.84998890943825244903564453125" lon="-1.6579717956483364105224609375">
        <ele>762.4000244140625</ele>
        <time>2020-02-22T12:49:48.000Z</time>
      </trkpt>
      <trkpt lat="37.85000391304492950439453125" lon="-1.65776006877422332763671875">
        <ele>762</ele>
        <time>2020-02-22T12:49:50.000Z</time>
      </trkpt>
      <trkpt lat="37.850040458142757415771484375" lon="-1.657560579478740692138671875">
        <ele>761.5999755859375</ele>
        <time>2020-02-22T12:49:52.000Z</time>
      </trkpt>
      <trkpt lat="37.85009904764592647552490234375" lon="-1.65724634192883968353271484375">
        <ele>760.4000244140625</ele>
        <time>2020-02-22T12:49:56.000Z</time>
      </trkpt>
      <trkpt lat="37.85010240040719509124755859375" lon="-1.6571855731308460235595703125">
        <ele>760.4000244140625</ele>
        <time>2020-02-22T12:49:57.000Z</time>
      </trkpt>
      <trkpt lat="37.85006602294743061065673828125" lon="-1.6570427455008029937744140625">
        <ele>760.20001220703125</ele>
        <time>2020-02-22T12:50:00.000Z</time>
      </trkpt>
      <trkpt lat="37.85004590637981891632080078125" lon="-1.65700661949813365936279296875">
        <ele>760.20001220703125</ele>
        <time>2020-02-22T12:50:01.000Z</time>
      </trkpt>
      <trkpt lat="37.85002143122255802154541015625" lon="-1.656968481838703155517578125">
        <ele>760.20001220703125</ele>
        <time>2020-02-22T12:50:02.000Z</time>
      </trkpt>
      <trkpt lat="37.8499925136566162109375" lon="-1.65692447684705257415771484375">
        <ele>760.20001220703125</ele>
        <time>2020-02-22T12:50:03.000Z</time>
      </trkpt>
      <trkpt lat="37.84984859637916088104248046875" lon="-1.65680008940398693084716796875">
        <ele>761</ele>
        <time>2020-02-22T12:50:07.000Z</time>
      </trkpt>
      <trkpt lat="37.84973376430571079254150390625" lon="-1.65677812881767749786376953125">
        <ele>761.79998779296875</ele>
        <time>2020-02-22T12:50:10.000Z</time>
      </trkpt>
      <trkpt lat="37.84965924918651580810546875" lon="-1.65678667835891246795654296875">
        <ele>762.20001220703125</ele>
        <time>2020-02-22T12:50:12.000Z</time>
      </trkpt>
      <trkpt lat="37.8495826385915279388427734375" lon="-1.6567953117191791534423828125">
        <ele>762.79998779296875</ele>
        <time>2020-02-22T12:50:14.000Z</time>
      </trkpt>
      <trkpt lat="37.84954098053276538848876953125" lon="-1.65680109523236751556396484375">
        <ele>763</ele>
        <time>2020-02-22T12:50:15.000Z</time>
      </trkpt>
      <trkpt lat="37.8494237177073955535888671875" lon="-1.656830348074436187744140625">
        <ele>764</ele>
        <time>2020-02-22T12:50:18.000Z</time>
      </trkpt>
      <trkpt lat="37.8493875078856945037841796875" lon="-1.6568489558994770050048828125">
        <ele>764.4000244140625</ele>
        <time>2020-02-22T12:50:19.000Z</time>
      </trkpt>
      <trkpt lat="37.84929807297885417938232421875" lon="-1.65692699141800403594970703125">
        <ele>765</ele>
        <time>2020-02-22T12:50:22.000Z</time>
      </trkpt>
      <trkpt lat="37.84920352511107921600341796875" lon="-1.65699371136724948883056640625">
        <ele>765.79998779296875</ele>
        <time>2020-02-22T12:50:25.000Z</time>
      </trkpt>
      <trkpt lat="37.8491682372987270355224609375" lon="-1.65700879879295825958251953125">
        <ele>766</ele>
        <time>2020-02-22T12:50:26.000Z</time>
      </trkpt>
      <trkpt lat="37.84900487400591373443603515625" lon="-1.656996645033359527587890625">
        <ele>767.4000244140625</ele>
        <time>2020-02-22T12:50:30.000Z</time>
      </trkpt>
      <trkpt lat="37.8488339670002460479736328125" lon="-1.656854487955570220947265625">
        <ele>768.4000244140625</ele>
        <time>2020-02-22T12:50:35.000Z</time>
      </trkpt>
      <trkpt lat="37.8486716933548450469970703125" lon="-1.65669498033821582794189453125">
        <ele>769.4000244140625</ele>
        <time>2020-02-22T12:50:40.000Z</time>
      </trkpt>
      <trkpt lat="37.84863003529608249664306640625" lon="-1.65666715241968631744384765625">
        <ele>769.4000244140625</ele>
        <time>2020-02-22T12:50:41.000Z</time>
      </trkpt>
      <trkpt lat="37.84853481687605381011962890625" lon="-1.65662406943738460540771484375">
        <ele>769.4000244140625</ele>
        <time>2020-02-22T12:50:43.000Z</time>
      </trkpt>
      <trkpt lat="37.84843356348574161529541015625" lon="-1.6566008515655994415283203125">
        <ele>769.5999755859375</ele>
        <time>2020-02-22T12:50:45.000Z</time>
      </trkpt>
      <trkpt lat="37.848380841314792633056640625" lon="-1.65660110302269458770751953125">
        <ele>769.5999755859375</ele>
        <time>2020-02-22T12:50:46.000Z</time>
      </trkpt>
      <trkpt lat="37.848211191594600677490234375" lon="-1.65664485655725002288818359375">
        <ele>770</ele>
        <time>2020-02-22T12:50:50.000Z</time>
      </trkpt>
      <trkpt lat="37.8481117822229862213134765625" lon="-1.656736470758914947509765625">
        <ele>770.20001220703125</ele>
        <time>2020-02-22T12:50:53.000Z</time>
      </trkpt>
      <trkpt lat="37.8480477444827556610107421875" lon="-1.6568050347268581390380859375">
        <ele>770.4000244140625</ele>
        <time>2020-02-22T12:50:55.000Z</time>
      </trkpt>
      <trkpt lat="37.84801178611814975738525390625" lon="-1.656832359731197357177734375">
        <ele>770.5999755859375</ele>
        <time>2020-02-22T12:50:56.000Z</time>
      </trkpt>
      <trkpt lat="37.847857810556888580322265625" lon="-1.65685893036425113677978515625">
        <ele>771.4000244140625</ele>
        <time>2020-02-22T12:51:00.000Z</time>
      </trkpt>
      <trkpt lat="37.8478194214403629302978515625" lon="-1.6568474471569061279296875">
        <ele>771.79998779296875</ele>
        <time>2020-02-22T12:51:01.000Z</time>
      </trkpt>
      <trkpt lat="37.84771137870848178863525390625" lon="-1.6567815653979778289794921875">
        <ele>772.4000244140625</ele>
        <time>2020-02-22T12:51:04.000Z</time>
      </trkpt>
      <trkpt lat="37.8476791083812713623046875" lon="-1.65674895979464054107666015625">
        <ele>772.5999755859375</ele>
        <time>2020-02-22T12:51:05.000Z</time>
      </trkpt>
      <trkpt lat="37.84762571565806865692138671875" lon="-1.6566756181418895721435546875">
        <ele>773</ele>
        <time>2020-02-22T12:51:07.000Z</time>
      </trkpt>
      <trkpt lat="37.8476075269281864166259765625" lon="-1.65664033032953739166259765625">
        <ele>773</ele>
        <time>2020-02-22T12:51:08.000Z</time>
      </trkpt>
      <trkpt lat="37.84757458604872226715087890625" lon="-1.656564138829708099365234375">
        <ele>773.20001220703125</ele>
        <time>2020-02-22T12:51:10.000Z</time>
      </trkpt>
      <trkpt lat="37.84753452055156230926513671875" lon="-1.656462214887142181396484375">
        <ele>774</ele>
        <time>2020-02-22T12:51:12.000Z</time>
      </trkpt>
      <trkpt lat="37.8474274836480617523193359375" lon="-1.6562625579535961151123046875">
        <ele>774.4000244140625</ele>
        <time>2020-02-22T12:51:16.000Z</time>
      </trkpt>
      <trkpt lat="37.8472581692039966583251953125" lon="-1.6559889726340770721435546875">
        <ele>774.5999755859375</ele>
        <time>2020-02-22T12:51:22.000Z</time>
      </trkpt>
      <trkpt lat="37.84703345037996768951416015625" lon="-1.6557965241372585296630859375">
        <ele>775.20001220703125</ele>
        <time>2020-02-22T12:51:28.000Z</time>
      </trkpt>
      <trkpt lat="37.8468286804854869842529296875" lon="-1.65569619275629520416259765625">
        <ele>776.5999755859375</ele>
        <time>2020-02-22T12:51:33.000Z</time>
      </trkpt>
      <trkpt lat="37.846714518964290618896484375" lon="-1.65563416667282581329345703125">
        <ele>777.20001220703125</ele>
        <time>2020-02-22T12:51:36.000Z</time>
      </trkpt>
      <trkpt lat="37.84661653451621532440185546875" lon="-1.655551604926586151123046875">
        <ele>777.79998779296875</ele>
        <time>2020-02-22T12:51:39.000Z</time>
      </trkpt>
      <trkpt lat="37.846535481512546539306640625" lon="-1.6554646007716655731201171875">
        <ele>778.4000244140625</ele>
        <time>2020-02-22T12:51:42.000Z</time>
      </trkpt>
      <trkpt lat="37.84646180458366870880126953125" lon="-1.65536343120038509368896484375">
        <ele>779</ele>
        <time>2020-02-22T12:51:45.000Z</time>
      </trkpt>
      <trkpt lat="37.84635686315596103668212890625" lon="-1.6551953740417957305908203125">
        <ele>780</ele>
        <time>2020-02-22T12:51:49.000Z</time>
      </trkpt>
      <trkpt lat="37.846323587000370025634765625" lon="-1.6551424004137516021728515625">
        <ele>780</ele>
        <time>2020-02-22T12:51:50.000Z</time>
      </trkpt>
      <trkpt lat="37.84619391895830631256103515625" lon="-1.6549858264625072479248046875">
        <ele>780.20001220703125</ele>
        <time>2020-02-22T12:51:53.000Z</time>
      </trkpt>
      <trkpt lat="37.84614664502441883087158203125" lon="-1.65494869463145732879638671875">
        <ele>780.20001220703125</ele>
        <time>2020-02-22T12:51:54.000Z</time>
      </trkpt>
      <trkpt lat="37.84594531171023845672607421875" lon="-1.65480754338204860687255859375">
        <ele>780.20001220703125</ele>
        <time>2020-02-22T12:51:58.000Z</time>
      </trkpt>
      <trkpt lat="37.8458310663700103759765625" lon="-1.65479698218405246734619140625">
        <ele>780.20001220703125</ele>
        <time>2020-02-22T12:52:00.000Z</time>
      </trkpt>
      <trkpt lat="37.845653705298900604248046875" lon="-1.65484274737536907196044921875">
        <ele>780</ele>
        <time>2020-02-22T12:52:03.000Z</time>
      </trkpt>
      <trkpt lat="37.84553174860775470733642578125" lon="-1.65489354170858860015869140625">
        <ele>779.5999755859375</ele>
        <time>2020-02-22T12:52:05.000Z</time>
      </trkpt>
      <trkpt lat="37.84528666175901889801025390625" lon="-1.65499831549823284149169921875">
        <ele>778.79998779296875</ele>
        <time>2020-02-22T12:52:09.000Z</time>
      </trkpt>
      <trkpt lat="37.84509069286286830902099609375" lon="-1.6550743393599987030029296875">
        <ele>778.4000244140625</ele>
        <time>2020-02-22T12:52:12.000Z</time>
      </trkpt>
      <trkpt lat="37.8450242243707180023193359375" lon="-1.6550968028604984283447265625">
        <ele>778.20001220703125</ele>
        <time>2020-02-22T12:52:13.000Z</time>
      </trkpt>
      <trkpt lat="37.8448922932147979736328125" lon="-1.65514064021408557891845703125">
        <ele>778</ele>
        <time>2020-02-22T12:52:15.000Z</time>
      </trkpt>
      <trkpt lat="37.8448324464261531829833984375" lon="-1.65515908040106296539306640625">
        <ele>777.79998779296875</ele>
        <time>2020-02-22T12:52:16.000Z</time>
      </trkpt>
      <trkpt lat="37.844611667096614837646484375" lon="-1.65524055249989032745361328125">
        <ele>777.79998779296875</ele>
        <time>2020-02-22T12:52:20.000Z</time>
      </trkpt>
      <trkpt lat="37.8445001877844333648681640625" lon="-1.65526502765715122222900390625">
        <ele>777.79998779296875</ele>
        <time>2020-02-22T12:52:22.000Z</time>
      </trkpt>
      <trkpt lat="37.8443258441984653472900390625" lon="-1.6552164964377880096435546875">
        <ele>777.79998779296875</ele>
        <time>2020-02-22T12:52:25.000Z</time>
      </trkpt>
      <trkpt lat="37.84409559331834316253662109375" lon="-1.65501507930457592010498046875">
        <ele>777.4000244140625</ele>
        <time>2020-02-22T12:52:29.000Z</time>
      </trkpt>
      <trkpt lat="37.84377456642687320709228515625" lon="-1.65465817786753177642822265625">
        <ele>777.4000244140625</ele>
        <time>2020-02-22T12:52:34.000Z</time>
      </trkpt>
      <trkpt lat="37.8436391986906528472900390625" lon="-1.65451602078974246978759765625">
        <ele>776.5999755859375</ele>
        <time>2020-02-22T12:52:36.000Z</time>
      </trkpt>
      <trkpt lat="37.84350684843957424163818359375" lon="-1.6543974168598651885986328125">
        <ele>776</ele>
        <time>2020-02-22T12:52:38.000Z</time>
      </trkpt>
      <trkpt lat="37.84344054758548736572265625" lon="-1.65434771217405796051025390625">
        <ele>775.20001220703125</ele>
        <time>2020-02-22T12:52:39.000Z</time>
      </trkpt>
      <trkpt lat="37.8433092869818210601806640625" lon="-1.65427126921713352203369140625">
        <ele>774.20001220703125</ele>
        <time>2020-02-22T12:52:41.000Z</time>
      </trkpt>
      <trkpt lat="37.84311340190470218658447265625" lon="-1.65418795309960842132568359375">
        <ele>773.5999755859375</ele>
        <time>2020-02-22T12:52:44.000Z</time>
      </trkpt>
      <trkpt lat="37.84264988265931606292724609375" lon="-1.6539625637233257293701171875">
        <ele>773</ele>
        <time>2020-02-22T12:52:51.000Z</time>
      </trkpt>
      <trkpt lat="37.8421468846499919891357421875" lon="-1.653733067214488983154296875">
        <ele>771.5999755859375</ele>
        <time>2020-02-22T12:52:58.000Z</time>
      </trkpt>
      <trkpt lat="37.8419923223555088043212890625" lon="-1.6536738909780979156494140625">
        <ele>770.4000244140625</ele>
        <time>2020-02-22T12:53:00.000Z</time>
      </trkpt>
      <trkpt lat="37.8418330661952495574951171875" lon="-1.65361010469496250152587890625">
        <ele>769.79998779296875</ele>
        <time>2020-02-22T12:53:02.000Z</time>
      </trkpt>
      <trkpt lat="37.8416741453111171722412109375" lon="-1.65353751741349697113037109375">
        <ele>769.20001220703125</ele>
        <time>2020-02-22T12:53:04.000Z</time>
      </trkpt>
      <trkpt lat="37.841449342668056488037109375" lon="-1.6534276306629180908203125">
        <ele>768.5999755859375</ele>
        <time>2020-02-22T12:53:07.000Z</time>
      </trkpt>
      <trkpt lat="37.84125228412449359893798828125" lon="-1.65331455878913402557373046875">
        <ele>768</ele>
        <time>2020-02-22T12:53:10.000Z</time>
      </trkpt>
      <trkpt lat="37.84115471877157688140869140625" lon="-1.6531907580792903900146484375">
        <ele>767.79998779296875</ele>
        <time>2020-02-22T12:53:12.000Z</time>
      </trkpt>
      <trkpt lat="37.84107425250113010406494140625" lon="-1.65304918773472309112548828125">
        <ele>767.5999755859375</ele>
        <time>2020-02-22T12:53:14.000Z</time>
      </trkpt>
      <trkpt lat="37.8409878350794315338134765625" lon="-1.65291407145559787750244140625">
        <ele>767.5999755859375</ele>
        <time>2020-02-22T12:53:16.000Z</time>
      </trkpt>
      <trkpt lat="37.8409335203468799591064453125" lon="-1.65285162627696990966796875">
        <ele>767.5999755859375</ele>
        <time>2020-02-22T12:53:17.000Z</time>
      </trkpt>
      <trkpt lat="37.84072204492986202239990234375" lon="-1.65274299681186676025390625">
        <ele>767.5999755859375</ele>
        <time>2020-02-22T12:53:20.000Z</time>
      </trkpt>
      <trkpt lat="37.84042867831885814666748046875" lon="-1.65275464765727519989013671875">
        <ele>767.5999755859375</ele>
        <time>2020-02-22T12:53:24.000Z</time>
      </trkpt>
      <trkpt lat="37.84031250514090061187744140625" lon="-1.6528135724365711212158203125">
        <ele>767.5999755859375</ele>
        <time>2020-02-22T12:53:26.000Z</time>
      </trkpt>
      <trkpt lat="37.8401184640824794769287109375" lon="-1.6528816334903240203857421875">
        <ele>767.5999755859375</ele>
        <time>2020-02-22T12:53:29.000Z</time>
      </trkpt>
      <trkpt lat="37.8397580422461032867431640625" lon="-1.652894876897335052490234375">
        <ele>767.79998779296875</ele>
        <time>2020-02-22T12:53:35.000Z</time>
      </trkpt>
      <trkpt lat="37.83951773308217525482177734375" lon="-1.65290418080985546112060546875">
        <ele>768.5999755859375</ele>
        <time>2020-02-22T12:53:39.000Z</time>
      </trkpt>
      <trkpt lat="37.8393104486167430877685546875" lon="-1.65289613418281078338623046875">
        <ele>769</ele>
        <time>2020-02-22T12:53:42.000Z</time>
      </trkpt>
      <trkpt lat="37.83907466568052768707275390625" lon="-1.65284357964992523193359375">
        <ele>769</ele>
        <time>2020-02-22T12:53:45.000Z</time>
      </trkpt>
      <trkpt lat="37.838909290730953216552734375" lon="-1.65282974950969219207763671875">
        <ele>769</ele>
        <time>2020-02-22T12:53:47.000Z</time>
      </trkpt>
      <trkpt lat="37.83866127021610736846923828125" lon="-1.65284751914441585540771484375">
        <ele>768.4000244140625</ele>
        <time>2020-02-22T12:53:50.000Z</time>
      </trkpt>
      <trkpt lat="37.8385111503303050994873046875" lon="-1.652864031493663787841796875">
        <ele>767.79998779296875</ele>
        <time>2020-02-22T12:53:52.000Z</time>
      </trkpt>
      <trkpt lat="37.83837561495602130889892578125" lon="-1.65289227850735187530517578125">
        <ele>766.79998779296875</ele>
        <time>2020-02-22T12:53:54.000Z</time>
      </trkpt>
      <trkpt lat="37.83825105987489223480224609375" lon="-1.6529141552746295928955078125">
        <ele>766.20001220703125</ele>
        <time>2020-02-22T12:53:56.000Z</time>
      </trkpt>
      <trkpt lat="37.83819339238107204437255859375" lon="-1.6529064439237117767333984375">
        <ele>766.20001220703125</ele>
        <time>2020-02-22T12:53:57.000Z</time>
      </trkpt>
      <trkpt lat="37.83804394304752349853515625" lon="-1.6527988202869892120361328125">
        <ele>766</ele>
        <time>2020-02-22T12:54:00.000Z</time>
      </trkpt>
      <trkpt lat="37.83799842931330204010009765625" lon="-1.65275431238114833831787109375">
        <ele>766</ele>
        <time>2020-02-22T12:54:01.000Z</time>
      </trkpt>
      <trkpt lat="37.83786951564252376556396484375" lon="-1.65262254886329174041748046875">
        <ele>766</ele>
        <time>2020-02-22T12:54:04.000Z</time>
      </trkpt>
      <trkpt lat="37.83774227835237979888916015625" lon="-1.6524987481534481048583984375">
        <ele>767.20001220703125</ele>
        <time>2020-02-22T12:54:07.000Z</time>
      </trkpt>
      <trkpt lat="37.83766038715839385986328125" lon="-1.652404032647609710693359375">
        <ele>767.5999755859375</ele>
        <time>2020-02-22T12:54:09.000Z</time>
      </trkpt>
      <trkpt lat="37.8375886380672454833984375" lon="-1.6522888652980327606201171875">
        <ele>768</ele>
        <time>2020-02-22T12:54:11.000Z</time>
      </trkpt>
      <trkpt lat="37.8375536017119884490966796875" lon="-1.65222541429102420806884765625">
        <ele>768.20001220703125</ele>
        <time>2020-02-22T12:54:12.000Z</time>
      </trkpt>
      <trkpt lat="37.83739744685590267181396484375" lon="-1.651953756809234619140625">
        <ele>768.20001220703125</ele>
        <time>2020-02-22T12:54:16.000Z</time>
      </trkpt>
      <trkpt lat="37.83733860589563846588134765625" lon="-1.651891060173511505126953125">
        <ele>768.20001220703125</ele>
        <time>2020-02-22T12:54:17.000Z</time>
      </trkpt>
      <trkpt lat="37.837136350572109222412109375" lon="-1.6517534293234348297119140625">
        <ele>768.20001220703125</ele>
        <time>2020-02-22T12:54:20.000Z</time>
      </trkpt>
      <trkpt lat="37.83706887625157833099365234375" lon="-1.651717387139797210693359375">
        <ele>768</ele>
        <time>2020-02-22T12:54:21.000Z</time>
      </trkpt>
      <trkpt lat="37.8367249667644500732421875" lon="-1.65154916234314441680908203125">
        <ele>767.20001220703125</ele>
        <time>2020-02-22T12:54:27.000Z</time>
      </trkpt>
      <trkpt lat="37.83625356853008270263671875" lon="-1.6513055004179477691650390625">
        <ele>767</ele>
        <time>2020-02-22T12:54:35.000Z</time>
      </trkpt>
      <trkpt lat="37.836054749786853790283203125" lon="-1.6510755009949207305908203125">
        <ele>767</ele>
        <time>2020-02-22T12:54:39.000Z</time>
      </trkpt>
      <trkpt lat="37.83588074147701263427734375" lon="-1.65079864673316478729248046875">
        <ele>767</ele>
        <time>2020-02-22T12:54:43.000Z</time>
      </trkpt>
      <trkpt lat="37.8357528336346149444580078125" lon="-1.650601923465728759765625">
        <ele>766.4000244140625</ele>
        <time>2020-02-22T12:54:46.000Z</time>
      </trkpt>
      <trkpt lat="37.83564076758921146392822265625" lon="-1.6504984907805919647216796875">
        <ele>766</ele>
        <time>2020-02-22T12:54:48.000Z</time>
      </trkpt>
      <trkpt lat="37.83550866879522800445556640625" lon="-1.650431267917156219482421875">
        <ele>765.4000244140625</ele>
        <time>2020-02-22T12:54:50.000Z</time>
      </trkpt>
      <trkpt lat="37.835436500608921051025390625" lon="-1.65039983578026294708251953125">
        <ele>765.20001220703125</ele>
        <time>2020-02-22T12:54:51.000Z</time>
      </trkpt>
      <trkpt lat="37.8352854587137699127197265625" lon="-1.65033638477325439453125">
        <ele>765</ele>
        <time>2020-02-22T12:54:53.000Z</time>
      </trkpt>
      <trkpt lat="37.8350400365889072418212890625" lon="-1.65024443529546260833740234375">
        <ele>764.5999755859375</ele>
        <time>2020-02-22T12:54:56.000Z</time>
      </trkpt>
      <trkpt lat="37.83478246070444583892822265625" lon="-1.6501457802951335906982421875">
        <ele>763.79998779296875</ele>
        <time>2020-02-22T12:54:59.000Z</time>
      </trkpt>
      <trkpt lat="37.83460359089076519012451171875" lon="-1.65007646195590496063232421875">
        <ele>762.79998779296875</ele>
        <time>2020-02-22T12:55:01.000Z</time>
      </trkpt>
      <trkpt lat="37.8345123119652271270751953125" lon="-1.65004276670515537261962890625">
        <ele>762</ele>
        <time>2020-02-22T12:55:02.000Z</time>
      </trkpt>
      <trkpt lat="37.83442161977291107177734375" lon="-1.65000571869313716888427734375">
        <ele>761.4000244140625</ele>
        <time>2020-02-22T12:55:03.000Z</time>
      </trkpt>
      <trkpt lat="37.834332101047039031982421875" lon="-1.64996825158596038818359375">
        <ele>761.20001220703125</ele>
        <time>2020-02-22T12:55:04.000Z</time>
      </trkpt>
      <trkpt lat="37.83414694480597972869873046875" lon="-1.64989759214222431182861328125">
        <ele>760</ele>
        <time>2020-02-22T12:55:06.000Z</time>
      </trkpt>
      <trkpt lat="37.83405222930014133453369140625" lon="-1.64985870011150836944580078125">
        <ele>758.79998779296875</ele>
        <time>2020-02-22T12:55:07.000Z</time>
      </trkpt>
      <trkpt lat="37.83386598341166973114013671875" lon="-1.6497736237943172454833984375">
        <ele>757.79998779296875</ele>
        <time>2020-02-22T12:55:09.000Z</time>
      </trkpt>
      <trkpt lat="37.8336778096854686737060546875" lon="-1.64969265460968017578125">
        <ele>756.79998779296875</ele>
        <time>2020-02-22T12:55:11.000Z</time>
      </trkpt>
      <trkpt lat="37.83357999287545680999755859375" lon="-1.6496549360454082489013671875">
        <ele>756.20001220703125</ele>
        <time>2020-02-22T12:55:12.000Z</time>
      </trkpt>
      <trkpt lat="37.83337597735226154327392578125" lon="-1.64958008565008640289306640625">
        <ele>755</ele>
        <time>2020-02-22T12:55:14.000Z</time>
      </trkpt>
      <trkpt lat="37.8331710398197174072265625" lon="-1.64950464852154254913330078125">
        <ele>753.79998779296875</ele>
        <time>2020-02-22T12:55:16.000Z</time>
      </trkpt>
      <trkpt lat="37.83296626992523670196533203125" lon="-1.64942082948982715606689453125">
        <ele>752.79998779296875</ele>
        <time>2020-02-22T12:55:18.000Z</time>
      </trkpt>
      <trkpt lat="37.83277231268584728240966796875" lon="-1.6493186540901660919189453125">
        <ele>751.5999755859375</ele>
        <time>2020-02-22T12:55:20.000Z</time>
      </trkpt>
      <trkpt lat="37.83261054195463657379150390625" lon="-1.64915311150252819061279296875">
        <ele>750.20001220703125</ele>
        <time>2020-02-22T12:55:22.000Z</time>
      </trkpt>
      <trkpt lat="37.8324620984494686126708984375" lon="-1.64897139184176921844482421875">
        <ele>749</ele>
        <time>2020-02-22T12:55:24.000Z</time>
      </trkpt>
      <trkpt lat="37.83230242319405078887939453125" lon="-1.6488169133663177490234375">
        <ele>747.79998779296875</ele>
        <time>2020-02-22T12:55:26.000Z</time>
      </trkpt>
      <trkpt lat="37.8322108089923858642578125" lon="-1.6487563960254192352294921875">
        <ele>747.20001220703125</ele>
        <time>2020-02-22T12:55:27.000Z</time>
      </trkpt>
      <trkpt lat="37.83211232163012027740478515625" lon="-1.64871389977633953094482421875">
        <ele>746.5999755859375</ele>
        <time>2020-02-22T12:55:28.000Z</time>
      </trkpt>
      <trkpt lat="37.83189900219440460205078125" lon="-1.648694537580013275146484375">
        <ele>745.79998779296875</ele>
        <time>2020-02-22T12:55:30.000Z</time>
      </trkpt>
      <trkpt lat="37.8317897021770477294921875" lon="-1.6487084515392780303955078125">
        <ele>745</ele>
        <time>2020-02-22T12:55:31.000Z</time>
      </trkpt>
      <trkpt lat="37.8315665759146213531494140625" lon="-1.64871289394795894622802734375">
        <ele>743.79998779296875</ele>
        <time>2020-02-22T12:55:33.000Z</time>
      </trkpt>
      <trkpt lat="37.831450067460536956787109375" lon="-1.64869646541774272918701171875">
        <ele>743.4000244140625</ele>
        <time>2020-02-22T12:55:34.000Z</time>
      </trkpt>
      <trkpt lat="37.8312155418097972869873046875" lon="-1.64862354286015033721923828125">
        <ele>742.4000244140625</ele>
        <time>2020-02-22T12:55:36.000Z</time>
      </trkpt>
      <trkpt lat="37.83110347576439380645751953125" lon="-1.6485696472227573394775390625">
        <ele>741.5999755859375</ele>
        <time>2020-02-22T12:55:37.000Z</time>
      </trkpt>
      <trkpt lat="37.83099266700446605682373046875" lon="-1.64851608686149120330810546875">
        <ele>740.79998779296875</ele>
        <time>2020-02-22T12:55:38.000Z</time>
      </trkpt>
      <trkpt lat="37.830881439149379730224609375" lon="-1.64847149513661861419677734375">
        <ele>739.20001220703125</ele>
        <time>2020-02-22T12:55:39.000Z</time>
      </trkpt>
      <trkpt lat="37.83077037893235683441162109375" lon="-1.64844534359872341156005859375">
        <ele>738.20001220703125</ele>
        <time>2020-02-22T12:55:40.000Z</time>
      </trkpt>
      <trkpt lat="37.83065713942050933837890625" lon="-1.64844014681875705718994140625">
        <ele>737.79998779296875</ele>
        <time>2020-02-22T12:55:41.000Z</time>
      </trkpt>
      <trkpt lat="37.83054658211767673492431640625" lon="-1.64845439605414867401123046875">
        <ele>736.79998779296875</ele>
        <time>2020-02-22T12:55:42.000Z</time>
      </trkpt>
      <trkpt lat="37.83043694682419300079345703125" lon="-1.6484762728214263916015625">
        <ele>736.20001220703125</ele>
        <time>2020-02-22T12:55:43.000Z</time>
      </trkpt>
      <trkpt lat="37.83033016137778759002685546875" lon="-1.64849496446549892425537109375">
        <ele>735.5999755859375</ele>
        <time>2020-02-22T12:55:44.000Z</time>
      </trkpt>
      <trkpt lat="37.830233015120029449462890625" lon="-1.64848356507718563079833984375">
        <ele>734.20001220703125</ele>
        <time>2020-02-22T12:55:45.000Z</time>
      </trkpt>
      <trkpt lat="37.83014106564223766326904296875" lon="-1.64843897335231304168701171875">
        <ele>732.79998779296875</ele>
        <time>2020-02-22T12:55:46.000Z</time>
      </trkpt>
      <trkpt lat="37.82999237067997455596923828125" lon="-1.6482923738658428192138671875">
        <ele>731.5999755859375</ele>
        <time>2020-02-22T12:55:48.000Z</time>
      </trkpt>
      <trkpt lat="37.82992196269333362579345703125" lon="-1.64820712991058826446533203125">
        <ele>730.79998779296875</ele>
        <time>2020-02-22T12:55:49.000Z</time>
      </trkpt>
      <trkpt lat="37.82984501682221889495849609375" lon="-1.6481398232281208038330078125">
        <ele>730.4000244140625</ele>
        <time>2020-02-22T12:55:50.000Z</time>
      </trkpt>
      <trkpt lat="37.8297607786953449249267578125" lon="-1.64810269139707088470458984375">
        <ele>729.20001220703125</ele>
        <time>2020-02-22T12:55:51.000Z</time>
      </trkpt>
      <trkpt lat="37.8296783007681369781494140625" lon="-1.648073606193065643310546875">
        <ele>728.4000244140625</ele>
        <time>2020-02-22T12:55:52.000Z</time>
      </trkpt>
      <trkpt lat="37.82960127107799053192138671875" lon="-1.64803999476134777069091796875">
        <ele>727.79998779296875</ele>
        <time>2020-02-22T12:55:53.000Z</time>
      </trkpt>
      <trkpt lat="37.8294975869357585906982421875" lon="-1.6479004360735416412353515625">
        <ele>727</ele>
        <time>2020-02-22T12:55:55.000Z</time>
      </trkpt>
      <trkpt lat="37.82939943484961986541748046875" lon="-1.64764269255101680755615234375">
        <ele>726.79998779296875</ele>
        <time>2020-02-22T12:55:58.000Z</time>
      </trkpt>
      <trkpt lat="37.82936993055045604705810546875" lon="-1.6475631482899188995361328125">
        <ele>726.79998779296875</ele>
        <time>2020-02-22T12:55:59.000Z</time>
      </trkpt>
      <trkpt lat="37.829299606382846832275390625" lon="-1.6474141180515289306640625">
        <ele>727</ele>
        <time>2020-02-22T12:56:01.000Z</time>
      </trkpt>
      <trkpt lat="37.8292176313698291778564453125" lon="-1.64727397263050079345703125">
        <ele>727.4000244140625</ele>
        <time>2020-02-22T12:56:03.000Z</time>
      </trkpt>
      <trkpt lat="37.829136662185192108154296875" lon="-1.64715285412967205047607421875">
        <ele>728.4000244140625</ele>
        <time>2020-02-22T12:56:05.000Z</time>
      </trkpt>
      <trkpt lat="37.82905745320022106170654296875" lon="-1.64703525602817535400390625">
        <ele>729</ele>
        <time>2020-02-22T12:56:07.000Z</time>
      </trkpt>
      <trkpt lat="37.82894589006900787353515625" lon="-1.6468540392816066741943359375">
        <ele>730.20001220703125</ele>
        <time>2020-02-22T12:56:10.000Z</time>
      </trkpt>
      <trkpt lat="37.82887841574847698211669921875" lon="-1.646740548312664031982421875">
        <ele>731.4000244140625</ele>
        <time>2020-02-22T12:56:12.000Z</time>
      </trkpt>
      <trkpt lat="37.82884421758353710174560546875" lon="-1.64668329991400241851806640625">
        <ele>732</ele>
        <time>2020-02-22T12:56:13.000Z</time>
      </trkpt>
      <trkpt lat="37.82877422869205474853515625" lon="-1.6465509496629238128662109375">
        <ele>732.5999755859375</ele>
        <time>2020-02-22T12:56:15.000Z</time>
      </trkpt>
      <trkpt lat="37.82860131002962589263916015625" lon="-1.646218858659267425537109375">
        <ele>733.79998779296875</ele>
        <time>2020-02-22T12:56:20.000Z</time>
      </trkpt>
      <trkpt lat="37.82857247628271579742431640625" lon="-1.64615741930902004241943359375">
        <ele>733.79998779296875</ele>
        <time>2020-02-22T12:56:21.000Z</time>
      </trkpt>
      <trkpt lat="37.8282664529979228973388671875" lon="-1.64554436691105365753173828125">
        <ele>733.5999755859375</ele>
        <time>2020-02-22T12:56:31.000Z</time>
      </trkpt>
      <trkpt lat="37.82800435088574886322021484375" lon="-1.6450747288763523101806640625">
        <ele>733.20001220703125</ele>
        <time>2020-02-22T12:56:39.000Z</time>
      </trkpt>
      <trkpt lat="37.827812321484088897705078125" lon="-1.644722856581211090087890625">
        <ele>733</ele>
        <time>2020-02-22T12:56:44.000Z</time>
      </trkpt>
      <trkpt lat="37.82769857905805110931396484375" lon="-1.64450014941394329071044921875">
        <ele>732.5999755859375</ele>
        <time>2020-02-22T12:56:47.000Z</time>
      </trkpt>
      <trkpt lat="37.82752943225204944610595703125" lon="-1.644190438091754913330078125">
        <ele>731.79998779296875</ele>
        <time>2020-02-22T12:56:51.000Z</time>
      </trkpt>
      <trkpt lat="37.8274876065552234649658203125" lon="-1.64411257021129131317138671875">
        <ele>731.5999755859375</ele>
        <time>2020-02-22T12:56:52.000Z</time>
      </trkpt>
      <trkpt lat="37.82740102149546146392822265625" lon="-1.64395398460328578948974609375">
        <ele>731</ele>
        <time>2020-02-22T12:56:54.000Z</time>
      </trkpt>
      <trkpt lat="37.82735659740865230560302734375" lon="-1.64387452416121959686279296875">
        <ele>730.79998779296875</ele>
        <time>2020-02-22T12:56:55.000Z</time>
      </trkpt>
      <trkpt lat="37.82731183804571628570556640625" lon="-1.6437926329672336578369140625">
        <ele>730.5999755859375</ele>
        <time>2020-02-22T12:56:56.000Z</time>
      </trkpt>
      <trkpt lat="37.82726573757827281951904296875" lon="-1.64370956830680370330810546875">
        <ele>730.5999755859375</ele>
        <time>2020-02-22T12:56:57.000Z</time>
      </trkpt>
      <trkpt lat="37.8271221555769443511962890625" lon="-1.64345241151750087738037109375">
        <ele>729.5999755859375</ele>
        <time>2020-02-22T12:57:00.000Z</time>
      </trkpt>
      <trkpt lat="37.82698142342269420623779296875" lon="-1.64320103824138641357421875">
        <ele>728.5999755859375</ele>
        <time>2020-02-22T12:57:03.000Z</time>
      </trkpt>
      <trkpt lat="37.82693766988813877105712890625" lon="-1.64311696775257587432861328125">
        <ele>728.20001220703125</ele>
        <time>2020-02-22T12:57:04.000Z</time>
      </trkpt>
      <trkpt lat="37.8268571197986602783203125" lon="-1.64294647984206676483154296875">
        <ele>727.5999755859375</ele>
        <time>2020-02-22T12:57:06.000Z</time>
      </trkpt>
      <trkpt lat="37.82678562216460704803466796875" lon="-1.642763502895832061767578125">
        <ele>727.20001220703125</ele>
        <time>2020-02-22T12:57:08.000Z</time>
      </trkpt>
      <trkpt lat="37.8267483226954936981201171875" lon="-1.64266836829483509063720703125">
        <ele>727</ele>
        <time>2020-02-22T12:57:09.000Z</time>
      </trkpt>
      <trkpt lat="37.82657540403306484222412109375" lon="-1.64229453541338443756103515625">
        <ele>726.4000244140625</ele>
        <time>2020-02-22T12:57:13.000Z</time>
      </trkpt>
      <trkpt lat="37.82652947120368480682373046875" lon="-1.6422000713646411895751953125">
        <ele>726.20001220703125</ele>
        <time>2020-02-22T12:57:14.000Z</time>
      </trkpt>
      <trkpt lat="37.82643391750752925872802734375" lon="-1.64201281964778900146484375">
        <ele>724.79998779296875</ele>
        <time>2020-02-22T12:57:16.000Z</time>
      </trkpt>
      <trkpt lat="37.82638463191688060760498046875" lon="-1.641921289265155792236328125">
        <ele>724.4000244140625</ele>
        <time>2020-02-22T12:57:17.000Z</time>
      </trkpt>
      <trkpt lat="37.82633517868816852569580078125" lon="-1.641830764710903167724609375">
        <ele>723.79998779296875</ele>
        <time>2020-02-22T12:57:18.000Z</time>
      </trkpt>
      <trkpt lat="37.8262283094227313995361328125" lon="-1.6416475363075733184814453125">
        <ele>722.79998779296875</ele>
        <time>2020-02-22T12:57:20.000Z</time>
      </trkpt>
      <trkpt lat="37.82611724920570850372314453125" lon="-1.64145357906818389892578125">
        <ele>720.79998779296875</ele>
        <time>2020-02-22T12:57:22.000Z</time>
      </trkpt>
      <trkpt lat="37.82601029612123966217041015625" lon="-1.641259454190731048583984375">
        <ele>720</ele>
        <time>2020-02-22T12:57:24.000Z</time>
      </trkpt>
      <trkpt lat="37.8259553946554660797119140625" lon="-1.64115476422011852264404296875">
        <ele>719.5999755859375</ele>
        <time>2020-02-22T12:57:25.000Z</time>
      </trkpt>
      <trkpt lat="37.82584249041974544525146484375" lon="-1.64094588719308376312255859375">
        <ele>718.5999755859375</ele>
        <time>2020-02-22T12:57:27.000Z</time>
      </trkpt>
      <trkpt lat="37.82578733749687671661376953125" lon="-1.64084396325051784515380859375">
        <ele>717.79998779296875</ele>
        <time>2020-02-22T12:57:28.000Z</time>
      </trkpt>
      <trkpt lat="37.82573520205914974212646484375" lon="-1.64074421860277652740478515625">
        <ele>717</ele>
        <time>2020-02-22T12:57:29.000Z</time>
      </trkpt>
      <trkpt lat="37.82563914544880390167236328125" lon="-1.6405505128204822540283203125">
        <ele>716.20001220703125</ele>
        <time>2020-02-22T12:57:31.000Z</time>
      </trkpt>
      <trkpt lat="37.82559723593294620513916015625" lon="-1.64045722223818302154541015625">
        <ele>715.79998779296875</ele>
        <time>2020-02-22T12:57:32.000Z</time>
      </trkpt>
      <trkpt lat="37.82552263699471950531005859375" lon="-1.6402708925306797027587890625">
        <ele>714.5999755859375</ele>
        <time>2020-02-22T12:57:34.000Z</time>
      </trkpt>
      <trkpt lat="37.82545231282711029052734375" lon="-1.6401025839149951934814453125">
        <ele>714.20001220703125</ele>
        <time>2020-02-22T12:57:36.000Z</time>
      </trkpt>
      <trkpt lat="37.82520554959774017333984375" lon="-1.63949162699282169342041015625">
        <ele>714</ele>
        <time>2020-02-22T12:57:44.000Z</time>
      </trkpt>
      <trkpt lat="37.82517679966986179351806640625" lon="-1.6394206322729587554931640625">
        <ele>714</ele>
        <time>2020-02-22T12:57:45.000Z</time>
      </trkpt>
      <trkpt lat="37.82510136254131793975830078125" lon="-1.6392265073955059051513671875">
        <ele>714</ele>
        <time>2020-02-22T12:57:48.000Z</time>
      </trkpt>
      <trkpt lat="37.8250095807015895843505859375" lon="-1.6389596275985240936279296875">
        <ele>714.79998779296875</ele>
        <time>2020-02-22T12:57:52.000Z</time>
      </trkpt>
      <trkpt lat="37.8249884583055973052978515625" lon="-1.6388925723731517791748046875">
        <ele>715</ele>
        <time>2020-02-22T12:57:53.000Z</time>
      </trkpt>
      <trkpt lat="37.82491494901478290557861328125" lon="-1.63867388851940631866455078125">
        <ele>715.4000244140625</ele>
        <time>2020-02-22T12:57:56.000Z</time>
      </trkpt>
      <trkpt lat="37.82486432231962680816650390625" lon="-1.63851815275847911834716796875">
        <ele>715.4000244140625</ele>
        <time>2020-02-22T12:57:58.000Z</time>
      </trkpt>
      <trkpt lat="37.82478720881044864654541015625" lon="-1.63830198347568511962890625">
        <ele>715.5999755859375</ele>
        <time>2020-02-22T12:58:01.000Z</time>
      </trkpt>
      <trkpt lat="37.82473641447722911834716796875" lon="-1.63816711865365505218505859375">
        <ele>715.5999755859375</ele>
        <time>2020-02-22T12:58:03.000Z</time>
      </trkpt>
      <trkpt lat="37.82471068203449249267578125" lon="-1.63809888996183872222900390625">
        <ele>715.5999755859375</ele>
        <time>2020-02-22T12:58:04.000Z</time>
      </trkpt>
      <trkpt lat="37.8244798444211483001708984375" lon="-1.6374202072620391845703125">
        <ele>716.20001220703125</ele>
        <time>2020-02-22T12:58:13.000Z</time>
      </trkpt>
      <trkpt lat="37.82426920719444751739501953125" lon="-1.63686834275722503662109375">
        <ele>716.4000244140625</ele>
        <time>2020-02-22T12:58:20.000Z</time>
      </trkpt>
      <trkpt lat="37.8241398744285106658935546875" lon="-1.636547483503818511962890625">
        <ele>716.20001220703125</ele>
        <time>2020-02-22T12:58:24.000Z</time>
      </trkpt>
      <trkpt lat="37.8240832127630710601806640625" lon="-1.63638420403003692626953125">
        <ele>715.4000244140625</ele>
        <time>2020-02-22T12:58:26.000Z</time>
      </trkpt>
      <trkpt lat="37.8239252977073192596435546875" lon="-1.63585488684475421905517578125">
        <ele>714.79998779296875</ele>
        <time>2020-02-22T12:58:33.000Z</time>
      </trkpt>
      <trkpt lat="37.82380878925323486328125" lon="-1.6354881785809993743896484375">
        <ele>715.20001220703125</ele>
        <time>2020-02-22T12:58:39.000Z</time>
      </trkpt>
      <trkpt lat="37.82374441623687744140625" lon="-1.6350365616381168365478515625">
        <ele>715.4000244140625</ele>
        <time>2020-02-22T12:58:45.000Z</time>
      </trkpt>
      <trkpt lat="37.82370007596909999847412109375" lon="-1.63451478816568851470947265625">
        <ele>715.79998779296875</ele>
        <time>2020-02-22T12:58:51.000Z</time>
      </trkpt>
      <trkpt lat="37.823681049048900604248046875" lon="-1.63423734717071056365966796875">
        <ele>715.79998779296875</ele>
        <time>2020-02-22T12:58:54.000Z</time>
      </trkpt>
      <trkpt lat="37.82364542596042156219482421875" lon="-1.63389100693166255950927734375">
        <ele>716.20001220703125</ele>
        <time>2020-02-22T12:58:58.000Z</time>
      </trkpt>
      <trkpt lat="37.82363117672502994537353515625" lon="-1.63382546044886112213134765625">
        <ele>716.4000244140625</ele>
        <time>2020-02-22T12:58:59.000Z</time>
      </trkpt>
      <trkpt lat="37.82353126443922519683837890625" lon="-1.63347744382917881011962890625">
        <ele>717.20001220703125</ele>
        <time>2020-02-22T12:59:04.000Z</time>
      </trkpt>
      <trkpt lat="37.8235082142055034637451171875" lon="-1.63340100087225437164306640625">
        <ele>717.5999755859375</ele>
        <time>2020-02-22T12:59:05.000Z</time>
      </trkpt>
      <trkpt lat="37.82340872101485729217529296875" lon="-1.6330963186919689178466796875">
        <ele>718.20001220703125</ele>
        <time>2020-02-22T12:59:09.000Z</time>
      </trkpt>
      <trkpt lat="37.82332339324057102203369140625" lon="-1.6328502260148525238037109375">
        <ele>718.4000244140625</ele>
        <time>2020-02-22T12:59:12.000Z</time>
      </trkpt>
      <trkpt lat="37.8231246583163738250732421875" lon="-1.63229760713875293731689453125">
        <ele>718</ele>
        <time>2020-02-22T12:59:19.000Z</time>
      </trkpt>
      <trkpt lat="37.8230673260986804962158203125" lon="-1.63211940787732601165771484375">
        <ele>717.79998779296875</ele>
        <time>2020-02-22T12:59:21.000Z</time>
      </trkpt>
      <trkpt lat="37.82303807325661182403564453125" lon="-1.63203139789402484893798828125">
        <ele>717.79998779296875</ele>
        <time>2020-02-22T12:59:22.000Z</time>
      </trkpt>
      <trkpt lat="37.822948135435581207275390625" lon="-1.63174557499587535858154296875">
        <ele>717.4000244140625</ele>
        <time>2020-02-22T12:59:25.000Z</time>
      </trkpt>
      <trkpt lat="37.822918631136417388916015625" lon="-1.63165186531841754913330078125">
        <ele>717.20001220703125</ele>
        <time>2020-02-22T12:59:26.000Z</time>
      </trkpt>
      <trkpt lat="37.8228896297514438629150390625" lon="-1.6315607540309429168701171875">
        <ele>717.20001220703125</ele>
        <time>2020-02-22T12:59:27.000Z</time>
      </trkpt>
      <trkpt lat="37.82277873717248439788818359375" lon="-1.63116462528705596923828125">
        <ele>716.4000244140625</ele>
        <time>2020-02-22T12:59:31.000Z</time>
      </trkpt>
      <trkpt lat="37.82274839468300342559814453125" lon="-1.6310591809451580047607421875">
        <ele>716.20001220703125</ele>
        <time>2020-02-22T12:59:32.000Z</time>
      </trkpt>
      <trkpt lat="37.82268586568534374237060546875" lon="-1.630851812660694122314453125">
        <ele>715.79998779296875</ele>
        <time>2020-02-22T12:59:34.000Z</time>
      </trkpt>
      <trkpt lat="37.8225597180426120758056640625" lon="-1.6304204799234867095947265625">
        <ele>715.20001220703125</ele>
        <time>2020-02-22T12:59:38.000Z</time>
      </trkpt>
      <trkpt lat="37.822507917881011962890625" lon="-1.63021034561097621917724609375">
        <ele>714.20001220703125</ele>
        <time>2020-02-22T12:59:40.000Z</time>
      </trkpt>
      <trkpt lat="37.82249785959720611572265625" lon="-1.6300962679088115692138671875">
        <ele>713.79998779296875</ele>
        <time>2020-02-22T12:59:41.000Z</time>
      </trkpt>
      <trkpt lat="37.82250749878585338592529296875" lon="-1.62987858988344669342041015625">
        <ele>713.4000244140625</ele>
        <time>2020-02-22T12:59:43.000Z</time>
      </trkpt>
      <trkpt lat="37.822537086904048919677734375" lon="-1.629560329020023345947265625">
        <ele>712.79998779296875</ele>
        <time>2020-02-22T12:59:46.000Z</time>
      </trkpt>
      <trkpt lat="37.82257975079119205474853515625" lon="-1.62914869375526905059814453125">
        <ele>711.79998779296875</ele>
        <time>2020-02-22T12:59:50.000Z</time>
      </trkpt>
      <trkpt lat="37.82258913852274417877197265625" lon="-1.62905640900135040283203125">
        <ele>711.5999755859375</ele>
        <time>2020-02-22T12:59:51.000Z</time>
      </trkpt>
      <trkpt lat="37.82262668944895267486572265625" lon="-1.62859582342207431793212890625">
        <ele>711.20001220703125</ele>
        <time>2020-02-22T12:59:56.000Z</time>
      </trkpt>
      <trkpt lat="37.82265300862491130828857421875" lon="-1.6282250918447971343994140625">
        <ele>711.20001220703125</ele>
        <time>2020-02-22T13:00:00.000Z</time>
      </trkpt>
      <trkpt lat="37.82258075661957263946533203125" lon="-1.62797681987285614013671875">
        <ele>711.4000244140625</ele>
        <time>2020-02-22T13:00:03.000Z</time>
      </trkpt>
      <trkpt lat="37.8225007094442844390869140625" lon="-1.6278371773660182952880859375">
        <ele>711.5999755859375</ele>
        <time>2020-02-22T13:00:05.000Z</time>
      </trkpt>
      <trkpt lat="37.82235126011073589324951171875" lon="-1.62756417877972126007080078125">
        <ele>711.79998779296875</ele>
        <time>2020-02-22T13:00:09.000Z</time>
      </trkpt>
      <trkpt lat="37.82225872389972209930419921875" lon="-1.62734021432697772979736328125">
        <ele>712</ele>
        <time>2020-02-22T13:00:12.000Z</time>
      </trkpt>
      <trkpt lat="37.822242043912410736083984375" lon="-1.62715598009526729583740234375">
        <ele>712.20001220703125</ele>
        <time>2020-02-22T13:00:14.000Z</time>
      </trkpt>
      <trkpt lat="37.822256125509738922119140625" lon="-1.62696897983551025390625">
        <ele>712.79998779296875</ele>
        <time>2020-02-22T13:00:16.000Z</time>
      </trkpt>
      <trkpt lat="37.82229392789304256439208984375" lon="-1.62670855410397052764892578125">
        <ele>713.20001220703125</ele>
        <time>2020-02-22T13:00:19.000Z</time>
      </trkpt>
      <trkpt lat="37.8223870508372783660888671875" lon="-1.62603213451802730560302734375">
        <ele>713.5999755859375</ele>
        <time>2020-02-22T13:00:27.000Z</time>
      </trkpt>
      <trkpt lat="37.8224111907184123992919921875" lon="-1.6258630715310573577880859375">
        <ele>713.5999755859375</ele>
        <time>2020-02-22T13:00:29.000Z</time>
      </trkpt>
      <trkpt lat="37.82249107025563716888427734375" lon="-1.625155471265316009521484375">
        <ele>713.5999755859375</ele>
        <time>2020-02-22T13:00:37.000Z</time>
      </trkpt>
      <trkpt lat="37.8225476481020450592041015625" lon="-1.6247016750276088714599609375">
        <ele>713.4000244140625</ele>
        <time>2020-02-22T13:00:42.000Z</time>
      </trkpt>
      <trkpt lat="37.82259441912174224853515625" lon="-1.62431267090141773223876953125">
        <ele>713.4000244140625</ele>
        <time>2020-02-22T13:00:46.000Z</time>
      </trkpt>
      <trkpt lat="37.822640351951122283935546875" lon="-1.62403036840260028839111328125">
        <ele>713.20001220703125</ele>
        <time>2020-02-22T13:00:49.000Z</time>
      </trkpt>
      <trkpt lat="37.82267044298350811004638671875" lon="-1.62385761737823486328125">
        <ele>712.79998779296875</ele>
        <time>2020-02-22T13:00:51.000Z</time>
      </trkpt>
      <trkpt lat="37.82269340939819812774658203125" lon="-1.6237833537161350250244140625">
        <ele>712.5999755859375</ele>
        <time>2020-02-22T13:00:52.000Z</time>
      </trkpt>
      <trkpt lat="37.8228849358856678009033203125" lon="-1.623544134199619293212890625">
        <ele>712.4000244140625</ele>
        <time>2020-02-22T13:00:56.000Z</time>
      </trkpt>
      <trkpt lat="37.82295056618750095367431640625" lon="-1.623497866094112396240234375">
        <ele>712.4000244140625</ele>
        <time>2020-02-22T13:00:57.000Z</time>
      </trkpt>
      <trkpt lat="37.82315458171069622039794921875" lon="-1.6233143024146556854248046875">
        <ele>712.20001220703125</ele>
        <time>2020-02-22T13:01:00.000Z</time>
      </trkpt>
      <trkpt lat="37.82320872880518436431884765625" lon="-1.62322998046875">
        <ele>712.20001220703125</ele>
        <time>2020-02-22T13:01:01.000Z</time>
      </trkpt>
      <trkpt lat="37.823287434875965118408203125" lon="-1.623045913875102996826171875">
        <ele>712</ele>
        <time>2020-02-22T13:01:03.000Z</time>
      </trkpt>
      <trkpt lat="37.8233576752245426177978515625" lon="-1.62286696024239063262939453125">
        <ele>711.79998779296875</ele>
        <time>2020-02-22T13:01:05.000Z</time>
      </trkpt>
      <trkpt lat="37.8236275725066661834716796875" lon="-1.6222239844501018524169921875">
        <ele>711.20001220703125</ele>
        <time>2020-02-22T13:01:13.000Z</time>
      </trkpt>
      <trkpt lat="37.8238491900265216827392578125" lon="-1.621856689453125">
        <ele>711.20001220703125</ele>
        <time>2020-02-22T13:01:19.000Z</time>
      </trkpt>
      <trkpt lat="37.8238785266876220703125" lon="-1.62178971804678440093994140625">
        <ele>711.4000244140625</ele>
        <time>2020-02-22T13:01:20.000Z</time>
      </trkpt>
      <trkpt lat="37.82390057109296321868896484375" lon="-1.62156223319470882415771484375">
        <ele>712</ele>
        <time>2020-02-22T13:01:23.000Z</time>
      </trkpt>
      <trkpt lat="37.823872156441211700439453125" lon="-1.62141345441341400146484375">
        <ele>712.5999755859375</ele>
        <time>2020-02-22T13:01:25.000Z</time>
      </trkpt>
      <trkpt lat="37.82383225858211517333984375" lon="-1.62119979970157146453857421875">
        <ele>713</ele>
        <time>2020-02-22T13:01:28.000Z</time>
      </trkpt>
      <trkpt lat="37.82382127828896045684814453125" lon="-1.6211340017616748809814453125">
        <ele>713.20001220703125</ele>
        <time>2020-02-22T13:01:29.000Z</time>
      </trkpt>
      <trkpt lat="37.82376461662352085113525390625" lon="-1.62088849581778049468994140625">
        <ele>713.79998779296875</ele>
        <time>2020-02-22T13:01:33.000Z</time>
      </trkpt>
      <trkpt lat="37.8237100504338741302490234375" lon="-1.620784141123294830322265625">
        <ele>714</ele>
        <time>2020-02-22T13:01:35.000Z</time>
      </trkpt>
      <trkpt lat="37.8235849924385547637939453125" lon="-1.620649360120296478271484375">
        <ele>714.4000244140625</ele>
        <time>2020-02-22T13:01:38.000Z</time>
      </trkpt>
      <trkpt lat="37.82354098744690418243408203125" lon="-1.62061214447021484375">
        <ele>714.5999755859375</ele>
        <time>2020-02-22T13:01:39.000Z</time>
      </trkpt>
      <trkpt lat="37.8234076313674449920654296875" lon="-1.6204845719039440155029296875">
        <ele>715.4000244140625</ele>
        <time>2020-02-22T13:01:42.000Z</time>
      </trkpt>
      <trkpt lat="37.82332272268831729888916015625" lon="-1.62038608454167842864990234375">
        <ele>715.79998779296875</ele>
        <time>2020-02-22T13:01:44.000Z</time>
      </trkpt>
      <trkpt lat="37.82328701578080654144287109375" lon="-1.620327495038509368896484375">
        <ele>715.79998779296875</ele>
        <time>2020-02-22T13:01:45.000Z</time>
      </trkpt>
      <trkpt lat="37.8232279233634471893310546875" lon="-1.62006522528827190399169921875">
        <ele>716.4000244140625</ele>
        <time>2020-02-22T13:01:49.000Z</time>
      </trkpt>
      <trkpt lat="37.823227085173130035400390625" lon="-1.6199384070932865142822265625">
        <ele>716.5999755859375</ele>
        <time>2020-02-22T13:01:51.000Z</time>
      </trkpt>
      <trkpt lat="37.8232763707637786865234375" lon="-1.6197645664215087890625">
        <ele>717</ele>
        <time>2020-02-22T13:01:54.000Z</time>
      </trkpt>
      <trkpt lat="37.82336547039449214935302734375" lon="-1.61964244209229946136474609375">
        <ele>717.5999755859375</ele>
        <time>2020-02-22T13:01:57.000Z</time>
      </trkpt>
      <trkpt lat="37.82343436963856220245361328125" lon="-1.61958594806492328643798828125">
        <ele>718.20001220703125</ele>
        <time>2020-02-22T13:01:59.000Z</time>
      </trkpt>
      <trkpt lat="37.82358817756175994873046875" lon="-1.61955879069864749908447265625">
        <ele>718.79998779296875</ele>
        <time>2020-02-22T13:02:03.000Z</time>
      </trkpt>
      <trkpt lat="37.82363318838179111480712890625" lon="-1.6195739619433879852294921875">
        <ele>719</ele>
        <time>2020-02-22T13:02:04.000Z</time>
      </trkpt>
      <trkpt lat="37.8236735053360462188720703125" lon="-1.619585864245891571044921875">
        <ele>719.4000244140625</ele>
        <time>2020-02-22T13:02:05.000Z</time>
      </trkpt>
      <trkpt lat="37.8237499482929706573486328125" lon="-1.6196049749851226806640625">
        <ele>720</ele>
        <time>2020-02-22T13:02:07.000Z</time>
      </trkpt>
      <trkpt lat="37.823892943561077117919921875" lon="-1.6195900551974773406982421875">
        <ele>721</ele>
        <time>2020-02-22T13:02:11.000Z</time>
      </trkpt>
      <trkpt lat="37.82398070208728313446044921875" lon="-1.61951319314539432525634765625">
        <ele>722.20001220703125</ele>
        <time>2020-02-22T13:02:14.000Z</time>
      </trkpt>
      <trkpt lat="37.8240342624485492706298828125" lon="-1.6194442100822925567626953125">
        <ele>722.79998779296875</ele>
        <time>2020-02-22T13:02:16.000Z</time>
      </trkpt>
      <trkpt lat="37.8240590728819370269775390625" lon="-1.61940825171768665313720703125">
        <ele>723.20001220703125</ele>
        <time>2020-02-22T13:02:17.000Z</time>
      </trkpt>
      <trkpt lat="37.8241462446749210357666015625" lon="-1.61928352899849414825439453125">
        <ele>724.4000244140625</ele>
        <time>2020-02-22T13:02:21.000Z</time>
      </trkpt>
      <trkpt lat="37.8241854719817638397216796875" lon="-1.6192101873457431793212890625">
        <ele>725</ele>
        <time>2020-02-22T13:02:23.000Z</time>
      </trkpt>
      <trkpt lat="37.8242723084986209869384765625" lon="-1.61911672912538051605224609375">
        <ele>725.5999755859375</ele>
        <time>2020-02-22T13:02:26.000Z</time>
      </trkpt>
      <trkpt lat="37.82435956411063671112060546875" lon="-1.619033999741077423095703125">
        <ele>726</ele>
        <time>2020-02-22T13:02:29.000Z</time>
      </trkpt>
      <trkpt lat="37.8244707919657230377197265625" lon="-1.6189397871494293212890625">
        <ele>726.5999755859375</ele>
        <time>2020-02-22T13:02:33.000Z</time>
      </trkpt>
      <trkpt lat="37.82455050386488437652587890625" lon="-1.61884850822389125823974609375">
        <ele>727.20001220703125</ele>
        <time>2020-02-22T13:02:36.000Z</time>
      </trkpt>
      <trkpt lat="37.82457145862281322479248046875" lon="-1.61881280131638050079345703125">
        <ele>727.5999755859375</ele>
        <time>2020-02-22T13:02:37.000Z</time>
      </trkpt>
      <trkpt lat="37.82466550357639789581298828125" lon="-1.6186811216175556182861328125">
        <ele>728.79998779296875</ele>
        <time>2020-02-22T13:02:41.000Z</time>
      </trkpt>
      <trkpt lat="37.824713699519634246826171875" lon="-1.61860375665128231048583984375">
        <ele>729.4000244140625</ele>
        <time>2020-02-22T13:02:43.000Z</time>
      </trkpt>
      <trkpt lat="37.82476357184350490570068359375" lon="-1.6185282357037067413330078125">
        <ele>730</ele>
        <time>2020-02-22T13:02:45.000Z</time>
      </trkpt>
      <trkpt lat="37.8248982690274715423583984375" lon="-1.6184068657457828521728515625">
        <ele>730.20001220703125</ele>
        <time>2020-02-22T13:02:49.000Z</time>
      </trkpt>
      <trkpt lat="37.82515869475901126861572265625" lon="-1.61817460320889949798583984375">
        <ele>731</ele>
        <time>2020-02-22T13:02:57.000Z</time>
      </trkpt>
      <trkpt lat="37.8253264166414737701416015625" lon="-1.617979891598224639892578125">
        <ele>732</ele>
        <time>2020-02-22T13:03:03.000Z</time>
      </trkpt>
      <trkpt lat="37.82541685737669467926025390625" lon="-1.6178945638239383697509765625">
        <ele>733.20001220703125</ele>
        <time>2020-02-22T13:03:06.000Z</time>
      </trkpt>
      <trkpt lat="37.82552900724112987518310546875" lon="-1.6177741996943950653076171875">
        <ele>734.20001220703125</ele>
        <time>2020-02-22T13:03:10.000Z</time>
      </trkpt>
      <trkpt lat="37.8256702423095703125" lon="-1.6175991855561733245849609375">
        <ele>735.4000244140625</ele>
        <time>2020-02-22T13:03:15.000Z</time>
      </trkpt>
      <trkpt lat="37.8257471881806850433349609375" lon="-1.61748007871210575103759765625">
        <ele>736</ele>
        <time>2020-02-22T13:03:18.000Z</time>
      </trkpt>
      <trkpt lat="37.82588138245046138763427734375" lon="-1.61727690137922763824462890625">
        <ele>736.5999755859375</ele>
        <time>2020-02-22T13:03:22.000Z</time>
      </trkpt>
      <trkpt lat="37.825949527323246002197265625" lon="-1.6171639971435070037841796875">
        <ele>736.79998779296875</ele>
        <time>2020-02-22T13:03:24.000Z</time>
      </trkpt>
      <trkpt lat="37.8260066919028759002685546875" lon="-1.61702276207506656646728515625">
        <ele>736.79998779296875</ele>
        <time>2020-02-22T13:03:26.000Z</time>
      </trkpt>
      <trkpt lat="37.826010882854461669921875" lon="-1.616859734058380126953125">
        <ele>736.79998779296875</ele>
        <time>2020-02-22T13:03:28.000Z</time>
      </trkpt>
      <trkpt lat="37.82590585760772228240966796875" lon="-1.61664390005171298980712890625">
        <ele>736.79998779296875</ele>
        <time>2020-02-22T13:03:31.000Z</time>
      </trkpt>
      <trkpt lat="37.8258061967790126800537109375" lon="-1.61654449068009853363037109375">
        <ele>736.20001220703125</ele>
        <time>2020-02-22T13:03:33.000Z</time>
      </trkpt>
      <trkpt lat="37.82575431279838085174560546875" lon="-1.616494953632354736328125">
        <ele>735.5999755859375</ele>
        <time>2020-02-22T13:03:34.000Z</time>
      </trkpt>
      <trkpt lat="37.82564249821007251739501953125" lon="-1.61639311350882053375244140625">
        <ele>734.20001220703125</ele>
        <time>2020-02-22T13:03:36.000Z</time>
      </trkpt>
      <trkpt lat="37.82553504221141338348388671875" lon="-1.6162986494600772857666015625">
        <ele>733</ele>
        <time>2020-02-22T13:03:38.000Z</time>
      </trkpt>
      <trkpt lat="37.82544904388487339019775390625" lon="-1.61620795726776123046875">
        <ele>732.5999755859375</ele>
        <time>2020-02-22T13:03:40.000Z</time>
      </trkpt>
      <trkpt lat="37.825413756072521209716796875" lon="-1.6161558218300342559814453125">
        <ele>732.4000244140625</ele>
        <time>2020-02-22T13:03:41.000Z</time>
      </trkpt>
      <trkpt lat="37.8253529034554958343505859375" lon="-1.616048701107501983642578125">
        <ele>732.4000244140625</ele>
        <time>2020-02-22T13:03:43.000Z</time>
      </trkpt>
      <trkpt lat="37.82525106333196163177490234375" lon="-1.61584510467946529388427734375">
        <ele>732.20001220703125</ele>
        <time>2020-02-22T13:03:46.000Z</time>
      </trkpt>
      <trkpt lat="37.8251721896231174468994140625" lon="-1.6156978346407413482666015625">
        <ele>732</ele>
        <time>2020-02-22T13:03:48.000Z</time>
      </trkpt>
      <trkpt lat="37.8251235745847225189208984375" lon="-1.615619547665119171142578125">
        <ele>732</ele>
        <time>2020-02-22T13:03:49.000Z</time>
      </trkpt>
      <trkpt lat="37.82500195316970348358154296875" lon="-1.61549055017530918121337890625">
        <ele>731.79998779296875</ele>
        <time>2020-02-22T13:03:51.000Z</time>
      </trkpt>
      <trkpt lat="37.824775390326976776123046875" lon="-1.6153561882674694061279296875">
        <ele>731.20001220703125</ele>
        <time>2020-02-22T13:03:54.000Z</time>
      </trkpt>
      <trkpt lat="37.82469735480844974517822265625" lon="-1.61531184799969196319580078125">
        <ele>731</ele>
        <time>2020-02-22T13:03:55.000Z</time>
      </trkpt>
      <trkpt lat="37.8246159665286540985107421875" lon="-1.6152683459222316741943359375">
        <ele>730.4000244140625</ele>
        <time>2020-02-22T13:03:56.000Z</time>
      </trkpt>
      <trkpt lat="37.8243641741573810577392578125" lon="-1.61514379084110260009765625">
        <ele>729.4000244140625</ele>
        <time>2020-02-22T13:03:59.000Z</time>
      </trkpt>
      <trkpt lat="37.8241936862468719482421875" lon="-1.6150443814694881439208984375">
        <ele>728.5999755859375</ele>
        <time>2020-02-22T13:04:01.000Z</time>
      </trkpt>
      <trkpt lat="37.8241132199764251708984375" lon="-1.61498629488050937652587890625">
        <ele>727.79998779296875</ele>
        <time>2020-02-22T13:04:02.000Z</time>
      </trkpt>
      <trkpt lat="37.82395941205322742462158203125" lon="-1.61485838703811168670654296875">
        <ele>726.5999755859375</ele>
        <time>2020-02-22T13:04:04.000Z</time>
      </trkpt>
      <trkpt lat="37.8238262236118316650390625" lon="-1.61472042091190814971923828125">
        <ele>725.5999755859375</ele>
        <time>2020-02-22T13:04:06.000Z</time>
      </trkpt>
      <trkpt lat="37.82378397881984710693359375" lon="-1.61463081836700439453125">
        <ele>725.20001220703125</ele>
        <time>2020-02-22T13:04:07.000Z</time>
      </trkpt>
      <trkpt lat="37.8237633593380451202392578125" lon="-1.61452176980674266815185546875">
        <ele>724.79998779296875</ele>
        <time>2020-02-22T13:04:08.000Z</time>
      </trkpt>
      <trkpt lat="37.82377735711634159088134765625" lon="-1.61429093219339847564697265625">
        <ele>724</ele>
        <time>2020-02-22T13:04:10.000Z</time>
      </trkpt>
      <trkpt lat="37.823800742626190185546875" lon="-1.61417760886251926422119140625">
        <ele>723.79998779296875</ele>
        <time>2020-02-22T13:04:11.000Z</time>
      </trkpt>
      <trkpt lat="37.8238307498395442962646484375" lon="-1.61406948231160640716552734375">
        <ele>723</ele>
        <time>2020-02-22T13:04:12.000Z</time>
      </trkpt>
      <trkpt lat="37.8239118866622447967529296875" lon="-1.613872088491916656494140625">
        <ele>721.79998779296875</ele>
        <time>2020-02-22T13:04:14.000Z</time>
      </trkpt>
      <trkpt lat="37.82396444119513034820556640625" lon="-1.6137860901653766632080078125">
        <ele>721.20001220703125</ele>
        <time>2020-02-22T13:04:15.000Z</time>
      </trkpt>
      <trkpt lat="37.82401858828961849212646484375" lon="-1.613710485398769378662109375">
        <ele>720.5999755859375</ele>
        <time>2020-02-22T13:04:16.000Z</time>
      </trkpt>
      <trkpt lat="37.824147082865238189697265625" lon="-1.61359271965920925140380859375">
        <ele>719.20001220703125</ele>
        <time>2020-02-22T13:04:18.000Z</time>
      </trkpt>
      <trkpt lat="37.8242277167737483978271484375" lon="-1.61355785094201564788818359375">
        <ele>719</ele>
        <time>2020-02-22T13:04:19.000Z</time>
      </trkpt>
      <trkpt lat="37.8245021402835845947265625" lon="-1.61347202025353908538818359375">
        <ele>718.4000244140625</ele>
        <time>2020-02-22T13:04:22.000Z</time>
      </trkpt>
      <trkpt lat="37.8245891444385051727294921875" lon="-1.6134384088218212127685546875">
        <ele>718.20001220703125</ele>
        <time>2020-02-22T13:04:23.000Z</time>
      </trkpt>
      <trkpt lat="37.82465863041579723358154296875" lon="-1.61338702775537967681884765625">
        <ele>718</ele>
        <time>2020-02-22T13:04:24.000Z</time>
      </trkpt>
      <trkpt lat="37.82478117384016513824462890625" lon="-1.61325090564787387847900390625">
        <ele>717</ele>
        <time>2020-02-22T13:04:26.000Z</time>
      </trkpt>
      <trkpt lat="37.8247976861894130706787109375" lon="-1.61314831115305423736572265625">
        <ele>716.5999755859375</ele>
        <time>2020-02-22T13:04:27.000Z</time>
      </trkpt>
      <trkpt lat="37.824830710887908935546875" lon="-1.6129958443343639373779296875">
        <ele>714.5999755859375</ele>
        <time>2020-02-22T13:04:29.000Z</time>
      </trkpt>
      <trkpt lat="37.82472803257405757904052734375" lon="-1.61279560066759586334228515625">
        <ele>713.4000244140625</ele>
        <time>2020-02-22T13:04:31.000Z</time>
      </trkpt>
      <trkpt lat="37.82452267594635486602783203125" lon="-1.61262997426092624664306640625">
        <ele>712.20001220703125</ele>
        <time>2020-02-22T13:04:34.000Z</time>
      </trkpt>
      <trkpt lat="37.82438387162983417510986328125" lon="-1.612524278461933135986328125">
        <ele>710.5999755859375</ele>
        <time>2020-02-22T13:04:36.000Z</time>
      </trkpt>
      <trkpt lat="37.824285216629505157470703125" lon="-1.612357981503009796142578125">
        <ele>709</ele>
        <time>2020-02-22T13:04:38.000Z</time>
      </trkpt>
      <trkpt lat="37.82423417083919048309326171875" lon="-1.612149775028228759765625">
        <ele>708</ele>
        <time>2020-02-22T13:04:40.000Z</time>
      </trkpt>
      <trkpt lat="37.8242029063403606414794921875" lon="-1.612044833600521087646484375">
        <ele>707.4000244140625</ele>
        <time>2020-02-22T13:04:41.000Z</time>
      </trkpt>
      <trkpt lat="37.82411498017609119415283203125" lon="-1.611865125596523284912109375">
        <ele>706.5999755859375</ele>
        <time>2020-02-22T13:04:43.000Z</time>
      </trkpt>
      <trkpt lat="37.824053205549716949462890625" lon="-1.611794047057628631591796875">
        <ele>706.4000244140625</ele>
        <time>2020-02-22T13:04:44.000Z</time>
      </trkpt>
      <trkpt lat="37.823899649083614349365234375" lon="-1.6116922907531261444091796875">
        <ele>705.20001220703125</ele>
        <time>2020-02-22T13:04:46.000Z</time>
      </trkpt>
      <trkpt lat="37.82381750643253326416015625" lon="-1.61164979450404644012451171875">
        <ele>704.4000244140625</ele>
        <time>2020-02-22T13:04:47.000Z</time>
      </trkpt>
      <trkpt lat="37.8237328492105007171630859375" lon="-1.61160998046398162841796875">
        <ele>704</ele>
        <time>2020-02-22T13:04:48.000Z</time>
      </trkpt>
      <trkpt lat="37.82347544096410274505615234375" lon="-1.61149330437183380126953125">
        <ele>703</ele>
        <time>2020-02-22T13:04:51.000Z</time>
      </trkpt>
      <trkpt lat="37.82339145429432392120361328125" lon="-1.61144745536148548126220703125">
        <ele>702.4000244140625</ele>
        <time>2020-02-22T13:04:52.000Z</time>
      </trkpt>
      <trkpt lat="37.82331316731870174407958984375" lon="-1.61139012314379215240478515625">
        <ele>702.20001220703125</ele>
        <time>2020-02-22T13:04:53.000Z</time>
      </trkpt>
      <trkpt lat="37.82324083149433135986328125" lon="-1.61131787113845348358154296875">
        <ele>702</ele>
        <time>2020-02-22T13:04:54.000Z</time>
      </trkpt>
      <trkpt lat="37.82309104688465595245361328125" lon="-1.61104227416217327117919921875">
        <ele>701.4000244140625</ele>
        <time>2020-02-22T13:04:57.000Z</time>
      </trkpt>
      <trkpt lat="37.82302684150636196136474609375" lon="-1.61083624698221683502197265625">
        <ele>700.5999755859375</ele>
        <time>2020-02-22T13:04:59.000Z</time>
      </trkpt>
      <trkpt lat="37.8229925595223903656005859375" lon="-1.61073331721127033233642578125">
        <ele>700.4000244140625</ele>
        <time>2020-02-22T13:05:00.000Z</time>
      </trkpt>
      <trkpt lat="37.8228899650275707244873046875" lon="-1.6104319877922534942626953125">
        <ele>699.20001220703125</ele>
        <time>2020-02-22T13:05:03.000Z</time>
      </trkpt>
      <trkpt lat="37.82285802997648715972900390625" lon="-1.61033056676387786865234375">
        <ele>699</ele>
        <time>2020-02-22T13:05:04.000Z</time>
      </trkpt>
      <trkpt lat="37.8227548487484455108642578125" lon="-1.61004080437123775482177734375">
        <ele>698.4000244140625</ele>
        <time>2020-02-22T13:05:07.000Z</time>
      </trkpt>
      <trkpt lat="37.82264362089335918426513671875" lon="-1.60968457348644733428955078125">
        <ele>698.20001220703125</ele>
        <time>2020-02-22T13:05:11.000Z</time>
      </trkpt>
      <trkpt lat="37.822619564831256866455078125" lon="-1.6095022670924663543701171875">
        <ele>698.20001220703125</ele>
        <time>2020-02-22T13:05:13.000Z</time>
      </trkpt>
      <trkpt lat="37.82258796505630016326904296875" lon="-1.6091311164200305938720703125">
        <ele>698</ele>
        <time>2020-02-22T13:05:17.000Z</time>
      </trkpt>
      <trkpt lat="37.82252208329737186431884765625" lon="-1.60841546952724456787109375">
        <ele>697.79998779296875</ele>
        <time>2020-02-22T13:05:25.000Z</time>
      </trkpt>
      <trkpt lat="37.8225010447204113006591796875" lon="-1.60833525471389293670654296875">
        <ele>697.79998779296875</ele>
        <time>2020-02-22T13:05:26.000Z</time>
      </trkpt>
      <trkpt lat="37.82237255014479160308837890625" lon="-1.6079948656260967254638671875">
        <ele>697.79998779296875</ele>
        <time>2020-02-22T13:05:31.000Z</time>
      </trkpt>
      <trkpt lat="37.82223424874246120452880859375" lon="-1.60761860199272632598876953125">
        <ele>698.79998779296875</ele>
        <time>2020-02-22T13:05:37.000Z</time>
      </trkpt>
      <trkpt lat="37.82219166867434978485107421875" lon="-1.6075073741376399993896484375">
        <ele>700</ele>
        <time>2020-02-22T13:05:39.000Z</time>
      </trkpt>
      <trkpt lat="37.82210634090006351470947265625" lon="-1.607309393584728240966796875">
        <ele>701</ele>
        <time>2020-02-22T13:05:43.000Z</time>
      </trkpt>
      <trkpt lat="37.82199268229305744171142578125" lon="-1.60707972943782806396484375">
        <ele>701.79998779296875</ele>
        <time>2020-02-22T13:05:48.000Z</time>
      </trkpt>
      <trkpt lat="37.82194792293012142181396484375" lon="-1.60699565894901752471923828125">
        <ele>702.20001220703125</ele>
        <time>2020-02-22T13:05:50.000Z</time>
      </trkpt>
      <trkpt lat="37.82183325849473476409912109375" lon="-1.6067553497850894927978515625">
        <ele>703.4000244140625</ele>
        <time>2020-02-22T13:05:55.000Z</time>
      </trkpt>
      <trkpt lat="37.8218090347945690155029296875" lon="-1.60671251825988292694091796875">
        <ele>704</ele>
        <time>2020-02-22T13:05:56.000Z</time>
      </trkpt>
      <trkpt lat="37.82174407504498958587646484375" lon="-1.606574468314647674560546875">
        <ele>704.5999755859375</ele>
        <time>2020-02-22T13:05:59.000Z</time>
      </trkpt>
      <trkpt lat="37.82171088270843029022216796875" lon="-1.6063855402171611785888671875">
        <ele>705.5999755859375</ele>
        <time>2020-02-22T13:06:03.000Z</time>
      </trkpt>
      <trkpt lat="37.8217151574790477752685546875" lon="-1.60632946528494358062744140625">
        <ele>705.5999755859375</ele>
        <time>2020-02-22T13:06:04.000Z</time>
      </trkpt>
      <trkpt lat="37.82177961431443691253662109375" lon="-1.6061617434024810791015625">
        <ele>706.79998779296875</ele>
        <time>2020-02-22T13:06:07.000Z</time>
      </trkpt>
      <trkpt lat="37.82197658903896808624267578125" lon="-1.60601078532636165618896484375">
        <ele>707.4000244140625</ele>
        <time>2020-02-22T13:06:11.000Z</time>
      </trkpt>
      <trkpt lat="37.82216853462159633636474609375" lon="-1.6059661097824573516845703125">
        <ele>707.4000244140625</ele>
        <time>2020-02-22T13:06:14.000Z</time>
      </trkpt>
      <trkpt lat="37.82223357819020748138427734375" lon="-1.6059335879981517791748046875">
        <ele>707.4000244140625</ele>
        <time>2020-02-22T13:06:15.000Z</time>
      </trkpt>
      <trkpt lat="37.8223484940826892852783203125" lon="-1.6057518683373928070068359375">
        <ele>707.20001220703125</ele>
        <time>2020-02-22T13:06:18.000Z</time>
      </trkpt>
      <trkpt lat="37.82238981686532497406005859375" lon="-1.60561130382120609283447265625">
        <ele>706.79998779296875</ele>
        <time>2020-02-22T13:06:20.000Z</time>
      </trkpt>
      <trkpt lat="37.822419740259647369384765625" lon="-1.6054631955921649932861328125">
        <ele>706.4000244140625</ele>
        <time>2020-02-22T13:06:22.000Z</time>
      </trkpt>
      <trkpt lat="37.82242518849670886993408203125" lon="-1.60538029856979846954345703125">
        <ele>705.79998779296875</ele>
        <time>2020-02-22T13:06:23.000Z</time>
      </trkpt>
      <trkpt lat="37.8223830275237560272216796875" lon="-1.60511107183992862701416015625">
        <ele>705.4000244140625</ele>
        <time>2020-02-22T13:06:26.000Z</time>
      </trkpt>
      <trkpt lat="37.82235570251941680908203125" lon="-1.6050172783434391021728515625">
        <ele>705.4000244140625</ele>
        <time>2020-02-22T13:06:27.000Z</time>
      </trkpt>
      <trkpt lat="37.822262831032276153564453125" lon="-1.604728437960147857666015625">
        <ele>705</ele>
        <time>2020-02-22T13:06:30.000Z</time>
      </trkpt>
      <trkpt lat="37.822201810777187347412109375" lon="-1.6045056469738483428955078125">
        <ele>704.79998779296875</ele>
        <time>2020-02-22T13:06:32.000Z</time>
      </trkpt>
      <trkpt lat="37.82215612940490245819091796875" lon="-1.6042733006179332733154296875">
        <ele>704</ele>
        <time>2020-02-22T13:06:34.000Z</time>
      </trkpt>
      <trkpt lat="37.82214489765465259552001953125" lon="-1.60415302030742168426513671875">
        <ele>703.4000244140625</ele>
        <time>2020-02-22T13:06:35.000Z</time>
      </trkpt>
      <trkpt lat="37.82213919796049594879150390625" lon="-1.6040374338626861572265625">
        <ele>702.79998779296875</ele>
        <time>2020-02-22T13:06:36.000Z</time>
      </trkpt>
      <trkpt lat="37.8221382759511470794677734375" lon="-1.60391832701861858367919921875">
        <ele>702.20001220703125</ele>
        <time>2020-02-22T13:06:37.000Z</time>
      </trkpt>
      <trkpt lat="37.8221349231898784637451171875" lon="-1.60368178971111774444580078125">
        <ele>701</ele>
        <time>2020-02-22T13:06:39.000Z</time>
      </trkpt>
      <trkpt lat="37.8221191652119159698486328125" lon="-1.603440977632999420166015625">
        <ele>699.4000244140625</ele>
        <time>2020-02-22T13:06:41.000Z</time>
      </trkpt>
      <trkpt lat="37.82209862954914569854736328125" lon="-1.6032081283628940582275390625">
        <ele>698.5999755859375</ele>
        <time>2020-02-22T13:06:43.000Z</time>
      </trkpt>
      <trkpt lat="37.8220879845321178436279296875" lon="-1.60309354774653911590576171875">
        <ele>698.20001220703125</ele>
        <time>2020-02-22T13:06:44.000Z</time>
      </trkpt>
      <trkpt lat="37.8220108710229396820068359375" lon="-1.60240505822002887725830078125">
        <ele>697</ele>
        <time>2020-02-22T13:06:50.000Z</time>
      </trkpt>
      <trkpt lat="37.8219880722463130950927734375" lon="-1.60218260250985622406005859375">
        <ele>696.5999755859375</ele>
        <time>2020-02-22T13:06:52.000Z</time>
      </trkpt>
      <trkpt lat="37.82196250744163990020751953125" lon="-1.6019501723349094390869140625">
        <ele>695.79998779296875</ele>
        <time>2020-02-22T13:06:54.000Z</time>
      </trkpt>
      <trkpt lat="37.821902073919773101806640625" lon="-1.6015951149165630340576171875">
        <ele>695</ele>
        <time>2020-02-22T13:06:57.000Z</time>
      </trkpt>
      <trkpt lat="37.82186209224164485931396484375" lon="-1.60148975439369678497314453125">
        <ele>694.5999755859375</ele>
        <time>2020-02-22T13:06:58.000Z</time>
      </trkpt>
      <trkpt lat="37.8217019140720367431640625" lon="-1.60121600143611431121826171875">
        <ele>693.5999755859375</ele>
        <time>2020-02-22T13:07:01.000Z</time>
      </trkpt>
      <trkpt lat="37.82164935953915119171142578125" lon="-1.60113251768052577972412109375">
        <ele>693.4000244140625</ele>
        <time>2020-02-22T13:07:02.000Z</time>
      </trkpt>
      <trkpt lat="37.8214901871979236602783203125" lon="-1.600898914039134979248046875">
        <ele>692.4000244140625</ele>
        <time>2020-02-22T13:07:05.000Z</time>
      </trkpt>
      <trkpt lat="37.82142757438123226165771484375" lon="-1.6008348762989044189453125">
        <ele>692</ele>
        <time>2020-02-22T13:07:06.000Z</time>
      </trkpt>
      <trkpt lat="37.821358256042003631591796875" lon="-1.6007865965366363525390625">
        <ele>692</ele>
        <time>2020-02-22T13:07:07.000Z</time>
      </trkpt>
      <trkpt lat="37.82112498767673969268798828125" lon="-1.600710488855838775634765625">
        <ele>691.79998779296875</ele>
        <time>2020-02-22T13:07:10.000Z</time>
      </trkpt>
      <trkpt lat="37.82105189748108386993408203125" lon="-1.6006905399262905120849609375">
        <ele>691.79998779296875</ele>
        <time>2020-02-22T13:07:11.000Z</time>
      </trkpt>
      <trkpt lat="37.8209208883345127105712890625" lon="-1.60063195042312145233154296875">
        <ele>691.79998779296875</ele>
        <time>2020-02-22T13:07:13.000Z</time>
      </trkpt>
      <trkpt lat="37.82082055695354938507080078125" lon="-1.60051728598773479461669921875">
        <ele>691.79998779296875</ele>
        <time>2020-02-22T13:07:15.000Z</time>
      </trkpt>
      <trkpt lat="37.82074813731014728546142578125" lon="-1.6003713570535182952880859375">
        <ele>691.79998779296875</ele>
        <time>2020-02-22T13:07:17.000Z</time>
      </trkpt>
      <trkpt lat="37.82063866965472698211669921875" lon="-1.60015217028558254241943359375">
        <ele>692.20001220703125</ele>
        <time>2020-02-22T13:07:20.000Z</time>
      </trkpt>
      <trkpt lat="37.82045711763203144073486328125" lon="-1.59989006817340850830078125">
        <ele>692.5999755859375</ele>
        <time>2020-02-22T13:07:24.000Z</time>
      </trkpt>
      <trkpt lat="37.82043389976024627685546875" lon="-1.59961556084454059600830078125">
        <ele>692.79998779296875</ele>
        <time>2020-02-22T13:07:27.000Z</time>
      </trkpt>
      <trkpt lat="37.82055267132818698883056640625" lon="-1.59924105741083621978759765625">
        <ele>693</ele>
        <time>2020-02-22T13:07:31.000Z</time>
      </trkpt>
      <trkpt lat="37.8207550942897796630859375" lon="-1.59877217374742031097412109375">
        <ele>692.79998779296875</ele>
        <time>2020-02-22T13:07:36.000Z</time>
      </trkpt>
      <trkpt lat="37.82080848701298236846923828125" lon="-1.5986872650682926177978515625">
        <ele>692.79998779296875</ele>
        <time>2020-02-22T13:07:37.000Z</time>
      </trkpt>
      <trkpt lat="37.8208677470684051513671875" lon="-1.59860956482589244842529296875">
        <ele>692.79998779296875</ele>
        <time>2020-02-22T13:07:38.000Z</time>
      </trkpt>
      <trkpt lat="37.8210593573749065399169921875" lon="-1.59838937222957611083984375">
        <ele>691.5999755859375</ele>
        <time>2020-02-22T13:07:41.000Z</time>
      </trkpt>
      <trkpt lat="37.8211064636707305908203125" lon="-1.59830085933208465576171875">
        <ele>691.4000244140625</ele>
        <time>2020-02-22T13:07:42.000Z</time>
      </trkpt>
      <trkpt lat="37.82114141620695590972900390625" lon="-1.5982058085501194000244140625">
        <ele>691.20001220703125</ele>
        <time>2020-02-22T13:07:43.000Z</time>
      </trkpt>
      <trkpt lat="37.82119975425302982330322265625" lon="-1.59802056849002838134765625">
        <ele>690</ele>
        <time>2020-02-22T13:07:45.000Z</time>
      </trkpt>
      <trkpt lat="37.821263372898101806640625" lon="-1.5978468954563140869140625">
        <ele>689.4000244140625</ele>
        <time>2020-02-22T13:07:47.000Z</time>
      </trkpt>
      <trkpt lat="37.8212969005107879638671875" lon="-1.5977682732045650482177734375">
        <ele>689</ele>
        <time>2020-02-22T13:07:48.000Z</time>
      </trkpt>
      <trkpt lat="37.821462191641330718994140625" lon="-1.59738144837319850921630859375">
        <ele>688</ele>
        <time>2020-02-22T13:07:53.000Z</time>
      </trkpt>
      <trkpt lat="37.8214871697127819061279296875" lon="-1.59712529741227626800537109375">
        <ele>688</ele>
        <time>2020-02-22T13:07:56.000Z</time>
      </trkpt>
      <trkpt lat="37.8214831463992595672607421875" lon="-1.59704131074249744415283203125">
        <ele>688</ele>
        <time>2020-02-22T13:07:57.000Z</time>
      </trkpt>
      <trkpt lat="37.82147769816219806671142578125" lon="-1.5969617664813995361328125">
        <ele>688</ele>
        <time>2020-02-22T13:07:58.000Z</time>
      </trkpt>
      <trkpt lat="37.82146990299224853515625" lon="-1.59665339626371860504150390625">
        <ele>688.20001220703125</ele>
        <time>2020-02-22T13:08:02.000Z</time>
      </trkpt>
      <trkpt lat="37.82147099263966083526611328125" lon="-1.5965647995471954345703125">
        <ele>688.20001220703125</ele>
        <time>2020-02-22T13:08:03.000Z</time>
      </trkpt>
      <trkpt lat="37.8214452601969242095947265625" lon="-1.5959671698510646820068359375">
        <ele>689</ele>
        <time>2020-02-22T13:08:10.000Z</time>
      </trkpt>
      <trkpt lat="37.82140661962330341339111328125" lon="-1.59557799808681011199951171875">
        <ele>689.4000244140625</ele>
        <time>2020-02-22T13:08:15.000Z</time>
      </trkpt>
      <trkpt lat="37.82140477560460567474365234375" lon="-1.5955160558223724365234375">
        <ele>689.5999755859375</ele>
        <time>2020-02-22T13:08:16.000Z</time>
      </trkpt>
      <trkpt lat="37.8214100562036037445068359375" lon="-1.5954578854143619537353515625">
        <ele>689.5999755859375</ele>
        <time>2020-02-22T13:08:17.000Z</time>
      </trkpt>
      <trkpt lat="37.82145850360393524169921875" lon="-1.59534313715994358062744140625">
        <ele>690</ele>
        <time>2020-02-22T13:08:20.000Z</time>
      </trkpt>
      <trkpt lat="37.82147937454283237457275390625" lon="-1.59530558623373508453369140625">
        <ele>690.20001220703125</ele>
        <time>2020-02-22T13:08:21.000Z</time>
      </trkpt>
      <trkpt lat="37.82156319357454776763916015625" lon="-1.595210619270801544189453125">
        <ele>691.20001220703125</ele>
        <time>2020-02-22T13:08:24.000Z</time>
      </trkpt>
      <trkpt lat="37.82160870730876922607421875" lon="-1.595148928463459014892578125">
        <ele>692.4000244140625</ele>
        <time>2020-02-22T13:08:26.000Z</time>
      </trkpt>
      <trkpt lat="37.82172261737287044525146484375" lon="-1.595036946237087249755859375">
        <ele>693.20001220703125</ele>
        <time>2020-02-22T13:08:30.000Z</time>
      </trkpt>
      <trkpt lat="37.82174575142562389373779296875" lon="-1.595005095005035400390625">
        <ele>693.5999755859375</ele>
        <time>2020-02-22T13:08:31.000Z</time>
      </trkpt>
      <trkpt lat="37.8217957913875579833984375" lon="-1.59490375779569149017333984375">
        <ele>694.5999755859375</ele>
        <time>2020-02-22T13:08:34.000Z</time>
      </trkpt>
      <trkpt lat="37.82182118855416774749755859375" lon="-1.59483200870454311370849609375">
        <ele>695.5999755859375</ele>
        <time>2020-02-22T13:08:36.000Z</time>
      </trkpt>
      <trkpt lat="37.821828313171863555908203125" lon="-1.5947973914444446563720703125">
        <ele>696.20001220703125</ele>
        <time>2020-02-22T13:08:37.000Z</time>
      </trkpt>
      <trkpt lat="37.8218358568847179412841796875" lon="-1.59474584273993968963623046875">
        <ele>697</ele>
        <time>2020-02-22T13:08:39.000Z</time>
      </trkpt>
      <trkpt lat="37.82181330956518650054931640625" lon="-1.594666801393032073974609375">
        <ele>697.4000244140625</ele>
        <time>2020-02-22T13:08:42.000Z</time>
      </trkpt>
      <trkpt lat="37.82178833149373531341552734375" lon="-1.59461793489754199981689453125">
        <ele>698.20001220703125</ele>
        <time>2020-02-22T13:08:44.000Z</time>
      </trkpt>
      <trkpt lat="37.821733094751834869384765625" lon="-1.59452472813427448272705078125">
        <ele>699.20001220703125</ele>
        <time>2020-02-22T13:08:48.000Z</time>
      </trkpt>
      <trkpt lat="37.8217218630015850067138671875" lon="-1.59449748694896697998046875">
        <ele>699.4000244140625</ele>
        <time>2020-02-22T13:08:49.000Z</time>
      </trkpt>
      <trkpt lat="37.82165036536753177642822265625" lon="-1.59438508562743663787841796875">
        <ele>700.4000244140625</ele>
        <time>2020-02-22T13:08:53.000Z</time>
      </trkpt>
      <trkpt lat="37.82159261405467987060546875" lon="-1.59433747641742229461669921875">
        <ele>701</ele>
        <time>2020-02-22T13:08:55.000Z</time>
      </trkpt>
      <trkpt lat="37.82151214778423309326171875" lon="-1.59427494741976261138916015625">
        <ele>701.5999755859375</ele>
        <time>2020-02-22T13:08:58.000Z</time>
      </trkpt>
      <trkpt lat="37.82144819386303424835205078125" lon="-1.5942217223346233367919921875">
        <ele>702</ele>
        <time>2020-02-22T13:09:01.000Z</time>
      </trkpt>
      <trkpt lat="37.8213188610970973968505859375" lon="-1.5940829180181026458740234375">
        <ele>702.4000244140625</ele>
        <time>2020-02-22T13:09:08.000Z</time>
      </trkpt>
      <trkpt lat="37.821307294070720672607421875" lon="-1.5940587781369686126708984375">
        <ele>702.79998779296875</ele>
        <time>2020-02-22T13:09:09.000Z</time>
      </trkpt>
      <trkpt lat="37.82128281891345977783203125" lon="-1.59397001378238201141357421875">
        <ele>703.79998779296875</ele>
        <time>2020-02-22T13:09:12.000Z</time>
      </trkpt>
      <trkpt lat="37.82127100042998790740966796875" lon="-1.5938737057149410247802734375">
        <ele>704.4000244140625</ele>
        <time>2020-02-22T13:09:14.000Z</time>
      </trkpt>
      <trkpt lat="37.8212625347077846527099609375" lon="-1.59367463551461696624755859375">
        <ele>704.79998779296875</ele>
        <time>2020-02-22T13:09:18.000Z</time>
      </trkpt>
      <trkpt lat="37.821275107562541961669921875" lon="-1.5934371761977672576904296875">
        <ele>705.4000244140625</ele>
        <time>2020-02-22T13:09:23.000Z</time>
      </trkpt>
      <trkpt lat="37.821314670145511627197265625" lon="-1.59310952760279178619384765625">
        <ele>705.79998779296875</ele>
        <time>2020-02-22T13:09:30.000Z</time>
      </trkpt>
      <trkpt lat="37.8213305957615375518798828125" lon="-1.59308128058910369873046875">
        <ele>706</ele>
        <time>2020-02-22T13:09:31.000Z</time>
      </trkpt>
      <trkpt lat="37.821378372609615325927734375" lon="-1.5929798595607280731201171875">
        <ele>706.20001220703125</ele>
        <time>2020-02-22T13:09:34.000Z</time>
      </trkpt>
      <trkpt lat="37.82149999402463436126708984375" lon="-1.5927629359066486358642578125">
        <ele>707.4000244140625</ele>
        <time>2020-02-22T13:09:40.000Z</time>
      </trkpt>
      <trkpt lat="37.82158481888473033905029296875" lon="-1.59260879270732402801513671875">
        <ele>708.79998779296875</ele>
        <time>2020-02-22T13:09:45.000Z</time>
      </trkpt>
      <trkpt lat="37.821667380630970001220703125" lon="-1.5924430824816226959228515625">
        <ele>709.79998779296875</ele>
        <time>2020-02-22T13:09:50.000Z</time>
      </trkpt>
      <trkpt lat="37.8216839767992496490478515625" lon="-1.59237585961818695068359375">
        <ele>710.20001220703125</ele>
        <time>2020-02-22T13:09:52.000Z</time>
      </trkpt>
      <trkpt lat="37.82170685939490795135498046875" lon="-1.59230654127895832061767578125">
        <ele>711</ele>
        <time>2020-02-22T13:09:55.000Z</time>
      </trkpt>
      <trkpt lat="37.82170669175684452056884765625" lon="-1.592253483831882476806640625">
        <ele>711.4000244140625</ele>
        <time>2020-02-22T13:09:57.000Z</time>
      </trkpt>
      <trkpt lat="37.821690849959850311279296875" lon="-1.592143513262271881103515625">
        <ele>712</ele>
        <time>2020-02-22T13:10:00.000Z</time>
      </trkpt>
      <trkpt lat="37.82168305478990077972412109375" lon="-1.59193597733974456787109375">
        <ele>712.5999755859375</ele>
        <time>2020-02-22T13:10:05.000Z</time>
      </trkpt>
      <trkpt lat="37.8216450847685337066650390625" lon="-1.5918144397437572479248046875">
        <ele>713.79998779296875</ele>
        <time>2020-02-22T13:10:08.000Z</time>
      </trkpt>
      <trkpt lat="37.821590937674045562744140625" lon="-1.59172810614109039306640625">
        <ele>714</ele>
        <time>2020-02-22T13:10:10.000Z</time>
      </trkpt>
      <trkpt lat="37.82144148834049701690673828125" lon="-1.59159600734710693359375">
        <ele>714.5999755859375</ele>
        <time>2020-02-22T13:10:15.000Z</time>
      </trkpt>
      <trkpt lat="37.8213808871805667877197265625" lon="-1.5915646590292453765869140625">
        <ele>715</ele>
        <time>2020-02-22T13:10:17.000Z</time>
      </trkpt>
      <trkpt lat="37.82121517695486545562744140625" lon="-1.591371037065982818603515625">
        <ele>716</ele>
        <time>2020-02-22T13:10:23.000Z</time>
      </trkpt>
      <trkpt lat="37.8211612813174724578857421875" lon="-1.59130490384995937347412109375">
        <ele>716.20001220703125</ele>
        <time>2020-02-22T13:10:25.000Z</time>
      </trkpt>
      <trkpt lat="37.82109908759593963623046875" lon="-1.59120733849704265594482421875">
        <ele>717.20001220703125</ele>
        <time>2020-02-22T13:10:28.000Z</time>
      </trkpt>
      <trkpt lat="37.821059525012969970703125" lon="-1.59114128910005092620849609375">
        <ele>717.5999755859375</ele>
        <time>2020-02-22T13:10:30.000Z</time>
      </trkpt>
      <trkpt lat="37.82096497714519500732421875" lon="-1.59083786420524120330810546875">
        <ele>718.20001220703125</ele>
        <time>2020-02-22T13:10:35.000Z</time>
      </trkpt>
      <trkpt lat="37.82084553502500057220458984375" lon="-1.590390019118785858154296875">
        <ele>718.20001220703125</ele>
        <time>2020-02-22T13:10:40.000Z</time>
      </trkpt>
      <trkpt lat="37.820820473134517669677734375" lon="-1.59030159004032611846923828125">
        <ele>718.20001220703125</ele>
        <time>2020-02-22T13:10:41.000Z</time>
      </trkpt>
      <trkpt lat="37.82074377872049808502197265625" lon="-1.5899962373077869415283203125">
        <ele>717.4000244140625</ele>
        <time>2020-02-22T13:10:44.000Z</time>
      </trkpt>
      <trkpt lat="37.82071553170680999755859375" lon="-1.5898753702640533447265625">
        <ele>717.20001220703125</ele>
        <time>2020-02-22T13:10:45.000Z</time>
      </trkpt>
      <trkpt lat="37.82068393193185329437255859375" lon="-1.5897477976977825164794921875">
        <ele>717</ele>
        <time>2020-02-22T13:10:46.000Z</time>
      </trkpt>
      <trkpt lat="37.82062425278127193450927734375" lon="-1.58951930701732635498046875">
        <ele>716</ele>
        <time>2020-02-22T13:10:48.000Z</time>
      </trkpt>
      <trkpt lat="37.82056507654488086700439453125" lon="-1.5892864577472209930419921875">
        <ele>714.5999755859375</ele>
        <time>2020-02-22T13:10:50.000Z</time>
      </trkpt>
      <trkpt lat="37.8204987756907939910888671875" lon="-1.5890413708984851837158203125">
        <ele>713.4000244140625</ele>
        <time>2020-02-22T13:10:52.000Z</time>
      </trkpt>
      <trkpt lat="37.8204320557415485382080078125" lon="-1.58880391158163547515869140625">
        <ele>712.20001220703125</ele>
        <time>2020-02-22T13:10:54.000Z</time>
      </trkpt>
      <trkpt lat="37.82040162943303585052490234375" lon="-1.58868136815726757049560546875">
        <ele>711.5999755859375</ele>
        <time>2020-02-22T13:10:55.000Z</time>
      </trkpt>
      <trkpt lat="37.8203080035746097564697265625" lon="-1.58830937929451465606689453125">
        <ele>710.5999755859375</ele>
        <time>2020-02-22T13:10:58.000Z</time>
      </trkpt>
      <trkpt lat="37.82024488784372806549072265625" lon="-1.58806462772190570831298828125">
        <ele>709.20001220703125</ele>
        <time>2020-02-22T13:11:00.000Z</time>
      </trkpt>
      <trkpt lat="37.82017749734222888946533203125" lon="-1.587812416255474090576171875">
        <ele>707.79998779296875</ele>
        <time>2020-02-22T13:11:02.000Z</time>
      </trkpt>
      <trkpt lat="37.82011178322136402130126953125" lon="-1.58757328055799007415771484375">
        <ele>706.5999755859375</ele>
        <time>2020-02-22T13:11:04.000Z</time>
      </trkpt>
      <trkpt lat="37.82004204578697681427001953125" lon="-1.5873380005359649658203125">
        <ele>705</ele>
        <time>2020-02-22T13:11:06.000Z</time>
      </trkpt>
      <trkpt lat="37.8199361823499202728271484375" lon="-1.58698084764182567596435546875">
        <ele>703.4000244140625</ele>
        <time>2020-02-22T13:11:09.000Z</time>
      </trkpt>
      <trkpt lat="37.819867618381977081298828125" lon="-1.5867398679256439208984375">
        <ele>702</ele>
        <time>2020-02-22T13:11:11.000Z</time>
      </trkpt>
      <trkpt lat="37.81976326368749141693115234375" lon="-1.5863829664885997772216796875">
        <ele>701</ele>
        <time>2020-02-22T13:11:14.000Z</time>
      </trkpt>
      <trkpt lat="37.8197035007178783416748046875" lon="-1.58615238033235073089599609375">
        <ele>700.79998779296875</ele>
        <time>2020-02-22T13:11:16.000Z</time>
      </trkpt>
      <trkpt lat="37.819642983376979827880859375" lon="-1.58592380583286285400390625">
        <ele>699.79998779296875</ele>
        <time>2020-02-22T13:11:18.000Z</time>
      </trkpt>
      <trkpt lat="37.81951918266713619232177734375" lon="-1.5854861028492450714111328125">
        <ele>698.79998779296875</ele>
        <time>2020-02-22T13:11:22.000Z</time>
      </trkpt>
      <trkpt lat="37.81945598311722278594970703125" lon="-1.5852758847177028656005859375">
        <ele>698.4000244140625</ele>
        <time>2020-02-22T13:11:24.000Z</time>
      </trkpt>
      <trkpt lat="37.81925900839269161224365234375" lon="-1.5847039036452770233154296875">
        <ele>697.79998779296875</ele>
        <time>2020-02-22T13:11:30.000Z</time>
      </trkpt>
      <trkpt lat="37.81921885907649993896484375" lon="-1.584617905318737030029296875">
        <ele>697.5999755859375</ele>
        <time>2020-02-22T13:11:31.000Z</time>
      </trkpt>
      <trkpt lat="37.81895843334496021270751953125" lon="-1.58401633612811565399169921875">
        <ele>696.79998779296875</ele>
        <time>2020-02-22T13:11:38.000Z</time>
      </trkpt>
      <trkpt lat="37.8188867680728435516357421875" lon="-1.583852469921112060546875">
        <ele>696.4000244140625</ele>
        <time>2020-02-22T13:11:40.000Z</time>
      </trkpt>
      <trkpt lat="37.81878769397735595703125" lon="-1.58361417241394519805908203125">
        <ele>696.20001220703125</ele>
        <time>2020-02-22T13:11:43.000Z</time>
      </trkpt>
      <trkpt lat="37.81869909726083278656005859375" lon="-1.583404876291751861572265625">
        <ele>695.79998779296875</ele>
        <time>2020-02-22T13:11:46.000Z</time>
      </trkpt>
      <trkpt lat="37.81865249387919902801513671875" lon="-1.58328359015285968780517578125">
        <ele>695.79998779296875</ele>
        <time>2020-02-22T13:11:48.000Z</time>
      </trkpt>
      <trkpt lat="37.818655259907245635986328125" lon="-1.5831985138356685638427734375">
        <ele>695.5999755859375</ele>
        <time>2020-02-22T13:11:50.000Z</time>
      </trkpt>
      <trkpt lat="37.81874067150056362152099609375" lon="-1.58315283246338367462158203125">
        <ele>695.79998779296875</ele>
        <time>2020-02-22T13:11:53.000Z</time>
      </trkpt>
      <trkpt lat="37.81876958906650543212890625" lon="-1.58315174281597137451171875">
        <ele>695.79998779296875</ele>
        <time>2020-02-22T13:11:54.000Z</time>
      </trkpt>
      <trkpt lat="37.81900302506983280181884765625" lon="-1.58310438506305217742919921875">
        <ele>697.4000244140625</ele>
        <time>2020-02-22T13:12:01.000Z</time>
      </trkpt>
      <trkpt lat="37.81904049217700958251953125" lon="-1.58309684135019779205322265625">
        <ele>697.5999755859375</ele>
        <time>2020-02-22T13:12:02.000Z</time>
      </trkpt>
      <trkpt lat="37.81914652325212955474853515625" lon="-1.58307119272649288177490234375">
        <ele>698.20001220703125</ele>
        <time>2020-02-22T13:12:05.000Z</time>
      </trkpt>
      <trkpt lat="37.81922154128551483154296875" lon="-1.58303950913250446319580078125">
        <ele>698.5999755859375</ele>
        <time>2020-02-22T13:12:08.000Z</time>
      </trkpt>
      <trkpt lat="37.8192441724240779876708984375" lon="-1.583027355372905731201171875">
        <ele>698.5999755859375</ele>
        <time>2020-02-22T13:12:09.000Z</time>
      </trkpt>
      <trkpt lat="37.81934835948050022125244140625" lon="-1.58297463320195674896240234375">
        <ele>699.4000244140625</ele>
        <time>2020-02-22T13:12:13.000Z</time>
      </trkpt>
      <trkpt lat="37.8194024227559566497802734375" lon="-1.58293641172349452972412109375">
        <ele>699.5999755859375</ele>
        <time>2020-02-22T13:12:15.000Z</time>
      </trkpt>
      <trkpt lat="37.81942815519869327545166015625" lon="-1.58292098902165889739990234375">
        <ele>699.79998779296875</ele>
        <time>2020-02-22T13:12:16.000Z</time>
      </trkpt>
      <trkpt lat="37.8195050172507762908935546875" lon="-1.5828196518123149871826171875">
        <ele>700.5999755859375</ele>
        <time>2020-02-22T13:12:21.000Z</time>
      </trkpt>
      <trkpt lat="37.81952002085745334625244140625" lon="-1.5828038938343524932861328125">
        <ele>700.79998779296875</ele>
        <time>2020-02-22T13:12:22.000Z</time>
      </trkpt>
      <trkpt lat="37.81962680630385875701904296875" lon="-1.58273558132350444793701171875">
        <ele>701.5999755859375</ele>
        <time>2020-02-22T13:12:26.000Z</time>
      </trkpt>
      <trkpt lat="37.81970165669918060302734375" lon="-1.58271462656557559967041015625">
        <ele>702</ele>
        <time>2020-02-22T13:12:28.000Z</time>
      </trkpt>
      <trkpt lat="37.8198419697582721710205078125" lon="-1.5827224217355251312255859375">
        <ele>702.5999755859375</ele>
        <time>2020-02-22T13:12:31.000Z</time>
      </trkpt>
      <trkpt lat="37.81995185650885105133056640625" lon="-1.58273558132350444793701171875">
        <ele>703.4000244140625</ele>
        <time>2020-02-22T13:12:34.000Z</time>
      </trkpt>
      <trkpt lat="37.82001815736293792724609375" lon="-1.5827465616166591644287109375">
        <ele>704</ele>
        <time>2020-02-22T13:12:36.000Z</time>
      </trkpt>
      <trkpt lat="37.820115052163600921630859375" lon="-1.58272803761065006256103515625">
        <ele>704.5999755859375</ele>
        <time>2020-02-22T13:12:39.000Z</time>
      </trkpt>
      <trkpt lat="37.82020783983170986175537109375" lon="-1.58269249834120273590087890625">
        <ele>705.4000244140625</ele>
        <time>2020-02-22T13:12:42.000Z</time>
      </trkpt>
      <trkpt lat="37.82024119980633258819580078125" lon="-1.58268059603869915008544921875">
        <ele>705.5999755859375</ele>
        <time>2020-02-22T13:12:43.000Z</time>
      </trkpt>
      <trkpt lat="37.8204411081969738006591796875" lon="-1.58265243284404277801513671875">
        <ele>706.4000244140625</ele>
        <time>2020-02-22T13:12:48.000Z</time>
      </trkpt>
      <trkpt lat="37.8204756416380405426025390625" lon="-1.58265016973018646240234375">
        <ele>706.5999755859375</ele>
        <time>2020-02-22T13:12:49.000Z</time>
      </trkpt>
      <trkpt lat="37.8206855244934558868408203125" lon="-1.5826359204947948455810546875">
        <ele>707.79998779296875</ele>
        <time>2020-02-22T13:12:55.000Z</time>
      </trkpt>
      <trkpt lat="37.8208642266690731048583984375" lon="-1.58259962685406208038330078125">
        <ele>709</ele>
        <time>2020-02-22T13:13:01.000Z</time>
      </trkpt>
      <trkpt lat="37.82089532352983951568603515625" lon="-1.582592166960239410400390625">
        <ele>709.20001220703125</ele>
        <time>2020-02-22T13:13:02.000Z</time>
      </trkpt>
      <trkpt lat="37.8210942260921001434326171875" lon="-1.5825742296874523162841796875">
        <ele>710.20001220703125</ele>
        <time>2020-02-22T13:13:08.000Z</time>
      </trkpt>
      <trkpt lat="37.8211525641381740570068359375" lon="-1.5825742296874523162841796875">
        <ele>710.5999755859375</ele>
        <time>2020-02-22T13:13:10.000Z</time>
      </trkpt>
      <trkpt lat="37.8213091380894184112548828125" lon="-1.58257951028645038604736328125">
        <ele>711.20001220703125</ele>
        <time>2020-02-22T13:13:14.000Z</time>
      </trkpt>
      <trkpt lat="37.82142288051545619964599609375" lon="-1.58257565461099147796630859375">
        <ele>711.5999755859375</ele>
        <time>2020-02-22T13:13:17.000Z</time>
      </trkpt>
      <trkpt lat="37.82155682332813739776611328125" lon="-1.58256023190915584564208984375">
        <ele>712.4000244140625</ele>
        <time>2020-02-22T13:13:21.000Z</time>
      </trkpt>
      <trkpt lat="37.82169562764465808868408203125" lon="-1.58253760077059268951416015625">
        <ele>713.4000244140625</ele>
        <time>2020-02-22T13:13:26.000Z</time>
      </trkpt>
      <trkpt lat="37.82172001898288726806640625" lon="-1.582531817257404327392578125">
        <ele>713.4000244140625</ele>
        <time>2020-02-22T13:13:27.000Z</time>
      </trkpt>
      <trkpt lat="37.82184474170207977294921875" lon="-1.58249602653086185455322265625">
        <ele>714.4000244140625</ele>
        <time>2020-02-22T13:13:32.000Z</time>
      </trkpt>
      <trkpt lat="37.82199838198721408843994140625" lon="-1.582463085651397705078125">
        <ele>715.4000244140625</ele>
        <time>2020-02-22T13:13:37.000Z</time>
      </trkpt>
      <trkpt lat="37.8222100250422954559326171875" lon="-1.58243693411350250244140625">
        <ele>716.79998779296875</ele>
        <time>2020-02-22T13:13:45.000Z</time>
      </trkpt>
      <trkpt lat="37.82223508693277835845947265625" lon="-1.58243332989513874053955078125">
        <ele>717</ele>
        <time>2020-02-22T13:13:46.000Z</time>
      </trkpt>
      <trkpt lat="37.82233751378953456878662109375" lon="-1.5824102796614170074462890625">
        <ele>717.79998779296875</ele>
        <time>2020-02-22T13:13:50.000Z</time>
      </trkpt>
      <trkpt lat="37.82247296534478664398193359375" lon="-1.5823705494403839111328125">
        <ele>719</ele>
        <time>2020-02-22T13:13:55.000Z</time>
      </trkpt>
      <trkpt lat="37.82250590622425079345703125" lon="-1.582368873059749603271484375">
        <ele>719</ele>
        <time>2020-02-22T13:13:56.000Z</time>
      </trkpt>
      <trkpt lat="37.82262266613543033599853515625" lon="-1.5823348425328731536865234375">
        <ele>719.79998779296875</ele>
        <time>2020-02-22T13:14:00.000Z</time>
      </trkpt>
      <trkpt lat="37.82270648516714572906494140625" lon="-1.5823170728981494903564453125">
        <ele>720.20001220703125</ele>
        <time>2020-02-22T13:14:03.000Z</time>
      </trkpt>
      <trkpt lat="37.822877056896686553955078125" lon="-1.5822681225836277008056640625">
        <ele>721.20001220703125</ele>
        <time>2020-02-22T13:14:10.000Z</time>
      </trkpt>
      <trkpt lat="37.8229035437107086181640625" lon="-1.58226066268980503082275390625">
        <ele>721.4000244140625</ele>
        <time>2020-02-22T13:14:11.000Z</time>
      </trkpt>
      <trkpt lat="37.8230264224112033843994140625" lon="-1.58222327940165996551513671875">
        <ele>722.4000244140625</ele>
        <time>2020-02-22T13:14:16.000Z</time>
      </trkpt>
      <trkpt lat="37.82315055839717388153076171875" lon="-1.58218774013221263885498046875">
        <ele>723.20001220703125</ele>
        <time>2020-02-22T13:14:21.000Z</time>
      </trkpt>
      <trkpt lat="37.82317285425961017608642578125" lon="-1.582178436219692230224609375">
        <ele>723.79998779296875</ele>
        <time>2020-02-22T13:14:22.000Z</time>
      </trkpt>
      <trkpt lat="37.8232738561928272247314453125" lon="-1.58215354196727275848388671875">
        <ele>724.20001220703125</ele>
        <time>2020-02-22T13:14:26.000Z</time>
      </trkpt>
      <trkpt lat="37.82332825474441051483154296875" lon="-1.58213895745575428009033203125">
        <ele>724.5999755859375</ele>
        <time>2020-02-22T13:14:28.000Z</time>
      </trkpt>
      <trkpt lat="37.82335675321519374847412109375" lon="-1.5821291506290435791015625">
        <ele>724.79998779296875</ele>
        <time>2020-02-22T13:14:29.000Z</time>
      </trkpt>
      <trkpt lat="37.82348734326660633087158203125" lon="-1.58210174180567264556884765625">
        <ele>725.79998779296875</ele>
        <time>2020-02-22T13:14:33.000Z</time>
      </trkpt>
      <trkpt lat="37.8235779516398906707763671875" lon="-1.58208824694156646728515625">
        <ele>726.20001220703125</ele>
        <time>2020-02-22T13:14:36.000Z</time>
      </trkpt>
      <trkpt lat="37.82366721890866756439208984375" lon="-1.58206922002136707305908203125">
        <ele>726.79998779296875</ele>
        <time>2020-02-22T13:14:39.000Z</time>
      </trkpt>
      <trkpt lat="37.82380853779613971710205078125" lon="-1.58202747814357280731201171875">
        <ele>727.79998779296875</ele>
        <time>2020-02-22T13:14:44.000Z</time>
      </trkpt>
      <trkpt lat="37.8238304145634174346923828125" lon="-1.58201515674591064453125">
        <ele>728</ele>
        <time>2020-02-22T13:14:45.000Z</time>
      </trkpt>
      <trkpt lat="37.82397014088928699493408203125" lon="-1.58199302852153778076171875">
        <ele>729</ele>
        <time>2020-02-22T13:14:50.000Z</time>
      </trkpt>
      <trkpt lat="37.823998220264911651611328125" lon="-1.5819874964654445648193359375">
        <ele>729</ele>
        <time>2020-02-22T13:14:51.000Z</time>
      </trkpt>
      <trkpt lat="37.82415814697742462158203125" lon="-1.58195036463439464569091796875">
        <ele>730</ele>
        <time>2020-02-22T13:14:57.000Z</time>
      </trkpt>
      <trkpt lat="37.8241784311830997467041015625" lon="-1.5819422341883182525634765625">
        <ele>730.20001220703125</ele>
        <time>2020-02-22T13:14:58.000Z</time>
      </trkpt>
      <trkpt lat="37.8242964483797550201416015625" lon="-1.5818761847913265228271484375">
        <ele>731.20001220703125</ele>
        <time>2020-02-22T13:15:04.000Z</time>
      </trkpt>
      <trkpt lat="37.82446349970996379852294921875" lon="-1.5818359516561031341552734375">
        <ele>732.20001220703125</ele>
        <time>2020-02-22T13:15:10.000Z</time>
      </trkpt>
      <trkpt lat="37.82453189603984355926513671875" lon="-1.58181223087012767791748046875">
        <ele>732.79998779296875</ele>
        <time>2020-02-22T13:15:13.000Z</time>
      </trkpt>
      <trkpt lat="37.82459274865686893463134765625" lon="-1.581789515912532806396484375">
        <ele>733.4000244140625</ele>
        <time>2020-02-22T13:15:16.000Z</time>
      </trkpt>
      <trkpt lat="37.82468318939208984375" lon="-1.58174894750118255615234375">
        <ele>734.4000244140625</ele>
        <time>2020-02-22T13:15:20.000Z</time>
      </trkpt>
      <trkpt lat="37.8247044794261455535888671875" lon="-1.58173821866512298583984375">
        <ele>734.5999755859375</ele>
        <time>2020-02-22T13:15:21.000Z</time>
      </trkpt>
      <trkpt lat="37.8248483128845691680908203125" lon="-1.5816860832273960113525390625">
        <ele>735.5999755859375</ele>
        <time>2020-02-22T13:15:26.000Z</time>
      </trkpt>
      <trkpt lat="37.82502240501344203948974609375" lon="-1.581631936132907867431640625">
        <ele>736.5999755859375</ele>
        <time>2020-02-22T13:15:32.000Z</time>
      </trkpt>
      <trkpt lat="37.8250850178301334381103515625" lon="-1.581619195640087127685546875">
        <ele>737</ele>
        <time>2020-02-22T13:15:34.000Z</time>
      </trkpt>
      <trkpt lat="37.82520680688321590423583984375" lon="-1.5816082991659641265869140625">
        <ele>737.79998779296875</ele>
        <time>2020-02-22T13:15:38.000Z</time>
      </trkpt>
      <trkpt lat="37.8252778016030788421630859375" lon="-1.58160218037664890289306640625">
        <ele>738.4000244140625</ele>
        <time>2020-02-22T13:15:40.000Z</time>
      </trkpt>
      <trkpt lat="37.82537159509956836700439453125" lon="-1.58159128390252590179443359375">
        <ele>739</ele>
        <time>2020-02-22T13:15:43.000Z</time>
      </trkpt>
      <trkpt lat="37.82550117932260036468505859375" lon="-1.58155473880469799041748046875">
        <ele>739.79998779296875</ele>
        <time>2020-02-22T13:15:47.000Z</time>
      </trkpt>
      <trkpt lat="37.82556136138737201690673828125" lon="-1.581540741026401519775390625">
        <ele>740.20001220703125</ele>
        <time>2020-02-22T13:15:49.000Z</time>
      </trkpt>
      <trkpt lat="37.82567719928920269012451171875" lon="-1.5815055370330810546875">
        <ele>740.79998779296875</ele>
        <time>2020-02-22T13:15:53.000Z</time>
      </trkpt>
      <trkpt lat="37.82574643380939960479736328125" lon="-1.58150352537631988525390625">
        <ele>741.20001220703125</ele>
        <time>2020-02-22T13:15:55.000Z</time>
      </trkpt>
      <trkpt lat="37.82592278905212879180908203125" lon="-1.581493802368640899658203125">
        <ele>742.20001220703125</ele>
        <time>2020-02-22T13:16:00.000Z</time>
      </trkpt>
      <trkpt lat="37.82594575546681880950927734375" lon="-1.5814815647900104522705078125">
        <ele>742.5999755859375</ele>
        <time>2020-02-22T13:16:01.000Z</time>
      </trkpt>
      <trkpt lat="37.82606829889118671417236328125" lon="-1.58145918510854244232177734375">
        <ele>743.4000244140625</ele>
        <time>2020-02-22T13:16:05.000Z</time>
      </trkpt>
      <trkpt lat="37.8262159042060375213623046875" lon="-1.58145633526146411895751953125">
        <ele>744.20001220703125</ele>
        <time>2020-02-22T13:16:10.000Z</time>
      </trkpt>
      <trkpt lat="37.8262863121926784515380859375" lon="-1.58145599998533725738525390625">
        <ele>744.4000244140625</ele>
        <time>2020-02-22T13:16:12.000Z</time>
      </trkpt>
      <trkpt lat="37.826453782618045806884765625" lon="-1.5814510546624660491943359375">
        <ele>745.5999755859375</ele>
        <time>2020-02-22T13:16:17.000Z</time>
      </trkpt>
      <trkpt lat="37.82661848701536655426025390625" lon="-1.5814007632434368133544921875">
        <ele>746.5999755859375</ele>
        <time>2020-02-22T13:16:23.000Z</time>
      </trkpt>
      <trkpt lat="37.82664396800100803375244140625" lon="-1.581392548978328704833984375">
        <ele>746.79998779296875</ele>
        <time>2020-02-22T13:16:24.000Z</time>
      </trkpt>
      <trkpt lat="37.82681277953088283538818359375" lon="-1.5813491307199001312255859375">
        <ele>747.79998779296875</ele>
        <time>2020-02-22T13:16:30.000Z</time>
      </trkpt>
      <trkpt lat="37.82686223275959491729736328125" lon="-1.58133647404611110687255859375">
        <ele>748.20001220703125</ele>
        <time>2020-02-22T13:16:32.000Z</time>
      </trkpt>
      <trkpt lat="37.82698653638362884521484375" lon="-1.58130705356597900390625">
        <ele>749</ele>
        <time>2020-02-22T13:16:37.000Z</time>
      </trkpt>
      <trkpt lat="37.82704730518162250518798828125" lon="-1.5812944807112216949462890625">
        <ele>749.20001220703125</ele>
        <time>2020-02-22T13:16:39.000Z</time>
      </trkpt>
      <trkpt lat="37.82714621163904666900634765625" lon="-1.58128232695162296295166015625">
        <ele>750</ele>
        <time>2020-02-22T13:16:43.000Z</time>
      </trkpt>
      <trkpt lat="37.82725282944738864898681640625" lon="-1.58126573078334331512451171875">
        <ele>750.79998779296875</ele>
        <time>2020-02-22T13:16:47.000Z</time>
      </trkpt>
      <trkpt lat="37.82731032930314540863037109375" lon="-1.581263802945613861083984375">
        <ele>751.20001220703125</ele>
        <time>2020-02-22T13:16:49.000Z</time>
      </trkpt>
      <trkpt lat="37.82748006284236907958984375" lon="-1.58124469220638275146484375">
        <ele>752.4000244140625</ele>
        <time>2020-02-22T13:16:55.000Z</time>
      </trkpt>
      <trkpt lat="37.8276297636330127716064453125" lon="-1.58122130669653415679931640625">
        <ele>753.4000244140625</ele>
        <time>2020-02-22T13:17:00.000Z</time>
      </trkpt>
      <trkpt lat="37.827701009809970855712890625" lon="-1.58120940439403057098388671875">
        <ele>753.79998779296875</ele>
        <time>2020-02-22T13:17:02.000Z</time>
      </trkpt>
      <trkpt lat="37.82777586020529270172119140625" lon="-1.5811707638204097747802734375">
        <ele>754.5999755859375</ele>
        <time>2020-02-22T13:17:06.000Z</time>
      </trkpt>
      <trkpt lat="37.82778851687908172607421875" lon="-1.58116213046014308929443359375">
        <ele>754.5999755859375</ele>
        <time>2020-02-22T13:17:07.000Z</time>
      </trkpt>
      <trkpt lat="37.8278755210340023040771484375" lon="-1.5811483003199100494384765625">
        <ele>755.4000244140625</ele>
        <time>2020-02-22T13:17:10.000Z</time>
      </trkpt>
      <trkpt lat="37.827900834381580352783203125" lon="-1.58114285208284854888916015625">
        <ele>755.5999755859375</ele>
        <time>2020-02-22T13:17:11.000Z</time>
      </trkpt>
      <trkpt lat="37.82792589627206325531005859375" lon="-1.58113866113126277923583984375">
        <ele>756</ele>
        <time>2020-02-22T13:17:12.000Z</time>
      </trkpt>
      <trkpt lat="37.82801407389342784881591796875" lon="-1.58112960867583751678466796875">
        <ele>756.5999755859375</ele>
        <time>2020-02-22T13:17:15.000Z</time>
      </trkpt>
      <trkpt lat="37.82812915742397308349609375" lon="-1.58111854456365108489990234375">
        <ele>757.4000244140625</ele>
        <time>2020-02-22T13:17:19.000Z</time>
      </trkpt>
      <trkpt lat="37.82815204001963138580322265625" lon="-1.58111770637333393096923828125">
        <ele>757.79998779296875</ele>
        <time>2020-02-22T13:17:20.000Z</time>
      </trkpt>
      <trkpt lat="37.8282748349010944366455078125" lon="-1.58108065836131572723388671875">
        <ele>759</ele>
        <time>2020-02-22T13:17:25.000Z</time>
      </trkpt>
      <trkpt lat="37.8284300677478313446044921875" lon="-1.58103883266448974609375">
        <ele>760</ele>
        <time>2020-02-22T13:17:31.000Z</time>
      </trkpt>
      <trkpt lat="37.82847105525434017181396484375" lon="-1.581039167940616607666015625">
        <ele>760.4000244140625</ele>
        <time>2020-02-22T13:17:32.000Z</time>
      </trkpt>
      <trkpt lat="37.82860717736184597015380859375" lon="-1.58104327507317066192626953125">
        <ele>761.20001220703125</ele>
        <time>2020-02-22T13:17:36.000Z</time>
      </trkpt>
      <trkpt lat="37.82870876602828502655029296875" lon="-1.58104361034929752349853515625">
        <ele>762</ele>
        <time>2020-02-22T13:17:39.000Z</time>
      </trkpt>
      <trkpt lat="37.82873977907001972198486328125" lon="-1.58104008994996547698974609375">
        <ele>762.4000244140625</ele>
        <time>2020-02-22T13:17:40.000Z</time>
      </trkpt>
      <trkpt lat="37.82891194336116313934326171875" lon="-1.5810597874224185943603515625">
        <ele>763.4000244140625</ele>
        <time>2020-02-22T13:17:45.000Z</time>
      </trkpt>
      <trkpt lat="37.82894178293645381927490234375" lon="-1.58106137998402118682861328125">
        <ele>763.5999755859375</ele>
        <time>2020-02-22T13:17:46.000Z</time>
      </trkpt>
      <trkpt lat="37.82899978570640087127685546875" lon="-1.58105517737567424774169921875">
        <ele>764</ele>
        <time>2020-02-22T13:17:48.000Z</time>
      </trkpt>
      <trkpt lat="37.829083688557147979736328125" lon="-1.5810557641088962554931640625">
        <ele>764.5999755859375</ele>
        <time>2020-02-22T13:17:51.000Z</time>
      </trkpt>
      <trkpt lat="37.82914730720221996307373046875" lon="-1.58104361034929752349853515625">
        <ele>765</ele>
        <time>2020-02-22T13:17:53.000Z</time>
      </trkpt>
      <trkpt lat="37.82920748926699161529541015625" lon="-1.58102072775363922119140625">
        <ele>765.5999755859375</ele>
        <time>2020-02-22T13:17:56.000Z</time>
      </trkpt>
      <trkpt lat="37.8292910568416118621826171875" lon="-1.58099197782576084136962890625">
        <ele>766.5999755859375</ele>
        <time>2020-02-22T13:18:00.000Z</time>
      </trkpt>
      <trkpt lat="37.8293148614466190338134765625" lon="-1.58098828978836536407470703125">
        <ele>766.79998779296875</ele>
        <time>2020-02-22T13:18:01.000Z</time>
      </trkpt>
      <trkpt lat="37.829446457326412200927734375" lon="-1.58097119070589542388916015625">
        <ele>767.79998779296875</ele>
        <time>2020-02-22T13:18:06.000Z</time>
      </trkpt>
      <trkpt lat="37.82948778010904788970947265625" lon="-1.58098024316132068634033203125">
        <ele>768.20001220703125</ele>
        <time>2020-02-22T13:18:07.000Z</time>
      </trkpt>
      <trkpt lat="37.82956556417047977447509765625" lon="-1.58096884377300739288330078125">
        <ele>769</ele>
        <time>2020-02-22T13:18:10.000Z</time>
      </trkpt>
      <trkpt lat="37.82966564409434795379638671875" lon="-1.58096565864980220794677734375">
        <ele>769.5999755859375</ele>
        <time>2020-02-22T13:18:14.000Z</time>
      </trkpt>
      <trkpt lat="37.829710654914379119873046875" lon="-1.5809565223753452301025390625">
        <ele>769.79998779296875</ele>
        <time>2020-02-22T13:18:16.000Z</time>
      </trkpt>
      <trkpt lat="37.8298452682793140411376953125" lon="-1.58093162812292575836181640625">
        <ele>771</ele>
        <time>2020-02-22T13:18:21.000Z</time>
      </trkpt>
      <trkpt lat="37.830013073980808258056640625" lon="-1.5809364058077335357666015625">
        <ele>772</ele>
        <time>2020-02-22T13:18:26.000Z</time>
      </trkpt>
      <trkpt lat="37.8300534747540950775146484375" lon="-1.58092550933361053466796875">
        <ele>772.5999755859375</ele>
        <time>2020-02-22T13:18:28.000Z</time>
      </trkpt>
      <trkpt lat="37.8301339410245418548583984375" lon="-1.58088888041675090789794921875">
        <ele>773.20001220703125</ele>
        <time>2020-02-22T13:18:32.000Z</time>
      </trkpt>
      <trkpt lat="37.83019538037478923797607421875" lon="-1.58089742995798587799072265625">
        <ele>773.5999755859375</ele>
        <time>2020-02-22T13:18:34.000Z</time>
      </trkpt>
      <trkpt lat="37.8302620165050029754638671875" lon="-1.58087798394262790679931640625">
        <ele>774.4000244140625</ele>
        <time>2020-02-22T13:18:37.000Z</time>
      </trkpt>
      <trkpt lat="37.830356396734714508056640625" lon="-1.58088284544646739959716796875">
        <ele>775.20001220703125</ele>
        <time>2020-02-22T13:18:40.000Z</time>
      </trkpt>
      <trkpt lat="37.83037827350199222564697265625" lon="-1.58087697811424732208251953125">
        <ele>775.4000244140625</ele>
        <time>2020-02-22T13:18:41.000Z</time>
      </trkpt>
      <trkpt lat="37.83049830235540866851806640625" lon="-1.5808690153062343597412109375">
        <ele>776.4000244140625</ele>
        <time>2020-02-22T13:18:45.000Z</time>
      </trkpt>
      <trkpt lat="37.83055580221116542816162109375" lon="-1.58086172305047512054443359375">
        <ele>777</ele>
        <time>2020-02-22T13:18:47.000Z</time>
      </trkpt>
      <trkpt lat="37.83067264594137668609619140625" lon="-1.580861471593379974365234375">
        <ele>777.5999755859375</ele>
        <time>2020-02-22T13:18:51.000Z</time>
      </trkpt>
      <trkpt lat="37.8307605721056461334228515625" lon="-1.58084630034863948822021484375">
        <ele>778.20001220703125</ele>
        <time>2020-02-22T13:18:54.000Z</time>
      </trkpt>
      <trkpt lat="37.83082838170230388641357421875" lon="-1.58084931783378124237060546875">
        <ele>778.79998779296875</ele>
        <time>2020-02-22T13:18:56.000Z</time>
      </trkpt>
      <trkpt lat="37.830967940390110015869140625" lon="-1.5808170475065708160400390625">
        <ele>779.79998779296875</ele>
        <time>2020-02-22T13:19:01.000Z</time>
      </trkpt>
      <trkpt lat="37.83099032007157802581787109375" lon="-1.58080749213695526123046875">
        <ele>780</ele>
        <time>2020-02-22T13:19:02.000Z</time>
      </trkpt>
      <trkpt lat="37.8310817666351795196533203125" lon="-1.58077790401875972747802734375">
        <ele>780.79998779296875</ele>
        <time>2020-02-22T13:19:06.000Z</time>
      </trkpt>
      <trkpt lat="37.83115209080278873443603515625" lon="-1.58074253238737583160400390625">
        <ele>781.5999755859375</ele>
        <time>2020-02-22T13:19:09.000Z</time>
      </trkpt>
      <trkpt lat="37.83117287792265415191650390625" lon="-1.58073230646550655364990234375">
        <ele>782</ele>
        <time>2020-02-22T13:19:10.000Z</time>
      </trkpt>
      <trkpt lat="37.8312926553189754486083984375" lon="-1.5806753933429718017578125">
        <ele>783.20001220703125</ele>
        <time>2020-02-22T13:19:15.000Z</time>
      </trkpt>
      <trkpt lat="37.831319980323314666748046875" lon="-1.58066759817302227020263671875">
        <ele>783.4000244140625</ele>
        <time>2020-02-22T13:19:16.000Z</time>
      </trkpt>
      <trkpt lat="37.83141561783850193023681640625" lon="-1.5806024707853794097900390625">
        <ele>784.20001220703125</ele>
        <time>2020-02-22T13:19:20.000Z</time>
      </trkpt>
      <trkpt lat="37.83150262199342250823974609375" lon="-1.58054874278604984283447265625">
        <ele>784.79998779296875</ele>
        <time>2020-02-22T13:19:23.000Z</time>
      </trkpt>
      <trkpt lat="37.83154721371829509735107421875" lon="-1.58050180412828922271728515625">
        <ele>785.20001220703125</ele>
        <time>2020-02-22T13:19:25.000Z</time>
      </trkpt>
      <trkpt lat="37.83169037662446498870849609375" lon="-1.58042100258171558380126953125">
        <ele>786.20001220703125</ele>
        <time>2020-02-22T13:19:30.000Z</time>
      </trkpt>
      <trkpt lat="37.83171837218105792999267578125" lon="-1.580402143299579620361328125">
        <ele>786.5999755859375</ele>
        <time>2020-02-22T13:19:31.000Z</time>
      </trkpt>
      <trkpt lat="37.831774614751338958740234375" lon="-1.58033316023647785186767578125">
        <ele>787.5999755859375</ele>
        <time>2020-02-22T13:19:34.000Z</time>
      </trkpt>
      <trkpt lat="37.8319036960601806640625" lon="-1.580280773341655731201171875">
        <ele>788.79998779296875</ele>
        <time>2020-02-22T13:19:39.000Z</time>
      </trkpt>
      <trkpt lat="37.8319855034351348876953125" lon="-1.5802162326872348785400390625">
        <ele>789.79998779296875</ele>
        <time>2020-02-22T13:19:43.000Z</time>
      </trkpt>
      <trkpt lat="37.832045517861843109130859375" lon="-1.5801900811493396759033203125">
        <ele>790.5999755859375</ele>
        <time>2020-02-22T13:19:46.000Z</time>
      </trkpt>
      <trkpt lat="37.83207577653229236602783203125" lon="-1.58018044196069240570068359375">
        <ele>791</ele>
        <time>2020-02-22T13:19:47.000Z</time>
      </trkpt>
      <trkpt lat="37.8321754373610019683837890625" lon="-1.5801689587533473968505859375">
        <ele>791.79998779296875</ele>
        <time>2020-02-22T13:19:51.000Z</time>
      </trkpt>
      <trkpt lat="37.8321973979473114013671875" lon="-1.5801565535366535186767578125">
        <ele>792.20001220703125</ele>
        <time>2020-02-22T13:19:52.000Z</time>
      </trkpt>
      <trkpt lat="37.83232388086616992950439453125" lon="-1.5801174938678741455078125">
        <ele>793</ele>
        <time>2020-02-22T13:19:57.000Z</time>
      </trkpt>
      <trkpt lat="37.83234131522476673126220703125" lon="-1.58010986633598804473876953125">
        <ele>793.20001220703125</ele>
        <time>2020-02-22T13:19:58.000Z</time>
      </trkpt>
      <trkpt lat="37.832445837557315826416015625" lon="-1.580080278217792510986328125">
        <ele>794.20001220703125</ele>
        <time>2020-02-22T13:20:03.000Z</time>
      </trkpt>
      <trkpt lat="37.8324698098003864288330078125" lon="-1.58006829209625720977783203125">
        <ele>794.4000244140625</ele>
        <time>2020-02-22T13:20:04.000Z</time>
      </trkpt>
      <trkpt lat="37.83255220390856266021728515625" lon="-1.5800338424742221832275390625">
        <ele>795.4000244140625</ele>
        <time>2020-02-22T13:20:07.000Z</time>
      </trkpt>
      <trkpt lat="37.832644991576671600341796875" lon="-1.58001749776303768157958984375">
        <ele>796.20001220703125</ele>
        <time>2020-02-22T13:20:11.000Z</time>
      </trkpt>
      <trkpt lat="37.83266837708652019500732421875" lon="-1.58001280389726161956787109375">
        <ele>796.4000244140625</ele>
        <time>2020-02-22T13:20:12.000Z</time>
      </trkpt>
      <trkpt lat="37.8328171558678150177001953125" lon="-1.579977013170719146728515625">
        <ele>797.5999755859375</ele>
        <time>2020-02-22T13:20:18.000Z</time>
      </trkpt>
      <trkpt lat="37.83284456469118595123291015625" lon="-1.57997122965753078460693359375">
        <ele>797.79998779296875</ele>
        <time>2020-02-22T13:20:19.000Z</time>
      </trkpt>
      <trkpt lat="37.8329113684594631195068359375" lon="-1.57995681278407573699951171875">
        <ele>798.5999755859375</ele>
        <time>2020-02-22T13:20:22.000Z</time>
      </trkpt>
      <trkpt lat="37.8330370970070362091064453125" lon="-1.5799191780388355255126953125">
        <ele>799.79998779296875</ele>
        <time>2020-02-22T13:20:27.000Z</time>
      </trkpt>
      <trkpt lat="37.83311270177364349365234375" lon="-1.57987886108458042144775390625">
        <ele>800.79998779296875</ele>
        <time>2020-02-22T13:20:30.000Z</time>
      </trkpt>
      <trkpt lat="37.83322292380034923553466796875" lon="-1.5798410587012767791748046875">
        <ele>801.5999755859375</ele>
        <time>2020-02-22T13:20:34.000Z</time>
      </trkpt>
      <trkpt lat="37.83325058408081531524658203125" lon="-1.57983460463583469390869140625">
        <ele>801.79998779296875</ele>
        <time>2020-02-22T13:20:35.000Z</time>
      </trkpt>
      <trkpt lat="37.83337262459099292755126953125" lon="-1.57982622273266315460205078125">
        <ele>803</ele>
        <time>2020-02-22T13:20:40.000Z</time>
      </trkpt>
      <trkpt lat="37.83343984745442867279052734375" lon="-1.57984164543449878692626953125">
        <ele>803.4000244140625</ele>
        <time>2020-02-22T13:20:42.000Z</time>
      </trkpt>
      <trkpt lat="37.83352517522871494293212890625" lon="-1.57981096766889095306396484375">
        <ele>804.20001220703125</ele>
        <time>2020-02-22T13:20:45.000Z</time>
      </trkpt>
      <trkpt lat="37.833665572106838226318359375" lon="-1.5797797031700611114501953125">
        <ele>805</ele>
        <time>2020-02-22T13:20:50.000Z</time>
      </trkpt>
      <trkpt lat="37.8336871974170207977294921875" lon="-1.57977811060845851898193359375">
        <ele>805.4000244140625</ele>
        <time>2020-02-22T13:20:51.000Z</time>
      </trkpt>
      <trkpt lat="37.83379993401467800140380859375" lon="-1.5797795355319976806640625">
        <ele>806.4000244140625</ele>
        <time>2020-02-22T13:20:55.000Z</time>
      </trkpt>
      <trkpt lat="37.83386631868779659271240234375" lon="-1.579767130315303802490234375">
        <ele>807.4000244140625</ele>
        <time>2020-02-22T13:20:58.000Z</time>
      </trkpt>
      <trkpt lat="37.833898253738880157470703125" lon="-1.57977056689560413360595703125">
        <ele>807.5999755859375</ele>
        <time>2020-02-22T13:20:59.000Z</time>
      </trkpt>
      <trkpt lat="37.83403948880732059478759765625" lon="-1.57977073453366756439208984375">
        <ele>808.5999755859375</ele>
        <time>2020-02-22T13:21:04.000Z</time>
      </trkpt>
      <trkpt lat="37.834063880145549774169921875" lon="-1.57976721413433551788330078125">
        <ele>808.79998779296875</ele>
        <time>2020-02-22T13:21:05.000Z</time>
      </trkpt>
      <trkpt lat="37.8341740183532238006591796875" lon="-1.5797478519380092620849609375">
        <ele>809.79998779296875</ele>
        <time>2020-02-22T13:21:10.000Z</time>
      </trkpt>
      <trkpt lat="37.83426295034587383270263671875" lon="-1.57975028268992900848388671875">
        <ele>810.4000244140625</ele>
        <time>2020-02-22T13:21:13.000Z</time>
      </trkpt>
      <trkpt lat="37.83430720679461956024169921875" lon="-1.57973703928291797637939453125">
        <ele>811</ele>
        <time>2020-02-22T13:21:15.000Z</time>
      </trkpt>
      <trkpt lat="37.83443327061831951141357421875" lon="-1.5797042660415172576904296875">
        <ele>812</ele>
        <time>2020-02-22T13:21:20.000Z</time>
      </trkpt>
      <trkpt lat="37.834546007215976715087890625" lon="-1.57966461963951587677001953125">
        <ele>813.20001220703125</ele>
        <time>2020-02-22T13:21:25.000Z</time>
      </trkpt>
      <trkpt lat="37.8345676325261592864990234375" lon="-1.5796561539173126220703125">
        <ele>813.5999755859375</ele>
        <time>2020-02-22T13:21:26.000Z</time>
      </trkpt>
      <trkpt lat="37.83463426865637302398681640625" lon="-1.57963042147457599639892578125">
        <ele>814.4000244140625</ele>
        <time>2020-02-22T13:21:29.000Z</time>
      </trkpt>
      <trkpt lat="37.8347470052540302276611328125" lon="-1.57960594631731510162353515625">
        <ele>815.4000244140625</ele>
        <time>2020-02-22T13:21:34.000Z</time>
      </trkpt>
      <trkpt lat="37.8347741626203060150146484375" lon="-1.57959722913801670074462890625">
        <ele>815.79998779296875</ele>
        <time>2020-02-22T13:21:35.000Z</time>
      </trkpt>
      <trkpt lat="37.83488036133348941802978515625" lon="-1.57956101931631565093994140625">
        <ele>816.79998779296875</ele>
        <time>2020-02-22T13:21:39.000Z</time>
      </trkpt>
      <trkpt lat="37.83497683703899383544921875" lon="-1.5795020945370197296142578125">
        <ele>817.79998779296875</ele>
        <time>2020-02-22T13:21:44.000Z</time>
      </trkpt>
      <trkpt lat="37.83510315231978893280029296875" lon="-1.57946102321147918701171875">
        <ele>818.79998779296875</ele>
        <time>2020-02-22T13:21:49.000Z</time>
      </trkpt>
      <trkpt lat="37.83516484312713146209716796875" lon="-1.57943227328360080718994140625">
        <ele>819.4000244140625</ele>
        <time>2020-02-22T13:21:52.000Z</time>
      </trkpt>
      <trkpt lat="37.8351972810924053192138671875" lon="-1.57940243370831012725830078125">
        <ele>819.79998779296875</ele>
        <time>2020-02-22T13:21:54.000Z</time>
      </trkpt>
      <trkpt lat="37.835274897515773773193359375" lon="-1.5793505497276782989501953125">
        <ele>820.79998779296875</ele>
        <time>2020-02-22T13:21:58.000Z</time>
      </trkpt>
      <trkpt lat="37.83530549146234989166259765625" lon="-1.5793297626078128814697265625">
        <ele>821.4000244140625</ele>
        <time>2020-02-22T13:22:00.000Z</time>
      </trkpt>
      <trkpt lat="37.83534103073179721832275390625" lon="-1.5793069638311862945556640625">
        <ele>822.20001220703125</ele>
        <time>2020-02-22T13:22:02.000Z</time>
      </trkpt>
      <trkpt lat="37.83537891693413257598876953125" lon="-1.5792382322251796722412109375">
        <ele>823</ele>
        <time>2020-02-22T13:22:06.000Z</time>
      </trkpt>
      <trkpt lat="37.835387885570526123046875" lon="-1.5792157687246799468994140625">
        <ele>823.20001220703125</ele>
        <time>2020-02-22T13:22:07.000Z</time>
      </trkpt>
      <trkpt lat="37.83546927385032176971435546875" lon="-1.57916489057242870330810546875">
        <ele>824.4000244140625</ele>
        <time>2020-02-22T13:22:12.000Z</time>
      </trkpt>
      <trkpt lat="37.83550296910107135772705078125" lon="-1.57917796634137630462646484375">
        <ele>824.79998779296875</ele>
        <time>2020-02-22T13:22:14.000Z</time>
      </trkpt>
      <trkpt lat="37.83556784503161907196044921875" lon="-1.57923647202551364898681640625">
        <ele>825.20001220703125</ele>
        <time>2020-02-22T13:22:16.000Z</time>
      </trkpt>
      <trkpt lat="37.83559617586433887481689453125" lon="-1.5792687423527240753173828125">
        <ele>825.4000244140625</ele>
        <time>2020-02-22T13:22:17.000Z</time>
      </trkpt>
      <trkpt lat="37.83564931713044643402099609375" lon="-1.57933420501649379730224609375">
        <ele>825.79998779296875</ele>
        <time>2020-02-22T13:22:19.000Z</time>
      </trkpt>
      <trkpt lat="37.83569893799722194671630859375" lon="-1.57941902987658977508544921875">
        <ele>826.4000244140625</ele>
        <time>2020-02-22T13:22:22.000Z</time>
      </trkpt>
      <trkpt lat="37.83571553416550159454345703125" lon="-1.5794407390058040618896484375">
        <ele>826.79998779296875</ele>
        <time>2020-02-22T13:22:23.000Z</time>
      </trkpt>
      <trkpt lat="37.8357942402362823486328125" lon="-1.57951760105788707733154296875">
        <ele>827.5999755859375</ele>
        <time>2020-02-22T13:22:27.000Z</time>
      </trkpt>
      <trkpt lat="37.83584428019821643829345703125" lon="-1.579519025981426239013671875">
        <ele>828</ele>
        <time>2020-02-22T13:22:29.000Z</time>
      </trkpt>
      <trkpt lat="37.83586976118385791778564453125" lon="-1.57947787083685398101806640625">
        <ele>828.4000244140625</ele>
        <time>2020-02-22T13:22:31.000Z</time>
      </trkpt>
      <trkpt lat="37.83589012920856475830078125" lon="-1.57946814782917499542236328125">
        <ele>828.5999755859375</ele>
        <time>2020-02-22T13:22:32.000Z</time>
      </trkpt>
      <trkpt lat="37.83591158688068389892578125" lon="-1.5794514678418636322021484375">
        <ele>829</ele>
        <time>2020-02-22T13:22:33.000Z</time>
      </trkpt>
      <trkpt lat="37.83597403205931186676025390625" lon="-1.57938055694103240966796875">
        <ele>829.79998779296875</ele>
        <time>2020-02-22T13:22:37.000Z</time>
      </trkpt>
      <trkpt lat="37.835992388427257537841796875" lon="-1.5793619491159915924072265625">
        <ele>830</ele>
        <time>2020-02-22T13:22:38.000Z</time>
      </trkpt>
      <trkpt lat="37.8360515646636486053466796875" lon="-1.579203866422176361083984375">
        <ele>830.79998779296875</ele>
        <time>2020-02-22T13:22:44.000Z</time>
      </trkpt>
      <trkpt lat="37.83606220968067646026611328125" lon="-1.57918299548327922821044921875">
        <ele>831</ele>
        <time>2020-02-22T13:22:45.000Z</time>
      </trkpt>
      <trkpt lat="37.8361199609935283660888671875" lon="-1.579068414866924285888671875">
        <ele>832</ele>
        <time>2020-02-22T13:22:50.000Z</time>
      </trkpt>
      <trkpt lat="37.836148627102375030517578125" lon="-1.57897747121751308441162109375">
        <ele>833.20001220703125</ele>
        <time>2020-02-22T13:22:53.000Z</time>
      </trkpt>
      <trkpt lat="37.8362185321748256683349609375" lon="-1.57887957058846950531005859375">
        <ele>834</ele>
        <time>2020-02-22T13:22:56.000Z</time>
      </trkpt>
      <trkpt lat="37.8362450189888477325439453125" lon="-1.57885559834539890289306640625">
        <ele>834.4000244140625</ele>
        <time>2020-02-22T13:22:57.000Z</time>
      </trkpt>
      <trkpt lat="37.8363040275871753692626953125" lon="-1.578748561441898345947265625">
        <ele>835.5999755859375</ele>
        <time>2020-02-22T13:23:01.000Z</time>
      </trkpt>
      <trkpt lat="37.8363734297454357147216796875" lon="-1.5786605514585971832275390625">
        <ele>836.5999755859375</ele>
        <time>2020-02-22T13:23:06.000Z</time>
      </trkpt>
      <trkpt lat="37.83639228902757167816162109375" lon="-1.5786374174058437347412109375">
        <ele>836.79998779296875</ele>
        <time>2020-02-22T13:23:07.000Z</time>
      </trkpt>
      <trkpt lat="37.8364884294569492340087890625" lon="-1.57851747237145900726318359375">
        <ele>837.79998779296875</ele>
        <time>2020-02-22T13:23:11.000Z</time>
      </trkpt>
      <trkpt lat="37.83657467924058437347412109375" lon="-1.57845251262187957763671875">
        <ele>838.5999755859375</ele>
        <time>2020-02-22T13:23:14.000Z</time>
      </trkpt>
      <trkpt lat="37.83659999258816242218017578125" lon="-1.578430719673633575439453125">
        <ele>838.79998779296875</ele>
        <time>2020-02-22T13:23:15.000Z</time>
      </trkpt>
      <trkpt lat="37.83670283854007720947265625" lon="-1.5783745609223842620849609375">
        <ele>839.79998779296875</ele>
        <time>2020-02-22T13:23:19.000Z</time>
      </trkpt>
      <trkpt lat="37.83674416132271289825439453125" lon="-1.57835662364959716796875">
        <ele>840.4000244140625</ele>
        <time>2020-02-22T13:23:21.000Z</time>
      </trkpt>
      <trkpt lat="37.836800403892993927001953125" lon="-1.57831530086696147918701171875">
        <ele>841</ele>
        <time>2020-02-22T13:23:24.000Z</time>
      </trkpt>
      <trkpt lat="37.8368510305881500244140625" lon="-1.57828914932906627655029296875">
        <ele>841.4000244140625</ele>
        <time>2020-02-22T13:23:26.000Z</time>
      </trkpt>
      <trkpt lat="37.836932837963104248046875" lon="-1.5782726369798183441162109375">
        <ele>842.20001220703125</ele>
        <time>2020-02-22T13:23:29.000Z</time>
      </trkpt>
      <trkpt lat="37.83705060370266437530517578125" lon="-1.57822611741721630096435546875">
        <ele>843.20001220703125</ele>
        <time>2020-02-22T13:23:34.000Z</time>
      </trkpt>
      <trkpt lat="37.83714565448462963104248046875" lon="-1.57820164225995540618896484375">
        <ele>844.20001220703125</ele>
        <time>2020-02-22T13:23:38.000Z</time>
      </trkpt>
      <trkpt lat="37.83721354790031909942626953125" lon="-1.57819158397614955902099609375">
        <ele>845</ele>
        <time>2020-02-22T13:23:41.000Z</time>
      </trkpt>
      <trkpt lat="37.83723349682986736297607421875" lon="-1.5781809389591217041015625">
        <ele>845.20001220703125</ele>
        <time>2020-02-22T13:23:42.000Z</time>
      </trkpt>
      <trkpt lat="37.83733240328729152679443359375" lon="-1.57814162783324718475341796875">
        <ele>846.4000244140625</ele>
        <time>2020-02-22T13:23:47.000Z</time>
      </trkpt>
      <trkpt lat="37.8374624066054821014404296875" lon="-1.578120924532413482666015625">
        <ele>847.4000244140625</ele>
        <time>2020-02-22T13:23:52.000Z</time>
      </trkpt>
      <trkpt lat="37.8374892286956310272216796875" lon="-1.5781163983047008514404296875">
        <ele>847.5999755859375</ele>
        <time>2020-02-22T13:23:53.000Z</time>
      </trkpt>
      <trkpt lat="37.837576903402805328369140625" lon="-1.57808949239552021026611328125">
        <ele>848.79998779296875</ele>
        <time>2020-02-22T13:23:57.000Z</time>
      </trkpt>
      <trkpt lat="37.83765326254069805145263671875" lon="-1.57806501723825931549072265625">
        <ele>849.4000244140625</ele>
        <time>2020-02-22T13:24:00.000Z</time>
      </trkpt>
      <trkpt lat="37.8377165459096431732177734375" lon="-1.57805294729769229888916015625">
        <ele>850</ele>
        <time>2020-02-22T13:24:02.000Z</time>
      </trkpt>
      <trkpt lat="37.837830372154712677001953125" lon="-1.5780387818813323974609375">
        <ele>851.20001220703125</ele>
        <time>2020-02-22T13:24:06.000Z</time>
      </trkpt>
      <trkpt lat="37.8378593735396862030029296875" lon="-1.57805621623992919921875">
        <ele>851.5999755859375</ele>
        <time>2020-02-22T13:24:07.000Z</time>
      </trkpt>
      <trkpt lat="37.83791293390095233917236328125" lon="-1.57813995145261287689208984375">
        <ele>852.4000244140625</ele>
        <time>2020-02-22T13:24:10.000Z</time>
      </trkpt>
      <trkpt lat="37.8379185497760772705078125" lon="-1.5782139636576175689697265625">
        <ele>852.79998779296875</ele>
        <time>2020-02-22T13:24:12.000Z</time>
      </trkpt>
      <trkpt lat="37.83792030997574329376220703125" lon="-1.57830826006829738616943359375">
        <ele>853.4000244140625</ele>
        <time>2020-02-22T13:24:15.000Z</time>
      </trkpt>
      <trkpt lat="37.83791611902415752410888671875" lon="-1.57834698446094989776611328125">
        <ele>854</ele>
        <time>2020-02-22T13:24:16.000Z</time>
      </trkpt>
      <trkpt lat="37.83785828389227390289306640625" lon="-1.57850875519216060638427734375">
        <ele>854.5999755859375</ele>
        <time>2020-02-22T13:24:21.000Z</time>
      </trkpt>
      <trkpt lat="37.8378519974648952484130859375" lon="-1.57854177989065647125244140625">
        <ele>854.79998779296875</ele>
        <time>2020-02-22T13:24:22.000Z</time>
      </trkpt>
      <trkpt lat="37.8377906419336795806884765625" lon="-1.5787400119006633758544921875">
        <ele>855.5999755859375</ele>
        <time>2020-02-22T13:24:27.000Z</time>
      </trkpt>
      <trkpt lat="37.83771864138543605804443359375" lon="-1.57889063470065593719482421875">
        <ele>856.20001220703125</ele>
        <time>2020-02-22T13:24:31.000Z</time>
      </trkpt>
      <trkpt lat="37.83766248263418674468994140625" lon="-1.57903949730098247528076171875">
        <ele>856.79998779296875</ele>
        <time>2020-02-22T13:24:35.000Z</time>
      </trkpt>
      <trkpt lat="37.83761638216674327850341796875" lon="-1.57915432937443256378173828125">
        <ele>857.20001220703125</ele>
        <time>2020-02-22T13:24:38.000Z</time>
      </trkpt>
      <trkpt lat="37.8375589661300182342529296875" lon="-1.5792942233383655548095703125">
        <ele>857.79998779296875</ele>
        <time>2020-02-22T13:24:42.000Z</time>
      </trkpt>
      <trkpt lat="37.83750607632100582122802734375" lon="-1.579403690993785858154296875">
        <ele>858.79998779296875</ele>
        <time>2020-02-22T13:24:45.000Z</time>
      </trkpt>
      <trkpt lat="37.83745511434972286224365234375" lon="-1.5795057825744152069091796875">
        <ele>859.20001220703125</ele>
        <time>2020-02-22T13:24:48.000Z</time>
      </trkpt>
      <trkpt lat="37.83741203136742115020751953125" lon="-1.57963913865387439727783203125">
        <ele>860.20001220703125</ele>
        <time>2020-02-22T13:24:52.000Z</time>
      </trkpt>
      <trkpt lat="37.8373521007597446441650390625" lon="-1.5797666274011135101318359375">
        <ele>861.20001220703125</ele>
        <time>2020-02-22T13:24:56.000Z</time>
      </trkpt>
      <trkpt lat="37.83734078519046306610107421875" lon="-1.579796634614467620849609375">
        <ele>861.5999755859375</ele>
        <time>2020-02-22T13:24:57.000Z</time>
      </trkpt>
      <trkpt lat="37.83733407966792583465576171875" lon="-1.5798786096274852752685546875">
        <ele>862.4000244140625</ele>
        <time>2020-02-22T13:25:00.000Z</time>
      </trkpt>
      <trkpt lat="37.83736056648194789886474609375" lon="-1.57991339452564716339111328125">
        <ele>862.79998779296875</ele>
        <time>2020-02-22T13:25:02.000Z</time>
      </trkpt>
      <trkpt lat="37.83741764724254608154296875" lon="-1.57991808839142322540283203125">
        <ele>863.4000244140625</ele>
        <time>2020-02-22T13:25:04.000Z</time>
      </trkpt>
      <trkpt lat="37.83747288398444652557373046875" lon="-1.57990786246955394744873046875">
        <ele>863.5999755859375</ele>
        <time>2020-02-22T13:25:06.000Z</time>
      </trkpt>
      <trkpt lat="37.8374979458749294281005859375" lon="-1.57989847473800182342529296875">
        <ele>863.79998779296875</ele>
        <time>2020-02-22T13:25:07.000Z</time>
      </trkpt>
      <trkpt lat="37.837542034685611724853515625" lon="-1.5798584930598735809326171875">
        <ele>864.20001220703125</ele>
        <time>2020-02-22T13:25:10.000Z</time>
      </trkpt>
      <trkpt lat="37.8375817649066448211669921875" lon="-1.57982773147523403167724609375">
        <ele>865</ele>
        <time>2020-02-22T13:25:12.000Z</time>
      </trkpt>
      <trkpt lat="37.8376139514148235321044921875" lon="-1.57979889772832393646240234375">
        <ele>865.4000244140625</ele>
        <time>2020-02-22T13:25:14.000Z</time>
      </trkpt>
      <trkpt lat="37.8376959264278411865234375" lon="-1.5797688066959381103515625">
        <ele>866.20001220703125</ele>
        <time>2020-02-22T13:25:17.000Z</time>
      </trkpt>
      <trkpt lat="37.837713025510311126708984375" lon="-1.57975514419376850128173828125">
        <ele>866.5999755859375</ele>
        <time>2020-02-22T13:25:18.000Z</time>
      </trkpt>
      <trkpt lat="37.837720401585102081298828125" lon="-1.5797366201877593994140625">
        <ele>866.79998779296875</ele>
        <time>2020-02-22T13:25:19.000Z</time>
      </trkpt>
      <trkpt lat="37.8377758897840976715087890625" lon="-1.57970108091831207275390625">
        <ele>867.4000244140625</ele>
        <time>2020-02-22T13:25:22.000Z</time>
      </trkpt>
      <trkpt lat="37.837789468467235565185546875" lon="-1.5796861611306667327880859375">
        <ele>867.79998779296875</ele>
        <time>2020-02-22T13:25:23.000Z</time>
      </trkpt>
      <trkpt lat="37.83780413679778575897216796875" lon="-1.57962606288492679595947265625">
        <ele>868.20001220703125</ele>
        <time>2020-02-22T13:25:26.000Z</time>
      </trkpt>
      <trkpt lat="37.8378114290535449981689453125" lon="-1.57958717085421085357666015625">
        <ele>868.5999755859375</ele>
        <time>2020-02-22T13:25:28.000Z</time>
      </trkpt>
      <trkpt lat="37.8378147818148136138916015625" lon="-1.5795654617249965667724609375">
        <ele>868.79998779296875</ele>
        <time>2020-02-22T13:25:29.000Z</time>
      </trkpt>
      <trkpt lat="37.83782375045120716094970703125" lon="-1.57944685779511928558349609375">
        <ele>869.79998779296875</ele>
        <time>2020-02-22T13:25:34.000Z</time>
      </trkpt>
      <trkpt lat="37.83794998191297054290771484375" lon="-1.5793539024889469146728515625">
        <ele>871</ele>
        <time>2020-02-22T13:25:39.000Z</time>
      </trkpt>
      <trkpt lat="37.837975881993770599365234375" lon="-1.57930620945990085601806640625">
        <ele>871.5999755859375</ele>
        <time>2020-02-22T13:25:41.000Z</time>
      </trkpt>
      <trkpt lat="37.838037908077239990234375" lon="-1.57927804626524448394775390625">
        <ele>872</ele>
        <time>2020-02-22T13:25:43.000Z</time>
      </trkpt>
      <trkpt lat="37.83807269297540187835693359375" lon="-1.57919892109930515289306640625">
        <ele>872.79998779296875</ele>
        <time>2020-02-22T13:25:47.000Z</time>
      </trkpt>
      <trkpt lat="37.8380994312465190887451171875" lon="-1.5791564248502254486083984375">
        <ele>873.20001220703125</ele>
        <time>2020-02-22T13:25:49.000Z</time>
      </trkpt>
      <trkpt lat="37.8381693363189697265625" lon="-1.579040586948394775390625">
        <ele>874.20001220703125</ele>
        <time>2020-02-22T13:25:54.000Z</time>
      </trkpt>
      <trkpt lat="37.83823194913566112518310546875" lon="-1.578950397670269012451171875">
        <ele>875.4000244140625</ele>
        <time>2020-02-22T13:25:58.000Z</time>
      </trkpt>
      <trkpt lat="37.838276959955692291259765625" lon="-1.57887806184589862823486328125">
        <ele>876</ele>
        <time>2020-02-22T13:26:01.000Z</time>
      </trkpt>
      <trkpt lat="37.83833202905952930450439453125" lon="-1.5788395889103412628173828125">
        <ele>876.4000244140625</ele>
        <time>2020-02-22T13:26:03.000Z</time>
      </trkpt>
      <trkpt lat="37.83847049809992313385009765625" lon="-1.57879390753805637359619140625">
        <ele>877.20001220703125</ele>
        <time>2020-02-22T13:26:07.000Z</time>
      </trkpt>
      <trkpt lat="37.83848407678306102752685546875" lon="-1.57874797470867633819580078125">
        <ele>877.79998779296875</ele>
        <time>2020-02-22T13:26:09.000Z</time>
      </trkpt>
      <trkpt lat="37.838542163372039794921875" lon="-1.57871595583856105804443359375">
        <ele>879</ele>
        <time>2020-02-22T13:26:13.000Z</time>
      </trkpt>
      <trkpt lat="37.8385875932872295379638671875" lon="-1.57872769050300121307373046875">
        <ele>879.5999755859375</ele>
        <time>2020-02-22T13:26:15.000Z</time>
      </trkpt>
      <trkpt lat="37.8389087878167629241943359375" lon="-1.57872098498046398162841796875">
        <ele>882.79998779296875</ele>
        <time>2020-02-22T13:26:30.000Z</time>
      </trkpt>
      <trkpt lat="37.83897995017468929290771484375" lon="-1.5787276066839694976806640625">
        <ele>883</ele>
        <time>2020-02-22T13:26:31.000Z</time>
      </trkpt>
      <trkpt lat="37.8391961194574832916259765625" lon="-1.5787561051547527313232421875">
        <ele>884</ele>
        <time>2020-02-22T13:26:35.000Z</time>
      </trkpt>
      <trkpt lat="37.83931036479771137237548828125" lon="-1.57877462916076183319091796875">
        <ele>885</ele>
        <time>2020-02-22T13:26:37.000Z</time>
      </trkpt>
      <trkpt lat="37.83933768980205059051513671875" lon="-1.57877848483622074127197265625">
        <ele>885.20001220703125</ele>
        <time>2020-02-22T13:26:38.000Z</time>
      </trkpt>
      <trkpt lat="37.839501388370990753173828125" lon="-1.57875023782253265380859375">
        <ele>886.4000244140625</ele>
        <time>2020-02-22T13:26:44.000Z</time>
      </trkpt>
      <trkpt lat="37.83967740833759307861328125" lon="-1.57876675017178058624267578125">
        <ele>887.4000244140625</ele>
        <time>2020-02-22T13:26:50.000Z</time>
      </trkpt>
      <trkpt lat="37.83969827927649021148681640625" lon="-1.57878569327294826507568359375">
        <ele>887.5999755859375</ele>
        <time>2020-02-22T13:26:51.000Z</time>
      </trkpt>
      <trkpt lat="37.8397872112691402435302734375" lon="-1.57879105769097805023193359375">
        <ele>888.5999755859375</ele>
        <time>2020-02-22T13:26:55.000Z</time>
      </trkpt>
      <trkpt lat="37.83981311134994029998779296875" lon="-1.5787953324615955352783203125">
        <ele>888.79998779296875</ele>
        <time>2020-02-22T13:26:56.000Z</time>
      </trkpt>
      <trkpt lat="37.83989475108683109283447265625" lon="-1.578827686607837677001953125">
        <ele>889.79998779296875</ele>
        <time>2020-02-22T13:27:00.000Z</time>
      </trkpt>
      <trkpt lat="37.83991201780736446380615234375" lon="-1.57883229665458202362060546875">
        <ele>890</ele>
        <time>2020-02-22T13:27:01.000Z</time>
      </trkpt>
      <trkpt lat="37.83992693759500980377197265625" lon="-1.5788380801677703857421875">
        <ele>890.20001220703125</ele>
        <time>2020-02-22T13:27:02.000Z</time>
      </trkpt>
      <trkpt lat="37.84030462615191936492919921875" lon="-1.57905525527894496917724609375">
        <ele>892.20001220703125</ele>
        <time>2020-02-22T13:28:16.000Z</time>
      </trkpt>
      <trkpt lat="37.84036061726510524749755859375" lon="-1.57903597690165042877197265625">
        <ele>892.20001220703125</ele>
        <time>2020-02-22T13:28:19.000Z</time>
      </trkpt>
      <trkpt lat="37.8403954021632671356201171875" lon="-1.5790125913918018341064453125">
        <ele>892.4000244140625</ele>
        <time>2020-02-22T13:28:21.000Z</time>
      </trkpt>
      <trkpt lat="37.8404296003282070159912109375" lon="-1.57896406017243862152099609375">
        <ele>892.79998779296875</ele>
        <time>2020-02-22T13:28:24.000Z</time>
      </trkpt>
      <trkpt lat="37.84044720232486724853515625" lon="-1.578950397670269012451171875">
        <ele>893</ele>
        <time>2020-02-22T13:28:25.000Z</time>
      </trkpt>
      <trkpt lat="37.8404678218066692352294921875" lon="-1.578933633863925933837890625">
        <ele>893.20001220703125</ele>
        <time>2020-02-22T13:28:26.000Z</time>
      </trkpt>
      <trkpt lat="37.84050755202770233154296875" lon="-1.5789036266505718231201171875">
        <ele>893.79998779296875</ele>
        <time>2020-02-22T13:28:28.000Z</time>
      </trkpt>
      <trkpt lat="37.84052020870149135589599609375" lon="-1.5788895450532436370849609375">
        <ele>894</ele>
        <time>2020-02-22T13:28:29.000Z</time>
      </trkpt>
      <trkpt lat="37.84054644405841827392578125" lon="-1.57885476015508174896240234375">
        <ele>894.5999755859375</ele>
        <time>2020-02-22T13:28:31.000Z</time>
      </trkpt>
      <trkpt lat="37.8405801393091678619384765625" lon="-1.57882039435207843780517578125">
        <ele>895</ele>
        <time>2020-02-22T13:28:33.000Z</time>
      </trkpt>
      <trkpt lat="37.84064526669681072235107421875" lon="-1.57874495722353458404541015625">
        <ele>895.5999755859375</ele>
        <time>2020-02-22T13:28:36.000Z</time>
      </trkpt>
      <trkpt lat="37.84067342989146709442138671875" lon="-1.57872140407562255859375">
        <ele>895.79998779296875</ele>
        <time>2020-02-22T13:28:37.000Z</time>
      </trkpt>
      <trkpt lat="37.8407916985452175140380859375" lon="-1.5786675922572612762451171875">
        <ele>896.5999755859375</ele>
        <time>2020-02-22T13:28:41.000Z</time>
      </trkpt>
      <trkpt lat="37.8408631123602390289306640625" lon="-1.57865040935575962066650390625">
        <ele>897</ele>
        <time>2020-02-22T13:28:44.000Z</time>
      </trkpt>
      <trkpt lat="37.84089571796357631683349609375" lon="-1.578645966947078704833984375">
        <ele>897.4000244140625</ele>
        <time>2020-02-22T13:28:46.000Z</time>
      </trkpt>
      <trkpt lat="37.8409315086901187896728515625" lon="-1.57864739187061786651611328125">
        <ele>897.79998779296875</ele>
        <time>2020-02-22T13:28:48.000Z</time>
      </trkpt>
      <trkpt lat="37.840972580015659332275390625" lon="-1.57866130582988262176513671875">
        <ele>898.4000244140625</ele>
        <time>2020-02-22T13:28:50.000Z</time>
      </trkpt>
      <trkpt lat="37.84106804989278316497802734375" lon="-1.5787017904222011566162109375">
        <ele>899.20001220703125</ele>
        <time>2020-02-22T13:28:53.000Z</time>
      </trkpt>
      <trkpt lat="37.84119981341063976287841796875" lon="-1.57875183038413524627685546875">
        <ele>900.79998779296875</ele>
        <time>2020-02-22T13:28:57.000Z</time>
      </trkpt>
      <trkpt lat="37.84133970737457275390625" lon="-1.5787752158939838409423828125">
        <ele>901.79998779296875</ele>
        <time>2020-02-22T13:29:02.000Z</time>
      </trkpt>
      <trkpt lat="37.84136258997023105621337890625" lon="-1.5787805803120136260986328125">
        <ele>902</ele>
        <time>2020-02-22T13:29:03.000Z</time>
      </trkpt>
      <trkpt lat="37.84145965240895748138427734375" lon="-1.57871805131435394287109375">
        <ele>903</ele>
        <time>2020-02-22T13:29:07.000Z</time>
      </trkpt>
      <trkpt lat="37.841545231640338897705078125" lon="-1.57860548235476016998291015625">
        <ele>903.79998779296875</ele>
        <time>2020-02-22T13:29:13.000Z</time>
      </trkpt>
      <trkpt lat="37.8416067548096179962158203125" lon="-1.578554771840572357177734375">
        <ele>904</ele>
        <time>2020-02-22T13:29:16.000Z</time>
      </trkpt>
      <trkpt lat="37.841627709567546844482421875" lon="-1.5785512514412403106689453125">
        <ele>904.20001220703125</ele>
        <time>2020-02-22T13:29:17.000Z</time>
      </trkpt>
      <trkpt lat="37.8416479937732219696044921875" lon="-1.57855334691703319549560546875">
        <ele>904.4000244140625</ele>
        <time>2020-02-22T13:29:18.000Z</time>
      </trkpt>
      <trkpt lat="37.84173256717622280120849609375" lon="-1.57856675796210765838623046875">
        <ele>905</ele>
        <time>2020-02-22T13:29:21.000Z</time>
      </trkpt>
      <trkpt lat="37.84185427241027355194091796875" lon="-1.57864705659449100494384765625">
        <ele>906.20001220703125</ele>
        <time>2020-02-22T13:29:25.000Z</time>
      </trkpt>
      <trkpt lat="37.8418813459575176239013671875" lon="-1.57866750843822956085205078125">
        <ele>906.4000244140625</ele>
        <time>2020-02-22T13:29:26.000Z</time>
      </trkpt>
      <trkpt lat="37.84201788716018199920654296875" lon="-1.5787772275507450103759765625">
        <ele>907.20001220703125</ele>
        <time>2020-02-22T13:29:30.000Z</time>
      </trkpt>
      <trkpt lat="37.842082679271697998046875" lon="-1.57882492057979106903076171875">
        <ele>907.79998779296875</ele>
        <time>2020-02-22T13:29:32.000Z</time>
      </trkpt>
      <trkpt lat="37.84217077307403087615966796875" lon="-1.5788804925978183746337890625">
        <ele>908.5999755859375</ele>
        <time>2020-02-22T13:29:35.000Z</time>
      </trkpt>
      <trkpt lat="37.8422491438686847686767578125" lon="-1.5789284370839595794677734375">
        <ele>909.20001220703125</ele>
        <time>2020-02-22T13:29:38.000Z</time>
      </trkpt>
      <trkpt lat="37.84229901619255542755126953125" lon="-1.5789562650024890899658203125">
        <ele>909.5999755859375</ele>
        <time>2020-02-22T13:29:40.000Z</time>
      </trkpt>
      <trkpt lat="37.8423892892897129058837890625" lon="-1.57901150174438953399658203125">
        <ele>910.5999755859375</ele>
        <time>2020-02-22T13:29:44.000Z</time>
      </trkpt>
      <trkpt lat="37.84248794429004192352294921875" lon="-1.5790897049009799957275390625">
        <ele>911.5999755859375</ele>
        <time>2020-02-22T13:29:49.000Z</time>
      </trkpt>
      <trkpt lat="37.84251761622726917266845703125" lon="-1.57909682951867580413818359375">
        <ele>911.79998779296875</ele>
        <time>2020-02-22T13:29:50.000Z</time>
      </trkpt>
      <trkpt lat="37.84260797314345836639404296875" lon="-1.5791057981550693511962890625">
        <ele>912.79998779296875</ele>
        <time>2020-02-22T13:29:53.000Z</time>
      </trkpt>
      <trkpt lat="37.842758931219577789306640625" lon="-1.57914846204221248626708984375">
        <ele>914</ele>
        <time>2020-02-22T13:29:58.000Z</time>
      </trkpt>
      <trkpt lat="37.8429106436669826507568359375" lon="-1.57921568490564823150634765625">
        <ele>915</ele>
        <time>2020-02-22T13:30:03.000Z</time>
      </trkpt>
      <trkpt lat="37.8429374657571315765380859375" lon="-1.579241417348384857177734375">
        <ele>915.20001220703125</ele>
        <time>2020-02-22T13:30:04.000Z</time>
      </trkpt>
      <trkpt lat="37.84303595311939716339111328125" lon="-1.579354070127010345458984375">
        <ele>916.20001220703125</ele>
        <time>2020-02-22T13:30:08.000Z</time>
      </trkpt>
      <trkpt lat="37.8431220352649688720703125" lon="-1.57947367988526821136474609375">
        <ele>917</ele>
        <time>2020-02-22T13:30:12.000Z</time>
      </trkpt>
      <trkpt lat="37.84313217736780643463134765625" lon="-1.57951575703918933868408203125">
        <ele>917.4000244140625</ele>
        <time>2020-02-22T13:30:13.000Z</time>
      </trkpt>
      <trkpt lat="37.84311155788600444793701171875" lon="-1.57963679172098636627197265625">
        <ele>918.20001220703125</ele>
        <time>2020-02-22T13:30:16.000Z</time>
      </trkpt>
      <trkpt lat="37.843088842928409576416015625" lon="-1.57966126687824726104736328125">
        <ele>918.4000244140625</ele>
        <time>2020-02-22T13:30:17.000Z</time>
      </trkpt>
      <trkpt lat="37.842995636165142059326171875" lon="-1.579754054546356201171875">
        <ele>919.20001220703125</ele>
        <time>2020-02-22T13:30:21.000Z</time>
      </trkpt>
      <trkpt lat="37.84289832226932048797607421875" lon="-1.579840220510959625244140625">
        <ele>919.5999755859375</ele>
        <time>2020-02-22T13:30:25.000Z</time>
      </trkpt>
      <trkpt lat="37.84284702502191066741943359375" lon="-1.5798715688288211822509765625">
        <ele>920</ele>
        <time>2020-02-22T13:30:27.000Z</time>
      </trkpt>
      <trkpt lat="37.8427684865891933441162109375" lon="-1.579915322363376617431640625">
        <ele>920.79998779296875</ele>
        <time>2020-02-22T13:30:30.000Z</time>
      </trkpt>
      <trkpt lat="37.84267268143594264984130859375" lon="-1.57997491769492626190185546875">
        <ele>921.5999755859375</ele>
        <time>2020-02-22T13:30:34.000Z</time>
      </trkpt>
      <trkpt lat="37.84263747744262218475341796875" lon="-1.57999000512063503265380859375">
        <ele>921.79998779296875</ele>
        <time>2020-02-22T13:30:35.000Z</time>
      </trkpt>
      <trkpt lat="37.842512838542461395263671875" lon="-1.5800772607326507568359375">
        <ele>922.79998779296875</ele>
        <time>2020-02-22T13:30:40.000Z</time>
      </trkpt>
      <trkpt lat="37.84249129705131053924560546875" lon="-1.58010031096637248992919921875">
        <ele>923</ele>
        <time>2020-02-22T13:30:41.000Z</time>
      </trkpt>
      <trkpt lat="37.84237797372043132781982421875" lon="-1.58018781803548336029052734375">
        <ele>923.79998779296875</ele>
        <time>2020-02-22T13:30:45.000Z</time>
      </trkpt>
      <trkpt lat="37.84226381219923496246337890625" lon="-1.58028571866452693939208984375">
        <ele>924.79998779296875</ele>
        <time>2020-02-22T13:30:49.000Z</time>
      </trkpt>
      <trkpt lat="37.8421576134860515594482421875" lon="-1.58036291599273681640625">
        <ele>926</ele>
        <time>2020-02-22T13:30:54.000Z</time>
      </trkpt>
      <trkpt lat="37.84213053993880748748779296875" lon="-1.58037171699106693267822265625">
        <ele>926.4000244140625</ele>
        <time>2020-02-22T13:30:55.000Z</time>
      </trkpt>
      <trkpt lat="37.84203364513814449310302734375" lon="-1.5803751535713672637939453125">
        <ele>927.20001220703125</ele>
        <time>2020-02-22T13:30:58.000Z</time>
      </trkpt>
      <trkpt lat="37.84197916276752948760986328125" lon="-1.58037205226719379425048828125">
        <ele>927.79998779296875</ele>
        <time>2020-02-22T13:31:00.000Z</time>
      </trkpt>
      <trkpt lat="37.84193272702395915985107421875" lon="-1.58036165870726108551025390625">
        <ele>928.5999755859375</ele>
        <time>2020-02-22T13:31:02.000Z</time>
      </trkpt>
      <trkpt lat="37.8418538533151149749755859375" lon="-1.58034145832061767578125">
        <ele>929.4000244140625</ele>
        <time>2020-02-22T13:31:06.000Z</time>
      </trkpt>
      <trkpt lat="37.8418377600610256195068359375" lon="-1.58033885993063449859619140625">
        <ele>929.5999755859375</ele>
        <time>2020-02-22T13:31:07.000Z</time>
      </trkpt>
      <trkpt lat="37.84178964793682098388671875" lon="-1.580317318439483642578125">
        <ele>930.20001220703125</ele>
        <time>2020-02-22T13:31:09.000Z</time>
      </trkpt>
      <trkpt lat="37.84175083972513675689697265625" lon="-1.5802980400621891021728515625">
        <ele>930.5999755859375</ele>
        <time>2020-02-22T13:31:11.000Z</time>
      </trkpt>
      <trkpt lat="37.84172737039625644683837890625" lon="-1.580285131931304931640625">
        <ele>930.5999755859375</ele>
        <time>2020-02-22T13:31:12.000Z</time>
      </trkpt>
      <trkpt lat="37.8416248597204685211181640625" lon="-1.580235846340656280517578125">
        <ele>931.5999755859375</ele>
        <time>2020-02-22T13:31:17.000Z</time>
      </trkpt>
      <trkpt lat="37.84158705733716487884521484375" lon="-1.580198295414447784423828125">
        <ele>932.20001220703125</ele>
        <time>2020-02-22T13:31:19.000Z</time>
      </trkpt>
      <trkpt lat="37.84154213033616542816162109375" lon="-1.58015697263181209564208984375">
        <ele>932.79998779296875</ele>
        <time>2020-02-22T13:31:21.000Z</time>
      </trkpt>
      <trkpt lat="37.84143199212849140167236328125" lon="-1.58006594516336917877197265625">
        <ele>933.79998779296875</ele>
        <time>2020-02-22T13:31:26.000Z</time>
      </trkpt>
      <trkpt lat="37.84141321666538715362548828125" lon="-1.5800516121089458465576171875">
        <ele>934</ele>
        <time>2020-02-22T13:31:27.000Z</time>
      </trkpt>
      <trkpt lat="37.84130743704736232757568359375" lon="-1.57993770204484462738037109375">
        <ele>935</ele>
        <time>2020-02-22T13:31:33.000Z</time>
      </trkpt>
      <trkpt lat="37.84121959470212459564208984375" lon="-1.57989478670060634613037109375">
        <ele>935.20001220703125</ele>
        <time>2020-02-22T13:31:36.000Z</time>
      </trkpt>
      <trkpt lat="37.8410988114774227142333984375" lon="-1.57987483777105808258056640625">
        <ele>935.79998779296875</ele>
        <time>2020-02-22T13:31:40.000Z</time>
      </trkpt>
      <trkpt lat="37.84105681814253330230712890625" lon="-1.57989864237606525421142578125">
        <ele>936</ele>
        <time>2020-02-22T13:31:41.000Z</time>
      </trkpt>
      <trkpt lat="37.84104072488844394683837890625" lon="-1.57994876615703105926513671875">
        <ele>936.20001220703125</ele>
        <time>2020-02-22T13:31:43.000Z</time>
      </trkpt>
      <trkpt lat="37.841047681868076324462890625" lon="-1.58001045696437358856201171875">
        <ele>937.20001220703125</ele>
        <time>2020-02-22T13:31:46.000Z</time>
      </trkpt>
      <trkpt lat="37.8410860709846019744873046875" lon="-1.58007935620844364166259765625">
        <ele>937.79998779296875</ele>
        <time>2020-02-22T13:31:49.000Z</time>
      </trkpt>
      <trkpt lat="37.84110794775187969207763671875" lon="-1.5801174938678741455078125">
        <ele>938.4000244140625</ele>
        <time>2020-02-22T13:31:51.000Z</time>
      </trkpt>
      <trkpt lat="37.84117081202566623687744140625" lon="-1.580185554921627044677734375">
        <ele>939.5999755859375</ele>
        <time>2020-02-22T13:31:55.000Z</time>
      </trkpt>
      <trkpt lat="37.8411908447742462158203125" lon="-1.5802024863660335540771484375">
        <ele>939.79998779296875</ele>
        <time>2020-02-22T13:31:56.000Z</time>
      </trkpt>
      <trkpt lat="37.8412724845111370086669921875" lon="-1.58026291988790035247802734375">
        <ele>940.79998779296875</ele>
        <time>2020-02-22T13:32:00.000Z</time>
      </trkpt>
      <trkpt lat="37.8413663618266582489013671875" lon="-1.58034958876669406890869140625">
        <ele>942</ele>
        <time>2020-02-22T13:32:05.000Z</time>
      </trkpt>
      <trkpt lat="37.84138136543333530426025390625" lon="-1.58036869950592517852783203125">
        <ele>942</ele>
        <time>2020-02-22T13:32:06.000Z</time>
      </trkpt>
      <trkpt lat="37.8414823673665523529052734375" lon="-1.5804764069616794586181640625">
        <ele>943.20001220703125</ele>
        <time>2020-02-22T13:32:12.000Z</time>
      </trkpt>
      <trkpt lat="37.84151614643633365631103515625" lon="-1.58051538281142711639404296875">
        <ele>943.4000244140625</ele>
        <time>2020-02-22T13:32:14.000Z</time>
      </trkpt>
      <trkpt lat="37.841542549431324005126953125" lon="-1.5805541910231113433837890625">
        <ele>944.4000244140625</ele>
        <time>2020-02-22T13:32:16.000Z</time>
      </trkpt>
      <trkpt lat="37.841606922447681427001953125" lon="-1.58063926734030246734619140625">
        <ele>945.20001220703125</ele>
        <time>2020-02-22T13:32:21.000Z</time>
      </trkpt>
      <trkpt lat="37.84162309952080249786376953125" lon="-1.58065619878470897674560546875">
        <ele>945.4000244140625</ele>
        <time>2020-02-22T13:32:22.000Z</time>
      </trkpt>
      <trkpt lat="37.8417006321251392364501953125" lon="-1.58076499588787555694580078125">
        <ele>946.5999755859375</ele>
        <time>2020-02-22T13:32:27.000Z</time>
      </trkpt>
      <trkpt lat="37.84176995046436786651611328125" lon="-1.5809022076427936553955078125">
        <ele>947.5999755859375</ele>
        <time>2020-02-22T13:32:33.000Z</time>
      </trkpt>
      <trkpt lat="37.84178964793682098388671875" lon="-1.580955684185028076171875">
        <ele>948.20001220703125</ele>
        <time>2020-02-22T13:32:35.000Z</time>
      </trkpt>
      <trkpt lat="37.84181873314082622528076171875" lon="-1.58103791065514087677001953125">
        <ele>948.79998779296875</ele>
        <time>2020-02-22T13:32:38.000Z</time>
      </trkpt>
      <trkpt lat="37.84185695461928844451904296875" lon="-1.58110949210822582244873046875">
        <ele>949.4000244140625</ele>
        <time>2020-02-22T13:32:41.000Z</time>
      </trkpt>
      <trkpt lat="37.84188193269073963165283203125" lon="-1.5811556763947010040283203125">
        <ele>950</ele>
        <time>2020-02-22T13:32:43.000Z</time>
      </trkpt>
      <trkpt lat="37.84195317886769771575927734375" lon="-1.581280566751956939697265625">
        <ele>951</ele>
        <time>2020-02-22T13:32:48.000Z</time>
      </trkpt>
      <trkpt lat="37.84197463653981685638427734375" lon="-1.58130009658634662628173828125">
        <ele>951.20001220703125</ele>
        <time>2020-02-22T13:32:50.000Z</time>
      </trkpt>
      <trkpt lat="37.8419812582433223724365234375" lon="-1.58130696974694728851318359375">
        <ele>951.4000244140625</ele>
        <time>2020-02-22T13:32:51.000Z</time>
      </trkpt>
      <trkpt lat="37.84209600649774074554443359375" lon="-1.58131577074527740478515625">
        <ele>953.20001220703125</ele>
        <time>2020-02-22T13:33:00.000Z</time>
      </trkpt>
      <trkpt lat="37.84210623241961002349853515625" lon="-1.58131820149719715118408203125">
        <ele>953.20001220703125</ele>
        <time>2020-02-22T13:33:01.000Z</time>
      </trkpt>
      <trkpt lat="37.84215350635349750518798828125" lon="-1.581328846514225006103515625">
        <ele>953.79998779296875</ele>
        <time>2020-02-22T13:33:06.000Z</time>
      </trkpt>
      <trkpt lat="37.84221285022795200347900390625" lon="-1.58128802664577960968017578125">
        <ele>955.4000244140625</ele>
        <time>2020-02-22T13:33:11.000Z</time>
      </trkpt>
      <trkpt lat="37.84224755130708217620849609375" lon="-1.5812582708895206451416015625">
        <ele>956</ele>
        <time>2020-02-22T13:33:13.000Z</time>
      </trkpt>
      <trkpt lat="37.842295579612255096435546875" lon="-1.58122985623776912689208984375">
        <ele>956.5999755859375</ele>
        <time>2020-02-22T13:33:15.000Z</time>
      </trkpt>
      <trkpt lat="37.84259456209838390350341796875" lon="-1.58121007494628429412841796875">
        <ele>957.4000244140625</ele>
        <time>2020-02-22T13:33:20.000Z</time>
      </trkpt>
      <trkpt lat="37.84267201088368892669677734375" lon="-1.58120068721473217010498046875">
        <ele>957.4000244140625</ele>
        <time>2020-02-22T13:33:22.000Z</time>
      </trkpt>
      <trkpt lat="37.84270763397216796875" lon="-1.58119582571089267730712890625">
        <ele>957.79998779296875</ele>
        <time>2020-02-22T13:33:23.000Z</time>
      </trkpt>
      <trkpt lat="37.84274476580321788787841796875" lon="-1.58120035193860530853271484375">
        <ele>957.79998779296875</ele>
        <time>2020-02-22T13:33:24.000Z</time>
      </trkpt>
      <trkpt lat="37.84283763729035854339599609375" lon="-1.58124242909252643585205078125">
        <ele>958.5999755859375</ele>
        <time>2020-02-22T13:33:27.000Z</time>
      </trkpt>
      <trkpt lat="37.84285775385797023773193359375" lon="-1.5812726877629756927490234375">
        <ele>958.79998779296875</ele>
        <time>2020-02-22T13:33:28.000Z</time>
      </trkpt>
      <trkpt lat="37.8428457677364349365234375" lon="-1.58138475380837917327880859375">
        <ele>959.5999755859375</ele>
        <time>2020-02-22T13:33:32.000Z</time>
      </trkpt>
      <trkpt lat="37.8428372181951999664306640625" lon="-1.581407301127910614013671875">
        <ele>959.5999755859375</ele>
        <time>2020-02-22T13:33:33.000Z</time>
      </trkpt>
      <trkpt lat="37.8427460230886936187744140625" lon="-1.58149975351989269256591796875">
        <ele>960.79998779296875</ele>
        <time>2020-02-22T13:33:39.000Z</time>
      </trkpt>
      <trkpt lat="37.84264049492776393890380859375" lon="-1.5815841592848300933837890625">
        <ele>962</ele>
        <time>2020-02-22T13:33:45.000Z</time>
      </trkpt>
      <trkpt lat="37.8425498865544795989990234375" lon="-1.58165750093758106231689453125">
        <ele>963.20001220703125</ele>
        <time>2020-02-22T13:33:50.000Z</time>
      </trkpt>
      <trkpt lat="37.8425063006579875946044921875" lon="-1.58167879097163677215576171875">
        <ele>963.5999755859375</ele>
        <time>2020-02-22T13:33:52.000Z</time>
      </trkpt>
      <trkpt lat="37.8424380719661712646484375" lon="-1.58171751536428928375244140625">
        <ele>964.20001220703125</ele>
        <time>2020-02-22T13:33:55.000Z</time>
      </trkpt>
      <trkpt lat="37.842321060597896575927734375" lon="-1.58176428638398647308349609375">
        <ele>965.4000244140625</ele>
        <time>2020-02-22T13:34:00.000Z</time>
      </trkpt>
      <trkpt lat="37.84215417690575122833251953125" lon="-1.5818071179091930389404296875">
        <ele>966.4000244140625</ele>
        <time>2020-02-22T13:34:05.000Z</time>
      </trkpt>
      <trkpt lat="37.84202056936919689178466796875" lon="-1.58183477818965911865234375">
        <ele>967.4000244140625</ele>
        <time>2020-02-22T13:34:09.000Z</time>
      </trkpt>
      <trkpt lat="37.84185645170509815216064453125" lon="-1.58186268992722034454345703125">
        <ele>968.5999755859375</ele>
        <time>2020-02-22T13:34:14.000Z</time>
      </trkpt>
      <trkpt lat="37.84182745032012462615966796875" lon="-1.58186235465109348297119140625">
        <ele>968.5999755859375</ele>
        <time>2020-02-22T13:34:15.000Z</time>
      </trkpt>
      <trkpt lat="37.84172552637755870819091796875" lon="-1.5818406455218791961669921875">
        <ele>969.5999755859375</ele>
        <time>2020-02-22T13:34:19.000Z</time>
      </trkpt>
      <trkpt lat="37.84166266210377216339111328125" lon="-1.5818051062524318695068359375">
        <ele>970.4000244140625</ele>
        <time>2020-02-22T13:34:22.000Z</time>
      </trkpt>
      <trkpt lat="37.84163701348006725311279296875" lon="-1.58179379068315029144287109375">
        <ele>970.79998779296875</ele>
        <time>2020-02-22T13:34:23.000Z</time>
      </trkpt>
      <trkpt lat="37.841612286865711212158203125" lon="-1.58174383454024791717529296875">
        <ele>971.20001220703125</ele>
        <time>2020-02-22T13:34:27.000Z</time>
      </trkpt>
      <trkpt lat="37.84159627743065357208251953125" lon="-1.5817118994891643524169921875">
        <ele>971.5999755859375</ele>
        <time>2020-02-22T13:34:29.000Z</time>
      </trkpt>
      <trkpt lat="37.841566018760204315185546875" lon="-1.58164031803607940673828125">
        <ele>972.4000244140625</ele>
        <time>2020-02-22T13:34:33.000Z</time>
      </trkpt>
      <trkpt lat="37.84155227243900299072265625" lon="-1.581622548401355743408203125">
        <ele>972.5999755859375</ele>
        <time>2020-02-22T13:34:34.000Z</time>
      </trkpt>
      <trkpt lat="37.84149619750678539276123046875" lon="-1.58155255950987339019775390625">
        <ele>973.5999755859375</ele>
        <time>2020-02-22T13:34:38.000Z</time>
      </trkpt>
      <trkpt lat="37.84146350808441638946533203125" lon="-1.58149086870253086090087890625">
        <ele>974.4000244140625</ele>
        <time>2020-02-22T13:34:41.000Z</time>
      </trkpt>
      <trkpt lat="37.84144355915486812591552734375" lon="-1.58144946210086345672607421875">
        <ele>974.79998779296875</ele>
        <time>2020-02-22T13:34:43.000Z</time>
      </trkpt>
      <trkpt lat="37.84141170792281627655029296875" lon="-1.581408642232418060302734375">
        <ele>975.5999755859375</ele>
        <time>2020-02-22T13:34:46.000Z</time>
      </trkpt>
      <trkpt lat="37.84135739319026470184326171875" lon="-1.58136866055428981781005859375">
        <ele>976</ele>
        <time>2020-02-22T13:34:49.000Z</time>
      </trkpt>
      <trkpt lat="37.84129302017390727996826171875" lon="-1.581309735774993896484375">
        <ele>976.79998779296875</ele>
        <time>2020-02-22T13:34:53.000Z</time>
      </trkpt>
      <trkpt lat="37.84126535989344120025634765625" lon="-1.58128559589385986328125">
        <ele>977.20001220703125</ele>
        <time>2020-02-22T13:34:55.000Z</time>
      </trkpt>
      <trkpt lat="37.84121967852115631103515625" lon="-1.58125449903309345245361328125">
        <ele>977.5999755859375</ele>
        <time>2020-02-22T13:34:58.000Z</time>
      </trkpt>
      <trkpt lat="37.8411665372550487518310546875" lon="-1.581231616437435150146484375">
        <ele>978.20001220703125</ele>
        <time>2020-02-22T13:35:00.000Z</time>
      </trkpt>
      <trkpt lat="37.8411316685378551483154296875" lon="-1.5812153555452823638916015625">
        <ele>978.20001220703125</ele>
        <time>2020-02-22T13:35:01.000Z</time>
      </trkpt>
      <trkpt lat="37.84098339267075061798095703125" lon="-1.58115458674728870391845703125">
        <ele>979.20001220703125</ele>
        <time>2020-02-22T13:35:07.000Z</time>
      </trkpt>
      <trkpt lat="37.84089236520230770111083984375" lon="-1.58115492202341556549072265625">
        <ele>979.79998779296875</ele>
        <time>2020-02-22T13:35:11.000Z</time>
      </trkpt>
      <trkpt lat="37.84085196442902088165283203125" lon="-1.58115240745246410369873046875">
        <ele>980.20001220703125</ele>
        <time>2020-02-22T13:35:13.000Z</time>
      </trkpt>
      <trkpt lat="37.84081424586474895477294921875" lon="-1.58115006051957607269287109375">
        <ele>980.5999755859375</ele>
        <time>2020-02-22T13:35:15.000Z</time>
      </trkpt>
      <trkpt lat="37.840730510652065277099609375" lon="-1.5811580233275890350341796875">
        <ele>981.4000244140625</ele>
        <time>2020-02-22T13:35:19.000Z</time>
      </trkpt>
      <trkpt lat="37.8406857512891292572021484375" lon="-1.58115240745246410369873046875">
        <ele>981.79998779296875</ele>
        <time>2020-02-22T13:35:21.000Z</time>
      </trkpt>
      <trkpt lat="37.8405891917645931243896484375" lon="-1.58115240745246410369873046875">
        <ele>982.4000244140625</ele>
        <time>2020-02-22T13:35:25.000Z</time>
      </trkpt>
      <trkpt lat="37.840523310005664825439453125" lon="-1.58116011880338191986083984375">
        <ele>983</ele>
        <time>2020-02-22T13:35:28.000Z</time>
      </trkpt>
      <trkpt lat="37.84041912294924259185791015625" lon="-1.5811824984848499298095703125">
        <ele>983.4000244140625</ele>
        <time>2020-02-22T13:35:32.000Z</time>
      </trkpt>
      <trkpt lat="37.84033983014523983001708984375" lon="-1.581193394958972930908203125">
        <ele>983.5999755859375</ele>
        <time>2020-02-22T13:35:34.000Z</time>
      </trkpt>
      <trkpt lat="37.84025005996227264404296875" lon="-1.58127914182841777801513671875">
        <ele>984.4000244140625</ele>
        <time>2020-02-22T13:35:38.000Z</time>
      </trkpt>
      <trkpt lat="37.8402574360370635986328125" lon="-1.5813031978905200958251953125">
        <ele>984.5999755859375</ele>
        <time>2020-02-22T13:35:39.000Z</time>
      </trkpt>
      <trkpt lat="37.8402815759181976318359375" lon="-1.58134183846414089202880859375">
        <ele>985.4000244140625</ele>
        <time>2020-02-22T13:35:43.000Z</time>
      </trkpt>
      <trkpt lat="37.840308062732219696044921875" lon="-1.58132675103843212127685546875">
        <ele>985.5999755859375</ele>
        <time>2020-02-22T13:35:45.000Z</time>
      </trkpt>
      <trkpt lat="37.84036346711218357086181640625" lon="-1.58131350763142108917236328125">
        <ele>986.5999755859375</ele>
        <time>2020-02-22T13:35:49.000Z</time>
      </trkpt>
      <trkpt lat="37.84039397723972797393798828125" lon="-1.5813110768795013427734375">
        <ele>987</ele>
        <time>2020-02-22T13:35:50.000Z</time>
      </trkpt>
      <trkpt lat="37.840465642511844635009765625" lon="-1.581304371356964111328125">
        <ele>988.20001220703125</ele>
        <time>2020-02-22T13:35:55.000Z</time>
      </trkpt>
      <trkpt lat="37.8405020199716091156005859375" lon="-1.581296660006046295166015625">
        <ele>988.5999755859375</ele>
        <time>2020-02-22T13:35:57.000Z</time>
      </trkpt>
      <trkpt lat="37.8405442647635936737060546875" lon="-1.5812981687486171722412109375">
        <ele>989.20001220703125</ele>
        <time>2020-02-22T13:36:00.000Z</time>
      </trkpt>
      <trkpt lat="37.840554155409336090087890625" lon="-1.58129842020571231842041015625">
        <ele>989.5999755859375</ele>
        <time>2020-02-22T13:36:01.000Z</time>
      </trkpt>
      <trkpt lat="37.8405942209064960479736328125" lon="-1.5813015215098857879638671875">
        <ele>990.4000244140625</ele>
        <time>2020-02-22T13:36:04.000Z</time>
      </trkpt>
      <trkpt lat="37.8406371362507343292236328125" lon="-1.5813068859279155731201171875">
        <ele>990.5999755859375</ele>
        <time>2020-02-22T13:36:06.000Z</time>
      </trkpt>
      <trkpt lat="37.8407866694033145904541015625" lon="-1.58135005272924900054931640625">
        <ele>991.79998779296875</ele>
        <time>2020-02-22T13:36:12.000Z</time>
      </trkpt>
      <trkpt lat="37.840941734611988067626953125" lon="-1.58146329224109649658203125">
        <ele>993.20001220703125</ele>
        <time>2020-02-22T13:36:18.000Z</time>
      </trkpt>
      <trkpt lat="37.8410245478153228759765625" lon="-1.58159413374960422515869140625">
        <ele>994.4000244140625</ele>
        <time>2020-02-22T13:36:24.000Z</time>
      </trkpt>
      <trkpt lat="37.8410491906106472015380859375" lon="-1.5816036053001880645751953125">
        <ele>994.5999755859375</ele>
        <time>2020-02-22T13:36:25.000Z</time>
      </trkpt>
      <trkpt lat="37.8411071933805942535400390625" lon="-1.58169664442539215087890625">
        <ele>995.4000244140625</ele>
        <time>2020-02-22T13:36:29.000Z</time>
      </trkpt>
      <trkpt lat="37.8411745838820934295654296875" lon="-1.58183067105710506439208984375">
        <ele>996.4000244140625</ele>
        <time>2020-02-22T13:36:34.000Z</time>
      </trkpt>
      <trkpt lat="37.841262929141521453857421875" lon="-1.58198037184774875640869140625">
        <ele>997.5999755859375</ele>
        <time>2020-02-22T13:36:40.000Z</time>
      </trkpt>
      <trkpt lat="37.8412949480116367340087890625" lon="-1.5820602513849735260009765625">
        <ele>998</ele>
        <time>2020-02-22T13:36:43.000Z</time>
      </trkpt>
      <trkpt lat="37.84132889471948146820068359375" lon="-1.5821276418864727020263671875">
        <ele>998.5999755859375</ele>
        <time>2020-02-22T13:36:45.000Z</time>
      </trkpt>
      <trkpt lat="37.84141439013183116912841796875" lon="-1.58226527273654937744140625">
        <ele>999.20001220703125</ele>
        <time>2020-02-22T13:36:49.000Z</time>
      </trkpt>
      <trkpt lat="37.8414662741124629974365234375" lon="-1.582307852804660797119140625">
        <ele>999.79998779296875</ele>
        <time>2020-02-22T13:36:51.000Z</time>
      </trkpt>
      <trkpt lat="37.84152871929109096527099609375" lon="-1.5823522768914699554443359375">
        <ele>1000.5999755859375</ele>
        <time>2020-02-22T13:36:55.000Z</time>
      </trkpt>
      <trkpt lat="37.8415413759648799896240234375" lon="-1.58235470764338970184326171875">
        <ele>1001</ele>
        <time>2020-02-22T13:36:56.000Z</time>
      </trkpt>
      <trkpt lat="37.8416000492870807647705078125" lon="-1.58239862881600856781005859375">
        <ele>1002</ele>
        <time>2020-02-22T13:37:01.000Z</time>
      </trkpt>
      <trkpt lat="37.8416097722947597503662109375" lon="-1.58240784890949726104736328125">
        <ele>1002.4000244140625</ele>
        <time>2020-02-22T13:37:02.000Z</time>
      </trkpt>
      <trkpt lat="37.84166685305535793304443359375" lon="-1.582447327673435211181640625">
        <ele>1003.20001220703125</ele>
        <time>2020-02-22T13:37:06.000Z</time>
      </trkpt>
      <trkpt lat="37.84174631349742412567138671875" lon="-1.58250264823436737060546875">
        <ele>1003.79998779296875</ele>
        <time>2020-02-22T13:37:10.000Z</time>
      </trkpt>
      <trkpt lat="37.84179442562162876129150390625" lon="-1.58253944478929042816162109375">
        <ele>1004.4000244140625</ele>
        <time>2020-02-22T13:37:12.000Z</time>
      </trkpt>
      <trkpt lat="37.8418635763227939605712890625" lon="-1.582624018192291259765625">
        <ele>1005.20001220703125</ele>
        <time>2020-02-22T13:37:16.000Z</time>
      </trkpt>
      <trkpt lat="37.8418887220323085784912109375" lon="-1.5826587192714214324951171875">
        <ele>1005.5999755859375</ele>
        <time>2020-02-22T13:37:18.000Z</time>
      </trkpt>
      <trkpt lat="37.8419732116162776947021484375" lon="-1.582714878022670745849609375">
        <ele>1006.4000244140625</ele>
        <time>2020-02-22T13:37:22.000Z</time>
      </trkpt>
      <trkpt lat="37.84198067151010036468505859375" lon="-1.58272393047809600830078125">
        <ele>1006.5999755859375</ele>
        <time>2020-02-22T13:37:23.000Z</time>
      </trkpt>
      <trkpt lat="37.8419859521090984344482421875" lon="-1.58272921107709407806396484375">
        <ele>1007.20001220703125</ele>
        <time>2020-02-22T13:37:25.000Z</time>
      </trkpt>
      <trkpt lat="37.8420369140803813934326171875" lon="-1.582710184156894683837890625">
        <ele>1008.4000244140625</ele>
        <time>2020-02-22T13:37:29.000Z</time>
      </trkpt>
      <trkpt lat="37.842107154428958892822265625" lon="-1.58264815807342529296875">
        <ele>1009.20001220703125</ele>
        <time>2020-02-22T13:37:33.000Z</time>
      </trkpt>
      <trkpt lat="37.842138670384883880615234375" lon="-1.5826320648193359375">
        <ele>1009.4000244140625</ele>
        <time>2020-02-22T13:37:34.000Z</time>
      </trkpt>
      <trkpt lat="37.8421753831207752227783203125" lon="-1.58261907286942005157470703125">
        <ele>1009.5999755859375</ele>
        <time>2020-02-22T13:37:35.000Z</time>
      </trkpt>
      <trkpt lat="37.8422015346586704254150390625" lon="-1.58260717056691646575927734375">
        <ele>1009.79998779296875</ele>
        <time>2020-02-22T13:37:36.000Z</time>
      </trkpt>
      <trkpt lat="37.84228158183395862579345703125" lon="-1.58256459049880504608154296875">
        <ele>1010.5999755859375</ele>
        <time>2020-02-22T13:37:39.000Z</time>
      </trkpt>
      <trkpt lat="37.8425099886953830718994140625" lon="-1.58253391273319721221923828125">
        <ele>1011.5999755859375</ele>
        <time>2020-02-22T13:37:45.000Z</time>
      </trkpt>
      <trkpt lat="37.84262691624462604522705078125" lon="-1.582535840570926666259765625">
        <ele>1013</ele>
        <time>2020-02-22T13:37:50.000Z</time>
      </trkpt>
      <trkpt lat="37.8426655568182468414306640625" lon="-1.58254732377827167510986328125">
        <ele>1013.20001220703125</ele>
        <time>2020-02-22T13:37:52.000Z</time>
      </trkpt>
      <trkpt lat="37.8427111543715000152587890625" lon="-1.5825618244707584381103515625">
        <ele>1014</ele>
        <time>2020-02-22T13:37:55.000Z</time>
      </trkpt>
      <trkpt lat="37.842769660055637359619140625" lon="-1.58257816918194293975830078125">
        <ele>1015</ele>
        <time>2020-02-22T13:37:58.000Z</time>
      </trkpt>
      <trkpt lat="37.842787094414234161376953125" lon="-1.58258847892284393310546875">
        <ele>1015.20001220703125</ele>
        <time>2020-02-22T13:37:59.000Z</time>
      </trkpt>
      <trkpt lat="37.842876948416233062744140625" lon="-1.58262661658227443695068359375">
        <ele>1016.20001220703125</ele>
        <time>2020-02-22T13:38:04.000Z</time>
      </trkpt>
      <trkpt lat="37.84288994036614894866943359375" lon="-1.58262896351516246795654296875">
        <ele>1016.4000244140625</ele>
        <time>2020-02-22T13:38:05.000Z</time>
      </trkpt>
      <trkpt lat="37.84295129589736461639404296875" lon="-1.582618653774261474609375">
        <ele>1017</ele>
        <time>2020-02-22T13:38:08.000Z</time>
      </trkpt>
      <trkpt lat="37.84298012964427471160888671875" lon="-1.58261127769947052001953125">
        <ele>1017.20001220703125</ele>
        <time>2020-02-22T13:38:09.000Z</time>
      </trkpt>
      <trkpt lat="37.84304232336580753326416015625" lon="-1.58258940093219280242919921875">
        <ele>1017.5999755859375</ele>
        <time>2020-02-22T13:38:11.000Z</time>
      </trkpt>
      <trkpt lat="37.84325472079217433929443359375" lon="-1.5825450606644153594970703125">
        <ele>1018.4000244140625</ele>
        <time>2020-02-22T13:38:16.000Z</time>
      </trkpt>
      <trkpt lat="37.8433312475681304931640625" lon="-1.58254313282668590545654296875">
        <ele>1018.79998779296875</ele>
        <time>2020-02-22T13:38:18.000Z</time>
      </trkpt>
      <trkpt lat="37.8434172458946704864501953125" lon="-1.58255419693887233734130859375">
        <ele>1019.20001220703125</ele>
        <time>2020-02-22T13:38:21.000Z</time>
      </trkpt>
      <trkpt lat="37.84349360503256320953369140625" lon="-1.582564003765583038330078125">
        <ele>1020</ele>
        <time>2020-02-22T13:38:24.000Z</time>
      </trkpt>
      <trkpt lat="37.84359033219516277313232421875" lon="-1.58259116113185882568359375">
        <ele>1021</ele>
        <time>2020-02-22T13:38:28.000Z</time>
      </trkpt>
      <trkpt lat="37.8436163999140262603759765625" lon="-1.5826033987104892730712890625">
        <ele>1021.20001220703125</ele>
        <time>2020-02-22T13:38:29.000Z</time>
      </trkpt>
      <trkpt lat="37.84370181150734424591064453125" lon="-1.582680009305477142333984375">
        <ele>1022.20001220703125</ele>
        <time>2020-02-22T13:38:33.000Z</time>
      </trkpt>
      <trkpt lat="37.84375612623989582061767578125" lon="-1.5827395208179950714111328125">
        <ele>1022.79998779296875</ele>
        <time>2020-02-22T13:38:36.000Z</time>
      </trkpt>
      <trkpt lat="37.84378747455775737762451171875" lon="-1.582776568830013275146484375">
        <ele>1023.20001220703125</ele>
        <time>2020-02-22T13:38:38.000Z</time>
      </trkpt>
      <trkpt lat="37.84385897219181060791015625" lon="-1.5828568674623966217041015625">
        <ele>1024</ele>
        <time>2020-02-22T13:38:42.000Z</time>
      </trkpt>
      <trkpt lat="37.84389828331768512725830078125" lon="-1.58289433456957340240478515625">
        <ele>1024.4000244140625</ele>
        <time>2020-02-22T13:38:44.000Z</time>
      </trkpt>
      <trkpt lat="37.84401026554405689239501953125" lon="-1.582975722849369049072265625">
        <ele>1025.4000244140625</ele>
        <time>2020-02-22T13:38:49.000Z</time>
      </trkpt>
      <trkpt lat="37.84403197467327117919921875" lon="-1.58299709670245647430419921875">
        <ele>1025.4000244140625</ele>
        <time>2020-02-22T13:38:50.000Z</time>
      </trkpt>
      <trkpt lat="37.8441307134926319122314453125" lon="-1.583096086978912353515625">
        <ele>1026.4000244140625</ele>
        <time>2020-02-22T13:38:55.000Z</time>
      </trkpt>
      <trkpt lat="37.84418997354805469512939453125" lon="-1.58315719105303287506103515625">
        <ele>1027.199951171875</ele>
        <time>2020-02-22T13:38:58.000Z</time>
      </trkpt>
      <trkpt lat="37.84424026496708393096923828125" lon="-1.58323128707706928253173828125">
        <ele>1027.5999755859375</ele>
        <time>2020-02-22T13:39:01.000Z</time>
      </trkpt>
      <trkpt lat="37.84429055638611316680908203125" lon="-1.5832970850169658660888671875">
        <ele>1028.199951171875</ele>
        <time>2020-02-22T13:39:04.000Z</time>
      </trkpt>
      <trkpt lat="37.8443188033998012542724609375" lon="-1.583349220454692840576171875">
        <ele>1028.5999755859375</ele>
        <time>2020-02-22T13:39:06.000Z</time>
      </trkpt>
      <trkpt lat="37.84440035931766033172607421875" lon="-1.58344888128340244293212890625">
        <ele>1029.5999755859375</ele>
        <time>2020-02-22T13:39:11.000Z</time>
      </trkpt>
      <trkpt lat="37.84441729076206684112548828125" lon="-1.58346765674650669097900390625">
        <ele>1029.800048828125</ele>
        <time>2020-02-22T13:39:12.000Z</time>
      </trkpt>
      <trkpt lat="37.8445042110979557037353515625" lon="-1.5835158526897430419921875">
        <ele>1031</ele>
        <time>2020-02-22T13:39:17.000Z</time>
      </trkpt>
      <trkpt lat="37.84452038817107677459716796875" lon="-1.5835183672606945037841796875">
        <ele>1031.199951171875</ele>
        <time>2020-02-22T13:39:18.000Z</time>
      </trkpt>
      <trkpt lat="37.84453497268259525299072265625" lon="-1.5835119970142841339111328125">
        <ele>1031.5999755859375</ele>
        <time>2020-02-22T13:39:19.000Z</time>
      </trkpt>
      <trkpt lat="37.8445954062044620513916015625" lon="-1.58347989432513713836669921875">
        <ele>1032</ele>
        <time>2020-02-22T13:39:22.000Z</time>
      </trkpt>
      <trkpt lat="37.84460420720279216766357421875" lon="-1.5834702551364898681640625">
        <ele>1032.199951171875</ele>
        <time>2020-02-22T13:39:23.000Z</time>
      </trkpt>
      <trkpt lat="37.844665311276912689208984375" lon="-1.58343463204801082611083984375">
        <ele>1033</ele>
        <time>2020-02-22T13:39:26.000Z</time>
      </trkpt>
      <trkpt lat="37.84477771259844303131103515625" lon="-1.58338903449475765228271484375">
        <ele>1033.800048828125</ele>
        <time>2020-02-22T13:39:30.000Z</time>
      </trkpt>
      <trkpt lat="37.84481660462915897369384765625" lon="-1.58336355350911617279052734375">
        <ele>1034.199951171875</ele>
        <time>2020-02-22T13:39:32.000Z</time>
      </trkpt>
      <trkpt lat="37.844881229102611541748046875" lon="-1.58332633785903453826904296875">
        <ele>1035</ele>
        <time>2020-02-22T13:39:35.000Z</time>
      </trkpt>
      <trkpt lat="37.8449132479727268218994140625" lon="-1.58328996039927005767822265625">
        <ele>1035.4000244140625</ele>
        <time>2020-02-22T13:39:37.000Z</time>
      </trkpt>
      <trkpt lat="37.84498005174100399017333984375" lon="-1.5832342207431793212890625">
        <ele>1036.199951171875</ele>
        <time>2020-02-22T13:39:40.000Z</time>
      </trkpt>
      <trkpt lat="37.84498742781579494476318359375" lon="-1.58321619965136051177978515625">
        <ele>1036.5999755859375</ele>
        <time>2020-02-22T13:39:41.000Z</time>
      </trkpt>
      <trkpt lat="37.84503621049225330352783203125" lon="-1.58313573338091373443603515625">
        <ele>1037.199951171875</ele>
        <time>2020-02-22T13:39:45.000Z</time>
      </trkpt>
      <trkpt lat="37.84507535398006439208984375" lon="-1.58306465484201908111572265625">
        <ele>1037.5999755859375</ele>
        <time>2020-02-22T13:39:48.000Z</time>
      </trkpt>
      <trkpt lat="37.84513696096837520599365234375" lon="-1.5829621441662311553955078125">
        <ele>1038.4000244140625</ele>
        <time>2020-02-22T13:39:52.000Z</time>
      </trkpt>
      <trkpt lat="37.84516428597271442413330078125" lon="-1.58290891908109188079833984375">
        <ele>1038.800048828125</ele>
        <time>2020-02-22T13:39:54.000Z</time>
      </trkpt>
      <trkpt lat="37.8452807106077671051025390625" lon="-1.58279140479862689971923828125">
        <ele>1039.800048828125</ele>
        <time>2020-02-22T13:39:59.000Z</time>
      </trkpt>
      <trkpt lat="37.8453933633863925933837890625" lon="-1.58267472870647907257080078125">
        <ele>1041</ele>
        <time>2020-02-22T13:40:04.000Z</time>
      </trkpt>
      <trkpt lat="37.8454302437603473663330078125" lon="-1.5826302208006381988525390625">
        <ele>1041.4000244140625</ele>
        <time>2020-02-22T13:40:06.000Z</time>
      </trkpt>
      <trkpt lat="37.84547257237136363983154296875" lon="-1.58254832960665225982666015625">
        <ele>1042</ele>
        <time>2020-02-22T13:40:10.000Z</time>
      </trkpt>
      <trkpt lat="37.8454838879406452178955078125" lon="-1.582527123391628265380859375">
        <ele>1042.4000244140625</ele>
        <time>2020-02-22T13:40:11.000Z</time>
      </trkpt>
      <trkpt lat="37.8455348499119281768798828125" lon="-1.58242880366742610931396484375">
        <ele>1043.199951171875</ele>
        <time>2020-02-22T13:40:15.000Z</time>
      </trkpt>
      <trkpt lat="37.8455539606511592864990234375" lon="-1.58232319168746471405029296875">
        <ele>1043.800048828125</ele>
        <time>2020-02-22T13:40:18.000Z</time>
      </trkpt>
      <trkpt lat="37.84555957652628421783447265625" lon="-1.58225647173821926116943359375">
        <ele>1044.4000244140625</ele>
        <time>2020-02-22T13:40:20.000Z</time>
      </trkpt>
      <trkpt lat="37.84556594677269458770751953125" lon="-1.5820773504674434661865234375">
        <ele>1045.199951171875</ele>
        <time>2020-02-22T13:40:26.000Z</time>
      </trkpt>
      <trkpt lat="37.8455730713903903961181640625" lon="-1.58204667270183563232421875">
        <ele>1045.4000244140625</ele>
        <time>2020-02-22T13:40:27.000Z</time>
      </trkpt>
      <trkpt lat="37.845616824924945831298828125" lon="-1.58185766078531742095947265625">
        <ele>1046.4000244140625</ele>
        <time>2020-02-22T13:40:33.000Z</time>
      </trkpt>
      <trkpt lat="37.845626883208751678466796875" lon="-1.581829078495502471923828125">
        <ele>1046.5999755859375</ele>
        <time>2020-02-22T13:40:34.000Z</time>
      </trkpt>
      <trkpt lat="37.84567541442811489105224609375" lon="-1.58166982233524322509765625">
        <ele>1047.800048828125</ele>
        <time>2020-02-22T13:40:40.000Z</time>
      </trkpt>
      <trkpt lat="37.84568010829389095306396484375" lon="-1.58163855783641338348388671875">
        <ele>1048</ele>
        <time>2020-02-22T13:40:41.000Z</time>
      </trkpt>
      <trkpt lat="37.84566921181976795196533203125" lon="-1.581529341638088226318359375">
        <ele>1048.800048828125</ele>
        <time>2020-02-22T13:40:45.000Z</time>
      </trkpt>
      <trkpt lat="37.84566099755465984344482421875" lon="-1.58145390450954437255859375">
        <ele>1049.199951171875</ele>
        <time>2020-02-22T13:40:48.000Z</time>
      </trkpt>
      <trkpt lat="37.845669798552989959716796875" lon="-1.58135876990854740142822265625">
        <ele>1050</ele>
        <time>2020-02-22T13:40:51.000Z</time>
      </trkpt>
      <trkpt lat="37.84570123068988323211669921875" lon="-1.58125944435596466064453125">
        <ele>1050.5999755859375</ele>
        <time>2020-02-22T13:40:54.000Z</time>
      </trkpt>
      <trkpt lat="37.8457242809236049652099609375" lon="-1.581206806004047393798828125">
        <ele>1051</ele>
        <time>2020-02-22T13:40:56.000Z</time>
      </trkpt>
      <trkpt lat="37.8458034060895442962646484375" lon="-1.5810550935566425323486328125">
        <ele>1052.199951171875</ele>
        <time>2020-02-22T13:41:02.000Z</time>
      </trkpt>
      <trkpt lat="37.84581924788653850555419921875" lon="-1.58102550543844699859619140625">
        <ele>1052.4000244140625</ele>
        <time>2020-02-22T13:41:03.000Z</time>
      </trkpt>
      <trkpt lat="37.845847494900226593017578125" lon="-1.5809179656207561492919921875">
        <ele>1053.199951171875</ele>
        <time>2020-02-22T13:41:06.000Z</time>
      </trkpt>
      <trkpt lat="37.84585730172693729400634765625" lon="-1.580837331712245941162109375">
        <ele>1053.800048828125</ele>
        <time>2020-02-22T13:41:09.000Z</time>
      </trkpt>
      <trkpt lat="37.845892421901226043701171875" lon="-1.5807261876761913299560546875">
        <ele>1054.5999755859375</ele>
        <time>2020-02-22T13:41:13.000Z</time>
      </trkpt>
      <trkpt lat="37.8459056653082370758056640625" lon="-1.58065636642277240753173828125">
        <ele>1055</ele>
        <time>2020-02-22T13:41:15.000Z</time>
      </trkpt>
      <trkpt lat="37.84594262950122356414794921875" lon="-1.58053969033062458038330078125">
        <ele>1055.5999755859375</ele>
        <time>2020-02-22T13:41:19.000Z</time>
      </trkpt>
      <trkpt lat="37.8459656797349452972412109375" lon="-1.58044899813830852508544921875">
        <ele>1056.4000244140625</ele>
        <time>2020-02-22T13:41:22.000Z</time>
      </trkpt>
      <trkpt lat="37.84599375911056995391845703125" lon="-1.58033450134098529815673828125">
        <ele>1056.800048828125</ele>
        <time>2020-02-22T13:41:26.000Z</time>
      </trkpt>
      <trkpt lat="37.84603960812091827392578125" lon="-1.580267362296581268310546875">
        <ele>1057.4000244140625</ele>
        <time>2020-02-22T13:41:28.000Z</time>
      </trkpt>
      <trkpt lat="37.84605980850756168365478515625" lon="-1.58021648414433002471923828125">
        <ele>1057.800048828125</ele>
        <time>2020-02-22T13:41:30.000Z</time>
      </trkpt>
      <trkpt lat="37.84608763642609119415283203125" lon="-1.58007650636136531829833984375">
        <ele>1058.800048828125</ele>
        <time>2020-02-22T13:41:35.000Z</time>
      </trkpt>
      <trkpt lat="37.84610775299370288848876953125" lon="-1.57997290603816509246826171875">
        <ele>1059.199951171875</ele>
        <time>2020-02-22T13:41:38.000Z</time>
      </trkpt>
      <trkpt lat="37.84613306634128093719482421875" lon="-1.5798866562545299530029296875">
        <ele>1060</ele>
        <time>2020-02-22T13:41:42.000Z</time>
      </trkpt>
      <trkpt lat="37.84615083597600460052490234375" lon="-1.57986997626721858978271484375">
        <ele>1060.199951171875</ele>
        <time>2020-02-22T13:41:43.000Z</time>
      </trkpt>
      <trkpt lat="37.8462617285549640655517578125" lon="-1.57976805232465267181396484375">
        <ele>1061.4000244140625</ele>
        <time>2020-02-22T13:41:49.000Z</time>
      </trkpt>
      <trkpt lat="37.8463569469749927520751953125" lon="-1.579683981835842132568359375">
        <ele>1062.800048828125</ele>
        <time>2020-02-22T13:41:55.000Z</time>
      </trkpt>
      <trkpt lat="37.84652047790586948394775390625" lon="-1.5795228816568851470947265625">
        <ele>1063.800048828125</ele>
        <time>2020-02-22T13:42:01.000Z</time>
      </trkpt>
      <trkpt lat="37.8466191329061985015869140625" lon="-1.57940343953669071197509765625">
        <ele>1065</ele>
        <time>2020-02-22T13:42:06.000Z</time>
      </trkpt>
      <trkpt lat="37.84665509127080440521240234375" lon="-1.57935197465121746063232421875">
        <ele>1065.4000244140625</ele>
        <time>2020-02-22T13:42:08.000Z</time>
      </trkpt>
      <trkpt lat="37.8466959111392498016357421875" lon="-1.57927553169429302215576171875">
        <ele>1066.199951171875</ele>
        <time>2020-02-22T13:42:11.000Z</time>
      </trkpt>
      <trkpt lat="37.84671862609684467315673828125" lon="-1.57920830883085727691650390625">
        <ele>1066.5999755859375</ele>
        <time>2020-02-22T13:42:14.000Z</time>
      </trkpt>
      <trkpt lat="37.84675030969083309173583984375" lon="-1.57914544455707073211669921875">
        <ele>1067.199951171875</ele>
        <time>2020-02-22T13:42:17.000Z</time>
      </trkpt>
      <trkpt lat="37.8467778861522674560546875" lon="-1.5790873579680919647216796875">
        <ele>1067.800048828125</ele>
        <time>2020-02-22T13:42:20.000Z</time>
      </trkpt>
      <trkpt lat="37.84678350202739238739013671875" lon="-1.57904150895774364471435546875">
        <ele>1068</ele>
        <time>2020-02-22T13:42:22.000Z</time>
      </trkpt>
      <trkpt lat="37.84681049175560474395751953125" lon="-1.57899037934839725494384765625">
        <ele>1068.199951171875</ele>
        <time>2020-02-22T13:42:24.000Z</time>
      </trkpt>
      <trkpt lat="37.8468333743512630462646484375" lon="-1.578959114849567413330078125">
        <ele>1068.4000244140625</ele>
        <time>2020-02-22T13:42:25.000Z</time>
      </trkpt>
      <trkpt lat="37.8468528203666210174560546875" lon="-1.5789274312555789947509765625">
        <ele>1068.4000244140625</ele>
        <time>2020-02-22T13:42:26.000Z</time>
      </trkpt>
      <trkpt lat="37.846953235566616058349609375" lon="-1.57872970215976238250732421875">
        <ele>1069.4000244140625</ele>
        <time>2020-02-22T13:42:32.000Z</time>
      </trkpt>
      <trkpt lat="37.84706915728747844696044921875" lon="-1.57851931639015674591064453125">
        <ele>1070.4000244140625</ele>
        <time>2020-02-22T13:42:39.000Z</time>
      </trkpt>
      <trkpt lat="37.84708139486610889434814453125" lon="-1.57849601469933986663818359375">
        <ele>1070.5999755859375</ele>
        <time>2020-02-22T13:42:40.000Z</time>
      </trkpt>
      <trkpt lat="37.8471089713275432586669921875" lon="-1.578418649733066558837890625">
        <ele>1071.199951171875</ele>
        <time>2020-02-22T13:42:44.000Z</time>
      </trkpt>
      <trkpt lat="37.8471180237829685211181640625" lon="-1.57839459367096424102783203125">
        <ele>1071.5999755859375</ele>
        <time>2020-02-22T13:42:45.000Z</time>
      </trkpt>
      <trkpt lat="37.84720025025308132171630859375" lon="-1.5782203339040279388427734375">
        <ele>1072.5999755859375</ele>
        <time>2020-02-22T13:42:51.000Z</time>
      </trkpt>
      <trkpt lat="37.84721936099231243133544921875" lon="-1.57818756066262722015380859375">
        <ele>1072.800048828125</ele>
        <time>2020-02-22T13:42:52.000Z</time>
      </trkpt>
      <trkpt lat="37.84726512618362903594970703125" lon="-1.57800517044961452484130859375">
        <ele>1073.5999755859375</ele>
        <time>2020-02-22T13:42:57.000Z</time>
      </trkpt>
      <trkpt lat="37.84727451391518115997314453125" lon="-1.57796971499919891357421875">
        <ele>1073.800048828125</ele>
        <time>2020-02-22T13:42:58.000Z</time>
      </trkpt>
      <trkpt lat="37.84731642343103885650634765625" lon="-1.577772237360477447509765625">
        <ele>1075</ele>
        <time>2020-02-22T13:43:03.000Z</time>
      </trkpt>
      <trkpt lat="37.84732346422970294952392578125" lon="-1.57774440944194793701171875">
        <ele>1075.199951171875</ele>
        <time>2020-02-22T13:43:04.000Z</time>
      </trkpt>
      <trkpt lat="37.84737409092485904693603515625" lon="-1.5775782801210880279541015625">
        <ele>1076</ele>
        <time>2020-02-22T13:43:10.000Z</time>
      </trkpt>
      <trkpt lat="37.8474117256700992584228515625" lon="-1.5774998255074024200439453125">
        <ele>1076.4000244140625</ele>
        <time>2020-02-22T13:43:13.000Z</time>
      </trkpt>
      <trkpt lat="37.8474670462310314178466796875" lon="-1.57744442112743854522705078125">
        <ele>1076.5999755859375</ele>
        <time>2020-02-22T13:43:15.000Z</time>
      </trkpt>
      <trkpt lat="37.847542650997638702392578125" lon="-1.57737384550273418426513671875">
        <ele>1077</ele>
        <time>2020-02-22T13:43:18.000Z</time>
      </trkpt>
      <trkpt lat="37.8476816229522228240966796875" lon="-1.5772681497037410736083984375">
        <ele>1077.5999755859375</ele>
        <time>2020-02-22T13:43:23.000Z</time>
      </trkpt>
      <trkpt lat="37.84775295294821262359619140625" lon="-1.57721743918955326080322265625">
        <ele>1078</ele>
        <time>2020-02-22T13:43:26.000Z</time>
      </trkpt>
      <trkpt lat="37.84781833179295063018798828125" lon="-1.57714200206100940704345703125">
        <ele>1078.5999755859375</ele>
        <time>2020-02-22T13:43:30.000Z</time>
      </trkpt>
      <trkpt lat="37.84784473478794097900390625" lon="-1.577082574367523193359375">
        <ele>1079.199951171875</ele>
        <time>2020-02-22T13:43:33.000Z</time>
      </trkpt>
      <trkpt lat="37.847882620990276336669921875" lon="-1.57698224298655986785888671875">
        <ele>1080</ele>
        <time>2020-02-22T13:43:37.000Z</time>
      </trkpt>
      <trkpt lat="37.8478896617889404296875" lon="-1.5769603662192821502685546875">
        <ele>1080.199951171875</ele>
        <time>2020-02-22T13:43:38.000Z</time>
      </trkpt>
      <trkpt lat="37.8479982912540435791015625" lon="-1.57682516612112522125244140625">
        <ele>1081.199951171875</ele>
        <time>2020-02-22T13:43:44.000Z</time>
      </trkpt>
      <trkpt lat="37.8480246104300022125244140625" lon="-1.57680236734449863433837890625">
        <ele>1081.4000244140625</ele>
        <time>2020-02-22T13:43:45.000Z</time>
      </trkpt>
      <trkpt lat="37.8481721319258213043212890625" lon="-1.57670262269675731658935546875">
        <ele>1082.4000244140625</ele>
        <time>2020-02-22T13:43:50.000Z</time>
      </trkpt>
      <trkpt lat="37.84820121712982654571533203125" lon="-1.57669164240360260009765625">
        <ele>1082.800048828125</ele>
        <time>2020-02-22T13:43:51.000Z</time>
      </trkpt>
      <trkpt lat="37.84831420518457889556884765625" lon="-1.57664663158357143402099609375">
        <ele>1083.5999755859375</ele>
        <time>2020-02-22T13:43:55.000Z</time>
      </trkpt>
      <trkpt lat="37.848398946225643157958984375" lon="-1.57658343203365802764892578125">
        <ele>1084.199951171875</ele>
        <time>2020-02-22T13:43:59.000Z</time>
      </trkpt>
      <trkpt lat="37.84844714216887950897216796875" lon="-1.5765144489705562591552734375">
        <ele>1084.800048828125</ele>
        <time>2020-02-22T13:44:02.000Z</time>
      </trkpt>
      <trkpt lat="37.848482429981231689453125" lon="-1.5764353238046169281005859375">
        <ele>1085.4000244140625</ele>
        <time>2020-02-22T13:44:05.000Z</time>
      </trkpt>
      <trkpt lat="37.84850321710109710693359375" lon="-1.576375477015972137451171875">
        <ele>1085.800048828125</ele>
        <time>2020-02-22T13:44:07.000Z</time>
      </trkpt>
      <trkpt lat="37.8485012054443359375" lon="-1.57626441679894924163818359375">
        <ele>1086.5999755859375</ele>
        <time>2020-02-22T13:44:11.000Z</time>
      </trkpt>
      <trkpt lat="37.84850732423365116119384765625" lon="-1.5762056596577167510986328125">
        <ele>1087</ele>
        <time>2020-02-22T13:44:13.000Z</time>
      </trkpt>
      <trkpt lat="37.8484998643398284912109375" lon="-1.57609225250780582427978515625">
        <ele>1087.5999755859375</ele>
        <time>2020-02-22T13:44:17.000Z</time>
      </trkpt>
      <trkpt lat="37.84847798757255077362060546875" lon="-1.57601916231215000152587890625">
        <ele>1088</ele>
        <time>2020-02-22T13:44:20.000Z</time>
      </trkpt>
      <trkpt lat="37.8484450466930866241455078125" lon="-1.57594875432550907135009765625">
        <ele>1088.5999755859375</ele>
        <time>2020-02-22T13:44:23.000Z</time>
      </trkpt>
      <trkpt lat="37.8484101779758930206298828125" lon="-1.57588287256658077239990234375">
        <ele>1089.199951171875</ele>
        <time>2020-02-22T13:44:26.000Z</time>
      </trkpt>
      <trkpt lat="37.84838980995118618011474609375" lon="-1.57578966580331325531005859375">
        <ele>1090</ele>
        <time>2020-02-22T13:44:30.000Z</time>
      </trkpt>
      <trkpt lat="37.848382852971553802490234375" lon="-1.57574406825006008148193359375">
        <ele>1090.4000244140625</ele>
        <time>2020-02-22T13:44:32.000Z</time>
      </trkpt>
      <trkpt lat="37.84834974445402622222900390625" lon="-1.57569880597293376922607421875">
        <ele>1090.5999755859375</ele>
        <time>2020-02-22T13:44:34.000Z</time>
      </trkpt>
      <trkpt lat="37.8483199886977672576904296875" lon="-1.57561398111283779144287109375">
        <ele>1091.4000244140625</ele>
        <time>2020-02-22T13:44:37.000Z</time>
      </trkpt>
      <trkpt lat="37.8483106009662151336669921875" lon="-1.57555094920098781585693359375">
        <ele>1091.5999755859375</ele>
        <time>2020-02-22T13:44:39.000Z</time>
      </trkpt>
      <trkpt lat="37.8483461402356624603271484375" lon="-1.57544173300266265869140625">
        <ele>1092.4000244140625</ele>
        <time>2020-02-22T13:44:42.000Z</time>
      </trkpt>
      <trkpt lat="37.848364412784576416015625" lon="-1.57540979795157909393310546875">
        <ele>1092.5999755859375</ele>
        <time>2020-02-22T13:44:43.000Z</time>
      </trkpt>
      <trkpt lat="37.8483711183071136474609375" lon="-1.5753812156617641448974609375">
        <ele>1092.800048828125</ele>
        <time>2020-02-22T13:44:44.000Z</time>
      </trkpt>
      <trkpt lat="37.84844663925468921661376953125" lon="-1.57524635083973407745361328125">
        <ele>1093.199951171875</ele>
        <time>2020-02-22T13:44:48.000Z</time>
      </trkpt>
      <trkpt lat="37.84845829010009765625" lon="-1.57521584071218967437744140625">
        <ele>1093.4000244140625</ele>
        <time>2020-02-22T13:44:49.000Z</time>
      </trkpt>
      <trkpt lat="37.84853129647672176361083984375" lon="-1.5750399045646190643310546875">
        <ele>1094.4000244140625</ele>
        <time>2020-02-22T13:44:55.000Z</time>
      </trkpt>
      <trkpt lat="37.8485908918082714080810546875" lon="-1.57487587071955204010009765625">
        <ele>1095.4000244140625</ele>
        <time>2020-02-22T13:45:01.000Z</time>
      </trkpt>
      <trkpt lat="37.84860790707170963287353515625" lon="-1.57484619878232479095458984375">
        <ele>1095.4000244140625</ele>
        <time>2020-02-22T13:45:02.000Z</time>
      </trkpt>
      <trkpt lat="37.84869155846536159515380859375" lon="-1.57465760596096515655517578125">
        <ele>1096.5999755859375</ele>
        <time>2020-02-22T13:45:08.000Z</time>
      </trkpt>
      <trkpt lat="37.8487226553261280059814453125" lon="-1.574538163840770721435546875">
        <ele>1098</ele>
        <time>2020-02-22T13:45:12.000Z</time>
      </trkpt>
      <trkpt lat="37.8487504832446575164794921875" lon="-1.57444755546748638153076171875">
        <ele>1098.5999755859375</ele>
        <time>2020-02-22T13:45:15.000Z</time>
      </trkpt>
      <trkpt lat="37.8487481363117694854736328125" lon="-1.5744159556925296783447265625">
        <ele>1099</ele>
        <time>2020-02-22T13:45:16.000Z</time>
      </trkpt>
      <trkpt lat="37.84878459759056568145751953125" lon="-1.57425980083644390106201171875">
        <ele>1100</ele>
        <time>2020-02-22T13:45:21.000Z</time>
      </trkpt>
      <trkpt lat="37.84880270250141620635986328125" lon="-1.57420045696198940277099609375">
        <ele>1100.199951171875</ele>
        <time>2020-02-22T13:45:23.000Z</time>
      </trkpt>
      <trkpt lat="37.84884662367403507232666015625" lon="-1.5740790031850337982177734375">
        <ele>1101</ele>
        <time>2020-02-22T13:45:27.000Z</time>
      </trkpt>
      <trkpt lat="37.84887126646935939788818359375" lon="-1.57396559603512287139892578125">
        <ele>1102.199951171875</ele>
        <time>2020-02-22T13:45:31.000Z</time>
      </trkpt>
      <trkpt lat="37.84889440052211284637451171875" lon="-1.57381069846451282501220703125">
        <ele>1103.4000244140625</ele>
        <time>2020-02-22T13:45:36.000Z</time>
      </trkpt>
      <trkpt lat="37.84893312491476535797119140625" lon="-1.5736560523509979248046875">
        <ele>1104.199951171875</ele>
        <time>2020-02-22T13:45:41.000Z</time>
      </trkpt>
      <trkpt lat="37.8489271737635135650634765625" lon="-1.573600731790065765380859375">
        <ele>1104.5999755859375</ele>
        <time>2020-02-22T13:45:43.000Z</time>
      </trkpt>
      <trkpt lat="37.84891971386969089508056640625" lon="-1.5734885819256305694580078125">
        <ele>1105.4000244140625</ele>
        <time>2020-02-22T13:45:47.000Z</time>
      </trkpt>
      <trkpt lat="37.8489228151738643646240234375" lon="-1.57343133352696895599365234375">
        <ele>1105.800048828125</ele>
        <time>2020-02-22T13:45:49.000Z</time>
      </trkpt>
      <trkpt lat="37.8489493019878864288330078125" lon="-1.57327895052731037139892578125">
        <ele>1106.5999755859375</ele>
        <time>2020-02-22T13:45:54.000Z</time>
      </trkpt>
      <trkpt lat="37.848954498767852783203125" lon="-1.573247015476226806640625">
        <ele>1106.800048828125</ele>
        <time>2020-02-22T13:45:55.000Z</time>
      </trkpt>
      <trkpt lat="37.848965562880039215087890625" lon="-1.57315741293132305145263671875">
        <ele>1107.4000244140625</ele>
        <time>2020-02-22T13:45:58.000Z</time>
      </trkpt>
      <trkpt lat="37.8489778004586696624755859375" lon="-1.57312966883182525634765625">
        <ele>1107.5999755859375</ele>
        <time>2020-02-22T13:45:59.000Z</time>
      </trkpt>
      <trkpt lat="37.848986685276031494140625" lon="-1.57310695387423038482666015625">
        <ele>1107.800048828125</ele>
        <time>2020-02-22T13:46:00.000Z</time>
      </trkpt>
      <trkpt lat="37.84905843436717987060546875" lon="-1.5730067901313304901123046875">
        <ele>1108.800048828125</ele>
        <time>2020-02-22T13:46:05.000Z</time>
      </trkpt>
      <trkpt lat="37.849189527332782745361328125" lon="-1.5728706680238246917724609375">
        <ele>1110</ele>
        <time>2020-02-22T13:46:11.000Z</time>
      </trkpt>
      <trkpt lat="37.8492047823965549468994140625" lon="-1.572845019400119781494140625">
        <ele>1110.4000244140625</ele>
        <time>2020-02-22T13:46:12.000Z</time>
      </trkpt>
      <trkpt lat="37.84924426116049289703369140625" lon="-1.57275684177875518798828125">
        <ele>1111.199951171875</ele>
        <time>2020-02-22T13:46:16.000Z</time>
      </trkpt>
      <trkpt lat="37.849259935319423675537109375" lon="-1.57273446209728717803955078125">
        <ele>1111.4000244140625</ele>
        <time>2020-02-22T13:46:17.000Z</time>
      </trkpt>
      <trkpt lat="37.84934987314045429229736328125" lon="-1.57263438217341899871826171875">
        <ele>1112.4000244140625</ele>
        <time>2020-02-22T13:46:21.000Z</time>
      </trkpt>
      <trkpt lat="37.849397398531436920166015625" lon="-1.57258694060146808624267578125">
        <ele>1112.800048828125</ele>
        <time>2020-02-22T13:46:23.000Z</time>
      </trkpt>
      <trkpt lat="37.849493958055973052978515625" lon="-1.5725095756351947784423828125">
        <ele>1113.5999755859375</ele>
        <time>2020-02-22T13:46:27.000Z</time>
      </trkpt>
      <trkpt lat="37.84958280622959136962890625" lon="-1.57241544686257839202880859375">
        <ele>1114.5999755859375</ele>
        <time>2020-02-22T13:46:32.000Z</time>
      </trkpt>
      <trkpt lat="37.8496607579290866851806640625" lon="-1.5723275206983089447021484375">
        <ele>1115.5999755859375</ele>
        <time>2020-02-22T13:46:36.000Z</time>
      </trkpt>
      <trkpt lat="37.84972965717315673828125" lon="-1.5722426958382129669189453125">
        <ele>1116.4000244140625</ele>
        <time>2020-02-22T13:46:40.000Z</time>
      </trkpt>
      <trkpt lat="37.84976519644260406494140625" lon="-1.5721981041133403778076171875">
        <ele>1116.800048828125</ele>
        <time>2020-02-22T13:46:42.000Z</time>
      </trkpt>
      <trkpt lat="37.84982194192707538604736328125" lon="-1.572116799652576446533203125">
        <ele>1117.5999755859375</ele>
        <time>2020-02-22T13:46:46.000Z</time>
      </trkpt>
      <trkpt lat="37.8498344309628009796142578125" lon="-1.572091989219188690185546875">
        <ele>1117.800048828125</ele>
        <time>2020-02-22T13:46:47.000Z</time>
      </trkpt>
      <trkpt lat="37.84984641708433628082275390625" lon="-1.57206441275775432586669921875">
        <ele>1117.800048828125</ele>
        <time>2020-02-22T13:46:48.000Z</time>
      </trkpt>
      <trkpt lat="37.8498662821948528289794921875" lon="-1.5719563700258731842041015625">
        <ele>1118.4000244140625</ele>
        <time>2020-02-22T13:46:52.000Z</time>
      </trkpt>
      <trkpt lat="37.84988723695278167724609375" lon="-1.57187095843255519866943359375">
        <ele>1118.800048828125</ele>
        <time>2020-02-22T13:46:55.000Z</time>
      </trkpt>
      <trkpt lat="37.84991296939551830291748046875" lon="-1.5717758238315582275390625">
        <ele>1119.5999755859375</ele>
        <time>2020-02-22T13:46:58.000Z</time>
      </trkpt>
      <trkpt lat="37.84991313703358173370361328125" lon="-1.5717458166182041168212890625">
        <ele>1119.800048828125</ele>
        <time>2020-02-22T13:46:59.000Z</time>
      </trkpt>
      <trkpt lat="37.8499148972332477569580078125" lon="-1.5717173181474208831787109375">
        <ele>1119.800048828125</ele>
        <time>2020-02-22T13:47:00.000Z</time>
      </trkpt>
      <trkpt lat="37.8499242849647998809814453125" lon="-1.57165789045393466949462890625">
        <ele>1120.199951171875</ele>
        <time>2020-02-22T13:47:02.000Z</time>
      </trkpt>
      <trkpt lat="37.849921770393848419189453125" lon="-1.57157264649868011474609375">
        <ele>1121</ele>
        <time>2020-02-22T13:47:05.000Z</time>
      </trkpt>
      <trkpt lat="37.84993845038115978240966796875" lon="-1.57145068980753421783447265625">
        <ele>1121.5999755859375</ele>
        <time>2020-02-22T13:47:09.000Z</time>
      </trkpt>
      <trkpt lat="37.84994599409401416778564453125" lon="-1.571383886039257049560546875">
        <ele>1122</ele>
        <time>2020-02-22T13:47:11.000Z</time>
      </trkpt>
      <trkpt lat="37.849949263036251068115234375" lon="-1.57125907950103282928466796875">
        <ele>1122.800048828125</ele>
        <time>2020-02-22T13:47:15.000Z</time>
      </trkpt>
      <trkpt lat="37.8499616682529449462890625" lon="-1.5711922757327556610107421875">
        <ele>1123</ele>
        <time>2020-02-22T13:47:17.000Z</time>
      </trkpt>
      <trkpt lat="37.84995856694877147674560546875" lon="-1.5710440836846828460693359375">
        <ele>1124</ele>
        <time>2020-02-22T13:47:22.000Z</time>
      </trkpt>
      <trkpt lat="37.84996342845261096954345703125" lon="-1.57100946642458438873291015625">
        <ele>1124.199951171875</ele>
        <time>2020-02-22T13:47:23.000Z</time>
      </trkpt>
      <trkpt lat="37.8499712236225605010986328125" lon="-1.57088608480989933013916015625">
        <ele>1125</ele>
        <time>2020-02-22T13:47:27.000Z</time>
      </trkpt>
      <trkpt lat="37.84998857416212558746337890625" lon="-1.570822298526763916015625">
        <ele>1125.199951171875</ele>
        <time>2020-02-22T13:47:29.000Z</time>
      </trkpt>
      <trkpt lat="37.85005277954041957855224609375" lon="-1.57068676315248012542724609375">
        <ele>1126.199951171875</ele>
        <time>2020-02-22T13:47:33.000Z</time>
      </trkpt>
      <trkpt lat="37.8500684536993503570556640625" lon="-1.570659689605236053466796875">
        <ele>1126.199951171875</ele>
        <time>2020-02-22T13:47:34.000Z</time>
      </trkpt>
      <trkpt lat="37.85008035600185394287109375" lon="-1.570596657693386077880859375">
        <ele>1127</ele>
        <time>2020-02-22T13:47:37.000Z</time>
      </trkpt>
      <trkpt lat="37.850118912756443023681640625" lon="-1.5705418400466442108154296875">
        <ele>1127.4000244140625</ele>
        <time>2020-02-22T13:47:39.000Z</time>
      </trkpt>
      <trkpt lat="37.85015017725527286529541015625" lon="-1.57049464993178844451904296875">
        <ele>1127.800048828125</ele>
        <time>2020-02-22T13:47:41.000Z</time>
      </trkpt>
      <trkpt lat="37.85024673677980899810791015625" lon="-1.57037864439189434051513671875">
        <ele>1128.4000244140625</ele>
        <time>2020-02-22T13:47:45.000Z</time>
      </trkpt>
      <trkpt lat="37.85037766210734844207763671875" lon="-1.57021670602262020111083984375">
        <ele>1129.4000244140625</ele>
        <time>2020-02-22T13:47:51.000Z</time>
      </trkpt>
      <trkpt lat="37.85039484500885009765625" lon="-1.5701911412179470062255859375">
        <ele>1129.5999755859375</ele>
        <time>2020-02-22T13:47:52.000Z</time>
      </trkpt>
      <trkpt lat="37.85048746503889560699462890625" lon="-1.570060215890407562255859375">
        <ele>1130.4000244140625</ele>
        <time>2020-02-22T13:47:57.000Z</time>
      </trkpt>
      <trkpt lat="37.8505240939557552337646484375" lon="-1.56995150260627269744873046875">
        <ele>1131.199951171875</ele>
        <time>2020-02-22T13:48:01.000Z</time>
      </trkpt>
      <trkpt lat="37.8505398519337177276611328125" lon="-1.56991906464099884033203125">
        <ele>1131.4000244140625</ele>
        <time>2020-02-22T13:48:02.000Z</time>
      </trkpt>
      <trkpt lat="37.85056089051067829132080078125" lon="-1.5698545239865779876708984375">
        <ele>1131.4000244140625</ele>
        <time>2020-02-22T13:48:04.000Z</time>
      </trkpt>
      <trkpt lat="37.85058469511568546295166015625" lon="-1.56975888647139072418212890625">
        <ele>1131.800048828125</ele>
        <time>2020-02-22T13:48:07.000Z</time>
      </trkpt>
      <trkpt lat="37.8506012074649333953857421875" lon="-1.56970473937690258026123046875">
        <ele>1131.800048828125</ele>
        <time>2020-02-22T13:48:09.000Z</time>
      </trkpt>
      <trkpt lat="37.85062258131802082061767578125" lon="-1.56967573799192905426025390625">
        <ele>1131.800048828125</ele>
        <time>2020-02-22T13:48:10.000Z</time>
      </trkpt>
      <trkpt lat="37.85070170648396015167236328125" lon="-1.5696610696613788604736328125">
        <ele>1131.800048828125</ele>
        <time>2020-02-22T13:48:12.000Z</time>
      </trkpt>
      <trkpt lat="37.85078418441116809844970703125" lon="-1.56973675824701786041259765625">
        <ele>1131.800048828125</ele>
        <time>2020-02-22T13:48:15.000Z</time>
      </trkpt>
      <trkpt lat="37.85081469453871250152587890625" lon="-1.56980984844267368316650390625">
        <ele>1131.800048828125</ele>
        <time>2020-02-22T13:48:17.000Z</time>
      </trkpt>
      <trkpt lat="37.850844450294971466064453125" lon="-1.57005988061428070068359375">
        <ele>1131.800048828125</ele>
        <time>2020-02-22T13:48:23.000Z</time>
      </trkpt>
      <trkpt lat="37.850847132503986358642578125" lon="-1.5703507326543331146240234375">
        <ele>1132.5999755859375</ele>
        <time>2020-02-22T13:48:30.000Z</time>
      </trkpt>
      <trkpt lat="37.8508590348064899444580078125" lon="-1.5704995952546596527099609375">
        <ele>1132.800048828125</ele>
        <time>2020-02-22T13:48:34.000Z</time>
      </trkpt>
      <trkpt lat="37.85090672783553600311279296875" lon="-1.5706243179738521575927734375">
        <ele>1133.4000244140625</ele>
        <time>2020-02-22T13:48:38.000Z</time>
      </trkpt>
      <trkpt lat="37.85094075836241245269775390625" lon="-1.57068022526800632476806640625">
        <ele>1133.5999755859375</ele>
        <time>2020-02-22T13:48:40.000Z</time>
      </trkpt>
      <trkpt lat="37.85103765316307544708251953125" lon="-1.57085490413010120391845703125">
        <ele>1134.4000244140625</ele>
        <time>2020-02-22T13:48:46.000Z</time>
      </trkpt>
      <trkpt lat="37.851051650941371917724609375" lon="-1.57091558910906314849853515625">
        <ele>1135</ele>
        <time>2020-02-22T13:48:48.000Z</time>
      </trkpt>
      <trkpt lat="37.8510246612131595611572265625" lon="-1.57106126658618450164794921875">
        <ele>1135.4000244140625</ele>
        <time>2020-02-22T13:48:52.000Z</time>
      </trkpt>
      <trkpt lat="37.85100840032100677490234375" lon="-1.57110233791172504425048828125">
        <ele>1135.5999755859375</ele>
        <time>2020-02-22T13:48:53.000Z</time>
      </trkpt>
      <trkpt lat="37.85091184079647064208984375" lon="-1.5713035874068737030029296875">
        <ele>1136.5999755859375</ele>
        <time>2020-02-22T13:48:59.000Z</time>
      </trkpt>
      <trkpt lat="37.85085895098745822906494140625" lon="-1.5714115463197231292724609375">
        <ele>1137</ele>
        <time>2020-02-22T13:49:02.000Z</time>
      </trkpt>
      <trkpt lat="37.850810587406158447265625" lon="-1.5715221874415874481201171875">
        <ele>1137.800048828125</ele>
        <time>2020-02-22T13:49:05.000Z</time>
      </trkpt>
      <trkpt lat="37.85077865235507488250732421875" lon="-1.57170767895877361297607421875">
        <ele>1138.800048828125</ele>
        <time>2020-02-22T13:49:10.000Z</time>
      </trkpt>
      <trkpt lat="37.85077504813671112060546875" lon="-1.57174455933272838592529296875">
        <ele>1139</ele>
        <time>2020-02-22T13:49:11.000Z</time>
      </trkpt>
      <trkpt lat="37.85082223825156688690185546875" lon="-1.5720210783183574676513671875">
        <ele>1140</ele>
        <time>2020-02-22T13:49:19.000Z</time>
      </trkpt>
      <trkpt lat="37.85094327293336391448974609375" lon="-1.57208360731601715087890625">
        <ele>1140.5999755859375</ele>
        <time>2020-02-22T13:49:24.000Z</time>
      </trkpt>
      <trkpt lat="37.850999347865581512451171875" lon="-1.57208704389631748199462890625">
        <ele>1141.199951171875</ele>
        <time>2020-02-22T13:49:26.000Z</time>
      </trkpt>
      <trkpt lat="37.85110403783619403839111328125" lon="-1.572147645056247711181640625">
        <ele>1142.4000244140625</ele>
        <time>2020-02-22T13:49:30.000Z</time>
      </trkpt>
      <trkpt lat="37.85112264566123485565185546875" lon="-1.57217790372669696807861328125">
        <ele>1142.5999755859375</ele>
        <time>2020-02-22T13:49:31.000Z</time>
      </trkpt>
      <trkpt lat="37.8511530719697475433349609375" lon="-1.572337411344051361083984375">
        <ele>1143</ele>
        <time>2020-02-22T13:49:36.000Z</time>
      </trkpt>
      <trkpt lat="37.8511493839323520660400390625" lon="-1.5724512375891208648681640625">
        <ele>1143.199951171875</ele>
        <time>2020-02-22T13:49:39.000Z</time>
      </trkpt>
      <trkpt lat="37.85114058293402194976806640625" lon="-1.5725938975811004638671875">
        <ele>1144.199951171875</ele>
        <time>2020-02-22T13:49:43.000Z</time>
      </trkpt>
      <trkpt lat="37.85115064121782779693603515625" lon="-1.5726582705974578857421875">
        <ele>1144.5999755859375</ele>
        <time>2020-02-22T13:49:45.000Z</time>
      </trkpt>
      <trkpt lat="37.85120311193168163299560546875" lon="-1.57277855090796947479248046875">
        <ele>1145.199951171875</ele>
        <time>2020-02-22T13:49:51.000Z</time>
      </trkpt>
      <trkpt lat="37.8512196242809295654296875" lon="-1.5728016011416912078857421875">
        <ele>1145.5999755859375</ele>
        <time>2020-02-22T13:49:52.000Z</time>
      </trkpt>
      <trkpt lat="37.85130252130329608917236328125" lon="-1.57286304049193859100341796875">
        <ele>1147</ele>
        <time>2020-02-22T13:49:56.000Z</time>
      </trkpt>
      <trkpt lat="37.8513237275183200836181640625" lon="-1.5728621184825897216796875">
        <ele>1147.4000244140625</ele>
        <time>2020-02-22T13:49:57.000Z</time>
      </trkpt>
      <trkpt lat="37.851417772471904754638671875" lon="-1.57282632775604724884033203125">
        <ele>1148.199951171875</ele>
        <time>2020-02-22T13:50:01.000Z</time>
      </trkpt>
      <trkpt lat="37.851454317569732666015625" lon="-1.57279984094202518463134765625">
        <ele>1148.5999755859375</ele>
        <time>2020-02-22T13:50:03.000Z</time>
      </trkpt>
      <trkpt lat="37.851521037518978118896484375" lon="-1.57272733747959136962890625">
        <ele>1149.5999755859375</ele>
        <time>2020-02-22T13:50:07.000Z</time>
      </trkpt>
      <trkpt lat="37.851549871265888214111328125" lon="-1.57269137911498546600341796875">
        <ele>1150.199951171875</ele>
        <time>2020-02-22T13:50:09.000Z</time>
      </trkpt>
      <trkpt lat="37.8515805490314960479736328125" lon="-1.5726540796458721160888671875">
        <ele>1150.5999755859375</ele>
        <time>2020-02-22T13:50:11.000Z</time>
      </trkpt>
      <trkpt lat="37.8516663797199726104736328125" lon="-1.57258023507893085479736328125">
        <ele>1151.800048828125</ele>
        <time>2020-02-22T13:50:16.000Z</time>
      </trkpt>
      <trkpt lat="37.85168909467756748199462890625" lon="-1.57256766222417354583740234375">
        <ele>1152.199951171875</ele>
        <time>2020-02-22T13:50:17.000Z</time>
      </trkpt>
      <trkpt lat="37.85175179131329059600830078125" lon="-1.57251183874905109405517578125">
        <ele>1153</ele>
        <time>2020-02-22T13:50:21.000Z</time>
      </trkpt>
      <trkpt lat="37.85179722122848033905029296875" lon="-1.57246121205389499664306640625">
        <ele>1153.5999755859375</ele>
        <time>2020-02-22T13:50:24.000Z</time>
      </trkpt>
      <trkpt lat="37.8518088720738887786865234375" lon="-1.57244159840047359466552734375">
        <ele>1154.199951171875</ele>
        <time>2020-02-22T13:50:25.000Z</time>
      </trkpt>
      <trkpt lat="37.851854301989078521728515625" lon="-1.57236448489129543304443359375">
        <ele>1155.199951171875</ele>
        <time>2020-02-22T13:50:29.000Z</time>
      </trkpt>
      <trkpt lat="37.8518551401793956756591796875" lon="-1.5723204798996448516845703125">
        <ele>1155.5999755859375</ele>
        <time>2020-02-22T13:50:31.000Z</time>
      </trkpt>
      <trkpt lat="37.8518226183950901031494140625" lon="-1.57225686125457286834716796875">
        <ele>1156.4000244140625</ele>
        <time>2020-02-22T13:50:34.000Z</time>
      </trkpt>
      <trkpt lat="37.85179839469492435455322265625" lon="-1.57222065143287181854248046875">
        <ele>1156.800048828125</ele>
        <time>2020-02-22T13:50:36.000Z</time>
      </trkpt>
      <trkpt lat="37.8517669625580310821533203125" lon="-1.57216013409197330474853515625">
        <ele>1157.4000244140625</ele>
        <time>2020-02-22T13:50:39.000Z</time>
      </trkpt>
      <trkpt lat="37.8517810441553592681884765625" lon="-1.57206441275775432586669921875">
        <ele>1159</ele>
        <time>2020-02-22T13:50:43.000Z</time>
      </trkpt>
      <trkpt lat="37.8517971374094486236572265625" lon="-1.57196047715842723846435546875">
        <ele>1160</ele>
        <time>2020-02-22T13:50:47.000Z</time>
      </trkpt>
      <trkpt lat="37.8518303297460079193115234375" lon="-1.57183474861085414886474609375">
        <ele>1161</ele>
        <time>2020-02-22T13:50:52.000Z</time>
      </trkpt>
      <trkpt lat="37.851829491555690765380859375" lon="-1.57180692069232463836669921875">
        <ele>1161.199951171875</ele>
        <time>2020-02-22T13:50:53.000Z</time>
      </trkpt>
      <trkpt lat="37.85180711187422275543212890625" lon="-1.571702398359775543212890625">
        <ele>1162.199951171875</ele>
        <time>2020-02-22T13:50:57.000Z</time>
      </trkpt>
      <trkpt lat="37.85179638303816318511962890625" lon="-1.5716794319450855255126953125">
        <ele>1162.4000244140625</ele>
        <time>2020-02-22T13:50:58.000Z</time>
      </trkpt>
      <trkpt lat="37.85173586569726467132568359375" lon="-1.57157256267964839935302734375">
        <ele>1163.4000244140625</ele>
        <time>2020-02-22T13:51:03.000Z</time>
      </trkpt>
      <trkpt lat="37.8517240472137928009033203125" lon="-1.57154507003724575042724609375">
        <ele>1163.5999755859375</ele>
        <time>2020-02-22T13:51:04.000Z</time>
      </trkpt>
      <trkpt lat="37.851701416075229644775390625" lon="-1.5714283101260662078857421875">
        <ele>1164.199951171875</ele>
        <time>2020-02-22T13:51:08.000Z</time>
      </trkpt>
      <trkpt lat="37.85172195173799991607666015625" lon="-1.57139855436980724334716796875">
        <ele>1164.4000244140625</ele>
        <time>2020-02-22T13:51:09.000Z</time>
      </trkpt>
      <trkpt lat="37.85174156539142131805419921875" lon="-1.57137550413608551025390625">
        <ele>1164.5999755859375</ele>
        <time>2020-02-22T13:51:10.000Z</time>
      </trkpt>
      <trkpt lat="37.85185807384550571441650390625" lon="-1.57125614583492279052734375">
        <ele>1165.800048828125</ele>
        <time>2020-02-22T13:51:16.000Z</time>
      </trkpt>
      <trkpt lat="37.85196888260543346405029296875" lon="-1.57118531875312328338623046875">
        <ele>1167</ele>
        <time>2020-02-22T13:51:21.000Z</time>
      </trkpt>
      <trkpt lat="37.85200341604650020599365234375" lon="-1.5711664594709873199462890625">
        <ele>1167.4000244140625</ele>
        <time>2020-02-22T13:51:23.000Z</time>
      </trkpt>
      <trkpt lat="37.85209159366786479949951171875" lon="-1.5710893459618091583251953125">
        <ele>1168</ele>
        <time>2020-02-22T13:51:28.000Z</time>
      </trkpt>
      <trkpt lat="37.85212310962378978729248046875" lon="-1.57107199542224407196044921875">
        <ele>1168.4000244140625</ele>
        <time>2020-02-22T13:51:30.000Z</time>
      </trkpt>
      <trkpt lat="37.85220659337937831878662109375" lon="-1.57100695185363292694091796875">
        <ele>1169.4000244140625</ele>
        <time>2020-02-22T13:51:34.000Z</time>
      </trkpt>
      <trkpt lat="37.852272056043148040771484375" lon="-1.570967473089694976806640625">
        <ele>1170</ele>
        <time>2020-02-22T13:51:37.000Z</time>
      </trkpt>
      <trkpt lat="37.85231723450124263763427734375" lon="-1.57093537040054798126220703125">
        <ele>1170.5999755859375</ele>
        <time>2020-02-22T13:51:39.000Z</time>
      </trkpt>
      <trkpt lat="37.85241262055933475494384765625" lon="-1.57092816196382045745849609375">
        <ele>1171.5999755859375</ele>
        <time>2020-02-22T13:51:43.000Z</time>
      </trkpt>
      <trkpt lat="37.8524274565279483795166015625" lon="-1.5709445066750049591064453125">
        <ele>1171.800048828125</ele>
        <time>2020-02-22T13:51:44.000Z</time>
      </trkpt>
      <trkpt lat="37.85242435522377490997314453125" lon="-1.5709994919598102569580078125">
        <ele>1172.5999755859375</ele>
        <time>2020-02-22T13:51:47.000Z</time>
      </trkpt>
      <trkpt lat="37.85241513513028621673583984375" lon="-1.57101751305162906646728515625">
        <ele>1172.800048828125</ele>
        <time>2020-02-22T13:51:48.000Z</time>
      </trkpt>
      <trkpt lat="37.8523942641913890838623046875" lon="-1.571073420345783233642578125">
        <ele>1173.4000244140625</ele>
        <time>2020-02-22T13:51:50.000Z</time>
      </trkpt>
      <trkpt lat="37.85235813818871974945068359375" lon="-1.571154557168483734130859375">
        <ele>1174</ele>
        <time>2020-02-22T13:51:53.000Z</time>
      </trkpt>
      <trkpt lat="37.8523429669439792633056640625" lon="-1.57117970287799835205078125">
        <ele>1174.199951171875</ele>
        <time>2020-02-22T13:51:54.000Z</time>
      </trkpt>
      <trkpt lat="37.85232293419539928436279296875" lon="-1.571326218545436859130859375">
        <ele>1175</ele>
        <time>2020-02-22T13:51:59.000Z</time>
      </trkpt>
      <trkpt lat="37.8523407876491546630859375" lon="-1.5713505260646343231201171875">
        <ele>1175.4000244140625</ele>
        <time>2020-02-22T13:52:00.000Z</time>
      </trkpt>
      <trkpt lat="37.85238512791693210601806640625" lon="-1.57135806977748870849609375">
        <ele>1175.5999755859375</ele>
        <time>2020-02-22T13:52:02.000Z</time>
      </trkpt>
      <trkpt lat="37.85243927501142024993896484375" lon="-1.57131087966263294219970703125">
        <ele>1176.199951171875</ele>
        <time>2020-02-22T13:52:05.000Z</time>
      </trkpt>
      <trkpt lat="37.85245570354163646697998046875" lon="-1.5712901763617992401123046875">
        <ele>1176.800048828125</ele>
        <time>2020-02-22T13:52:06.000Z</time>
      </trkpt>
      <trkpt lat="37.8524727188050746917724609375" lon="-1.571267545223236083984375">
        <ele>1176.800048828125</ele>
        <time>2020-02-22T13:52:07.000Z</time>
      </trkpt>
      <trkpt lat="37.8525209985673427581787109375" lon="-1.57120627351105213165283203125">
        <ele>1177.5999755859375</ele>
        <time>2020-02-22T13:52:10.000Z</time>
      </trkpt>
      <trkpt lat="37.8525867126882076263427734375" lon="-1.5711463429033756256103515625">
        <ele>1178.199951171875</ele>
        <time>2020-02-22T13:52:13.000Z</time>
      </trkpt>
      <trkpt lat="37.85265552811324596405029296875" lon="-1.57109697349369525909423828125">
        <ele>1178.800048828125</ele>
        <time>2020-02-22T13:52:16.000Z</time>
      </trkpt>
      <trkpt lat="37.85276784561574459075927734375" lon="-1.5710320137441158294677734375">
        <ele>1179.4000244140625</ele>
        <time>2020-02-22T13:52:20.000Z</time>
      </trkpt>
      <trkpt lat="37.85281897522509098052978515625" lon="-1.5709979832172393798828125">
        <ele>1179.800048828125</ele>
        <time>2020-02-22T13:52:22.000Z</time>
      </trkpt>
      <trkpt lat="37.8529229946434497833251953125" lon="-1.57090050168335437774658203125">
        <ele>1180.5999755859375</ele>
        <time>2020-02-22T13:52:27.000Z</time>
      </trkpt>
      <trkpt lat="37.85294252447783946990966796875" lon="-1.5708854980766773223876953125">
        <ele>1180.800048828125</ele>
        <time>2020-02-22T13:52:28.000Z</time>
      </trkpt>
      <trkpt lat="37.85308887250721454620361328125" lon="-1.57078005373477935791015625">
        <ele>1182</ele>
        <time>2020-02-22T13:52:34.000Z</time>
      </trkpt>
      <trkpt lat="37.8532156907021999359130859375" lon="-1.57067452557384967803955078125">
        <ele>1183.199951171875</ele>
        <time>2020-02-22T13:52:40.000Z</time>
      </trkpt>
      <trkpt lat="37.853241674602031707763671875" lon="-1.57063789665699005126953125">
        <ele>1183.800048828125</ele>
        <time>2020-02-22T13:52:42.000Z</time>
      </trkpt>
      <trkpt lat="37.85327075980603694915771484375" lon="-1.5705961547791957855224609375">
        <ele>1184.4000244140625</ele>
        <time>2020-02-22T13:52:45.000Z</time>
      </trkpt>
      <trkpt lat="37.85330076701939105987548828125" lon="-1.57053102739155292510986328125">
        <ele>1185.199951171875</ele>
        <time>2020-02-22T13:52:48.000Z</time>
      </trkpt>
      <trkpt lat="37.85334586165845394134521484375" lon="-1.5704707615077495574951171875">
        <ele>1185.4000244140625</ele>
        <time>2020-02-22T13:52:51.000Z</time>
      </trkpt>
      <trkpt lat="37.85338676534593105316162109375" lon="-1.57041535712778568267822265625">
        <ele>1186</ele>
        <time>2020-02-22T13:52:54.000Z</time>
      </trkpt>
      <trkpt lat="37.85341341979801654815673828125" lon="-1.5703768841922283172607421875">
        <ele>1186.4000244140625</ele>
        <time>2020-02-22T13:52:56.000Z</time>
      </trkpt>
      <trkpt lat="37.85346538759768009185791015625" lon="-1.5703128464519977569580078125">
        <ele>1187.199951171875</ele>
        <time>2020-02-22T13:53:00.000Z</time>
      </trkpt>
      <trkpt lat="37.85351115278899669647216796875" lon="-1.57025568187236785888671875">
        <ele>1187.800048828125</ele>
        <time>2020-02-22T13:53:03.000Z</time>
      </trkpt>
      <trkpt lat="37.85359597764909267425537109375" lon="-1.57017362304031848907470703125">
        <ele>1188.4000244140625</ele>
        <time>2020-02-22T13:53:07.000Z</time>
      </trkpt>
      <trkpt lat="37.8536344505846500396728515625" lon="-1.5701415203511714935302734375">
        <ele>1189</ele>
        <time>2020-02-22T13:53:09.000Z</time>
      </trkpt>
      <trkpt lat="37.85367644391953945159912109375" lon="-1.57008661888539791107177734375">
        <ele>1189.5999755859375</ele>
        <time>2020-02-22T13:53:12.000Z</time>
      </trkpt>
      <trkpt lat="37.85368516109883785247802734375" lon="-1.570064239203929901123046875">
        <ele>1189.800048828125</ele>
        <time>2020-02-22T13:53:13.000Z</time>
      </trkpt>
      <trkpt lat="37.8537035174667835235595703125" lon="-1.57001503743231296539306640625">
        <ele>1190.4000244140625</ele>
        <time>2020-02-22T13:53:15.000Z</time>
      </trkpt>
      <trkpt lat="37.85374282859265804290771484375" lon="-1.5699021331965923309326171875">
        <ele>1191.199951171875</ele>
        <time>2020-02-22T13:53:19.000Z</time>
      </trkpt>
      <trkpt lat="37.8537531383335590362548828125" lon="-1.56987212598323822021484375">
        <ele>1191.5999755859375</ele>
        <time>2020-02-22T13:53:20.000Z</time>
      </trkpt>
      <trkpt lat="37.8537796251475811004638671875" lon="-1.56973793171346187591552734375">
        <ele>1192.199951171875</ele>
        <time>2020-02-22T13:53:25.000Z</time>
      </trkpt>
      <trkpt lat="37.85378557629883289337158203125" lon="-1.56971127726137638092041015625">
        <ele>1192.199951171875</ele>
        <time>2020-02-22T13:53:26.000Z</time>
      </trkpt>
      <trkpt lat="37.8538074530661106109619140625" lon="-1.56962871551513671875">
        <ele>1193.4000244140625</ele>
        <time>2020-02-22T13:53:29.000Z</time>
      </trkpt>
      <trkpt lat="37.8538114763796329498291015625" lon="-1.56960030086338520050048828125">
        <ele>1193.4000244140625</ele>
        <time>2020-02-22T13:53:30.000Z</time>
      </trkpt>
      <trkpt lat="37.8538352809846401214599609375" lon="-1.56951178796589374542236328125">
        <ele>1193.800048828125</ele>
        <time>2020-02-22T13:53:33.000Z</time>
      </trkpt>
      <trkpt lat="37.85386403091251850128173828125" lon="-1.56941992230713367462158203125">
        <ele>1194.4000244140625</ele>
        <time>2020-02-22T13:53:36.000Z</time>
      </trkpt>
      <trkpt lat="37.85386336036026477813720703125" lon="-1.56936644576489925384521484375">
        <ele>1194.800048828125</ele>
        <time>2020-02-22T13:53:38.000Z</time>
      </trkpt>
      <trkpt lat="37.8538669645786285400390625" lon="-1.56933543272316455841064453125">
        <ele>1194.800048828125</ele>
        <time>2020-02-22T13:53:39.000Z</time>
      </trkpt>
      <trkpt lat="37.85389437340199947357177734375" lon="-1.56923376023769378662109375">
        <ele>1195.4000244140625</ele>
        <time>2020-02-22T13:53:42.000Z</time>
      </trkpt>
      <trkpt lat="37.85390409640967845916748046875" lon="-1.56919813714921474456787109375">
        <ele>1195.5999755859375</ele>
        <time>2020-02-22T13:53:43.000Z</time>
      </trkpt>
      <trkpt lat="37.8539113886654376983642578125" lon="-1.56916402280330657958984375">
        <ele>1196</ele>
        <time>2020-02-22T13:53:44.000Z</time>
      </trkpt>
      <trkpt lat="37.8539532981812953948974609375" lon="-1.56895908527076244354248046875">
        <ele>1196.4000244140625</ele>
        <time>2020-02-22T13:53:50.000Z</time>
      </trkpt>
      <trkpt lat="37.8539822995662689208984375" lon="-1.5688600949943065643310546875">
        <ele>1197</ele>
        <time>2020-02-22T13:53:53.000Z</time>
      </trkpt>
      <trkpt lat="37.854032255709171295166015625" lon="-1.56875540502369403839111328125">
        <ele>1197.4000244140625</ele>
        <time>2020-02-22T13:53:56.000Z</time>
      </trkpt>
      <trkpt lat="37.85411448217928409576416015625" lon="-1.5686787106096744537353515625">
        <ele>1197.800048828125</ele>
        <time>2020-02-22T13:53:59.000Z</time>
      </trkpt>
      <trkpt lat="37.85436945967376232147216796875" lon="-1.568568237125873565673828125">
        <ele>1198.4000244140625</ele>
        <time>2020-02-22T13:54:06.000Z</time>
      </trkpt>
      <trkpt lat="37.85440667532384395599365234375" lon="-1.568555496633052825927734375">
        <ele>1198.4000244140625</ele>
        <time>2020-02-22T13:54:07.000Z</time>
      </trkpt>
      <trkpt lat="37.8545564599335193634033203125" lon="-1.56850109808146953582763671875">
        <ele>1198.800048828125</ele>
        <time>2020-02-22T13:54:12.000Z</time>
      </trkpt>
      <trkpt lat="37.85458512604236602783203125" lon="-1.5684852562844753265380859375">
        <ele>1198.800048828125</ele>
        <time>2020-02-22T13:54:13.000Z</time>
      </trkpt>
      <trkpt lat="37.85467690788209438323974609375" lon="-1.56842314638197422027587890625">
        <ele>1199.4000244140625</ele>
        <time>2020-02-22T13:54:17.000Z</time>
      </trkpt>
      <trkpt lat="37.85469970665872097015380859375" lon="-1.56841032207012176513671875">
        <ele>1199.5999755859375</ele>
        <time>2020-02-22T13:54:18.000Z</time>
      </trkpt>
      <trkpt lat="37.85474563948810100555419921875" lon="-1.56839330680668354034423828125">
        <ele>1200</ele>
        <time>2020-02-22T13:54:20.000Z</time>
      </trkpt>
      <trkpt lat="37.8547931648790836334228515625" lon="-1.5683809854090213775634765625">
        <ele>1200.199951171875</ele>
        <time>2020-02-22T13:54:22.000Z</time>
      </trkpt>
      <trkpt lat="37.8548769839107990264892578125" lon="-1.56836212612688541412353515625">
        <ele>1200.5999755859375</ele>
        <time>2020-02-22T13:54:25.000Z</time>
      </trkpt>
      <trkpt lat="37.8549115173518657684326171875" lon="-1.5683565102517604827880859375">
        <ele>1200.800048828125</ele>
        <time>2020-02-22T13:54:27.000Z</time>
      </trkpt>
      <trkpt lat="37.85493238829076290130615234375" lon="-1.56834837980568408966064453125">
        <ele>1200.800048828125</ele>
        <time>2020-02-22T13:54:28.000Z</time>
      </trkpt>
      <trkpt lat="37.85495183430612087249755859375" lon="-1.56833983026444911956787109375">
        <ele>1200.800048828125</ele>
        <time>2020-02-22T13:54:29.000Z</time>
      </trkpt>
      <trkpt lat="37.85501017235219478607177734375" lon="-1.5683179534971714019775390625">
        <ele>1201.199951171875</ele>
        <time>2020-02-22T13:54:34.000Z</time>
      </trkpt>
      <trkpt lat="37.8550426103174686431884765625" lon="-1.56825609505176544189453125">
        <ele>1200.800048828125</ele>
        <time>2020-02-22T13:57:53.000Z</time>
      </trkpt>
      <trkpt lat="37.8550503216683864593505859375" lon="-1.5682378225028514862060546875">
        <ele>1200.800048828125</ele>
        <time>2020-02-22T13:57:54.000Z</time>
      </trkpt>
      <trkpt lat="37.8550712764263153076171875" lon="-1.56817940063774585723876953125">
        <ele>1200.800048828125</ele>
        <time>2020-02-22T13:57:57.000Z</time>
      </trkpt>
      <trkpt lat="37.85518728196620941162109375" lon="-1.5680675022304058074951171875">
        <ele>1200.800048828125</ele>
        <time>2020-02-22T13:58:02.000Z</time>
      </trkpt>
      <trkpt lat="37.85531829111278057098388671875" lon="-1.56799667514860630035400390625">
        <ele>1200.800048828125</ele>
        <time>2020-02-22T13:58:05.000Z</time>
      </trkpt>
      <trkpt lat="37.85541702993214130401611328125" lon="-1.56794370152056217193603515625">
        <ele>1200.800048828125</ele>
        <time>2020-02-22T13:58:07.000Z</time>
      </trkpt>
      <trkpt lat="37.85553487949073314666748046875" lon="-1.567877233028411865234375">
        <ele>1200.4000244140625</ele>
        <time>2020-02-22T13:58:09.000Z</time>
      </trkpt>
      <trkpt lat="37.85572146065533161163330078125" lon="-1.56777103431522846221923828125">
        <ele>1199.5999755859375</ele>
        <time>2020-02-22T13:58:12.000Z</time>
      </trkpt>
      <trkpt lat="37.85587552003562450408935546875" lon="-1.56761295162141323089599609375">
        <ele>1198.5999755859375</ele>
        <time>2020-02-22T13:58:15.000Z</time>
      </trkpt>
      <trkpt lat="37.855913825333118438720703125" lon="-1.56753122806549072265625">
        <ele>1198.199951171875</ele>
        <time>2020-02-22T13:58:16.000Z</time>
      </trkpt>
      <trkpt lat="37.85599152557551860809326171875" lon="-1.56734640710055828094482421875">
        <ele>1197.4000244140625</ele>
        <time>2020-02-22T13:58:18.000Z</time>
      </trkpt>
      <trkpt lat="37.856039889156818389892578125" lon="-1.567261330783367156982421875">
        <ele>1197</ele>
        <time>2020-02-22T13:58:19.000Z</time>
      </trkpt>
      <trkpt lat="37.856157235801219940185546875" lon="-1.56712428666651248931884765625">
        <ele>1196</ele>
        <time>2020-02-22T13:58:21.000Z</time>
      </trkpt>
      <trkpt lat="37.85628790967166423797607421875" lon="-1.5670100413262844085693359375">
        <ele>1195</ele>
        <time>2020-02-22T13:58:23.000Z</time>
      </trkpt>
      <trkpt lat="37.856357730925083160400390625" lon="-1.56695111654698848724365234375">
        <ele>1194.5999755859375</ele>
        <time>2020-02-22T13:58:24.000Z</time>
      </trkpt>
      <trkpt lat="37.8564192540943622589111328125" lon="-1.5668834745883941650390625">
        <ele>1194</ele>
        <time>2020-02-22T13:58:25.000Z</time>
      </trkpt>
      <trkpt lat="37.85652679391205310821533203125" lon="-1.566761434078216552734375">
        <ele>1193.199951171875</ele>
        <time>2020-02-22T13:58:27.000Z</time>
      </trkpt>
      <trkpt lat="37.856581024825572967529296875" lon="-1.566686667501926422119140625">
        <ele>1192.800048828125</ele>
        <time>2020-02-22T13:58:28.000Z</time>
      </trkpt>
      <trkpt lat="37.85662519745528697967529296875" lon="-1.56660594977438449859619140625">
        <ele>1192</ele>
        <time>2020-02-22T13:58:29.000Z</time>
      </trkpt>
      <trkpt lat="37.85666392184793949127197265625" lon="-1.5665138326585292816162109375">
        <ele>1191.800048828125</ele>
        <time>2020-02-22T13:58:30.000Z</time>
      </trkpt>
      <trkpt lat="37.856700383126735687255859375" lon="-1.56630470417439937591552734375">
        <ele>1191.199951171875</ele>
        <time>2020-02-22T13:58:32.000Z</time>
      </trkpt>
      <trkpt lat="37.85671756602823734283447265625" lon="-1.56619481742382049560546875">
        <ele>1191</ele>
        <time>2020-02-22T13:58:33.000Z</time>
      </trkpt>
      <trkpt lat="37.856739275157451629638671875" lon="-1.5660897083580493927001953125">
        <ele>1191</ele>
        <time>2020-02-22T13:58:34.000Z</time>
      </trkpt>
      <trkpt lat="37.8568403609097003936767578125" lon="-1.56578150577843189239501953125">
        <ele>1190.800048828125</ele>
        <time>2020-02-22T13:58:37.000Z</time>
      </trkpt>
      <trkpt lat="37.85689023323357105255126953125" lon="-1.56568394042551517486572265625">
        <ele>1190.5999755859375</ele>
        <time>2020-02-22T13:58:38.000Z</time>
      </trkpt>
      <trkpt lat="37.8570116870105266571044921875" lon="-1.56552418135106563568115234375">
        <ele>1189.800048828125</ele>
        <time>2020-02-22T13:58:40.000Z</time>
      </trkpt>
      <trkpt lat="37.8570817597210407257080078125" lon="-1.56544136814773082733154296875">
        <ele>1189.4000244140625</ele>
        <time>2020-02-22T13:58:41.000Z</time>
      </trkpt>
      <trkpt lat="37.8571484796702861785888671875" lon="-1.5653551183640956878662109375">
        <ele>1188.800048828125</ele>
        <time>2020-02-22T13:58:42.000Z</time>
      </trkpt>
      <trkpt lat="37.85722467117011547088623046875" lon="-1.56528479419648647308349609375">
        <ele>1188</ele>
        <time>2020-02-22T13:58:43.000Z</time>
      </trkpt>
      <trkpt lat="37.8572923131287097930908203125" lon="-1.565226204693317413330078125">
        <ele>1187.5999755859375</ele>
        <time>2020-02-22T13:58:44.000Z</time>
      </trkpt>
      <trkpt lat="37.85735182464122772216796875" lon="-1.56518655829131603240966796875">
        <ele>1187</ele>
        <time>2020-02-22T13:58:45.000Z</time>
      </trkpt>
      <trkpt lat="37.857411168515682220458984375" lon="-1.5651588141918182373046875">
        <ele>1186.4000244140625</ele>
        <time>2020-02-22T13:58:46.000Z</time>
      </trkpt>
      <trkpt lat="37.8576299361884593963623046875" lon="-1.5651408769190311431884765625">
        <ele>1185.199951171875</ele>
        <time>2020-02-22T13:58:49.000Z</time>
      </trkpt>
      <trkpt lat="37.857855744659900665283203125" lon="-1.565198712050914764404296875">
        <ele>1184.4000244140625</ele>
        <time>2020-02-22T13:58:52.000Z</time>
      </trkpt>
      <trkpt lat="37.85799161531031131744384765625" lon="-1.565236933529376983642578125">
        <ele>1184.4000244140625</ele>
        <time>2020-02-22T13:58:54.000Z</time>
      </trkpt>
      <trkpt lat="37.8582377918064594268798828125" lon="-1.56530189327895641326904296875">
        <ele>1184.199951171875</ele>
        <time>2020-02-22T13:58:57.000Z</time>
      </trkpt>
      <trkpt lat="37.85832722671329975128173828125" lon="-1.56531932763755321502685546875">
        <ele>1184.199951171875</ele>
        <time>2020-02-22T13:58:58.000Z</time>
      </trkpt>
      <trkpt lat="37.85884849727153778076171875" lon="-1.56547053717076778411865234375">
        <ele>1184.199951171875</ele>
        <time>2020-02-22T13:59:04.000Z</time>
      </trkpt>
      <trkpt lat="37.859232388436794281005859375" lon="-1.5655747242271900177001953125">
        <ele>1182.800048828125</ele>
        <time>2020-02-22T13:59:08.000Z</time>
      </trkpt>
      <trkpt lat="37.859328277409076690673828125" lon="-1.5655707009136676788330078125">
        <ele>1182.199951171875</ele>
        <time>2020-02-22T13:59:09.000Z</time>
      </trkpt>
      <trkpt lat="37.85942517220973968505859375" lon="-1.5655468963086605072021484375">
        <ele>1181.800048828125</ele>
        <time>2020-02-22T13:59:10.000Z</time>
      </trkpt>
      <trkpt lat="37.85961250774562358856201171875" lon="-1.56543918885290622711181640625">
        <ele>1180.800048828125</ele>
        <time>2020-02-22T13:59:12.000Z</time>
      </trkpt>
      <trkpt lat="37.859671600162982940673828125" lon="-1.5653599798679351806640625">
        <ele>1180.199951171875</ele>
        <time>2020-02-22T13:59:13.000Z</time>
      </trkpt>
      <trkpt lat="37.85978458821773529052734375" lon="-1.56516610644757747650146484375">
        <ele>1179</ele>
        <time>2020-02-22T13:59:15.000Z</time>
      </trkpt>
      <trkpt lat="37.85984418354928493499755859375" lon="-1.56506284140050411224365234375">
        <ele>1178.199951171875</ele>
        <time>2020-02-22T13:59:16.000Z</time>
      </trkpt>
      <trkpt lat="37.85991827957332134246826171875" lon="-1.5649658627808094024658203125">
        <ele>1178</ele>
        <time>2020-02-22T13:59:17.000Z</time>
      </trkpt>
      <trkpt lat="37.85999053157866001129150390625" lon="-1.5648843906819820404052734375">
        <ele>1177.4000244140625</ele>
        <time>2020-02-22T13:59:18.000Z</time>
      </trkpt>
      <trkpt lat="37.86006395705044269561767578125" lon="-1.56480987556278705596923828125">
        <ele>1177</ele>
        <time>2020-02-22T13:59:19.000Z</time>
      </trkpt>
      <trkpt lat="37.86024115048348903656005859375" lon="-1.56463645398616790771484375">
        <ele>1176.199951171875</ele>
        <time>2020-02-22T13:59:21.000Z</time>
      </trkpt>
      <trkpt lat="37.86031566560268402099609375" lon="-1.564534194767475128173828125">
        <ele>1175.5999755859375</ele>
        <time>2020-02-22T13:59:22.000Z</time>
      </trkpt>
      <trkpt lat="37.86039210855960845947265625" lon="-1.564424224197864532470703125">
        <ele>1175.4000244140625</ele>
        <time>2020-02-22T13:59:23.000Z</time>
      </trkpt>
      <trkpt lat="37.8605488501489162445068359375" lon="-1.5640394948422908782958984375">
        <ele>1173.5999755859375</ele>
        <time>2020-02-22T13:59:26.000Z</time>
      </trkpt>
      <trkpt lat="37.8605793602764606475830078125" lon="-1.56390488147735595703125">
        <ele>1172</ele>
        <time>2020-02-22T13:59:27.000Z</time>
      </trkpt>
      <trkpt lat="37.86059151403605937957763671875" lon="-1.5636344812810420989990234375">
        <ele>1169.800048828125</ele>
        <time>2020-02-22T13:59:29.000Z</time>
      </trkpt>
      <trkpt lat="37.86050735972821712493896484375" lon="-1.56338495202362537384033203125">
        <ele>1168.199951171875</ele>
        <time>2020-02-22T13:59:31.000Z</time>
      </trkpt>
      <trkpt lat="37.86045270971953868865966796875" lon="-1.5632703714072704315185546875">
        <ele>1167.199951171875</ele>
        <time>2020-02-22T13:59:32.000Z</time>
      </trkpt>
      <trkpt lat="37.86033771000802516937255859375" lon="-1.56301832757890224456787109375">
        <ele>1165.800048828125</ele>
        <time>2020-02-22T13:59:34.000Z</time>
      </trkpt>
      <trkpt lat="37.86025104112923145294189453125" lon="-1.56274608336389064788818359375">
        <ele>1164.5999755859375</ele>
        <time>2020-02-22T13:59:36.000Z</time>
      </trkpt>
      <trkpt lat="37.86022220738232135772705078125" lon="-1.5626051835715770721435546875">
        <ele>1164.199951171875</ele>
        <time>2020-02-22T13:59:37.000Z</time>
      </trkpt>
      <trkpt lat="37.86020259372889995574951171875" lon="-1.5624647028744220733642578125">
        <ele>1163.4000244140625</ele>
        <time>2020-02-22T13:59:38.000Z</time>
      </trkpt>
      <trkpt lat="37.8601969778537750244140625" lon="-1.56218164600431919097900390625">
        <ele>1161.800048828125</ele>
        <time>2020-02-22T13:59:40.000Z</time>
      </trkpt>
      <trkpt lat="37.8602125681936740875244140625" lon="-1.56203647144138813018798828125">
        <ele>1160.800048828125</ele>
        <time>2020-02-22T13:59:41.000Z</time>
      </trkpt>
      <trkpt lat="37.8602249734103679656982421875" lon="-1.56188182532787322998046875">
        <ele>1160</ele>
        <time>2020-02-22T13:59:42.000Z</time>
      </trkpt>
      <trkpt lat="37.86022589541971683502197265625" lon="-1.5617260895669460296630859375">
        <ele>1159.199951171875</ele>
        <time>2020-02-22T13:59:43.000Z</time>
      </trkpt>
      <trkpt lat="37.8602125681936740875244140625" lon="-1.561565659940242767333984375">
        <ele>1158.5999755859375</ele>
        <time>2020-02-22T13:59:44.000Z</time>
      </trkpt>
      <trkpt lat="37.8601914457976818084716796875" lon="-1.5613991953432559967041015625">
        <ele>1157.800048828125</ele>
        <time>2020-02-22T13:59:45.000Z</time>
      </trkpt>
      <trkpt lat="37.86017753183841705322265625" lon="-1.56122946180403232574462890625">
        <ele>1157.5999755859375</ele>
        <time>2020-02-22T13:59:46.000Z</time>
      </trkpt>
      <trkpt lat="37.86016973666846752166748046875" lon="-1.56106417067348957061767578125">
        <ele>1157</ele>
        <time>2020-02-22T13:59:47.000Z</time>
      </trkpt>
      <trkpt lat="37.8601924516260623931884765625" lon="-1.56074549071490764617919921875">
        <ele>1155.5999755859375</ele>
        <time>2020-02-22T13:59:49.000Z</time>
      </trkpt>
      <trkpt lat="37.8602139092981815338134765625" lon="-1.56060568057000637054443359375">
        <ele>1154.199951171875</ele>
        <time>2020-02-22T13:59:50.000Z</time>
      </trkpt>
      <trkpt lat="37.8602517955005168914794921875" lon="-1.5604805387556552886962890625">
        <ele>1152.800048828125</ele>
        <time>2020-02-22T13:59:51.000Z</time>
      </trkpt>
      <trkpt lat="37.86029546521604061126708984375" lon="-1.56037635169923305511474609375">
        <ele>1151.4000244140625</ele>
        <time>2020-02-22T13:59:52.000Z</time>
      </trkpt>
      <trkpt lat="37.8603379614651203155517578125" lon="-1.560294292867183685302734375">
        <ele>1149.800048828125</ele>
        <time>2020-02-22T13:59:53.000Z</time>
      </trkpt>
      <trkpt lat="37.86039034835994243621826171875" lon="-1.56023201532661914825439453125">
        <ele>1147.800048828125</ele>
        <time>2020-02-22T13:59:54.000Z</time>
      </trkpt>
      <trkpt lat="37.860455811023712158203125" lon="-1.5601747669279575347900390625">
        <ele>1146.199951171875</ele>
        <time>2020-02-22T13:59:55.000Z</time>
      </trkpt>
      <trkpt lat="37.86054474301636219024658203125" lon="-1.56011768616735935211181640625">
        <ele>1143.199951171875</ele>
        <time>2020-02-22T13:59:56.000Z</time>
      </trkpt>
      <trkpt lat="37.86063476465642452239990234375" lon="-1.5600679814815521240234375">
        <ele>1142</ele>
        <time>2020-02-22T13:59:57.000Z</time>
      </trkpt>
      <trkpt lat="37.8607335872948169708251953125" lon="-1.5600071288645267486572265625">
        <ele>1141</ele>
        <time>2020-02-22T13:59:58.000Z</time>
      </trkpt>
      <trkpt lat="37.8608318231999874114990234375" lon="-1.5599231421947479248046875">
        <ele>1140</ele>
        <time>2020-02-22T13:59:59.000Z</time>
      </trkpt>
      <trkpt lat="37.8609042428433895111083984375" lon="-1.5598190389573574066162109375">
        <ele>1139.5999755859375</ele>
        <time>2020-02-22T14:00:00.000Z</time>
      </trkpt>
      <trkpt lat="37.8609491698443889617919921875" lon="-1.5597083978354930877685546875">
        <ele>1139</ele>
        <time>2020-02-22T14:00:01.000Z</time>
      </trkpt>
      <trkpt lat="37.8609987907111644744873046875" lon="-1.55960471369326114654541015625">
        <ele>1138.4000244140625</ele>
        <time>2020-02-22T14:00:02.000Z</time>
      </trkpt>
      <trkpt lat="37.8610816039144992828369140625" lon="-1.559517793357372283935546875">
        <ele>1137.5999755859375</ele>
        <time>2020-02-22T14:00:03.000Z</time>
      </trkpt>
      <trkpt lat="37.86117405630648136138916015625" lon="-1.55947848223149776458740234375">
        <ele>1136.5999755859375</ele>
        <time>2020-02-22T14:00:04.000Z</time>
      </trkpt>
      <trkpt lat="37.86126382648944854736328125" lon="-1.55946942977607250213623046875">
        <ele>1135.4000244140625</ele>
        <time>2020-02-22T14:00:05.000Z</time>
      </trkpt>
      <trkpt lat="37.86134555004537105560302734375" lon="-1.5594559349119663238525390625">
        <ele>1134.4000244140625</ele>
        <time>2020-02-22T14:00:06.000Z</time>
      </trkpt>
      <trkpt lat="37.86141612567007541656494140625" lon="-1.5594106726348400115966796875">
        <ele>1133.4000244140625</ele>
        <time>2020-02-22T14:00:07.000Z</time>
      </trkpt>
      <trkpt lat="37.86145987920463085174560546875" lon="-1.55933531932532787322998046875">
        <ele>1132.4000244140625</ele>
        <time>2020-02-22T14:00:08.000Z</time>
      </trkpt>
      <trkpt lat="37.8615067340433597564697265625" lon="-1.5592460520565509796142578125">
        <ele>1131.199951171875</ele>
        <time>2020-02-22T14:00:09.000Z</time>
      </trkpt>
      <trkpt lat="37.86158242262899875640869140625" lon="-1.55904463492333889007568359375">
        <ele>1129.800048828125</ele>
        <time>2020-02-22T14:00:11.000Z</time>
      </trkpt>
      <trkpt lat="37.86164025776088237762451171875" lon="-1.5589416213333606719970703125">
        <ele>1129.4000244140625</ele>
        <time>2020-02-22T14:00:12.000Z</time>
      </trkpt>
      <trkpt lat="37.86170412786304950714111328125" lon="-1.5588383562862873077392578125">
        <ele>1129.199951171875</ele>
        <time>2020-02-22T14:00:13.000Z</time>
      </trkpt>
      <trkpt lat="37.86183647811412811279296875" lon="-1.5586291439831256866455078125">
        <ele>1128.4000244140625</ele>
        <time>2020-02-22T14:00:15.000Z</time>
      </trkpt>
      <trkpt lat="37.86195223219692707061767578125" lon="-1.5583786927163600921630859375">
        <ele>1127.199951171875</ele>
        <time>2020-02-22T14:00:17.000Z</time>
      </trkpt>
      <trkpt lat="37.861990034580230712890625" lon="-1.5582465939223766326904296875">
        <ele>1126.199951171875</ele>
        <time>2020-02-22T14:00:18.000Z</time>
      </trkpt>
      <trkpt lat="37.86202448420226573944091796875" lon="-1.5581104718148708343505859375">
        <ele>1125.199951171875</ele>
        <time>2020-02-22T14:00:19.000Z</time>
      </trkpt>
      <trkpt lat="37.86203957162797451019287109375" lon="-1.5579763613641262054443359375">
        <ele>1124.199951171875</ele>
        <time>2020-02-22T14:00:20.000Z</time>
      </trkpt>
      <trkpt lat="37.86201559938490390777587890625" lon="-1.55784585513174533843994140625">
        <ele>1123.4000244140625</ele>
        <time>2020-02-22T14:00:21.000Z</time>
      </trkpt>
      <trkpt lat="37.862017191946506500244140625" lon="-1.5575896203517913818359375">
        <ele>1121.5999755859375</ele>
        <time>2020-02-22T14:00:23.000Z</time>
      </trkpt>
      <trkpt lat="37.86204057745635509490966796875" lon="-1.557459868490695953369140625">
        <ele>1120</ele>
        <time>2020-02-22T14:00:24.000Z</time>
      </trkpt>
      <trkpt lat="37.8620619513094425201416015625" lon="-1.55732600949704647064208984375">
        <ele>1118</ele>
        <time>2020-02-22T14:00:25.000Z</time>
      </trkpt>
      <trkpt lat="37.8620891086757183074951171875" lon="-1.55703398399055004119873046875">
        <ele>1116.5999755859375</ele>
        <time>2020-02-22T14:00:27.000Z</time>
      </trkpt>
      <trkpt lat="37.86211601458489894866943359375" lon="-1.55672150664031505584716796875">
        <ele>1115.800048828125</ele>
        <time>2020-02-22T14:00:29.000Z</time>
      </trkpt>
      <trkpt lat="37.862134538590908050537109375" lon="-1.55656644143164157867431640625">
        <ele>1115</ele>
        <time>2020-02-22T14:00:30.000Z</time>
      </trkpt>
      <trkpt lat="37.86216395907104015350341796875" lon="-1.556259579956531524658203125">
        <ele>1113.800048828125</ele>
        <time>2020-02-22T14:00:32.000Z</time>
      </trkpt>
      <trkpt lat="37.86219044588506221771240234375" lon="-1.5561128966510295867919921875">
        <ele>1113</ele>
        <time>2020-02-22T14:00:33.000Z</time>
      </trkpt>
      <trkpt lat="37.862207628786563873291015625" lon="-1.55595816671848297119140625">
        <ele>1111.800048828125</ele>
        <time>2020-02-22T14:00:34.000Z</time>
      </trkpt>
      <trkpt lat="37.86219723522663116455078125" lon="-1.555806957185268402099609375">
        <ele>1110.5999755859375</ele>
        <time>2020-02-22T14:00:35.000Z</time>
      </trkpt>
      <trkpt lat="37.8621678985655307769775390625" lon="-1.555657088756561279296875">
        <ele>1109.4000244140625</ele>
        <time>2020-02-22T14:00:36.000Z</time>
      </trkpt>
      <trkpt lat="37.86213244311511516571044921875" lon="-1.55551417730748653411865234375">
        <ele>1108.199951171875</ele>
        <time>2020-02-22T14:00:37.000Z</time>
      </trkpt>
      <trkpt lat="37.86210679449141025543212890625" lon="-1.55537746846675872802734375">
        <ele>1107.199951171875</ele>
        <time>2020-02-22T14:00:38.000Z</time>
      </trkpt>
      <trkpt lat="37.8621367178857326507568359375" lon="-1.55511301942169666290283203125">
        <ele>1105.5999755859375</ele>
        <time>2020-02-22T14:00:40.000Z</time>
      </trkpt>
      <trkpt lat="37.86224476061761379241943359375" lon="-1.55486793257296085357666015625">
        <ele>1104</ele>
        <time>2020-02-22T14:00:42.000Z</time>
      </trkpt>
      <trkpt lat="37.862328998744487762451171875" lon="-1.55475762672722339630126953125">
        <ele>1103</ele>
        <time>2020-02-22T14:00:43.000Z</time>
      </trkpt>
      <trkpt lat="37.86241491325199604034423828125" lon="-1.554653942584991455078125">
        <ele>1102.4000244140625</ele>
        <time>2020-02-22T14:00:44.000Z</time>
      </trkpt>
      <trkpt lat="37.86249923519790172576904296875" lon="-1.55454455874860286712646484375">
        <ele>1101</ele>
        <time>2020-02-22T14:00:45.000Z</time>
      </trkpt>
      <trkpt lat="37.86257676780223846435546875" lon="-1.55442553572356700897216796875">
        <ele>1100</ele>
        <time>2020-02-22T14:00:46.000Z</time>
      </trkpt>
      <trkpt lat="37.86262915469706058502197265625" lon="-1.5542980469763278961181640625">
        <ele>1099.199951171875</ele>
        <time>2020-02-22T14:00:47.000Z</time>
      </trkpt>
      <trkpt lat="37.862665615975856781005859375" lon="-1.55415396206080913543701171875">
        <ele>1098.5999755859375</ele>
        <time>2020-02-22T14:00:48.000Z</time>
      </trkpt>
      <trkpt lat="37.8627150692045688629150390625" lon="-1.55386176891624927520751953125">
        <ele>1097.199951171875</ele>
        <time>2020-02-22T14:00:50.000Z</time>
      </trkpt>
      <trkpt lat="37.86275102756917476654052734375" lon="-1.55371961183845996856689453125">
        <ele>1096.5999755859375</ele>
        <time>2020-02-22T14:00:51.000Z</time>
      </trkpt>
      <trkpt lat="37.8627864830195903778076171875" lon="-1.5535798855125904083251953125">
        <ele>1095.800048828125</ele>
        <time>2020-02-22T14:00:52.000Z</time>
      </trkpt>
      <trkpt lat="37.862845994532108306884765625" lon="-1.553326584398746490478515625">
        <ele>1093</ele>
        <time>2020-02-22T14:00:54.000Z</time>
      </trkpt>
      <trkpt lat="37.86289989016950130462646484375" lon="-1.553227342665195465087890625">
        <ele>1092</ele>
        <time>2020-02-22T14:00:55.000Z</time>
      </trkpt>
      <trkpt lat="37.862963341176509857177734375" lon="-1.55314126051962375640869140625">
        <ele>1091</ele>
        <time>2020-02-22T14:00:56.000Z</time>
      </trkpt>
      <trkpt lat="37.86301572807133197784423828125" lon="-1.55305157415568828582763671875">
        <ele>1089.800048828125</ele>
        <time>2020-02-22T14:00:57.000Z</time>
      </trkpt>
      <trkpt lat="37.86305679939687252044677734375" lon="-1.55295166186988353729248046875">
        <ele>1088.800048828125</ele>
        <time>2020-02-22T14:00:58.000Z</time>
      </trkpt>
      <trkpt lat="37.86305746994912624359130859375" lon="-1.552751921117305755615234375">
        <ele>1086.800048828125</ele>
        <time>2020-02-22T14:01:00.000Z</time>
      </trkpt>
      <trkpt lat="37.8630714677274227142333984375" lon="-1.5526525117456912994384765625">
        <ele>1086.199951171875</ele>
        <time>2020-02-22T14:01:01.000Z</time>
      </trkpt>
      <trkpt lat="37.863163836300373077392578125" lon="-1.55242578126490116119384765625">
        <ele>1085</ele>
        <time>2020-02-22T14:01:03.000Z</time>
      </trkpt>
      <trkpt lat="37.86327757872641086578369140625" lon="-1.5521811135113239288330078125">
        <ele>1083.5999755859375</ele>
        <time>2020-02-22T14:01:05.000Z</time>
      </trkpt>
      <trkpt lat="37.8632977791130542755126953125" lon="-1.5520600788295269012451171875">
        <ele>1082.5999755859375</ele>
        <time>2020-02-22T14:01:06.000Z</time>
      </trkpt>
      <trkpt lat="37.863282524049282073974609375" lon="-1.55194566585123538970947265625">
        <ele>1081.4000244140625</ele>
        <time>2020-02-22T14:01:07.000Z</time>
      </trkpt>
      <trkpt lat="37.86324706859886646270751953125" lon="-1.5518496930599212646484375">
        <ele>1080.4000244140625</ele>
        <time>2020-02-22T14:01:08.000Z</time>
      </trkpt>
      <trkpt lat="37.86317347548902034759521484375" lon="-1.5517784468829631805419921875">
        <ele>1079.4000244140625</ele>
        <time>2020-02-22T14:01:09.000Z</time>
      </trkpt>
      <trkpt lat="37.86308999173343181610107421875" lon="-1.55171315185725688934326171875">
        <ele>1078.4000244140625</ele>
        <time>2020-02-22T14:01:10.000Z</time>
      </trkpt>
      <trkpt lat="37.86300818435847759246826171875" lon="-1.55164676718413829803466796875">
        <ele>1077.5999755859375</ele>
        <time>2020-02-22T14:01:11.000Z</time>
      </trkpt>
      <trkpt lat="37.86293291486799716949462890625" lon="-1.5515734255313873291015625">
        <ele>1076.800048828125</ele>
        <time>2020-02-22T14:01:12.000Z</time>
      </trkpt>
      <trkpt lat="37.8628639318048954010009765625" lon="-1.55148231424391269683837890625">
        <ele>1076.199951171875</ele>
        <time>2020-02-22T14:01:13.000Z</time>
      </trkpt>
      <trkpt lat="37.86280903033912181854248046875" lon="-1.551371924579143524169921875">
        <ele>1075.800048828125</ele>
        <time>2020-02-22T14:01:14.000Z</time>
      </trkpt>
      <trkpt lat="37.86274264566600322723388671875" lon="-1.551127843558788299560546875">
        <ele>1075.4000244140625</ele>
        <time>2020-02-22T14:01:16.000Z</time>
      </trkpt>
      <trkpt lat="37.86270643584430217742919921875" lon="-1.551004461944103240966796875">
        <ele>1074.800048828125</ele>
        <time>2020-02-22T14:01:17.000Z</time>
      </trkpt>
      <trkpt lat="37.86266284994781017303466796875" lon="-1.5508923120796680450439453125">
        <ele>1074</ele>
        <time>2020-02-22T14:01:18.000Z</time>
      </trkpt>
      <trkpt lat="37.86261959932744503021240234375" lon="-1.550780832767486572265625">
        <ele>1072.800048828125</ele>
        <time>2020-02-22T14:01:19.000Z</time>
      </trkpt>
      <trkpt lat="37.8625494427978992462158203125" lon="-1.550571285188198089599609375">
        <ele>1071</ele>
        <time>2020-02-22T14:01:21.000Z</time>
      </trkpt>
      <trkpt lat="37.86253494210541248321533203125" lon="-1.550472043454647064208984375">
        <ele>1070</ele>
        <time>2020-02-22T14:01:22.000Z</time>
      </trkpt>
      <trkpt lat="37.86253611557185649871826171875" lon="-1.55036936514079570770263671875">
        <ele>1068</ele>
        <time>2020-02-22T14:01:23.000Z</time>
      </trkpt>
      <trkpt lat="37.8625001572072505950927734375" lon="-1.55013182200491428375244140625">
        <ele>1066.800048828125</ele>
        <time>2020-02-22T14:01:25.000Z</time>
      </trkpt>
      <trkpt lat="37.86247978918254375457763671875" lon="-1.5500096976757049560546875">
        <ele>1066.5999755859375</ele>
        <time>2020-02-22T14:01:26.000Z</time>
      </trkpt>
      <trkpt lat="37.86247123964130878448486328125" lon="-1.54987617395818233489990234375">
        <ele>1066.199951171875</ele>
        <time>2020-02-22T14:01:27.000Z</time>
      </trkpt>
      <trkpt lat="37.86248959600925445556640625" lon="-1.549583561718463897705078125">
        <ele>1065.800048828125</ele>
        <time>2020-02-22T14:01:29.000Z</time>
      </trkpt>
      <trkpt lat="37.86254215054214000701904296875" lon="-1.54915516264736652374267578125">
        <ele>1065</ele>
        <time>2020-02-22T14:01:32.000Z</time>
      </trkpt>
      <trkpt lat="37.86255790852010250091552734375" lon="-1.54902599751949310302734375">
        <ele>1064.199951171875</ele>
        <time>2020-02-22T14:01:33.000Z</time>
      </trkpt>
      <trkpt lat="37.862579785287380218505859375" lon="-1.54889322817325592041015625">
        <ele>1063.199951171875</ele>
        <time>2020-02-22T14:01:34.000Z</time>
      </trkpt>
      <trkpt lat="37.86259663291275501251220703125" lon="-1.5487619675695896148681640625">
        <ele>1062</ele>
        <time>2020-02-22T14:01:35.000Z</time>
      </trkpt>
      <trkpt lat="37.8626017458736896514892578125" lon="-1.54863707721233367919921875">
        <ele>1061.199951171875</ele>
        <time>2020-02-22T14:01:36.000Z</time>
      </trkpt>
      <trkpt lat="37.8625923581421375274658203125" lon="-1.5485185571014881134033203125">
        <ele>1060.800048828125</ele>
        <time>2020-02-22T14:01:37.000Z</time>
      </trkpt>
      <trkpt lat="37.86256872117519378662109375" lon="-1.54840640723705291748046875">
        <ele>1060.4000244140625</ele>
        <time>2020-02-22T14:01:38.000Z</time>
      </trkpt>
      <trkpt lat="37.8624957986176013946533203125" lon="-1.5481923334300518035888671875">
        <ele>1060</ele>
        <time>2020-02-22T14:01:40.000Z</time>
      </trkpt>
      <trkpt lat="37.86243268288671970367431640625" lon="-1.547978259623050689697265625">
        <ele>1059.800048828125</ele>
        <time>2020-02-22T14:01:42.000Z</time>
      </trkpt>
      <trkpt lat="37.86241256631910800933837890625" lon="-1.54787122271955013275146484375">
        <ele>1059.5999755859375</ele>
        <time>2020-02-22T14:01:43.000Z</time>
      </trkpt>
      <trkpt lat="37.86244458518922328948974609375" lon="-1.54756578616797924041748046875">
        <ele>1059.4000244140625</ele>
        <time>2020-02-22T14:01:46.000Z</time>
      </trkpt>
      <trkpt lat="37.8624253906309604644775390625" lon="-1.547236628830432891845703125">
        <ele>1058.800048828125</ele>
        <time>2020-02-22T14:01:49.000Z</time>
      </trkpt>
      <trkpt lat="37.86232405342161655426025390625" lon="-1.54703387059271335601806640625">
        <ele>1058.5999755859375</ele>
        <time>2020-02-22T14:01:51.000Z</time>
      </trkpt>
      <trkpt lat="37.86220905371010303497314453125" lon="-1.5466993488371372222900390625">
        <ele>1058.199951171875</ele>
        <time>2020-02-22T14:01:54.000Z</time>
      </trkpt>
      <trkpt lat="37.862236797809600830078125" lon="-1.54630296863615512847900390625">
        <ele>1057.800048828125</ele>
        <time>2020-02-22T14:01:57.000Z</time>
      </trkpt>
      <trkpt lat="37.8622500412166118621826171875" lon="-1.546189896762371063232421875">
        <ele>1057.4000244140625</ele>
        <time>2020-02-22T14:01:58.000Z</time>
      </trkpt>
      <trkpt lat="37.862243168056011199951171875" lon="-1.546097695827484130859375">
        <ele>1057</ele>
        <time>2020-02-22T14:01:59.000Z</time>
      </trkpt>
      <trkpt lat="37.86221743561327457427978515625" lon="-1.546028293669223785400390625">
        <ele>1056.199951171875</ele>
        <time>2020-02-22T14:02:00.000Z</time>
      </trkpt>
      <trkpt lat="37.86213914863765239715576171875" lon="-1.545952856540679931640625">
        <ele>1054.4000244140625</ele>
        <time>2020-02-22T14:02:02.000Z</time>
      </trkpt>
      <trkpt lat="37.86209405399858951568603515625" lon="-1.5459677763283252716064453125">
        <ele>1053.5999755859375</ele>
        <time>2020-02-22T14:02:03.000Z</time>
      </trkpt>
      <trkpt lat="37.8620450198650360107421875" lon="-1.54604011215269565582275390625">
        <ele>1052.4000244140625</ele>
        <time>2020-02-22T14:02:04.000Z</time>
      </trkpt>
      <trkpt lat="37.86199145950376987457275390625" lon="-1.54614220373332500457763671875">
        <ele>1051</ele>
        <time>2020-02-22T14:02:05.000Z</time>
      </trkpt>
      <trkpt lat="37.86186489276587963104248046875" lon="-1.5463268570601940155029296875">
        <ele>1049.5999755859375</ele>
        <time>2020-02-22T14:02:07.000Z</time>
      </trkpt>
      <trkpt lat="37.86181191913783550262451171875" lon="-1.54642827808856964111328125">
        <ele>1049.199951171875</ele>
        <time>2020-02-22T14:02:08.000Z</time>
      </trkpt>
      <trkpt lat="37.86178140901029109954833984375" lon="-1.54654755257070064544677734375">
        <ele>1048.800048828125</ele>
        <time>2020-02-22T14:02:09.000Z</time>
      </trkpt>
      <trkpt lat="37.861753664910793304443359375" lon="-1.546749807894229888916015625">
        <ele>1048.4000244140625</ele>
        <time>2020-02-22T14:02:11.000Z</time>
      </trkpt>
      <trkpt lat="37.8617243282496929168701171875" lon="-1.5468247421085834503173828125">
        <ele>1047.5999755859375</ele>
        <time>2020-02-22T14:02:12.000Z</time>
      </trkpt>
      <trkpt lat="37.86167898215353488922119140625" lon="-1.54685500077903270721435546875">
        <ele>1046.800048828125</ele>
        <time>2020-02-22T14:02:13.000Z</time>
      </trkpt>
      <trkpt lat="37.86165534518659114837646484375" lon="-1.54684133827686309814453125">
        <ele>1045.5999755859375</ele>
        <time>2020-02-22T14:02:14.000Z</time>
      </trkpt>
      <trkpt lat="37.86163388751447200775146484375" lon="-1.54681761749088764190673828125">
        <ele>1044.4000244140625</ele>
        <time>2020-02-22T14:02:15.000Z</time>
      </trkpt>
      <trkpt lat="37.86158124916255474090576171875" lon="-1.546661965548992156982421875">
        <ele>1042.800048828125</ele>
        <time>2020-02-22T14:02:17.000Z</time>
      </trkpt>
      <trkpt lat="37.86161921918392181396484375" lon="-1.5464235842227935791015625">
        <ele>1041.5999755859375</ele>
        <time>2020-02-22T14:02:19.000Z</time>
      </trkpt>
      <trkpt lat="37.86162567324936389923095703125" lon="-1.5463362447917461395263671875">
        <ele>1041.199951171875</ele>
        <time>2020-02-22T14:02:20.000Z</time>
      </trkpt>
      <trkpt lat="37.8616398386657238006591796875" lon="-1.54625921510159969329833984375">
        <ele>1040.4000244140625</ele>
        <time>2020-02-22T14:02:21.000Z</time>
      </trkpt>
      <trkpt lat="37.86166808567941188812255859375" lon="-1.54614672996103763580322265625">
        <ele>1039.4000244140625</ele>
        <time>2020-02-22T14:02:23.000Z</time>
      </trkpt>
      <trkpt lat="37.8617072291672229766845703125" lon="-1.5460469014942646026611328125">
        <ele>1037.4000244140625</ele>
        <time>2020-02-22T14:02:25.000Z</time>
      </trkpt>
      <trkpt lat="37.86174100823700428009033203125" lon="-1.54599568806588649749755859375">
        <ele>1036.800048828125</ele>
        <time>2020-02-22T14:02:26.000Z</time>
      </trkpt>
      <trkpt lat="37.86175207234919071197509765625" lon="-1.5459461510181427001953125">
        <ele>1036.4000244140625</ele>
        <time>2020-02-22T14:02:27.000Z</time>
      </trkpt>
      <trkpt lat="37.86178928799927234649658203125" lon="-1.54587716795504093170166015625">
        <ele>1036.4000244140625</ele>
        <time>2020-02-22T14:02:28.000Z</time>
      </trkpt>
      <trkpt lat="37.86196262575685977935791015625" lon="-1.54566309414803981781005859375">
        <ele>1036.199951171875</ele>
        <time>2020-02-22T14:02:31.000Z</time>
      </trkpt>
      <trkpt lat="37.86204225383698940277099609375" lon="-1.5453424863517284393310546875">
        <ele>1036.199951171875</ele>
        <time>2020-02-22T14:02:34.000Z</time>
      </trkpt>
      <trkpt lat="37.8620998375117778778076171875" lon="-1.54525070451200008392333984375">
        <ele>1036.199951171875</ele>
        <time>2020-02-22T14:02:35.000Z</time>
      </trkpt>
      <trkpt lat="37.86218918859958648681640625" lon="-1.54509798623621463775634765625">
        <ele>1036.199951171875</ele>
        <time>2020-02-22T14:02:37.000Z</time>
      </trkpt>
      <trkpt lat="37.86222137510776519775390625" lon="-1.5448104031383991241455078125">
        <ele>1036.199951171875</ele>
        <time>2020-02-22T14:02:40.000Z</time>
      </trkpt>
      <trkpt lat="37.86221575923264026641845703125" lon="-1.5447056293487548828125">
        <ele>1036.199951171875</ele>
        <time>2020-02-22T14:02:41.000Z</time>
      </trkpt>
      <trkpt lat="37.86222011782228946685791015625" lon="-1.5445820800960063934326171875">
        <ele>1036.199951171875</ele>
        <time>2020-02-22T14:02:42.000Z</time>
      </trkpt>
      <trkpt lat="37.86226135678589344024658203125" lon="-1.544330120086669921875">
        <ele>1036.199951171875</ele>
        <time>2020-02-22T14:02:44.000Z</time>
      </trkpt>
      <trkpt lat="37.86231969483196735382080078125" lon="-1.54394312761723995208740234375">
        <ele>1035.5999755859375</ele>
        <time>2020-02-22T14:02:47.000Z</time>
      </trkpt>
      <trkpt lat="37.8622802160680294036865234375" lon="-1.5438042394816875457763671875">
        <ele>1034.800048828125</ele>
        <time>2020-02-22T14:02:48.000Z</time>
      </trkpt>
      <trkpt lat="37.86216412670910358428955078125" lon="-1.54354515485465526580810546875">
        <ele>1033.199951171875</ele>
        <time>2020-02-22T14:02:50.000Z</time>
      </trkpt>
      <trkpt lat="37.86210830323398113250732421875" lon="-1.5434055961668491363525390625">
        <ele>1032.5999755859375</ele>
        <time>2020-02-22T14:02:51.000Z</time>
      </trkpt>
      <trkpt lat="37.86206672899425029754638671875" lon="-1.54326352290809154510498046875">
        <ele>1031.800048828125</ele>
        <time>2020-02-22T14:02:52.000Z</time>
      </trkpt>
      <trkpt lat="37.8620136715471744537353515625" lon="-1.5429844893515110015869140625">
        <ele>1030.199951171875</ele>
        <time>2020-02-22T14:02:54.000Z</time>
      </trkpt>
      <trkpt lat="37.86204393021762371063232421875" lon="-1.54268098063766956329345703125">
        <ele>1028.199951171875</ele>
        <time>2020-02-22T14:02:56.000Z</time>
      </trkpt>
      <trkpt lat="37.86207829602062702178955078125" lon="-1.5425335429608821868896484375">
        <ele>1026.800048828125</ele>
        <time>2020-02-22T14:02:57.000Z</time>
      </trkpt>
      <trkpt lat="37.8621226362884044647216796875" lon="-1.54239281080663204193115234375">
        <ele>1025.4000244140625</ele>
        <time>2020-02-22T14:02:58.000Z</time>
      </trkpt>
      <trkpt lat="37.8621789626777172088623046875" lon="-1.54225182719528675079345703125">
        <ele>1023.79998779296875</ele>
        <time>2020-02-22T14:02:59.000Z</time>
      </trkpt>
      <trkpt lat="37.8622352890670299530029296875" lon="-1.54210547916591167449951171875">
        <ele>1022.5999755859375</ele>
        <time>2020-02-22T14:03:00.000Z</time>
      </trkpt>
      <trkpt lat="37.86229119636118412017822265625" lon="-1.54195644892752170562744140625">
        <ele>1021.5999755859375</ele>
        <time>2020-02-22T14:03:01.000Z</time>
      </trkpt>
      <trkpt lat="37.86235054023563861846923828125" lon="-1.54181177727878093719482421875">
        <ele>1020.4000244140625</ele>
        <time>2020-02-22T14:03:02.000Z</time>
      </trkpt>
      <trkpt lat="37.86250292323529720306396484375" lon="-1.54154556803405284881591796875">
        <ele>1018.4000244140625</ele>
        <time>2020-02-22T14:03:04.000Z</time>
      </trkpt>
      <trkpt lat="37.86259227432310581207275390625" lon="-1.541419588029384613037109375">
        <ele>1017.20001220703125</ele>
        <time>2020-02-22T14:03:05.000Z</time>
      </trkpt>
      <trkpt lat="37.86267341114580631256103515625" lon="-1.54128991998732089996337890625">
        <ele>1016</ele>
        <time>2020-02-22T14:03:06.000Z</time>
      </trkpt>
      <trkpt lat="37.86274499259889125823974609375" lon="-1.54115413315594196319580078125">
        <ele>1015</ele>
        <time>2020-02-22T14:03:07.000Z</time>
      </trkpt>
      <trkpt lat="37.8627812862396240234375" lon="-1.54099638573825359344482421875">
        <ele>1013.5999755859375</ele>
        <time>2020-02-22T14:03:08.000Z</time>
      </trkpt>
      <trkpt lat="37.86280148662626743316650390625" lon="-1.5408445894718170166015625">
        <ele>1012.20001220703125</ele>
        <time>2020-02-22T14:03:09.000Z</time>
      </trkpt>
      <trkpt lat="37.86280534230172634124755859375" lon="-1.54070436023175716400146484375">
        <ele>1011</ele>
        <time>2020-02-22T14:03:10.000Z</time>
      </trkpt>
      <trkpt lat="37.86281439475715160369873046875" lon="-1.5405825711786746978759765625">
        <ele>1009.5999755859375</ele>
        <time>2020-02-22T14:03:11.000Z</time>
      </trkpt>
      <trkpt lat="37.8628411330282688140869140625" lon="-1.5404846705496311187744140625">
        <ele>1008.20001220703125</ele>
        <time>2020-02-22T14:03:12.000Z</time>
      </trkpt>
      <trkpt lat="37.8628837130963802337646484375" lon="-1.540419124066829681396484375">
        <ele>1006.79998779296875</ele>
        <time>2020-02-22T14:03:13.000Z</time>
      </trkpt>
      <trkpt lat="37.8629397042095661163330078125" lon="-1.5403720177710056304931640625">
        <ele>1005.79998779296875</ele>
        <time>2020-02-22T14:03:14.000Z</time>
      </trkpt>
      <trkpt lat="37.86302008666098117828369140625" lon="-1.54026682488620281219482421875">
        <ele>1003.5999755859375</ele>
        <time>2020-02-22T14:03:16.000Z</time>
      </trkpt>
      <trkpt lat="37.86299787461757659912109375" lon="-1.54021502472460269927978515625">
        <ele>1002.5999755859375</ele>
        <time>2020-02-22T14:03:17.000Z</time>
      </trkpt>
      <trkpt lat="37.86295764148235321044921875" lon="-1.54016037471592426300048828125">
        <ele>1001.4000244140625</ele>
        <time>2020-02-22T14:03:18.000Z</time>
      </trkpt>
      <trkpt lat="37.862899638712406158447265625" lon="-1.5401138551533222198486328125">
        <ele>1000</ele>
        <time>2020-02-22T14:03:19.000Z</time>
      </trkpt>
      <trkpt lat="37.8626879118382930755615234375" lon="-1.5400766395032405853271484375">
        <ele>999.4000244140625</ele>
        <time>2020-02-22T14:03:21.000Z</time>
      </trkpt>
      <trkpt lat="37.86258774809539318084716796875" lon="-1.54004386626183986663818359375">
        <ele>999</ele>
        <time>2020-02-22T14:03:22.000Z</time>
      </trkpt>
      <trkpt lat="37.86248289048671722412109375" lon="-1.5400015376508235931396484375">
        <ele>998.5999755859375</ele>
        <time>2020-02-22T14:03:23.000Z</time>
      </trkpt>
      <trkpt lat="37.862367890775203704833984375" lon="-1.5399586223065853118896484375">
        <ele>998.4000244140625</ele>
        <time>2020-02-22T14:03:24.000Z</time>
      </trkpt>
      <trkpt lat="37.86225951276719570159912109375" lon="-1.53990908525884151458740234375">
        <ele>998.20001220703125</ele>
        <time>2020-02-22T14:03:25.000Z</time>
      </trkpt>
      <trkpt lat="37.86203873343765735626220703125" lon="-1.53981453739106655120849609375">
        <ele>997</ele>
        <time>2020-02-22T14:03:27.000Z</time>
      </trkpt>
      <trkpt lat="37.86186154000461101531982421875" lon="-1.53974211774766445159912109375">
        <ele>995.20001220703125</ele>
        <time>2020-02-22T14:03:29.000Z</time>
      </trkpt>
      <trkpt lat="37.861800603568553924560546875" lon="-1.5396136231720447540283203125">
        <ele>993.5999755859375</ele>
        <time>2020-02-22T14:03:31.000Z</time>
      </trkpt>
      <trkpt lat="37.8618366457521915435791015625" lon="-1.53944824822247028350830078125">
        <ele>991.79998779296875</ele>
        <time>2020-02-22T14:03:33.000Z</time>
      </trkpt>
      <trkpt lat="37.8618661500513553619384765625" lon="-1.53936342336237430572509765625">
        <ele>990.79998779296875</ele>
        <time>2020-02-22T14:03:34.000Z</time>
      </trkpt>
      <trkpt lat="37.8618708439171314239501953125" lon="-1.5392686240375041961669921875">
        <ele>989.79998779296875</ele>
        <time>2020-02-22T14:03:35.000Z</time>
      </trkpt>
      <trkpt lat="37.86184662021696567535400390625" lon="-1.53918790630996227264404296875">
        <ele>989</ele>
        <time>2020-02-22T14:03:36.000Z</time>
      </trkpt>
      <trkpt lat="37.8616525791585445404052734375" lon="-1.5389853157103061676025390625">
        <ele>988.20001220703125</ele>
        <time>2020-02-22T14:03:39.000Z</time>
      </trkpt>
      <trkpt lat="37.86157974041998386383056640625" lon="-1.53890962712466716766357421875">
        <ele>987.5999755859375</ele>
        <time>2020-02-22T14:03:40.000Z</time>
      </trkpt>
      <trkpt lat="37.86152123473584651947021484375" lon="-1.5388126485049724578857421875">
        <ele>986.5999755859375</ele>
        <time>2020-02-22T14:03:41.000Z</time>
      </trkpt>
      <trkpt lat="37.86147379316389560699462890625" lon="-1.53870351612567901611328125">
        <ele>985.5999755859375</ele>
        <time>2020-02-22T14:03:42.000Z</time>
      </trkpt>
      <trkpt lat="37.86146054975688457489013671875" lon="-1.5384767018258571624755859375">
        <ele>984.20001220703125</ele>
        <time>2020-02-22T14:03:44.000Z</time>
      </trkpt>
      <trkpt lat="37.8615268506109714508056640625" lon="-1.53834150172770023345947265625">
        <ele>983</ele>
        <time>2020-02-22T14:03:46.000Z</time>
      </trkpt>
      <trkpt lat="37.86165216006338596343994140625" lon="-1.53838274069130420684814453125">
        <ele>980.79998779296875</ele>
        <time>2020-02-22T14:03:48.000Z</time>
      </trkpt>
      <trkpt lat="37.86177788861095905303955078125" lon="-1.53846303932368755340576171875">
        <ele>979</ele>
        <time>2020-02-22T14:03:50.000Z</time>
      </trkpt>
      <trkpt lat="37.86183874122798442840576171875" lon="-1.53845683671534061431884765625">
        <ele>978.4000244140625</ele>
        <time>2020-02-22T14:03:51.000Z</time>
      </trkpt>
      <trkpt lat="37.86187059246003627777099609375" lon="-1.538417525589466094970703125">
        <ele>977.5999755859375</ele>
        <time>2020-02-22T14:03:52.000Z</time>
      </trkpt>
      <trkpt lat="37.8618926368653774261474609375" lon="-1.5383576788008213043212890625">
        <ele>977.20001220703125</ele>
        <time>2020-02-22T14:03:53.000Z</time>
      </trkpt>
      <trkpt lat="37.86188207566738128662109375" lon="-1.5382658131420612335205078125">
        <ele>976.5999755859375</ele>
        <time>2020-02-22T14:03:54.000Z</time>
      </trkpt>
      <trkpt lat="37.86187796853482723236083984375" lon="-1.5381625480949878692626953125">
        <ele>976.4000244140625</ele>
        <time>2020-02-22T14:03:55.000Z</time>
      </trkpt>
      <trkpt lat="37.8618725202977657318115234375" lon="-1.5380512364208698272705078125">
        <ele>975.79998779296875</ele>
        <time>2020-02-22T14:03:56.000Z</time>
      </trkpt>
      <trkpt lat="37.8618725202977657318115234375" lon="-1.53794989921152591705322265625">
        <ele>975.20001220703125</ele>
        <time>2020-02-22T14:03:57.000Z</time>
      </trkpt>
      <trkpt lat="37.86188744008541107177734375" lon="-1.53786356560885906219482421875">
        <ele>974.79998779296875</ele>
        <time>2020-02-22T14:03:58.000Z</time>
      </trkpt>
      <trkpt lat="37.8619288466870784759521484375" lon="-1.537794582545757293701171875">
        <ele>974.20001220703125</ele>
        <time>2020-02-22T14:03:59.000Z</time>
      </trkpt>
      <trkpt lat="37.86201082170009613037109375" lon="-1.53778083622455596923828125">
        <ele>973.20001220703125</ele>
        <time>2020-02-22T14:04:01.000Z</time>
      </trkpt>
      <trkpt lat="37.8620773740112781524658203125" lon="-1.5378765575587749481201171875">
        <ele>971.4000244140625</ele>
        <time>2020-02-22T14:04:03.000Z</time>
      </trkpt>
      <trkpt lat="37.8620907850563526153564453125" lon="-1.53795517981052398681640625">
        <ele>970.4000244140625</ele>
        <time>2020-02-22T14:04:04.000Z</time>
      </trkpt>
      <trkpt lat="37.86211517639458179473876953125" lon="-1.53803338296711444854736328125">
        <ele>969.5999755859375</ele>
        <time>2020-02-22T14:04:05.000Z</time>
      </trkpt>
      <trkpt lat="37.86217351444065570831298828125" lon="-1.5381068922579288482666015625">
        <ele>968.79998779296875</ele>
        <time>2020-02-22T14:04:07.000Z</time>
      </trkpt>
      <trkpt lat="37.86220259964466094970703125" lon="-1.538099013268947601318359375">
        <ele>968.5999755859375</ele>
        <time>2020-02-22T14:04:08.000Z</time>
      </trkpt>
      <trkpt lat="37.86221441812813282012939453125" lon="-1.538061797618865966796875">
        <ele>968</ele>
        <time>2020-02-22T14:04:09.000Z</time>
      </trkpt>
      <trkpt lat="37.86222732625901699066162109375" lon="-1.537904553115367889404296875">
        <ele>967</ele>
        <time>2020-02-22T14:04:11.000Z</time>
      </trkpt>
      <trkpt lat="37.86222137510776519775390625" lon="-1.53780723921954631805419921875">
        <ele>966.4000244140625</ele>
        <time>2020-02-22T14:04:12.000Z</time>
      </trkpt>
      <trkpt lat="37.86220603622496128082275390625" lon="-1.537700034677982330322265625">
        <ele>966</ele>
        <time>2020-02-22T14:04:13.000Z</time>
      </trkpt>
      <trkpt lat="37.86218742839992046356201171875" lon="-1.53759467415511608123779296875">
        <ele>965.5999755859375</ele>
        <time>2020-02-22T14:04:14.000Z</time>
      </trkpt>
      <trkpt lat="37.862150967121124267578125" lon="-1.53740289621055126190185546875">
        <ele>964.79998779296875</ele>
        <time>2020-02-22T14:04:16.000Z</time>
      </trkpt>
      <trkpt lat="37.862168736755847930908203125" lon="-1.53734288178384304046630859375">
        <ele>964.4000244140625</ele>
        <time>2020-02-22T14:04:17.000Z</time>
      </trkpt>
      <trkpt lat="37.86221341229975223541259765625" lon="-1.53731555677950382232666015625">
        <ele>963.5999755859375</ele>
        <time>2020-02-22T14:04:18.000Z</time>
      </trkpt>
      <trkpt lat="37.86230720579624176025390625" lon="-1.53738177381455898284912109375">
        <ele>962</ele>
        <time>2020-02-22T14:04:20.000Z</time>
      </trkpt>
      <trkpt lat="37.8623405657708644866943359375" lon="-1.5374517627060413360595703125">
        <ele>961.20001220703125</ele>
        <time>2020-02-22T14:04:21.000Z</time>
      </trkpt>
      <trkpt lat="37.86236931569874286651611328125" lon="-1.5375429578125476837158203125">
        <ele>960.4000244140625</ele>
        <time>2020-02-22T14:04:22.000Z</time>
      </trkpt>
      <trkpt lat="37.86241776309907436370849609375" lon="-1.53775133192539215087890625">
        <ele>959.20001220703125</ele>
        <time>2020-02-22T14:04:24.000Z</time>
      </trkpt>
      <trkpt lat="37.86244274117052555084228515625" lon="-1.537842191755771636962890625">
        <ele>959</ele>
        <time>2020-02-22T14:04:25.000Z</time>
      </trkpt>
      <trkpt lat="37.862510718405246734619140625" lon="-1.537940092384815216064453125">
        <ele>958.20001220703125</ele>
        <time>2020-02-22T14:04:27.000Z</time>
      </trkpt>
      <trkpt lat="37.86255556158721446990966796875" lon="-1.537926681339740753173828125">
        <ele>957.79998779296875</ele>
        <time>2020-02-22T14:04:28.000Z</time>
      </trkpt>
      <trkpt lat="37.8625849820673465728759765625" lon="-1.53789223171770572662353515625">
        <ele>957.20001220703125</ele>
        <time>2020-02-22T14:04:29.000Z</time>
      </trkpt>
      <trkpt lat="37.862596549093723297119140625" lon="-1.53784395195543766021728515625">
        <ele>956.5999755859375</ele>
        <time>2020-02-22T14:04:30.000Z</time>
      </trkpt>
      <trkpt lat="37.86261121742427349090576171875" lon="-1.5376981906592845916748046875">
        <ele>955.20001220703125</ele>
        <time>2020-02-22T14:04:32.000Z</time>
      </trkpt>
      <trkpt lat="37.86261641420423984527587890625" lon="-1.53748956508934497833251953125">
        <ele>954.5999755859375</ele>
        <time>2020-02-22T14:04:34.000Z</time>
      </trkpt>
      <trkpt lat="37.8626118041574954986572265625" lon="-1.5373706258833408355712890625">
        <ele>954.4000244140625</ele>
        <time>2020-02-22T14:04:35.000Z</time>
      </trkpt>
      <trkpt lat="37.86258925683796405792236328125" lon="-1.5372559614479541778564453125">
        <ele>954</ele>
        <time>2020-02-22T14:04:36.000Z</time>
      </trkpt>
      <trkpt lat="37.8625058569014072418212890625" lon="-1.5370304882526397705078125">
        <ele>953.20001220703125</ele>
        <time>2020-02-22T14:04:38.000Z</time>
      </trkpt>
      <trkpt lat="37.8624434955418109893798828125" lon="-1.536947004497051239013671875">
        <ele>952.5999755859375</ele>
        <time>2020-02-22T14:04:39.000Z</time>
      </trkpt>
      <trkpt lat="37.8623821400105953216552734375" lon="-1.53688967227935791015625">
        <ele>952.20001220703125</ele>
        <time>2020-02-22T14:04:40.000Z</time>
      </trkpt>
      <trkpt lat="37.8623328544199466705322265625" lon="-1.53683845885097980499267578125">
        <ele>951.4000244140625</ele>
        <time>2020-02-22T14:04:41.000Z</time>
      </trkpt>
      <trkpt lat="37.86229572258889675140380859375" lon="-1.5367429889738559722900390625">
        <ele>949.79998779296875</ele>
        <time>2020-02-22T14:04:43.000Z</time>
      </trkpt>
      <trkpt lat="37.86235305480659008026123046875" lon="-1.53670401312410831451416015625">
        <ele>947.79998779296875</ele>
        <time>2020-02-22T14:04:45.000Z</time>
      </trkpt>
      <trkpt lat="37.86243326961994171142578125" lon="-1.5367104671895503997802734375">
        <ele>947</ele>
        <time>2020-02-22T14:04:46.000Z</time>
      </trkpt>
      <trkpt lat="37.8625229559838771820068359375" lon="-1.53675623238086700439453125">
        <ele>945.4000244140625</ele>
        <time>2020-02-22T14:04:47.000Z</time>
      </trkpt>
      <trkpt lat="37.862615324556827545166015625" lon="-1.5367916040122509002685546875">
        <ele>945</ele>
        <time>2020-02-22T14:04:48.000Z</time>
      </trkpt>
      <trkpt lat="37.86269704811275005340576171875" lon="-1.5368281491100788116455078125">
        <ele>944.5999755859375</ele>
        <time>2020-02-22T14:04:49.000Z</time>
      </trkpt>
      <trkpt lat="37.86276360042393207550048828125" lon="-1.53686461038887500762939453125">
        <ele>944.4000244140625</ele>
        <time>2020-02-22T14:04:50.000Z</time>
      </trkpt>
      <trkpt lat="37.862807773053646087646484375" lon="-1.53688338585197925567626953125">
        <ele>944</ele>
        <time>2020-02-22T14:04:51.000Z</time>
      </trkpt>
      <trkpt lat="37.862890921533107757568359375" lon="-1.5367798693478107452392578125">
        <ele>942.79998779296875</ele>
        <time>2020-02-22T14:04:54.000Z</time>
      </trkpt>
      <trkpt lat="37.8628203459084033966064453125" lon="-1.5366554819047451019287109375">
        <ele>941.79998779296875</ele>
        <time>2020-02-22T14:04:56.000Z</time>
      </trkpt>
      <trkpt lat="37.86276158876717090606689453125" lon="-1.5365904383361339569091796875">
        <ele>941</ele>
        <time>2020-02-22T14:04:57.000Z</time>
      </trkpt>
      <trkpt lat="37.86268698982894420623779296875" lon="-1.5365297533571720123291015625">
        <ele>940.4000244140625</ele>
        <time>2020-02-22T14:04:58.000Z</time>
      </trkpt>
      <trkpt lat="37.86262102425098419189453125" lon="-1.5364658832550048828125">
        <ele>940</ele>
        <time>2020-02-22T14:04:59.000Z</time>
      </trkpt>
      <trkpt lat="37.862553633749485015869140625" lon="-1.5363959781825542449951171875">
        <ele>939.5999755859375</ele>
        <time>2020-02-22T14:05:00.000Z</time>
      </trkpt>
      <trkpt lat="37.86248347721993923187255859375" lon="-1.53632313944399356842041015625">
        <ele>939.4000244140625</ele>
        <time>2020-02-22T14:05:01.000Z</time>
      </trkpt>
      <trkpt lat="37.86240837536752223968505859375" lon="-1.53626547195017337799072265625">
        <ele>939</ele>
        <time>2020-02-22T14:05:02.000Z</time>
      </trkpt>
      <trkpt lat="37.86224006675183773040771484375" lon="-1.53620931319892406463623046875">
        <ele>938</ele>
        <time>2020-02-22T14:05:04.000Z</time>
      </trkpt>
      <trkpt lat="37.86211132071912288665771484375" lon="-1.5361700020730495452880859375">
        <ele>936.79998779296875</ele>
        <time>2020-02-22T14:05:06.000Z</time>
      </trkpt>
      <trkpt lat="37.86207385361194610595703125" lon="-1.53613035567104816436767578125">
        <ele>936.20001220703125</ele>
        <time>2020-02-22T14:05:07.000Z</time>
      </trkpt>
      <trkpt lat="37.86207762546837329864501953125" lon="-1.53606816194951534271240234375">
        <ele>935.5999755859375</ele>
        <time>2020-02-22T14:05:08.000Z</time>
      </trkpt>
      <trkpt lat="37.8621005080640316009521484375" lon="-1.536001525819301605224609375">
        <ele>934.79998779296875</ele>
        <time>2020-02-22T14:05:09.000Z</time>
      </trkpt>
      <trkpt lat="37.8621239773929119110107421875" lon="-1.5359205566346645355224609375">
        <ele>934</ele>
        <time>2020-02-22T14:05:10.000Z</time>
      </trkpt>
      <trkpt lat="37.862149961292743682861328125" lon="-1.535713858902454376220703125">
        <ele>932.20001220703125</ele>
        <time>2020-02-22T14:05:12.000Z</time>
      </trkpt>
      <trkpt lat="37.86210947670042514801025390625" lon="-1.535487212240695953369140625">
        <ele>931.20001220703125</ele>
        <time>2020-02-22T14:05:14.000Z</time>
      </trkpt>
      <trkpt lat="37.862076871097087860107421875" lon="-1.53535570017993450164794921875">
        <ele>931</ele>
        <time>2020-02-22T14:05:15.000Z</time>
      </trkpt>
      <trkpt lat="37.862050049006938934326171875" lon="-1.535225026309490203857421875">
        <ele>930</ele>
        <time>2020-02-22T14:05:16.000Z</time>
      </trkpt>
      <trkpt lat="37.86199196241796016693115234375" lon="-1.53498320840299129486083984375">
        <ele>928.4000244140625</ele>
        <time>2020-02-22T14:05:18.000Z</time>
      </trkpt>
      <trkpt lat="37.86196195520460605621337890625" lon="-1.53488002717494964599609375">
        <ele>927.5999755859375</ele>
        <time>2020-02-22T14:05:19.000Z</time>
      </trkpt>
      <trkpt lat="37.86194737069308757781982421875" lon="-1.5347893349826335906982421875">
        <ele>926.79998779296875</ele>
        <time>2020-02-22T14:05:20.000Z</time>
      </trkpt>
      <trkpt lat="37.861948795616626739501953125" lon="-1.53472068719565868377685546875">
        <ele>926</ele>
        <time>2020-02-22T14:05:21.000Z</time>
      </trkpt>
      <trkpt lat="37.8619741089642047882080078125" lon="-1.53467676602303981781005859375">
        <ele>925</ele>
        <time>2020-02-22T14:05:22.000Z</time>
      </trkpt>
      <trkpt lat="37.86202557384967803955078125" lon="-1.53469093143939971923828125">
        <ele>924</ele>
        <time>2020-02-22T14:05:23.000Z</time>
      </trkpt>
      <trkpt lat="37.8620664775371551513671875" lon="-1.5347345173358917236328125">
        <ele>923</ele>
        <time>2020-02-22T14:05:24.000Z</time>
      </trkpt>
      <trkpt lat="37.86210981197655200958251953125" lon="-1.53479226864874362945556640625">
        <ele>921.79998779296875</ele>
        <time>2020-02-22T14:05:25.000Z</time>
      </trkpt>
      <trkpt lat="37.86215071566402912139892578125" lon="-1.53486804105341434478759765625">
        <ele>920.79998779296875</ele>
        <time>2020-02-22T14:05:26.000Z</time>
      </trkpt>
      <trkpt lat="37.8621876798570156097412109375" lon="-1.5349556319415569305419921875">
        <ele>920.20001220703125</ele>
        <time>2020-02-22T14:05:27.000Z</time>
      </trkpt>
      <trkpt lat="37.86229874007403850555419921875" lon="-1.5352154709398746490478515625">
        <ele>919.4000244140625</ele>
        <time>2020-02-22T14:05:30.000Z</time>
      </trkpt>
      <trkpt lat="37.86235506646335124969482421875" lon="-1.53524740599095821380615234375">
        <ele>919.20001220703125</ele>
        <time>2020-02-22T14:05:31.000Z</time>
      </trkpt>
      <trkpt lat="37.8624012507498264312744140625" lon="-1.53524187393486499786376953125">
        <ele>919</ele>
        <time>2020-02-22T14:05:32.000Z</time>
      </trkpt>
      <trkpt lat="37.86242815665900707244873046875" lon="-1.53515403158962726593017578125">
        <ele>918.4000244140625</ele>
        <time>2020-02-22T14:05:34.000Z</time>
      </trkpt>
      <trkpt lat="37.86241373978555202484130859375" lon="-1.53509250842034816741943359375">
        <ele>917.79998779296875</ele>
        <time>2020-02-22T14:05:35.000Z</time>
      </trkpt>
      <trkpt lat="37.8623613528907299041748046875" lon="-1.53494213707745075225830078125">
        <ele>916.5999755859375</ele>
        <time>2020-02-22T14:05:37.000Z</time>
      </trkpt>
      <trkpt lat="37.8622557409107685089111328125" lon="-1.53465782292187213897705078125">
        <ele>915.5999755859375</ele>
        <time>2020-02-22T14:05:40.000Z</time>
      </trkpt>
      <trkpt lat="37.86221743561327457427978515625" lon="-1.53454181738197803497314453125">
        <ele>915.20001220703125</ele>
        <time>2020-02-22T14:05:41.000Z</time>
      </trkpt>
      <trkpt lat="37.86214333958923816680908203125" lon="-1.5343239717185497283935546875">
        <ele>914</ele>
        <time>2020-02-22T14:05:43.000Z</time>
      </trkpt>
      <trkpt lat="37.86202817223966121673583984375" lon="-1.5341798029839992523193359375">
        <ele>912.79998779296875</ele>
        <time>2020-02-22T14:05:45.000Z</time>
      </trkpt>
      <trkpt lat="37.8619992546737194061279296875" lon="-1.5341068804264068603515625">
        <ele>911.5999755859375</ele>
        <time>2020-02-22T14:05:46.000Z</time>
      </trkpt>
      <trkpt lat="37.861984334886074066162109375" lon="-1.53404979966580867767333984375">
        <ele>910.79998779296875</ele>
        <time>2020-02-22T14:05:47.000Z</time>
      </trkpt>
      <trkpt lat="37.861982993781566619873046875" lon="-1.53401006944477558135986328125">
        <ele>909.79998779296875</ele>
        <time>2020-02-22T14:05:48.000Z</time>
      </trkpt>
      <trkpt lat="37.8620197065174579620361328125" lon="-1.5340698324143886566162109375">
        <ele>908.79998779296875</ele>
        <time>2020-02-22T14:05:49.000Z</time>
      </trkpt>
      <trkpt lat="37.86206337623298168182373046875" lon="-1.5341285057365894317626953125">
        <ele>908.4000244140625</ele>
        <time>2020-02-22T14:05:50.000Z</time>
      </trkpt>
      <trkpt lat="37.8621162660419940948486328125" lon="-1.5341972373425960540771484375">
        <ele>907.79998779296875</ele>
        <time>2020-02-22T14:05:51.000Z</time>
      </trkpt>
      <trkpt lat="37.86220301873981952667236328125" lon="-1.534248702228069305419921875">
        <ele>907</ele>
        <time>2020-02-22T14:05:52.000Z</time>
      </trkpt>
      <trkpt lat="37.8623452596366405487060546875" lon="-1.5343316830694675445556640625">
        <ele>906.4000244140625</ele>
        <time>2020-02-22T14:05:54.000Z</time>
      </trkpt>
      <trkpt lat="37.86243100650608539581298828125" lon="-1.534478031098842620849609375">
        <ele>905.79998779296875</ele>
        <time>2020-02-22T14:05:56.000Z</time>
      </trkpt>
      <trkpt lat="37.86247878335416316986083984375" lon="-1.53452421538531780242919921875">
        <ele>905.5999755859375</ele>
        <time>2020-02-22T14:05:57.000Z</time>
      </trkpt>
      <trkpt lat="37.8626030869781970977783203125" lon="-1.5345653705298900604248046875">
        <ele>904.79998779296875</ele>
        <time>2020-02-22T14:05:59.000Z</time>
      </trkpt>
      <trkpt lat="37.862687744200229644775390625" lon="-1.534503512084484100341796875">
        <ele>903.20001220703125</ele>
        <time>2020-02-22T14:06:01.000Z</time>
      </trkpt>
      <trkpt lat="37.862695120275020599365234375" lon="-1.5343873389065265655517578125">
        <ele>901.5999755859375</ele>
        <time>2020-02-22T14:06:03.000Z</time>
      </trkpt>
      <trkpt lat="37.8626802004873752593994140625" lon="-1.534318439662456512451171875">
        <ele>900.79998779296875</ele>
        <time>2020-02-22T14:06:04.000Z</time>
      </trkpt>
      <trkpt lat="37.86264558322727680206298828125" lon="-1.5342448465526103973388671875">
        <ele>900.4000244140625</ele>
        <time>2020-02-22T14:06:05.000Z</time>
      </trkpt>
      <trkpt lat="37.86260702647268772125244140625" lon="-1.53415490873157978057861328125">
        <ele>900</ele>
        <time>2020-02-22T14:06:06.000Z</time>
      </trkpt>
      <trkpt lat="37.86256679333746433258056640625" lon="-1.5340544097125530242919921875">
        <ele>899.79998779296875</ele>
        <time>2020-02-22T14:06:07.000Z</time>
      </trkpt>
      <trkpt lat="37.86243100650608539581298828125" lon="-1.53371100313961505889892578125">
        <ele>899.20001220703125</ele>
        <time>2020-02-22T14:06:10.000Z</time>
      </trkpt>
      <trkpt lat="37.8623523004353046417236328125" lon="-1.5334800817072391510009765625">
        <ele>897.79998779296875</ele>
        <time>2020-02-22T14:06:12.000Z</time>
      </trkpt>
      <trkpt lat="37.86232204176485538482666015625" lon="-1.5333999507129192352294921875">
        <ele>897.20001220703125</ele>
        <time>2020-02-22T14:06:13.000Z</time>
      </trkpt>
      <trkpt lat="37.86230963654816150665283203125" lon="-1.53332174755632877349853515625">
        <ele>896.20001220703125</ele>
        <time>2020-02-22T14:06:14.000Z</time>
      </trkpt>
      <trkpt lat="37.86233394406735897064208984375" lon="-1.53327983804047107696533203125">
        <ele>895.20001220703125</ele>
        <time>2020-02-22T14:06:15.000Z</time>
      </trkpt>
      <trkpt lat="37.86237384192645549774169921875" lon="-1.53327531181275844573974609375">
        <ele>893.20001220703125</ele>
        <time>2020-02-22T14:06:16.000Z</time>
      </trkpt>
      <trkpt lat="37.8624263964593410491943359375" lon="-1.5332899801433086395263671875">
        <ele>892.20001220703125</ele>
        <time>2020-02-22T14:06:17.000Z</time>
      </trkpt>
      <trkpt lat="37.86250845529139041900634765625" lon="-1.53342182748019695281982421875">
        <ele>890.4000244140625</ele>
        <time>2020-02-22T14:06:19.000Z</time>
      </trkpt>
      <trkpt lat="37.86254449747502803802490234375" lon="-1.5335085801780223846435546875">
        <ele>890</ele>
        <time>2020-02-22T14:06:20.000Z</time>
      </trkpt>
      <trkpt lat="37.8626289032399654388427734375" lon="-1.533773951232433319091796875">
        <ele>889.20001220703125</ele>
        <time>2020-02-22T14:06:23.000Z</time>
      </trkpt>
      <trkpt lat="37.86265681497752666473388671875" lon="-1.53385366313159465789794921875">
        <ele>889</ele>
        <time>2020-02-22T14:06:24.000Z</time>
      </trkpt>
      <trkpt lat="37.86270341835916042327880859375" lon="-1.53391350992023944854736328125">
        <ele>888</ele>
        <time>2020-02-22T14:06:26.000Z</time>
      </trkpt>
      <trkpt lat="37.8627744130790233612060546875" lon="-1.53386506251990795135498046875">
        <ele>886.79998779296875</ele>
        <time>2020-02-22T14:06:28.000Z</time>
      </trkpt>
      <trkpt lat="37.86279092542827129364013671875" lon="-1.533770598471164703369140625">
        <ele>885.5999755859375</ele>
        <time>2020-02-22T14:06:30.000Z</time>
      </trkpt>
      <trkpt lat="37.8627673722803592681884765625" lon="-1.53364763595163822174072265625">
        <ele>884.4000244140625</ele>
        <time>2020-02-22T14:06:32.000Z</time>
      </trkpt>
      <trkpt lat="37.86265932954847812652587890625" lon="-1.53340741060674190521240234375">
        <ele>883.79998779296875</ele>
        <time>2020-02-22T14:06:35.000Z</time>
      </trkpt>
      <trkpt lat="37.862530834972858428955078125" lon="-1.533160395920276641845703125">
        <ele>883.20001220703125</ele>
        <time>2020-02-22T14:06:38.000Z</time>
      </trkpt>
      <trkpt lat="37.8624746762216091156005859375" lon="-1.53301656246185302734375">
        <ele>882.4000244140625</ele>
        <time>2020-02-22T14:06:40.000Z</time>
      </trkpt>
      <trkpt lat="37.8624612651765346527099609375" lon="-1.53296484611928462982177734375">
        <ele>882</ele>
        <time>2020-02-22T14:06:41.000Z</time>
      </trkpt>
      <trkpt lat="37.8625105507671833038330078125" lon="-1.53287281282246112823486328125">
        <ele>881</ele>
        <time>2020-02-22T14:06:43.000Z</time>
      </trkpt>
      <trkpt lat="37.862575761973857879638671875" lon="-1.53288840316236019134521484375">
        <ele>880.4000244140625</ele>
        <time>2020-02-22T14:06:44.000Z</time>
      </trkpt>
      <trkpt lat="37.862626723945140838623046875" lon="-1.53291773982346057891845703125">
        <ele>879.20001220703125</ele>
        <time>2020-02-22T14:06:45.000Z</time>
      </trkpt>
      <trkpt lat="37.86271129734814167022705078125" lon="-1.5330365113914012908935546875">
        <ele>878.20001220703125</ele>
        <time>2020-02-22T14:06:47.000Z</time>
      </trkpt>
      <trkpt lat="37.86274197511374950408935546875" lon="-1.53311152942478656768798828125">
        <ele>878</ele>
        <time>2020-02-22T14:06:48.000Z</time>
      </trkpt>
      <trkpt lat="37.86284909583628177642822265625" lon="-1.533363573253154754638671875">
        <ele>877.20001220703125</ele>
        <time>2020-02-22T14:06:51.000Z</time>
      </trkpt>
      <trkpt lat="37.86287491209805011749267578125" lon="-1.53343833982944488525390625">
        <ele>876.79998779296875</ele>
        <time>2020-02-22T14:06:52.000Z</time>
      </trkpt>
      <trkpt lat="37.86288647912442684173583984375" lon="-1.5334928222000598907470703125">
        <ele>876.20001220703125</ele>
        <time>2020-02-22T14:06:53.000Z</time>
      </trkpt>
      <trkpt lat="37.8629085235297679901123046875" lon="-1.5335276909172534942626953125">
        <ele>875.79998779296875</ele>
        <time>2020-02-22T14:06:54.000Z</time>
      </trkpt>
      <trkpt lat="37.8629336692392826080322265625" lon="-1.5335115976631641387939453125">
        <ele>874.5999755859375</ele>
        <time>2020-02-22T14:06:56.000Z</time>
      </trkpt>
      <trkpt lat="37.8629531152546405792236328125" lon="-1.5334103442728519439697265625">
        <ele>873.20001220703125</ele>
        <time>2020-02-22T14:06:58.000Z</time>
      </trkpt>
      <trkpt lat="37.862947247922420501708984375" lon="-1.5333459712564945220947265625">
        <ele>872.5999755859375</ele>
        <time>2020-02-22T14:06:59.000Z</time>
      </trkpt>
      <trkpt lat="37.86293492652475833892822265625" lon="-1.53326039202511310577392578125">
        <ele>872.20001220703125</ele>
        <time>2020-02-22T14:07:00.000Z</time>
      </trkpt>
      <trkpt lat="37.8629194200038909912109375" lon="-1.53306375257670879364013671875">
        <ele>871.4000244140625</ele>
        <time>2020-02-22T14:07:02.000Z</time>
      </trkpt>
      <trkpt lat="37.86285161040723323822021484375" lon="-1.53274859301745891571044921875">
        <ele>871</ele>
        <time>2020-02-22T14:07:05.000Z</time>
      </trkpt>
      <trkpt lat="37.8628377802670001983642578125" lon="-1.5326536260545253753662109375">
        <ele>870.79998779296875</ele>
        <time>2020-02-22T14:07:06.000Z</time>
      </trkpt>
      <trkpt lat="37.86286619491875171661376953125" lon="-1.53256150893867015838623046875">
        <ele>869.79998779296875</ele>
        <time>2020-02-22T14:07:08.000Z</time>
      </trkpt>
      <trkpt lat="37.8629435598850250244140625" lon="-1.53260224498808383941650390625">
        <ele>868.4000244140625</ele>
        <time>2020-02-22T14:07:10.000Z</time>
      </trkpt>
      <trkpt lat="37.863046489655971527099609375" lon="-1.53272529132664203643798828125">
        <ele>866.79998779296875</ele>
        <time>2020-02-22T14:07:12.000Z</time>
      </trkpt>
      <trkpt lat="37.8631003014743328094482421875" lon="-1.53279268182814121246337890625">
        <ele>866</ele>
        <time>2020-02-22T14:07:13.000Z</time>
      </trkpt>
      <trkpt lat="37.86315478384494781494140625" lon="-1.532858647406101226806640625">
        <ele>865.20001220703125</ele>
        <time>2020-02-22T14:07:14.000Z</time>
      </trkpt>
      <trkpt lat="37.86319845356047153472900390625" lon="-1.53295026160776615142822265625">
        <ele>864.5999755859375</ele>
        <time>2020-02-22T14:07:15.000Z</time>
      </trkpt>
      <trkpt lat="37.86330222152173519134521484375" lon="-1.53314807452261447906494140625">
        <ele>864.20001220703125</ele>
        <time>2020-02-22T14:07:17.000Z</time>
      </trkpt>
      <trkpt lat="37.8634375892579555511474609375" lon="-1.53335309587419033050537109375">
        <ele>863.5999755859375</ele>
        <time>2020-02-22T14:07:19.000Z</time>
      </trkpt>
      <trkpt lat="37.8635029681026935577392578125" lon="-1.5334398485720157623291015625">
        <ele>862.79998779296875</ele>
        <time>2020-02-22T14:07:20.000Z</time>
      </trkpt>
      <trkpt lat="37.86358435638248920440673828125" lon="-1.5335102565586566925048828125">
        <ele>862.20001220703125</ele>
        <time>2020-02-22T14:07:21.000Z</time>
      </trkpt>
      <trkpt lat="37.86365929059684276580810546875" lon="-1.533572115004062652587890625">
        <ele>861.20001220703125</ele>
        <time>2020-02-22T14:07:22.000Z</time>
      </trkpt>
      <trkpt lat="37.86382667720317840576171875" lon="-1.53365367092192173004150390625">
        <ele>860</ele>
        <time>2020-02-22T14:07:24.000Z</time>
      </trkpt>
      <trkpt lat="37.86399221979081630706787109375" lon="-1.533680744469165802001953125">
        <ele>858.4000244140625</ele>
        <time>2020-02-22T14:07:26.000Z</time>
      </trkpt>
      <trkpt lat="37.8640481270849704742431640625" lon="-1.53366875834763050079345703125">
        <ele>857.79998779296875</ele>
        <time>2020-02-22T14:07:27.000Z</time>
      </trkpt>
      <trkpt lat="37.8640927188098430633544921875" lon="-1.53362609446048736572265625">
        <ele>857</ele>
        <time>2020-02-22T14:07:28.000Z</time>
      </trkpt>
      <trkpt lat="37.8641022741794586181640625" lon="-1.5335585363209247589111328125">
        <ele>856.4000244140625</ele>
        <time>2020-02-22T14:07:29.000Z</time>
      </trkpt>
      <trkpt lat="37.864118702709674835205078125" lon="-1.5334941633045673370361328125">
        <ele>855.5999755859375</ele>
        <time>2020-02-22T14:07:30.000Z</time>
      </trkpt>
      <trkpt lat="37.8640903718769550323486328125" lon="-1.5333523415029048919677734375">
        <ele>854</ele>
        <time>2020-02-22T14:07:32.000Z</time>
      </trkpt>
      <trkpt lat="37.86397746764123439788818359375" lon="-1.53323675505816936492919921875">
        <ele>852.79998779296875</ele>
        <time>2020-02-22T14:07:34.000Z</time>
      </trkpt>
      <trkpt lat="37.86390789784491062164306640625" lon="-1.5331803448498249053955078125">
        <ele>852.5999755859375</ele>
        <time>2020-02-22T14:07:35.000Z</time>
      </trkpt>
      <trkpt lat="37.86383648402988910675048828125" lon="-1.5331327356398105621337890625">
        <ele>852.4000244140625</ele>
        <time>2020-02-22T14:07:36.000Z</time>
      </trkpt>
      <trkpt lat="37.8637504018843173980712890625" lon="-1.53289158828556537628173828125">
        <ele>851.5999755859375</ele>
        <time>2020-02-22T14:07:39.000Z</time>
      </trkpt>
      <trkpt lat="37.86372349597513675689697265625" lon="-1.5328266285359859466552734375">
        <ele>851</ele>
        <time>2020-02-22T14:07:40.000Z</time>
      </trkpt>
      <trkpt lat="37.863695584237575531005859375" lon="-1.53277524746954441070556640625">
        <ele>850.20001220703125</ele>
        <time>2020-02-22T14:07:41.000Z</time>
      </trkpt>
      <trkpt lat="37.8636873699724674224853515625" lon="-1.5327149815857410430908203125">
        <ele>848.4000244140625</ele>
        <time>2020-02-22T14:07:43.000Z</time>
      </trkpt>
      <trkpt lat="37.86372877657413482666015625" lon="-1.53267768211662769317626953125">
        <ele>846.5999755859375</ele>
        <time>2020-02-22T14:07:44.000Z</time>
      </trkpt>
      <trkpt lat="37.86386028863489627838134765625" lon="-1.53261490166187286376953125">
        <ele>845.4000244140625</ele>
        <time>2020-02-22T14:07:46.000Z</time>
      </trkpt>
      <trkpt lat="37.86392935551702976226806640625" lon="-1.53258346952497959136962890625">
        <ele>844.79998779296875</ele>
        <time>2020-02-22T14:07:47.000Z</time>
      </trkpt>
      <trkpt lat="37.86404167301952838897705078125" lon="-1.53252278454601764678955078125">
        <ele>844</ele>
        <time>2020-02-22T14:07:49.000Z</time>
      </trkpt>
      <trkpt lat="37.8640990890562534332275390625" lon="-1.53249420225620269775390625">
        <ele>843.79998779296875</ele>
        <time>2020-02-22T14:07:50.000Z</time>
      </trkpt>
      <trkpt lat="37.86420478485524654388427734375" lon="-1.53242957778275012969970703125">
        <ele>843.5999755859375</ele>
        <time>2020-02-22T14:07:52.000Z</time>
      </trkpt>
      <trkpt lat="37.8643894381821155548095703125" lon="-1.53228205628693103790283203125">
        <ele>843.5999755859375</ele>
        <time>2020-02-22T14:07:57.000Z</time>
      </trkpt>
      <trkpt lat="37.8644080460071563720703125" lon="-1.53226663358509540557861328125">
        <ele>843.5999755859375</ele>
        <time>2020-02-22T14:07:58.000Z</time>
      </trkpt>
      <trkpt lat="37.86444132216274738311767578125" lon="-1.5322060324251651763916015625">
        <ele>844.79998779296875</ele>
        <time>2020-02-22T14:08:02.000Z</time>
      </trkpt>
      <trkpt lat="37.8644638694822788238525390625" lon="-1.532177031040191650390625">
        <ele>845.20001220703125</ele>
        <time>2020-02-22T14:08:03.000Z</time>
      </trkpt>
      <trkpt lat="37.864512316882610321044921875" lon="-1.5320930443704128265380859375">
        <ele>846</ele>
        <time>2020-02-22T14:08:06.000Z</time>
      </trkpt>
      <trkpt lat="37.86451625637710094451904296875" lon="-1.53207049705088138580322265625">
        <ele>846.4000244140625</ele>
        <time>2020-02-22T14:08:07.000Z</time>
      </trkpt>
      <trkpt lat="37.86453939042985439300537109375" lon="-1.53197410516440868377685546875">
        <ele>847.4000244140625</ele>
        <time>2020-02-22T14:08:10.000Z</time>
      </trkpt>
      <trkpt lat="37.86454274319112300872802734375" lon="-1.5319475345313549041748046875">
        <ele>847.4000244140625</ele>
        <time>2020-02-22T14:08:11.000Z</time>
      </trkpt>
      <trkpt lat="37.86455397494137287139892578125" lon="-1.531844772398471832275390625">
        <ele>848</ele>
        <time>2020-02-22T14:08:14.000Z</time>
      </trkpt>
      <trkpt lat="37.86454089917242527008056640625" lon="-1.53177201747894287109375">
        <ele>848.4000244140625</ele>
        <time>2020-02-22T14:08:16.000Z</time>
      </trkpt>
      <trkpt lat="37.8645314276218414306640625" lon="-1.531735472381114959716796875">
        <ele>848.5999755859375</ele>
        <time>2020-02-22T14:08:17.000Z</time>
      </trkpt>
      <trkpt lat="37.86448507569730281829833984375" lon="-1.5313943289220333099365234375">
        <ele>849.5999755859375</ele>
        <time>2020-02-22T14:08:24.000Z</time>
      </trkpt>
      <trkpt lat="37.86448088474571704864501953125" lon="-1.5313406847417354583740234375">
        <ele>849.79998779296875</ele>
        <time>2020-02-22T14:08:25.000Z</time>
      </trkpt>
      <trkpt lat="37.86439036019146442413330078125" lon="-1.5310593880712985992431640625">
        <ele>850.20001220703125</ele>
        <time>2020-02-22T14:08:31.000Z</time>
      </trkpt>
      <trkpt lat="37.8642640449106693267822265625" lon="-1.53084866702556610107421875">
        <ele>850.4000244140625</ele>
        <time>2020-02-22T14:08:37.000Z</time>
      </trkpt>
      <trkpt lat="37.86412515677511692047119140625" lon="-1.53070290572941303253173828125">
        <ele>850.79998779296875</ele>
        <time>2020-02-22T14:08:42.000Z</time>
      </trkpt>
      <trkpt lat="37.86410554312169551849365234375" lon="-1.53045379556715488433837890625">
        <ele>851.20001220703125</ele>
        <time>2020-02-22T14:08:47.000Z</time>
      </trkpt>
      <trkpt lat="37.86415516398847103118896484375" lon="-1.53017836622893810272216796875">
        <ele>851.79998779296875</ele>
        <time>2020-02-22T14:08:53.000Z</time>
      </trkpt>
      <trkpt lat="37.864196486771106719970703125" lon="-1.52997518889605998992919921875">
        <ele>852.79998779296875</ele>
        <time>2020-02-22T14:08:58.000Z</time>
      </trkpt>
      <trkpt lat="37.86420579068362712860107421875" lon="-1.52993193827569484710693359375">
        <ele>853</ele>
        <time>2020-02-22T14:08:59.000Z</time>
      </trkpt>
      <trkpt lat="37.8642710857093334197998046875" lon="-1.5297082252800464630126953125">
        <ele>853.79998779296875</ele>
        <time>2020-02-22T14:09:04.000Z</time>
      </trkpt>
      <trkpt lat="37.8642858378589153289794921875" lon="-1.52966170571744441986083984375">
        <ele>854</ele>
        <time>2020-02-22T14:09:05.000Z</time>
      </trkpt>
      <trkpt lat="37.86430335603654384613037109375" lon="-1.52956430800259113311767578125">
        <ele>854.5999755859375</ele>
        <time>2020-02-22T14:09:07.000Z</time>
      </trkpt>
      <trkpt lat="37.8643141686916351318359375" lon="-1.52943019755184650421142578125">
        <ele>855.20001220703125</ele>
        <time>2020-02-22T14:09:10.000Z</time>
      </trkpt>
      <trkpt lat="37.8643141686916351318359375" lon="-1.52919508516788482666015625">
        <ele>856.20001220703125</ele>
        <time>2020-02-22T14:09:15.000Z</time>
      </trkpt>
      <trkpt lat="37.86431215703487396240234375" lon="-1.52914487756788730621337890625">
        <ele>856.4000244140625</ele>
        <time>2020-02-22T14:09:16.000Z</time>
      </trkpt>
      <trkpt lat="37.8642955608665943145751953125" lon="-1.5288395248353481292724609375">
        <ele>856.79998779296875</ele>
        <time>2020-02-22T14:09:21.000Z</time>
      </trkpt>
      <trkpt lat="37.86417134106159210205078125" lon="-1.52857960201799869537353515625">
        <ele>857</ele>
        <time>2020-02-22T14:09:25.000Z</time>
      </trkpt>
      <trkpt lat="37.8639064729213714599609375" lon="-1.52820057235658168792724609375">
        <ele>856</ele>
        <time>2020-02-22T14:09:30.000Z</time>
      </trkpt>
      <trkpt lat="37.8638107515871524810791015625" lon="-1.52799940668046474456787109375">
        <ele>855.20001220703125</ele>
        <time>2020-02-22T14:09:32.000Z</time>
      </trkpt>
      <trkpt lat="37.8637269325554370880126953125" lon="-1.52777611277997493743896484375">
        <ele>854</ele>
        <time>2020-02-22T14:09:34.000Z</time>
      </trkpt>
      <trkpt lat="37.8636511601507663726806640625" lon="-1.527539156377315521240234375">
        <ele>852.79998779296875</ele>
        <time>2020-02-22T14:09:36.000Z</time>
      </trkpt>
      <trkpt lat="37.86357463337481021881103515625" lon="-1.52732365764677524566650390625">
        <ele>850.5999755859375</ele>
        <time>2020-02-22T14:09:38.000Z</time>
      </trkpt>
      <trkpt lat="37.86354009993374347686767578125" lon="-1.52723480947315692901611328125">
        <ele>849.79998779296875</ele>
        <time>2020-02-22T14:09:39.000Z</time>
      </trkpt>
      <trkpt lat="37.86351730115711688995361328125" lon="-1.5271597914397716522216796875">
        <ele>848.79998779296875</ele>
        <time>2020-02-22T14:09:40.000Z</time>
      </trkpt>
      <trkpt lat="37.8635202348232269287109375" lon="-1.5270595438778400421142578125">
        <ele>847</ele>
        <time>2020-02-22T14:09:42.000Z</time>
      </trkpt>
      <trkpt lat="37.86353833973407745361328125" lon="-1.5270387567579746246337890625">
        <ele>846.20001220703125</ele>
        <time>2020-02-22T14:09:43.000Z</time>
      </trkpt>
      <trkpt lat="37.86353959701955318450927734375" lon="-1.52702526189386844635009765625">
        <ele>845.20001220703125</ele>
        <time>2020-02-22T14:09:44.000Z</time>
      </trkpt>
      <trkpt lat="37.8635391779243946075439453125" lon="-1.52704856358468532562255859375">
        <ele>844.79998779296875</ele>
        <time>2020-02-22T14:09:45.000Z</time>
      </trkpt>
      <trkpt lat="37.8635606355965137481689453125" lon="-1.527052335441112518310546875">
        <ele>844.20001220703125</ele>
        <time>2020-02-22T14:09:46.000Z</time>
      </trkpt>
      <trkpt lat="37.8637026250362396240234375" lon="-1.5271510742604732513427734375">
        <ele>844</ele>
        <time>2020-02-22T14:09:48.000Z</time>
      </trkpt>
      <trkpt lat="37.86385877989232540130615234375" lon="-1.52716909535229206085205078125">
        <ele>843.5999755859375</ele>
        <time>2020-02-22T14:09:50.000Z</time>
      </trkpt>
      <trkpt lat="37.86392466165125370025634765625" lon="-1.5271197259426116943359375">
        <ele>843</ele>
        <time>2020-02-22T14:09:51.000Z</time>
      </trkpt>
      <trkpt lat="37.86395969800651073455810546875" lon="-1.5270491503179073333740234375">
        <ele>842.20001220703125</ele>
        <time>2020-02-22T14:09:52.000Z</time>
      </trkpt>
      <trkpt lat="37.8639673255383968353271484375" lon="-1.5269804187119007110595703125">
        <ele>841.4000244140625</ele>
        <time>2020-02-22T14:09:53.000Z</time>
      </trkpt>
      <trkpt lat="37.863931618630886077880859375" lon="-1.5268453024327754974365234375">
        <ele>839.79998779296875</ele>
        <time>2020-02-22T14:09:55.000Z</time>
      </trkpt>
      <trkpt lat="37.8638635575771331787109375" lon="-1.52670809067785739898681640625">
        <ele>838.79998779296875</ele>
        <time>2020-02-22T14:09:57.000Z</time>
      </trkpt>
      <trkpt lat="37.86382223479449748992919921875" lon="-1.52663357555866241455078125">
        <ele>838.5999755859375</ele>
        <time>2020-02-22T14:09:58.000Z</time>
      </trkpt>
      <trkpt lat="37.8637822531163692474365234375" lon="-1.5265576355159282684326171875">
        <ele>838.20001220703125</ele>
        <time>2020-02-22T14:09:59.000Z</time>
      </trkpt>
      <trkpt lat="37.863749563694000244140625" lon="-1.52648194693028926849365234375">
        <ele>837.5999755859375</ele>
        <time>2020-02-22T14:10:00.000Z</time>
      </trkpt>
      <trkpt lat="37.8637363202869892120361328125" lon="-1.526452191174030303955078125">
        <ele>836.79998779296875</ele>
        <time>2020-02-22T14:10:01.000Z</time>
      </trkpt>
      <trkpt lat="37.86373523063957691192626953125" lon="-1.526432745158672332763671875">
        <ele>836</ele>
        <time>2020-02-22T14:10:02.000Z</time>
      </trkpt>
      <trkpt lat="37.86372986622154712677001953125" lon="-1.52644875459372997283935546875">
        <ele>835.5999755859375</ele>
        <time>2020-02-22T14:10:03.000Z</time>
      </trkpt>
      <trkpt lat="37.86377479322254657745361328125" lon="-1.526505835354328155517578125">
        <ele>834.20001220703125</ele>
        <time>2020-02-22T14:10:05.000Z</time>
      </trkpt>
      <trkpt lat="37.86387705244123935699462890625" lon="-1.52658336795866489410400390625">
        <ele>833</ele>
        <time>2020-02-22T14:10:07.000Z</time>
      </trkpt>
      <trkpt lat="37.86393254064023494720458984375" lon="-1.52661941014230251312255859375">
        <ele>832.5999755859375</ele>
        <time>2020-02-22T14:10:08.000Z</time>
      </trkpt>
      <trkpt lat="37.8639797307550907135009765625" lon="-1.52665696106851100921630859375">
        <ele>832.20001220703125</ele>
        <time>2020-02-22T14:10:09.000Z</time>
      </trkpt>
      <trkpt lat="37.86413689143955707550048828125" lon="-1.52676827274262905120849609375">
        <ele>831.79998779296875</ele>
        <time>2020-02-22T14:10:11.000Z</time>
      </trkpt>
      <trkpt lat="37.86423009820282459259033203125" lon="-1.52679643593728542327880859375">
        <ele>831.4000244140625</ele>
        <time>2020-02-22T14:10:12.000Z</time>
      </trkpt>
      <trkpt lat="37.86429799161851406097412109375" lon="-1.52678470127284526824951171875">
        <ele>830.5999755859375</ele>
        <time>2020-02-22T14:10:13.000Z</time>
      </trkpt>
      <trkpt lat="37.8643099777400493621826171875" lon="-1.52673306874930858612060546875">
        <ele>830.20001220703125</ele>
        <time>2020-02-22T14:10:14.000Z</time>
      </trkpt>
      <trkpt lat="37.86431483924388885498046875" lon="-1.5266736410558223724365234375">
        <ele>829.5999755859375</ele>
        <time>2020-02-22T14:10:15.000Z</time>
      </trkpt>
      <trkpt lat="37.86429597996175289154052734375" lon="-1.526604406535625457763671875">
        <ele>828.79998779296875</ele>
        <time>2020-02-22T14:10:16.000Z</time>
      </trkpt>
      <trkpt lat="37.864263541996479034423828125" lon="-1.52652972377836704254150390625">
        <ele>828.20001220703125</ele>
        <time>2020-02-22T14:10:17.000Z</time>
      </trkpt>
      <trkpt lat="37.8642445988953113555908203125" lon="-1.5264409594237804412841796875">
        <ele>827.5999755859375</ele>
        <time>2020-02-22T14:10:18.000Z</time>
      </trkpt>
      <trkpt lat="37.8642613627016544342041015625" lon="-1.52634364552795886993408203125">
        <ele>827</ele>
        <time>2020-02-22T14:10:19.000Z</time>
      </trkpt>
      <trkpt lat="37.8643733449280261993408203125" lon="-1.52618807740509510040283203125">
        <ele>826.20001220703125</ele>
        <time>2020-02-22T14:10:21.000Z</time>
      </trkpt>
      <trkpt lat="37.86444668658077716827392578125" lon="-1.5261150710284709930419921875">
        <ele>825.5999755859375</ele>
        <time>2020-02-22T14:10:22.000Z</time>
      </trkpt>
      <trkpt lat="37.86452799104154109954833984375" lon="-1.52604307048022747039794921875">
        <ele>824.5999755859375</ele>
        <time>2020-02-22T14:10:23.000Z</time>
      </trkpt>
      <trkpt lat="37.86462035961449146270751953125" lon="-1.525967381894588470458984375">
        <ele>823.79998779296875</ele>
        <time>2020-02-22T14:10:24.000Z</time>
      </trkpt>
      <trkpt lat="37.86470652557909488677978515625" lon="-1.52588649652898311614990234375">
        <ele>822.5999755859375</ele>
        <time>2020-02-22T14:10:25.000Z</time>
      </trkpt>
      <trkpt lat="37.86477995105087757110595703125" lon="-1.5258009172976016998291015625">
        <ele>821.5999755859375</ele>
        <time>2020-02-22T14:10:26.000Z</time>
      </trkpt>
      <trkpt lat="37.86490953527390956878662109375" lon="-1.52561835944652557373046875">
        <ele>819.5999755859375</ele>
        <time>2020-02-22T14:10:28.000Z</time>
      </trkpt>
      <trkpt lat="37.86498539149761199951171875" lon="-1.52551065199077129364013671875">
        <ele>819</ele>
        <time>2020-02-22T14:10:29.000Z</time>
      </trkpt>
      <trkpt lat="37.8650623373687267303466796875" lon="-1.52540755458176136016845703125">
        <ele>818.20001220703125</ele>
        <time>2020-02-22T14:10:30.000Z</time>
      </trkpt>
      <trkpt lat="37.86520407535135746002197265625" lon="-1.52518786489963531494140625">
        <ele>816.4000244140625</ele>
        <time>2020-02-22T14:10:32.000Z</time>
      </trkpt>
      <trkpt lat="37.8652581386268138885498046875" lon="-1.52506716549396514892578125">
        <ele>815.5999755859375</ele>
        <time>2020-02-22T14:10:33.000Z</time>
      </trkpt>
      <trkpt lat="37.86531220190227031707763671875" lon="-1.52494001202285289764404296875">
        <ele>814.5999755859375</ele>
        <time>2020-02-22T14:10:34.000Z</time>
      </trkpt>
      <trkpt lat="37.86542602814733982086181640625" lon="-1.52470179833471775054931640625">
        <ele>813</ele>
        <time>2020-02-22T14:10:36.000Z</time>
      </trkpt>
      <trkpt lat="37.8655578754842281341552734375" lon="-1.524472050368785858154296875">
        <ele>811.20001220703125</ele>
        <time>2020-02-22T14:10:38.000Z</time>
      </trkpt>
      <trkpt lat="37.86577102728188037872314453125" lon="-1.52413685806095600128173828125">
        <ele>810</ele>
        <time>2020-02-22T14:10:41.000Z</time>
      </trkpt>
      <trkpt lat="37.8658978454768657684326171875" lon="-1.52392211370170116424560546875">
        <ele>809</ele>
        <time>2020-02-22T14:10:43.000Z</time>
      </trkpt>
      <trkpt lat="37.86596305668354034423828125" lon="-1.52381733991205692291259765625">
        <ele>808.5999755859375</ele>
        <time>2020-02-22T14:10:44.000Z</time>
      </trkpt>
      <trkpt lat="37.866094820201396942138671875" lon="-1.52359454892575740814208984375">
        <ele>807.5999755859375</ele>
        <time>2020-02-22T14:10:46.000Z</time>
      </trkpt>
      <trkpt lat="37.8662260808050632476806640625" lon="-1.52336505241692066192626953125">
        <ele>806.5999755859375</ele>
        <time>2020-02-22T14:10:48.000Z</time>
      </trkpt>
      <trkpt lat="37.8663078881800174713134765625" lon="-1.52327016927301883697509765625">
        <ele>805.79998779296875</ele>
        <time>2020-02-22T14:10:49.000Z</time>
      </trkpt>
      <trkpt lat="37.8663970716297626495361328125" lon="-1.52319456450641155242919921875">
        <ele>804.79998779296875</ele>
        <time>2020-02-22T14:10:50.000Z</time>
      </trkpt>
      <trkpt lat="37.8665841557085514068603515625" lon="-1.523059867322444915771484375">
        <ele>803.4000244140625</ele>
        <time>2020-02-22T14:10:52.000Z</time>
      </trkpt>
      <trkpt lat="37.8666676394641399383544921875" lon="-1.522982418537139892578125">
        <ele>803</ele>
        <time>2020-02-22T14:10:53.000Z</time>
      </trkpt>
      <trkpt lat="37.86674349568784236907958984375" lon="-1.52289231307804584503173828125">
        <ele>802.4000244140625</ele>
        <time>2020-02-22T14:10:54.000Z</time>
      </trkpt>
      <trkpt lat="37.866810299456119537353515625" lon="-1.522788964211940765380859375">
        <ele>802</ele>
        <time>2020-02-22T14:10:55.000Z</time>
      </trkpt>
      <trkpt lat="37.86691532470285892486572265625" lon="-1.52256944216787815093994140625">
        <ele>800.4000244140625</ele>
        <time>2020-02-22T14:10:57.000Z</time>
      </trkpt>
      <trkpt lat="37.867014147341251373291015625" lon="-1.52236215770244598388671875">
        <ele>799</ele>
        <time>2020-02-22T14:10:59.000Z</time>
      </trkpt>
      <trkpt lat="37.8670904226601123809814453125" lon="-1.52216627262532711029052734375">
        <ele>797.20001220703125</ele>
        <time>2020-02-22T14:11:01.000Z</time>
      </trkpt>
      <trkpt lat="37.8671665303409099578857421875" lon="-1.521967537701129913330078125">
        <ele>796</ele>
        <time>2020-02-22T14:11:03.000Z</time>
      </trkpt>
      <trkpt lat="37.86720198579132556915283203125" lon="-1.52186837978661060333251953125">
        <ele>795.20001220703125</ele>
        <time>2020-02-22T14:11:04.000Z</time>
      </trkpt>
      <trkpt lat="37.8672366030514240264892578125" lon="-1.52177265845239162445068359375">
        <ele>793</ele>
        <time>2020-02-22T14:11:05.000Z</time>
      </trkpt>
      <trkpt lat="37.86729653365910053253173828125" lon="-1.5216025896370410919189453125">
        <ele>791</ele>
        <time>2020-02-22T14:11:07.000Z</time>
      </trkpt>
      <trkpt lat="37.8673462383449077606201171875" lon="-1.52145112864673137664794921875">
        <ele>790</ele>
        <time>2020-02-22T14:11:09.000Z</time>
      </trkpt>
      <trkpt lat="37.86742025054991245269775390625" lon="-1.52131073176860809326171875">
        <ele>788.79998779296875</ele>
        <time>2020-02-22T14:11:11.000Z</time>
      </trkpt>
      <trkpt lat="37.86754178814589977264404296875" lon="-1.5212703309953212738037109375">
        <ele>787.79998779296875</ele>
        <time>2020-02-22T14:11:13.000Z</time>
      </trkpt>
      <trkpt lat="37.8676570393145084381103515625" lon="-1.52132757939398288726806640625">
        <ele>786.5999755859375</ele>
        <time>2020-02-22T14:11:15.000Z</time>
      </trkpt>
      <trkpt lat="37.86771680228412151336669921875" lon="-1.52135892771184444427490234375">
        <ele>786.20001220703125</ele>
        <time>2020-02-22T14:11:16.000Z</time>
      </trkpt>
      <trkpt lat="37.8677794151008129119873046875" lon="-1.521382145583629608154296875">
        <ele>785.4000244140625</ele>
        <time>2020-02-22T14:11:17.000Z</time>
      </trkpt>
      <trkpt lat="37.867842279374599456787109375" lon="-1.52139580808579921722412109375">
        <ele>784.4000244140625</ele>
        <time>2020-02-22T14:11:18.000Z</time>
      </trkpt>
      <trkpt lat="37.86790254525840282440185546875" lon="-1.5213958919048309326171875">
        <ele>783.4000244140625</ele>
        <time>2020-02-22T14:11:19.000Z</time>
      </trkpt>
      <trkpt lat="37.8679715283215045928955078125" lon="-1.52138943783938884735107421875">
        <ele>782.5999755859375</ele>
        <time>2020-02-22T14:11:20.000Z</time>
      </trkpt>
      <trkpt lat="37.86804168485105037689208984375" lon="-1.5213813073933124542236328125">
        <ele>782</ele>
        <time>2020-02-22T14:11:21.000Z</time>
      </trkpt>
      <trkpt lat="37.868183590471744537353515625" lon="-1.5213678963482379913330078125">
        <ele>781.20001220703125</ele>
        <time>2020-02-22T14:11:23.000Z</time>
      </trkpt>
      <trkpt lat="37.86825592629611492156982421875" lon="-1.52136513032019138336181640625">
        <ele>780.79998779296875</ele>
        <time>2020-02-22T14:11:24.000Z</time>
      </trkpt>
      <trkpt lat="37.86839489825069904327392578125" lon="-1.52136395685374736785888671875">
        <ele>780.20001220703125</ele>
        <time>2020-02-22T14:11:26.000Z</time>
      </trkpt>
      <trkpt lat="37.86846094764769077301025390625" lon="-1.521363370120525360107421875">
        <ele>779.79998779296875</ele>
        <time>2020-02-22T14:11:27.000Z</time>
      </trkpt>
      <trkpt lat="37.86866446025669574737548828125" lon="-1.521356664597988128662109375">
        <ele>779</ele>
        <time>2020-02-22T14:11:30.000Z</time>
      </trkpt>
      <trkpt lat="37.868724055588245391845703125" lon="-1.521343924105167388916015625">
        <ele>779</ele>
        <time>2020-02-22T14:11:31.000Z</time>
      </trkpt>
      <trkpt lat="37.8688363730907440185546875" lon="-1.5212827362120151519775390625">
        <ele>778.79998779296875</ele>
        <time>2020-02-22T14:11:33.000Z</time>
      </trkpt>
      <trkpt lat="37.86892513744533061981201171875" lon="-1.5210901200771331787109375">
        <ele>778.5999755859375</ele>
        <time>2020-02-22T14:11:36.000Z</time>
      </trkpt>
      <trkpt lat="37.8689542226493358612060546875" lon="-1.52071050368249416351318359375">
        <ele>778.4000244140625</ele>
        <time>2020-02-22T14:11:40.000Z</time>
      </trkpt>
      <trkpt lat="37.8688006661832332611083984375" lon="-1.52044974267482757568359375">
        <ele>778.20001220703125</ele>
        <time>2020-02-22T14:11:43.000Z</time>
      </trkpt>
      <trkpt lat="37.868738137185573577880859375" lon="-1.52037505991756916046142578125">
        <ele>777.79998779296875</ele>
        <time>2020-02-22T14:11:44.000Z</time>
      </trkpt>
      <trkpt lat="37.86866161040961742401123046875" lon="-1.52029844932258129119873046875">
        <ele>777.20001220703125</ele>
        <time>2020-02-22T14:11:45.000Z</time>
      </trkpt>
      <trkpt lat="37.868585921823978424072265625" lon="-1.52021773159503936767578125">
        <ele>776.4000244140625</ele>
        <time>2020-02-22T14:11:46.000Z</time>
      </trkpt>
      <trkpt lat="37.86852431483566761016845703125" lon="-1.52011756785213947296142578125">
        <ele>775.79998779296875</ele>
        <time>2020-02-22T14:11:47.000Z</time>
      </trkpt>
      <trkpt lat="37.86846849136054515838623046875" lon="-1.5200130455195903778076171875">
        <ele>775.20001220703125</ele>
        <time>2020-02-22T14:11:48.000Z</time>
      </trkpt>
      <trkpt lat="37.86841199733316898345947265625" lon="-1.51988404802978038787841796875">
        <ele>774</ele>
        <time>2020-02-22T14:11:49.000Z</time>
      </trkpt>
      <trkpt lat="37.86837025545537471771240234375" lon="-1.51974909938871860504150390625">
        <ele>772.79998779296875</ele>
        <time>2020-02-22T14:11:50.000Z</time>
      </trkpt>
      <trkpt lat="37.86834083497524261474609375" lon="-1.51962001807987689971923828125">
        <ele>772</ele>
        <time>2020-02-22T14:11:51.000Z</time>
      </trkpt>
      <trkpt lat="37.8683232329785823822021484375" lon="-1.5194910205900669097900390625">
        <ele>771.5999755859375</ele>
        <time>2020-02-22T14:11:52.000Z</time>
      </trkpt>
      <trkpt lat="37.86835667677223682403564453125" lon="-1.51923277415335178375244140625">
        <ele>770</ele>
        <time>2020-02-22T14:11:54.000Z</time>
      </trkpt>
      <trkpt lat="37.86840654909610748291015625" lon="-1.51911643333733081817626953125">
        <ele>768.79998779296875</ele>
        <time>2020-02-22T14:11:55.000Z</time>
      </trkpt>
      <trkpt lat="37.86850872449576854705810546875" lon="-1.518905460834503173828125">
        <ele>767.20001220703125</ele>
        <time>2020-02-22T14:11:57.000Z</time>
      </trkpt>
      <trkpt lat="37.8685264103114604949951171875" lon="-1.51878199540078639984130859375">
        <ele>765.20001220703125</ele>
        <time>2020-02-22T14:11:59.000Z</time>
      </trkpt>
      <trkpt lat="37.86847167648375034332275390625" lon="-1.51880026794970035552978515625">
        <ele>762.5999755859375</ele>
        <time>2020-02-22T14:12:01.000Z</time>
      </trkpt>
      <trkpt lat="37.86840797401964664459228515625" lon="-1.51889531873166561126708984375">
        <ele>761.4000244140625</ele>
        <time>2020-02-22T14:12:03.000Z</time>
      </trkpt>
      <trkpt lat="37.86838165484368801116943359375" lon="-1.5189643017947673797607421875">
        <ele>761</ele>
        <time>2020-02-22T14:12:04.000Z</time>
      </trkpt>
      <trkpt lat="37.86828316748142242431640625" lon="-1.51919924654066562652587890625">
        <ele>760.4000244140625</ele>
        <time>2020-02-22T14:12:08.000Z</time>
      </trkpt>
      <trkpt lat="37.8682491369545459747314453125" lon="-1.519231684505939483642578125">
        <ele>760.4000244140625</ele>
        <time>2020-02-22T14:12:09.000Z</time>
      </trkpt>
      <trkpt lat="37.86823086440563201904296875" lon="-1.5192241407930850982666015625">
        <ele>760.20001220703125</ele>
        <time>2020-02-22T14:12:10.000Z</time>
      </trkpt>
      <trkpt lat="37.8682340495288372039794921875" lon="-1.51917594484984874725341796875">
        <ele>759.5999755859375</ele>
        <time>2020-02-22T14:12:11.000Z</time>
      </trkpt>
      <trkpt lat="37.8681998513638973236083984375" lon="-1.51903680525720119476318359375">
        <ele>759</ele>
        <time>2020-02-22T14:12:13.000Z</time>
      </trkpt>
      <trkpt lat="37.86818987689912319183349609375" lon="-1.51895365677773952484130859375">
        <ele>758.4000244140625</ele>
        <time>2020-02-22T14:12:14.000Z</time>
      </trkpt>
      <trkpt lat="37.86817562766373157501220703125" lon="-1.5188580192625522613525390625">
        <ele>757.79998779296875</ele>
        <time>2020-02-22T14:12:15.000Z</time>
      </trkpt>
      <trkpt lat="37.86817227490246295928955078125" lon="-1.5185680054128170013427734375">
        <ele>756.5999755859375</ele>
        <time>2020-02-22T14:12:18.000Z</time>
      </trkpt>
      <trkpt lat="37.86818250082433223724365234375" lon="-1.51846063323318958282470703125">
        <ele>756.20001220703125</ele>
        <time>2020-02-22T14:12:19.000Z</time>
      </trkpt>
      <trkpt lat="37.868189625442028045654296875" lon="-1.51834865100681781768798828125">
        <ele>755.5999755859375</ele>
        <time>2020-02-22T14:12:20.000Z</time>
      </trkpt>
      <trkpt lat="37.8682018630206584930419921875" lon="-1.51812703348696231842041015625">
        <ele>754.4000244140625</ele>
        <time>2020-02-22T14:12:22.000Z</time>
      </trkpt>
      <trkpt lat="37.86821208894252777099609375" lon="-1.518013961613178253173828125">
        <ele>753.79998779296875</ele>
        <time>2020-02-22T14:12:23.000Z</time>
      </trkpt>
      <trkpt lat="37.86822147667407989501953125" lon="-1.51789803989231586456298828125">
        <ele>753.20001220703125</ele>
        <time>2020-02-22T14:12:24.000Z</time>
      </trkpt>
      <trkpt lat="37.8682340495288372039794921875" lon="-1.517785973846912384033203125">
        <ele>752.5999755859375</ele>
        <time>2020-02-22T14:12:25.000Z</time>
      </trkpt>
      <trkpt lat="37.86824570037424564361572265625" lon="-1.517671979963779449462890625">
        <ele>752</ele>
        <time>2020-02-22T14:12:26.000Z</time>
      </trkpt>
      <trkpt lat="37.86826598457992076873779296875" lon="-1.5174342691898345947265625">
        <ele>750.79998779296875</ele>
        <time>2020-02-22T14:12:28.000Z</time>
      </trkpt>
      <trkpt lat="37.86829230375587940216064453125" lon="-1.5170696564018726348876953125">
        <ele>749</ele>
        <time>2020-02-22T14:12:31.000Z</time>
      </trkpt>
      <trkpt lat="37.868310995399951934814453125" lon="-1.51694686152040958404541015625">
        <ele>748.20001220703125</ele>
        <time>2020-02-22T14:12:32.000Z</time>
      </trkpt>
      <trkpt lat="37.8683356381952762603759765625" lon="-1.516824401915073394775390625">
        <ele>747.5999755859375</ele>
        <time>2020-02-22T14:12:33.000Z</time>
      </trkpt>
      <trkpt lat="37.86841250024735927581787109375" lon="-1.516595073044300079345703125">
        <ele>746.20001220703125</ele>
        <time>2020-02-22T14:12:35.000Z</time>
      </trkpt>
      <trkpt lat="37.868514172732830047607421875" lon="-1.516368426382541656494140625">
        <ele>744.4000244140625</ele>
        <time>2020-02-22T14:12:37.000Z</time>
      </trkpt>
      <trkpt lat="37.86861400119960308074951171875" lon="-1.5161379240453243255615234375">
        <ele>742.79998779296875</ele>
        <time>2020-02-22T14:12:39.000Z</time>
      </trkpt>
      <trkpt lat="37.868660353124141693115234375" lon="-1.516029797494411468505859375">
        <ele>742</ele>
        <time>2020-02-22T14:12:40.000Z</time>
      </trkpt>
      <trkpt lat="37.86870670504868030548095703125" lon="-1.51592661626636981964111328125">
        <ele>741.4000244140625</ele>
        <time>2020-02-22T14:12:41.000Z</time>
      </trkpt>
      <trkpt lat="37.868791781365871429443359375" lon="-1.51576149277389049530029296875">
        <ele>739.5999755859375</ele>
        <time>2020-02-22T14:12:43.000Z</time>
      </trkpt>
      <trkpt lat="37.8687999956309795379638671875" lon="-1.51570047251880168914794921875">
        <ele>739</ele>
        <time>2020-02-22T14:12:44.000Z</time>
      </trkpt>
      <trkpt lat="37.86876521073281764984130859375" lon="-1.515648923814296722412109375">
        <ele>738</ele>
        <time>2020-02-22T14:12:45.000Z</time>
      </trkpt>
      <trkpt lat="37.8687074594199657440185546875" lon="-1.51561430655419826507568359375">
        <ele>737.20001220703125</ele>
        <time>2020-02-22T14:12:46.000Z</time>
      </trkpt>
      <trkpt lat="37.86866328679025173187255859375" lon="-1.51560190133750438690185546875">
        <ele>736.4000244140625</ele>
        <time>2020-02-22T14:12:47.000Z</time>
      </trkpt>
      <trkpt lat="37.86859639920294284820556640625" lon="-1.515628136694431304931640625">
        <ele>735.4000244140625</ele>
        <time>2020-02-22T14:12:49.000Z</time>
      </trkpt>
      <trkpt lat="37.86851962096989154815673828125" lon="-1.51564800180494785308837890625">
        <ele>734.20001220703125</ele>
        <time>2020-02-22T14:12:52.000Z</time>
      </trkpt>
      <trkpt lat="37.8684979118406772613525390625" lon="-1.51561128906905651092529296875">
        <ele>734</ele>
        <time>2020-02-22T14:12:53.000Z</time>
      </trkpt>
      <trkpt lat="37.86846195347607135772705078125" lon="-1.51547717861831188201904296875">
        <ele>733.79998779296875</ele>
        <time>2020-02-22T14:12:55.000Z</time>
      </trkpt>
      <trkpt lat="37.86843999288976192474365234375" lon="-1.51537911035120487213134765625">
        <ele>733.5999755859375</ele>
        <time>2020-02-22T14:12:56.000Z</time>
      </trkpt>
      <trkpt lat="37.86841216497123241424560546875" lon="-1.51514810509979724884033203125">
        <ele>733</ele>
        <time>2020-02-22T14:12:58.000Z</time>
      </trkpt>
      <trkpt lat="37.8683889470994472503662109375" lon="-1.51504299603402614593505859375">
        <ele>732.79998779296875</ele>
        <time>2020-02-22T14:12:59.000Z</time>
      </trkpt>
      <trkpt lat="37.86836656741797924041748046875" lon="-1.51493419893085956573486328125">
        <ele>732.20001220703125</ele>
        <time>2020-02-22T14:13:00.000Z</time>
      </trkpt>
      <trkpt lat="37.86832734011113643646240234375" lon="-1.51483126915991306304931640625">
        <ele>730.4000244140625</ele>
        <time>2020-02-22T14:13:01.000Z</time>
      </trkpt>
      <trkpt lat="37.86823329515755176544189453125" lon="-1.51461535133421421051025390625">
        <ele>728.4000244140625</ele>
        <time>2020-02-22T14:13:03.000Z</time>
      </trkpt>
      <trkpt lat="37.8681321255862712860107421875" lon="-1.514389626681804656982421875">
        <ele>726.79998779296875</ele>
        <time>2020-02-22T14:13:05.000Z</time>
      </trkpt>
      <trkpt lat="37.868025004863739013671875" lon="-1.51413490064442157745361328125">
        <ele>725.5999755859375</ele>
        <time>2020-02-22T14:13:07.000Z</time>
      </trkpt>
      <trkpt lat="37.86790723912417888641357421875" lon="-1.5138803422451019287109375">
        <ele>724.4000244140625</ele>
        <time>2020-02-22T14:13:09.000Z</time>
      </trkpt>
      <trkpt lat="37.867783606052398681640625" lon="-1.513659395277500152587890625">
        <ele>722.79998779296875</ele>
        <time>2020-02-22T14:13:11.000Z</time>
      </trkpt>
      <trkpt lat="37.8677297942340373992919921875" lon="-1.51353727094829082489013671875">
        <ele>721.79998779296875</ele>
        <time>2020-02-22T14:13:12.000Z</time>
      </trkpt>
      <trkpt lat="37.86768235266208648681640625" lon="-1.5134188346564769744873046875">
        <ele>721</ele>
        <time>2020-02-22T14:13:13.000Z</time>
      </trkpt>
      <trkpt lat="37.8676456399261951446533203125" lon="-1.5132914297282695770263671875">
        <ele>720.4000244140625</ele>
        <time>2020-02-22T14:13:14.000Z</time>
      </trkpt>
      <trkpt lat="37.8676305525004863739013671875" lon="-1.513170897960662841796875">
        <ele>719.4000244140625</ele>
        <time>2020-02-22T14:13:15.000Z</time>
      </trkpt>
      <trkpt lat="37.86763248033821582794189453125" lon="-1.5130533836781978607177734375">
        <ele>718.4000244140625</ele>
        <time>2020-02-22T14:13:16.000Z</time>
      </trkpt>
      <trkpt lat="37.8676412813365459442138671875" lon="-1.51293327100574970245361328125">
        <ele>717.5999755859375</ele>
        <time>2020-02-22T14:13:17.000Z</time>
      </trkpt>
      <trkpt lat="37.86765284836292266845703125" lon="-1.51281726546585559844970703125">
        <ele>717</ele>
        <time>2020-02-22T14:13:18.000Z</time>
      </trkpt>
      <trkpt lat="37.8676828555762767791748046875" lon="-1.512561030685901641845703125">
        <ele>715.4000244140625</ele>
        <time>2020-02-22T14:13:20.000Z</time>
      </trkpt>
      <trkpt lat="37.8677100129425525665283203125" lon="-1.5124270878732204437255859375">
        <ele>714.5999755859375</ele>
        <time>2020-02-22T14:13:21.000Z</time>
      </trkpt>
      <trkpt lat="37.8677391819655895233154296875" lon="-1.51229557581245899200439453125">
        <ele>714</ele>
        <time>2020-02-22T14:13:22.000Z</time>
      </trkpt>
      <trkpt lat="37.86778452806174755096435546875" lon="-1.5120376646518707275390625">
        <ele>713</ele>
        <time>2020-02-22T14:13:24.000Z</time>
      </trkpt>
      <trkpt lat="37.86781839095056056976318359375" lon="-1.51188788004219532012939453125">
        <ele>712</ele>
        <time>2020-02-22T14:13:25.000Z</time>
      </trkpt>
      <trkpt lat="37.8678759746253490447998046875" lon="-1.51164229027926921844482421875">
        <ele>710.4000244140625</ele>
        <time>2020-02-22T14:13:27.000Z</time>
      </trkpt>
      <trkpt lat="37.8679671697318553924560546875" lon="-1.51142285205423831939697265625">
        <ele>709.5999755859375</ele>
        <time>2020-02-22T14:13:29.000Z</time>
      </trkpt>
      <trkpt lat="37.86806582473218441009521484375" lon="-1.51126678101718425750732421875">
        <ele>709.4000244140625</ele>
        <time>2020-02-22T14:13:31.000Z</time>
      </trkpt>
      <trkpt lat="37.86811418831348419189453125" lon="-1.5112034976482391357421875">
        <ele>709.20001220703125</ele>
        <time>2020-02-22T14:13:32.000Z</time>
      </trkpt>
      <trkpt lat="37.86816322244703769683837890625" lon="-1.51114172302186489105224609375">
        <ele>709.20001220703125</ele>
        <time>2020-02-22T14:13:33.000Z</time>
      </trkpt>
      <trkpt lat="37.8683802299201488494873046875" lon="-1.5108730830252170562744140625">
        <ele>709</ele>
        <time>2020-02-22T14:13:37.000Z</time>
      </trkpt>
      <trkpt lat="37.8685250692069530487060546875" lon="-1.51062338612973690032958984375">
        <ele>709</ele>
        <time>2020-02-22T14:13:40.000Z</time>
      </trkpt>
      <trkpt lat="37.8686172701418399810791015625" lon="-1.51044468395411968231201171875">
        <ele>709</ele>
        <time>2020-02-22T14:13:42.000Z</time>
      </trkpt>
      <trkpt lat="37.86869681440293788909912109375" lon="-1.51035449467599391937255859375">
        <ele>709</ele>
        <time>2020-02-22T14:13:43.000Z</time>
      </trkpt>
      <trkpt lat="37.8688566572964191436767578125" lon="-1.5102390758693218231201171875">
        <ele>709</ele>
        <time>2020-02-22T14:13:45.000Z</time>
      </trkpt>
      <trkpt lat="37.86905555985867977142333984375" lon="-1.51012030430138111114501953125">
        <ele>707.79998779296875</ele>
        <time>2020-02-22T14:13:48.000Z</time>
      </trkpt>
      <trkpt lat="37.86908003501594066619873046875" lon="-1.50990153662860393524169921875">
        <ele>706.4000244140625</ele>
        <time>2020-02-22T14:13:51.000Z</time>
      </trkpt>
      <trkpt lat="37.8690155781805515289306640625" lon="-1.50979056023061275482177734375">
        <ele>705.4000244140625</ele>
        <time>2020-02-22T14:13:53.000Z</time>
      </trkpt>
      <trkpt lat="37.8689998202025890350341796875" lon="-1.50971763767302036285400390625">
        <ele>705</ele>
        <time>2020-02-22T14:13:54.000Z</time>
      </trkpt>
      <trkpt lat="37.8689743392169475555419921875" lon="-1.5095685236155986785888671875">
        <ele>704.4000244140625</ele>
        <time>2020-02-22T14:13:56.000Z</time>
      </trkpt>
      <trkpt lat="37.868958748877048492431640625" lon="-1.509496271610260009765625">
        <ele>704.20001220703125</ele>
        <time>2020-02-22T14:13:57.000Z</time>
      </trkpt>
      <trkpt lat="37.868947349488735198974609375" lon="-1.50934447534382343292236328125">
        <ele>704.20001220703125</ele>
        <time>2020-02-22T14:13:59.000Z</time>
      </trkpt>
      <trkpt lat="37.86895933561027050018310546875" lon="-1.50899427942931652069091796875">
        <ele>704.20001220703125</ele>
        <time>2020-02-22T14:14:04.000Z</time>
      </trkpt>
      <trkpt lat="37.86895531229674816131591796875" lon="-1.50886754505336284637451171875">
        <ele>704.20001220703125</ele>
        <time>2020-02-22T14:14:06.000Z</time>
      </trkpt>
      <trkpt lat="37.86890669725835323333740234375" lon="-1.5086542256176471710205078125">
        <ele>704.5999755859375</ele>
        <time>2020-02-22T14:14:09.000Z</time>
      </trkpt>
      <trkpt lat="37.86883176304399967193603515625" lon="-1.50816120207309722900390625">
        <ele>704.5999755859375</ele>
        <time>2020-02-22T14:14:14.000Z</time>
      </trkpt>
      <trkpt lat="37.86882229149341583251953125" lon="-1.50792055763304233551025390625">
        <ele>704.4000244140625</ele>
        <time>2020-02-22T14:14:16.000Z</time>
      </trkpt>
      <trkpt lat="37.86881717853248119354248046875" lon="-1.507794745266437530517578125">
        <ele>704.20001220703125</ele>
        <time>2020-02-22T14:14:17.000Z</time>
      </trkpt>
      <trkpt lat="37.86879924125969409942626953125" lon="-1.50754102505743503570556640625">
        <ele>703</ele>
        <time>2020-02-22T14:14:19.000Z</time>
      </trkpt>
      <trkpt lat="37.86877132952213287353515625" lon="-1.50728336535394191741943359375">
        <ele>701.79998779296875</ele>
        <time>2020-02-22T14:14:21.000Z</time>
      </trkpt>
      <trkpt lat="37.86872036755084991455078125" lon="-1.507021598517894744873046875">
        <ele>700.79998779296875</ele>
        <time>2020-02-22T14:14:23.000Z</time>
      </trkpt>
      <trkpt lat="37.86868122406303882598876953125" lon="-1.506890840828418731689453125">
        <ele>700.20001220703125</ele>
        <time>2020-02-22T14:14:24.000Z</time>
      </trkpt>
      <trkpt lat="37.86863830871880054473876953125" lon="-1.50676318444311618804931640625">
        <ele>699.79998779296875</ele>
        <time>2020-02-22T14:14:25.000Z</time>
      </trkpt>
      <trkpt lat="37.86859338171780109405517578125" lon="-1.506637372076511383056640625">
        <ele>698.5999755859375</ele>
        <time>2020-02-22T14:14:26.000Z</time>
      </trkpt>
      <trkpt lat="37.86850939504802227020263671875" lon="-1.50639362633228302001953125">
        <ele>696.5999755859375</ele>
        <time>2020-02-22T14:14:28.000Z</time>
      </trkpt>
      <trkpt lat="37.8684684075415134429931640625" lon="-1.506281308829784393310546875">
        <ele>695.4000244140625</ele>
        <time>2020-02-22T14:14:29.000Z</time>
      </trkpt>
      <trkpt lat="37.868395149707794189453125" lon="-1.5060980804264545440673828125">
        <ele>693.79998779296875</ele>
        <time>2020-02-22T14:14:31.000Z</time>
      </trkpt>
      <trkpt lat="37.868367992341518402099609375" lon="-1.50601769797503948211669921875">
        <ele>693</ele>
        <time>2020-02-22T14:14:32.000Z</time>
      </trkpt>
      <trkpt lat="37.868343181908130645751953125" lon="-1.50594108738005161285400390625">
        <ele>692.4000244140625</ele>
        <time>2020-02-22T14:14:33.000Z</time>
      </trkpt>
      <trkpt lat="37.86833035759627819061279296875" lon="-1.50586129166185855865478515625">
        <ele>691.4000244140625</ele>
        <time>2020-02-22T14:14:34.000Z</time>
      </trkpt>
      <trkpt lat="37.8683198802173137664794921875" lon="-1.50578484870493412017822265625">
        <ele>690.5999755859375</ele>
        <time>2020-02-22T14:14:35.000Z</time>
      </trkpt>
      <trkpt lat="37.868331111967563629150390625" lon="-1.5056541748344898223876953125">
        <ele>689.4000244140625</ele>
        <time>2020-02-22T14:14:37.000Z</time>
      </trkpt>
      <trkpt lat="37.8684147633612155914306640625" lon="-1.50547354482114315032958984375">
        <ele>688.5999755859375</ele>
        <time>2020-02-22T14:14:40.000Z</time>
      </trkpt>
      <trkpt lat="37.86843513138592243194580078125" lon="-1.5054221637547016143798828125">
        <ele>688.5999755859375</ele>
        <time>2020-02-22T14:14:41.000Z</time>
      </trkpt>
      <trkpt lat="37.86849774420261383056640625" lon="-1.50524698197841644287109375">
        <ele>688.5999755859375</ele>
        <time>2020-02-22T14:14:45.000Z</time>
      </trkpt>
      <trkpt lat="37.868499755859375" lon="-1.5051274560391902923583984375">
        <ele>688.79998779296875</ele>
        <time>2020-02-22T14:14:48.000Z</time>
      </trkpt>
      <trkpt lat="37.8684982471168041229248046875" lon="-1.50501773692667484283447265625">
        <ele>689.4000244140625</ele>
        <time>2020-02-22T14:14:50.000Z</time>
      </trkpt>
      <trkpt lat="37.8685083054006099700927734375" lon="-1.50487507693469524383544921875">
        <ele>690.5999755859375</ele>
        <time>2020-02-22T14:14:53.000Z</time>
      </trkpt>
      <trkpt lat="37.86851643584668636322021484375" lon="-1.504784636199474334716796875">
        <ele>691.20001220703125</ele>
        <time>2020-02-22T14:14:55.000Z</time>
      </trkpt>
      <trkpt lat="37.86852397955954074859619140625" lon="-1.5047060139477252960205078125">
        <ele>692</ele>
        <time>2020-02-22T14:14:57.000Z</time>
      </trkpt>
      <trkpt lat="37.86853672005236148834228515625" lon="-1.5045998990535736083984375">
        <ele>693.20001220703125</ele>
        <time>2020-02-22T14:15:00.000Z</time>
      </trkpt>
      <trkpt lat="37.86854200065135955810546875" lon="-1.50456628762185573577880859375">
        <ele>693.5999755859375</ele>
        <time>2020-02-22T14:15:01.000Z</time>
      </trkpt>
      <trkpt lat="37.8685803897678852081298828125" lon="-1.50441625155508518218994140625">
        <ele>694.4000244140625</ele>
        <time>2020-02-22T14:15:05.000Z</time>
      </trkpt>
      <trkpt lat="37.868615090847015380859375" lon="-1.50431415997445583343505859375">
        <ele>695</ele>
        <time>2020-02-22T14:15:08.000Z</time>
      </trkpt>
      <trkpt lat="37.8686839900910854339599609375" lon="-1.5042212046682834625244140625">
        <ele>695.4000244140625</ele>
        <time>2020-02-22T14:15:11.000Z</time>
      </trkpt>
      <trkpt lat="37.8687792085111141204833984375" lon="-1.5041605196893215179443359375">
        <ele>695.79998779296875</ele>
        <time>2020-02-22T14:15:14.000Z</time>
      </trkpt>
      <trkpt lat="37.8689223714172840118408203125" lon="-1.5040508843958377838134765625">
        <ele>696.4000244140625</ele>
        <time>2020-02-22T14:15:19.000Z</time>
      </trkpt>
      <trkpt lat="37.86895313300192356109619140625" lon="-1.50402699597179889678955078125">
        <ele>696.5999755859375</ele>
        <time>2020-02-22T14:15:20.000Z</time>
      </trkpt>
      <trkpt lat="37.86907886154949665069580078125" lon="-1.50387243367731571197509765625">
        <ele>697.5999755859375</ele>
        <time>2020-02-22T14:15:26.000Z</time>
      </trkpt>
      <trkpt lat="37.869124710559844970703125" lon="-1.50377101264894008636474609375">
        <ele>698.5999755859375</ele>
        <time>2020-02-22T14:15:30.000Z</time>
      </trkpt>
      <trkpt lat="37.86918950267136096954345703125" lon="-1.50368149392306804656982421875">
        <ele>699.5999755859375</ele>
        <time>2020-02-22T14:15:34.000Z</time>
      </trkpt>
      <trkpt lat="37.8692620061337947845458984375" lon="-1.50359901599586009979248046875">
        <ele>700.79998779296875</ele>
        <time>2020-02-22T14:15:38.000Z</time>
      </trkpt>
      <trkpt lat="37.86931405775249004364013671875" lon="-1.5035191364586353302001953125">
        <ele>701.4000244140625</ele>
        <time>2020-02-22T14:15:42.000Z</time>
      </trkpt>
      <trkpt lat="37.869348339736461639404296875" lon="-1.50348485447466373443603515625">
        <ele>701.79998779296875</ele>
        <time>2020-02-22T14:15:44.000Z</time>
      </trkpt>
      <trkpt lat="37.86944322288036346435546875" lon="-1.50341226719319820404052734375">
        <ele>702.5999755859375</ele>
        <time>2020-02-22T14:15:48.000Z</time>
      </trkpt>
      <trkpt lat="37.86950298584997653961181640625" lon="-1.50336717255413532257080078125">
        <ele>703</ele>
        <time>2020-02-22T14:15:51.000Z</time>
      </trkpt>
      <trkpt lat="37.8695627488195896148681640625" lon="-1.50330564938485622406005859375">
        <ele>703.4000244140625</ele>
        <time>2020-02-22T14:15:54.000Z</time>
      </trkpt>
      <trkpt lat="37.86960415542125701904296875" lon="-1.50326994247734546661376953125">
        <ele>704</ele>
        <time>2020-02-22T14:15:56.000Z</time>
      </trkpt>
      <trkpt lat="37.86972041241824626922607421875" lon="-1.50317723862826824188232421875">
        <ele>705</ele>
        <time>2020-02-22T14:16:01.000Z</time>
      </trkpt>
      <trkpt lat="37.869740612804889678955078125" lon="-1.503161229193210601806640625">
        <ele>705</ele>
        <time>2020-02-22T14:16:02.000Z</time>
      </trkpt>
      <trkpt lat="37.86981563083827495574951171875" lon="-1.5030603110790252685546875">
        <ele>706</ele>
        <time>2020-02-22T14:16:07.000Z</time>
      </trkpt>
      <trkpt lat="37.86982350982725620269775390625" lon="-1.50304145179688930511474609375">
        <ele>706.20001220703125</ele>
        <time>2020-02-22T14:16:08.000Z</time>
      </trkpt>
      <trkpt lat="37.8698698617517948150634765625" lon="-1.502921171486377716064453125">
        <ele>707.4000244140625</ele>
        <time>2020-02-22T14:16:13.000Z</time>
      </trkpt>
      <trkpt lat="37.869874723255634307861328125" lon="-1.5028958581387996673583984375">
        <ele>707.4000244140625</ele>
        <time>2020-02-22T14:16:14.000Z</time>
      </trkpt>
      <trkpt lat="37.86991537548601627349853515625" lon="-1.502750851213932037353515625">
        <ele>708.20001220703125</ele>
        <time>2020-02-22T14:16:19.000Z</time>
      </trkpt>
      <trkpt lat="37.86992677487432956695556640625" lon="-1.50268823839724063873291015625">
        <ele>708.5999755859375</ele>
        <time>2020-02-22T14:16:21.000Z</time>
      </trkpt>
      <trkpt lat="37.869935072958469390869140625" lon="-1.5026608295738697052001953125">
        <ele>708.79998779296875</ele>
        <time>2020-02-22T14:16:22.000Z</time>
      </trkpt>
      <trkpt lat="37.8699597157537937164306640625" lon="-1.50258279405534267425537109375">
        <ele>709.20001220703125</ele>
        <time>2020-02-22T14:16:25.000Z</time>
      </trkpt>
      <trkpt lat="37.8699687682092189788818359375" lon="-1.502555720508098602294921875">
        <ele>709.5999755859375</ele>
        <time>2020-02-22T14:16:26.000Z</time>
      </trkpt>
      <trkpt lat="37.870015539228916168212890625" lon="-1.5024214424192905426025390625">
        <ele>710.20001220703125</ele>
        <time>2020-02-22T14:16:31.000Z</time>
      </trkpt>
      <trkpt lat="37.87006004713475704193115234375" lon="-1.50232144631445407867431640625">
        <ele>711</ele>
        <time>2020-02-22T14:16:35.000Z</time>
      </trkpt>
      <trkpt lat="37.87007295526564121246337890625" lon="-1.5022732503712177276611328125">
        <ele>711.5999755859375</ele>
        <time>2020-02-22T14:16:37.000Z</time>
      </trkpt>
      <trkpt lat="37.87011050619184970855712890625" lon="-1.502146683633327484130859375">
        <ele>712.5999755859375</ele>
        <time>2020-02-22T14:16:42.000Z</time>
      </trkpt>
      <trkpt lat="37.87012374959886074066162109375" lon="-1.50211726315319538116455078125">
        <ele>712.5999755859375</ele>
        <time>2020-02-22T14:16:43.000Z</time>
      </trkpt>
      <trkpt lat="37.87017814815044403076171875" lon="-1.50197745300829410552978515625">
        <ele>713.5999755859375</ele>
        <time>2020-02-22T14:16:48.000Z</time>
      </trkpt>
      <trkpt lat="37.8701887093484401702880859375" lon="-1.50195398367941379547119140625">
        <ele>713.79998779296875</ele>
        <time>2020-02-22T14:16:49.000Z</time>
      </trkpt>
      <trkpt lat="37.87025056779384613037109375" lon="-1.50181350298225879669189453125">
        <ele>714.79998779296875</ele>
        <time>2020-02-22T14:16:55.000Z</time>
      </trkpt>
      <trkpt lat="37.87028610706329345703125" lon="-1.50169313885271549224853515625">
        <ele>716</ele>
        <time>2020-02-22T14:17:00.000Z</time>
      </trkpt>
      <trkpt lat="37.8703033737838268280029296875" lon="-1.50164879858493804931640625">
        <ele>716.4000244140625</ele>
        <time>2020-02-22T14:17:02.000Z</time>
      </trkpt>
      <trkpt lat="37.87034050561487674713134765625" lon="-1.50153924711048603057861328125">
        <ele>717</ele>
        <time>2020-02-22T14:17:06.000Z</time>
      </trkpt>
      <trkpt lat="37.87039515562355518341064453125" lon="-1.5014565177261829376220703125">
        <ele>717.4000244140625</ele>
        <time>2020-02-22T14:17:09.000Z</time>
      </trkpt>
      <trkpt lat="37.87046573124825954437255859375" lon="-1.501351408660411834716796875">
        <ele>718</ele>
        <time>2020-02-22T14:17:13.000Z</time>
      </trkpt>
      <trkpt lat="37.8705487959086894989013671875" lon="-1.5012188069522380828857421875">
        <ele>718.79998779296875</ele>
        <time>2020-02-22T14:17:18.000Z</time>
      </trkpt>
      <trkpt lat="37.870573103427886962890625" lon="-1.50119206868112087249755859375">
        <ele>719</ele>
        <time>2020-02-22T14:17:19.000Z</time>
      </trkpt>
      <trkpt lat="37.87067427299916744232177734375" lon="-1.50106944143772125244140625">
        <ele>720</ele>
        <time>2020-02-22T14:17:24.000Z</time>
      </trkpt>
      <trkpt lat="37.87069690413773059844970703125" lon="-1.501041613519191741943359375">
        <ele>720.20001220703125</ele>
        <time>2020-02-22T14:17:25.000Z</time>
      </trkpt>
      <trkpt lat="37.87082414142787456512451171875" lon="-1.50088369846343994140625">
        <ele>721.20001220703125</ele>
        <time>2020-02-22T14:17:31.000Z</time>
      </trkpt>
      <trkpt lat="37.87097367458045482635498046875" lon="-1.5007091872394084930419921875">
        <ele>722.20001220703125</ele>
        <time>2020-02-22T14:17:39.000Z</time>
      </trkpt>
      <trkpt lat="37.8710875846445560455322265625" lon="-1.50053576566278934478759765625">
        <ele>723.4000244140625</ele>
        <time>2020-02-22T14:17:45.000Z</time>
      </trkpt>
      <trkpt lat="37.87110627628862857818603515625" lon="-1.50050860829651355743408203125">
        <ele>723.5999755859375</ele>
        <time>2020-02-22T14:17:46.000Z</time>
      </trkpt>
      <trkpt lat="37.8711760975420475006103515625" lon="-1.5003712289035320281982421875">
        <ele>724.5999755859375</ele>
        <time>2020-02-22T14:17:51.000Z</time>
      </trkpt>
      <trkpt lat="37.871221192181110382080078125" lon="-1.5002763457596302032470703125">
        <ele>725.20001220703125</ele>
        <time>2020-02-22T14:17:54.000Z</time>
      </trkpt>
      <trkpt lat="37.8712401352822780609130859375" lon="-1.50021784007549285888671875">
        <ele>725.5999755859375</ele>
        <time>2020-02-22T14:17:56.000Z</time>
      </trkpt>
      <trkpt lat="37.871258072555065155029296875" lon="-1.500103175640106201171875">
        <ele>726.5999755859375</ele>
        <time>2020-02-22T14:17:59.000Z</time>
      </trkpt>
      <trkpt lat="37.8712625987827777862548828125" lon="-1.50006134994328022003173828125">
        <ele>726.79998779296875</ele>
        <time>2020-02-22T14:18:00.000Z</time>
      </trkpt>
      <trkpt lat="37.87128866650164127349853515625" lon="-1.49976362474262714385986328125">
        <ele>727.5999755859375</ele>
        <time>2020-02-22T14:18:07.000Z</time>
      </trkpt>
      <trkpt lat="37.87128950469195842742919921875" lon="-1.49971836246550083160400390625">
        <ele>727.79998779296875</ele>
        <time>2020-02-22T14:18:08.000Z</time>
      </trkpt>
      <trkpt lat="37.8712847270071506500244140625" lon="-1.4994232356548309326171875">
        <ele>728.5999755859375</ele>
        <time>2020-02-22T14:18:15.000Z</time>
      </trkpt>
      <trkpt lat="37.87128187716007232666015625" lon="-1.49938275106251239776611328125">
        <ele>728.79998779296875</ele>
        <time>2020-02-22T14:18:16.000Z</time>
      </trkpt>
      <trkpt lat="37.87127944640815258026123046875" lon="-1.49916448630392551422119140625">
        <ele>729.20001220703125</ele>
        <time>2020-02-22T14:18:22.000Z</time>
      </trkpt>
      <trkpt lat="37.87129126489162445068359375" lon="-1.49893306195735931396484375">
        <ele>729.79998779296875</ele>
        <time>2020-02-22T14:18:28.000Z</time>
      </trkpt>
      <trkpt lat="37.87129486910998821258544921875" lon="-1.4988205768167972564697265625">
        <ele>730</ele>
        <time>2020-02-22T14:18:31.000Z</time>
      </trkpt>
      <trkpt lat="37.87132856436073780059814453125" lon="-1.498641036450862884521484375">
        <ele>730.4000244140625</ele>
        <time>2020-02-22T14:18:36.000Z</time>
      </trkpt>
      <trkpt lat="37.87136175669729709625244140625" lon="-1.498369462788105010986328125">
        <ele>730.79998779296875</ele>
        <time>2020-02-22T14:18:42.000Z</time>
      </trkpt>
      <trkpt lat="37.87137114442884922027587890625" lon="-1.49827701039612293243408203125">
        <ele>731</ele>
        <time>2020-02-22T14:18:44.000Z</time>
      </trkpt>
      <trkpt lat="37.87145085632801055908203125" lon="-1.49807316251099109649658203125">
        <ele>731.5999755859375</ele>
        <time>2020-02-22T14:18:50.000Z</time>
      </trkpt>
      <trkpt lat="37.8715834580361843109130859375" lon="-1.49799202568829059600830078125">
        <ele>731.79998779296875</ele>
        <time>2020-02-22T14:18:55.000Z</time>
      </trkpt>
      <trkpt lat="37.87160701118409633636474609375" lon="-1.4979736693203449249267578125">
        <ele>732</ele>
        <time>2020-02-22T14:18:56.000Z</time>
      </trkpt>
      <trkpt lat="37.87166702561080455780029296875" lon="-1.49788943119347095489501953125">
        <ele>733</ele>
        <time>2020-02-22T14:18:59.000Z</time>
      </trkpt>
      <trkpt lat="37.87168823182582855224609375" lon="-1.49781801737844944000244140625">
        <ele>733.4000244140625</ele>
        <time>2020-02-22T14:19:01.000Z</time>
      </trkpt>
      <trkpt lat="37.87170759402215480804443359375" lon="-1.49773939512670040130615234375">
        <ele>734</ele>
        <time>2020-02-22T14:19:03.000Z</time>
      </trkpt>
      <trkpt lat="37.871792502701282501220703125" lon="-1.497595645487308502197265625">
        <ele>734.4000244140625</ele>
        <time>2020-02-22T14:19:07.000Z</time>
      </trkpt>
      <trkpt lat="37.87189652211964130401611328125" lon="-1.4975894428789615631103515625">
        <ele>734.5999755859375</ele>
        <time>2020-02-22T14:19:11.000Z</time>
      </trkpt>
      <trkpt lat="37.872001715004444122314453125" lon="-1.497670076787471771240234375">
        <ele>735</ele>
        <time>2020-02-22T14:19:16.000Z</time>
      </trkpt>
      <trkpt lat="37.87202023901045322418212890625" lon="-1.497686170041561126708984375">
        <ele>735.20001220703125</ele>
        <time>2020-02-22T14:19:17.000Z</time>
      </trkpt>
      <trkpt lat="37.87215585820376873016357421875" lon="-1.497788093984127044677734375">
        <ele>736.20001220703125</ele>
        <time>2020-02-22T14:19:24.000Z</time>
      </trkpt>
      <trkpt lat="37.8722704388201236724853515625" lon="-1.497809886932373046875">
        <ele>737.4000244140625</ele>
        <time>2020-02-22T14:19:28.000Z</time>
      </trkpt>
      <trkpt lat="37.872325591742992401123046875" lon="-1.497799493372440338134765625">
        <ele>737.79998779296875</ele>
        <time>2020-02-22T14:19:30.000Z</time>
      </trkpt>
      <trkpt lat="37.87240597419440746307373046875" lon="-1.49776755832135677337646484375">
        <ele>738.79998779296875</ele>
        <time>2020-02-22T14:19:33.000Z</time>
      </trkpt>
      <trkpt lat="37.87249297834932804107666015625" lon="-1.497703604400157928466796875">
        <ele>739.5999755859375</ele>
        <time>2020-02-22T14:19:37.000Z</time>
      </trkpt>
      <trkpt lat="37.87250940687954425811767578125" lon="-1.49768608622252941131591796875">
        <ele>739.79998779296875</ele>
        <time>2020-02-22T14:19:38.000Z</time>
      </trkpt>
      <trkpt lat="37.8725812397897243499755859375" lon="-1.49762322194874286651611328125">
        <ele>741</ele>
        <time>2020-02-22T14:19:42.000Z</time>
      </trkpt>
      <trkpt lat="37.872648127377033233642578125" lon="-1.49756371043622493743896484375">
        <ele>742</ele>
        <time>2020-02-22T14:19:46.000Z</time>
      </trkpt>
      <trkpt lat="37.87272750400006771087646484375" lon="-1.4975176937878131866455078125">
        <ele>743.20001220703125</ele>
        <time>2020-02-22T14:19:50.000Z</time>
      </trkpt>
      <trkpt lat="37.87277712486684322357177734375" lon="-1.4975046180188655853271484375">
        <ele>743.5999755859375</ele>
        <time>2020-02-22T14:19:52.000Z</time>
      </trkpt>
      <trkpt lat="37.8728771209716796875" lon="-1.49748542346060276031494140625">
        <ele>744.20001220703125</ele>
        <time>2020-02-22T14:19:56.000Z</time>
      </trkpt>
      <trkpt lat="37.87297041155397891998291015625" lon="-1.49745407514274120330810546875">
        <ele>745</ele>
        <time>2020-02-22T14:20:01.000Z</time>
      </trkpt>
      <trkpt lat="37.8729842416942119598388671875" lon="-1.49744510650634765625">
        <ele>745.20001220703125</ele>
        <time>2020-02-22T14:20:02.000Z</time>
      </trkpt>
      <trkpt lat="37.87313385866582393646240234375" lon="-1.4973855949938297271728515625">
        <ele>746</ele>
        <time>2020-02-22T14:20:08.000Z</time>
      </trkpt>
      <trkpt lat="37.87320476956665515899658203125" lon="-1.4973681606352329254150390625">
        <ele>746.20001220703125</ele>
        <time>2020-02-22T14:20:11.000Z</time>
      </trkpt>
      <trkpt lat="37.87327752448618412017822265625" lon="-1.4973493851721286773681640625">
        <ele>746.79998779296875</ele>
        <time>2020-02-22T14:20:14.000Z</time>
      </trkpt>
      <trkpt lat="37.8733409754931926727294921875" lon="-1.49733505211770534515380859375">
        <ele>747.4000244140625</ele>
        <time>2020-02-22T14:20:17.000Z</time>
      </trkpt>
      <trkpt lat="37.87336754612624645233154296875" lon="-1.497335135936737060546875">
        <ele>748</ele>
        <time>2020-02-22T14:20:20.000Z</time>
      </trkpt>
      <trkpt lat="37.87371019832789897918701171875" lon="-1.49739674292504787445068359375">
        <ele>752.20001220703125</ele>
        <time>2020-02-22T14:20:40.000Z</time>
      </trkpt>
      <trkpt lat="37.87375085055828094482421875" lon="-1.497401185333728790283203125">
        <ele>752.5999755859375</ele>
        <time>2020-02-22T14:20:42.000Z</time>
      </trkpt>
      <trkpt lat="37.87384598515927791595458984375" lon="-1.49740562774240970611572265625">
        <ele>753.20001220703125</ele>
        <time>2020-02-22T14:20:45.000Z</time>
      </trkpt>
      <trkpt lat="37.8738656826317310333251953125" lon="-1.49740378372371196746826171875">
        <ele>753.4000244140625</ele>
        <time>2020-02-22T14:20:46.000Z</time>
      </trkpt>
      <trkpt lat="37.873884625732898712158203125" lon="-1.4974026940762996673583984375">
        <ele>753.5999755859375</ele>
        <time>2020-02-22T14:20:47.000Z</time>
      </trkpt>
      <trkpt lat="37.8740014694631099700927734375" lon="-1.4973926357924938201904296875">
        <ele>754.79998779296875</ele>
        <time>2020-02-22T14:20:52.000Z</time>
      </trkpt>
      <trkpt lat="37.8740586340427398681640625" lon="-1.497388444840908050537109375">
        <ele>755.20001220703125</ele>
        <time>2020-02-22T14:20:54.000Z</time>
      </trkpt>
      <trkpt lat="37.87408201955258846282958984375" lon="-1.4973802305757999420166015625">
        <ele>755.79998779296875</ele>
        <time>2020-02-22T14:20:55.000Z</time>
      </trkpt>
      <trkpt lat="37.87421143613755702972412109375" lon="-1.49733304046094417572021484375">
        <ele>756.79998779296875</ele>
        <time>2020-02-22T14:21:00.000Z</time>
      </trkpt>
      <trkpt lat="37.874252088367938995361328125" lon="-1.49732231162488460540771484375">
        <ele>757</ele>
        <time>2020-02-22T14:21:01.000Z</time>
      </trkpt>
      <trkpt lat="37.87433699704706668853759765625" lon="-1.497269757091999053955078125">
        <ele>758</ele>
        <time>2020-02-22T14:21:05.000Z</time>
      </trkpt>
      <trkpt lat="37.87442165426909923553466796875" lon="-1.49718333967030048370361328125">
        <ele>758.79998779296875</ele>
        <time>2020-02-22T14:21:10.000Z</time>
      </trkpt>
      <trkpt lat="37.87443959154188632965087890625" lon="-1.49716137908399105072021484375">
        <ele>759</ele>
        <time>2020-02-22T14:21:11.000Z</time>
      </trkpt>
      <trkpt lat="37.87454319186508655548095703125" lon="-1.497012935578823089599609375">
        <ele>759.79998779296875</ele>
        <time>2020-02-22T14:21:17.000Z</time>
      </trkpt>
      <trkpt lat="37.874568589031696319580078125" lon="-1.4969892986118793487548828125">
        <ele>760</ele>
        <time>2020-02-22T14:21:18.000Z</time>
      </trkpt>
      <trkpt lat="37.87474720738828182220458984375" lon="-1.49679324589669704437255859375">
        <ele>761.20001220703125</ele>
        <time>2020-02-22T14:21:26.000Z</time>
      </trkpt>
      <trkpt lat="37.87476682104170322418212890625" lon="-1.496766507625579833984375">
        <ele>761.4000244140625</ele>
        <time>2020-02-22T14:21:27.000Z</time>
      </trkpt>
      <trkpt lat="37.8748319484293460845947265625" lon="-1.496607251465320587158203125">
        <ele>762</ele>
        <time>2020-02-22T14:21:32.000Z</time>
      </trkpt>
      <trkpt lat="37.87485701031982898712158203125" lon="-1.4965023100376129150390625">
        <ele>762.4000244140625</ele>
        <time>2020-02-22T14:21:35.000Z</time>
      </trkpt>
      <trkpt lat="37.87489523179829120635986328125" lon="-1.49632939137518405914306640625">
        <ele>763</ele>
        <time>2020-02-22T14:21:40.000Z</time>
      </trkpt>
      <trkpt lat="37.87489942274987697601318359375" lon="-1.4962225221097469329833984375">
        <ele>763.5999755859375</ele>
        <time>2020-02-22T14:21:43.000Z</time>
      </trkpt>
      <trkpt lat="37.87488601170480251312255859375" lon="-1.49609528481960296630859375">
        <ele>764.20001220703125</ele>
        <time>2020-02-22T14:21:47.000Z</time>
      </trkpt>
      <trkpt lat="37.87487511523067951202392578125" lon="-1.496000401675701141357421875">
        <ele>764.5999755859375</ele>
        <time>2020-02-22T14:21:50.000Z</time>
      </trkpt>
      <trkpt lat="37.8748503886163234710693359375" lon="-1.49587760679423809051513671875">
        <ele>765.4000244140625</ele>
        <time>2020-02-22T14:21:54.000Z</time>
      </trkpt>
      <trkpt lat="37.874836139380931854248046875" lon="-1.49584743194282054901123046875">
        <ele>765.5999755859375</ele>
        <time>2020-02-22T14:21:55.000Z</time>
      </trkpt>
      <trkpt lat="37.87475056014955043792724609375" lon="-1.4956748485565185546875">
        <ele>766.4000244140625</ele>
        <time>2020-02-22T14:22:01.000Z</time>
      </trkpt>
      <trkpt lat="37.87473379634320735931396484375" lon="-1.49564961902797222137451171875">
        <ele>766.5999755859375</ele>
        <time>2020-02-22T14:22:02.000Z</time>
      </trkpt>
      <trkpt lat="37.87464461289346218109130859375" lon="-1.49543437175452709197998046875">
        <ele>767.5999755859375</ele>
        <time>2020-02-22T14:22:09.000Z</time>
      </trkpt>
      <trkpt lat="37.87451704032719135284423828125" lon="-1.4952539093792438507080078125">
        <ele>768.20001220703125</ele>
        <time>2020-02-22T14:22:15.000Z</time>
      </trkpt>
      <trkpt lat="37.87444763816893100738525390625" lon="-1.49503891356289386749267578125">
        <ele>768.79998779296875</ele>
        <time>2020-02-22T14:22:20.000Z</time>
      </trkpt>
      <trkpt lat="37.8744421899318695068359375" lon="-1.49498627521097660064697265625">
        <ele>768.79998779296875</ele>
        <time>2020-02-22T14:22:21.000Z</time>
      </trkpt>
      <trkpt lat="37.87450262345373630523681640625" lon="-1.494760550558567047119140625">
        <ele>769.5999755859375</ele>
        <time>2020-02-22T14:22:26.000Z</time>
      </trkpt>
      <trkpt lat="37.87461007945239543914794921875" lon="-1.49462635628879070281982421875">
        <ele>770</ele>
        <time>2020-02-22T14:22:30.000Z</time>
      </trkpt>
      <trkpt lat="37.87466120906174182891845703125" lon="-1.494567096233367919921875">
        <ele>770</ele>
        <time>2020-02-22T14:22:32.000Z</time>
      </trkpt>
      <trkpt lat="37.87480034865438938140869140625" lon="-1.494444049894809722900390625">
        <ele>770.79998779296875</ele>
        <time>2020-02-22T14:22:38.000Z</time>
      </trkpt>
      <trkpt lat="37.874875701963901519775390625" lon="-1.4944415353238582611083984375">
        <ele>771.20001220703125</ele>
        <time>2020-02-22T14:22:41.000Z</time>
      </trkpt>
      <trkpt lat="37.8749251551926136016845703125" lon="-1.49447523057460784912109375">
        <ele>771.4000244140625</ele>
        <time>2020-02-22T14:22:43.000Z</time>
      </trkpt>
      <trkpt lat="37.8750233910977840423583984375" lon="-1.4946437068283557891845703125">
        <ele>772.4000244140625</ele>
        <time>2020-02-22T14:22:48.000Z</time>
      </trkpt>
      <trkpt lat="37.87510394118726253509521484375" lon="-1.4948354847729206085205078125">
        <ele>773.5999755859375</ele>
        <time>2020-02-22T14:22:53.000Z</time>
      </trkpt>
      <trkpt lat="37.87512791343033313751220703125" lon="-1.4948576129972934722900390625">
        <ele>773.79998779296875</ele>
        <time>2020-02-22T14:22:54.000Z</time>
      </trkpt>
      <trkpt lat="37.8751605190336704254150390625" lon="-1.49486825801432132720947265625">
        <ele>774</ele>
        <time>2020-02-22T14:22:55.000Z</time>
      </trkpt>
      <trkpt lat="37.87524894811213016510009765625" lon="-1.4948606304824352264404296875">
        <ele>774.20001220703125</ele>
        <time>2020-02-22T14:22:57.000Z</time>
      </trkpt>
      <trkpt lat="37.8754770196974277496337890625" lon="-1.4947023801505565643310546875">
        <ele>774.20001220703125</ele>
        <time>2020-02-22T14:23:02.000Z</time>
      </trkpt>
      <trkpt lat="37.875616662204265594482421875" lon="-1.4945561997592449188232421875">
        <ele>774.20001220703125</ele>
        <time>2020-02-22T14:23:05.000Z</time>
      </trkpt>
      <trkpt lat="37.8757237829267978668212890625" lon="-1.49444011040031909942626953125">
        <ele>774.20001220703125</ele>
        <time>2020-02-22T14:23:07.000Z</time>
      </trkpt>
      <trkpt lat="37.875974066555500030517578125" lon="-1.49407214485108852386474609375">
        <ele>772.79998779296875</ele>
        <time>2020-02-22T14:23:12.000Z</time>
      </trkpt>
      <trkpt lat="37.87601220421493053436279296875" lon="-1.49397742934525012969970703125">
        <ele>772.4000244140625</ele>
        <time>2020-02-22T14:23:13.000Z</time>
      </trkpt>
      <trkpt lat="37.87608613260090351104736328125" lon="-1.49376838468015193939208984375">
        <ele>771.4000244140625</ele>
        <time>2020-02-22T14:23:15.000Z</time>
      </trkpt>
      <trkpt lat="37.87612066604197025299072265625" lon="-1.4936522953212261199951171875">
        <ele>771</ele>
        <time>2020-02-22T14:23:16.000Z</time>
      </trkpt>
      <trkpt lat="37.8761499188840389251708984375" lon="-1.49353587068617343902587890625">
        <ele>770.5999755859375</ele>
        <time>2020-02-22T14:23:17.000Z</time>
      </trkpt>
      <trkpt lat="37.8762106038630008697509765625" lon="-1.49329237639904022216796875">
        <ele>769.4000244140625</ele>
        <time>2020-02-22T14:23:19.000Z</time>
      </trkpt>
      <trkpt lat="37.8762567043304443359375" lon="-1.49305374361574649810791015625">
        <ele>768.4000244140625</ele>
        <time>2020-02-22T14:23:21.000Z</time>
      </trkpt>
      <trkpt lat="37.87627120502293109893798828125" lon="-1.49281200952827930450439453125">
        <ele>767.20001220703125</ele>
        <time>2020-02-22T14:23:23.000Z</time>
      </trkpt>
      <trkpt lat="37.87626969628036022186279296875" lon="-1.49268812499940395355224609375">
        <ele>766</ele>
        <time>2020-02-22T14:23:24.000Z</time>
      </trkpt>
      <trkpt lat="37.8762498311698436737060546875" lon="-1.49246248416602611541748046875">
        <ele>764.4000244140625</ele>
        <time>2020-02-22T14:23:26.000Z</time>
      </trkpt>
      <trkpt lat="37.8762471489608287811279296875" lon="-1.49235762655735015869140625">
        <ele>763.20001220703125</ele>
        <time>2020-02-22T14:23:27.000Z</time>
      </trkpt>
      <trkpt lat="37.87625201046466827392578125" lon="-1.4922588877379894256591796875">
        <ele>762.4000244140625</ele>
        <time>2020-02-22T14:23:28.000Z</time>
      </trkpt>
      <trkpt lat="37.87626986391842365264892578125" lon="-1.4921651780605316162109375">
        <ele>762</ele>
        <time>2020-02-22T14:23:29.000Z</time>
      </trkpt>
      <trkpt lat="37.87635393440723419189453125" lon="-1.492002904415130615234375">
        <ele>760.5999755859375</ele>
        <time>2020-02-22T14:23:31.000Z</time>
      </trkpt>
      <trkpt lat="37.87650036625564098358154296875" lon="-1.491910032927989959716796875">
        <ele>759.4000244140625</ele>
        <time>2020-02-22T14:23:33.000Z</time>
      </trkpt>
      <trkpt lat="37.87659005261957645416259765625" lon="-1.4918746612966060638427734375">
        <ele>758.79998779296875</ele>
        <time>2020-02-22T14:23:34.000Z</time>
      </trkpt>
      <trkpt lat="37.8766863606870174407958984375" lon="-1.4918414689600467681884765625">
        <ele>758.20001220703125</ele>
        <time>2020-02-22T14:23:35.000Z</time>
      </trkpt>
      <trkpt lat="37.8767864406108856201171875" lon="-1.49179846979677677154541015625">
        <ele>757.79998779296875</ele>
        <time>2020-02-22T14:23:36.000Z</time>
      </trkpt>
      <trkpt lat="37.87697427906095981597900390625" lon="-1.49167072959244251251220703125">
        <ele>756.79998779296875</ele>
        <time>2020-02-22T14:23:38.000Z</time>
      </trkpt>
      <trkpt lat="37.87714920938014984130859375" lon="-1.49150124751031398773193359375">
        <ele>755.4000244140625</ele>
        <time>2020-02-22T14:23:40.000Z</time>
      </trkpt>
      <trkpt lat="37.87733470089733600616455078125" lon="-1.4913268201053142547607421875">
        <ele>754.20001220703125</ele>
        <time>2020-02-22T14:23:42.000Z</time>
      </trkpt>
      <trkpt lat="37.87751876749098300933837890625" lon="-1.4911440946161746978759765625">
        <ele>753.5999755859375</ele>
        <time>2020-02-22T14:23:44.000Z</time>
      </trkpt>
      <trkpt lat="37.87760786712169647216796875" lon="-1.49104736745357513427734375">
        <ele>753</ele>
        <time>2020-02-22T14:23:45.000Z</time>
      </trkpt>
      <trkpt lat="37.87778028286993503570556640625" lon="-1.49084829725325107574462890625">
        <ele>752</ele>
        <time>2020-02-22T14:23:47.000Z</time>
      </trkpt>
      <trkpt lat="37.87794674746692180633544921875" lon="-1.49064847268164157867431640625">
        <ele>750.4000244140625</ele>
        <time>2020-02-22T14:23:49.000Z</time>
      </trkpt>
      <trkpt lat="37.87812025286257266998291015625" lon="-1.49046759121119976043701171875">
        <ele>748.5999755859375</ele>
        <time>2020-02-22T14:23:51.000Z</time>
      </trkpt>
      <trkpt lat="37.87830465473234653472900390625" lon="-1.4903146214783191680908203125">
        <ele>746.4000244140625</ele>
        <time>2020-02-22T14:23:53.000Z</time>
      </trkpt>
      <trkpt lat="37.87839643657207489013671875" lon="-1.49024178273975849151611328125">
        <ele>745.79998779296875</ele>
        <time>2020-02-22T14:23:54.000Z</time>
      </trkpt>
      <trkpt lat="37.87848888896405696868896484375" lon="-1.4901714585721492767333984375">
        <ele>744.79998779296875</ele>
        <time>2020-02-22T14:23:55.000Z</time>
      </trkpt>
      <trkpt lat="37.87865702994167804718017578125" lon="-1.49002276360988616943359375">
        <ele>743.5999755859375</ele>
        <time>2020-02-22T14:23:57.000Z</time>
      </trkpt>
      <trkpt lat="37.87877353839576244354248046875" lon="-1.48984707891941070556640625">
        <ele>742.20001220703125</ele>
        <time>2020-02-22T14:23:59.000Z</time>
      </trkpt>
      <trkpt lat="37.878789044916629791259765625" lon="-1.48963526822626590728759765625">
        <ele>741.4000244140625</ele>
        <time>2020-02-22T14:24:01.000Z</time>
      </trkpt>
      <trkpt lat="37.87875224836170673370361328125" lon="-1.48953116498887538909912109375">
        <ele>741.20001220703125</ele>
        <time>2020-02-22T14:24:02.000Z</time>
      </trkpt>
      <trkpt lat="37.8786775656044483184814453125" lon="-1.48934441618621349334716796875">
        <ele>740.20001220703125</ele>
        <time>2020-02-22T14:24:04.000Z</time>
      </trkpt>
      <trkpt lat="37.87863506935536861419677734375" lon="-1.48925699293613433837890625">
        <ele>740</ele>
        <time>2020-02-22T14:24:05.000Z</time>
      </trkpt>
      <trkpt lat="37.8785917349159717559814453125" lon="-1.48917124606668949127197265625">
        <ele>740</ele>
        <time>2020-02-22T14:24:06.000Z</time>
      </trkpt>
      <trkpt lat="37.87842250429093837738037109375" lon="-1.48882356472313404083251953125">
        <ele>740</ele>
        <time>2020-02-22T14:24:10.000Z</time>
      </trkpt>
      <trkpt lat="37.8783245198428630828857421875" lon="-1.4885450340807437896728515625">
        <ele>739.79998779296875</ele>
        <time>2020-02-22T14:24:13.000Z</time>
      </trkpt>
      <trkpt lat="37.8782645054161548614501953125" lon="-1.48834898136556148529052734375">
        <ele>739.5999755859375</ele>
        <time>2020-02-22T14:24:15.000Z</time>
      </trkpt>
      <trkpt lat="37.8782014735043048858642578125" lon="-1.487920247018337249755859375">
        <ele>739.5999755859375</ele>
        <time>2020-02-22T14:24:19.000Z</time>
      </trkpt>
      <trkpt lat="37.87819568999111652374267578125" lon="-1.4878067560493946075439453125">
        <ele>739.4000244140625</ele>
        <time>2020-02-22T14:24:20.000Z</time>
      </trkpt>
      <trkpt lat="37.878191582858562469482421875" lon="-1.48768915794789791107177734375">
        <ele>739.20001220703125</ele>
        <time>2020-02-22T14:24:21.000Z</time>
      </trkpt>
      <trkpt lat="37.87820910103619098663330078125" lon="-1.48721742443740367889404296875">
        <ele>738</ele>
        <time>2020-02-22T14:24:25.000Z</time>
      </trkpt>
      <trkpt lat="37.8783332370221614837646484375" lon="-1.48687527514994144439697265625">
        <ele>737</ele>
        <time>2020-02-22T14:24:28.000Z</time>
      </trkpt>
      <trkpt lat="37.87838637828826904296875" lon="-1.4867633767426013946533203125">
        <ele>736.5999755859375</ele>
        <time>2020-02-22T14:24:29.000Z</time>
      </trkpt>
      <trkpt lat="37.8784334845840930938720703125" lon="-1.4866530708968639373779296875">
        <ele>736</ele>
        <time>2020-02-22T14:24:30.000Z</time>
      </trkpt>
      <trkpt lat="37.87845871411263942718505859375" lon="-1.4865266717970371246337890625">
        <ele>735.4000244140625</ele>
        <time>2020-02-22T14:24:31.000Z</time>
      </trkpt>
      <trkpt lat="37.87846474908292293548583984375" lon="-1.4863882027566432952880859375">
        <ele>735</ele>
        <time>2020-02-22T14:24:32.000Z</time>
      </trkpt>
      <trkpt lat="37.87845804356038570404052734375" lon="-1.48610900156199932098388671875">
        <ele>734</ele>
        <time>2020-02-22T14:24:34.000Z</time>
      </trkpt>
      <trkpt lat="37.87845955230295658111572265625" lon="-1.4858299680054187774658203125">
        <ele>733</ele>
        <time>2020-02-22T14:24:36.000Z</time>
      </trkpt>
      <trkpt lat="37.87846273742616176605224609375" lon="-1.48569292388856410980224609375">
        <ele>732.20001220703125</ele>
        <time>2020-02-22T14:24:37.000Z</time>
      </trkpt>
      <trkpt lat="37.87847631610929965972900390625" lon="-1.48556887172162532806396484375">
        <ele>731.4000244140625</ele>
        <time>2020-02-22T14:24:38.000Z</time>
      </trkpt>
      <trkpt lat="37.87853918038308620452880859375" lon="-1.4853391237556934356689453125">
        <ele>730.4000244140625</ele>
        <time>2020-02-22T14:24:40.000Z</time>
      </trkpt>
      <trkpt lat="37.8786276094615459442138671875" lon="-1.4851235412061214447021484375">
        <ele>728.79998779296875</ele>
        <time>2020-02-22T14:24:42.000Z</time>
      </trkpt>
      <trkpt lat="37.87868100218474864959716796875" lon="-1.4850189350545406341552734375">
        <ele>728.4000244140625</ele>
        <time>2020-02-22T14:24:43.000Z</time>
      </trkpt>
      <trkpt lat="37.87875191308557987213134765625" lon="-1.48492950014770030975341796875">
        <ele>728</ele>
        <time>2020-02-22T14:24:44.000Z</time>
      </trkpt>
      <trkpt lat="37.87882852368056774139404296875" lon="-1.48483830504119396209716796875">
        <ele>727.4000244140625</ele>
        <time>2020-02-22T14:24:45.000Z</time>
      </trkpt>
      <trkpt lat="37.879080735146999359130859375" lon="-1.48456052877008914947509765625">
        <ele>726.20001220703125</ele>
        <time>2020-02-22T14:24:48.000Z</time>
      </trkpt>
      <trkpt lat="37.8792445175349712371826171875" lon="-1.48436238057911396026611328125">
        <ele>724.79998779296875</ele>
        <time>2020-02-22T14:24:50.000Z</time>
      </trkpt>
      <trkpt lat="37.879322133958339691162109375" lon="-1.48425442166626453399658203125">
        <ele>724.20001220703125</ele>
        <time>2020-02-22T14:24:51.000Z</time>
      </trkpt>
      <trkpt lat="37.87939128465950489044189453125" lon="-1.48413741029798984527587890625">
        <ele>723.20001220703125</ele>
        <time>2020-02-22T14:24:52.000Z</time>
      </trkpt>
      <trkpt lat="37.879450879991054534912109375" lon="-1.484014280140399932861328125">
        <ele>722.20001220703125</ele>
        <time>2020-02-22T14:24:53.000Z</time>
      </trkpt>
      <trkpt lat="37.87958406843245029449462890625" lon="-1.48379744030535221099853515625">
        <ele>721.5999755859375</ele>
        <time>2020-02-22T14:24:55.000Z</time>
      </trkpt>
      <trkpt lat="37.8796693123877048492431640625" lon="-1.48373298346996307373046875">
        <ele>721</ele>
        <time>2020-02-22T14:24:56.000Z</time>
      </trkpt>
      <trkpt lat="37.87975673563778400421142578125" lon="-1.483689062297344207763671875">
        <ele>720</ele>
        <time>2020-02-22T14:24:57.000Z</time>
      </trkpt>
      <trkpt lat="37.87995404563844203948974609375" lon="-1.4836848713457584381103515625">
        <ele>718.20001220703125</ele>
        <time>2020-02-22T14:24:59.000Z</time>
      </trkpt>
      <trkpt lat="37.880066446959972381591796875" lon="-1.483698785305023193359375">
        <ele>717.20001220703125</ele>
        <time>2020-02-22T14:25:00.000Z</time>
      </trkpt>
      <trkpt lat="37.88032167591154575347900390625" lon="-1.483742706477642059326171875">
        <ele>715.79998779296875</ele>
        <time>2020-02-22T14:25:02.000Z</time>
      </trkpt>
      <trkpt lat="37.8804461471736431121826171875" lon="-1.4837646670639514923095703125">
        <ele>715.20001220703125</ele>
        <time>2020-02-22T14:25:03.000Z</time>
      </trkpt>
      <trkpt lat="37.8805755637586116790771484375" lon="-1.48378771729767322540283203125">
        <ele>714</ele>
        <time>2020-02-22T14:25:04.000Z</time>
      </trkpt>
      <trkpt lat="37.88070003502070903778076171875" lon="-1.4838035590946674346923828125">
        <ele>712.5999755859375</ele>
        <time>2020-02-22T14:25:05.000Z</time>
      </trkpt>
      <trkpt lat="37.8809423558413982391357421875" lon="-1.48380381055176258087158203125">
        <ele>710.5999755859375</ele>
        <time>2020-02-22T14:25:07.000Z</time>
      </trkpt>
      <trkpt lat="37.88104603998363018035888671875" lon="-1.4837723784148693084716796875">
        <ele>709.5999755859375</ele>
        <time>2020-02-22T14:25:08.000Z</time>
      </trkpt>
      <trkpt lat="37.88114310242235660552978515625" lon="-1.483715213835239410400390625">
        <ele>708.79998779296875</ele>
        <time>2020-02-22T14:25:09.000Z</time>
      </trkpt>
      <trkpt lat="37.88123714737594127655029296875" lon="-1.483630724251270294189453125">
        <ele>707.5999755859375</ele>
        <time>2020-02-22T14:25:10.000Z</time>
      </trkpt>
      <trkpt lat="37.88131023757159709930419921875" lon="-1.4835284650325775146484375">
        <ele>706.5999755859375</ele>
        <time>2020-02-22T14:25:11.000Z</time>
      </trkpt>
      <trkpt lat="37.88136639632284641265869140625" lon="-1.4834079332649707794189453125">
        <ele>705.4000244140625</ele>
        <time>2020-02-22T14:25:12.000Z</time>
      </trkpt>
      <trkpt lat="37.8814164362847805023193359375" lon="-1.48312051780521869659423828125">
        <ele>703.79998779296875</ele>
        <time>2020-02-22T14:25:14.000Z</time>
      </trkpt>
      <trkpt lat="37.8813966549932956695556640625" lon="-1.4828265644609928131103515625">
        <ele>702.5999755859375</ele>
        <time>2020-02-22T14:25:16.000Z</time>
      </trkpt>
      <trkpt lat="37.881380729377269744873046875" lon="-1.4826934598386287689208984375">
        <ele>702.4000244140625</ele>
        <time>2020-02-22T14:25:17.000Z</time>
      </trkpt>
      <trkpt lat="37.88137343712151050567626953125" lon="-1.48246421478688716888427734375">
        <ele>701.20001220703125</ele>
        <time>2020-02-22T14:25:19.000Z</time>
      </trkpt>
      <trkpt lat="37.881367318332195281982421875" lon="-1.482386849820613861083984375">
        <ele>700.5999755859375</ele>
        <time>2020-02-22T14:25:20.000Z</time>
      </trkpt>
      <trkpt lat="37.88137075491249561309814453125" lon="-1.4823214709758758544921875">
        <ele>699.79998779296875</ele>
        <time>2020-02-22T14:25:21.000Z</time>
      </trkpt>
      <trkpt lat="37.88137762807309627532958984375" lon="-1.4822666533291339874267578125">
        <ele>697.4000244140625</ele>
        <time>2020-02-22T14:25:22.000Z</time>
      </trkpt>
      <trkpt lat="37.88138844072818756103515625" lon="-1.48222566582262516021728515625">
        <ele>696.79998779296875</ele>
        <time>2020-02-22T14:25:23.000Z</time>
      </trkpt>
      <trkpt lat="37.881417609751224517822265625" lon="-1.48220001719892024993896484375">
        <ele>696.20001220703125</ele>
        <time>2020-02-22T14:25:25.000Z</time>
      </trkpt>
      <trkpt lat="37.881439067423343658447265625" lon="-1.4822136797010898590087890625">
        <ele>696</ele>
        <time>2020-02-22T14:25:26.000Z</time>
      </trkpt>
      <trkpt lat="37.881516180932521820068359375" lon="-1.4823652245104312896728515625">
        <ele>695.5999755859375</ele>
        <time>2020-02-22T14:25:30.000Z</time>
      </trkpt>
      <trkpt lat="37.8816326893866062164306640625" lon="-1.48264492861926555633544921875">
        <ele>695.20001220703125</ele>
        <time>2020-02-22T14:25:35.000Z</time>
      </trkpt>
      <trkpt lat="37.88165624253451824188232421875" lon="-1.48270703852176666259765625">
        <ele>695.20001220703125</ele>
        <time>2020-02-22T14:25:36.000Z</time>
      </trkpt>
      <trkpt lat="37.88177845068275928497314453125" lon="-1.4829080365598201751708984375">
        <ele>695</ele>
        <time>2020-02-22T14:25:39.000Z</time>
      </trkpt>
      <trkpt lat="37.8818325139582157135009765625" lon="-1.48296989500522613525390625">
        <ele>694.79998779296875</ele>
        <time>2020-02-22T14:25:40.000Z</time>
      </trkpt>
      <trkpt lat="37.88188573904335498809814453125" lon="-1.48302714340388774871826171875">
        <ele>694.4000244140625</ele>
        <time>2020-02-22T14:25:41.000Z</time>
      </trkpt>
      <trkpt lat="37.8820340149104595184326171875" lon="-1.4831105433404445648193359375">
        <ele>693.5999755859375</ele>
        <time>2020-02-22T14:25:43.000Z</time>
      </trkpt>
      <trkpt lat="37.882278263568878173828125" lon="-1.48309201933443546295166015625">
        <ele>692.20001220703125</ele>
        <time>2020-02-22T14:25:46.000Z</time>
      </trkpt>
      <trkpt lat="37.882459647953510284423828125" lon="-1.4829278178513050079345703125">
        <ele>691</ele>
        <time>2020-02-22T14:25:49.000Z</time>
      </trkpt>
      <trkpt lat="37.8825141303241252899169921875" lon="-1.48286621086299419403076171875">
        <ele>690.20001220703125</ele>
        <time>2020-02-22T14:25:50.000Z</time>
      </trkpt>
      <trkpt lat="37.882579006254673004150390625" lon="-1.48280066438019275665283203125">
        <ele>690</ele>
        <time>2020-02-22T14:25:51.000Z</time>
      </trkpt>
      <trkpt lat="37.88271303288638591766357421875" lon="-1.48265582509338855743408203125">
        <ele>689.4000244140625</ele>
        <time>2020-02-22T14:25:53.000Z</time>
      </trkpt>
      <trkpt lat="37.882782183587551116943359375" lon="-1.48259145207703113555908203125">
        <ele>689.20001220703125</ele>
        <time>2020-02-22T14:25:54.000Z</time>
      </trkpt>
      <trkpt lat="37.88285854272544384002685546875" lon="-1.4825425855815410614013671875">
        <ele>689</ele>
        <time>2020-02-22T14:25:55.000Z</time>
      </trkpt>
      <trkpt lat="37.882922329008579254150390625" lon="-1.48252339102327823638916015625">
        <ele>688.79998779296875</ele>
        <time>2020-02-22T14:25:56.000Z</time>
      </trkpt>
      <trkpt lat="37.88298041559755802154541015625" lon="-1.48254183121025562286376953125">
        <ele>688.5999755859375</ele>
        <time>2020-02-22T14:25:57.000Z</time>
      </trkpt>
      <trkpt lat="37.8830951638519763946533203125" lon="-1.4827383868396282196044921875">
        <ele>687.79998779296875</ele>
        <time>2020-02-22T14:26:00.000Z</time>
      </trkpt>
      <trkpt lat="37.8831605426967144012451171875" lon="-1.4829274825751781463623046875">
        <ele>686.79998779296875</ele>
        <time>2020-02-22T14:26:02.000Z</time>
      </trkpt>
      <trkpt lat="37.88318510167300701141357421875" lon="-1.483036614954471588134765625">
        <ele>686.4000244140625</ele>
        <time>2020-02-22T14:26:03.000Z</time>
      </trkpt>
      <trkpt lat="37.88320739753544330596923828125" lon="-1.4831454120576381683349609375">
        <ele>686</ele>
        <time>2020-02-22T14:26:04.000Z</time>
      </trkpt>
      <trkpt lat="37.883253581821918487548828125" lon="-1.48335873149335384368896484375">
        <ele>685.4000244140625</ele>
        <time>2020-02-22T14:26:06.000Z</time>
      </trkpt>
      <trkpt lat="37.88331401534378528594970703125" lon="-1.48352972231805324554443359375">
        <ele>684.4000244140625</ele>
        <time>2020-02-22T14:26:08.000Z</time>
      </trkpt>
      <trkpt lat="37.88337637670338153839111328125" lon="-1.48358001373708248138427734375">
        <ele>683.5999755859375</ele>
        <time>2020-02-22T14:26:09.000Z</time>
      </trkpt>
      <trkpt lat="37.88345349021255970001220703125" lon="-1.48359627462923526763916015625">
        <ele>683</ele>
        <time>2020-02-22T14:26:10.000Z</time>
      </trkpt>
      <trkpt lat="37.883541919291019439697265625" lon="-1.48356811143457889556884765625">
        <ele>682.20001220703125</ele>
        <time>2020-02-22T14:26:11.000Z</time>
      </trkpt>
      <trkpt lat="37.88359782658517360687255859375" lon="-1.483522765338420867919921875">
        <ele>681.5999755859375</ele>
        <time>2020-02-22T14:26:12.000Z</time>
      </trkpt>
      <trkpt lat="37.88372238166630268096923828125" lon="-1.483429558575153350830078125">
        <ele>681</ele>
        <time>2020-02-22T14:26:13.000Z</time>
      </trkpt>
      <trkpt lat="37.88380703888833522796630859375" lon="-1.48337096907198429107666015625">
        <ele>680.4000244140625</ele>
        <time>2020-02-22T14:26:14.000Z</time>
      </trkpt>
      <trkpt lat="37.88388649933040142059326171875" lon="-1.48332905955612659454345703125">
        <ele>680</ele>
        <time>2020-02-22T14:26:15.000Z</time>
      </trkpt>
      <trkpt lat="37.88400761783123016357421875" lon="-1.48331732489168643951416015625">
        <ele>679.4000244140625</ele>
        <time>2020-02-22T14:26:17.000Z</time>
      </trkpt>
      <trkpt lat="37.8840879164636135101318359375" lon="-1.4834317378699779510498046875">
        <ele>677.79998779296875</ele>
        <time>2020-02-22T14:26:19.000Z</time>
      </trkpt>
      <trkpt lat="37.88411146961152553558349609375" lon="-1.48350558243691921234130859375">
        <ele>675.79998779296875</ele>
        <time>2020-02-22T14:26:20.000Z</time>
      </trkpt>
      <trkpt lat="37.8840845637023448944091796875" lon="-1.483639776706695556640625">
        <ele>674.20001220703125</ele>
        <time>2020-02-22T14:26:22.000Z</time>
      </trkpt>
      <trkpt lat="37.88386009633541107177734375" lon="-1.4838012121617794036865234375">
        <ele>673.5999755859375</ele>
        <time>2020-02-22T14:26:25.000Z</time>
      </trkpt>
      <trkpt lat="37.88367846049368381500244140625" lon="-1.4839128591120243072509765625">
        <ele>673</ele>
        <time>2020-02-22T14:26:27.000Z</time>
      </trkpt>
      <trkpt lat="37.883404791355133056640625" lon="-1.48406884633004665374755859375">
        <ele>672</ele>
        <time>2020-02-22T14:26:30.000Z</time>
      </trkpt>
      <trkpt lat="37.883334048092365264892578125" lon="-1.4841026253998279571533203125">
        <ele>671.4000244140625</ele>
        <time>2020-02-22T14:26:31.000Z</time>
      </trkpt>
      <trkpt lat="37.88327411748468875885009765625" lon="-1.484141014516353607177734375">
        <ele>670.5999755859375</ele>
        <time>2020-02-22T14:26:32.000Z</time>
      </trkpt>
      <trkpt lat="37.88322382606565952301025390625" lon="-1.48419256322085857391357421875">
        <ele>669.5999755859375</ele>
        <time>2020-02-22T14:26:33.000Z</time>
      </trkpt>
      <trkpt lat="37.88319750688970088958740234375" lon="-1.4842464588582515716552734375">
        <ele>668.79998779296875</ele>
        <time>2020-02-22T14:26:34.000Z</time>
      </trkpt>
      <trkpt lat="37.88322349078953266143798828125" lon="-1.48428392596542835235595703125">
        <ele>667</ele>
        <time>2020-02-22T14:26:36.000Z</time>
      </trkpt>
      <trkpt lat="37.88334284909069538116455078125" lon="-1.48424302227795124053955078125">
        <ele>665.20001220703125</ele>
        <time>2020-02-22T14:26:38.000Z</time>
      </trkpt>
      <trkpt lat="37.88341392762959003448486328125" lon="-1.4842283539474010467529296875">
        <ele>664.5999755859375</ele>
        <time>2020-02-22T14:26:39.000Z</time>
      </trkpt>
      <trkpt lat="37.88357519544661045074462890625" lon="-1.484212763607501983642578125">
        <ele>664</ele>
        <time>2020-02-22T14:26:41.000Z</time>
      </trkpt>
      <trkpt lat="37.88376579992473125457763671875" lon="-1.484222821891307830810546875">
        <ele>663.4000244140625</ele>
        <time>2020-02-22T14:26:43.000Z</time>
      </trkpt>
      <trkpt lat="37.88398079574108123779296875" lon="-1.48423732258379459381103515625">
        <ele>662.5999755859375</ele>
        <time>2020-02-22T14:26:45.000Z</time>
      </trkpt>
      <trkpt lat="37.88420652039349079132080078125" lon="-1.4842280186712741851806640625">
        <ele>661.20001220703125</ele>
        <time>2020-02-22T14:26:47.000Z</time>
      </trkpt>
      <trkpt lat="37.88441690616309642791748046875" lon="-1.48416389711201190948486328125">
        <ele>659.79998779296875</ele>
        <time>2020-02-22T14:26:49.000Z</time>
      </trkpt>
      <trkpt lat="37.884508855640888214111328125" lon="-1.48410639725625514984130859375">
        <ele>658.20001220703125</ele>
        <time>2020-02-22T14:26:50.000Z</time>
      </trkpt>
      <trkpt lat="37.88462645374238491058349609375" lon="-1.48395937867462635040283203125">
        <ele>656.79998779296875</ele>
        <time>2020-02-22T14:26:52.000Z</time>
      </trkpt>
      <trkpt lat="37.884657047688961029052734375" lon="-1.48388830013573169708251953125">
        <ele>655.5999755859375</ele>
        <time>2020-02-22T14:26:53.000Z</time>
      </trkpt>
      <trkpt lat="37.884687893092632293701171875" lon="-1.48383222520351409912109375">
        <ele>654.20001220703125</ele>
        <time>2020-02-22T14:26:54.000Z</time>
      </trkpt>
      <trkpt lat="37.8847212530672550201416015625" lon="-1.4838045649230480194091796875">
        <ele>653.20001220703125</ele>
        <time>2020-02-22T14:26:55.000Z</time>
      </trkpt>
      <trkpt lat="37.88478772155940532684326171875" lon="-1.4838421158492565155029296875">
        <ele>651.5999755859375</ele>
        <time>2020-02-22T14:26:57.000Z</time>
      </trkpt>
      <trkpt lat="37.8848101012408733367919921875" lon="-1.48389332927763462066650390625">
        <ele>650.79998779296875</ele>
        <time>2020-02-22T14:26:58.000Z</time>
      </trkpt>
      <trkpt lat="37.88481764495372772216796875" lon="-1.4839668385684490203857421875">
        <ele>650</ele>
        <time>2020-02-22T14:26:59.000Z</time>
      </trkpt>
      <trkpt lat="37.88482493720948696136474609375" lon="-1.4840449579060077667236328125">
        <ele>649.20001220703125</ele>
        <time>2020-02-22T14:27:00.000Z</time>
      </trkpt>
      <trkpt lat="37.88483482785522937774658203125" lon="-1.484128944575786590576171875">
        <ele>648.5999755859375</ele>
        <time>2020-02-22T14:27:01.000Z</time>
      </trkpt>
      <trkpt lat="37.8848399408161640167236328125" lon="-1.48423044942319393157958984375">
        <ele>648.20001220703125</ele>
        <time>2020-02-22T14:27:02.000Z</time>
      </trkpt>
      <trkpt lat="37.88483642041683197021484375" lon="-1.4845351316034793853759765625">
        <ele>647.20001220703125</ele>
        <time>2020-02-22T14:27:05.000Z</time>
      </trkpt>
      <trkpt lat="37.884715385735034942626953125" lon="-1.4847185276448726654052734375">
        <ele>645.79998779296875</ele>
        <time>2020-02-22T14:27:07.000Z</time>
      </trkpt>
      <trkpt lat="37.88457364775240421295166015625" lon="-1.48490242660045623779296875">
        <ele>644.4000244140625</ele>
        <time>2020-02-22T14:27:09.000Z</time>
      </trkpt>
      <trkpt lat="37.884455211460590362548828125" lon="-1.48509663529694080352783203125">
        <ele>643</ele>
        <time>2020-02-22T14:27:11.000Z</time>
      </trkpt>
      <trkpt lat="37.88447356782853603363037109375" lon="-1.48529930971562862396240234375">
        <ele>641.5999755859375</ele>
        <time>2020-02-22T14:27:13.000Z</time>
      </trkpt>
      <trkpt lat="37.88451053202152252197265625" lon="-1.4853867329657077789306640625">
        <ele>640.5999755859375</ele>
        <time>2020-02-22T14:27:14.000Z</time>
      </trkpt>
      <trkpt lat="37.884618155658245086669921875" lon="-1.4855436421930789947509765625">
        <ele>638.5999755859375</ele>
        <time>2020-02-22T14:27:16.000Z</time>
      </trkpt>
      <trkpt lat="37.8846882283687591552734375" lon="-1.4856241084635257720947265625">
        <ele>637.79998779296875</ele>
        <time>2020-02-22T14:27:17.000Z</time>
      </trkpt>
      <trkpt lat="37.88475587032735347747802734375" lon="-1.485697366297245025634765625">
        <ele>636.79998779296875</ele>
        <time>2020-02-22T14:27:18.000Z</time>
      </trkpt>
      <trkpt lat="37.88491797633469104766845703125" lon="-1.48579501546919345855712890625">
        <ele>635.20001220703125</ele>
        <time>2020-02-22T14:27:20.000Z</time>
      </trkpt>
      <trkpt lat="37.8851949982345104217529296875" lon="-1.48582418449223041534423828125">
        <ele>634</ele>
        <time>2020-02-22T14:27:23.000Z</time>
      </trkpt>
      <trkpt lat="37.88549490272998809814453125" lon="-1.48579694330692291259765625">
        <ele>632.79998779296875</ele>
        <time>2020-02-22T14:27:26.000Z</time>
      </trkpt>
      <trkpt lat="37.88570336066186428070068359375" lon="-1.4858121983706951141357421875">
        <ele>631.79998779296875</ele>
        <time>2020-02-22T14:27:28.000Z</time>
      </trkpt>
      <trkpt lat="37.88580696098506450653076171875" lon="-1.48585570044815540313720703125">
        <ele>631.20001220703125</ele>
        <time>2020-02-22T14:27:29.000Z</time>
      </trkpt>
      <trkpt lat="37.8860046900808811187744140625" lon="-1.486005485057830810546875">
        <ele>629.5999755859375</ele>
        <time>2020-02-22T14:27:31.000Z</time>
      </trkpt>
      <trkpt lat="37.88617559708654880523681640625" lon="-1.4861910603940486907958984375">
        <ele>628</ele>
        <time>2020-02-22T14:27:33.000Z</time>
      </trkpt>
      <trkpt lat="37.886215411126613616943359375" lon="-1.48629927076399326324462890625">
        <ele>627.20001220703125</ele>
        <time>2020-02-22T14:27:34.000Z</time>
      </trkpt>
      <trkpt lat="37.88625572808086872100830078125" lon="-1.4864143542945384979248046875">
        <ele>626.5999755859375</ele>
        <time>2020-02-22T14:27:35.000Z</time>
      </trkpt>
      <trkpt lat="37.88627668283879756927490234375" lon="-1.4866363070905208587646484375">
        <ele>625.4000244140625</ele>
        <time>2020-02-22T14:27:37.000Z</time>
      </trkpt>
      <trkpt lat="37.88623142056167125701904296875" lon="-1.4867363870143890380859375">
        <ele>624.20001220703125</ele>
        <time>2020-02-22T14:27:38.000Z</time>
      </trkpt>
      <trkpt lat="37.88614936172962188720703125" lon="-1.48682280443608760833740234375">
        <ele>623.20001220703125</ele>
        <time>2020-02-22T14:27:39.000Z</time>
      </trkpt>
      <trkpt lat="37.886074595153331756591796875" lon="-1.4868865907192230224609375">
        <ele>622</ele>
        <time>2020-02-22T14:27:40.000Z</time>
      </trkpt>
      <trkpt lat="37.88600980304181575775146484375" lon="-1.4869561605155467987060546875">
        <ele>620.79998779296875</ele>
        <time>2020-02-22T14:27:41.000Z</time>
      </trkpt>
      <trkpt lat="37.88598180748522281646728515625" lon="-1.4870386384427547454833984375">
        <ele>620</ele>
        <time>2020-02-22T14:27:42.000Z</time>
      </trkpt>
      <trkpt lat="37.8860046900808811187744140625" lon="-1.4871157519519329071044921875">
        <ele>619.20001220703125</ele>
        <time>2020-02-22T14:27:43.000Z</time>
      </trkpt>
      <trkpt lat="37.88602908141911029815673828125" lon="-1.487188003957271575927734375">
        <ele>618.79998779296875</ele>
        <time>2020-02-22T14:27:44.000Z</time>
      </trkpt>
      <trkpt lat="37.88611122407019138336181640625" lon="-1.4872860722243785858154296875">
        <ele>617.79998779296875</ele>
        <time>2020-02-22T14:27:46.000Z</time>
      </trkpt>
      <trkpt lat="37.8861580789089202880859375" lon="-1.48732940666377544403076171875">
        <ele>617.5999755859375</ele>
        <time>2020-02-22T14:27:47.000Z</time>
      </trkpt>
      <trkpt lat="37.886255644261837005615234375" lon="-1.4873963780701160430908203125">
        <ele>617.4000244140625</ele>
        <time>2020-02-22T14:27:49.000Z</time>
      </trkpt>
      <trkpt lat="37.8863299079239368438720703125" lon="-1.48742076940834522247314453125">
        <ele>617.4000244140625</ele>
        <time>2020-02-22T14:27:51.000Z</time>
      </trkpt>
      <trkpt lat="37.8864257968962192535400390625" lon="-1.4874114654958248138427734375">
        <ele>617.4000244140625</ele>
        <time>2020-02-22T14:27:53.000Z</time>
      </trkpt>
      <trkpt lat="37.8864767588675022125244140625" lon="-1.48740182630717754364013671875">
        <ele>617.4000244140625</ele>
        <time>2020-02-22T14:27:54.000Z</time>
      </trkpt>
      <trkpt lat="37.88657139055430889129638671875" lon="-1.48739822208881378173828125">
        <ele>617.5999755859375</ele>
        <time>2020-02-22T14:27:56.000Z</time>
      </trkpt>
      <trkpt lat="37.8867188282310962677001953125" lon="-1.487464942038059234619140625">
        <ele>617.79998779296875</ele>
        <time>2020-02-22T14:28:00.000Z</time>
      </trkpt>
      <trkpt lat="37.88681262172758579254150390625" lon="-1.48756594397127628326416015625">
        <ele>618.79998779296875</ele>
        <time>2020-02-22T14:28:03.000Z</time>
      </trkpt>
      <trkpt lat="37.88681915961205959320068359375" lon="-1.48761413991451263427734375">
        <ele>619.4000244140625</ele>
        <time>2020-02-22T14:28:04.000Z</time>
      </trkpt>
      <trkpt lat="37.88685075938701629638671875" lon="-1.487727798521518707275390625">
        <ele>620.20001220703125</ele>
        <time>2020-02-22T14:28:06.000Z</time>
      </trkpt>
      <trkpt lat="37.88685989566147327423095703125" lon="-1.48778538219630718231201171875">
        <ele>620.5999755859375</ele>
        <time>2020-02-22T14:28:07.000Z</time>
      </trkpt>
      <trkpt lat="37.886891998350620269775390625" lon="-1.4879009686410427093505859375">
        <ele>621.20001220703125</ele>
        <time>2020-02-22T14:28:09.000Z</time>
      </trkpt>
      <trkpt lat="37.88691823370754718780517578125" lon="-1.4879616536200046539306640625">
        <ele>621.20001220703125</ele>
        <time>2020-02-22T14:28:10.000Z</time>
      </trkpt>
      <trkpt lat="37.88700154982507228851318359375" lon="-1.48828963749110698699951171875">
        <ele>621.4000244140625</ele>
        <time>2020-02-22T14:28:15.000Z</time>
      </trkpt>
      <trkpt lat="37.8870423696935176849365234375" lon="-1.48848116397857666015625">
        <ele>621.4000244140625</ele>
        <time>2020-02-22T14:28:18.000Z</time>
      </trkpt>
      <trkpt lat="37.8870829381048679351806640625" lon="-1.4886868558824062347412109375">
        <ele>621.4000244140625</ele>
        <time>2020-02-22T14:28:21.000Z</time>
      </trkpt>
      <trkpt lat="37.8871020488440990447998046875" lon="-1.48875114507973194122314453125">
        <ele>621.4000244140625</ele>
        <time>2020-02-22T14:28:22.000Z</time>
      </trkpt>
      <trkpt lat="37.887252084910869598388671875" lon="-1.4891250617802143096923828125">
        <ele>621.79998779296875</ele>
        <time>2020-02-22T14:28:29.000Z</time>
      </trkpt>
      <trkpt lat="37.88730279542505741119384765625" lon="-1.48935221135616302490234375">
        <ele>622.4000244140625</ele>
        <time>2020-02-22T14:28:34.000Z</time>
      </trkpt>
      <trkpt lat="37.88731075823307037353515625" lon="-1.48944600485265254974365234375">
        <ele>623</ele>
        <time>2020-02-22T14:28:36.000Z</time>
      </trkpt>
      <trkpt lat="37.88728938437998294830322265625" lon="-1.48958162404596805572509765625">
        <ele>623.5999755859375</ele>
        <time>2020-02-22T14:28:39.000Z</time>
      </trkpt>
      <trkpt lat="37.8872631490230560302734375" lon="-1.48966108448803424835205078125">
        <ele>624.20001220703125</ele>
        <time>2020-02-22T14:28:41.000Z</time>
      </trkpt>
      <trkpt lat="37.88724445737898349761962890625" lon="-1.489727385342121124267578125">
        <ele>624.79998779296875</ele>
        <time>2020-02-22T14:28:43.000Z</time>
      </trkpt>
      <trkpt lat="37.887217886745929718017578125" lon="-1.48983593098819255828857421875">
        <ele>626</ele>
        <time>2020-02-22T14:28:47.000Z</time>
      </trkpt>
      <trkpt lat="37.887156866490840911865234375" lon="-1.48997389711439609527587890625">
        <ele>627</ele>
        <time>2020-02-22T14:28:51.000Z</time>
      </trkpt>
      <trkpt lat="37.88713532499969005584716796875" lon="-1.49001128040254116058349609375">
        <ele>627</ele>
        <time>2020-02-22T14:28:52.000Z</time>
      </trkpt>
      <trkpt lat="37.88707816042006015777587890625" lon="-1.49008621461689472198486328125">
        <ele>627</ele>
        <time>2020-02-22T14:28:54.000Z</time>
      </trkpt>
      <trkpt lat="37.88682527840137481689453125" lon="-1.4902220852673053741455078125">
        <ele>627</ele>
        <time>2020-02-22T14:28:57.000Z</time>
      </trkpt>
      <trkpt lat="37.88654557429254055023193359375" lon="-1.49034060537815093994140625">
        <ele>626.79998779296875</ele>
        <time>2020-02-22T14:29:00.000Z</time>
      </trkpt>
      <trkpt lat="37.88646695204079151153564453125" lon="-1.490400619804859161376953125">
        <ele>626.4000244140625</ele>
        <time>2020-02-22T14:29:01.000Z</time>
      </trkpt>
      <trkpt lat="37.88635983131825923919677734375" lon="-1.4906012825667858123779296875">
        <ele>626</ele>
        <time>2020-02-22T14:29:03.000Z</time>
      </trkpt>
      <trkpt lat="37.88631205447018146514892578125" lon="-1.49084150791168212890625">
        <ele>623.79998779296875</ele>
        <time>2020-02-22T14:29:05.000Z</time>
      </trkpt>
      <trkpt lat="37.88631909526884555816650390625" lon="-1.49096447043120861053466796875">
        <ele>622.5999755859375</ele>
        <time>2020-02-22T14:29:06.000Z</time>
      </trkpt>
      <trkpt lat="37.8863476775586605072021484375" lon="-1.4910867623984813690185546875">
        <ele>621.5999755859375</ele>
        <time>2020-02-22T14:29:07.000Z</time>
      </trkpt>
      <trkpt lat="37.88638598285615444183349609375" lon="-1.49120922200381755828857421875">
        <ele>620.4000244140625</ele>
        <time>2020-02-22T14:29:08.000Z</time>
      </trkpt>
      <trkpt lat="37.88643325679004192352294921875" lon="-1.49132095277309417724609375">
        <ele>619.4000244140625</ele>
        <time>2020-02-22T14:29:09.000Z</time>
      </trkpt>
      <trkpt lat="37.88648421876132488250732421875" lon="-1.49142111651599407196044921875">
        <ele>618.5999755859375</ele>
        <time>2020-02-22T14:29:10.000Z</time>
      </trkpt>
      <trkpt lat="37.886532582342624664306640625" lon="-1.49151700548827648162841796875">
        <ele>617.4000244140625</ele>
        <time>2020-02-22T14:29:11.000Z</time>
      </trkpt>
      <trkpt lat="37.8865692950785160064697265625" lon="-1.49160317145287990570068359375">
        <ele>616.4000244140625</ele>
        <time>2020-02-22T14:29:12.000Z</time>
      </trkpt>
      <trkpt lat="37.88659737445414066314697265625" lon="-1.49168464355170726776123046875">
        <ele>615.79998779296875</ele>
        <time>2020-02-22T14:29:13.000Z</time>
      </trkpt>
      <trkpt lat="37.88662805221974849700927734375" lon="-1.49184859357774257659912109375">
        <ele>614.79998779296875</ele>
        <time>2020-02-22T14:29:15.000Z</time>
      </trkpt>
      <trkpt lat="37.8866239450871944427490234375" lon="-1.4920070953667163848876953125">
        <ele>614.20001220703125</ele>
        <time>2020-02-22T14:29:17.000Z</time>
      </trkpt>
      <trkpt lat="37.886616401374340057373046875" lon="-1.49208605289459228515625">
        <ele>613.5999755859375</ele>
        <time>2020-02-22T14:29:18.000Z</time>
      </trkpt>
      <trkpt lat="37.88660659454762935638427734375" lon="-1.4922444708645343780517578125">
        <ele>613</ele>
        <time>2020-02-22T14:29:20.000Z</time>
      </trkpt>
      <trkpt lat="37.88660810329020023345947265625" lon="-1.49239341728389263153076171875">
        <ele>612.79998779296875</ele>
        <time>2020-02-22T14:29:22.000Z</time>
      </trkpt>
      <trkpt lat="37.88660475052893161773681640625" lon="-1.49246223270893096923828125">
        <ele>612.5999755859375</ele>
        <time>2020-02-22T14:29:23.000Z</time>
      </trkpt>
      <trkpt lat="37.88660223595798015594482421875" lon="-1.492526270449161529541015625">
        <ele>612.79998779296875</ele>
        <time>2020-02-22T14:29:24.000Z</time>
      </trkpt>
      <trkpt lat="37.886586897075176239013671875" lon="-1.49286950938403606414794921875">
        <ele>612.79998779296875</ele>
        <time>2020-02-22T14:29:29.000Z</time>
      </trkpt>
      <trkpt lat="37.88658077828586101531982421875" lon="-1.49294100701808929443359375">
        <ele>612.79998779296875</ele>
        <time>2020-02-22T14:29:30.000Z</time>
      </trkpt>
      <trkpt lat="37.8865944407880306243896484375" lon="-1.49339153431355953216552734375">
        <ele>613</ele>
        <time>2020-02-22T14:29:36.000Z</time>
      </trkpt>
      <trkpt lat="37.88661204278469085693359375" lon="-1.49355229921638965606689453125">
        <ele>613</ele>
        <time>2020-02-22T14:29:38.000Z</time>
      </trkpt>
      <trkpt lat="37.88667197339236736297607421875" lon="-1.4936807937920093536376953125">
        <ele>613</ele>
        <time>2020-02-22T14:29:40.000Z</time>
      </trkpt>
      <trkpt lat="37.8867560438811779022216796875" lon="-1.4937230385839939117431640625">
        <ele>612.79998779296875</ele>
        <time>2020-02-22T14:29:42.000Z</time>
      </trkpt>
      <trkpt lat="37.886886298656463623046875" lon="-1.49361264891922473907470703125">
        <ele>612.20001220703125</ele>
        <time>2020-02-22T14:29:45.000Z</time>
      </trkpt>
      <trkpt lat="37.886933572590351104736328125" lon="-1.49355984292924404144287109375">
        <ele>611.4000244140625</ele>
        <time>2020-02-22T14:29:46.000Z</time>
      </trkpt>
      <trkpt lat="37.88702853955328464508056640625" lon="-1.49345590732991695404052734375">
        <ele>611.20001220703125</ele>
        <time>2020-02-22T14:29:48.000Z</time>
      </trkpt>
      <trkpt lat="37.887117974460124969482421875" lon="-1.49336957372725009918212890625">
        <ele>611.20001220703125</ele>
        <time>2020-02-22T14:29:50.000Z</time>
      </trkpt>
      <trkpt lat="37.8872036375105381011962890625" lon="-1.49329011328518390655517578125">
        <ele>611.20001220703125</ele>
        <time>2020-02-22T14:29:52.000Z</time>
      </trkpt>
      <trkpt lat="37.8873156197369098663330078125" lon="-1.493194811046123504638671875">
        <ele>611.20001220703125</ele>
        <time>2020-02-22T14:29:55.000Z</time>
      </trkpt>
      <trkpt lat="37.88746607489883899688720703125" lon="-1.49307218380272388458251953125">
        <ele>612</ele>
        <time>2020-02-22T14:29:59.000Z</time>
      </trkpt>
      <trkpt lat="37.88750194944441318511962890625" lon="-1.49305106140673160552978515625">
        <ele>612.4000244140625</ele>
        <time>2020-02-22T14:30:00.000Z</time>
      </trkpt>
      <trkpt lat="37.8875389136373996734619140625" lon="-1.4930283464491367340087890625">
        <ele>612.5999755859375</ele>
        <time>2020-02-22T14:30:01.000Z</time>
      </trkpt>
      <trkpt lat="37.88765542209148406982421875" lon="-1.49298216216266155242919921875">
        <ele>614</ele>
        <time>2020-02-22T14:30:04.000Z</time>
      </trkpt>
      <trkpt lat="37.88777838461101055145263671875" lon="-1.4929321222007274627685546875">
        <ele>614.79998779296875</ele>
        <time>2020-02-22T14:30:07.000Z</time>
      </trkpt>
      <trkpt lat="37.88786572404205799102783203125" lon="-1.49290286935865879058837890625">
        <ele>615.20001220703125</ele>
        <time>2020-02-22T14:30:09.000Z</time>
      </trkpt>
      <trkpt lat="37.8880026005208492279052734375" lon="-1.49286313913762569427490234375">
        <ele>616.20001220703125</ele>
        <time>2020-02-22T14:30:12.000Z</time>
      </trkpt>
      <trkpt lat="37.8881187736988067626953125" lon="-1.49282106198370456695556640625">
        <ele>616.4000244140625</ele>
        <time>2020-02-22T14:30:14.000Z</time>
      </trkpt>
      <trkpt lat="37.88839462213218212127685546875" lon="-1.49273154325783252716064453125">
        <ele>616.4000244140625</ele>
        <time>2020-02-22T14:30:18.000Z</time>
      </trkpt>
      <trkpt lat="37.8884666226804256439208984375" lon="-1.49270891211926937103271484375">
        <ele>616.4000244140625</ele>
        <time>2020-02-22T14:30:19.000Z</time>
      </trkpt>
      <trkpt lat="37.88853258825838565826416015625" lon="-1.49267421104013919830322265625">
        <ele>616.4000244140625</ele>
        <time>2020-02-22T14:30:20.000Z</time>
      </trkpt>
      <trkpt lat="37.888589836657047271728515625" lon="-1.4925862848758697509765625">
        <ele>615.5999755859375</ele>
        <time>2020-02-22T14:30:22.000Z</time>
      </trkpt>
      <trkpt lat="37.88858723826706409454345703125" lon="-1.4925294555723667144775390625">
        <ele>615</ele>
        <time>2020-02-22T14:30:23.000Z</time>
      </trkpt>
      <trkpt lat="37.888566367328166961669921875" lon="-1.492392830550670623779296875">
        <ele>613.20001220703125</ele>
        <time>2020-02-22T14:30:25.000Z</time>
      </trkpt>
      <trkpt lat="37.8885645233094692230224609375" lon="-1.49224455468356609344482421875">
        <ele>612</ele>
        <time>2020-02-22T14:30:27.000Z</time>
      </trkpt>
      <trkpt lat="37.8885809518396854400634765625" lon="-1.49201204068958759307861328125">
        <ele>611.4000244140625</ele>
        <time>2020-02-22T14:30:30.000Z</time>
      </trkpt>
      <trkpt lat="37.88860517553985118865966796875" lon="-1.4918629266321659088134765625">
        <ele>611</ele>
        <time>2020-02-22T14:30:32.000Z</time>
      </trkpt>
      <trkpt lat="37.88868078030645847320556640625" lon="-1.49158917367458343505859375">
        <ele>611</ele>
        <time>2020-02-22T14:30:36.000Z</time>
      </trkpt>
      <trkpt lat="37.88886375725269317626953125" lon="-1.49130997247993946075439453125">
        <ele>611</ele>
        <time>2020-02-22T14:30:41.000Z</time>
      </trkpt>
      <trkpt lat="37.88897599093616008758544921875" lon="-1.49118977598845958709716796875">
        <ele>612</ele>
        <time>2020-02-22T14:30:44.000Z</time>
      </trkpt>
      <trkpt lat="37.88901102729141712188720703125" lon="-1.491161696612834930419921875">
        <ele>612.20001220703125</ele>
        <time>2020-02-22T14:30:45.000Z</time>
      </trkpt>
      <trkpt lat="37.88902292959392070770263671875" lon="-1.49113026447594165802001953125">
        <ele>612.4000244140625</ele>
        <time>2020-02-22T14:30:46.000Z</time>
      </trkpt>
      <trkpt lat="37.8889956884086132049560546875" lon="-1.4910185337066650390625">
        <ele>613.4000244140625</ele>
        <time>2020-02-22T14:30:49.000Z</time>
      </trkpt>
      <trkpt lat="37.8889749012887477874755859375" lon="-1.4909600280225276947021484375">
        <ele>613.79998779296875</ele>
        <time>2020-02-22T14:30:50.000Z</time>
      </trkpt>
      <trkpt lat="37.8889775834977626800537109375" lon="-1.49083077907562255859375">
        <ele>614.4000244140625</ele>
        <time>2020-02-22T14:30:52.000Z</time>
      </trkpt>
      <trkpt lat="37.88900884799659252166748046875" lon="-1.4907813258469104766845703125">
        <ele>614.5999755859375</ele>
        <time>2020-02-22T14:30:53.000Z</time>
      </trkpt>
      <trkpt lat="37.88918335922062397003173828125" lon="-1.49067328311502933502197265625">
        <ele>614.79998779296875</ele>
        <time>2020-02-22T14:30:56.000Z</time>
      </trkpt>
      <trkpt lat="37.88930037058889865875244140625" lon="-1.4906175434589385986328125">
        <ele>614.79998779296875</ele>
        <time>2020-02-22T14:30:58.000Z</time>
      </trkpt>
      <trkpt lat="37.88938276469707489013671875" lon="-1.4905811659991741180419921875">
        <ele>614.79998779296875</ele>
        <time>2020-02-22T14:31:00.000Z</time>
      </trkpt>
      <trkpt lat="37.88942978717386722564697265625" lon="-1.49057923816144466400146484375">
        <ele>614.79998779296875</ele>
        <time>2020-02-22T14:31:02.000Z</time>
      </trkpt>
      <trkpt lat="37.88944713771343231201171875" lon="-1.4905657432973384857177734375">
        <ele>614.5999755859375</ele>
        <time>2020-02-22T14:31:03.000Z</time>
      </trkpt>
      <trkpt lat="37.8894724510610103607177734375" lon="-1.49055107496678829193115234375">
        <ele>614.4000244140625</ele>
        <time>2020-02-22T14:31:04.000Z</time>
      </trkpt>
      <trkpt lat="37.889555431902408599853515625" lon="-1.49047664366662502288818359375">
        <ele>614.20001220703125</ele>
        <time>2020-02-22T14:31:06.000Z</time>
      </trkpt>
      <trkpt lat="37.889638245105743408203125" lon="-1.4903813414275646209716796875">
        <ele>614</ele>
        <time>2020-02-22T14:31:08.000Z</time>
      </trkpt>
      <trkpt lat="37.8897275961935520172119140625" lon="-1.4902438782155513763427734375">
        <ele>613.79998779296875</ele>
        <time>2020-02-22T14:31:11.000Z</time>
      </trkpt>
      <trkpt lat="37.8897530771791934967041015625" lon="-1.4901895634829998016357421875">
        <ele>613.4000244140625</ele>
        <time>2020-02-22T14:31:12.000Z</time>
      </trkpt>
      <trkpt lat="37.88988031446933746337890625" lon="-1.4900691993534564971923828125">
        <ele>612.20001220703125</ele>
        <time>2020-02-22T14:31:15.000Z</time>
      </trkpt>
      <trkpt lat="37.8900658898055553436279296875" lon="-1.48994497954845428466796875">
        <ele>611</ele>
        <time>2020-02-22T14:31:18.000Z</time>
      </trkpt>
      <trkpt lat="37.89014509879052639007568359375" lon="-1.48991690017282962799072265625">
        <ele>610.5999755859375</ele>
        <time>2020-02-22T14:31:19.000Z</time>
      </trkpt>
      <trkpt lat="37.8902174346148967742919921875" lon="-1.48989359848201274871826171875">
        <ele>609.79998779296875</ele>
        <time>2020-02-22T14:31:20.000Z</time>
      </trkpt>
      <trkpt lat="37.8903503715991973876953125" lon="-1.48982486687600612640380859375">
        <ele>608.5999755859375</ele>
        <time>2020-02-22T14:31:22.000Z</time>
      </trkpt>
      <trkpt lat="37.89048674516379833221435546875" lon="-1.489722691476345062255859375">
        <ele>607.20001220703125</ele>
        <time>2020-02-22T14:31:24.000Z</time>
      </trkpt>
      <trkpt lat="37.89061934687197208404541015625" lon="-1.489606015384197235107421875">
        <ele>606.20001220703125</ele>
        <time>2020-02-22T14:31:26.000Z</time>
      </trkpt>
      <trkpt lat="37.8908946923911571502685546875" lon="-1.48932782001793384552001953125">
        <ele>605.20001220703125</ele>
        <time>2020-02-22T14:31:30.000Z</time>
      </trkpt>
      <trkpt lat="37.8911957703530788421630859375" lon="-1.48903369903564453125">
        <ele>603.5999755859375</ele>
        <time>2020-02-22T14:31:34.000Z</time>
      </trkpt>
      <trkpt lat="37.89136902429163455963134765625" lon="-1.48887301795184612274169921875">
        <ele>602.79998779296875</ele>
        <time>2020-02-22T14:31:36.000Z</time>
      </trkpt>
      <trkpt lat="37.891457788646221160888671875" lon="-1.48880504071712493896484375">
        <ele>602.4000244140625</ele>
        <time>2020-02-22T14:31:37.000Z</time>
      </trkpt>
      <trkpt lat="37.89163255132734775543212890625" lon="-1.48870605044066905975341796875">
        <ele>601.4000244140625</ele>
        <time>2020-02-22T14:31:39.000Z</time>
      </trkpt>
      <trkpt lat="37.891715951263904571533203125" lon="-1.4886757917702198028564453125">
        <ele>600.79998779296875</ele>
        <time>2020-02-22T14:31:40.000Z</time>
      </trkpt>
      <trkpt lat="37.89180471561849117279052734375" lon="-1.488677300512790679931640625">
        <ele>599.20001220703125</ele>
        <time>2020-02-22T14:31:41.000Z</time>
      </trkpt>
      <trkpt lat="37.89201191626489162445068359375" lon="-1.4887225627899169921875">
        <ele>598</ele>
        <time>2020-02-22T14:31:43.000Z</time>
      </trkpt>
      <trkpt lat="37.89222012273967266082763671875" lon="-1.488822810351848602294921875">
        <ele>597</ele>
        <time>2020-02-22T14:31:45.000Z</time>
      </trkpt>
      <trkpt lat="37.89238474331796169281005859375" lon="-1.48897175677120685577392578125">
        <ele>595.5999755859375</ele>
        <time>2020-02-22T14:31:47.000Z</time>
      </trkpt>
      <trkpt lat="37.89249940775334835052490234375" lon="-1.48917853832244873046875">
        <ele>594.20001220703125</ele>
        <time>2020-02-22T14:31:49.000Z</time>
      </trkpt>
      <trkpt lat="37.89252304472029209136962890625" lon="-1.4893185161054134368896484375">
        <ele>593.5999755859375</ele>
        <time>2020-02-22T14:31:50.000Z</time>
      </trkpt>
      <trkpt lat="37.892517931759357452392578125" lon="-1.489619426429271697998046875">
        <ele>592.5999755859375</ele>
        <time>2020-02-22T14:31:52.000Z</time>
      </trkpt>
      <trkpt lat="37.8925030119717121124267578125" lon="-1.4897728152573108673095703125">
        <ele>591.79998779296875</ele>
        <time>2020-02-22T14:31:53.000Z</time>
      </trkpt>
      <trkpt lat="37.8924872539937496185302734375" lon="-1.48993014357984066009521484375">
        <ele>591.20001220703125</ele>
        <time>2020-02-22T14:31:54.000Z</time>
      </trkpt>
      <trkpt lat="37.89246303029358386993408203125" lon="-1.49025745689868927001953125">
        <ele>589.5999755859375</ele>
        <time>2020-02-22T14:31:56.000Z</time>
      </trkpt>
      <trkpt lat="37.89247275330126285552978515625" lon="-1.49042853154242038726806640625">
        <ele>588.79998779296875</ele>
        <time>2020-02-22T14:31:57.000Z</time>
      </trkpt>
      <trkpt lat="37.892496474087238311767578125" lon="-1.4905989356338977813720703125">
        <ele>587.79998779296875</ele>
        <time>2020-02-22T14:31:58.000Z</time>
      </trkpt>
      <trkpt lat="37.8925274871289730072021484375" lon="-1.490768082439899444580078125">
        <ele>586.20001220703125</ele>
        <time>2020-02-22T14:31:59.000Z</time>
      </trkpt>
      <trkpt lat="37.89255975745618343353271484375" lon="-1.490941084921360015869140625">
        <ele>585.20001220703125</ele>
        <time>2020-02-22T14:32:00.000Z</time>
      </trkpt>
      <trkpt lat="37.89259093813598155975341796875" lon="-1.49111039936542510986328125">
        <ele>584.5999755859375</ele>
        <time>2020-02-22T14:32:01.000Z</time>
      </trkpt>
      <trkpt lat="37.892619185149669647216796875" lon="-1.49127669632434844970703125">
        <ele>584</ele>
        <time>2020-02-22T14:32:02.000Z</time>
      </trkpt>
      <trkpt lat="37.89264307357370853424072265625" lon="-1.4914418198168277740478515625">
        <ele>582.4000244140625</ele>
        <time>2020-02-22T14:32:03.000Z</time>
      </trkpt>
      <trkpt lat="37.8926558978855609893798828125" lon="-1.4916037581861019134521484375">
        <ele>581</ele>
        <time>2020-02-22T14:32:04.000Z</time>
      </trkpt>
      <trkpt lat="37.8926575742661952972412109375" lon="-1.49176661856472492218017578125">
        <ele>579.4000244140625</ele>
        <time>2020-02-22T14:32:05.000Z</time>
      </trkpt>
      <trkpt lat="37.89265028201043605804443359375" lon="-1.4919259585440158843994140625">
        <ele>578.20001220703125</ele>
        <time>2020-02-22T14:32:06.000Z</time>
      </trkpt>
      <trkpt lat="37.89261893369257450103759765625" lon="-1.49222862906754016876220703125">
        <ele>576.79998779296875</ele>
        <time>2020-02-22T14:32:08.000Z</time>
      </trkpt>
      <trkpt lat="37.89261574856936931610107421875" lon="-1.49236408062279224395751953125">
        <ele>576.20001220703125</ele>
        <time>2020-02-22T14:32:09.000Z</time>
      </trkpt>
      <trkpt lat="37.89263494312763214111328125" lon="-1.49248880334198474884033203125">
        <ele>575.5999755859375</ele>
        <time>2020-02-22T14:32:10.000Z</time>
      </trkpt>
      <trkpt lat="37.8926689736545085906982421875" lon="-1.4925995282828807830810546875">
        <ele>574.20001220703125</ele>
        <time>2020-02-22T14:32:11.000Z</time>
      </trkpt>
      <trkpt lat="37.8927276469767093658447265625" lon="-1.49267890490591526031494140625">
        <ele>573.5999755859375</ele>
        <time>2020-02-22T14:32:12.000Z</time>
      </trkpt>
      <trkpt lat="37.89280836470425128936767578125" lon="-1.4927296154201030731201171875">
        <ele>572.79998779296875</ele>
        <time>2020-02-22T14:32:13.000Z</time>
      </trkpt>
      <trkpt lat="37.89288916625082492828369140625" lon="-1.492745541036128997802734375">
        <ele>572.4000244140625</ele>
        <time>2020-02-22T14:32:14.000Z</time>
      </trkpt>
      <trkpt lat="37.8931246139109134674072265625" lon="-1.4926372468471527099609375">
        <ele>571.79998779296875</ele>
        <time>2020-02-22T14:32:17.000Z</time>
      </trkpt>
      <trkpt lat="37.893200218677520751953125" lon="-1.492577232420444488525390625">
        <ele>571.5999755859375</ele>
        <time>2020-02-22T14:32:18.000Z</time>
      </trkpt>
      <trkpt lat="37.89333206601440906524658203125" lon="-1.4924305491149425506591796875">
        <ele>571.4000244140625</ele>
        <time>2020-02-22T14:32:20.000Z</time>
      </trkpt>
      <trkpt lat="37.8933780826628208160400390625" lon="-1.492331810295581817626953125">
        <ele>571.4000244140625</ele>
        <time>2020-02-22T14:32:21.000Z</time>
      </trkpt>
      <trkpt lat="37.89341437630355358123779296875" lon="-1.49209569208323955535888671875">
        <ele>571.20001220703125</ele>
        <time>2020-02-22T14:32:23.000Z</time>
      </trkpt>
      <trkpt lat="37.8934132866561412811279296875" lon="-1.4919747412204742431640625">
        <ele>571</ele>
        <time>2020-02-22T14:32:24.000Z</time>
      </trkpt>
      <trkpt lat="37.89341320283710956573486328125" lon="-1.4918486773967742919921875">
        <ele>570.79998779296875</ele>
        <time>2020-02-22T14:32:25.000Z</time>
      </trkpt>
      <trkpt lat="37.8934193216264247894287109375" lon="-1.49158389307558536529541015625">
        <ele>570.5999755859375</ele>
        <time>2020-02-22T14:32:27.000Z</time>
      </trkpt>
      <trkpt lat="37.89342493750154972076416015625" lon="-1.491455398499965667724609375">
        <ele>570.4000244140625</ele>
        <time>2020-02-22T14:32:28.000Z</time>
      </trkpt>
      <trkpt lat="37.89343415759503841400146484375" lon="-1.49108885787427425384521484375">
        <ele>569.5999755859375</ele>
        <time>2020-02-22T14:32:31.000Z</time>
      </trkpt>
      <trkpt lat="37.8934283740818500518798828125" lon="-1.49085567332804203033447265625">
        <ele>569.20001220703125</ele>
        <time>2020-02-22T14:32:33.000Z</time>
      </trkpt>
      <trkpt lat="37.89345645345747470855712890625" lon="-1.49052693508565425872802734375">
        <ele>568.79998779296875</ele>
        <time>2020-02-22T14:32:36.000Z</time>
      </trkpt>
      <trkpt lat="37.8934900648891925811767578125" lon="-1.49042735807597637176513671875">
        <ele>568.79998779296875</ele>
        <time>2020-02-22T14:32:37.000Z</time>
      </trkpt>
      <trkpt lat="37.89367136545479297637939453125" lon="-1.49019467644393444061279296875">
        <ele>568.5999755859375</ele>
        <time>2020-02-22T14:32:40.000Z</time>
      </trkpt>
      <trkpt lat="37.893939502537250518798828125" lon="-1.490078084170818328857421875">
        <ele>568.4000244140625</ele>
        <time>2020-02-22T14:32:43.000Z</time>
      </trkpt>
      <trkpt lat="37.8941508941352367401123046875" lon="-1.4900742284953594207763671875">
        <ele>567.79998779296875</ele>
        <time>2020-02-22T14:32:45.000Z</time>
      </trkpt>
      <trkpt lat="37.8943624533712863922119140625" lon="-1.49006861262023448944091796875">
        <ele>567.20001220703125</ele>
        <time>2020-02-22T14:32:47.000Z</time>
      </trkpt>
      <trkpt lat="37.89480074308812618255615234375" lon="-1.49006299674510955810546875">
        <ele>566</ele>
        <time>2020-02-22T14:32:51.000Z</time>
      </trkpt>
      <trkpt lat="37.89502873085439205169677734375" lon="-1.4900527708232402801513671875">
        <ele>564.20001220703125</ele>
        <time>2020-02-22T14:32:53.000Z</time>
      </trkpt>
      <trkpt lat="37.89514121599495410919189453125" lon="-1.49003609083592891693115234375">
        <ele>563.20001220703125</ele>
        <time>2020-02-22T14:32:54.000Z</time>
      </trkpt>
      <trkpt lat="37.89525018073618412017822265625" lon="-1.4900058321654796600341796875">
        <ele>562.5999755859375</ele>
        <time>2020-02-22T14:32:55.000Z</time>
      </trkpt>
      <trkpt lat="37.8954480774700641632080078125" lon="-1.4899129606783390045166015625">
        <ele>561.5999755859375</ele>
        <time>2020-02-22T14:32:57.000Z</time>
      </trkpt>
      <trkpt lat="37.8956237621605396270751953125" lon="-1.489793099462985992431640625">
        <ele>560.79998779296875</ele>
        <time>2020-02-22T14:32:59.000Z</time>
      </trkpt>
      <trkpt lat="37.8956961818039417266845703125" lon="-1.4897195063531398773193359375">
        <ele>560.4000244140625</ele>
        <time>2020-02-22T14:33:00.000Z</time>
      </trkpt>
      <trkpt lat="37.89575435221195220947265625" lon="-1.48962571285665035247802734375">
        <ele>560</ele>
        <time>2020-02-22T14:33:01.000Z</time>
      </trkpt>
      <trkpt lat="37.89583884179592132568359375" lon="-1.48940627463161945343017578125">
        <ele>559.4000244140625</ele>
        <time>2020-02-22T14:33:03.000Z</time>
      </trkpt>
      <trkpt lat="37.89586859755218029022216796875" lon="-1.489285491406917572021484375">
        <ele>559.4000244140625</ele>
        <time>2020-02-22T14:33:04.000Z</time>
      </trkpt>
      <trkpt lat="37.8958943299949169158935546875" lon="-1.4891552366316318511962890625">
        <ele>559</ele>
        <time>2020-02-22T14:33:05.000Z</time>
      </trkpt>
      <trkpt lat="37.89596021175384521484375" lon="-1.48873169906437397003173828125">
        <ele>558</ele>
        <time>2020-02-22T14:33:08.000Z</time>
      </trkpt>
      <trkpt lat="37.89596515707671642303466796875" lon="-1.488427184522151947021484375">
        <ele>557.5999755859375</ele>
        <time>2020-02-22T14:33:10.000Z</time>
      </trkpt>
      <trkpt lat="37.89594286121428012847900390625" lon="-1.48827320896089076995849609375">
        <ele>557</ele>
        <time>2020-02-22T14:33:11.000Z</time>
      </trkpt>
      <trkpt lat="37.895910926163196563720703125" lon="-1.488120071589946746826171875">
        <ele>556.79998779296875</ele>
        <time>2020-02-22T14:33:12.000Z</time>
      </trkpt>
      <trkpt lat="37.89583272300660610198974609375" lon="-1.487819664180278778076171875">
        <ele>555.79998779296875</ele>
        <time>2020-02-22T14:33:14.000Z</time>
      </trkpt>
      <trkpt lat="37.895790897309780120849609375" lon="-1.48767407052218914031982421875">
        <ele>554.5999755859375</ele>
        <time>2020-02-22T14:33:15.000Z</time>
      </trkpt>
      <trkpt lat="37.8956814296543598175048828125" lon="-1.48740819655358791351318359375">
        <ele>553</ele>
        <time>2020-02-22T14:33:17.000Z</time>
      </trkpt>
      <trkpt lat="37.8956126980483531951904296875" lon="-1.487291269004344940185546875">
        <ele>552.20001220703125</ele>
        <time>2020-02-22T14:33:18.000Z</time>
      </trkpt>
      <trkpt lat="37.895535416901111602783203125" lon="-1.4871841482818126678466796875">
        <ele>551</ele>
        <time>2020-02-22T14:33:19.000Z</time>
      </trkpt>
      <trkpt lat="37.895375154912471771240234375" lon="-1.48699731566011905670166015625">
        <ele>549.4000244140625</ele>
        <time>2020-02-22T14:33:21.000Z</time>
      </trkpt>
      <trkpt lat="37.8953092731535434722900390625" lon="-1.4869082160294055938720703125">
        <ele>548.5999755859375</ele>
        <time>2020-02-22T14:33:22.000Z</time>
      </trkpt>
      <trkpt lat="37.89527423679828643798828125" lon="-1.4868109859526157379150390625">
        <ele>548</ele>
        <time>2020-02-22T14:33:23.000Z</time>
      </trkpt>
      <trkpt lat="37.89525755681097507476806640625" lon="-1.48670461960136890411376953125">
        <ele>547.79998779296875</ele>
        <time>2020-02-22T14:33:24.000Z</time>
      </trkpt>
      <trkpt lat="37.8953079320490360260009765625" lon="-1.48647696711122989654541015625">
        <ele>547.4000244140625</ele>
        <time>2020-02-22T14:33:26.000Z</time>
      </trkpt>
      <trkpt lat="37.89545386098325252532958984375" lon="-1.4863125979900360107421875">
        <ele>547.20001220703125</ele>
        <time>2020-02-22T14:33:28.000Z</time>
      </trkpt>
      <trkpt lat="37.8955365903675556182861328125" lon="-1.48624177090823650360107421875">
        <ele>547</ele>
        <time>2020-02-22T14:33:29.000Z</time>
      </trkpt>
      <trkpt lat="37.895608507096767425537109375" lon="-1.4861561916768550872802734375">
        <ele>546.79998779296875</ele>
        <time>2020-02-22T14:33:30.000Z</time>
      </trkpt>
      <trkpt lat="37.89565871469676494598388671875" lon="-1.48604714311659336090087890625">
        <ele>546.5999755859375</ele>
        <time>2020-02-22T14:33:31.000Z</time>
      </trkpt>
      <trkpt lat="37.8957845270633697509765625" lon="-1.48568588308990001678466796875">
        <ele>546.20001220703125</ele>
        <time>2020-02-22T14:33:34.000Z</time>
      </trkpt>
      <trkpt lat="37.89582802914083003997802734375" lon="-1.485565267503261566162109375">
        <ele>546</ele>
        <time>2020-02-22T14:33:35.000Z</time>
      </trkpt>
      <trkpt lat="37.89586641825735569000244140625" lon="-1.48544683121144771575927734375">
        <ele>545.79998779296875</ele>
        <time>2020-02-22T14:33:36.000Z</time>
      </trkpt>
      <trkpt lat="37.89589089341461658477783203125" lon="-1.485324203968048095703125">
        <ele>545.79998779296875</ele>
        <time>2020-02-22T14:33:37.000Z</time>
      </trkpt>
      <trkpt lat="37.89590514265000820159912109375" lon="-1.48506109602749347686767578125">
        <ele>545.20001220703125</ele>
        <time>2020-02-22T14:33:39.000Z</time>
      </trkpt>
      <trkpt lat="37.89591067470610141754150390625" lon="-1.484809555113315582275390625">
        <ele>545</ele>
        <time>2020-02-22T14:33:41.000Z</time>
      </trkpt>
      <trkpt lat="37.8959322161972522735595703125" lon="-1.4846950583159923553466796875">
        <ele>544.5999755859375</ele>
        <time>2020-02-22T14:33:42.000Z</time>
      </trkpt>
      <trkpt lat="37.895985357463359832763671875" lon="-1.4845941402018070220947265625">
        <ele>544.4000244140625</ele>
        <time>2020-02-22T14:33:43.000Z</time>
      </trkpt>
      <trkpt lat="37.8962530754506587982177734375" lon="-1.484380401670932769775390625">
        <ele>543.79998779296875</ele>
        <time>2020-02-22T14:33:46.000Z</time>
      </trkpt>
      <trkpt lat="37.89658860303461551666259765625" lon="-1.48433522321283817291259765625">
        <ele>543</ele>
        <time>2020-02-22T14:33:49.000Z</time>
      </trkpt>
      <trkpt lat="37.89669354446232318878173828125" lon="-1.48434159345924854278564453125">
        <ele>542.79998779296875</ele>
        <time>2020-02-22T14:33:50.000Z</time>
      </trkpt>
      <trkpt lat="37.89701901376247406005859375" lon="-1.48432080633938312530517578125">
        <ele>541.4000244140625</ele>
        <time>2020-02-22T14:33:53.000Z</time>
      </trkpt>
      <trkpt lat="37.89712906815111637115478515625" lon="-1.48429624736309051513671875">
        <ele>540.5999755859375</ele>
        <time>2020-02-22T14:33:54.000Z</time>
      </trkpt>
      <trkpt lat="37.8972361050546169281005859375" lon="-1.48425760678946971893310546875">
        <ele>540.20001220703125</ele>
        <time>2020-02-22T14:33:55.000Z</time>
      </trkpt>
      <trkpt lat="37.89732906036078929901123046875" lon="-1.48420295678079128265380859375">
        <ele>539.4000244140625</ele>
        <time>2020-02-22T14:33:56.000Z</time>
      </trkpt>
      <trkpt lat="37.897414304316043853759765625" lon="-1.48414478637278079986572265625">
        <ele>539</ele>
        <time>2020-02-22T14:33:57.000Z</time>
      </trkpt>
      <trkpt lat="37.89756626822054386138916015625" lon="-1.4840327203273773193359375">
        <ele>538.79998779296875</ele>
        <time>2020-02-22T14:33:59.000Z</time>
      </trkpt>
      <trkpt lat="37.89768981747329235076904296875" lon="-1.48389768786728382110595703125">
        <ele>538.5999755859375</ele>
        <time>2020-02-22T14:34:01.000Z</time>
      </trkpt>
      <trkpt lat="37.89793976582586765289306640625" lon="-1.48357733152806758880615234375">
        <ele>538.5999755859375</ele>
        <time>2020-02-22T14:34:05.000Z</time>
      </trkpt>
      <trkpt lat="37.89797731675207614898681640625" lon="-1.48348110727965831756591796875">
        <ele>539</ele>
        <time>2020-02-22T14:34:06.000Z</time>
      </trkpt>
      <trkpt lat="37.89803112857043743133544921875" lon="-1.48304139263927936553955078125">
        <ele>540.20001220703125</ele>
        <time>2020-02-22T14:34:10.000Z</time>
      </trkpt>
      <trkpt lat="37.89801956154406070709228515625" lon="-1.48279421031475067138671875">
        <ele>540.20001220703125</ele>
        <time>2020-02-22T14:34:12.000Z</time>
      </trkpt>
      <trkpt lat="37.89797262288630008697509765625" lon="-1.48240537382662296295166015625">
        <ele>540.20001220703125</ele>
        <time>2020-02-22T14:34:15.000Z</time>
      </trkpt>
      <trkpt lat="37.89784421212971210479736328125" lon="-1.48190581239759922027587890625">
        <ele>539.20001220703125</ele>
        <time>2020-02-22T14:34:19.000Z</time>
      </trkpt>
      <trkpt lat="37.8978168033063411712646484375" lon="-1.4817868731915950775146484375">
        <ele>538.79998779296875</ele>
        <time>2020-02-22T14:34:20.000Z</time>
      </trkpt>
      <trkpt lat="37.89779819548130035400390625" lon="-1.48166743107140064239501953125">
        <ele>538.4000244140625</ele>
        <time>2020-02-22T14:34:21.000Z</time>
      </trkpt>
      <trkpt lat="37.89780263788998126983642578125" lon="-1.48155276663601398468017578125">
        <ele>537.79998779296875</ele>
        <time>2020-02-22T14:34:22.000Z</time>
      </trkpt>
      <trkpt lat="37.89782769978046417236328125" lon="-1.4814515970647335052490234375">
        <ele>537</ele>
        <time>2020-02-22T14:34:23.000Z</time>
      </trkpt>
      <trkpt lat="37.897871620953083038330078125" lon="-1.48137523792684078216552734375">
        <ele>536</ele>
        <time>2020-02-22T14:34:24.000Z</time>
      </trkpt>
      <trkpt lat="37.89793574251234531402587890625" lon="-1.48133433423936367034912109375">
        <ele>535</ele>
        <time>2020-02-22T14:34:25.000Z</time>
      </trkpt>
      <trkpt lat="37.8980109281837940216064453125" lon="-1.48134238086640834808349609375">
        <ele>533.79998779296875</ele>
        <time>2020-02-22T14:34:26.000Z</time>
      </trkpt>
      <trkpt lat="37.898081503808498382568359375" lon="-1.4813919179141521453857421875">
        <ele>533</ele>
        <time>2020-02-22T14:34:27.000Z</time>
      </trkpt>
      <trkpt lat="37.89812701754271984100341796875" lon="-1.4814747311174869537353515625">
        <ele>532.20001220703125</ele>
        <time>2020-02-22T14:34:28.000Z</time>
      </trkpt>
      <trkpt lat="37.89815048687160015106201171875" lon="-1.4815759845077991485595703125">
        <ele>531.4000244140625</ele>
        <time>2020-02-22T14:34:29.000Z</time>
      </trkpt>
      <trkpt lat="37.898156605660915374755859375" lon="-1.481684111058712005615234375">
        <ele>530.4000244140625</ele>
        <time>2020-02-22T14:34:30.000Z</time>
      </trkpt>
      <trkpt lat="37.89815987460315227508544921875" lon="-1.48179416544735431671142578125">
        <ele>529.5999755859375</ele>
        <time>2020-02-22T14:34:31.000Z</time>
      </trkpt>
      <trkpt lat="37.89816725067794322967529296875" lon="-1.48190698586404323577880859375">
        <ele>529</ele>
        <time>2020-02-22T14:34:32.000Z</time>
      </trkpt>
      <trkpt lat="37.8982231579720973968505859375" lon="-1.4822344668209552764892578125">
        <ele>527.4000244140625</ele>
        <time>2020-02-22T14:34:35.000Z</time>
      </trkpt>
      <trkpt lat="37.898262552917003631591796875" lon="-1.482308395206928253173828125">
        <ele>526.79998779296875</ele>
        <time>2020-02-22T14:34:36.000Z</time>
      </trkpt>
      <trkpt lat="37.89837981574237346649169921875" lon="-1.48234217427670955657958984375">
        <ele>526.4000244140625</ele>
        <time>2020-02-22T14:34:38.000Z</time>
      </trkpt>
      <trkpt lat="37.8984439373016357421875" lon="-1.48229054175317287445068359375">
        <ele>526</ele>
        <time>2020-02-22T14:34:39.000Z</time>
      </trkpt>
      <trkpt lat="37.89849020540714263916015625" lon="-1.48220655508339405059814453125">
        <ele>525.79998779296875</ele>
        <time>2020-02-22T14:34:40.000Z</time>
      </trkpt>
      <trkpt lat="37.89856237359344959259033203125" lon="-1.48198661394417285919189453125">
        <ele>524.79998779296875</ele>
        <time>2020-02-22T14:34:42.000Z</time>
      </trkpt>
      <trkpt lat="37.8985993377864360809326171875" lon="-1.48186725564301013946533203125">
        <ele>524.4000244140625</ele>
        <time>2020-02-22T14:34:43.000Z</time>
      </trkpt>
      <trkpt lat="37.898668237030506134033203125" lon="-1.48162619210779666900634765625">
        <ele>523.79998779296875</ele>
        <time>2020-02-22T14:34:45.000Z</time>
      </trkpt>
      <trkpt lat="37.89876219816505908966064453125" lon="-1.48125596344470977783203125">
        <ele>522.79998779296875</ele>
        <time>2020-02-22T14:34:48.000Z</time>
      </trkpt>
      <trkpt lat="37.89877929724752902984619140625" lon="-1.4811304025352001190185546875">
        <ele>522.4000244140625</ele>
        <time>2020-02-22T14:34:49.000Z</time>
      </trkpt>
      <trkpt lat="37.89878047071397304534912109375" lon="-1.4810023270547389984130859375">
        <ele>522</ele>
        <time>2020-02-22T14:34:50.000Z</time>
      </trkpt>
      <trkpt lat="37.89877477101981639862060546875" lon="-1.4808690547943115234375">
        <ele>521.4000244140625</ele>
        <time>2020-02-22T14:34:51.000Z</time>
      </trkpt>
      <trkpt lat="37.89876320399343967437744140625" lon="-1.48073167540132999420166015625">
        <ele>521</ele>
        <time>2020-02-22T14:34:52.000Z</time>
      </trkpt>
      <trkpt lat="37.89875733666121959686279296875" lon="-1.480593122541904449462890625">
        <ele>520.4000244140625</ele>
        <time>2020-02-22T14:34:53.000Z</time>
      </trkpt>
      <trkpt lat="37.89873990230262279510498046875" lon="-1.4803052879869937896728515625">
        <ele>518.79998779296875</ele>
        <time>2020-02-22T14:34:55.000Z</time>
      </trkpt>
      <trkpt lat="37.89871391840279102325439453125" lon="-1.479891724884510040283203125">
        <ele>517.5999755859375</ele>
        <time>2020-02-22T14:34:58.000Z</time>
      </trkpt>
      <trkpt lat="37.8987089730799198150634765625" lon="-1.47963699884712696075439453125">
        <ele>516.20001220703125</ele>
        <time>2020-02-22T14:35:00.000Z</time>
      </trkpt>
      <trkpt lat="37.89871794171631336212158203125" lon="-1.47952032275497913360595703125">
        <ele>515.5999755859375</ele>
        <time>2020-02-22T14:35:01.000Z</time>
      </trkpt>
      <trkpt lat="37.8987414948642253875732421875" lon="-1.47941186092793941497802734375">
        <ele>515.20001220703125</ele>
        <time>2020-02-22T14:35:02.000Z</time>
      </trkpt>
      <trkpt lat="37.89886035025119781494140625" lon="-1.47903685458004474639892578125">
        <ele>514.79998779296875</ele>
        <time>2020-02-22T14:35:06.000Z</time>
      </trkpt>
      <trkpt lat="37.8988628648221492767333984375" lon="-1.47874030284583568572998046875">
        <ele>514.79998779296875</ele>
        <time>2020-02-22T14:35:09.000Z</time>
      </trkpt>
      <trkpt lat="37.89886177517473697662353515625" lon="-1.4786468446254730224609375">
        <ele>514.79998779296875</ele>
        <time>2020-02-22T14:35:10.000Z</time>
      </trkpt>
      <trkpt lat="37.898859344422817230224609375" lon="-1.47847183048725128173828125">
        <ele>516.79998779296875</ele>
        <time>2020-02-22T14:35:12.000Z</time>
      </trkpt>
      <trkpt lat="37.898848615586757659912109375" lon="-1.47830595262348651885986328125">
        <ele>517.5999755859375</ele>
        <time>2020-02-22T14:35:14.000Z</time>
      </trkpt>
      <trkpt lat="37.898830510675907135009765625" lon="-1.47822967730462551116943359375">
        <ele>518</ele>
        <time>2020-02-22T14:35:15.000Z</time>
      </trkpt>
      <trkpt lat="37.89880813099443912506103515625" lon="-1.478153653442859649658203125">
        <ele>518.20001220703125</ele>
        <time>2020-02-22T14:35:16.000Z</time>
      </trkpt>
      <trkpt lat="37.89875029586255550384521484375" lon="-1.4780076406896114349365234375">
        <ele>518.79998779296875</ele>
        <time>2020-02-22T14:35:18.000Z</time>
      </trkpt>
      <trkpt lat="37.8987200371921062469482421875" lon="-1.47793597541749477386474609375">
        <ele>519</ele>
        <time>2020-02-22T14:35:19.000Z</time>
      </trkpt>
      <trkpt lat="37.89867100305855274200439453125" lon="-1.47778862155973911285400390625">
        <ele>519.5999755859375</ele>
        <time>2020-02-22T14:35:21.000Z</time>
      </trkpt>
      <trkpt lat="37.8986598551273345947265625" lon="-1.4777115918695926666259765625">
        <ele>520</ele>
        <time>2020-02-22T14:35:22.000Z</time>
      </trkpt>
      <trkpt lat="37.89865675382316112518310546875" lon="-1.47762802429497241973876953125">
        <ele>520.20001220703125</ele>
        <time>2020-02-22T14:35:23.000Z</time>
      </trkpt>
      <trkpt lat="37.8986757807433605194091796875" lon="-1.4772797562181949615478515625">
        <ele>520.4000244140625</ele>
        <time>2020-02-22T14:35:27.000Z</time>
      </trkpt>
      <trkpt lat="37.8987079672515392303466796875" lon="-1.47711086086928844451904296875">
        <ele>520.5999755859375</ele>
        <time>2020-02-22T14:35:29.000Z</time>
      </trkpt>
      <trkpt lat="37.8987860865890979766845703125" lon="-1.4769562147557735443115234375">
        <ele>520.79998779296875</ele>
        <time>2020-02-22T14:35:31.000Z</time>
      </trkpt>
      <trkpt lat="37.89898096583783626556396484375" lon="-1.47677533328533172607421875">
        <ele>520.79998779296875</ele>
        <time>2020-02-22T14:35:34.000Z</time>
      </trkpt>
      <trkpt lat="37.8990549780428409576416015625" lon="-1.47672579623758792877197265625">
        <ele>520.79998779296875</ele>
        <time>2020-02-22T14:35:35.000Z</time>
      </trkpt>
      <trkpt lat="37.899423278868198394775390625" lon="-1.47648355923593044281005859375">
        <ele>520.4000244140625</ele>
        <time>2020-02-22T14:35:40.000Z</time>
      </trkpt>
      <trkpt lat="37.89971706457436084747314453125" lon="-1.47629563696682453155517578125">
        <ele>519.4000244140625</ele>
        <time>2020-02-22T14:35:44.000Z</time>
      </trkpt>
      <trkpt lat="37.8999287076294422149658203125" lon="-1.47615197114646434783935546875">
        <ele>519</ele>
        <time>2020-02-22T14:35:47.000Z</time>
      </trkpt>
      <trkpt lat="37.90000339038670063018798828125" lon="-1.47611282765865325927734375">
        <ele>518.79998779296875</ele>
        <time>2020-02-22T14:35:48.000Z</time>
      </trkpt>
      <trkpt lat="37.90016314946115016937255859375" lon="-1.4760603569447994232177734375">
        <ele>518.4000244140625</ele>
        <time>2020-02-22T14:35:50.000Z</time>
      </trkpt>
      <trkpt lat="37.9002499021589756011962890625" lon="-1.4760397374629974365234375">
        <ele>518</ele>
        <time>2020-02-22T14:35:51.000Z</time>
      </trkpt>
      <trkpt lat="37.90060378611087799072265625" lon="-1.4759466983377933502197265625">
        <ele>517</ele>
        <time>2020-02-22T14:35:55.000Z</time>
      </trkpt>
      <trkpt lat="37.900701351463794708251953125" lon="-1.4759270846843719482421875">
        <ele>516.79998779296875</ele>
        <time>2020-02-22T14:35:56.000Z</time>
      </trkpt>
      <trkpt lat="37.900911904871463775634765625" lon="-1.475880481302738189697265625">
        <ele>516.4000244140625</ele>
        <time>2020-02-22T14:35:58.000Z</time>
      </trkpt>
      <trkpt lat="37.90101659484207630157470703125" lon="-1.475858353078365325927734375">
        <ele>515.79998779296875</ele>
        <time>2020-02-22T14:35:59.000Z</time>
      </trkpt>
      <trkpt lat="37.90112488903105258941650390625" lon="-1.4758333750069141387939453125">
        <ele>515.4000244140625</ele>
        <time>2020-02-22T14:36:00.000Z</time>
      </trkpt>
      <trkpt lat="37.90123469196259975433349609375" lon="-1.47580713964998722076416015625">
        <ele>514.79998779296875</ele>
        <time>2020-02-22T14:36:01.000Z</time>
      </trkpt>
      <trkpt lat="37.9013509489595890045166015625" lon="-1.475779227912425994873046875">
        <ele>514.4000244140625</ele>
        <time>2020-02-22T14:36:02.000Z</time>
      </trkpt>
      <trkpt lat="37.901592515408992767333984375" lon="-1.4757311157882213592529296875">
        <ele>512.5999755859375</ele>
        <time>2020-02-22T14:36:04.000Z</time>
      </trkpt>
      <trkpt lat="37.9017122089862823486328125" lon="-1.47570781409740447998046875">
        <ele>511.79998779296875</ele>
        <time>2020-02-22T14:36:05.000Z</time>
      </trkpt>
      <trkpt lat="37.90195302106440067291259765625" lon="-1.47565626539289951324462890625">
        <ele>510</ele>
        <time>2020-02-22T14:36:07.000Z</time>
      </trkpt>
      <trkpt lat="37.90219039656221866607666015625" lon="-1.47559784352779388427734375">
        <ele>509</ele>
        <time>2020-02-22T14:36:09.000Z</time>
      </trkpt>
      <trkpt lat="37.90231394581496715545654296875" lon="-1.4755641482770442962646484375">
        <ele>507.79998779296875</ele>
        <time>2020-02-22T14:36:10.000Z</time>
      </trkpt>
      <trkpt lat="37.90243833325803279876708984375" lon="-1.47552936337888240814208984375">
        <ele>505.600006103515625</ele>
        <time>2020-02-22T14:36:11.000Z</time>
      </trkpt>
      <trkpt lat="37.9025624692440032958984375" lon="-1.4754940755665302276611328125">
        <ele>504.600006103515625</ele>
        <time>2020-02-22T14:36:12.000Z</time>
      </trkpt>
      <trkpt lat="37.90268459357321262359619140625" lon="-1.47545023821294307708740234375">
        <ele>503.399993896484375</ele>
        <time>2020-02-22T14:36:13.000Z</time>
      </trkpt>
      <trkpt lat="37.90279959328472614288330078125" lon="-1.47539173252880573272705078125">
        <ele>502.399993896484375</ele>
        <time>2020-02-22T14:36:14.000Z</time>
      </trkpt>
      <trkpt lat="37.902912832796573638916015625" lon="-1.47532048635184764862060546875">
        <ele>501.399993896484375</ele>
        <time>2020-02-22T14:36:15.000Z</time>
      </trkpt>
      <trkpt lat="37.90302389301359653472900390625" lon="-1.47524069063365459442138671875">
        <ele>500.399993896484375</ele>
        <time>2020-02-22T14:36:16.000Z</time>
      </trkpt>
      <trkpt lat="37.90313553996384143829345703125" lon="-1.475152261555194854736328125">
        <ele>500.20001220703125</ele>
        <time>2020-02-22T14:36:17.000Z</time>
      </trkpt>
      <trkpt lat="37.90334357880055904388427734375" lon="-1.4749549515545368194580078125">
        <ele>498.79998779296875</ele>
        <time>2020-02-22T14:36:19.000Z</time>
      </trkpt>
      <trkpt lat="37.90344265289604663848876953125" lon="-1.47484640590846538543701171875">
        <ele>497.20001220703125</ele>
        <time>2020-02-22T14:36:20.000Z</time>
      </trkpt>
      <trkpt lat="37.9036335088312625885009765625" lon="-1.4746193401515483856201171875">
        <ele>496.20001220703125</ele>
        <time>2020-02-22T14:36:22.000Z</time>
      </trkpt>
      <trkpt lat="37.90382738225162029266357421875" lon="-1.474387161433696746826171875">
        <ele>495.399993896484375</ele>
        <time>2020-02-22T14:36:24.000Z</time>
      </trkpt>
      <trkpt lat="37.9039272107183933258056640625" lon="-1.47426805458962917327880859375">
        <ele>494.600006103515625</ele>
        <time>2020-02-22T14:36:25.000Z</time>
      </trkpt>
      <trkpt lat="37.90412485599517822265625" lon="-1.47402883507311344146728515625">
        <ele>493.20001220703125</ele>
        <time>2020-02-22T14:36:27.000Z</time>
      </trkpt>
      <trkpt lat="37.90422334335744380950927734375" lon="-1.47391031496226787567138671875">
        <ele>492.79998779296875</ele>
        <time>2020-02-22T14:36:28.000Z</time>
      </trkpt>
      <trkpt lat="37.90442417375743389129638671875" lon="-1.47367796860635280609130859375">
        <ele>491.399993896484375</ele>
        <time>2020-02-22T14:36:30.000Z</time>
      </trkpt>
      <trkpt lat="37.9046242497861385345458984375" lon="-1.47345207631587982177734375">
        <ele>490.20001220703125</ele>
        <time>2020-02-22T14:36:32.000Z</time>
      </trkpt>
      <trkpt lat="37.904819212853908538818359375" lon="-1.4732266031205654144287109375">
        <ele>488.600006103515625</ele>
        <time>2020-02-22T14:36:34.000Z</time>
      </trkpt>
      <trkpt lat="37.90491543710231781005859375" lon="-1.47311520762741565704345703125">
        <ele>488</ele>
        <time>2020-02-22T14:36:35.000Z</time>
      </trkpt>
      <trkpt lat="37.905010990798473358154296875" lon="-1.47300473414361476898193359375">
        <ele>487.20001220703125</ele>
        <time>2020-02-22T14:36:36.000Z</time>
      </trkpt>
      <trkpt lat="37.9052002541720867156982421875" lon="-1.47278688848018646240234375">
        <ele>486.20001220703125</ele>
        <time>2020-02-22T14:36:38.000Z</time>
      </trkpt>
      <trkpt lat="37.90538909845054149627685546875" lon="-1.472568623721599578857421875">
        <ele>485</ele>
        <time>2020-02-22T14:36:40.000Z</time>
      </trkpt>
      <trkpt lat="37.90557148866355419158935546875" lon="-1.472352705895900726318359375">
        <ele>484</ele>
        <time>2020-02-22T14:36:42.000Z</time>
      </trkpt>
      <trkpt lat="37.90575630962848663330078125" lon="-1.472139470279216766357421875">
        <ele>483.399993896484375</ele>
        <time>2020-02-22T14:36:44.000Z</time>
      </trkpt>
      <trkpt lat="37.9061142168939113616943359375" lon="-1.4717587642371654510498046875">
        <ele>482.79998779296875</ele>
        <time>2020-02-22T14:36:48.000Z</time>
      </trkpt>
      <trkpt lat="37.90621521882712841033935546875" lon="-1.4716826565563678741455078125">
        <ele>482.600006103515625</ele>
        <time>2020-02-22T14:36:49.000Z</time>
      </trkpt>
      <trkpt lat="37.90673263370990753173828125" lon="-1.47137026302516460418701171875">
        <ele>482.20001220703125</ele>
        <time>2020-02-22T14:36:54.000Z</time>
      </trkpt>
      <trkpt lat="37.906830869615077972412109375" lon="-1.47131175734102725982666015625">
        <ele>482.20001220703125</ele>
        <time>2020-02-22T14:36:55.000Z</time>
      </trkpt>
      <trkpt lat="37.90730989538133144378662109375" lon="-1.47102207876741886138916015625">
        <ele>481.600006103515625</ele>
        <time>2020-02-22T14:37:00.000Z</time>
      </trkpt>
      <trkpt lat="37.90748365223407745361328125" lon="-1.47089350037276744842529296875">
        <ele>481.399993896484375</ele>
        <time>2020-02-22T14:37:02.000Z</time>
      </trkpt>
      <trkpt lat="37.90765958838164806365966796875" lon="-1.47074530832469463348388671875">
        <ele>480.399993896484375</ele>
        <time>2020-02-22T14:37:04.000Z</time>
      </trkpt>
      <trkpt lat="37.9079253785312175750732421875" lon="-1.470509357750415802001953125">
        <ele>479.79998779296875</ele>
        <time>2020-02-22T14:37:07.000Z</time>
      </trkpt>
      <trkpt lat="37.90810190141201019287109375" lon="-1.4703512750566005706787109375">
        <ele>479.399993896484375</ele>
        <time>2020-02-22T14:37:09.000Z</time>
      </trkpt>
      <trkpt lat="37.9083726368844509124755859375" lon="-1.470132507383823394775390625">
        <ele>478</ele>
        <time>2020-02-22T14:37:12.000Z</time>
      </trkpt>
      <trkpt lat="37.90864982642233371734619140625" lon="-1.4699476025998592376708984375">
        <ele>477</ele>
        <time>2020-02-22T14:37:15.000Z</time>
      </trkpt>
      <trkpt lat="37.90883339010179042816162109375" lon="-1.46982707083225250244140625">
        <ele>476.600006103515625</ele>
        <time>2020-02-22T14:37:17.000Z</time>
      </trkpt>
      <trkpt lat="37.90900622494518756866455078125" lon="-1.46968399174511432647705078125">
        <ele>476.399993896484375</ele>
        <time>2020-02-22T14:37:19.000Z</time>
      </trkpt>
      <trkpt lat="37.90907688438892364501953125" lon="-1.46958743222057819366455078125">
        <ele>476.20001220703125</ele>
        <time>2020-02-22T14:37:20.000Z</time>
      </trkpt>
      <trkpt lat="37.90913497097790241241455078125" lon="-1.4694735221564769744873046875">
        <ele>476</ele>
        <time>2020-02-22T14:37:21.000Z</time>
      </trkpt>
      <trkpt lat="37.90919213555753231048583984375" lon="-1.46920387633144855499267578125">
        <ele>475.600006103515625</ele>
        <time>2020-02-22T14:37:23.000Z</time>
      </trkpt>
      <trkpt lat="37.90917453356087207794189453125" lon="-1.46889827214181423187255859375">
        <ele>474.600006103515625</ele>
        <time>2020-02-22T14:37:25.000Z</time>
      </trkpt>
      <trkpt lat="37.90915223769843578338623046875" lon="-1.46874035708606243133544921875">
        <ele>474.399993896484375</ele>
        <time>2020-02-22T14:37:26.000Z</time>
      </trkpt>
      <trkpt lat="37.9090975038707256317138671875" lon="-1.46842922084033489227294921875">
        <ele>473.600006103515625</ele>
        <time>2020-02-22T14:37:28.000Z</time>
      </trkpt>
      <trkpt lat="37.90904092602431774139404296875" lon="-1.4681237004697322845458984375">
        <ele>472.20001220703125</ele>
        <time>2020-02-22T14:37:30.000Z</time>
      </trkpt>
      <trkpt lat="37.9090126790106296539306640625" lon="-1.46797140128910541534423828125">
        <ele>470.79998779296875</ele>
        <time>2020-02-22T14:37:31.000Z</time>
      </trkpt>
      <trkpt lat="37.90898091159760951995849609375" lon="-1.4678189344704151153564453125">
        <ele>469.79998779296875</ele>
        <time>2020-02-22T14:37:32.000Z</time>
      </trkpt>
      <trkpt lat="37.9089405946433544158935546875" lon="-1.46766948513686656951904296875">
        <ele>469.20001220703125</ele>
        <time>2020-02-22T14:37:33.000Z</time>
      </trkpt>
      <trkpt lat="37.90889608673751354217529296875" lon="-1.46752112545073032379150390625">
        <ele>468.79998779296875</ele>
        <time>2020-02-22T14:37:34.000Z</time>
      </trkpt>
      <trkpt lat="37.90872543118894100189208984375" lon="-1.46690354682505130767822265625">
        <ele>467.600006103515625</ele>
        <time>2020-02-22T14:37:38.000Z</time>
      </trkpt>
      <trkpt lat="37.9086656682193279266357421875" lon="-1.46658587269484996795654296875">
        <ele>466.399993896484375</ele>
        <time>2020-02-22T14:37:40.000Z</time>
      </trkpt>
      <trkpt lat="37.9086344875395298004150390625" lon="-1.46626316942274570465087890625">
        <ele>465.20001220703125</ele>
        <time>2020-02-22T14:37:42.000Z</time>
      </trkpt>
      <trkpt lat="37.90861613117158412933349609375" lon="-1.46593409590423107147216796875">
        <ele>463.600006103515625</ele>
        <time>2020-02-22T14:37:44.000Z</time>
      </trkpt>
      <trkpt lat="37.90860590524971485137939453125" lon="-1.46577081643044948577880859375">
        <ele>462.600006103515625</ele>
        <time>2020-02-22T14:37:45.000Z</time>
      </trkpt>
      <trkpt lat="37.908595763146877288818359375" lon="-1.46560728549957275390625">
        <ele>461.600006103515625</ele>
        <time>2020-02-22T14:37:46.000Z</time>
      </trkpt>
      <trkpt lat="37.90857531130313873291015625" lon="-1.4652835763990879058837890625">
        <ele>460</ele>
        <time>2020-02-22T14:37:48.000Z</time>
      </trkpt>
      <trkpt lat="37.90856458246707916259765625" lon="-1.4651253260672092437744140625">
        <ele>458.79998779296875</ele>
        <time>2020-02-22T14:37:49.000Z</time>
      </trkpt>
      <trkpt lat="37.90855192579329013824462890625" lon="-1.46496833302080631256103515625">
        <ele>457.20001220703125</ele>
        <time>2020-02-22T14:37:50.000Z</time>
      </trkpt>
      <trkpt lat="37.9085402749478816986083984375" lon="-1.464814357459545135498046875">
        <ele>455.600006103515625</ele>
        <time>2020-02-22T14:37:51.000Z</time>
      </trkpt>
      <trkpt lat="37.90853910148143768310546875" lon="-1.46466155536472797393798828125">
        <ele>454.399993896484375</ele>
        <time>2020-02-22T14:37:52.000Z</time>
      </trkpt>
      <trkpt lat="37.90855360217392444610595703125" lon="-1.4645100943744182586669921875">
        <ele>453.399993896484375</ele>
        <time>2020-02-22T14:37:53.000Z</time>
      </trkpt>
      <trkpt lat="37.90858679451048374176025390625" lon="-1.46435880102217197418212890625">
        <ele>452.600006103515625</ele>
        <time>2020-02-22T14:37:54.000Z</time>
      </trkpt>
      <trkpt lat="37.90869508869946002960205078125" lon="-1.464061997830867767333984375">
        <ele>451.399993896484375</ele>
        <time>2020-02-22T14:37:56.000Z</time>
      </trkpt>
      <trkpt lat="37.90875594131648540496826171875" lon="-1.4639159850776195526123046875">
        <ele>451.20001220703125</ele>
        <time>2020-02-22T14:37:57.000Z</time>
      </trkpt>
      <trkpt lat="37.90892441757023334503173828125" lon="-1.46348909474909305572509765625">
        <ele>450.399993896484375</ele>
        <time>2020-02-22T14:38:00.000Z</time>
      </trkpt>
      <trkpt lat="37.90909037925302982330322265625" lon="-1.4630801416933536529541015625">
        <ele>449</ele>
        <time>2020-02-22T14:38:03.000Z</time>
      </trkpt>
      <trkpt lat="37.90918844752013683319091796875" lon="-1.46282072179019451141357421875">
        <ele>448</ele>
        <time>2020-02-22T14:38:05.000Z</time>
      </trkpt>
      <trkpt lat="37.90923622436821460723876953125" lon="-1.4626925624907016754150390625">
        <ele>447.399993896484375</ele>
        <time>2020-02-22T14:38:06.000Z</time>
      </trkpt>
      <trkpt lat="37.90933429263532161712646484375" lon="-1.46243917755782604217529296875">
        <ele>446.600006103515625</ele>
        <time>2020-02-22T14:38:08.000Z</time>
      </trkpt>
      <trkpt lat="37.9094287566840648651123046875" lon="-1.46219082176685333251953125">
        <ele>446.20001220703125</ele>
        <time>2020-02-22T14:38:10.000Z</time>
      </trkpt>
      <trkpt lat="37.9094763658940792083740234375" lon="-1.46206869743764400482177734375">
        <ele>445.79998779296875</ele>
        <time>2020-02-22T14:38:11.000Z</time>
      </trkpt>
      <trkpt lat="37.9096128232777118682861328125" lon="-1.461710371077060699462890625">
        <ele>445</ele>
        <time>2020-02-22T14:38:14.000Z</time>
      </trkpt>
      <trkpt lat="37.90970443747937679290771484375" lon="-1.46147291176021099090576171875">
        <ele>444.399993896484375</ele>
        <time>2020-02-22T14:38:16.000Z</time>
      </trkpt>
      <trkpt lat="37.9097995720803737640380859375" lon="-1.46123268641531467437744140625">
        <ele>443.79998779296875</ele>
        <time>2020-02-22T14:38:18.000Z</time>
      </trkpt>
      <trkpt lat="37.90989001281559467315673828125" lon="-1.4610007591545581817626953125">
        <ele>443.20001220703125</ele>
        <time>2020-02-22T14:38:20.000Z</time>
      </trkpt>
      <trkpt lat="37.9099752567708492279052734375" lon="-1.46077201701700687408447265625">
        <ele>442.600006103515625</ele>
        <time>2020-02-22T14:38:22.000Z</time>
      </trkpt>
      <trkpt lat="37.91008866392076015472412109375" lon="-1.4604478888213634490966796875">
        <ele>441.600006103515625</ele>
        <time>2020-02-22T14:38:25.000Z</time>
      </trkpt>
      <trkpt lat="37.910156138241291046142578125" lon="-1.46025753580033779144287109375">
        <ele>440.600006103515625</ele>
        <time>2020-02-22T14:38:27.000Z</time>
      </trkpt>
      <trkpt lat="37.91018270887434482574462890625" lon="-1.4601756446063518524169921875">
        <ele>440.20001220703125</ele>
        <time>2020-02-22T14:38:28.000Z</time>
      </trkpt>
      <trkpt lat="37.9102226905524730682373046875" lon="-1.46004731766879558563232421875">
        <ele>439.399993896484375</ele>
        <time>2020-02-22T14:38:30.000Z</time>
      </trkpt>
      <trkpt lat="37.91023559868335723876953125" lon="-1.4600019715726375579833984375">
        <ele>439</ele>
        <time>2020-02-22T14:38:31.000Z</time>
      </trkpt>
      <trkpt lat="37.9102652706205844879150390625" lon="-1.45994220860302448272705078125">
        <ele>437.79998779296875</ele>
        <time>2020-02-22T14:38:33.000Z</time>
      </trkpt>
      <trkpt lat="37.91028245352208614349365234375" lon="-1.45992661826312541961669921875">
        <ele>437.600006103515625</ele>
        <time>2020-02-22T14:38:34.000Z</time>
      </trkpt>
      <trkpt lat="37.91036359034478664398193359375" lon="-1.459922008216381072998046875">
        <ele>437</ele>
        <time>2020-02-22T14:38:37.000Z</time>
      </trkpt>
      <trkpt lat="37.910400889813899993896484375" lon="-1.459936760365962982177734375">
        <ele>437</ele>
        <time>2020-02-22T14:38:38.000Z</time>
      </trkpt>
      <trkpt lat="37.9104422964155673980712890625" lon="-1.4599624089896678924560546875">
        <ele>436.79998779296875</ele>
        <time>2020-02-22T14:38:39.000Z</time>
      </trkpt>
      <trkpt lat="37.91053441353142261505126953125" lon="-1.46001697517931461334228515625">
        <ele>436.79998779296875</ele>
        <time>2020-02-22T14:38:41.000Z</time>
      </trkpt>
      <trkpt lat="37.91063935495913028717041015625" lon="-1.46007455885410308837890625">
        <ele>436.600006103515625</ele>
        <time>2020-02-22T14:38:43.000Z</time>
      </trkpt>
      <trkpt lat="37.9108209908008575439453125" lon="-1.46016801707446575164794921875">
        <ele>436.600006103515625</ele>
        <time>2020-02-22T14:38:46.000Z</time>
      </trkpt>
      <trkpt lat="37.91095602326095104217529296875" lon="-1.4602380059659481048583984375">
        <ele>436.20001220703125</ele>
        <time>2020-02-22T14:38:48.000Z</time>
      </trkpt>
      <trkpt lat="37.911027856171131134033203125" lon="-1.46027497015893459320068359375">
        <ele>436</ele>
        <time>2020-02-22T14:38:49.000Z</time>
      </trkpt>
      <trkpt lat="37.91118166409432888031005859375" lon="-1.46035660989582538604736328125">
        <ele>435.79998779296875</ele>
        <time>2020-02-22T14:38:51.000Z</time>
      </trkpt>
      <trkpt lat="37.911422140896320343017578125" lon="-1.46048493683338165283203125">
        <ele>435.399993896484375</ele>
        <time>2020-02-22T14:38:54.000Z</time>
      </trkpt>
      <trkpt lat="37.91150319389998912811279296875" lon="-1.46052760072052478790283203125">
        <ele>435.399993896484375</ele>
        <time>2020-02-22T14:38:55.000Z</time>
      </trkpt>
      <trkpt lat="37.91174375452101230621337890625" lon="-1.46064964123070240020751953125">
        <ele>435</ele>
        <time>2020-02-22T14:38:58.000Z</time>
      </trkpt>
      <trkpt lat="37.911826483905315399169921875" lon="-1.460689119994640350341796875">
        <ele>434.79998779296875</ele>
        <time>2020-02-22T14:38:59.000Z</time>
      </trkpt>
      <trkpt lat="37.91216972284018993377685546875" lon="-1.46085918880999088287353515625">
        <ele>433.79998779296875</ele>
        <time>2020-02-22T14:39:03.000Z</time>
      </trkpt>
      <trkpt lat="37.9122586548328399658203125" lon="-1.46090629510581493377685546875">
        <ele>433.79998779296875</ele>
        <time>2020-02-22T14:39:04.000Z</time>
      </trkpt>
      <trkpt lat="37.91234876029193401336669921875" lon="-1.4609549939632415771484375">
        <ele>433.79998779296875</ele>
        <time>2020-02-22T14:39:05.000Z</time>
      </trkpt>
      <trkpt lat="37.91277439333498477935791015625" lon="-1.46122732199728488922119140625">
        <ele>433.20001220703125</ele>
        <time>2020-02-22T14:39:10.000Z</time>
      </trkpt>
      <trkpt lat="37.91285351850092411041259765625" lon="-1.46128884516656398773193359375">
        <ele>433.20001220703125</ele>
        <time>2020-02-22T14:39:11.000Z</time>
      </trkpt>
      <trkpt lat="37.9130839370191097259521484375" lon="-1.4614771865308284759521484375">
        <ele>432.600006103515625</ele>
        <time>2020-02-22T14:39:14.000Z</time>
      </trkpt>
      <trkpt lat="37.91337286122143268585205078125" lon="-1.46176896058022975921630859375">
        <ele>431.79998779296875</ele>
        <time>2020-02-22T14:39:18.000Z</time>
      </trkpt>
      <trkpt lat="37.91379195638000965118408203125" lon="-1.4622147940099239349365234375">
        <ele>431.600006103515625</ele>
        <time>2020-02-22T14:39:24.000Z</time>
      </trkpt>
      <trkpt lat="37.91398004628717899322509765625" lon="-1.462422497570514678955078125">
        <ele>431.600006103515625</ele>
        <time>2020-02-22T14:39:27.000Z</time>
      </trkpt>
      <trkpt lat="37.91441523469984531402587890625" lon="-1.462861709296703338623046875">
        <ele>432.399993896484375</ele>
        <time>2020-02-22T14:39:34.000Z</time>
      </trkpt>
      <trkpt lat="37.91447642259299755096435546875" lon="-1.46292717196047306060791015625">
        <ele>432.600006103515625</ele>
        <time>2020-02-22T14:39:35.000Z</time>
      </trkpt>
      <trkpt lat="37.914883531630039215087890625" lon="-1.46339513361454010009765625">
        <ele>433.399993896484375</ele>
        <time>2020-02-22T14:39:42.000Z</time>
      </trkpt>
      <trkpt lat="37.9149953462183475494384765625" lon="-1.46352178417146205902099609375">
        <ele>433.79998779296875</ele>
        <time>2020-02-22T14:39:44.000Z</time>
      </trkpt>
      <trkpt lat="37.91505075059831142425537109375" lon="-1.463585905730724334716796875">
        <ele>434</ele>
        <time>2020-02-22T14:39:45.000Z</time>
      </trkpt>
      <trkpt lat="37.915494404733180999755859375" lon="-1.46406526677310466766357421875">
        <ele>434.79998779296875</ele>
        <time>2020-02-22T14:39:53.000Z</time>
      </trkpt>
      <trkpt lat="37.91554746218025684356689453125" lon="-1.4641238562762737274169921875">
        <ele>434.79998779296875</ele>
        <time>2020-02-22T14:39:54.000Z</time>
      </trkpt>
      <trkpt lat="37.915703952312469482421875" lon="-1.46429903805255889892578125">
        <ele>435</ele>
        <time>2020-02-22T14:39:57.000Z</time>
      </trkpt>
      <trkpt lat="37.91603947989642620086669921875" lon="-1.464638002216815948486328125">
        <ele>435.600006103515625</ele>
        <time>2020-02-22T14:40:03.000Z</time>
      </trkpt>
      <trkpt lat="37.916337288916110992431640625" lon="-1.4649623818695545196533203125">
        <ele>436</ele>
        <time>2020-02-22T14:40:08.000Z</time>
      </trkpt>
      <trkpt lat="37.91639638133347034454345703125" lon="-1.4650264196097850799560546875">
        <ele>436</ele>
        <time>2020-02-22T14:40:09.000Z</time>
      </trkpt>
      <trkpt lat="37.91680089198052883148193359375" lon="-1.4654847420752048492431640625">
        <ele>436.399993896484375</ele>
        <time>2020-02-22T14:40:16.000Z</time>
      </trkpt>
      <trkpt lat="37.9171769879758358001708984375" lon="-1.4658701419830322265625">
        <ele>436.79998779296875</ele>
        <time>2020-02-22T14:40:23.000Z</time>
      </trkpt>
      <trkpt lat="37.9173925705254077911376953125" lon="-1.46611631847918033599853515625">
        <ele>437.20001220703125</ele>
        <time>2020-02-22T14:40:27.000Z</time>
      </trkpt>
      <trkpt lat="37.917720638215541839599609375" lon="-1.46645377390086650848388671875">
        <ele>438.399993896484375</ele>
        <time>2020-02-22T14:40:33.000Z</time>
      </trkpt>
      <trkpt lat="37.9179390706121921539306640625" lon="-1.4666917361319065093994140625">
        <ele>439.79998779296875</ele>
        <time>2020-02-22T14:40:37.000Z</time>
      </trkpt>
      <trkpt lat="37.91819480247795581817626953125" lon="-1.46699759177863597869873046875">
        <ele>440.20001220703125</ele>
        <time>2020-02-22T14:40:42.000Z</time>
      </trkpt>
      <trkpt lat="37.9186347685754299163818359375" lon="-1.46747368387877941131591796875">
        <ele>441</ele>
        <time>2020-02-22T14:40:50.000Z</time>
      </trkpt>
      <trkpt lat="37.918745912611484527587890625" lon="-1.46760444156825542449951171875">
        <ele>441.399993896484375</ele>
        <time>2020-02-22T14:40:52.000Z</time>
      </trkpt>
      <trkpt lat="37.9189110361039638519287109375" lon="-1.4677911065518856048583984375">
        <ele>442</ele>
        <time>2020-02-22T14:40:55.000Z</time>
      </trkpt>
      <trkpt lat="37.919288389384746551513671875" lon="-1.468210704624652862548828125">
        <ele>442.399993896484375</ele>
        <time>2020-02-22T14:41:02.000Z</time>
      </trkpt>
      <trkpt lat="37.91956029832363128662109375" lon="-1.46851605735719203948974609375">
        <ele>443.20001220703125</ele>
        <time>2020-02-22T14:41:07.000Z</time>
      </trkpt>
      <trkpt lat="37.9199017770588397979736328125" lon="-1.46888687275350093841552734375">
        <ele>443.79998779296875</ele>
        <time>2020-02-22T14:41:13.000Z</time>
      </trkpt>
      <trkpt lat="37.92037024162709712982177734375" lon="-1.46937721408903598785400390625">
        <ele>444</ele>
        <time>2020-02-22T14:41:21.000Z</time>
      </trkpt>
      <trkpt lat="37.92048457078635692596435546875" lon="-1.46950596012175083160400390625">
        <ele>444</ele>
        <time>2020-02-22T14:41:23.000Z</time>
      </trkpt>
      <trkpt lat="37.9206595011055469512939453125" lon="-1.46969153545796871185302734375">
        <ele>444.399993896484375</ele>
        <time>2020-02-22T14:41:26.000Z</time>
      </trkpt>
      <trkpt lat="37.92092478834092617034912109375" lon="-1.46991734392940998077392578125">
        <ele>444.600006103515625</ele>
        <time>2020-02-22T14:41:30.000Z</time>
      </trkpt>
      <trkpt lat="37.92133080773055553436279296875" lon="-1.470169387757778167724609375">
        <ele>445.20001220703125</ele>
        <time>2020-02-22T14:41:36.000Z</time>
      </trkpt>
      <trkpt lat="37.921739257872104644775390625" lon="-1.47039460949599742889404296875">
        <ele>445.600006103515625</ele>
        <time>2020-02-22T14:41:42.000Z</time>
      </trkpt>
      <trkpt lat="37.92208962142467498779296875" lon="-1.47058747708797454833984375">
        <ele>446.399993896484375</ele>
        <time>2020-02-22T14:41:47.000Z</time>
      </trkpt>
      <trkpt lat="37.92222130112349987030029296875" lon="-1.47066316567361354827880859375">
        <ele>446.79998779296875</ele>
        <time>2020-02-22T14:41:49.000Z</time>
      </trkpt>
      <trkpt lat="37.92253830470144748687744140625" lon="-1.4708401076495647430419921875">
        <ele>447.79998779296875</ele>
        <time>2020-02-22T14:41:54.000Z</time>
      </trkpt>
      <trkpt lat="37.922597229480743408203125" lon="-1.47087371908128261566162109375">
        <ele>448</ele>
        <time>2020-02-22T14:41:55.000Z</time>
      </trkpt>
      <trkpt lat="37.92285178788006305694580078125" lon="-1.4710167981684207916259765625">
        <ele>449</ele>
        <time>2020-02-22T14:41:59.000Z</time>
      </trkpt>
      <trkpt lat="37.92310173623263835906982421875" lon="-1.4711589552462100982666015625">
        <ele>449.399993896484375</ele>
        <time>2020-02-22T14:42:03.000Z</time>
      </trkpt>
      <trkpt lat="37.92333944700658321380615234375" lon="-1.47129750810563564300537109375">
        <ele>450.20001220703125</ele>
        <time>2020-02-22T14:42:07.000Z</time>
      </trkpt>
      <trkpt lat="37.92363189160823822021484375" lon="-1.47145223803818225860595703125">
        <ele>451</ele>
        <time>2020-02-22T14:42:12.000Z</time>
      </trkpt>
      <trkpt lat="37.9236907325685024261474609375" lon="-1.4714794792234897613525390625">
        <ele>451.20001220703125</ele>
        <time>2020-02-22T14:42:13.000Z</time>
      </trkpt>
      <trkpt lat="37.923947386443614959716796875" lon="-1.47153563797473907470703125">
        <ele>451.600006103515625</ele>
        <time>2020-02-22T14:42:17.000Z</time>
      </trkpt>
      <trkpt lat="37.92413639836013317108154296875" lon="-1.471536643803119659423828125">
        <ele>452.399993896484375</ele>
        <time>2020-02-22T14:42:20.000Z</time>
      </trkpt>
      <trkpt lat="37.92433806695044040679931640625" lon="-1.4715175330638885498046875">
        <ele>453</ele>
        <time>2020-02-22T14:42:23.000Z</time>
      </trkpt>
      <trkpt lat="37.924909628927707672119140625" lon="-1.471495069563388824462890625">
        <ele>453.20001220703125</ele>
        <time>2020-02-22T14:42:31.000Z</time>
      </trkpt>
      <trkpt lat="37.92498397640883922576904296875" lon="-1.47149163298308849334716796875">
        <ele>453.399993896484375</ele>
        <time>2020-02-22T14:42:32.000Z</time>
      </trkpt>
      <trkpt lat="37.92505907826125621795654296875" lon="-1.47148911841213703155517578125">
        <ele>453.399993896484375</ele>
        <time>2020-02-22T14:42:33.000Z</time>
      </trkpt>
      <trkpt lat="37.9256014712154865264892578125" lon="-1.47147662937641143798828125">
        <ele>453.20001220703125</ele>
        <time>2020-02-22T14:42:40.000Z</time>
      </trkpt>
      <trkpt lat="37.9256816022098064422607421875" lon="-1.4714751206338405609130859375">
        <ele>453.600006103515625</ele>
        <time>2020-02-22T14:42:41.000Z</time>
      </trkpt>
      <trkpt lat="37.92622064240276813507080078125" lon="-1.47145441733300685882568359375">
        <ele>453.20001220703125</ele>
        <time>2020-02-22T14:42:47.000Z</time>
      </trkpt>
      <trkpt lat="37.92676546610891819000244140625" lon="-1.47143715061247348785400390625">
        <ele>452.399993896484375</ele>
        <time>2020-02-22T14:42:53.000Z</time>
      </trkpt>
      <trkpt lat="37.92718724347651004791259765625" lon="-1.4714182913303375244140625">
        <ele>451.79998779296875</ele>
        <time>2020-02-22T14:42:59.000Z</time>
      </trkpt>
      <trkpt lat="37.92749083600938320159912109375" lon="-1.471416950225830078125">
        <ele>453</ele>
        <time>2020-02-22T14:43:05.000Z</time>
      </trkpt>
      <trkpt lat="37.92761203832924365997314453125" lon="-1.47140999324619770050048828125">
        <ele>454</ele>
        <time>2020-02-22T14:43:08.000Z</time>
      </trkpt>
      <trkpt lat="37.92771128006279468536376953125" lon="-1.471405215561389923095703125">
        <ele>455</ele>
        <time>2020-02-22T14:43:11.000Z</time>
      </trkpt>
      <trkpt lat="37.92774950154125690460205078125" lon="-1.47140110842883586883544921875">
        <ele>455.399993896484375</ele>
        <time>2020-02-22T14:43:12.000Z</time>
      </trkpt>
      <trkpt lat="37.927894257009029388427734375" lon="-1.47138677537441253662109375">
        <ele>456.79998779296875</ele>
        <time>2020-02-22T14:43:15.000Z</time>
      </trkpt>
      <trkpt lat="37.92794832028448581695556640625" lon="-1.47138065658509731292724609375">
        <ele>457.399993896484375</ele>
        <time>2020-02-22T14:43:16.000Z</time>
      </trkpt>
      <trkpt lat="37.92804068885743618011474609375" lon="-1.47137470543384552001953125">
        <ele>458</ele>
        <time>2020-02-22T14:43:18.000Z</time>
      </trkpt>
      <trkpt lat="37.92823498137295246124267578125" lon="-1.47137277759611606597900390625">
        <ele>458.79998779296875</ele>
        <time>2020-02-22T14:43:21.000Z</time>
      </trkpt>
      <trkpt lat="37.928377054631710052490234375" lon="-1.47137244231998920440673828125">
        <ele>459.20001220703125</ele>
        <time>2020-02-22T14:43:23.000Z</time>
      </trkpt>
      <trkpt lat="37.9286880232393741607666015625" lon="-1.47136037237942218780517578125">
        <ele>459.600006103515625</ele>
        <time>2020-02-22T14:43:27.000Z</time>
      </trkpt>
      <trkpt lat="37.928915508091449737548828125" lon="-1.47135601378977298736572265625">
        <ele>460.20001220703125</ele>
        <time>2020-02-22T14:43:30.000Z</time>
      </trkpt>
      <trkpt lat="37.92936117388308048248291015625" lon="-1.4713646471500396728515625">
        <ele>460.600006103515625</ele>
        <time>2020-02-22T14:43:36.000Z</time>
      </trkpt>
      <trkpt lat="37.929707430303096771240234375" lon="-1.47147185169160366058349609375">
        <ele>460.79998779296875</ele>
        <time>2020-02-22T14:43:41.000Z</time>
      </trkpt>
      <trkpt lat="37.92983558960258960723876953125" lon="-1.47154376842081546783447265625">
        <ele>461.399993896484375</ele>
        <time>2020-02-22T14:43:43.000Z</time>
      </trkpt>
      <trkpt lat="37.930157370865345001220703125" lon="-1.47173403762280941009521484375">
        <ele>462.20001220703125</ele>
        <time>2020-02-22T14:43:48.000Z</time>
      </trkpt>
      <trkpt lat="37.9302772320806980133056640625" lon="-1.4718077145516872406005859375">
        <ele>462.399993896484375</ele>
        <time>2020-02-22T14:43:50.000Z</time>
      </trkpt>
      <trkpt lat="37.9305833391845226287841796875" lon="-1.47198759019374847412109375">
        <ele>463</ele>
        <time>2020-02-22T14:43:55.000Z</time>
      </trkpt>
      <trkpt lat="37.93088684789836406707763671875" lon="-1.4721621014177799224853515625">
        <ele>463.20001220703125</ele>
        <time>2020-02-22T14:43:59.000Z</time>
      </trkpt>
      <trkpt lat="37.9312200285494327545166015625" lon="-1.4723833836615085601806640625">
        <ele>463.20001220703125</ele>
        <time>2020-02-22T14:44:04.000Z</time>
      </trkpt>
      <trkpt lat="37.93172822333872318267822265625" lon="-1.4726878143846988677978515625">
        <ele>463.399993896484375</ele>
        <time>2020-02-22T14:44:11.000Z</time>
      </trkpt>
      <trkpt lat="37.93187323026359081268310546875" lon="-1.4727753214538097381591796875">
        <ele>463.79998779296875</ele>
        <time>2020-02-22T14:44:13.000Z</time>
      </trkpt>
      <trkpt lat="37.93231663294136524200439453125" lon="-1.473048739135265350341796875">
        <ele>464.399993896484375</ele>
        <time>2020-02-22T14:44:19.000Z</time>
      </trkpt>
      <trkpt lat="37.93257647193968296051025390625" lon="-1.4732540957629680633544921875">
        <ele>464.399993896484375</ele>
        <time>2020-02-22T14:44:23.000Z</time>
      </trkpt>
      <trkpt lat="37.93262257240712642669677734375" lon="-1.4733199775218963623046875">
        <ele>464.399993896484375</ele>
        <time>2020-02-22T14:44:24.000Z</time>
      </trkpt>
      <trkpt lat="37.93279255740344524383544921875" lon="-1.4736356399953365325927734375">
        <ele>464.399993896484375</ele>
        <time>2020-02-22T14:44:28.000Z</time>
      </trkpt>
      <trkpt lat="37.93306111358106136322021484375" lon="-1.4741434156894683837890625">
        <ele>464.399993896484375</ele>
        <time>2020-02-22T14:44:33.000Z</time>
      </trkpt>
      <trkpt lat="37.93311174027621746063232421875" lon="-1.4742347784340381622314453125">
        <ele>464.399993896484375</ele>
        <time>2020-02-22T14:44:34.000Z</time>
      </trkpt>
      <trkpt lat="37.9332531429827213287353515625" lon="-1.47449872456490993499755859375">
        <ele>464.399993896484375</ele>
        <time>2020-02-22T14:44:37.000Z</time>
      </trkpt>
      <trkpt lat="37.933469898998737335205078125" lon="-1.474849842488765716552734375">
        <ele>464.600006103515625</ele>
        <time>2020-02-22T14:44:42.000Z</time>
      </trkpt>
      <trkpt lat="37.93367399834096431732177734375" lon="-1.47512904368340969085693359375">
        <ele>465.399993896484375</ele>
        <time>2020-02-22T14:44:47.000Z</time>
      </trkpt>
      <trkpt lat="37.93376150541007518768310546875" lon="-1.47522040642797946929931640625">
        <ele>466</ele>
        <time>2020-02-22T14:44:49.000Z</time>
      </trkpt>
      <trkpt lat="37.9338526166975498199462890625" lon="-1.47530539892613887786865234375">
        <ele>466.600006103515625</ele>
        <time>2020-02-22T14:44:51.000Z</time>
      </trkpt>
      <trkpt lat="37.93405939824879169464111328125" lon="-1.4754541777074337005615234375">
        <ele>467.79998779296875</ele>
        <time>2020-02-22T14:44:55.000Z</time>
      </trkpt>
      <trkpt lat="37.93410952202975749969482421875" lon="-1.4754913933575153350830078125">
        <ele>468</ele>
        <time>2020-02-22T14:44:56.000Z</time>
      </trkpt>
      <trkpt lat="37.9343146272003650665283203125" lon="-1.475606895983219146728515625">
        <ele>469</ele>
        <time>2020-02-22T14:45:00.000Z</time>
      </trkpt>
      <trkpt lat="37.93451420031487941741943359375" lon="-1.4757653139531612396240234375">
        <ele>470.20001220703125</ele>
        <time>2020-02-22T14:45:04.000Z</time>
      </trkpt>
      <trkpt lat="37.9347575269639492034912109375" lon="-1.47595365531742572784423828125">
        <ele>471.399993896484375</ele>
        <time>2020-02-22T14:45:09.000Z</time>
      </trkpt>
      <trkpt lat="37.9349620454013347625732421875" lon="-1.47611039690673351287841796875">
        <ele>471.79998779296875</ele>
        <time>2020-02-22T14:45:13.000Z</time>
      </trkpt>
      <trkpt lat="37.93527544476091861724853515625" lon="-1.4763356186449527740478515625">
        <ele>472.399993896484375</ele>
        <time>2020-02-22T14:45:19.000Z</time>
      </trkpt>
      <trkpt lat="37.9354867525398731231689453125" lon="-1.47648305632174015045166015625">
        <ele>473</ele>
        <time>2020-02-22T14:45:23.000Z</time>
      </trkpt>
      <trkpt lat="37.93564609251916408538818359375" lon="-1.47660023532807826995849609375">
        <ele>473.600006103515625</ele>
        <time>2020-02-22T14:45:26.000Z</time>
      </trkpt>
      <trkpt lat="37.936027385294437408447265625" lon="-1.47685621865093708038330078125">
        <ele>474.399993896484375</ele>
        <time>2020-02-22T14:45:33.000Z</time>
      </trkpt>
      <trkpt lat="37.93614297173917293548583984375" lon="-1.47693098522722721099853515625">
        <ele>474.600006103515625</ele>
        <time>2020-02-22T14:45:35.000Z</time>
      </trkpt>
      <trkpt lat="37.9365475662052631378173828125" lon="-1.4771875552833080291748046875">
        <ele>475.79998779296875</ele>
        <time>2020-02-22T14:45:42.000Z</time>
      </trkpt>
      <trkpt lat="37.936608083546161651611328125" lon="-1.47721965797245502471923828125">
        <ele>475.79998779296875</ele>
        <time>2020-02-22T14:45:43.000Z</time>
      </trkpt>
      <trkpt lat="37.937096916139125823974609375" lon="-1.4774219132959842681884765625">
        <ele>476.600006103515625</ele>
        <time>2020-02-22T14:45:51.000Z</time>
      </trkpt>
      <trkpt lat="37.93749623000621795654296875" lon="-1.47756792604923248291015625">
        <ele>476.79998779296875</ele>
        <time>2020-02-22T14:45:56.000Z</time>
      </trkpt>
      <trkpt lat="37.93799486942589282989501953125" lon="-1.47774361073970794677734375">
        <ele>476.600006103515625</ele>
        <time>2020-02-22T14:46:01.000Z</time>
      </trkpt>
      <trkpt lat="37.93852619826793670654296875" lon="-1.47794611752033233642578125">
        <ele>475</ele>
        <time>2020-02-22T14:46:06.000Z</time>
      </trkpt>
      <trkpt lat="37.938631810247898101806640625" lon="-1.47798593156039714813232421875">
        <ele>474.399993896484375</ele>
        <time>2020-02-22T14:46:07.000Z</time>
      </trkpt>
      <trkpt lat="37.9388301260769367218017578125" lon="-1.47806539200246334075927734375">
        <ele>473</ele>
        <time>2020-02-22T14:46:09.000Z</time>
      </trkpt>
      <trkpt lat="37.93893230147659778594970703125" lon="-1.4781082235276699066162109375">
        <ele>472.399993896484375</ele>
        <time>2020-02-22T14:46:10.000Z</time>
      </trkpt>
      <trkpt lat="37.9391451179981231689453125" lon="-1.47819195874035358428955078125">
        <ele>471.79998779296875</ele>
        <time>2020-02-22T14:46:12.000Z</time>
      </trkpt>
      <trkpt lat="37.939581982791423797607421875" lon="-1.47835792042315006256103515625">
        <ele>470.600006103515625</ele>
        <time>2020-02-22T14:46:16.000Z</time>
      </trkpt>
      <trkpt lat="37.9398966394364833831787109375" lon="-1.47847526706755161285400390625">
        <ele>469.399993896484375</ele>
        <time>2020-02-22T14:46:19.000Z</time>
      </trkpt>
      <trkpt lat="37.9402922652661800384521484375" lon="-1.47862781770527362823486328125">
        <ele>468.79998779296875</ele>
        <time>2020-02-22T14:46:23.000Z</time>
      </trkpt>
      <trkpt lat="37.940853349864482879638671875" lon="-1.47883987985551357269287109375">
        <ele>468.600006103515625</ele>
        <time>2020-02-22T14:46:29.000Z</time>
      </trkpt>
      <trkpt lat="37.9411326348781585693359375" lon="-1.47894532419741153717041015625">
        <ele>468.600006103515625</ele>
        <time>2020-02-22T14:46:32.000Z</time>
      </trkpt>
      <trkpt lat="37.941696234047412872314453125" lon="-1.47915001027286052703857421875">
        <ele>468.79998779296875</ele>
        <time>2020-02-22T14:46:38.000Z</time>
      </trkpt>
      <trkpt lat="37.94208574108779430389404296875" lon="-1.47929082624614238739013671875">
        <ele>469</ele>
        <time>2020-02-22T14:46:42.000Z</time>
      </trkpt>
      <trkpt lat="37.9426589794456958770751953125" lon="-1.47950707934796810150146484375">
        <ele>469</ele>
        <time>2020-02-22T14:46:48.000Z</time>
      </trkpt>
      <trkpt lat="37.943029962480068206787109375" lon="-1.47964504547417163848876953125">
        <ele>468.79998779296875</ele>
        <time>2020-02-22T14:46:52.000Z</time>
      </trkpt>
      <trkpt lat="37.9436296038329601287841796875" lon="-1.47987437434494495391845703125">
        <ele>468.79998779296875</ele>
        <time>2020-02-22T14:46:58.000Z</time>
      </trkpt>
      <trkpt lat="37.94373714365065097808837890625" lon="-1.47991460748016834259033203125">
        <ele>468.600006103515625</ele>
        <time>2020-02-22T14:46:59.000Z</time>
      </trkpt>
      <trkpt lat="37.94394954107701778411865234375" lon="-1.4799941517412662506103515625">
        <ele>468.399993896484375</ele>
        <time>2020-02-22T14:47:01.000Z</time>
      </trkpt>
      <trkpt lat="37.94449268840253353118896484375" lon="-1.480195485055446624755859375">
        <ele>466.600006103515625</ele>
        <time>2020-02-22T14:47:06.000Z</time>
      </trkpt>
      <trkpt lat="37.94472335837781429290771484375" lon="-1.480277292430400848388671875">
        <ele>466.20001220703125</ele>
        <time>2020-02-22T14:47:08.000Z</time>
      </trkpt>
      <trkpt lat="37.94484145939350128173828125" lon="-1.4803190343081951141357421875">
        <ele>465.600006103515625</ele>
        <time>2020-02-22T14:47:09.000Z</time>
      </trkpt>
      <trkpt lat="37.9451896436512470245361328125" lon="-1.48045641370117664337158203125">
        <ele>464.399993896484375</ele>
        <time>2020-02-22T14:47:12.000Z</time>
      </trkpt>
      <trkpt lat="37.94577880762517452239990234375" lon="-1.4806975610554218292236328125">
        <ele>463</ele>
        <time>2020-02-22T14:47:17.000Z</time>
      </trkpt>
      <trkpt lat="37.946141324937343597412109375" lon="-1.48083619773387908935546875">
        <ele>461.79998779296875</ele>
        <time>2020-02-22T14:47:20.000Z</time>
      </trkpt>
      <trkpt lat="37.9462618567049503326416015625" lon="-1.4808784425258636474609375">
        <ele>460.600006103515625</ele>
        <time>2020-02-22T14:47:21.000Z</time>
      </trkpt>
      <trkpt lat="37.9464874975383281707763671875" lon="-1.48096083663403987884521484375">
        <ele>459.600006103515625</ele>
        <time>2020-02-22T14:47:23.000Z</time>
      </trkpt>
      <trkpt lat="37.94680215418338775634765625" lon="-1.4810824580490589141845703125">
        <ele>458.600006103515625</ele>
        <time>2020-02-22T14:47:26.000Z</time>
      </trkpt>
      <trkpt lat="37.94708923436701297760009765625" lon="-1.48119066841900348663330078125">
        <ele>458.399993896484375</ele>
        <time>2020-02-22T14:47:29.000Z</time>
      </trkpt>
      <trkpt lat="37.947622574865818023681640625" lon="-1.4813826978206634521484375">
        <ele>458.399993896484375</ele>
        <time>2020-02-22T14:47:35.000Z</time>
      </trkpt>
      <trkpt lat="37.9477136023342609405517578125" lon="-1.4814150519669055938720703125">
        <ele>458.600006103515625</ele>
        <time>2020-02-22T14:47:36.000Z</time>
      </trkpt>
      <trkpt lat="37.94798274524509906768798828125" lon="-1.4815168082714080810546875">
        <ele>459.79998779296875</ele>
        <time>2020-02-22T14:47:39.000Z</time>
      </trkpt>
      <trkpt lat="37.94850057922303676605224609375" lon="-1.48171151988208293914794921875">
        <ele>460.399993896484375</ele>
        <time>2020-02-22T14:47:45.000Z</time>
      </trkpt>
      <trkpt lat="37.94910055585205554962158203125" lon="-1.4819424413144588470458984375">
        <ele>460.79998779296875</ele>
        <time>2020-02-22T14:47:52.000Z</time>
      </trkpt>
      <trkpt lat="37.94926702044904232025146484375" lon="-1.48200773634016513824462890625">
        <ele>460.79998779296875</ele>
        <time>2020-02-22T14:47:54.000Z</time>
      </trkpt>
      <trkpt lat="37.9497926495969295501708984375" lon="-1.48221426643431186676025390625">
        <ele>461</ele>
        <time>2020-02-22T14:48:00.000Z</time>
      </trkpt>
      <trkpt lat="37.94988359324634075164794921875" lon="-1.48224963806569576263427734375">
        <ele>461</ele>
        <time>2020-02-22T14:48:01.000Z</time>
      </trkpt>
      <trkpt lat="37.95036974363029003143310546875" lon="-1.48242138326168060302734375">
        <ele>459.20001220703125</ele>
        <time>2020-02-22T14:48:06.000Z</time>
      </trkpt>
      <trkpt lat="37.95075799338519573211669921875" lon="-1.48256882093846797943115234375">
        <ele>458.399993896484375</ele>
        <time>2020-02-22T14:48:10.000Z</time>
      </trkpt>
      <trkpt lat="37.95085002668201923370361328125" lon="-1.48260670714080333709716796875">
        <ele>458.20001220703125</ele>
        <time>2020-02-22T14:48:11.000Z</time>
      </trkpt>
      <trkpt lat="37.95142066664993762969970703125" lon="-1.4828208647668361663818359375">
        <ele>457.399993896484375</ele>
        <time>2020-02-22T14:48:17.000Z</time>
      </trkpt>
      <trkpt lat="37.95189558528363704681396484375" lon="-1.48300099186599254608154296875">
        <ele>457.399993896484375</ele>
        <time>2020-02-22T14:48:22.000Z</time>
      </trkpt>
      <trkpt lat="37.95247896574437618255615234375" lon="-1.48321799933910369873046875">
        <ele>457.20001220703125</ele>
        <time>2020-02-22T14:48:28.000Z</time>
      </trkpt>
      <trkpt lat="37.9527761042118072509765625" lon="-1.48332268930971622467041015625">
        <ele>457.20001220703125</ele>
        <time>2020-02-22T14:48:31.000Z</time>
      </trkpt>
      <trkpt lat="37.95337566174566745758056640625" lon="-1.4835231006145477294921875">
        <ele>457</ele>
        <time>2020-02-22T14:48:37.000Z</time>
      </trkpt>
      <trkpt lat="37.9537723772227764129638671875" lon="-1.48367640562355518341064453125">
        <ele>456.20001220703125</ele>
        <time>2020-02-22T14:48:41.000Z</time>
      </trkpt>
      <trkpt lat="37.95407705940306186676025390625" lon="-1.483798362314701080322265625">
        <ele>455.79998779296875</ele>
        <time>2020-02-22T14:48:44.000Z</time>
      </trkpt>
      <trkpt lat="37.95437981374561786651611328125" lon="-1.48391931317746639251708984375">
        <ele>455.20001220703125</ele>
        <time>2020-02-22T14:48:47.000Z</time>
      </trkpt>
      <trkpt lat="37.95448039658367633819580078125" lon="-1.4839604683220386505126953125">
        <ele>455.20001220703125</ele>
        <time>2020-02-22T14:48:48.000Z</time>
      </trkpt>
      <trkpt lat="37.9545800574123859405517578125" lon="-1.4840013720095157623291015625">
        <ele>454.600006103515625</ele>
        <time>2020-02-22T14:48:49.000Z</time>
      </trkpt>
      <trkpt lat="37.9547761939465999603271484375" lon="-1.48408477194607257843017578125">
        <ele>454.20001220703125</ele>
        <time>2020-02-22T14:48:51.000Z</time>
      </trkpt>
      <trkpt lat="37.9550732485949993133544921875" lon="-1.48419323377311229705810546875">
        <ele>453.79998779296875</ele>
        <time>2020-02-22T14:48:54.000Z</time>
      </trkpt>
      <trkpt lat="37.95526988804340362548828125" lon="-1.4842598699033260345458984375">
        <ele>453.600006103515625</ele>
        <time>2020-02-22T14:48:56.000Z</time>
      </trkpt>
      <trkpt lat="37.95547415502369403839111328125" lon="-1.484338827431201934814453125">
        <ele>453.399993896484375</ele>
        <time>2020-02-22T14:48:58.000Z</time>
      </trkpt>
      <trkpt lat="37.95557524077594280242919921875" lon="-1.48437981493771076202392578125">
        <ele>453</ele>
        <time>2020-02-22T14:48:59.000Z</time>
      </trkpt>
      <trkpt lat="37.95587849803268909454345703125" lon="-1.484501771628856658935546875">
        <ele>452.399993896484375</ele>
        <time>2020-02-22T14:49:02.000Z</time>
      </trkpt>
      <trkpt lat="37.95608033426105976104736328125" lon="-1.484586261212825775146484375">
        <ele>452</ele>
        <time>2020-02-22T14:49:04.000Z</time>
      </trkpt>
      <trkpt lat="37.95637604780495166778564453125" lon="-1.4847037754952907562255859375">
        <ele>451.20001220703125</ele>
        <time>2020-02-22T14:49:07.000Z</time>
      </trkpt>
      <trkpt lat="37.95657050795853137969970703125" lon="-1.4847735129296779632568359375">
        <ele>451</ele>
        <time>2020-02-22T14:49:09.000Z</time>
      </trkpt>
      <trkpt lat="37.95706587843596935272216796875" lon="-1.48496839217841625213623046875">
        <ele>450.20001220703125</ele>
        <time>2020-02-22T14:49:14.000Z</time>
      </trkpt>
      <trkpt lat="37.95735974796116352081298828125" lon="-1.48508624173700809478759765625">
        <ele>450</ele>
        <time>2020-02-22T14:49:17.000Z</time>
      </trkpt>
      <trkpt lat="37.9579485766589641571044921875" lon="-1.48532914929091930389404296875">
        <ele>449.399993896484375</ele>
        <time>2020-02-22T14:49:23.000Z</time>
      </trkpt>
      <trkpt lat="37.95803834684193134307861328125" lon="-1.48539268411695957183837890625">
        <ele>449.20001220703125</ele>
        <time>2020-02-22T14:49:24.000Z</time>
      </trkpt>
      <trkpt lat="37.95820581726729869842529296875" lon="-1.4855835400521755218505859375">
        <ele>449</ele>
        <time>2020-02-22T14:49:26.000Z</time>
      </trkpt>
      <trkpt lat="37.95828293077647686004638671875" lon="-1.485703401267528533935546875">
        <ele>448.399993896484375</ele>
        <time>2020-02-22T14:49:27.000Z</time>
      </trkpt>
      <trkpt lat="37.95835979282855987548828125" lon="-1.4858309738337993621826171875">
        <ele>447.600006103515625</ele>
        <time>2020-02-22T14:49:28.000Z</time>
      </trkpt>
      <trkpt lat="37.95851108618080615997314453125" lon="-1.486064828932285308837890625">
        <ele>446.20001220703125</ele>
        <time>2020-02-22T14:49:30.000Z</time>
      </trkpt>
      <trkpt lat="37.9585956595838069915771484375" lon="-1.486139930784702301025390625">
        <ele>445.600006103515625</ele>
        <time>2020-02-22T14:49:31.000Z</time>
      </trkpt>
      <trkpt lat="37.95868744142353534698486328125" lon="-1.48618477396667003631591796875">
        <ele>444.600006103515625</ele>
        <time>2020-02-22T14:49:32.000Z</time>
      </trkpt>
      <trkpt lat="37.95877260155975818634033203125" lon="-1.48619399406015872955322265625">
        <ele>444</ele>
        <time>2020-02-22T14:49:33.000Z</time>
      </trkpt>
      <trkpt lat="37.9588541574776172637939453125" lon="-1.486166082322597503662109375">
        <ele>443.20001220703125</ele>
        <time>2020-02-22T14:49:34.000Z</time>
      </trkpt>
      <trkpt lat="37.9589396528899669647216796875" lon="-1.48610950447618961334228515625">
        <ele>442.79998779296875</ele>
        <time>2020-02-22T14:49:35.000Z</time>
      </trkpt>
      <trkpt lat="37.95901550911366939544677734375" lon="-1.4860354922711849212646484375">
        <ele>442.20001220703125</ele>
        <time>2020-02-22T14:49:36.000Z</time>
      </trkpt>
      <trkpt lat="37.9590908624231815338134765625" lon="-1.48596198298037052154541015625">
        <ele>442</ele>
        <time>2020-02-22T14:49:37.000Z</time>
      </trkpt>
      <trkpt lat="37.95934760011732578277587890625" lon="-1.48579417727887630462646484375">
        <ele>442</ele>
        <time>2020-02-22T14:49:40.000Z</time>
      </trkpt>
      <trkpt lat="37.959608025848865509033203125" lon="-1.4857184886932373046875">
        <ele>442</ele>
        <time>2020-02-22T14:49:43.000Z</time>
      </trkpt>
      <trkpt lat="37.95968757010996341705322265625" lon="-1.485701389610767364501953125">
        <ele>442</ele>
        <time>2020-02-22T14:49:44.000Z</time>
      </trkpt>
      <trkpt lat="37.96006391756236553192138671875" lon="-1.48560826666653156280517578125">
        <ele>443</ele>
        <time>2020-02-22T14:49:49.000Z</time>
      </trkpt>
      <trkpt lat="37.96013348735868930816650390625" lon="-1.48559032939374446868896484375">
        <ele>443.600006103515625</ele>
        <time>2020-02-22T14:49:50.000Z</time>
      </trkpt>
      <trkpt lat="37.9602012969553470611572265625" lon="-1.4855728112161159515380859375">
        <ele>444.399993896484375</ele>
        <time>2020-02-22T14:49:51.000Z</time>
      </trkpt>
      <trkpt lat="37.96026675961911678314208984375" lon="-1.48555378429591655731201171875">
        <ele>444.79998779296875</ele>
        <time>2020-02-22T14:49:52.000Z</time>
      </trkpt>
      <trkpt lat="37.9605303704738616943359375" lon="-1.485478766262531280517578125">
        <ele>446.20001220703125</ele>
        <time>2020-02-22T14:49:56.000Z</time>
      </trkpt>
      <trkpt lat="37.9606529138982295989990234375" lon="-1.4854524470865726470947265625">
        <ele>446.79998779296875</ele>
        <time>2020-02-22T14:49:58.000Z</time>
      </trkpt>
      <trkpt lat="37.9608872719109058380126953125" lon="-1.4854148961603641510009765625">
        <ele>447.399993896484375</ele>
        <time>2020-02-22T14:50:02.000Z</time>
      </trkpt>
      <trkpt lat="37.96105298213660717010498046875" lon="-1.48539335466921329498291015625">
        <ele>448.600006103515625</ele>
        <time>2020-02-22T14:50:05.000Z</time>
      </trkpt>
      <trkpt lat="37.961164377629756927490234375" lon="-1.48538648150861263275146484375">
        <ele>450</ele>
        <time>2020-02-22T14:50:07.000Z</time>
      </trkpt>
      <trkpt lat="37.9613466002047061920166015625" lon="-1.485376171767711639404296875">
        <ele>451</ele>
        <time>2020-02-22T14:50:10.000Z</time>
      </trkpt>
      <trkpt lat="37.9616138152778148651123046875" lon="-1.48536368273198604583740234375">
        <ele>452.20001220703125</ele>
        <time>2020-02-22T14:50:14.000Z</time>
      </trkpt>
      <trkpt lat="37.96212770976126194000244140625" lon="-1.48532294668257236480712890625">
        <ele>453.399993896484375</ele>
        <time>2020-02-22T14:50:22.000Z</time>
      </trkpt>
      <trkpt lat="37.96225980855524539947509765625" lon="-1.4853146485984325408935546875">
        <ele>453.600006103515625</ele>
        <time>2020-02-22T14:50:24.000Z</time>
      </trkpt>
      <trkpt lat="37.9628114216029644012451171875" lon="-1.48527634330093860626220703125">
        <ele>454</ele>
        <time>2020-02-22T14:50:32.000Z</time>
      </trkpt>
      <trkpt lat="37.962882332503795623779296875" lon="-1.48528723977506160736083984375">
        <ele>454</ele>
        <time>2020-02-22T14:50:33.000Z</time>
      </trkpt>
      <trkpt lat="37.963082157075405120849609375" lon="-1.4853575639426708221435546875">
        <ele>454.399993896484375</ele>
        <time>2020-02-22T14:50:36.000Z</time>
      </trkpt>
      <trkpt lat="37.96314443461596965789794921875" lon="-1.48539134301245212554931640625">
        <ele>454.399993896484375</ele>
        <time>2020-02-22T14:50:37.000Z</time>
      </trkpt>
      <trkpt lat="37.9632030241191387176513671875" lon="-1.4854350127279758453369140625">
        <ele>454.600006103515625</ele>
        <time>2020-02-22T14:50:38.000Z</time>
      </trkpt>
      <trkpt lat="37.9634574986994266510009765625" lon="-1.48571555502712726593017578125">
        <ele>455.399993896484375</ele>
        <time>2020-02-22T14:50:43.000Z</time>
      </trkpt>
      <trkpt lat="37.9636417329311370849609375" lon="-1.48609626106917858123779296875">
        <ele>456.20001220703125</ele>
        <time>2020-02-22T14:50:48.000Z</time>
      </trkpt>
      <trkpt lat="37.963715158402919769287109375" lon="-1.48626423440873622894287109375">
        <ele>456.600006103515625</ele>
        <time>2020-02-22T14:50:50.000Z</time>
      </trkpt>
      <trkpt lat="37.96389897353947162628173828125" lon="-1.48667846806347370147705078125">
        <ele>457.20001220703125</ele>
        <time>2020-02-22T14:50:55.000Z</time>
      </trkpt>
      <trkpt lat="37.96399268321692943572998046875" lon="-1.4868195354938507080078125">
        <ele>457.399993896484375</ele>
        <time>2020-02-22T14:50:57.000Z</time>
      </trkpt>
      <trkpt lat="37.9640519432723522186279296875" lon="-1.48687326349318027496337890625">
        <ele>457.600006103515625</ele>
        <time>2020-02-22T14:50:58.000Z</time>
      </trkpt>
      <trkpt lat="37.96412059105932712554931640625" lon="-1.48691475391387939453125">
        <ele>457.600006103515625</ele>
        <time>2020-02-22T14:50:59.000Z</time>
      </trkpt>
      <trkpt lat="37.96437020413577556610107421875" lon="-1.48695305921137332916259765625">
        <ele>457.79998779296875</ele>
        <time>2020-02-22T14:51:02.000Z</time>
      </trkpt>
      <trkpt lat="37.9644571244716644287109375" lon="-1.48696177639067173004150390625">
        <ele>457.79998779296875</ele>
        <time>2020-02-22T14:51:03.000Z</time>
      </trkpt>
      <trkpt lat="37.96478745527565479278564453125" lon="-1.487028412520885467529296875">
        <ele>457.600006103515625</ele>
        <time>2020-02-22T14:51:07.000Z</time>
      </trkpt>
      <trkpt lat="37.96492408029735088348388671875" lon="-1.48712857626378536224365234375">
        <ele>457.600006103515625</ele>
        <time>2020-02-22T14:51:09.000Z</time>
      </trkpt>
      <trkpt lat="37.96504318714141845703125" lon="-1.487349607050418853759765625">
        <ele>457.600006103515625</ele>
        <time>2020-02-22T14:51:12.000Z</time>
      </trkpt>
      <trkpt lat="37.965195737779140472412109375" lon="-1.4877571351826190948486328125">
        <ele>458.600006103515625</ele>
        <time>2020-02-22T14:51:18.000Z</time>
      </trkpt>
      <trkpt lat="37.965249381959438323974609375" lon="-1.48788780905306339263916015625">
        <ele>459</ele>
        <time>2020-02-22T14:51:20.000Z</time>
      </trkpt>
      <trkpt lat="37.96530948020517826080322265625" lon="-1.48801705799996852874755859375">
        <ele>460</ele>
        <time>2020-02-22T14:51:22.000Z</time>
      </trkpt>
      <trkpt lat="37.965360023081302642822265625" lon="-1.48811177350580692291259765625">
        <ele>461.20001220703125</ele>
        <time>2020-02-22T14:51:24.000Z</time>
      </trkpt>
      <trkpt lat="37.965381145477294921875" lon="-1.4881579577922821044921875">
        <ele>461.79998779296875</ele>
        <time>2020-02-22T14:51:25.000Z</time>
      </trkpt>
      <trkpt lat="37.965419031679630279541015625" lon="-1.48825074546039104461669921875">
        <ele>462.399993896484375</ele>
        <time>2020-02-22T14:51:27.000Z</time>
      </trkpt>
      <trkpt lat="37.9655097238719463348388671875" lon="-1.4884809963405132293701171875">
        <ele>463.600006103515625</ele>
        <time>2020-02-22T14:51:31.000Z</time>
      </trkpt>
      <trkpt lat="37.96561650931835174560546875" lon="-1.48871057666838169097900390625">
        <ele>464.79998779296875</ele>
        <time>2020-02-22T14:51:35.000Z</time>
      </trkpt>
      <trkpt lat="37.9656890965998172760009765625" lon="-1.488869749009609222412109375">
        <ele>466</ele>
        <time>2020-02-22T14:51:38.000Z</time>
      </trkpt>
      <trkpt lat="37.96576612628996372222900390625" lon="-1.48902020417153835296630859375">
        <ele>466.79998779296875</ele>
        <time>2020-02-22T14:51:41.000Z</time>
      </trkpt>
      <trkpt lat="37.96579579822719097137451171875" lon="-1.48906747810542583465576171875">
        <ele>467</ele>
        <time>2020-02-22T14:51:42.000Z</time>
      </trkpt>
      <trkpt lat="37.96582706272602081298828125" lon="-1.48910938762128353118896484375">
        <ele>467.20001220703125</ele>
        <time>2020-02-22T14:51:43.000Z</time>
      </trkpt>
      <trkpt lat="37.96589571051299571990966796875" lon="-1.48918147198855876922607421875">
        <ele>468</ele>
        <time>2020-02-22T14:51:45.000Z</time>
      </trkpt>
      <trkpt lat="37.9659288190305233001708984375" lon="-1.48921072483062744140625">
        <ele>468.20001220703125</ele>
        <time>2020-02-22T14:51:46.000Z</time>
      </trkpt>
      <trkpt lat="37.9660649411380290985107421875" lon="-1.489340476691722869873046875">
        <ele>469.20001220703125</ele>
        <time>2020-02-22T14:51:50.000Z</time>
      </trkpt>
      <trkpt lat="37.96616979874670505523681640625" lon="-1.48942152969539165496826171875">
        <ele>470</ele>
        <time>2020-02-22T14:51:53.000Z</time>
      </trkpt>
      <trkpt lat="37.96623098663985729217529296875" lon="-1.489475928246974945068359375">
        <ele>470.399993896484375</ele>
        <time>2020-02-22T14:51:55.000Z</time>
      </trkpt>
      <trkpt lat="37.96632050536572933197021484375" lon="-1.48955362848937511444091796875">
        <ele>471.600006103515625</ele>
        <time>2020-02-22T14:51:58.000Z</time>
      </trkpt>
      <trkpt lat="37.96635235659778118133544921875" lon="-1.489578187465667724609375">
        <ele>471.79998779296875</ele>
        <time>2020-02-22T14:51:59.000Z</time>
      </trkpt>
      <trkpt lat="37.9664753191173076629638671875" lon="-1.48969578556716442108154296875">
        <ele>472.79998779296875</ele>
        <time>2020-02-22T14:52:03.000Z</time>
      </trkpt>
      <trkpt lat="37.96654631383717060089111328125" lon="-1.48976082913577556610107421875">
        <ele>473.20001220703125</ele>
        <time>2020-02-22T14:52:05.000Z</time>
      </trkpt>
      <trkpt lat="37.9666235111653804779052734375" lon="-1.4898227714002132415771484375">
        <ele>473.79998779296875</ele>
        <time>2020-02-22T14:52:07.000Z</time>
      </trkpt>
      <trkpt lat="37.9667613096535205841064453125" lon="-1.4899443089962005615234375">
        <ele>474.79998779296875</ele>
        <time>2020-02-22T14:52:11.000Z</time>
      </trkpt>
      <trkpt lat="37.96682392247021198272705078125" lon="-1.49000130593776702880859375">
        <ele>475.20001220703125</ele>
        <time>2020-02-22T14:52:13.000Z</time>
      </trkpt>
      <trkpt lat="37.96692132018506526947021484375" lon="-1.49010130204260349273681640625">
        <ele>476.20001220703125</ele>
        <time>2020-02-22T14:52:17.000Z</time>
      </trkpt>
      <trkpt lat="37.96694780699908733367919921875" lon="-1.4901298843324184417724609375">
        <ele>476.20001220703125</ele>
        <time>2020-02-22T14:52:18.000Z</time>
      </trkpt>
      <trkpt lat="37.967079319059848785400390625" lon="-1.4902311377227306365966796875">
        <ele>477.20001220703125</ele>
        <time>2020-02-22T14:52:22.000Z</time>
      </trkpt>
      <trkpt lat="37.967171855270862579345703125" lon="-1.490313112735748291015625">
        <ele>477.79998779296875</ele>
        <time>2020-02-22T14:52:25.000Z</time>
      </trkpt>
      <trkpt lat="37.96726497821509838104248046875" lon="-1.4903934113681316375732421875">
        <ele>478.399993896484375</ele>
        <time>2020-02-22T14:52:28.000Z</time>
      </trkpt>
      <trkpt lat="37.9673671536147594451904296875" lon="-1.4904933236539363861083984375">
        <ele>479.399993896484375</ele>
        <time>2020-02-22T14:52:32.000Z</time>
      </trkpt>
      <trkpt lat="37.96740244142711162567138671875" lon="-1.49052492342889308929443359375">
        <ele>479.399993896484375</ele>
        <time>2020-02-22T14:52:33.000Z</time>
      </trkpt>
      <trkpt lat="37.967551387846469879150390625" lon="-1.4906683377921581268310546875">
        <ele>480.600006103515625</ele>
        <time>2020-02-22T14:52:37.000Z</time>
      </trkpt>
      <trkpt lat="37.9676140844821929931640625" lon="-1.49073245935142040252685546875">
        <ele>481.20001220703125</ele>
        <time>2020-02-22T14:52:39.000Z</time>
      </trkpt>
      <trkpt lat="37.9677481949329376220703125" lon="-1.49087260477244853973388671875">
        <ele>481.600006103515625</ele>
        <time>2020-02-22T14:52:43.000Z</time>
      </trkpt>
      <trkpt lat="37.9678224585950374603271484375" lon="-1.4909422583878040313720703125">
        <ele>482.20001220703125</ele>
        <time>2020-02-22T14:52:45.000Z</time>
      </trkpt>
      <trkpt lat="37.96802915632724761962890625" lon="-1.491137556731700897216796875">
        <ele>482.79998779296875</ele>
        <time>2020-02-22T14:52:51.000Z</time>
      </trkpt>
      <trkpt lat="37.9680658690631389617919921875" lon="-1.491165719926357269287109375">
        <ele>482.79998779296875</ele>
        <time>2020-02-22T14:52:52.000Z</time>
      </trkpt>
      <trkpt lat="37.968274913728237152099609375" lon="-1.49133411236107349395751953125">
        <ele>483.79998779296875</ele>
        <time>2020-02-22T14:52:58.000Z</time>
      </trkpt>
      <trkpt lat="37.9683122970163822174072265625" lon="-1.49136579595506191253662109375">
        <ele>484</ele>
        <time>2020-02-22T14:52:59.000Z</time>
      </trkpt>
      <trkpt lat="37.96851941384375095367431640625" lon="-1.4915652014315128326416015625">
        <ele>485</ele>
        <time>2020-02-22T14:53:05.000Z</time>
      </trkpt>
      <trkpt lat="37.96869090758264064788818359375" lon="-1.491720266640186309814453125">
        <ele>485.399993896484375</ele>
        <time>2020-02-22T14:53:10.000Z</time>
      </trkpt>
      <trkpt lat="37.96882535330951213836669921875" lon="-1.4918407984077930450439453125">
        <ele>486.20001220703125</ele>
        <time>2020-02-22T14:53:14.000Z</time>
      </trkpt>
      <trkpt lat="37.96891671605408191680908203125" lon="-1.4919256232678890228271484375">
        <ele>486.79998779296875</ele>
        <time>2020-02-22T14:53:17.000Z</time>
      </trkpt>
      <trkpt lat="37.9689778201282024383544921875" lon="-1.4919863082468509674072265625">
        <ele>487.399993896484375</ele>
        <time>2020-02-22T14:53:19.000Z</time>
      </trkpt>
      <trkpt lat="37.96913984231650829315185546875" lon="-1.49210876785218715667724609375">
        <ele>488.20001220703125</ele>
        <time>2020-02-22T14:53:23.000Z</time>
      </trkpt>
      <trkpt lat="37.96938174404203891754150390625" lon="-1.4922270365059375762939453125">
        <ele>488.600006103515625</ele>
        <time>2020-02-22T14:53:28.000Z</time>
      </trkpt>
      <trkpt lat="37.9694250784814357757568359375" lon="-1.49223851971328258514404296875">
        <ele>488.79998779296875</ele>
        <time>2020-02-22T14:53:29.000Z</time>
      </trkpt>
      <trkpt lat="37.96974233351647853851318359375" lon="-1.4922402799129486083984375">
        <ele>489</ele>
        <time>2020-02-22T14:53:35.000Z</time>
      </trkpt>
      <trkpt lat="37.970203422009944915771484375" lon="-1.49224556051194667816162109375">
        <ele>489</ele>
        <time>2020-02-22T14:53:43.000Z</time>
      </trkpt>
      <trkpt lat="37.970579601824283599853515625" lon="-1.49223919026553630828857421875">
        <ele>489.20001220703125</ele>
        <time>2020-02-22T14:53:49.000Z</time>
      </trkpt>
      <trkpt lat="37.97063332982361316680908203125" lon="-1.4922381006181240081787109375">
        <ele>489.20001220703125</ele>
        <time>2020-02-22T14:53:50.000Z</time>
      </trkpt>
      <trkpt lat="37.97083701007068157196044921875" lon="-1.4922270365059375762939453125">
        <ele>489.399993896484375</ele>
        <time>2020-02-22T14:53:54.000Z</time>
      </trkpt>
      <trkpt lat="37.97096944414079189300537109375" lon="-1.49223114363849163055419921875">
        <ele>489.79998779296875</ele>
        <time>2020-02-22T14:53:57.000Z</time>
      </trkpt>
      <trkpt lat="37.9711272753775119781494140625" lon="-1.49226366542279720306396484375">
        <ele>490.600006103515625</ele>
        <time>2020-02-22T14:54:01.000Z</time>
      </trkpt>
      <trkpt lat="37.971207238733768463134765625" lon="-1.49228093214333057403564453125">
        <ele>490.79998779296875</ele>
        <time>2020-02-22T14:54:03.000Z</time>
      </trkpt>
      <trkpt lat="37.97124638222157955169677734375" lon="-1.4922885596752166748046875">
        <ele>490.79998779296875</ele>
        <time>2020-02-22T14:54:04.000Z</time>
      </trkpt>
      <trkpt lat="37.97152901999652385711669921875" lon="-1.49237045086920261383056640625">
        <ele>491.600006103515625</ele>
        <time>2020-02-22T14:54:11.000Z</time>
      </trkpt>
      <trkpt lat="37.97161015681922435760498046875" lon="-1.49241202510893344879150390625">
        <ele>492</ele>
        <time>2020-02-22T14:54:13.000Z</time>
      </trkpt>
      <trkpt lat="37.971719205379486083984375" lon="-1.49250959046185016632080078125">
        <ele>492.79998779296875</ele>
        <time>2020-02-22T14:54:16.000Z</time>
      </trkpt>
      <trkpt lat="37.97175482846796512603759765625" lon="-1.49254412390291690826416015625">
        <ele>493</ele>
        <time>2020-02-22T14:54:17.000Z</time>
      </trkpt>
      <trkpt lat="37.97190687619149684906005859375" lon="-1.4926139451563358306884765625">
        <ele>493.600006103515625</ele>
        <time>2020-02-22T14:54:21.000Z</time>
      </trkpt>
      <trkpt lat="37.97198851592838764190673828125" lon="-1.492598019540309906005859375">
        <ele>494.20001220703125</ele>
        <time>2020-02-22T14:54:23.000Z</time>
      </trkpt>
      <trkpt lat="37.97209982760250568389892578125" lon="-1.49256558157503604888916015625">
        <ele>494.600006103515625</ele>
        <time>2020-02-22T14:54:26.000Z</time>
      </trkpt>
      <trkpt lat="37.97221767716109752655029296875" lon="-1.49260078556835651397705078125">
        <ele>495.20001220703125</ele>
        <time>2020-02-22T14:54:29.000Z</time>
      </trkpt>
      <trkpt lat="37.9722584970295429229736328125" lon="-1.49262023158371448516845703125">
        <ele>495.600006103515625</ele>
        <time>2020-02-22T14:54:30.000Z</time>
      </trkpt>
      <trkpt lat="37.97236821614205837249755859375" lon="-1.49269818328320980072021484375">
        <ele>496.20001220703125</ele>
        <time>2020-02-22T14:54:33.000Z</time>
      </trkpt>
      <trkpt lat="37.97243476845324039459228515625" lon="-1.49273707531392574310302734375">
        <ele>497.399993896484375</ele>
        <time>2020-02-22T14:54:35.000Z</time>
      </trkpt>
      <trkpt lat="37.972462177276611328125" lon="-1.4927426911890506744384765625">
        <ele>497.600006103515625</ele>
        <time>2020-02-22T14:54:36.000Z</time>
      </trkpt>
      <trkpt lat="37.9726293124258518218994140625" lon="-1.4927413500845432281494140625">
        <ele>498.600006103515625</ele>
        <time>2020-02-22T14:54:41.000Z</time>
      </trkpt>
      <trkpt lat="37.97266443260014057159423828125" lon="-1.49273606948554515838623046875">
        <ele>498.79998779296875</ele>
        <time>2020-02-22T14:54:42.000Z</time>
      </trkpt>
      <trkpt lat="37.9728093557059764862060546875" lon="-1.49271176196634769439697265625">
        <ele>499.600006103515625</ele>
        <time>2020-02-22T14:54:46.000Z</time>
      </trkpt>
      <trkpt lat="37.9729173146188259124755859375" lon="-1.4927064813673496246337890625">
        <ele>500.20001220703125</ele>
        <time>2020-02-22T14:54:49.000Z</time>
      </trkpt>
      <trkpt lat="37.9729937575757503509521484375" lon="-1.4927138574421405792236328125">
        <ele>500.79998779296875</ele>
        <time>2020-02-22T14:54:51.000Z</time>
      </trkpt>
      <trkpt lat="37.97314287163317203521728515625" lon="-1.49275735951960086822509765625">
        <ele>501.600006103515625</ele>
        <time>2020-02-22T14:54:56.000Z</time>
      </trkpt>
      <trkpt lat="37.97316919080913066864013671875" lon="-1.492771022021770477294921875">
        <ele>502</ele>
        <time>2020-02-22T14:54:57.000Z</time>
      </trkpt>
      <trkpt lat="37.97337974421679973602294921875" lon="-1.4928348921239376068115234375">
        <ele>503.20001220703125</ele>
        <time>2020-02-22T14:55:03.000Z</time>
      </trkpt>
      <trkpt lat="37.97346926294267177581787109375" lon="-1.492860205471515655517578125">
        <ele>504.399993896484375</ele>
        <time>2020-02-22T14:55:06.000Z</time>
      </trkpt>
      <trkpt lat="37.97362156212329864501953125" lon="-1.49290203116834163665771484375">
        <ele>505.399993896484375</ele>
        <time>2020-02-22T14:55:10.000Z</time>
      </trkpt>
      <trkpt lat="37.9736562632024288177490234375" lon="-1.49291552603244781494140625">
        <ele>505.399993896484375</ele>
        <time>2020-02-22T14:55:11.000Z</time>
      </trkpt>
      <trkpt lat="37.9738135077059268951416015625" lon="-1.4929951541125774383544921875">
        <ele>506.600006103515625</ele>
        <time>2020-02-22T14:55:16.000Z</time>
      </trkpt>
      <trkpt lat="37.973847202956676483154296875" lon="-1.49301200173795223236083984375">
        <ele>506.79998779296875</ele>
        <time>2020-02-22T14:55:17.000Z</time>
      </trkpt>
      <trkpt lat="37.9741085506975650787353515625" lon="-1.493146531283855438232421875">
        <ele>507.79998779296875</ele>
        <time>2020-02-22T14:55:25.000Z</time>
      </trkpt>
      <trkpt lat="37.97440518625080585479736328125" lon="-1.4933321066200733184814453125">
        <ele>508.79998779296875</ele>
        <time>2020-02-22T14:55:34.000Z</time>
      </trkpt>
      <trkpt lat="37.9745588265359401702880859375" lon="-1.49341751821339130401611328125">
        <ele>510</ele>
        <time>2020-02-22T14:55:39.000Z</time>
      </trkpt>
      <trkpt lat="37.97463686205446720123291015625" lon="-1.49348541162908077239990234375">
        <ele>510.20001220703125</ele>
        <time>2020-02-22T14:55:42.000Z</time>
      </trkpt>
      <trkpt lat="37.9748117923736572265625" lon="-1.49362958036363124847412109375">
        <ele>511.20001220703125</ele>
        <time>2020-02-22T14:55:47.000Z</time>
      </trkpt>
      <trkpt lat="37.97491128556430339813232421875" lon="-1.4937002398073673248291015625">
        <ele>511.79998779296875</ele>
        <time>2020-02-22T14:55:50.000Z</time>
      </trkpt>
      <trkpt lat="37.974980771541595458984375" lon="-1.493744663894176483154296875">
        <ele>512.20001220703125</ele>
        <time>2020-02-22T14:55:52.000Z</time>
      </trkpt>
      <trkpt lat="37.97519593499600887298583984375" lon="-1.4938792772591114044189453125">
        <ele>513.20001220703125</ele>
        <time>2020-02-22T14:55:58.000Z</time>
      </trkpt>
      <trkpt lat="37.97523516230285167694091796875" lon="-1.4939030818641185760498046875">
        <ele>513.4000244140625</ele>
        <time>2020-02-22T14:55:59.000Z</time>
      </trkpt>
      <trkpt lat="37.975460551679134368896484375" lon="-1.49404046125710010528564453125">
        <ele>514.4000244140625</ele>
        <time>2020-02-22T14:56:05.000Z</time>
      </trkpt>
      <trkpt lat="37.9756900481879711151123046875" lon="-1.49416769854724407196044921875">
        <ele>515</ele>
        <time>2020-02-22T14:56:11.000Z</time>
      </trkpt>
      <trkpt lat="37.97589967958629131317138671875" lon="-1.49428345263004302978515625">
        <ele>515.5999755859375</ele>
        <time>2020-02-22T14:56:17.000Z</time>
      </trkpt>
      <trkpt lat="37.97603965736925601959228515625" lon="-1.49432879872620105743408203125">
        <ele>516.20001220703125</ele>
        <time>2020-02-22T14:56:21.000Z</time>
      </trkpt>
      <trkpt lat="37.9761815629899501800537109375" lon="-1.49436316452920436859130859375">
        <ele>516.5999755859375</ele>
        <time>2020-02-22T14:56:25.000Z</time>
      </trkpt>
      <trkpt lat="37.976325564086437225341796875" lon="-1.494379676878452301025390625">
        <ele>517.20001220703125</ele>
        <time>2020-02-22T14:56:29.000Z</time>
      </trkpt>
      <trkpt lat="37.97643042169511318206787109375" lon="-1.49438646622002124786376953125">
        <ele>517.79998779296875</ele>
        <time>2020-02-22T14:56:32.000Z</time>
      </trkpt>
      <trkpt lat="37.97665203921496868133544921875" lon="-1.4943694509565830230712890625">
        <ele>518.79998779296875</ele>
        <time>2020-02-22T14:56:38.000Z</time>
      </trkpt>
      <trkpt lat="37.9769704677164554595947265625" lon="-1.4942975342273712158203125">
        <ele>519.79998779296875</ele>
        <time>2020-02-22T14:56:45.000Z</time>
      </trkpt>
      <trkpt lat="37.97701832838356494903564453125" lon="-1.4942849613726139068603515625">
        <ele>519.79998779296875</ele>
        <time>2020-02-22T14:56:46.000Z</time>
      </trkpt>
      <trkpt lat="37.97738009132444858551025390625" lon="-1.49420491419732570648193359375">
        <ele>520.20001220703125</ele>
        <time>2020-02-22T14:56:54.000Z</time>
      </trkpt>
      <trkpt lat="37.9776651598513126373291015625" lon="-1.494102738797664642333984375">
        <ele>520.20001220703125</ele>
        <time>2020-02-22T14:57:01.000Z</time>
      </trkpt>
      <trkpt lat="37.97788116149604320526123046875" lon="-1.4939798600971698760986328125">
        <ele>521</ele>
        <time>2020-02-22T14:57:07.000Z</time>
      </trkpt>
      <trkpt lat="37.978169918060302734375" lon="-1.49377785623073577880859375">
        <ele>521.79998779296875</ele>
        <time>2020-02-22T14:57:15.000Z</time>
      </trkpt>
      <trkpt lat="37.9782388173043727874755859375" lon="-1.49372278712689876556396484375">
        <ele>522</ele>
        <time>2020-02-22T14:57:17.000Z</time>
      </trkpt>
      <trkpt lat="37.97839446924626827239990234375" lon="-1.49360661394894123077392578125">
        <ele>522.20001220703125</ele>
        <time>2020-02-22T14:57:21.000Z</time>
      </trkpt>
      <trkpt lat="37.9786304198205471038818359375" lon="-1.49344065226614475250244140625">
        <ele>522.20001220703125</ele>
        <time>2020-02-22T14:57:26.000Z</time>
      </trkpt>
      <trkpt lat="37.97890484333038330078125" lon="-1.493206210434436798095703125">
        <ele>522.20001220703125</ele>
        <time>2020-02-22T14:57:32.000Z</time>
      </trkpt>
      <trkpt lat="37.97930591739714145660400390625" lon="-1.492864899337291717529296875">
        <ele>522</ele>
        <time>2020-02-22T14:57:40.000Z</time>
      </trkpt>
      <trkpt lat="37.979632727801799774169921875" lon="-1.49254077114164829254150390625">
        <ele>522</ele>
        <time>2020-02-22T14:57:47.000Z</time>
      </trkpt>
      <trkpt lat="37.97993958927690982818603515625" lon="-1.49227925576269626617431640625">
        <ele>521.79998779296875</ele>
        <time>2020-02-22T14:57:53.000Z</time>
      </trkpt>
      <trkpt lat="37.98003874719142913818359375" lon="-1.49224556051194667816162109375">
        <ele>521.79998779296875</ele>
        <time>2020-02-22T14:57:55.000Z</time>
      </trkpt>
      <trkpt lat="37.98020102083683013916015625" lon="-1.4923162199556827545166015625">
        <ele>521.79998779296875</ele>
        <time>2020-02-22T14:57:58.000Z</time>
      </trkpt>
      <trkpt lat="37.9803319461643695831298828125" lon="-1.49239274673163890838623046875">
        <ele>522</ele>
        <time>2020-02-22T14:58:00.000Z</time>
      </trkpt>
      <trkpt lat="37.98050804995000362396240234375" lon="-1.49252451024949550628662109375">
        <ele>522.4000244140625</ele>
        <time>2020-02-22T14:58:03.000Z</time>
      </trkpt>
      <trkpt lat="37.98062749207019805908203125" lon="-1.4926685951650142669677734375">
        <ele>522.79998779296875</ele>
        <time>2020-02-22T14:58:06.000Z</time>
      </trkpt>
      <trkpt lat="37.98071240074932575225830078125" lon="-1.49272047914564609527587890625">
        <ele>523</ele>
        <time>2020-02-22T14:58:08.000Z</time>
      </trkpt>
      <trkpt lat="37.9808626882731914520263671875" lon="-1.49271192960441112518310546875">
        <ele>523.20001220703125</ele>
        <time>2020-02-22T14:58:11.000Z</time>
      </trkpt>
      <trkpt lat="37.98091046512126922607421875" lon="-1.49271964095532894134521484375">
        <ele>523.5999755859375</ele>
        <time>2020-02-22T14:58:12.000Z</time>
      </trkpt>
      <trkpt lat="37.9809937812387943267822265625" lon="-1.4927534200251102447509765625">
        <ele>524.4000244140625</ele>
        <time>2020-02-22T14:58:14.000Z</time>
      </trkpt>
      <trkpt lat="37.98113845288753509521484375" lon="-1.49286163039505481719970703125">
        <ele>525</ele>
        <time>2020-02-22T14:58:17.000Z</time>
      </trkpt>
      <trkpt lat="37.9812050051987171173095703125" lon="-1.49300043471157550811767578125">
        <ele>525.4000244140625</ele>
        <time>2020-02-22T14:58:19.000Z</time>
      </trkpt>
      <trkpt lat="37.98121967352926731109619140625" lon="-1.493072099983692169189453125">
        <ele>525.5999755859375</ele>
        <time>2020-02-22T14:58:20.000Z</time>
      </trkpt>
      <trkpt lat="37.981230653822422027587890625" lon="-1.49314083158969879150390625">
        <ele>525.5999755859375</ele>
        <time>2020-02-22T14:58:21.000Z</time>
      </trkpt>
      <trkpt lat="37.98126108013093471527099609375" lon="-1.49327628314495086669921875">
        <ele>525.79998779296875</ele>
        <time>2020-02-22T14:58:23.000Z</time>
      </trkpt>
      <trkpt lat="37.981345653533935546875" lon="-1.4934729225933551788330078125">
        <ele>525.79998779296875</ele>
        <time>2020-02-22T14:58:26.000Z</time>
      </trkpt>
      <trkpt lat="37.981502898037433624267578125" lon="-1.49359337054193019866943359375">
        <ele>525.79998779296875</ele>
        <time>2020-02-22T14:58:29.000Z</time>
      </trkpt>
      <trkpt lat="37.981667853891849517822265625" lon="-1.49366327561438083648681640625">
        <ele>525.5999755859375</ele>
        <time>2020-02-22T14:58:32.000Z</time>
      </trkpt>
      <trkpt lat="37.981773130595684051513671875" lon="-1.4937114715576171875">
        <ele>525.5999755859375</ele>
        <time>2020-02-22T14:58:34.000Z</time>
      </trkpt>
      <trkpt lat="37.98204177059233188629150390625" lon="-1.49387584067881107330322265625">
        <ele>525.79998779296875</ele>
        <time>2020-02-22T14:58:39.000Z</time>
      </trkpt>
      <trkpt lat="37.98208703286945819854736328125" lon="-1.49392177350819110870361328125">
        <ele>525.79998779296875</ele>
        <time>2020-02-22T14:58:40.000Z</time>
      </trkpt>
      <trkpt lat="37.98219515942037105560302734375" lon="-1.49406242184340953826904296875">
        <ele>526.4000244140625</ele>
        <time>2020-02-22T14:58:43.000Z</time>
      </trkpt>
      <trkpt lat="37.98223220743238925933837890625" lon="-1.4941082708537578582763671875">
        <ele>526.5999755859375</ele>
        <time>2020-02-22T14:58:44.000Z</time>
      </trkpt>
      <trkpt lat="37.98227076418697834014892578125" lon="-1.49414665997028350830078125">
        <ele>526.79998779296875</ele>
        <time>2020-02-22T14:58:45.000Z</time>
      </trkpt>
      <trkpt lat="37.9824203811585903167724609375" lon="-1.49427565746009349822998046875">
        <ele>527.4000244140625</ele>
        <time>2020-02-22T14:58:48.000Z</time>
      </trkpt>
      <trkpt lat="37.982465811073780059814453125" lon="-1.49433667771518230438232421875">
        <ele>527.5999755859375</ele>
        <time>2020-02-22T14:58:49.000Z</time>
      </trkpt>
      <trkpt lat="37.98252959735691547393798828125" lon="-1.494563408195972442626953125">
        <ele>527.5999755859375</ele>
        <time>2020-02-22T14:58:52.000Z</time>
      </trkpt>
      <trkpt lat="37.9825432598590850830078125" lon="-1.49476432241499423980712890625">
        <ele>527.5999755859375</ele>
        <time>2020-02-22T14:58:54.000Z</time>
      </trkpt>
      <trkpt lat="37.98257620073854923248291015625" lon="-1.49499314837157726287841796875">
        <ele>527.5999755859375</ele>
        <time>2020-02-22T14:58:56.000Z</time>
      </trkpt>
      <trkpt lat="37.98260838724672794342041015625" lon="-1.49510823190212249755859375">
        <ele>527.5999755859375</ele>
        <time>2020-02-22T14:58:57.000Z</time>
      </trkpt>
      <trkpt lat="37.9827063716948032379150390625" lon="-1.4953350462019443511962890625">
        <ele>527</ele>
        <time>2020-02-22T14:58:59.000Z</time>
      </trkpt>
      <trkpt lat="37.98275741748511791229248046875" lon="-1.4954503811895847320556640625">
        <ele>526.5999755859375</ele>
        <time>2020-02-22T14:59:00.000Z</time>
      </trkpt>
      <trkpt lat="37.98279882408678531646728515625" lon="-1.49557082913815975189208984375">
        <ele>526</ele>
        <time>2020-02-22T14:59:01.000Z</time>
      </trkpt>
      <trkpt lat="37.9828310944139957427978515625" lon="-1.49570577777922153472900390625">
        <ele>524.79998779296875</ele>
        <time>2020-02-22T14:59:02.000Z</time>
      </trkpt>
      <trkpt lat="37.982865460216999053955078125" lon="-1.49585480801761150360107421875">
        <ele>524.4000244140625</ele>
        <time>2020-02-22T14:59:03.000Z</time>
      </trkpt>
      <trkpt lat="37.9829055257141590118408203125" lon="-1.49599545635282993316650390625">
        <ele>523.5999755859375</ele>
        <time>2020-02-22T14:59:04.000Z</time>
      </trkpt>
      <trkpt lat="37.98294919542968273162841796875" lon="-1.4961454086005687713623046875">
        <ele>523.20001220703125</ele>
        <time>2020-02-22T14:59:05.000Z</time>
      </trkpt>
      <trkpt lat="37.98299722373485565185546875" lon="-1.49629955179989337921142578125">
        <ele>522.20001220703125</ele>
        <time>2020-02-22T14:59:06.000Z</time>
      </trkpt>
      <trkpt lat="37.98309084959328174591064453125" lon="-1.49660834111273288726806640625">
        <ele>520.79998779296875</ele>
        <time>2020-02-22T14:59:08.000Z</time>
      </trkpt>
      <trkpt lat="37.98318824730813503265380859375" lon="-1.49702307768166065216064453125">
        <ele>519</ele>
        <time>2020-02-22T14:59:11.000Z</time>
      </trkpt>
      <trkpt lat="37.98322856426239013671875" lon="-1.49714000523090362548828125">
        <ele>517.79998779296875</ele>
        <time>2020-02-22T14:59:12.000Z</time>
      </trkpt>
      <trkpt lat="37.983360998332500457763671875" lon="-1.49729783646762371063232421875">
        <ele>516.5999755859375</ele>
        <time>2020-02-22T14:59:14.000Z</time>
      </trkpt>
      <trkpt lat="37.98357666470110416412353515625" lon="-1.4974073879420757293701171875">
        <ele>515.20001220703125</ele>
        <time>2020-02-22T14:59:16.000Z</time>
      </trkpt>
      <trkpt lat="37.98371748067438602447509765625" lon="-1.4976105652749538421630859375">
        <ele>514.20001220703125</ele>
        <time>2020-02-22T14:59:18.000Z</time>
      </trkpt>
      <trkpt lat="37.983759306371212005615234375" lon="-1.49788775481283664703369140625">
        <ele>512.79998779296875</ele>
        <time>2020-02-22T14:59:20.000Z</time>
      </trkpt>
      <trkpt lat="37.98375100828707218170166015625" lon="-1.498192436993122100830078125">
        <ele>511.20001220703125</ele>
        <time>2020-02-22T14:59:22.000Z</time>
      </trkpt>
      <trkpt lat="37.98375737853348255157470703125" lon="-1.498330570757389068603515625">
        <ele>510.20001220703125</ele>
        <time>2020-02-22T14:59:23.000Z</time>
      </trkpt>
      <trkpt lat="37.98378285951912403106689453125" lon="-1.49844699539244174957275390625">
        <ele>509.399993896484375</ele>
        <time>2020-02-22T14:59:24.000Z</time>
      </trkpt>
      <trkpt lat="37.98382661305367946624755859375" lon="-1.498529054224491119384765625">
        <ele>508.600006103515625</ele>
        <time>2020-02-22T14:59:25.000Z</time>
      </trkpt>
      <trkpt lat="37.9838858731091022491455078125" lon="-1.49856559932231903076171875">
        <ele>507.79998779296875</ele>
        <time>2020-02-22T14:59:26.000Z</time>
      </trkpt>
      <trkpt lat="37.9839562810957431793212890625" lon="-1.49856585077941417694091796875">
        <ele>507.20001220703125</ele>
        <time>2020-02-22T14:59:27.000Z</time>
      </trkpt>
      <trkpt lat="37.98402585089206695556640625" lon="-1.49853852577507495880126953125">
        <ele>506.79998779296875</ele>
        <time>2020-02-22T14:59:28.000Z</time>
      </trkpt>
      <trkpt lat="37.98409986309707164764404296875" lon="-1.49850524961948394775390625">
        <ele>506</ele>
        <time>2020-02-22T14:59:29.000Z</time>
      </trkpt>
      <trkpt lat="37.9841785691678524017333984375" lon="-1.4985003881156444549560546875">
        <ele>505</ele>
        <time>2020-02-22T14:59:30.000Z</time>
      </trkpt>
      <trkpt lat="37.98425509594380855560302734375" lon="-1.49853282608091831207275390625">
        <ele>504.399993896484375</ele>
        <time>2020-02-22T14:59:31.000Z</time>
      </trkpt>
      <trkpt lat="37.98431477509438991546630859375" lon="-1.49860910139977931976318359375">
        <ele>503.399993896484375</ele>
        <time>2020-02-22T14:59:32.000Z</time>
      </trkpt>
      <trkpt lat="37.98435903154313564300537109375" lon="-1.49870499037206172943115234375">
        <ele>503.20001220703125</ele>
        <time>2020-02-22T14:59:33.000Z</time>
      </trkpt>
      <trkpt lat="37.98442290164530277252197265625" lon="-1.49891839362680912017822265625">
        <ele>502.399993896484375</ele>
        <time>2020-02-22T14:59:35.000Z</time>
      </trkpt>
      <trkpt lat="37.98446975648403167724609375" lon="-1.49902467615902423858642578125">
        <ele>502</ele>
        <time>2020-02-22T14:59:36.000Z</time>
      </trkpt>
      <trkpt lat="37.98466731794178485870361328125" lon="-1.4993120916187763214111328125">
        <ele>500.600006103515625</ele>
        <time>2020-02-22T14:59:39.000Z</time>
      </trkpt>
      <trkpt lat="37.98475138843059539794921875" lon="-1.499381996691226959228515625">
        <ele>500.20001220703125</ele>
        <time>2020-02-22T14:59:40.000Z</time>
      </trkpt>
      <trkpt lat="37.98484669066965579986572265625" lon="-1.49943019263446331024169921875">
        <ele>499.20001220703125</ele>
        <time>2020-02-22T14:59:41.000Z</time>
      </trkpt>
      <trkpt lat="37.98494576476514339447021484375" lon="-1.4994441904127597808837890625">
        <ele>498.399993896484375</ele>
        <time>2020-02-22T14:59:42.000Z</time>
      </trkpt>
      <trkpt lat="37.9850372113287448883056640625" lon="-1.4994187094271183013916015625">
        <ele>498</ele>
        <time>2020-02-22T14:59:43.000Z</time>
      </trkpt>
      <trkpt lat="37.98511792905628681182861328125" lon="-1.4993657357990741729736328125">
        <ele>497.399993896484375</ele>
        <time>2020-02-22T14:59:44.000Z</time>
      </trkpt>
      <trkpt lat="37.98519051633775234222412109375" lon="-1.49928568862378597259521484375">
        <ele>496.79998779296875</ele>
        <time>2020-02-22T14:59:45.000Z</time>
      </trkpt>
      <trkpt lat="37.98531423322856426239013671875" lon="-1.499083936214447021484375">
        <ele>495.20001220703125</ele>
        <time>2020-02-22T14:59:47.000Z</time>
      </trkpt>
      <trkpt lat="37.985487319529056549072265625" lon="-1.49897455237805843353271484375">
        <ele>493.79998779296875</ele>
        <time>2020-02-22T14:59:49.000Z</time>
      </trkpt>
      <trkpt lat="37.9857007227838039398193359375" lon="-1.4990101754665374755859375">
        <ele>493</ele>
        <time>2020-02-22T14:59:51.000Z</time>
      </trkpt>
      <trkpt lat="37.98580926842987537384033203125" lon="-1.49903590790927410125732421875">
        <ele>492.79998779296875</ele>
        <time>2020-02-22T14:59:52.000Z</time>
      </trkpt>
      <trkpt lat="37.98603658564388751983642578125" lon="-1.49904177524149417877197265625">
        <ele>491.20001220703125</ele>
        <time>2020-02-22T14:59:54.000Z</time>
      </trkpt>
      <trkpt lat="37.98614881932735443115234375" lon="-1.49901746772229671478271484375">
        <ele>490.20001220703125</ele>
        <time>2020-02-22T14:59:55.000Z</time>
      </trkpt>
      <trkpt lat="37.98625786788761615753173828125" lon="-1.49897991679608821868896484375">
        <ele>489.600006103515625</ele>
        <time>2020-02-22T14:59:56.000Z</time>
      </trkpt>
      <trkpt lat="37.9863571934401988983154296875" lon="-1.49894739501178264617919921875">
        <ele>488.79998779296875</ele>
        <time>2020-02-22T14:59:57.000Z</time>
      </trkpt>
      <trkpt lat="37.98644210211932659149169921875" lon="-1.49893381632864475250244140625">
        <ele>488.20001220703125</ele>
        <time>2020-02-22T14:59:58.000Z</time>
      </trkpt>
      <trkpt lat="37.98650681041181087493896484375" lon="-1.4989583753049373626708984375">
        <ele>487.600006103515625</ele>
        <time>2020-02-22T14:59:59.000Z</time>
      </trkpt>
      <trkpt lat="37.98654989339411258697509765625" lon="-1.49901092983782291412353515625">
        <ele>486.600006103515625</ele>
        <time>2020-02-22T15:00:00.000Z</time>
      </trkpt>
      <trkpt lat="37.98655643127858638763427734375" lon="-1.49909541942179203033447265625">
        <ele>485.399993896484375</ele>
        <time>2020-02-22T15:00:01.000Z</time>
      </trkpt>
      <trkpt lat="37.98652826808393001556396484375" lon="-1.49917404167354106903076171875">
        <ele>484.600006103515625</ele>
        <time>2020-02-22T15:00:02.000Z</time>
      </trkpt>
      <trkpt lat="37.98646993003785610198974609375" lon="-1.49923338554799556732177734375">
        <ele>483.399993896484375</ele>
        <time>2020-02-22T15:00:03.000Z</time>
      </trkpt>
      <trkpt lat="37.98639231361448764801025390625" lon="-1.4992956630885601043701171875">
        <ele>482.600006103515625</ele>
        <time>2020-02-22T15:00:04.000Z</time>
      </trkpt>
      <trkpt lat="37.9863131046295166015625" lon="-1.49935827590525150299072265625">
        <ele>482.20001220703125</ele>
        <time>2020-02-22T15:00:05.000Z</time>
      </trkpt>
      <trkpt lat="37.9861452989280223846435546875" lon="-1.4995249919593334197998046875">
        <ele>481.79998779296875</ele>
        <time>2020-02-22T15:00:07.000Z</time>
      </trkpt>
      <trkpt lat="37.98606097698211669921875" lon="-1.49961442686617374420166015625">
        <ele>481.399993896484375</ele>
        <time>2020-02-22T15:00:08.000Z</time>
      </trkpt>
      <trkpt lat="37.98598009161651134490966796875" lon="-1.499709226191043853759765625">
        <ele>481.20001220703125</ele>
        <time>2020-02-22T15:00:09.000Z</time>
      </trkpt>
      <trkpt lat="37.9858975298702716827392578125" lon="-1.4998146705329418182373046875">
        <ele>480.79998779296875</ele>
        <time>2020-02-22T15:00:10.000Z</time>
      </trkpt>
      <trkpt lat="37.98573031090199947357177734375" lon="-1.50003586895763874053955078125">
        <ele>480.20001220703125</ele>
        <time>2020-02-22T15:00:12.000Z</time>
      </trkpt>
      <trkpt lat="37.9856490902602672576904296875" lon="-1.50014407932758331298828125">
        <ele>479.600006103515625</ele>
        <time>2020-02-22T15:00:13.000Z</time>
      </trkpt>
      <trkpt lat="37.9854831285774707794189453125" lon="-1.50036402046680450439453125">
        <ele>478.399993896484375</ele>
        <time>2020-02-22T15:00:15.000Z</time>
      </trkpt>
      <trkpt lat="37.985322363674640655517578125" lon="-1.5005894936621189117431640625">
        <ele>477.20001220703125</ele>
        <time>2020-02-22T15:00:17.000Z</time>
      </trkpt>
      <trkpt lat="37.985237874090671539306640625" lon="-1.50069518946111202239990234375">
        <ele>476</ele>
        <time>2020-02-22T15:00:18.000Z</time>
      </trkpt>
      <trkpt lat="37.9851455055177211761474609375" lon="-1.50078621692955493927001953125">
        <ele>475</ele>
        <time>2020-02-22T15:00:19.000Z</time>
      </trkpt>
      <trkpt lat="37.98504651524126529693603515625" lon="-1.50085218250751495361328125">
        <ele>474</ele>
        <time>2020-02-22T15:00:20.000Z</time>
      </trkpt>
      <trkpt lat="37.98494559712707996368408203125" lon="-1.5008774958550930023193359375">
        <ele>473.20001220703125</ele>
        <time>2020-02-22T15:00:21.000Z</time>
      </trkpt>
      <trkpt lat="37.984842248260974884033203125" lon="-1.5008590556681156158447265625">
        <ele>472.399993896484375</ele>
        <time>2020-02-22T15:00:22.000Z</time>
      </trkpt>
      <trkpt lat="37.98474644310772418975830078125" lon="-1.50080499239265918731689453125">
        <ele>472</ele>
        <time>2020-02-22T15:00:23.000Z</time>
      </trkpt>
      <trkpt lat="37.98457830213010311126708984375" lon="-1.50064338929951190948486328125">
        <ele>470.79998779296875</ele>
        <time>2020-02-22T15:00:25.000Z</time>
      </trkpt>
      <trkpt lat="37.98450328409671783447265625" lon="-1.50056652724742889404296875">
        <ele>470</ele>
        <time>2020-02-22T15:00:26.000Z</time>
      </trkpt>
      <trkpt lat="37.98444016836583614349365234375" lon="-1.50050156749784946441650390625">
        <ele>469.399993896484375</ele>
        <time>2020-02-22T15:00:27.000Z</time>
      </trkpt>
      <trkpt lat="37.9843778908252716064453125" lon="-1.50046954862773418426513671875">
        <ele>468.600006103515625</ele>
        <time>2020-02-22T15:00:28.000Z</time>
      </trkpt>
      <trkpt lat="37.984322570264339447021484375" lon="-1.5004827082157135009765625">
        <ele>467.79998779296875</ele>
        <time>2020-02-22T15:00:29.000Z</time>
      </trkpt>
      <trkpt lat="37.9842784814536571502685546875" lon="-1.50060164742171764373779296875">
        <ele>466.79998779296875</ele>
        <time>2020-02-22T15:00:31.000Z</time>
      </trkpt>
      <trkpt lat="37.98427663743495941162109375" lon="-1.500678844749927520751953125">
        <ele>465.399993896484375</ele>
        <time>2020-02-22T15:00:32.000Z</time>
      </trkpt>
      <trkpt lat="37.9842759668827056884765625" lon="-1.50076232850551605224609375">
        <ele>464.79998779296875</ele>
        <time>2020-02-22T15:00:33.000Z</time>
      </trkpt>
      <trkpt lat="37.98429935239255428314208984375" lon="-1.50084790773689746856689453125">
        <ele>464.20001220703125</ele>
        <time>2020-02-22T15:00:34.000Z</time>
      </trkpt>
      <trkpt lat="37.9843430221080780029296875" lon="-1.50093801319599151611328125">
        <ele>464</ele>
        <time>2020-02-22T15:00:35.000Z</time>
      </trkpt>
      <trkpt lat="37.9845215566456317901611328125" lon="-1.50149725377559661865234375">
        <ele>463.20001220703125</ele>
        <time>2020-02-22T15:00:40.000Z</time>
      </trkpt>
      <trkpt lat="37.98457176424562931060791015625" lon="-1.50162004865705966949462890625">
        <ele>462.79998779296875</ele>
        <time>2020-02-22T15:00:41.000Z</time>
      </trkpt>
      <trkpt lat="37.98473688773810863494873046875" lon="-1.5018166042864322662353515625">
        <ele>461.600006103515625</ele>
        <time>2020-02-22T15:00:43.000Z</time>
      </trkpt>
      <trkpt lat="37.984935455024242401123046875" lon="-1.50198600254952907562255859375">
        <ele>460.20001220703125</ele>
        <time>2020-02-22T15:00:45.000Z</time>
      </trkpt>
      <trkpt lat="37.9851428233087062835693359375" lon="-1.50214768946170806884765625">
        <ele>458.600006103515625</ele>
        <time>2020-02-22T15:00:47.000Z</time>
      </trkpt>
      <trkpt lat="37.985360920429229736328125" lon="-1.50229579769074916839599609375">
        <ele>457.79998779296875</ele>
        <time>2020-02-22T15:00:49.000Z</time>
      </trkpt>
      <trkpt lat="37.98559762537479400634765625" lon="-1.5023862384259700775146484375">
        <ele>455.79998779296875</ele>
        <time>2020-02-22T15:00:51.000Z</time>
      </trkpt>
      <trkpt lat="37.9858485795557498931884765625" lon="-1.5024650283157825469970703125">
        <ele>454.399993896484375</ele>
        <time>2020-02-22T15:00:53.000Z</time>
      </trkpt>
      <trkpt lat="37.986100204288959503173828125" lon="-1.5025408007204532623291015625">
        <ele>452.79998779296875</ele>
        <time>2020-02-22T15:00:55.000Z</time>
      </trkpt>
      <trkpt lat="37.98621453344821929931640625" lon="-1.50257558561861515045166015625">
        <ele>452.20001220703125</ele>
        <time>2020-02-22T15:00:56.000Z</time>
      </trkpt>
      <trkpt lat="37.98631922341883182525634765625" lon="-1.50262034498155117034912109375">
        <ele>451.399993896484375</ele>
        <time>2020-02-22T15:00:57.000Z</time>
      </trkpt>
      <trkpt lat="37.9865027032792568206787109375" lon="-1.50272302329540252685546875">
        <ele>450.20001220703125</ele>
        <time>2020-02-22T15:00:59.000Z</time>
      </trkpt>
      <trkpt lat="37.98657554201781749725341796875" lon="-1.50276417843997478485107421875">
        <ele>449.399993896484375</ele>
        <time>2020-02-22T15:01:00.000Z</time>
      </trkpt>
      <trkpt lat="37.98664276488125324249267578125" lon="-1.5028003044426441192626953125">
        <ele>448.399993896484375</ele>
        <time>2020-02-22T15:01:01.000Z</time>
      </trkpt>
      <trkpt lat="37.98670479096472263336181640625" lon="-1.50283634662628173828125">
        <ele>446.399993896484375</ele>
        <time>2020-02-22T15:01:02.000Z</time>
      </trkpt>
      <trkpt lat="37.9868213832378387451171875" lon="-1.5029129572212696075439453125">
        <ele>445.20001220703125</ele>
        <time>2020-02-22T15:01:04.000Z</time>
      </trkpt>
      <trkpt lat="37.9868795536458492279052734375" lon="-1.50294891558587551116943359375">
        <ele>444.79998779296875</ele>
        <time>2020-02-22T15:01:05.000Z</time>
      </trkpt>
      <trkpt lat="37.98699715174734592437744140625" lon="-1.50301764719188213348388671875">
        <ele>444</ele>
        <time>2020-02-22T15:01:07.000Z</time>
      </trkpt>
      <trkpt lat="37.98719278536736965179443359375" lon="-1.50313734076917171478271484375">
        <ele>442.79998779296875</ele>
        <time>2020-02-22T15:01:10.000Z</time>
      </trkpt>
      <trkpt lat="37.987266294658184051513671875" lon="-1.50318310596048831939697265625">
        <ele>442.399993896484375</ele>
        <time>2020-02-22T15:01:11.000Z</time>
      </trkpt>
      <trkpt lat="37.9875128902494907379150390625" lon="-1.50333699770271778106689453125">
        <ele>441.399993896484375</ele>
        <time>2020-02-22T15:01:14.000Z</time>
      </trkpt>
      <trkpt lat="37.987678013741970062255859375" lon="-1.50344328023493289947509765625">
        <ele>440.600006103515625</ele>
        <time>2020-02-22T15:01:16.000Z</time>
      </trkpt>
      <trkpt lat="37.98775680363178253173828125" lon="-1.50349491275846958160400390625">
        <ele>440.20001220703125</ele>
        <time>2020-02-22T15:01:17.000Z</time>
      </trkpt>
      <trkpt lat="37.987911365926265716552734375" lon="-1.5035861916840076446533203125">
        <ele>439.399993896484375</ele>
        <time>2020-02-22T15:01:19.000Z</time>
      </trkpt>
      <trkpt lat="37.98799225129187107086181640625" lon="-1.5036314539611339569091796875">
        <ele>439</ele>
        <time>2020-02-22T15:01:20.000Z</time>
      </trkpt>
      <trkpt lat="37.9880801774561405181884765625" lon="-1.503670513629913330078125">
        <ele>438.600006103515625</ele>
        <time>2020-02-22T15:01:21.000Z</time>
      </trkpt>
      <trkpt lat="37.98815469257533550262451171875" lon="-1.503703035414218902587890625">
        <ele>437.79998779296875</ele>
        <time>2020-02-22T15:01:22.000Z</time>
      </trkpt>
      <trkpt lat="37.98828276805579662322998046875" lon="-1.50374989025294780731201171875">
        <ele>436.399993896484375</ele>
        <time>2020-02-22T15:01:24.000Z</time>
      </trkpt>
      <trkpt lat="37.9883339814841747283935546875" lon="-1.50377218611538410186767578125">
        <ele>435.600006103515625</ele>
        <time>2020-02-22T15:01:25.000Z</time>
      </trkpt>
      <trkpt lat="37.98837714828550815582275390625" lon="-1.50380353443324565887451171875">
        <ele>435</ele>
        <time>2020-02-22T15:01:26.000Z</time>
      </trkpt>
      <trkpt lat="37.9884251765906810760498046875" lon="-1.5039033629000186920166015625">
        <ele>434.20001220703125</ele>
        <time>2020-02-22T15:01:28.000Z</time>
      </trkpt>
      <trkpt lat="37.98842090182006359100341796875" lon="-1.50396530516445636749267578125">
        <ele>433.20001220703125</ele>
        <time>2020-02-22T15:01:29.000Z</time>
      </trkpt>
      <trkpt lat="37.9883973486721515655517578125" lon="-1.50402297265827655792236328125">
        <ele>432.20001220703125</ele>
        <time>2020-02-22T15:01:30.000Z</time>
      </trkpt>
      <trkpt lat="37.9883594624698162078857421875" lon="-1.5040901117026805877685546875">
        <ele>431.79998779296875</ele>
        <time>2020-02-22T15:01:31.000Z</time>
      </trkpt>
      <trkpt lat="37.98831512220203876495361328125" lon="-1.50416814722120761871337890625">
        <ele>431.399993896484375</ele>
        <time>2020-02-22T15:01:32.000Z</time>
      </trkpt>
      <trkpt lat="37.98826952464878559112548828125" lon="-1.50424777530133724212646484375">
        <ele>431</ele>
        <time>2020-02-22T15:01:33.000Z</time>
      </trkpt>
      <trkpt lat="37.988120578229427337646484375" lon="-1.50451214052736759185791015625">
        <ele>430.20001220703125</ele>
        <time>2020-02-22T15:01:36.000Z</time>
      </trkpt>
      <trkpt lat="37.98802225850522518157958984375" lon="-1.5047150664031505584716796875">
        <ele>430</ele>
        <time>2020-02-22T15:01:38.000Z</time>
      </trkpt>
      <trkpt lat="37.987851686775684356689453125" lon="-1.50504724122583866119384765625">
        <ele>428.399993896484375</ele>
        <time>2020-02-22T15:01:41.000Z</time>
      </trkpt>
      <trkpt lat="37.98774297349154949188232421875" lon="-1.5052672661840915679931640625">
        <ele>427.399993896484375</ele>
        <time>2020-02-22T15:01:43.000Z</time>
      </trkpt>
      <trkpt lat="37.98763342201709747314453125" lon="-1.50549835525453090667724609375">
        <ele>426.20001220703125</ele>
        <time>2020-02-22T15:01:45.000Z</time>
      </trkpt>
      <trkpt lat="37.9875769279897212982177734375" lon="-1.50562274269759654998779296875">
        <ele>425.600006103515625</ele>
        <time>2020-02-22T15:01:46.000Z</time>
      </trkpt>
      <trkpt lat="37.9874669574201107025146484375" lon="-1.50586430914700031280517578125">
        <ele>424.79998779296875</ele>
        <time>2020-02-22T15:01:48.000Z</time>
      </trkpt>
      <trkpt lat="37.987388335168361663818359375" lon="-1.50607553310692310333251953125">
        <ele>424.20001220703125</ele>
        <time>2020-02-22T15:01:50.000Z</time>
      </trkpt>
      <trkpt lat="37.98737048171460628509521484375" lon="-1.50618433021008968353271484375">
        <ele>423.600006103515625</ele>
        <time>2020-02-22T15:01:51.000Z</time>
      </trkpt>
      <trkpt lat="37.98736796714365482330322265625" lon="-1.5062918700277805328369140625">
        <ele>422.399993896484375</ele>
        <time>2020-02-22T15:01:52.000Z</time>
      </trkpt>
      <trkpt lat="37.98738137818872928619384765625" lon="-1.50638465769588947296142578125">
        <ele>421.399993896484375</ele>
        <time>2020-02-22T15:01:53.000Z</time>
      </trkpt>
      <trkpt lat="37.98740367405116558074951171875" lon="-1.50647250004112720489501953125">
        <ele>420.399993896484375</ele>
        <time>2020-02-22T15:01:54.000Z</time>
      </trkpt>
      <trkpt lat="37.98743485473096370697021484375" lon="-1.50654114782810211181640625">
        <ele>419.20001220703125</ele>
        <time>2020-02-22T15:01:55.000Z</time>
      </trkpt>
      <trkpt lat="37.98749989829957485198974609375" lon="-1.5066464245319366455078125">
        <ele>417</ele>
        <time>2020-02-22T15:01:57.000Z</time>
      </trkpt>
      <trkpt lat="37.98752739094197750091552734375" lon="-1.5066858194768428802490234375">
        <ele>416.399993896484375</ele>
        <time>2020-02-22T15:01:58.000Z</time>
      </trkpt>
      <trkpt lat="37.98755203373730182647705078125" lon="-1.50671708397567272186279296875">
        <ele>415.79998779296875</ele>
        <time>2020-02-22T15:01:59.000Z</time>
      </trkpt>
      <trkpt lat="37.9875858128070831298828125" lon="-1.5067642740905284881591796875">
        <ele>415</ele>
        <time>2020-02-22T15:02:01.000Z</time>
      </trkpt>
      <trkpt lat="37.9876134730875492095947265625" lon="-1.50680945254862308502197265625">
        <ele>413.399993896484375</ele>
        <time>2020-02-22T15:02:33.000Z</time>
      </trkpt>
      <trkpt lat="37.9876131378114223480224609375" lon="-1.5068112127482891082763671875">
        <ele>413.399993896484375</ele>
        <time>2020-02-22T15:02:34.000Z</time>
      </trkpt>
      <trkpt lat="37.98770642839372158050537109375" lon="-1.50692562572658061981201171875">
        <ele>413.20001220703125</ele>
        <time>2020-02-22T15:03:52.000Z</time>
      </trkpt>
      <trkpt lat="37.98770676366984844207763671875" lon="-1.50692529045045375823974609375">
        <ele>413.20001220703125</ele>
        <time>2020-02-22T15:03:53.000Z</time>
      </trkpt>
      <trkpt lat="37.9877328313887119293212890625" lon="-1.50683476589620113372802734375">
        <ele>413</ele>
        <time>2020-02-22T15:05:46.000Z</time>
      </trkpt>
      <trkpt lat="37.98773341812193393707275390625" lon="-1.5068356879055500030517578125">
        <ele>413</ele>
        <time>2020-02-22T15:05:47.000Z</time>
      </trkpt>
      <trkpt lat="37.987643815577030181884765625" lon="-1.50675111450254917144775390625">
        <ele>413.399993896484375</ele>
        <time>2020-02-22T15:10:35.000Z</time>
      </trkpt>
      <trkpt lat="37.98762076534330844879150390625" lon="-1.506729237735271453857421875">
        <ele>413.399993896484375</ele>
        <time>2020-02-22T15:10:37.000Z</time>
      </trkpt>
      <trkpt lat="37.98758489079773426055908203125" lon="-1.5066931955516338348388671875">
        <ele>413.399993896484375</ele>
        <time>2020-02-22T15:10:41.000Z</time>
      </trkpt>
      <trkpt lat="37.9878495074808597564697265625" lon="-1.5070522762835025787353515625">
        <ele>412.79998779296875</ele>
        <time>2020-02-22T15:12:20.000Z</time>
      </trkpt>
      <trkpt lat="37.987854368984699249267578125" lon="-1.5070633403956890106201171875">
        <ele>412.79998779296875</ele>
        <time>2020-02-22T15:12:21.000Z</time>
      </trkpt>
      <trkpt lat="37.987887561321258544921875" lon="-1.50718948803842067718505859375">
        <ele>412.600006103515625</ele>
        <time>2020-02-22T15:12:26.000Z</time>
      </trkpt>
      <trkpt lat="37.98800817690789699554443359375" lon="-1.50737439282238483428955078125">
        <ele>412</ele>
        <time>2020-02-22T15:12:31.000Z</time>
      </trkpt>
      <trkpt lat="37.98806131817400455474853515625" lon="-1.50744262151420116424560546875">
        <ele>411.79998779296875</ele>
        <time>2020-02-22T15:12:33.000Z</time>
      </trkpt>
      <trkpt lat="37.98823616467416286468505859375" lon="-1.507617719471454620361328125">
        <ele>410.79998779296875</ele>
        <time>2020-02-22T15:12:39.000Z</time>
      </trkpt>
      <trkpt lat="37.988446466624736785888671875" lon="-1.50776557624340057373046875">
        <ele>410.20001220703125</ele>
        <time>2020-02-22T15:12:45.000Z</time>
      </trkpt>
      <trkpt lat="37.988552749156951904296875" lon="-1.507824920117855072021484375">
        <ele>409.600006103515625</ele>
        <time>2020-02-22T15:12:50.000Z</time>
      </trkpt>
      <trkpt lat="37.98859097063541412353515625" lon="-1.50785635225474834442138671875">
        <ele>409.20001220703125</ele>
        <time>2020-02-22T15:12:54.000Z</time>
      </trkpt>
      <trkpt lat="37.9886307008564472198486328125" lon="-1.50789625011384487152099609375">
        <ele>408.20001220703125</ele>
        <time>2020-02-22T15:13:21.000Z</time>
      </trkpt>
      <trkpt lat="37.9886477999389171600341796875" lon="-1.507908403873443603515625">
        <ele>408.20001220703125</ele>
        <time>2020-02-22T15:13:22.000Z</time>
      </trkpt>
      <trkpt lat="37.98880026675760746002197265625" lon="-1.50798761285841464996337890625">
        <ele>408.20001220703125</ele>
        <time>2020-02-22T15:13:27.000Z</time>
      </trkpt>
      <trkpt lat="37.9888724349439144134521484375" lon="-1.5080202184617519378662109375">
        <ele>408.20001220703125</ele>
        <time>2020-02-22T15:13:29.000Z</time>
      </trkpt>
      <trkpt lat="37.98896002583205699920654296875" lon="-1.5080255828797817230224609375">
        <ele>407.79998779296875</ele>
        <time>2020-02-22T15:13:32.000Z</time>
      </trkpt>
      <trkpt lat="37.989002354443073272705078125" lon="-1.5079990960657596588134765625">
        <ele>407</ele>
        <time>2020-02-22T15:13:34.000Z</time>
      </trkpt>
      <trkpt lat="37.98903261311352252960205078125" lon="-1.50797369889914989471435546875">
        <ele>406.20001220703125</ele>
        <time>2020-02-22T15:13:36.000Z</time>
      </trkpt>
      <trkpt lat="37.9890417493879795074462890625" lon="-1.507969088852405548095703125">
        <ele>406</ele>
        <time>2020-02-22T15:13:37.000Z</time>
      </trkpt>
      <trkpt lat="37.989042587578296661376953125" lon="-1.5079695917665958404541015625">
        <ele>405.79998779296875</ele>
        <time>2020-02-22T15:13:38.000Z</time>
      </trkpt>
      <trkpt lat="37.98917611129581928253173828125" lon="-1.50802063755691051483154296875">
        <ele>404.600006103515625</ele>
        <time>2020-02-22T15:13:58.000Z</time>
      </trkpt>
      <trkpt lat="37.98917359672486782073974609375" lon="-1.5080376528203487396240234375">
        <ele>404.600006103515625</ele>
        <time>2020-02-22T15:13:59.000Z</time>
      </trkpt>
      <trkpt lat="37.98917711712419986724853515625" lon="-1.5081402473151683807373046875">
        <ele>404.600006103515625</ele>
        <time>2020-02-22T15:14:05.000Z</time>
      </trkpt>
      <trkpt lat="37.9891738481819629669189453125" lon="-1.508140079677104949951171875">
        <ele>404.600006103515625</ele>
        <time>2020-02-22T15:14:06.000Z</time>
      </trkpt>
      <trkpt lat="37.9890105687081813812255859375" lon="-1.508423723280429840087890625">
        <ele>393.79998779296875</ele>
        <time>2020-02-22T15:21:28.000Z</time>
      </trkpt>
      <trkpt lat="37.98901165835559368133544921875" lon="-1.5084564127027988433837890625">
        <ele>393.79998779296875</ele>
        <time>2020-02-22T15:21:29.000Z</time>
      </trkpt>
      <trkpt lat="37.98908877186477184295654296875" lon="-1.5085479430854320526123046875">
        <ele>394</ele>
        <time>2020-02-22T15:21:33.000Z</time>
      </trkpt>
      <trkpt lat="37.98910805024206638336181640625" lon="-1.5084024332463741302490234375">
        <ele>394.20001220703125</ele>
        <time>2020-02-22T15:21:36.000Z</time>
      </trkpt>
      <trkpt lat="37.9876372776925563812255859375" lon="-1.50538452900946140289306640625">
        <ele>410.79998779296875</ele>
        <time>2020-02-22T16:02:53.000Z</time>
      </trkpt>
      <trkpt lat="37.98771162517368793487548828125" lon="-1.5052397735416889190673828125">
        <ele>410.79998779296875</ele>
        <time>2020-02-22T16:02:58.000Z</time>
      </trkpt>
      <trkpt lat="37.98777415417134761810302734375" lon="-1.50511362589895725250244140625">
        <ele>409.79998779296875</ele>
        <time>2020-02-22T16:03:02.000Z</time>
      </trkpt>
      <trkpt lat="37.98790910281240940093994140625" lon="-1.5047908388078212738037109375">
        <ele>411.600006103515625</ele>
        <time>2020-02-22T16:03:12.000Z</time>
      </trkpt>
      <trkpt lat="37.987920083105564117431640625" lon="-1.5047596581280231475830078125">
        <ele>411.79998779296875</ele>
        <time>2020-02-22T16:03:13.000Z</time>
      </trkpt>
      <trkpt lat="37.98799308948218822479248046875" lon="-1.50464348495006561279296875">
        <ele>413</ele>
        <time>2020-02-22T16:03:17.000Z</time>
      </trkpt>
      <trkpt lat="37.98805327154695987701416015625" lon="-1.5044790320098400115966796875">
        <ele>414</ele>
        <time>2020-02-22T16:03:22.000Z</time>
      </trkpt>
      <trkpt lat="37.98806685023009777069091796875" lon="-1.50444592349231243133544921875">
        <ele>414.20001220703125</ele>
        <time>2020-02-22T16:03:23.000Z</time>
      </trkpt>
      <trkpt lat="37.988148070871829986572265625" lon="-1.50424073450267314910888671875">
        <ele>415.399993896484375</ele>
        <time>2020-02-22T16:03:29.000Z</time>
      </trkpt>
      <trkpt lat="37.98821143805980682373046875" lon="-1.50410779751837253570556640625">
        <ele>416.600006103515625</ele>
        <time>2020-02-22T16:03:33.000Z</time>
      </trkpt>
      <trkpt lat="37.98822845332324504852294921875" lon="-1.50407711975276470184326171875">
        <ele>416.79998779296875</ele>
        <time>2020-02-22T16:03:34.000Z</time>
      </trkpt>
      <trkpt lat="37.98832249827682971954345703125" lon="-1.50393060408532619476318359375">
        <ele>417.600006103515625</ele>
        <time>2020-02-22T16:03:39.000Z</time>
      </trkpt>
      <trkpt lat="37.98838033340871334075927734375" lon="-1.50380856357514858245849609375">
        <ele>418.20001220703125</ele>
        <time>2020-02-22T16:03:43.000Z</time>
      </trkpt>
      <trkpt lat="37.98838913440704345703125" lon="-1.50377872399985790252685546875">
        <ele>418.600006103515625</ele>
        <time>2020-02-22T16:03:44.000Z</time>
      </trkpt>
      <trkpt lat="37.9884318821132183074951171875" lon="-1.5035825036466121673583984375">
        <ele>419.399993896484375</ele>
        <time>2020-02-22T16:03:49.000Z</time>
      </trkpt>
      <trkpt lat="37.98846800811588764190673828125" lon="-1.50325720198452472686767578125">
        <ele>419.600006103515625</ele>
        <time>2020-02-22T16:03:54.000Z</time>
      </trkpt>
      <trkpt lat="37.98851318657398223876953125" lon="-1.50303508155047893524169921875">
        <ele>419.20001220703125</ele>
        <time>2020-02-22T16:03:57.000Z</time>
      </trkpt>
      <trkpt lat="37.98853590153157711029052734375" lon="-1.50288588367402553558349609375">
        <ele>418.79998779296875</ele>
        <time>2020-02-22T16:03:59.000Z</time>
      </trkpt>
      <trkpt lat="37.98855065368115901947021484375" lon="-1.50281715206801891326904296875">
        <ele>418.600006103515625</ele>
        <time>2020-02-22T16:04:00.000Z</time>
      </trkpt>
      <trkpt lat="37.988571859896183013916015625" lon="-1.502756215631961822509765625">
        <ele>418.399993896484375</ele>
        <time>2020-02-22T16:04:01.000Z</time>
      </trkpt>
      <trkpt lat="37.9887172020971775054931640625" lon="-1.50256670080125331878662109375">
        <ele>417.600006103515625</ele>
        <time>2020-02-22T16:04:05.000Z</time>
      </trkpt>
      <trkpt lat="37.98892700113356113433837890625" lon="-1.5023899264633655548095703125">
        <ele>417.399993896484375</ele>
        <time>2020-02-22T16:04:11.000Z</time>
      </trkpt>
      <trkpt lat="37.98913353122770786285400390625" lon="-1.50223628617823123931884765625">
        <ele>418.600006103515625</ele>
        <time>2020-02-22T16:04:18.000Z</time>
      </trkpt>
      <trkpt lat="37.989169321954250335693359375" lon="-1.50221784599125385284423828125">
        <ele>419.20001220703125</ele>
        <time>2020-02-22T16:04:19.000Z</time>
      </trkpt>
      <trkpt lat="37.9893119819462299346923828125" lon="-1.50215297006070613861083984375">
        <ele>419.79998779296875</ele>
        <time>2020-02-22T16:04:23.000Z</time>
      </trkpt>
      <trkpt lat="37.98944315873086452484130859375" lon="-1.50213922373950481414794921875">
        <ele>420.600006103515625</ele>
        <time>2020-02-22T16:04:27.000Z</time>
      </trkpt>
      <trkpt lat="37.989501915872097015380859375" lon="-1.50215716101229190826416015625">
        <ele>420.79998779296875</ele>
        <time>2020-02-22T16:04:29.000Z</time>
      </trkpt>
      <trkpt lat="37.989611215889453887939453125" lon="-1.5022028423845767974853515625">
        <ele>422</ele>
        <time>2020-02-22T16:04:33.000Z</time>
      </trkpt>
      <trkpt lat="37.9897082783281803131103515625" lon="-1.50219521485269069671630859375">
        <ele>422.79998779296875</ele>
        <time>2020-02-22T16:04:36.000Z</time>
      </trkpt>
      <trkpt lat="37.989741973578929901123046875" lon="-1.502180881798267364501953125">
        <ele>423</ele>
        <time>2020-02-22T16:04:37.000Z</time>
      </trkpt>
      <trkpt lat="37.9897780157625675201416015625" lon="-1.5021617710590362548828125">
        <ele>423.399993896484375</ele>
        <time>2020-02-22T16:04:38.000Z</time>
      </trkpt>
      <trkpt lat="37.98992260359227657318115234375" lon="-1.50208323262631893157958984375">
        <ele>424.20001220703125</ele>
        <time>2020-02-22T16:04:42.000Z</time>
      </trkpt>
      <trkpt lat="37.99005906097590923309326171875" lon="-1.50198248215019702911376953125">
        <ele>424.399993896484375</ele>
        <time>2020-02-22T16:04:46.000Z</time>
      </trkpt>
      <trkpt lat="37.990256287157535552978515625" lon="-1.501831524074077606201171875">
        <ele>425.399993896484375</ele>
        <time>2020-02-22T16:04:53.000Z</time>
      </trkpt>
      <trkpt lat="37.9903147928416728973388671875" lon="-1.5017777122557163238525390625">
        <ele>425.79998779296875</ele>
        <time>2020-02-22T16:04:55.000Z</time>
      </trkpt>
      <trkpt lat="37.99034781754016876220703125" lon="-1.50175147689878940582275390625">
        <ele>425.79998779296875</ele>
        <time>2020-02-22T16:04:56.000Z</time>
      </trkpt>
      <trkpt lat="37.9904093407094478607177734375" lon="-1.50168827734887599945068359375">
        <ele>425.79998779296875</ele>
        <time>2020-02-22T16:04:58.000Z</time>
      </trkpt>
      <trkpt lat="37.990468852221965789794921875" lon="-1.50161904282867908477783203125">
        <ele>426</ele>
        <time>2020-02-22T16:05:00.000Z</time>
      </trkpt>
      <trkpt lat="37.990676052868366241455078125" lon="-1.50127471424639225006103515625">
        <ele>425.79998779296875</ele>
        <time>2020-02-22T16:05:08.000Z</time>
      </trkpt>
      <trkpt lat="37.99069507978856563568115234375" lon="-1.501216627657413482666015625">
        <ele>425.79998779296875</ele>
        <time>2020-02-22T16:05:09.000Z</time>
      </trkpt>
      <trkpt lat="37.990716956555843353271484375" lon="-1.50115661323070526123046875">
        <ele>425.79998779296875</ele>
        <time>2020-02-22T16:05:10.000Z</time>
      </trkpt>
      <trkpt lat="37.99073363654315471649169921875" lon="-1.50094740092754364013671875">
        <ele>425.79998779296875</ele>
        <time>2020-02-22T16:05:13.000Z</time>
      </trkpt>
      <trkpt lat="37.99064663238823413848876953125" lon="-1.5007396973669528961181640625">
        <ele>425.399993896484375</ele>
        <time>2020-02-22T16:05:16.000Z</time>
      </trkpt>
      <trkpt lat="37.990607321262359619140625" lon="-1.5006679482758045196533203125">
        <ele>425.20001220703125</ele>
        <time>2020-02-22T16:05:17.000Z</time>
      </trkpt>
      <trkpt lat="37.990580499172210693359375" lon="-1.500582285225391387939453125">
        <ele>425</ele>
        <time>2020-02-22T16:05:18.000Z</time>
      </trkpt>
      <trkpt lat="37.99056851305067539215087890625" lon="-1.50040836073458194732666015625">
        <ele>424.20001220703125</ele>
        <time>2020-02-22T16:05:20.000Z</time>
      </trkpt>
      <trkpt lat="37.99066239036619663238525390625" lon="-1.50016662664711475372314453125">
        <ele>423.399993896484375</ele>
        <time>2020-02-22T16:05:23.000Z</time>
      </trkpt>
      <trkpt lat="37.9907074011862277984619140625" lon="-1.500084400177001953125">
        <ele>423.399993896484375</ele>
        <time>2020-02-22T16:05:24.000Z</time>
      </trkpt>
      <trkpt lat="37.99075459130108356475830078125" lon="-1.500001251697540283203125">
        <ele>423</ele>
        <time>2020-02-22T16:05:25.000Z</time>
      </trkpt>
      <trkpt lat="37.99088694155216217041015625" lon="-1.4998575858771800994873046875">
        <ele>422.600006103515625</ele>
        <time>2020-02-22T16:05:27.000Z</time>
      </trkpt>
      <trkpt lat="37.9909729398787021636962890625" lon="-1.4998106472194194793701171875">
        <ele>422.399993896484375</ele>
        <time>2020-02-22T16:05:28.000Z</time>
      </trkpt>
      <trkpt lat="37.9911630414426326751708984375" lon="-1.499764882028102874755859375">
        <ele>422</ele>
        <time>2020-02-22T16:05:30.000Z</time>
      </trkpt>
      <trkpt lat="37.99126739613711833953857421875" lon="-1.49975113570690155029296875">
        <ele>421.79998779296875</ele>
        <time>2020-02-22T16:05:31.000Z</time>
      </trkpt>
      <trkpt lat="37.99146906472742557525634765625" lon="-1.49968483485281467437744140625">
        <ele>421</ele>
        <time>2020-02-22T16:05:33.000Z</time>
      </trkpt>
      <trkpt lat="37.99155539833009243011474609375" lon="-1.49962834082543849945068359375">
        <ele>420.79998779296875</ele>
        <time>2020-02-22T16:05:34.000Z</time>
      </trkpt>
      <trkpt lat="37.99163661897182464599609375" lon="-1.49955558590590953826904296875">
        <ele>420.600006103515625</ele>
        <time>2020-02-22T16:05:35.000Z</time>
      </trkpt>
      <trkpt lat="37.99178791232407093048095703125" lon="-1.49937185458838939666748046875">
        <ele>420</ele>
        <time>2020-02-22T16:05:37.000Z</time>
      </trkpt>
      <trkpt lat="37.9918718151748180389404296875" lon="-1.4992810785770416259765625">
        <ele>419.399993896484375</ele>
        <time>2020-02-22T16:05:38.000Z</time>
      </trkpt>
      <trkpt lat="37.9919563047587871551513671875" lon="-1.49920237250626087188720703125">
        <ele>418.399993896484375</ele>
        <time>2020-02-22T16:05:39.000Z</time>
      </trkpt>
      <trkpt lat="37.992103993892669677734375" lon="-1.49905568920075893402099609375">
        <ele>417</ele>
        <time>2020-02-22T16:05:41.000Z</time>
      </trkpt>
      <trkpt lat="37.9922778345644474029541015625" lon="-1.498841531574726104736328125">
        <ele>416.20001220703125</ele>
        <time>2020-02-22T16:05:44.000Z</time>
      </trkpt>
      <trkpt lat="37.9924572072923183441162109375" lon="-1.49860776029527187347412109375">
        <ele>416</ele>
        <time>2020-02-22T16:05:48.000Z</time>
      </trkpt>
      <trkpt lat="37.9924940876662731170654296875" lon="-1.49856149218976497650146484375">
        <ele>416</ele>
        <time>2020-02-22T16:05:49.000Z</time>
      </trkpt>
      <trkpt lat="37.99260213039815425872802734375" lon="-1.4983870647847652435302734375">
        <ele>416.600006103515625</ele>
        <time>2020-02-22T16:05:53.000Z</time>
      </trkpt>
      <trkpt lat="37.99261587671935558319091796875" lon="-1.498339958488941192626953125">
        <ele>417</ele>
        <time>2020-02-22T16:05:54.000Z</time>
      </trkpt>
      <trkpt lat="37.99262040294706821441650390625" lon="-1.49819637648761272430419921875">
        <ele>418</ele>
        <time>2020-02-22T16:05:57.000Z</time>
      </trkpt>
      <trkpt lat="37.99261570908129215240478515625" lon="-1.49815253913402557373046875">
        <ele>418.399993896484375</ele>
        <time>2020-02-22T16:05:58.000Z</time>
      </trkpt>
      <trkpt lat="37.99260950647294521331787109375" lon="-1.4981116354465484619140625">
        <ele>418.79998779296875</ele>
        <time>2020-02-22T16:05:59.000Z</time>
      </trkpt>
      <trkpt lat="37.992603890597820281982421875" lon="-1.498067714273929595947265625">
        <ele>419</ele>
        <time>2020-02-22T16:06:00.000Z</time>
      </trkpt>
      <trkpt lat="37.99261755309998989105224609375" lon="-1.4979024231433868408203125">
        <ele>420.399993896484375</ele>
        <time>2020-02-22T16:06:04.000Z</time>
      </trkpt>
      <trkpt lat="37.9926365800201892852783203125" lon="-1.49776923470199108123779296875">
        <ele>421.600006103515625</ele>
        <time>2020-02-22T16:06:08.000Z</time>
      </trkpt>
      <trkpt lat="37.992644794285297393798828125" lon="-1.497698239982128143310546875">
        <ele>422</ele>
        <time>2020-02-22T16:06:10.000Z</time>
      </trkpt>
      <trkpt lat="37.99265527166426181793212890625" lon="-1.4975644648075103759765625">
        <ele>422.79998779296875</ele>
        <time>2020-02-22T16:06:13.000Z</time>
      </trkpt>
      <trkpt lat="37.99265661276876926422119140625" lon="-1.4973601140081882476806640625">
        <ele>423.79998779296875</ele>
        <time>2020-02-22T16:06:17.000Z</time>
      </trkpt>
      <trkpt lat="37.99261889420449733734130859375" lon="-1.49710069410502910614013671875">
        <ele>424.79998779296875</ele>
        <time>2020-02-22T16:06:23.000Z</time>
      </trkpt>
      <trkpt lat="37.99260799773037433624267578125" lon="-1.4970690943300724029541015625">
        <ele>424.79998779296875</ele>
        <time>2020-02-22T16:06:24.000Z</time>
      </trkpt>
      <trkpt lat="37.992552258074283599853515625" lon="-1.49693372659385204315185546875">
        <ele>425.399993896484375</ele>
        <time>2020-02-22T16:06:29.000Z</time>
      </trkpt>
      <trkpt lat="37.99253826029598712921142578125" lon="-1.49672669358551502227783203125">
        <ele>426</ele>
        <time>2020-02-22T16:06:34.000Z</time>
      </trkpt>
      <trkpt lat="37.99258100800216197967529296875" lon="-1.4965842850506305694580078125">
        <ele>427</ele>
        <time>2020-02-22T16:06:38.000Z</time>
      </trkpt>
      <trkpt lat="37.992621995508670806884765625" lon="-1.4964505098760128021240234375">
        <ele>427.600006103515625</ele>
        <time>2020-02-22T16:06:41.000Z</time>
      </trkpt>
      <trkpt lat="37.99264839850366115570068359375" lon="-1.49635537527501583099365234375">
        <ele>428</ele>
        <time>2020-02-22T16:06:43.000Z</time>
      </trkpt>
      <trkpt lat="37.99271947704255580902099609375" lon="-1.4960961230099201202392578125">
        <ele>429</ele>
        <time>2020-02-22T16:06:49.000Z</time>
      </trkpt>
      <trkpt lat="37.9927302896976470947265625" lon="-1.49605530314147472381591796875">
        <ele>429.20001220703125</ele>
        <time>2020-02-22T16:06:50.000Z</time>
      </trkpt>
      <trkpt lat="37.99276691861450672149658203125" lon="-1.4959056861698627471923828125">
        <ele>430.20001220703125</ele>
        <time>2020-02-22T16:06:54.000Z</time>
      </trkpt>
      <trkpt lat="37.99277831800282001495361328125" lon="-1.49580133147537708282470703125">
        <ele>431</ele>
        <time>2020-02-22T16:06:57.000Z</time>
      </trkpt>
      <trkpt lat="37.99278435297310352325439453125" lon="-1.4957712404429912567138671875">
        <ele>431.20001220703125</ele>
        <time>2020-02-22T16:06:58.000Z</time>
      </trkpt>
      <trkpt lat="37.9928424395620822906494140625" lon="-1.49556496180593967437744140625">
        <ele>432.399993896484375</ele>
        <time>2020-02-22T16:07:03.000Z</time>
      </trkpt>
      <trkpt lat="37.992847301065921783447265625" lon="-1.49551995098590850830078125">
        <ele>432.600006103515625</ele>
        <time>2020-02-22T16:07:04.000Z</time>
      </trkpt>
      <trkpt lat="37.9929229058325290679931640625" lon="-1.4953387342393398284912109375">
        <ele>433.600006103515625</ele>
        <time>2020-02-22T16:07:09.000Z</time>
      </trkpt>
      <trkpt lat="37.9929899610579013824462890625" lon="-1.49523572064936161041259765625">
        <ele>434.600006103515625</ele>
        <time>2020-02-22T16:07:12.000Z</time>
      </trkpt>
      <trkpt lat="37.993015609681606292724609375" lon="-1.49520034901797771453857421875">
        <ele>435.20001220703125</ele>
        <time>2020-02-22T16:07:13.000Z</time>
      </trkpt>
      <trkpt lat="37.9931247420608997344970703125" lon="-1.49504519999027252197265625">
        <ele>436.399993896484375</ele>
        <time>2020-02-22T16:07:18.000Z</time>
      </trkpt>
      <trkpt lat="37.99322842620313167572021484375" lon="-1.49487647227942943572998046875">
        <ele>437.399993896484375</ele>
        <time>2020-02-22T16:07:23.000Z</time>
      </trkpt>
      <trkpt lat="37.99326547421514987945556640625" lon="-1.49467237293720245361328125">
        <ele>438.600006103515625</ele>
        <time>2020-02-22T16:07:28.000Z</time>
      </trkpt>
      <trkpt lat="37.99328324384987354278564453125" lon="-1.49459551088511943817138671875">
        <ele>439</ele>
        <time>2020-02-22T16:07:30.000Z</time>
      </trkpt>
      <trkpt lat="37.99330805428326129913330078125" lon="-1.494521833956241607666015625">
        <ele>439.600006103515625</ele>
        <time>2020-02-22T16:07:32.000Z</time>
      </trkpt>
      <trkpt lat="37.99337997101247310638427734375" lon="-1.49436567910015583038330078125">
        <ele>440.79998779296875</ele>
        <time>2020-02-22T16:07:36.000Z</time>
      </trkpt>
      <trkpt lat="37.99339774064719676971435546875" lon="-1.4943231828510761260986328125">
        <ele>441</ele>
        <time>2020-02-22T16:07:37.000Z</time>
      </trkpt>
      <trkpt lat="37.99351743422448635101318359375" lon="-1.49408538825809955596923828125">
        <ele>441.79998779296875</ele>
        <time>2020-02-22T16:07:43.000Z</time>
      </trkpt>
      <trkpt lat="37.99354911781847476959228515625" lon="-1.49400173686444759368896484375">
        <ele>442.20001220703125</ele>
        <time>2020-02-22T16:07:45.000Z</time>
      </trkpt>
      <trkpt lat="37.9935944639146327972412109375" lon="-1.4938844740390777587890625">
        <ele>443</ele>
        <time>2020-02-22T16:07:48.000Z</time>
      </trkpt>
      <trkpt lat="37.99360292963683605194091796875" lon="-1.49376721121370792388916015625">
        <ele>443.399993896484375</ele>
        <time>2020-02-22T16:07:51.000Z</time>
      </trkpt>
      <trkpt lat="37.99360527656972408294677734375" lon="-1.49372555315494537353515625">
        <ele>443.79998779296875</ele>
        <time>2020-02-22T16:07:52.000Z</time>
      </trkpt>
      <trkpt lat="37.9935901053249835968017578125" lon="-1.493584401905536651611328125">
        <ele>445</ele>
        <time>2020-02-22T16:07:56.000Z</time>
      </trkpt>
      <trkpt lat="37.99358314834535121917724609375" lon="-1.49355246685445308685302734375">
        <ele>445.20001220703125</ele>
        <time>2020-02-22T16:07:57.000Z</time>
      </trkpt>
      <trkpt lat="37.993601672351360321044921875" lon="-1.4934095554053783416748046875">
        <ele>446.20001220703125</ele>
        <time>2020-02-22T16:08:01.000Z</time>
      </trkpt>
      <trkpt lat="37.99371072091162204742431640625" lon="-1.493312828242778778076171875">
        <ele>447.399993896484375</ele>
        <time>2020-02-22T16:08:05.000Z</time>
      </trkpt>
      <trkpt lat="37.9938982240855693817138671875" lon="-1.49325105361640453338623046875">
        <ele>448</ele>
        <time>2020-02-22T16:08:11.000Z</time>
      </trkpt>
      <trkpt lat="37.99392982386052608489990234375" lon="-1.4932321943342685699462890625">
        <ele>448.20001220703125</ele>
        <time>2020-02-22T16:08:12.000Z</time>
      </trkpt>
      <trkpt lat="37.9940541274845600128173828125" lon="-1.49313253350555896759033203125">
        <ele>449.399993896484375</ele>
        <time>2020-02-22T16:08:17.000Z</time>
      </trkpt>
      <trkpt lat="37.99417189322412014007568359375" lon="-1.49306983686983585357666015625">
        <ele>450.399993896484375</ele>
        <time>2020-02-22T16:08:21.000Z</time>
      </trkpt>
      <trkpt lat="37.99426090903580188751220703125" lon="-1.4930484630167484283447265625">
        <ele>451.20001220703125</ele>
        <time>2020-02-22T16:08:24.000Z</time>
      </trkpt>
      <trkpt lat="37.99432151019573211669921875" lon="-1.49303832091391086578369140625">
        <ele>451.600006103515625</ele>
        <time>2020-02-22T16:08:26.000Z</time>
      </trkpt>
      <trkpt lat="37.994476743042469024658203125" lon="-1.49305106140673160552978515625">
        <ele>452.79998779296875</ele>
        <time>2020-02-22T16:08:30.000Z</time>
      </trkpt>
      <trkpt lat="37.99473532475531101226806640625" lon="-1.49310336448252201080322265625">
        <ele>453.20001220703125</ele>
        <time>2020-02-22T16:08:37.000Z</time>
      </trkpt>
      <trkpt lat="37.99485619179904460906982421875" lon="-1.4930729381740093231201171875">
        <ele>453.79998779296875</ele>
        <time>2020-02-22T16:08:41.000Z</time>
      </trkpt>
      <trkpt lat="37.9949365742504596710205078125" lon="-1.49302055127918720245361328125">
        <ele>455</ele>
        <time>2020-02-22T16:08:44.000Z</time>
      </trkpt>
      <trkpt lat="37.99504377879202365875244140625" lon="-1.492917202413082122802734375">
        <ele>456</ele>
        <time>2020-02-22T16:08:49.000Z</time>
      </trkpt>
      <trkpt lat="37.99506842158734798431396484375" lon="-1.49289884604513645172119140625">
        <ele>456.20001220703125</ele>
        <time>2020-02-22T16:08:50.000Z</time>
      </trkpt>
      <trkpt lat="37.99513815902173519134521484375" lon="-1.49285039864480495452880859375">
        <ele>457</ele>
        <time>2020-02-22T16:08:53.000Z</time>
      </trkpt>
      <trkpt lat="37.995245195925235748291015625" lon="-1.4927614666521549224853515625">
        <ele>458</ele>
        <time>2020-02-22T16:08:58.000Z</time>
      </trkpt>
      <trkpt lat="37.99526925198733806610107421875" lon="-1.49274059571325778961181640625">
        <ele>458.20001220703125</ele>
        <time>2020-02-22T16:08:59.000Z</time>
      </trkpt>
      <trkpt lat="37.99535147845745086669921875" lon="-1.49264487437903881072998046875">
        <ele>459.399993896484375</ele>
        <time>2020-02-22T16:09:03.000Z</time>
      </trkpt>
      <trkpt lat="37.99540570937097072601318359375" lon="-1.4925703592598438262939453125">
        <ele>460.20001220703125</ele>
        <time>2020-02-22T16:09:06.000Z</time>
      </trkpt>
      <trkpt lat="37.99542297609150409698486328125" lon="-1.4925448782742023468017578125">
        <ele>460.600006103515625</ele>
        <time>2020-02-22T16:09:07.000Z</time>
      </trkpt>
      <trkpt lat="37.99546924419701099395751953125" lon="-1.49246147833764553070068359375">
        <ele>461.600006103515625</ele>
        <time>2020-02-22T16:09:10.000Z</time>
      </trkpt>
      <trkpt lat="37.9955048672854900360107421875" lon="-1.4922974444925785064697265625">
        <ele>462.79998779296875</ele>
        <time>2020-02-22T16:09:15.000Z</time>
      </trkpt>
      <trkpt lat="37.99554535187780857086181640625" lon="-1.49211698211729526519775390625">
        <ele>464</ele>
        <time>2020-02-22T16:09:20.000Z</time>
      </trkpt>
      <trkpt lat="37.99564057029783725738525390625" lon="-1.491949595510959625244140625">
        <ele>465</ele>
        <time>2020-02-22T16:09:25.000Z</time>
      </trkpt>
      <trkpt lat="37.99571902491152286529541015625" lon="-1.4918334223330020904541015625">
        <ele>466.20001220703125</ele>
        <time>2020-02-22T16:09:29.000Z</time>
      </trkpt>
      <trkpt lat="37.99580971710383892059326171875" lon="-1.4916805364191532135009765625">
        <ele>467</ele>
        <time>2020-02-22T16:09:34.000Z</time>
      </trkpt>
      <trkpt lat="37.99582220613956451416015625" lon="-1.49164809845387935638427734375">
        <ele>467.399993896484375</ele>
        <time>2020-02-22T16:09:35.000Z</time>
      </trkpt>
      <trkpt lat="37.9958833940327167510986328125" lon="-1.49152656085789203643798828125">
        <ele>468.399993896484375</ele>
        <time>2020-02-22T16:09:40.000Z</time>
      </trkpt>
      <trkpt lat="37.9958944581449031829833984375" lon="-1.49146369658410549163818359375">
        <ele>469.600006103515625</ele>
        <time>2020-02-22T16:09:44.000Z</time>
      </trkpt>
      <trkpt lat="37.99589102156460285186767578125" lon="-1.49141256697475910186767578125">
        <ele>470.20001220703125</ele>
        <time>2020-02-22T16:09:48.000Z</time>
      </trkpt>
      <trkpt lat="37.995908372104167938232421875" lon="-1.4914025925099849700927734375">
        <ele>470.79998779296875</ele>
        <time>2020-02-22T16:11:35.000Z</time>
      </trkpt>
      <trkpt lat="37.995908372104167938232421875" lon="-1.4914022572338581085205078125">
        <ele>470.79998779296875</ele>
        <time>2020-02-22T16:11:36.000Z</time>
      </trkpt>
      <trkpt lat="37.9958401434123516082763671875" lon="-1.491305530071258544921875">
        <ele>494.79998779296875</ele>
        <time>2020-02-22T16:19:17.000Z</time>
      </trkpt>
      <trkpt lat="37.9958401434123516082763671875" lon="-1.491305530071258544921875">
        <ele>482.79998779296875</ele>
        <time>2020-02-22T16:19:18.000Z</time>
      </trkpt>
      <trkpt lat="37.99582891166210174560546875" lon="-1.491236127912998199462890625">
        <ele>471.20001220703125</ele>
        <time>2020-02-22T16:19:25.000Z</time>
      </trkpt>
      <trkpt lat="37.99582421779632568359375" lon="-1.49121777154505252838134765625">
        <ele>471.20001220703125</ele>
        <time>2020-02-22T16:19:26.000Z</time>
      </trkpt>
      <trkpt lat="37.99578255973756313323974609375" lon="-1.491091288626194000244140625">
        <ele>471</ele>
        <time>2020-02-22T16:19:31.000Z</time>
      </trkpt>
      <trkpt lat="37.995773591101169586181640625" lon="-1.49106672964990139007568359375">
        <ele>471</ele>
        <time>2020-02-22T16:19:32.000Z</time>
      </trkpt>
      <trkpt lat="37.99573897384107112884521484375" lon="-1.4909332059323787689208984375">
        <ele>471.399993896484375</ele>
        <time>2020-02-22T16:19:37.000Z</time>
      </trkpt>
      <trkpt lat="37.9957236349582672119140625" lon="-1.49087009020149707794189453125">
        <ele>471.399993896484375</ele>
        <time>2020-02-22T16:19:39.000Z</time>
      </trkpt>
      <trkpt lat="37.99569748342037200927734375" lon="-1.49074964225292205810546875">
        <ele>472.20001220703125</ele>
        <time>2020-02-22T16:19:43.000Z</time>
      </trkpt>
      <trkpt lat="37.995683737099170684814453125" lon="-1.49065266363322734832763671875">
        <ele>472.79998779296875</ele>
        <time>2020-02-22T16:19:46.000Z</time>
      </trkpt>
      <trkpt lat="37.99567158333957195281982421875" lon="-1.49054219014942646026611328125">
        <ele>473.399993896484375</ele>
        <time>2020-02-22T16:19:49.000Z</time>
      </trkpt>
      <trkpt lat="37.99566051922738552093505859375" lon="-1.49042216129601001739501953125">
        <ele>473.79998779296875</ele>
        <time>2020-02-22T16:19:52.000Z</time>
      </trkpt>
      <trkpt lat="37.995656915009021759033203125" lon="-1.49034588597714900970458984375">
        <ele>474.20001220703125</ele>
        <time>2020-02-22T16:19:54.000Z</time>
      </trkpt>
      <trkpt lat="37.99565582536160945892333984375" lon="-1.49030967615544795989990234375">
        <ele>474.399993896484375</ele>
        <time>2020-02-22T16:19:55.000Z</time>
      </trkpt>
      <trkpt lat="37.99565448425710201263427734375" lon="-1.4902245998382568359375">
        <ele>474.600006103515625</ele>
        <time>2020-02-22T16:19:58.000Z</time>
      </trkpt>
      <trkpt lat="37.99564844928681850433349609375" lon="-1.49016450159251689910888671875">
        <ele>475.399993896484375</ele>
        <time>2020-02-22T16:20:00.000Z</time>
      </trkpt>
      <trkpt lat="37.99560762941837310791015625" lon="-1.4899847097694873809814453125">
        <ele>476.399993896484375</ele>
        <time>2020-02-22T16:20:06.000Z</time>
      </trkpt>
      <trkpt lat="37.99558726139366626739501953125" lon="-1.489926874637603759765625">
        <ele>476.79998779296875</ele>
        <time>2020-02-22T16:20:08.000Z</time>
      </trkpt>
      <trkpt lat="37.99555792473256587982177734375" lon="-1.48976669646799564361572265625">
        <ele>477.600006103515625</ele>
        <time>2020-02-22T16:20:13.000Z</time>
      </trkpt>
      <trkpt lat="37.99552322365343570709228515625" lon="-1.4896682091057300567626953125">
        <ele>478.20001220703125</ele>
        <time>2020-02-22T16:20:17.000Z</time>
      </trkpt>
      <trkpt lat="37.9955078847706317901611328125" lon="-1.48955211974680423736572265625">
        <ele>478.79998779296875</ele>
        <time>2020-02-22T16:20:21.000Z</time>
      </trkpt>
      <trkpt lat="37.9954777099192142486572265625" lon="-1.4893569052219390869140625">
        <ele>479.600006103515625</ele>
        <time>2020-02-22T16:20:26.000Z</time>
      </trkpt>
      <trkpt lat="37.99546413123607635498046875" lon="-1.4893087930977344512939453125">
        <ele>480</ele>
        <time>2020-02-22T16:20:27.000Z</time>
      </trkpt>
      <trkpt lat="37.99543730914592742919921875" lon="-1.4891297556459903717041015625">
        <ele>481.20001220703125</ele>
        <time>2020-02-22T16:20:31.000Z</time>
      </trkpt>
      <trkpt lat="37.9954420030117034912109375" lon="-1.48901685141026973724365234375">
        <ele>481.79998779296875</ele>
        <time>2020-02-22T16:20:34.000Z</time>
      </trkpt>
      <trkpt lat="37.99547561444342136383056640625" lon="-1.48893420584499835968017578125">
        <ele>482.20001220703125</ele>
        <time>2020-02-22T16:20:36.000Z</time>
      </trkpt>
      <trkpt lat="37.99555490724742412567138671875" lon="-1.48877813480794429779052734375">
        <ele>482.399993896484375</ele>
        <time>2020-02-22T16:20:40.000Z</time>
      </trkpt>
      <trkpt lat="37.99562766216695308685302734375" lon="-1.4885956607758998870849609375">
        <ele>482.399993896484375</ele>
        <time>2020-02-22T16:20:44.000Z</time>
      </trkpt>
      <trkpt lat="37.99575657583773136138916015625" lon="-1.4883188903331756591796875">
        <ele>482.399993896484375</ele>
        <time>2020-02-22T16:20:50.000Z</time>
      </trkpt>
      <trkpt lat="37.9958823882043361663818359375" lon="-1.48805494420230388641357421875">
        <ele>483</ele>
        <time>2020-02-22T16:20:56.000Z</time>
      </trkpt>
      <trkpt lat="37.99597031436860561370849609375" lon="-1.48791714571416378021240234375">
        <ele>483.600006103515625</ele>
        <time>2020-02-22T16:21:00.000Z</time>
      </trkpt>
      <trkpt lat="37.99608933739364147186279296875" lon="-1.48776174522936344146728515625">
        <ele>484.20001220703125</ele>
        <time>2020-02-22T16:21:05.000Z</time>
      </trkpt>
      <trkpt lat="37.99621640704572200775146484375" lon="-1.48757784627377986907958984375">
        <ele>485.20001220703125</ele>
        <time>2020-02-22T16:21:10.000Z</time>
      </trkpt>
      <trkpt lat="37.9962293989956378936767578125" lon="-1.48754012770950794219970703125">
        <ele>485.399993896484375</ele>
        <time>2020-02-22T16:21:11.000Z</time>
      </trkpt>
      <trkpt lat="37.99631179310381412506103515625" lon="-1.4873273111879825592041015625">
        <ele>486.399993896484375</ele>
        <time>2020-02-22T16:21:16.000Z</time>
      </trkpt>
      <trkpt lat="37.9963772557675838470458984375" lon="-1.4871449209749698638916015625">
        <ele>486.79998779296875</ele>
        <time>2020-02-22T16:21:20.000Z</time>
      </trkpt>
      <trkpt lat="37.9964483343064785003662109375" lon="-1.48685733787715435028076171875">
        <ele>487.399993896484375</ele>
        <time>2020-02-22T16:21:26.000Z</time>
      </trkpt>
      <trkpt lat="37.996574901044368743896484375" lon="-1.48635023273527622222900390625">
        <ele>488.399993896484375</ele>
        <time>2020-02-22T16:21:36.000Z</time>
      </trkpt>
      <trkpt lat="37.99666173756122589111328125" lon="-1.4859808422625064849853515625">
        <ele>489.399993896484375</ele>
        <time>2020-02-22T16:21:44.000Z</time>
      </trkpt>
      <trkpt lat="37.99668378196656703948974609375" lon="-1.485882438719272613525390625">
        <ele>489.600006103515625</ele>
        <time>2020-02-22T16:21:46.000Z</time>
      </trkpt>
      <trkpt lat="37.99668562598526477813720703125" lon="-1.48549519479274749755859375">
        <ele>490.20001220703125</ele>
        <time>2020-02-22T16:21:53.000Z</time>
      </trkpt>
      <trkpt lat="37.99659946002066135406494140625" lon="-1.48486831225454807281494140625">
        <ele>490.399993896484375</ele>
        <time>2020-02-22T16:22:02.000Z</time>
      </trkpt>
      <trkpt lat="37.99647532403469085693359375" lon="-1.48416942916810512542724609375">
        <ele>490.20001220703125</ele>
        <time>2020-02-22T16:22:11.000Z</time>
      </trkpt>
      <trkpt lat="37.9964319057762622833251953125" lon="-1.4839380048215389251708984375">
        <ele>490.20001220703125</ele>
        <time>2020-02-22T16:22:14.000Z</time>
      </trkpt>
      <trkpt lat="37.9963941872119903564453125" lon="-1.48370272479951381683349609375">
        <ele>490.20001220703125</ele>
        <time>2020-02-22T16:22:17.000Z</time>
      </trkpt>
      <trkpt lat="37.996367700397968292236328125" lon="-1.4834479987621307373046875">
        <ele>490</ele>
        <time>2020-02-22T16:22:20.000Z</time>
      </trkpt>
      <trkpt lat="37.9963115416467189788818359375" lon="-1.4828580804169178009033203125">
        <ele>489</ele>
        <time>2020-02-22T16:22:26.000Z</time>
      </trkpt>
      <trkpt lat="37.996281199157238006591796875" lon="-1.4826642908155918121337890625">
        <ele>488.399993896484375</ele>
        <time>2020-02-22T16:22:28.000Z</time>
      </trkpt>
      <trkpt lat="37.99622193910181522369384765625" lon="-1.48236145265400409698486328125">
        <ele>487</ele>
        <time>2020-02-22T16:22:31.000Z</time>
      </trkpt>
      <trkpt lat="37.99619411118328571319580078125" lon="-1.48227109573781490325927734375">
        <ele>486.600006103515625</ele>
        <time>2020-02-22T16:22:32.000Z</time>
      </trkpt>
      <trkpt lat="37.9961532913148403167724609375" lon="-1.48219616152346134185791015625">
        <ele>486.20001220703125</ele>
        <time>2020-02-22T16:22:33.000Z</time>
      </trkpt>
      <trkpt lat="37.9960964620113372802734375" lon="-1.48213631473481655120849609375">
        <ele>485.79998779296875</ele>
        <time>2020-02-22T16:22:34.000Z</time>
      </trkpt>
      <trkpt lat="37.9959516227245330810546875" lon="-1.4820478856563568115234375">
        <ele>485.600006103515625</ele>
        <time>2020-02-22T16:22:36.000Z</time>
      </trkpt>
      <trkpt lat="37.995865456759929656982421875" lon="-1.48201175965368747711181640625">
        <ele>485.399993896484375</ele>
        <time>2020-02-22T16:22:37.000Z</time>
      </trkpt>
      <trkpt lat="37.9955397360026836395263671875" lon="-1.481864154338836669921875">
        <ele>484.79998779296875</ele>
        <time>2020-02-22T16:22:41.000Z</time>
      </trkpt>
      <trkpt lat="37.99546438269317150115966796875" lon="-1.48184529505670070648193359375">
        <ele>484.79998779296875</ele>
        <time>2020-02-22T16:22:42.000Z</time>
      </trkpt>
      <trkpt lat="37.9953305236995220184326171875" lon="-1.4818820916116237640380859375">
        <ele>483.399993896484375</ele>
        <time>2020-02-22T16:22:44.000Z</time>
      </trkpt>
      <trkpt lat="37.9952138476073741912841796875" lon="-1.4820128493010997772216796875">
        <ele>482</ele>
        <time>2020-02-22T16:22:46.000Z</time>
      </trkpt>
      <trkpt lat="37.9951514862477779388427734375" lon="-1.482082419097423553466796875">
        <ele>481.79998779296875</ele>
        <time>2020-02-22T16:22:47.000Z</time>
      </trkpt>
      <trkpt lat="37.99508099444210529327392578125" lon="-1.48214167915284633636474609375">
        <ele>481.600006103515625</ele>
        <time>2020-02-22T16:22:48.000Z</time>
      </trkpt>
      <trkpt lat="37.9949288628995418548583984375" lon="-1.48219549097120761871337890625">
        <ele>481.20001220703125</ele>
        <time>2020-02-22T16:22:50.000Z</time>
      </trkpt>
      <trkpt lat="37.99485736526548862457275390625" lon="-1.48218392394483089447021484375">
        <ele>480.600006103515625</ele>
        <time>2020-02-22T16:22:51.000Z</time>
      </trkpt>
      <trkpt lat="37.994755022227764129638671875" lon="-1.48208132945001125335693359375">
        <ele>479.399993896484375</ele>
        <time>2020-02-22T16:22:53.000Z</time>
      </trkpt>
      <trkpt lat="37.99472157843410968780517578125" lon="-1.48181210272014141082763671875">
        <ele>477.79998779296875</ele>
        <time>2020-02-22T16:22:56.000Z</time>
      </trkpt>
      <trkpt lat="37.994721494615077972412109375" lon="-1.48138512857258319854736328125">
        <ele>477</ele>
        <time>2020-02-22T16:23:00.000Z</time>
      </trkpt>
      <trkpt lat="37.99468000419437885284423828125" lon="-1.4811619184911251068115234375">
        <ele>476.600006103515625</ele>
        <time>2020-02-22T16:23:02.000Z</time>
      </trkpt>
      <trkpt lat="37.9945909045636653900146484375" lon="-1.480978019535541534423828125">
        <ele>475.20001220703125</ele>
        <time>2020-02-22T16:23:04.000Z</time>
      </trkpt>
      <trkpt lat="37.99437741748988628387451171875" lon="-1.48084935732185840606689453125">
        <ele>473.399993896484375</ele>
        <time>2020-02-22T16:23:07.000Z</time>
      </trkpt>
      <trkpt lat="37.99430952407419681549072265625" lon="-1.48079596459865570068359375">
        <ele>472.399993896484375</ele>
        <time>2020-02-22T16:23:08.000Z</time>
      </trkpt>
      <trkpt lat="37.99429879523813724517822265625" lon="-1.48067015223205089569091796875">
        <ele>470.79998779296875</ele>
        <time>2020-02-22T16:23:10.000Z</time>
      </trkpt>
      <trkpt lat="37.9943619109690189361572265625" lon="-1.48053386248648166656494140625">
        <ele>469.399993896484375</ele>
        <time>2020-02-22T16:23:12.000Z</time>
      </trkpt>
      <trkpt lat="37.99440206028521060943603515625" lon="-1.48045339621603488922119140625">
        <ele>468.600006103515625</ele>
        <time>2020-02-22T16:23:13.000Z</time>
      </trkpt>
      <trkpt lat="37.99443810246884822845458984375" lon="-1.48036119528114795684814453125">
        <ele>468.20001220703125</ele>
        <time>2020-02-22T16:23:14.000Z</time>
      </trkpt>
      <trkpt lat="37.9944631643593311309814453125" lon="-1.48026195354759693145751953125">
        <ele>467.399993896484375</ele>
        <time>2020-02-22T16:23:15.000Z</time>
      </trkpt>
      <trkpt lat="37.99446928314864635467529296875" lon="-1.48014955222606658935546875">
        <ele>466.600006103515625</ele>
        <time>2020-02-22T16:23:16.000Z</time>
      </trkpt>
      <trkpt lat="37.9944497533142566680908203125" lon="-1.48003178648650646209716796875">
        <ele>466.20001220703125</ele>
        <time>2020-02-22T16:23:17.000Z</time>
      </trkpt>
      <trkpt lat="37.9944085143506526947021484375" lon="-1.47977932356297969818115234375">
        <ele>465.600006103515625</ele>
        <time>2020-02-22T16:23:19.000Z</time>
      </trkpt>
      <trkpt lat="37.99438378773629665374755859375" lon="-1.47964001633226871490478515625">
        <ele>465</ele>
        <time>2020-02-22T16:23:20.000Z</time>
      </trkpt>
      <trkpt lat="37.994350008666515350341796875" lon="-1.47949752397835254669189453125">
        <ele>463</ele>
        <time>2020-02-22T16:23:21.000Z</time>
      </trkpt>
      <trkpt lat="37.99431388266384601593017578125" lon="-1.47935754619538784027099609375">
        <ele>462.20001220703125</ele>
        <time>2020-02-22T16:23:22.000Z</time>
      </trkpt>
      <trkpt lat="37.99426208250224590301513671875" lon="-1.479221843183040618896484375">
        <ele>461.600006103515625</ele>
        <time>2020-02-22T16:23:23.000Z</time>
      </trkpt>
      <trkpt lat="37.994206845760345458984375" lon="-1.4790939353406429290771484375">
        <ele>460.79998779296875</ele>
        <time>2020-02-22T16:23:24.000Z</time>
      </trkpt>
      <trkpt lat="37.99415110610425472259521484375" lon="-1.47896896116435527801513671875">
        <ele>460</ele>
        <time>2020-02-22T16:23:25.000Z</time>
      </trkpt>
      <trkpt lat="37.994094528257846832275390625" lon="-1.478838622570037841796875">
        <ele>459</ele>
        <time>2020-02-22T16:23:26.000Z</time>
      </trkpt>
      <trkpt lat="37.99403593875467777252197265625" lon="-1.4786986447870731353759765625">
        <ele>457.600006103515625</ele>
        <time>2020-02-22T16:23:27.000Z</time>
      </trkpt>
      <trkpt lat="37.993985228240489959716796875" lon="-1.47856830619275569915771484375">
        <ele>456.399993896484375</ele>
        <time>2020-02-22T16:23:28.000Z</time>
      </trkpt>
      <trkpt lat="37.99393502064049243927001953125" lon="-1.4784458465874195098876953125">
        <ele>455.20001220703125</ele>
        <time>2020-02-22T16:23:29.000Z</time>
      </trkpt>
      <trkpt lat="37.99388573504984378814697265625" lon="-1.47835255600512027740478515625">
        <ele>454</ele>
        <time>2020-02-22T16:23:30.000Z</time>
      </trkpt>
      <trkpt lat="37.99384273588657379150390625" lon="-1.4782845787703990936279296875">
        <ele>452.399993896484375</ele>
        <time>2020-02-22T16:23:31.000Z</time>
      </trkpt>
      <trkpt lat="37.99380392767488956451416015625" lon="-1.47822733037173748016357421875">
        <ele>450.600006103515625</ele>
        <time>2020-02-22T16:23:32.000Z</time>
      </trkpt>
      <trkpt lat="37.99377794377505779266357421875" lon="-1.47816337645053863525390625">
        <ele>449.20001220703125</ele>
        <time>2020-02-22T16:23:33.000Z</time>
      </trkpt>
      <trkpt lat="37.99377257935702800750732421875" lon="-1.4780894480645656585693359375">
        <ele>448</ele>
        <time>2020-02-22T16:23:34.000Z</time>
      </trkpt>
      <trkpt lat="37.99380409531295299530029296875" lon="-1.47801375947892665863037109375">
        <ele>446.79998779296875</ele>
        <time>2020-02-22T16:23:35.000Z</time>
      </trkpt>
      <trkpt lat="37.993932254612445831298828125" lon="-1.47792960517108440399169921875">
        <ele>445.399993896484375</ele>
        <time>2020-02-22T16:23:37.000Z</time>
      </trkpt>
      <trkpt lat="37.99401582218706607818603515625" lon="-1.477901525795459747314453125">
        <ele>445.20001220703125</ele>
        <time>2020-02-22T16:23:38.000Z</time>
      </trkpt>
      <trkpt lat="37.99410131759941577911376953125" lon="-1.47787663154304027557373046875">
        <ele>445</ele>
        <time>2020-02-22T16:23:39.000Z</time>
      </trkpt>
      <trkpt lat="37.9943833686411380767822265625" lon="-1.47774402983486652374267578125">
        <ele>444.600006103515625</ele>
        <time>2020-02-22T16:23:42.000Z</time>
      </trkpt>
      <trkpt lat="37.99446794204413890838623046875" lon="-1.47766523994505405426025390625">
        <ele>444.20001220703125</ele>
        <time>2020-02-22T16:23:43.000Z</time>
      </trkpt>
      <trkpt lat="37.99459048546850681304931640625" lon="-1.47745368070900440216064453125">
        <ele>442.399993896484375</ele>
        <time>2020-02-22T16:23:45.000Z</time>
      </trkpt>
      <trkpt lat="37.99464873969554901123046875" lon="-1.47719778120517730712890625">
        <ele>441</ele>
        <time>2020-02-22T16:23:47.000Z</time>
      </trkpt>
      <trkpt lat="37.994643710553646087646484375" lon="-1.47706358693540096282958984375">
        <ele>440.399993896484375</ele>
        <time>2020-02-22T16:23:48.000Z</time>
      </trkpt>
      <trkpt lat="37.99461252987384796142578125" lon="-1.4769401215016841888427734375">
        <ele>439.79998779296875</ele>
        <time>2020-02-22T16:23:49.000Z</time>
      </trkpt>
      <trkpt lat="37.994566597044467926025390625" lon="-1.47682084701955318450927734375">
        <ele>438</ele>
        <time>2020-02-22T16:23:50.000Z</time>
      </trkpt>
      <trkpt lat="37.9945154674351215362548828125" lon="-1.476697884500026702880859375">
        <ele>436.79998779296875</ele>
        <time>2020-02-22T16:23:51.000Z</time>
      </trkpt>
      <trkpt lat="37.99446006305515766143798828125" lon="-1.47657550871372222900390625">
        <ele>435.600006103515625</ele>
        <time>2020-02-22T16:23:52.000Z</time>
      </trkpt>
      <trkpt lat="37.99440960399806499481201171875" lon="-1.4764522947371006011962890625">
        <ele>435</ele>
        <time>2020-02-22T16:23:53.000Z</time>
      </trkpt>
      <trkpt lat="37.99437574110925197601318359375" lon="-1.47632178850471973419189453125">
        <ele>434</ele>
        <time>2020-02-22T16:23:54.000Z</time>
      </trkpt>
      <trkpt lat="37.9943622462451457977294921875" lon="-1.47617560811340808868408203125">
        <ele>433.399993896484375</ele>
        <time>2020-02-22T16:23:55.000Z</time>
      </trkpt>
      <trkpt lat="37.99436551518738269805908203125" lon="-1.4760157652199268341064453125">
        <ele>432.600006103515625</ele>
        <time>2020-02-22T16:23:56.000Z</time>
      </trkpt>
      <trkpt lat="37.994374819099903106689453125" lon="-1.4758528210222721099853515625">
        <ele>432.20001220703125</ele>
        <time>2020-02-22T16:23:57.000Z</time>
      </trkpt>
      <trkpt lat="37.9943878948688507080078125" lon="-1.4756838418543338775634765625">
        <ele>431.20001220703125</ele>
        <time>2020-02-22T16:23:58.000Z</time>
      </trkpt>
      <trkpt lat="37.9944018088281154632568359375" lon="-1.4755125157535076141357421875">
        <ele>430</ele>
        <time>2020-02-22T16:23:59.000Z</time>
      </trkpt>
      <trkpt lat="37.9944147169589996337890625" lon="-1.47533959709107875823974609375">
        <ele>428.79998779296875</ele>
        <time>2020-02-22T16:24:00.000Z</time>
      </trkpt>
      <trkpt lat="37.99444246105849742889404296875" lon="-1.47499929182231426239013671875">
        <ele>427.399993896484375</ele>
        <time>2020-02-22T16:24:02.000Z</time>
      </trkpt>
      <trkpt lat="37.99447431229054927825927734375" lon="-1.4746729843318462371826171875">
        <ele>426.20001220703125</ele>
        <time>2020-02-22T16:24:04.000Z</time>
      </trkpt>
      <trkpt lat="37.99449761398136615753173828125" lon="-1.4745175838470458984375">
        <ele>425.20001220703125</ele>
        <time>2020-02-22T16:24:05.000Z</time>
      </trkpt>
      <trkpt lat="37.994535751640796661376953125" lon="-1.474369056522846221923828125">
        <ele>423.600006103515625</ele>
        <time>2020-02-22T16:24:06.000Z</time>
      </trkpt>
      <trkpt lat="37.99465251155197620391845703125" lon="-1.47410829551517963409423828125">
        <ele>421.20001220703125</ele>
        <time>2020-02-22T16:24:08.000Z</time>
      </trkpt>
      <trkpt lat="37.99470095895230770111083984375" lon="-1.4739806391298770904541015625">
        <ele>419.600006103515625</ele>
        <time>2020-02-22T16:24:09.000Z</time>
      </trkpt>
      <trkpt lat="37.9947250150144100189208984375" lon="-1.4738458581268787384033203125">
        <ele>418</ele>
        <time>2020-02-22T16:24:10.000Z</time>
      </trkpt>
      <trkpt lat="37.99472359009087085723876953125" lon="-1.47370881401002407073974609375">
        <ele>416.79998779296875</ele>
        <time>2020-02-22T16:24:11.000Z</time>
      </trkpt>
      <trkpt lat="37.99470766447484493255615234375" lon="-1.47357319481670856475830078125">
        <ele>415.79998779296875</ele>
        <time>2020-02-22T16:24:12.000Z</time>
      </trkpt>
      <trkpt lat="37.99468536861240863800048828125" lon="-1.473436988890171051025390625">
        <ele>414.79998779296875</ele>
        <time>2020-02-22T16:24:13.000Z</time>
      </trkpt>
      <trkpt lat="37.99466039054095745086669921875" lon="-1.47330028004944324493408203125">
        <ele>413.79998779296875</ele>
        <time>2020-02-22T16:24:14.000Z</time>
      </trkpt>
      <trkpt lat="37.9946361668407917022705078125" lon="-1.4731632359325885772705078125">
        <ele>413</ele>
        <time>2020-02-22T16:24:15.000Z</time>
      </trkpt>
      <trkpt lat="37.99461244605481624603271484375" lon="-1.4730267785489559173583984375">
        <ele>412.399993896484375</ele>
        <time>2020-02-22T16:24:16.000Z</time>
      </trkpt>
      <trkpt lat="37.9945292137563228607177734375" lon="-1.472459994256496429443359375">
        <ele>411</ele>
        <time>2020-02-22T16:24:20.000Z</time>
      </trkpt>
      <trkpt lat="37.99446903169155120849609375" lon="-1.47203712724149227142333984375">
        <ele>410.399993896484375</ele>
        <time>2020-02-22T16:24:23.000Z</time>
      </trkpt>
      <trkpt lat="37.9944011382758617401123046875" lon="-1.47163932211697101593017578125">
        <ele>409.79998779296875</ele>
        <time>2020-02-22T16:24:26.000Z</time>
      </trkpt>
      <trkpt lat="37.9943555407226085662841796875" lon="-1.47138283587992191314697265625">
        <ele>408.399993896484375</ele>
        <time>2020-02-22T16:24:28.000Z</time>
      </trkpt>
      <trkpt lat="37.99433500505983829498291015625" lon="-1.4712560176849365234375">
        <ele>407.20001220703125</ele>
        <time>2020-02-22T16:24:29.000Z</time>
      </trkpt>
      <trkpt lat="37.9943153075873851776123046875" lon="-1.47113054059445858001708984375">
        <ele>406.399993896484375</ele>
        <time>2020-02-22T16:24:30.000Z</time>
      </trkpt>
      <trkpt lat="37.9942966997623443603515625" lon="-1.47100615315139293670654296875">
        <ele>405.600006103515625</ele>
        <time>2020-02-22T16:24:31.000Z</time>
      </trkpt>
      <trkpt lat="37.99424012191593647003173828125" lon="-1.47063818760216236114501953125">
        <ele>404.20001220703125</ele>
        <time>2020-02-22T16:24:34.000Z</time>
      </trkpt>
      <trkpt lat="37.99414607696235179901123046875" lon="-1.4700558967888355255126953125">
        <ele>403.399993896484375</ele>
        <time>2020-02-22T16:24:39.000Z</time>
      </trkpt>
      <trkpt lat="37.994128055870532989501953125" lon="-1.4699452556669712066650390625">
        <ele>403</ele>
        <time>2020-02-22T16:24:40.000Z</time>
      </trkpt>
      <trkpt lat="37.994036860764026641845703125" lon="-1.46952440030872821807861328125">
        <ele>402</ele>
        <time>2020-02-22T16:24:44.000Z</time>
      </trkpt>
      <trkpt lat="37.9940081946551799774169921875" lon="-1.46942515857517719268798828125">
        <ele>401.79998779296875</ele>
        <time>2020-02-22T16:24:45.000Z</time>
      </trkpt>
      <trkpt lat="37.99397424794733524322509765625" lon="-1.46932859905064105987548828125">
        <ele>401.600006103515625</ele>
        <time>2020-02-22T16:24:46.000Z</time>
      </trkpt>
      <trkpt lat="37.993932925164699554443359375" lon="-1.469236649572849273681640625">
        <ele>401.399993896484375</ele>
        <time>2020-02-22T16:24:47.000Z</time>
      </trkpt>
      <trkpt lat="37.99388422630727291107177734375" lon="-1.4691518247127532958984375">
        <ele>401</ele>
        <time>2020-02-22T16:24:48.000Z</time>
      </trkpt>
      <trkpt lat="37.99376964569091796875" lon="-1.46899768151342868804931640625">
        <ele>400.600006103515625</ele>
        <time>2020-02-22T16:24:50.000Z</time>
      </trkpt>
      <trkpt lat="37.993705272674560546875" lon="-1.4689211547374725341796875">
        <ele>400.399993896484375</ele>
        <time>2020-02-22T16:24:51.000Z</time>
      </trkpt>
      <trkpt lat="37.993638217449188232421875" lon="-1.4688462205231189727783203125">
        <ele>400.399993896484375</ele>
        <time>2020-02-22T16:24:52.000Z</time>
      </trkpt>
      <trkpt lat="37.99343101680278778076171875" lon="-1.46862410008907318115234375">
        <ele>399.600006103515625</ele>
        <time>2020-02-22T16:24:55.000Z</time>
      </trkpt>
      <trkpt lat="37.9932896979153156280517578125" lon="-1.468469202518463134765625">
        <ele>399.20001220703125</ele>
        <time>2020-02-22T16:24:57.000Z</time>
      </trkpt>
      <trkpt lat="37.99315164797008037567138671875" lon="-1.46830500103533267974853515625">
        <ele>398.399993896484375</ele>
        <time>2020-02-22T16:24:59.000Z</time>
      </trkpt>
      <trkpt lat="37.9927968420088291168212890625" lon="-1.4678833074867725372314453125">
        <ele>397.399993896484375</ele>
        <time>2020-02-22T16:25:04.000Z</time>
      </trkpt>
      <trkpt lat="37.99265577457845211029052734375" lon="-1.46771441213786602020263671875">
        <ele>396.79998779296875</ele>
        <time>2020-02-22T16:25:06.000Z</time>
      </trkpt>
      <trkpt lat="37.99251177348196506500244140625" lon="-1.4675424993038177490234375">
        <ele>396</ele>
        <time>2020-02-22T16:25:08.000Z</time>
      </trkpt>
      <trkpt lat="37.9922962747514247894287109375" lon="-1.4672845043241977691650390625">
        <ele>394.600006103515625</ele>
        <time>2020-02-22T16:25:11.000Z</time>
      </trkpt>
      <trkpt lat="37.99208211712539196014404296875" lon="-1.46701343357563018798828125">
        <ele>392.79998779296875</ele>
        <time>2020-02-22T16:25:14.000Z</time>
      </trkpt>
      <trkpt lat="37.9919283092021942138671875" lon="-1.46682660095393657684326171875">
        <ele>391.79998779296875</ele>
        <time>2020-02-22T16:25:16.000Z</time>
      </trkpt>
      <trkpt lat="37.9918532073497772216796875" lon="-1.46673121489584445953369140625">
        <ele>390.79998779296875</ele>
        <time>2020-02-22T16:25:17.000Z</time>
      </trkpt>
      <trkpt lat="37.9917781054973602294921875" lon="-1.4666367508471012115478515625">
        <ele>389.79998779296875</ele>
        <time>2020-02-22T16:25:18.000Z</time>
      </trkpt>
      <trkpt lat="37.9915506206452846527099609375" lon="-1.4663641713559627532958984375">
        <ele>388.399993896484375</ele>
        <time>2020-02-22T16:25:21.000Z</time>
      </trkpt>
      <trkpt lat="37.991398908197879791259765625" lon="-1.4661831222474575042724609375">
        <ele>387.20001220703125</ele>
        <time>2020-02-22T16:25:23.000Z</time>
      </trkpt>
      <trkpt lat="37.99125197343528270721435546875" lon="-1.4660040847957134246826171875">
        <ele>386</ele>
        <time>2020-02-22T16:25:25.000Z</time>
      </trkpt>
      <trkpt lat="37.9910363070666790008544921875" lon="-1.465745754539966583251953125">
        <ele>384.79998779296875</ele>
        <time>2020-02-22T16:25:28.000Z</time>
      </trkpt>
      <trkpt lat="37.9906086623668670654296875" lon="-1.4652312733232975006103515625">
        <ele>383.79998779296875</ele>
        <time>2020-02-22T16:25:34.000Z</time>
      </trkpt>
      <trkpt lat="37.9905367456376552581787109375" lon="-1.4651477895677089691162109375">
        <ele>383.79998779296875</ele>
        <time>2020-02-22T16:25:35.000Z</time>
      </trkpt>
      <trkpt lat="37.990466170012950897216796875" lon="-1.46506438963115215301513671875">
        <ele>383.600006103515625</ele>
        <time>2020-02-22T16:25:36.000Z</time>
      </trkpt>
      <trkpt lat="37.99019887112081050872802734375" lon="-1.46470899693667888641357421875">
        <ele>382.79998779296875</ele>
        <time>2020-02-22T16:25:40.000Z</time>
      </trkpt>
      <trkpt lat="37.99008898437023162841796875" lon="-1.46451353095471858978271484375">
        <ele>382.600006103515625</ele>
        <time>2020-02-22T16:25:42.000Z</time>
      </trkpt>
      <trkpt lat="37.98994473181664943695068359375" lon="-1.464198119938373565673828125">
        <ele>382</ele>
        <time>2020-02-22T16:25:45.000Z</time>
      </trkpt>
      <trkpt lat="37.989845909178256988525390625" lon="-1.46397977136075496673583984375">
        <ele>381</ele>
        <time>2020-02-22T16:25:47.000Z</time>
      </trkpt>
      <trkpt lat="37.9897414706647396087646484375" lon="-1.46375589072704315185546875">
        <ele>380.399993896484375</ele>
        <time>2020-02-22T16:25:49.000Z</time>
      </trkpt>
      <trkpt lat="37.98963569104671478271484375" lon="-1.46352413110435009002685546875">
        <ele>380</ele>
        <time>2020-02-22T16:25:51.000Z</time>
      </trkpt>
      <trkpt lat="37.9895825497806072235107421875" lon="-1.4634063653647899627685546875">
        <ele>379.600006103515625</ele>
        <time>2020-02-22T16:25:52.000Z</time>
      </trkpt>
      <trkpt lat="37.9894313402473926544189453125" lon="-1.46308609284460544586181640625">
        <ele>378.399993896484375</ele>
        <time>2020-02-22T16:25:55.000Z</time>
      </trkpt>
      <trkpt lat="37.98938490450382232666015625" lon="-1.46298785693943500518798828125">
        <ele>377.79998779296875</ele>
        <time>2020-02-22T16:25:56.000Z</time>
      </trkpt>
      <trkpt lat="37.9893398098647594451904296875" lon="-1.462893895804882049560546875">
        <ele>377.20001220703125</ele>
        <time>2020-02-22T16:25:57.000Z</time>
      </trkpt>
      <trkpt lat="37.9892355389893054962158203125" lon="-1.4627257548272609710693359375">
        <ele>376.20001220703125</ele>
        <time>2020-02-22T16:25:59.000Z</time>
      </trkpt>
      <trkpt lat="37.9891715012490749359130859375" lon="-1.4626674167811870574951171875">
        <ele>375.79998779296875</ele>
        <time>2020-02-22T16:26:00.000Z</time>
      </trkpt>
      <trkpt lat="37.9890216328203678131103515625" lon="-1.462612934410572052001953125">
        <ele>375.20001220703125</ele>
        <time>2020-02-22T16:26:02.000Z</time>
      </trkpt>
      <trkpt lat="37.9889391548931598663330078125" lon="-1.46260254085063934326171875">
        <ele>375.20001220703125</ele>
        <time>2020-02-22T16:26:03.000Z</time>
      </trkpt>
      <trkpt lat="37.98885676078498363494873046875" lon="-1.46259784698486328125">
        <ele>375</ele>
        <time>2020-02-22T16:26:04.000Z</time>
      </trkpt>
      <trkpt lat="37.988526932895183563232421875" lon="-1.46259809844195842742919921875">
        <ele>375</ele>
        <time>2020-02-22T16:26:08.000Z</time>
      </trkpt>
      <trkpt lat="37.98836432397365570068359375" lon="-1.46259105764329433441162109375">
        <ele>374.79998779296875</ele>
        <time>2020-02-22T16:26:10.000Z</time>
      </trkpt>
      <trkpt lat="37.9881168901920318603515625" lon="-1.4625363238155841827392578125">
        <ele>374.79998779296875</ele>
        <time>2020-02-22T16:26:13.000Z</time>
      </trkpt>
      <trkpt lat="37.98803617246448993682861328125" lon="-1.4624945819377899169921875">
        <ele>374.79998779296875</ele>
        <time>2020-02-22T16:26:14.000Z</time>
      </trkpt>
      <trkpt lat="37.9877293109893798828125" lon="-1.46226382814347743988037109375">
        <ele>374.20001220703125</ele>
        <time>2020-02-22T16:26:18.000Z</time>
      </trkpt>
      <trkpt lat="37.98765278421342372894287109375" lon="-1.46220213733613491058349609375">
        <ele>374</ele>
        <time>2020-02-22T16:26:19.000Z</time>
      </trkpt>
      <trkpt lat="37.9875779338181018829345703125" lon="-1.46213776431977748870849609375">
        <ele>374</ele>
        <time>2020-02-22T16:26:20.000Z</time>
      </trkpt>
      <trkpt lat="37.987291105091571807861328125" lon="-1.461833082139492034912109375">
        <ele>372.399993896484375</ele>
        <time>2020-02-22T16:26:24.000Z</time>
      </trkpt>
      <trkpt lat="37.9869965650141239166259765625" lon="-1.46170844323933124542236328125">
        <ele>371.600006103515625</ele>
        <time>2020-02-22T16:26:27.000Z</time>
      </trkpt>
      <trkpt lat="37.986782155930995941162109375" lon="-1.4616914279758930206298828125">
        <ele>371.399993896484375</ele>
        <time>2020-02-22T16:26:29.000Z</time>
      </trkpt>
      <trkpt lat="37.9866783879697322845458984375" lon="-1.46170861087739467620849609375">
        <ele>371</ele>
        <time>2020-02-22T16:26:30.000Z</time>
      </trkpt>
      <trkpt lat="37.98648032359778881072998046875" lon="-1.46177181042730808258056640625">
        <ele>370</ele>
        <time>2020-02-22T16:26:32.000Z</time>
      </trkpt>
      <trkpt lat="37.98638544045388698577880859375" lon="-1.4617873169481754302978515625">
        <ele>369.399993896484375</ele>
        <time>2020-02-22T16:26:33.000Z</time>
      </trkpt>
      <trkpt lat="37.98629659228026866912841796875" lon="-1.46177818067371845245361328125">
        <ele>369</ele>
        <time>2020-02-22T16:26:34.000Z</time>
      </trkpt>
      <trkpt lat="37.98613700084388256072998046875" lon="-1.4617073535919189453125">
        <ele>367.79998779296875</ele>
        <time>2020-02-22T16:26:36.000Z</time>
      </trkpt>
      <trkpt lat="37.9860587976872920989990234375" lon="-1.46166619844734668731689453125">
        <ele>367.20001220703125</ele>
        <time>2020-02-22T16:26:37.000Z</time>
      </trkpt>
      <trkpt lat="37.98597657121717929840087890625" lon="-1.46163116209208965301513671875">
        <ele>366.79998779296875</ele>
        <time>2020-02-22T16:26:38.000Z</time>
      </trkpt>
      <trkpt lat="37.98570164479315280914306640625" lon="-1.46156092174351215362548828125">
        <ele>366.20001220703125</ele>
        <time>2020-02-22T16:26:41.000Z</time>
      </trkpt>
      <trkpt lat="37.9854221083223819732666015625" lon="-1.46149755455553531646728515625">
        <ele>366</ele>
        <time>2020-02-22T16:26:44.000Z</time>
      </trkpt>
      <trkpt lat="37.985334433615207672119140625" lon="-1.4614657871425151824951171875">
        <ele>366</ele>
        <time>2020-02-22T16:26:45.000Z</time>
      </trkpt>
      <trkpt lat="37.9851817153394222259521484375" lon="-1.4613541401922702789306640625">
        <ele>365.79998779296875</ele>
        <time>2020-02-22T16:26:47.000Z</time>
      </trkpt>
      <trkpt lat="37.98508465290069580078125" lon="-1.4611630327999591827392578125">
        <ele>365.79998779296875</ele>
        <time>2020-02-22T16:26:49.000Z</time>
      </trkpt>
      <trkpt lat="37.98505942337214946746826171875" lon="-1.46105130203068256378173828125">
        <ele>365.600006103515625</ele>
        <time>2020-02-22T16:26:50.000Z</time>
      </trkpt>
      <trkpt lat="37.98504232428967952728271484375" lon="-1.46082297898828983306884765625">
        <ele>364.79998779296875</ele>
        <time>2020-02-22T16:26:52.000Z</time>
      </trkpt>
      <trkpt lat="37.985038720071315765380859375" lon="-1.4607140980660915374755859375">
        <ele>364.399993896484375</ele>
        <time>2020-02-22T16:26:53.000Z</time>
      </trkpt>
      <trkpt lat="37.98503729514777660369873046875" lon="-1.46060924045741558074951171875">
        <ele>364.399993896484375</ele>
        <time>2020-02-22T16:26:54.000Z</time>
      </trkpt>
      <trkpt lat="37.9850001633167266845703125" lon="-1.45986693911254405975341796875">
        <ele>364.20001220703125</ele>
        <time>2020-02-22T16:27:01.000Z</time>
      </trkpt>
      <trkpt lat="37.9849731735885143280029296875" lon="-1.45931147038936614990234375">
        <ele>364</ele>
        <time>2020-02-22T16:27:06.000Z</time>
      </trkpt>
      <trkpt lat="37.98496185801923274993896484375" lon="-1.4591037668287754058837890625">
        <ele>364</ele>
        <time>2020-02-22T16:27:08.000Z</time>
      </trkpt>
      <trkpt lat="37.9849493689835071563720703125" lon="-1.45889304578304290771484375">
        <ele>363.79998779296875</ele>
        <time>2020-02-22T16:27:10.000Z</time>
      </trkpt>
      <trkpt lat="37.98492514528334140777587890625" lon="-1.4584741182625293731689453125">
        <ele>363.20001220703125</ele>
        <time>2020-02-22T16:27:14.000Z</time>
      </trkpt>
      <trkpt lat="37.98490603454411029815673828125" lon="-1.45817614160478115081787109375">
        <ele>361.79998779296875</ele>
        <time>2020-02-22T16:27:17.000Z</time>
      </trkpt>
      <trkpt lat="37.98489547334611415863037109375" lon="-1.4579775743186473846435546875">
        <ele>361.399993896484375</ele>
        <time>2020-02-22T16:27:19.000Z</time>
      </trkpt>
      <trkpt lat="37.98486311919987201690673828125" lon="-1.4574801921844482421875">
        <ele>360.600006103515625</ele>
        <time>2020-02-22T16:27:24.000Z</time>
      </trkpt>
      <trkpt lat="37.98481550998985767364501953125" lon="-1.45718716084957122802734375">
        <ele>360.399993896484375</ele>
        <time>2020-02-22T16:27:27.000Z</time>
      </trkpt>
      <trkpt lat="37.98469212837517261505126953125" lon="-1.456900499761104583740234375">
        <ele>360.20001220703125</ele>
        <time>2020-02-22T16:27:30.000Z</time>
      </trkpt>
      <trkpt lat="37.98463814891874790191650390625" lon="-1.4568131603300571441650390625">
        <ele>360.20001220703125</ele>
        <time>2020-02-22T16:27:31.000Z</time>
      </trkpt>
      <trkpt lat="37.98447168432176113128662109375" lon="-1.456556506454944610595703125">
        <ele>359.79998779296875</ele>
        <time>2020-02-22T16:27:34.000Z</time>
      </trkpt>
      <trkpt lat="37.984309494495391845703125" lon="-1.456295661628246307373046875">
        <ele>359.600006103515625</ele>
        <time>2020-02-22T16:27:37.000Z</time>
      </trkpt>
      <trkpt lat="37.984210588037967681884765625" lon="-1.45610480569303035736083984375">
        <ele>359.399993896484375</ele>
        <time>2020-02-22T16:27:39.000Z</time>
      </trkpt>
      <trkpt lat="37.9840669222176074981689453125" lon="-1.45567917264997959136962890625">
        <ele>358.79998779296875</ele>
        <time>2020-02-22T16:27:43.000Z</time>
      </trkpt>
      <trkpt lat="37.9840401001274585723876953125" lon="-1.4555676095187664031982421875">
        <ele>358.20001220703125</ele>
        <time>2020-02-22T16:27:44.000Z</time>
      </trkpt>
      <trkpt lat="37.9840139485895633697509765625" lon="-1.455455124378204345703125">
        <ele>357.79998779296875</ele>
        <time>2020-02-22T16:27:45.000Z</time>
      </trkpt>
      <trkpt lat="37.98390992917120456695556640625" lon="-1.45502672530710697174072265625">
        <ele>356.79998779296875</ele>
        <time>2020-02-22T16:27:49.000Z</time>
      </trkpt>
      <trkpt lat="37.983883358538150787353515625" lon="-1.45492128096520900726318359375">
        <ele>356.600006103515625</ele>
        <time>2020-02-22T16:27:50.000Z</time>
      </trkpt>
      <trkpt lat="37.9838556982576847076416015625" lon="-1.4548154175281524658203125">
        <ele>356.399993896484375</ele>
        <time>2020-02-22T16:27:51.000Z</time>
      </trkpt>
      <trkpt lat="37.98380314372479915618896484375" lon="-1.45460209809243679046630859375">
        <ele>356</ele>
        <time>2020-02-22T16:27:53.000Z</time>
      </trkpt>
      <trkpt lat="37.9836924187839031219482421875" lon="-1.454164646565914154052734375">
        <ele>355.399993896484375</ele>
        <time>2020-02-22T16:27:57.000Z</time>
      </trkpt>
      <trkpt lat="37.98361136578023433685302734375" lon="-1.453835405409336090087890625">
        <ele>354.79998779296875</ele>
        <time>2020-02-22T16:28:00.000Z</time>
      </trkpt>
      <trkpt lat="37.98358353786170482635498046875" lon="-1.45372836850583553314208984375">
        <ele>354.399993896484375</ele>
        <time>2020-02-22T16:28:01.000Z</time>
      </trkpt>
      <trkpt lat="37.9833960346877574920654296875" lon="-1.453001238405704498291015625">
        <ele>353.20001220703125</ele>
        <time>2020-02-22T16:28:08.000Z</time>
      </trkpt>
      <trkpt lat="37.98331967554986476898193359375" lon="-1.4526959694921970367431640625">
        <ele>352.399993896484375</ele>
        <time>2020-02-22T16:28:11.000Z</time>
      </trkpt>
      <trkpt lat="37.98329385928809642791748046875" lon="-1.45259563811123371124267578125">
        <ele>352</ele>
        <time>2020-02-22T16:28:12.000Z</time>
      </trkpt>
      <trkpt lat="37.983161844313144683837890625" lon="-1.45209507085382938385009765625">
        <ele>351</ele>
        <time>2020-02-22T16:28:17.000Z</time>
      </trkpt>
      <trkpt lat="37.98310794867575168609619140625" lon="-1.45190161652863025665283203125">
        <ele>350.399993896484375</ele>
        <time>2020-02-22T16:28:19.000Z</time>
      </trkpt>
      <trkpt lat="37.98301599919795989990234375" lon="-1.4515100978314876556396484375">
        <ele>349.79998779296875</ele>
        <time>2020-02-22T16:28:23.000Z</time>
      </trkpt>
      <trkpt lat="37.98295833170413970947265625" lon="-1.451196782290935516357421875">
        <ele>349.600006103515625</ele>
        <time>2020-02-22T16:28:26.000Z</time>
      </trkpt>
      <trkpt lat="37.9829417355358600616455078125" lon="-1.4510879851877689361572265625">
        <ele>349.399993896484375</ele>
        <time>2020-02-22T16:28:27.000Z</time>
      </trkpt>
      <trkpt lat="37.98291164450347423553466796875" lon="-1.45087248645722866058349609375">
        <ele>348.79998779296875</ele>
        <time>2020-02-22T16:28:29.000Z</time>
      </trkpt>
      <trkpt lat="37.9828491993248462677001953125" lon="-1.45034023560583591461181640625">
        <ele>347.600006103515625</ele>
        <time>2020-02-22T16:28:34.000Z</time>
      </trkpt>
      <trkpt lat="37.98282296396791934967041015625" lon="-1.450131274759769439697265625">
        <ele>347</ele>
        <time>2020-02-22T16:28:36.000Z</time>
      </trkpt>
      <trkpt lat="37.982787676155567169189453125" lon="-1.4499188773334026336669921875">
        <ele>346.600006103515625</ele>
        <time>2020-02-22T16:28:38.000Z</time>
      </trkpt>
      <trkpt lat="37.98273294232785701751708984375" lon="-1.4497058093547821044921875">
        <ele>346.20001220703125</ele>
        <time>2020-02-22T16:28:40.000Z</time>
      </trkpt>
      <trkpt lat="37.9826988279819488525390625" lon="-1.44959986209869384765625">
        <ele>345.600006103515625</ele>
        <time>2020-02-22T16:28:41.000Z</time>
      </trkpt>
      <trkpt lat="37.98257519491016864776611328125" lon="-1.44929132424294948577880859375">
        <ele>344.600006103515625</ele>
        <time>2020-02-22T16:28:44.000Z</time>
      </trkpt>
      <trkpt lat="37.9825300164520740509033203125" lon="-1.44918789155781269073486328125">
        <ele>344.600006103515625</ele>
        <time>2020-02-22T16:28:45.000Z</time>
      </trkpt>
      <trkpt lat="37.98244376666843891143798828125" lon="-1.44898052327334880828857421875">
        <ele>344.20001220703125</ele>
        <time>2020-02-22T16:28:47.000Z</time>
      </trkpt>
      <trkpt lat="37.98235709778964519500732421875" lon="-1.448769383132457733154296875">
        <ele>343.399993896484375</ele>
        <time>2020-02-22T16:28:49.000Z</time>
      </trkpt>
      <trkpt lat="37.9821541719138622283935546875" lon="-1.4482968114316463470458984375">
        <ele>342.20001220703125</ele>
        <time>2020-02-22T16:28:54.000Z</time>
      </trkpt>
      <trkpt lat="37.9818705283105373382568359375" lon="-1.44764713011682033538818359375">
        <ele>341.20001220703125</ele>
        <time>2020-02-22T16:29:02.000Z</time>
      </trkpt>
      <trkpt lat="37.981831133365631103515625" lon="-1.44755912013351917266845703125">
        <ele>340.79998779296875</ele>
        <time>2020-02-22T16:29:03.000Z</time>
      </trkpt>
      <trkpt lat="37.98164061270654201507568359375" lon="-1.44720288924872875213623046875">
        <ele>340.20001220703125</ele>
        <time>2020-02-22T16:29:07.000Z</time>
      </trkpt>
      <trkpt lat="37.98159082420170307159423828125" lon="-1.44711689092218875885009765625">
        <ele>340</ele>
        <time>2020-02-22T16:29:08.000Z</time>
      </trkpt>
      <trkpt lat="37.9815419577062129974365234375" lon="-1.44703365862369537353515625">
        <ele>339.79998779296875</ele>
        <time>2020-02-22T16:29:09.000Z</time>
      </trkpt>
      <trkpt lat="37.98134925775229930877685546875" lon="-1.4467017352581024169921875">
        <ele>338.79998779296875</ele>
        <time>2020-02-22T16:29:13.000Z</time>
      </trkpt>
      <trkpt lat="37.981276251375675201416015625" lon="-1.44652546383440494537353515625">
        <ele>338.20001220703125</ele>
        <time>2020-02-22T16:29:15.000Z</time>
      </trkpt>
      <trkpt lat="37.98116552643477916717529296875" lon="-1.4460233040153980255126953125">
        <ele>337.79998779296875</ele>
        <time>2020-02-22T16:29:20.000Z</time>
      </trkpt>
      <trkpt lat="37.9810470901429653167724609375" lon="-1.445372365415096282958984375">
        <ele>337.399993896484375</ele>
        <time>2020-02-22T16:29:26.000Z</time>
      </trkpt>
      <trkpt lat="37.9809934459626674652099609375" lon="-1.4450577087700366973876953125">
        <ele>336.79998779296875</ele>
        <time>2020-02-22T16:29:29.000Z</time>
      </trkpt>
      <trkpt lat="37.98097408376634120941162109375" lon="-1.44495503045618534088134765625">
        <ele>336.600006103515625</ele>
        <time>2020-02-22T16:29:30.000Z</time>
      </trkpt>
      <trkpt lat="37.98086947761476039886474609375" lon="-1.44444800913333892822265625">
        <ele>335.20001220703125</ele>
        <time>2020-02-22T16:29:35.000Z</time>
      </trkpt>
      <trkpt lat="37.98083980567753314971923828125" lon="-1.44435002468526363372802734375">
        <ele>334.79998779296875</ele>
        <time>2020-02-22T16:29:36.000Z</time>
      </trkpt>
      <trkpt lat="37.9808003269135951995849609375" lon="-1.4442530460655689239501953125">
        <ele>334.600006103515625</ele>
        <time>2020-02-22T16:29:37.000Z</time>
      </trkpt>
      <trkpt lat="37.98068918287754058837890625" lon="-1.444077529013156890869140625">
        <ele>334.20001220703125</ele>
        <time>2020-02-22T16:29:39.000Z</time>
      </trkpt>
      <trkpt lat="37.98040092922747135162353515625" lon="-1.44375591538846492767333984375">
        <ele>333</ele>
        <time>2020-02-22T16:29:43.000Z</time>
      </trkpt>
      <trkpt lat="37.98032440245151519775390625" lon="-1.4436733536422252655029296875">
        <ele>332.79998779296875</ele>
        <time>2020-02-22T16:29:44.000Z</time>
      </trkpt>
      <trkpt lat="37.9801700077950954437255859375" lon="-1.443506889045238494873046875">
        <ele>331.79998779296875</ele>
        <time>2020-02-22T16:29:46.000Z</time>
      </trkpt>
      <trkpt lat="37.97994227148592472076416015625" lon="-1.4432549290359020233154296875">
        <ele>330.79998779296875</ele>
        <time>2020-02-22T16:29:49.000Z</time>
      </trkpt>
      <trkpt lat="37.9797941632568836212158203125" lon="-1.44308544695377349853515625">
        <ele>329.399993896484375</ele>
        <time>2020-02-22T16:29:51.000Z</time>
      </trkpt>
      <trkpt lat="37.9795832745730876922607421875" lon="-1.44284647889435291290283203125">
        <ele>328.20001220703125</ele>
        <time>2020-02-22T16:29:54.000Z</time>
      </trkpt>
      <trkpt lat="37.97937280498445034027099609375" lon="-1.4426068402826786041259765625">
        <ele>327</ele>
        <time>2020-02-22T16:29:57.000Z</time>
      </trkpt>
      <trkpt lat="37.9791462421417236328125" lon="-1.44235496409237384796142578125">
        <ele>326.20001220703125</ele>
        <time>2020-02-22T16:30:00.000Z</time>
      </trkpt>
      <trkpt lat="37.97898623161017894744873046875" lon="-1.442171148955821990966796875">
        <ele>326</ele>
        <time>2020-02-22T16:30:02.000Z</time>
      </trkpt>
      <trkpt lat="37.978906519711017608642578125" lon="-1.4420787803828716278076171875">
        <ele>325.79998779296875</ele>
        <time>2020-02-22T16:30:03.000Z</time>
      </trkpt>
      <trkpt lat="37.97858138568699359893798828125" lon="-1.441716849803924560546875">
        <ele>324.399993896484375</ele>
        <time>2020-02-22T16:30:07.000Z</time>
      </trkpt>
      <trkpt lat="37.978502847254276275634765625" lon="-1.4416305162012577056884765625">
        <ele>323.399993896484375</ele>
        <time>2020-02-22T16:30:08.000Z</time>
      </trkpt>
      <trkpt lat="37.97842816449701786041259765625" lon="-1.44154795445501804351806640625">
        <ele>323</ele>
        <time>2020-02-22T16:30:09.000Z</time>
      </trkpt>
      <trkpt lat="37.9783554933965206146240234375" lon="-1.44146681763231754302978515625">
        <ele>322.399993896484375</ele>
        <time>2020-02-22T16:30:10.000Z</time>
      </trkpt>
      <trkpt lat="37.9782824032008647918701171875" lon="-1.44138568080961704254150390625">
        <ele>321.600006103515625</ele>
        <time>2020-02-22T16:30:11.000Z</time>
      </trkpt>
      <trkpt lat="37.97814217396080493927001953125" lon="-1.441229693591594696044921875">
        <ele>320.600006103515625</ele>
        <time>2020-02-22T16:30:13.000Z</time>
      </trkpt>
      <trkpt lat="37.9780130088329315185546875" lon="-1.4410749636590480804443359375">
        <ele>320</ele>
        <time>2020-02-22T16:30:15.000Z</time>
      </trkpt>
      <trkpt lat="37.97789406962692737579345703125" lon="-1.440927274525165557861328125">
        <ele>320</ele>
        <time>2020-02-22T16:30:17.000Z</time>
      </trkpt>
      <trkpt lat="37.97768670134246349334716796875" lon="-1.4407185651361942291259765625">
        <ele>319.79998779296875</ele>
        <time>2020-02-22T16:30:20.000Z</time>
      </trkpt>
      <trkpt lat="37.97759885899722576141357421875" lon="-1.44067036919295787811279296875">
        <ele>319.79998779296875</ele>
        <time>2020-02-22T16:30:21.000Z</time>
      </trkpt>
      <trkpt lat="37.9773986153304576873779296875" lon="-1.440638601779937744140625">
        <ele>319.79998779296875</ele>
        <time>2020-02-22T16:30:23.000Z</time>
      </trkpt>
      <trkpt lat="37.97729325480759143829345703125" lon="-1.4406411163508892059326171875">
        <ele>319.79998779296875</ele>
        <time>2020-02-22T16:30:24.000Z</time>
      </trkpt>
      <trkpt lat="37.97718890011310577392578125" lon="-1.440637595951557159423828125">
        <ele>319.79998779296875</ele>
        <time>2020-02-22T16:30:25.000Z</time>
      </trkpt>
      <trkpt lat="37.97698446549475193023681640625" lon="-1.440574228763580322265625">
        <ele>319.600006103515625</ele>
        <time>2020-02-22T16:30:27.000Z</time>
      </trkpt>
      <trkpt lat="37.9767803661525249481201171875" lon="-1.4404570497572422027587890625">
        <ele>319.20001220703125</ele>
        <time>2020-02-22T16:30:29.000Z</time>
      </trkpt>
      <trkpt lat="37.97656528651714324951171875" lon="-1.44034481607377529144287109375">
        <ele>318.20001220703125</ele>
        <time>2020-02-22T16:30:31.000Z</time>
      </trkpt>
      <trkpt lat="37.97645305283367633819580078125" lon="-1.4402947761118412017822265625">
        <ele>317.79998779296875</ele>
        <time>2020-02-22T16:30:32.000Z</time>
      </trkpt>
      <trkpt lat="37.97633738256990909576416015625" lon="-1.44024624489247798919677734375">
        <ele>317</ele>
        <time>2020-02-22T16:30:33.000Z</time>
      </trkpt>
      <trkpt lat="37.97610771842300891876220703125" lon="-1.4401526190340518951416015625">
        <ele>316</ele>
        <time>2020-02-22T16:30:35.000Z</time>
      </trkpt>
      <trkpt lat="37.97599791549146175384521484375" lon="-1.44010643474757671356201171875">
        <ele>314</ele>
        <time>2020-02-22T16:30:36.000Z</time>
      </trkpt>
      <trkpt lat="37.9757949896156787872314453125" lon="-1.44002093933522701263427734375">
        <ele>311.79998779296875</ele>
        <time>2020-02-22T16:30:38.000Z</time>
      </trkpt>
      <trkpt lat="37.97561737708747386932373046875" lon="-1.43993108533322811126708984375">
        <ele>310.399993896484375</ele>
        <time>2020-02-22T16:30:40.000Z</time>
      </trkpt>
      <trkpt lat="37.97547991387546062469482421875" lon="-1.43980016000568866729736328125">
        <ele>310.20001220703125</ele>
        <time>2020-02-22T16:30:42.000Z</time>
      </trkpt>
      <trkpt lat="37.975392155349254608154296875" lon="-1.43963880836963653564453125">
        <ele>310</ele>
        <time>2020-02-22T16:30:44.000Z</time>
      </trkpt>
      <trkpt lat="37.9753655008971691131591796875" lon="-1.4395561628043651580810546875">
        <ele>310</ele>
        <time>2020-02-22T16:30:45.000Z</time>
      </trkpt>
      <trkpt lat="37.97533758915960788726806640625" lon="-1.43939430825412273406982421875">
        <ele>310</ele>
        <time>2020-02-22T16:30:47.000Z</time>
      </trkpt>
      <trkpt lat="37.9753366671502590179443359375" lon="-1.4393149316310882568359375">
        <ele>310</ele>
        <time>2020-02-22T16:30:48.000Z</time>
      </trkpt>
      <trkpt lat="37.975340187549591064453125" lon="-1.4392451941967010498046875">
        <ele>310.20001220703125</ele>
        <time>2020-02-22T16:30:49.000Z</time>
      </trkpt>
      <trkpt lat="37.97534898854792118072509765625" lon="-1.43909574486315250396728515625">
        <ele>310.79998779296875</ele>
        <time>2020-02-22T16:30:51.000Z</time>
      </trkpt>
      <trkpt lat="37.975346557796001434326171875" lon="-1.4390240795910358428955078125">
        <ele>311.600006103515625</ele>
        <time>2020-02-22T16:30:52.000Z</time>
      </trkpt>
      <trkpt lat="37.9753427021205425262451171875" lon="-1.438953168690204620361328125">
        <ele>312.20001220703125</ele>
        <time>2020-02-22T16:30:53.000Z</time>
      </trkpt>
      <trkpt lat="37.97534178011119365692138671875" lon="-1.4388866163790225982666015625">
        <ele>313.20001220703125</ele>
        <time>2020-02-22T16:30:54.000Z</time>
      </trkpt>
      <trkpt lat="37.97532602213323116302490234375" lon="-1.43874001689255237579345703125">
        <ele>314.399993896484375</ele>
        <time>2020-02-22T16:30:56.000Z</time>
      </trkpt>
      <trkpt lat="37.97531428746879100799560546875" lon="-1.4385800063610076904296875">
        <ele>315.399993896484375</ele>
        <time>2020-02-22T16:30:58.000Z</time>
      </trkpt>
      <trkpt lat="37.9752558656036853790283203125" lon="-1.43828085623681545257568359375">
        <ele>316.79998779296875</ele>
        <time>2020-02-22T16:31:02.000Z</time>
      </trkpt>
      <trkpt lat="37.97523600049316883087158203125" lon="-1.43819871358573436737060546875">
        <ele>317.20001220703125</ele>
        <time>2020-02-22T16:31:03.000Z</time>
      </trkpt>
      <trkpt lat="37.97519928775727748870849609375" lon="-1.4380309917032718658447265625">
        <ele>318</ele>
        <time>2020-02-22T16:31:05.000Z</time>
      </trkpt>
      <trkpt lat="37.9750852100551128387451171875" lon="-1.4374948851764202117919921875">
        <ele>318.399993896484375</ele>
        <time>2020-02-22T16:31:11.000Z</time>
      </trkpt>
      <trkpt lat="37.9749386943876743316650390625" lon="-1.4367995224893093109130859375">
        <ele>318</ele>
        <time>2020-02-22T16:31:18.000Z</time>
      </trkpt>
      <trkpt lat="37.974920086562633514404296875" lon="-1.4366997778415679931640625">
        <ele>318.20001220703125</ele>
        <time>2020-02-22T16:31:19.000Z</time>
      </trkpt>
      <trkpt lat="37.97476979903876781463623046875" lon="-1.436001397669315338134765625">
        <ele>317.600006103515625</ele>
        <time>2020-02-22T16:31:26.000Z</time>
      </trkpt>
      <trkpt lat="37.97474540770053863525390625" lon="-1.43590274266898632049560546875">
        <ele>317.600006103515625</ele>
        <time>2020-02-22T16:31:27.000Z</time>
      </trkpt>
      <trkpt lat="37.9745963774621486663818359375" lon="-1.4353430829942226409912109375">
        <ele>317</ele>
        <time>2020-02-22T16:31:33.000Z</time>
      </trkpt>
      <trkpt lat="37.97454315237700939178466796875" lon="-1.43516345880925655364990234375">
        <ele>316.399993896484375</ele>
        <time>2020-02-22T16:31:35.000Z</time>
      </trkpt>
      <trkpt lat="37.9744709841907024383544921875" lon="-1.43498727120459079742431640625">
        <ele>316.20001220703125</ele>
        <time>2020-02-22T16:31:37.000Z</time>
      </trkpt>
      <trkpt lat="37.97436629422008991241455078125" lon="-1.43483120016753673553466796875">
        <ele>316</ele>
        <time>2020-02-22T16:31:39.000Z</time>
      </trkpt>
      <trkpt lat="37.9743006639182567596435546875" lon="-1.43476498313248157501220703125">
        <ele>316</ele>
        <time>2020-02-22T16:31:40.000Z</time>
      </trkpt>
      <trkpt lat="37.97414568252861499786376953125" lon="-1.43466255627572536468505859375">
        <ele>315.79998779296875</ele>
        <time>2020-02-22T16:31:42.000Z</time>
      </trkpt>
      <trkpt lat="37.97385080717504024505615234375" lon="-1.43460187129676342010498046875">
        <ele>315.399993896484375</ele>
        <time>2020-02-22T16:31:45.000Z</time>
      </trkpt>
      <trkpt lat="37.97361577861011028289794921875" lon="-1.43460891209542751312255859375">
        <ele>315</ele>
        <time>2020-02-22T16:31:47.000Z</time>
      </trkpt>
      <trkpt lat="37.9734919779002666473388671875" lon="-1.43461167812347412109375">
        <ele>314.399993896484375</ele>
        <time>2020-02-22T16:31:48.000Z</time>
      </trkpt>
      <trkpt lat="37.973363064229488372802734375" lon="-1.434610001742839813232421875">
        <ele>314</ele>
        <time>2020-02-22T16:31:49.000Z</time>
      </trkpt>
      <trkpt lat="37.97323205508291721343994140625" lon="-1.43460639752447605133056640625">
        <ele>313.399993896484375</ele>
        <time>2020-02-22T16:31:50.000Z</time>
      </trkpt>
      <trkpt lat="37.97298294492065906524658203125" lon="-1.4345984347164630889892578125">
        <ele>311.79998779296875</ele>
        <time>2020-02-22T16:31:52.000Z</time>
      </trkpt>
      <trkpt lat="37.9728676937520503997802734375" lon="-1.43460790626704692840576171875">
        <ele>311</ele>
        <time>2020-02-22T16:31:53.000Z</time>
      </trkpt>
      <trkpt lat="37.97276300378143787384033203125" lon="-1.43463942222297191619873046875">
        <ele>310.399993896484375</ele>
        <time>2020-02-22T16:31:54.000Z</time>
      </trkpt>
      <trkpt lat="37.97266577370464801788330078125" lon="-1.43468535505235195159912109375">
        <ele>309.20001220703125</ele>
        <time>2020-02-22T16:31:55.000Z</time>
      </trkpt>
      <trkpt lat="37.97257659025490283966064453125" lon="-1.43474084325134754180908203125">
        <ele>307.600006103515625</ele>
        <time>2020-02-22T16:31:56.000Z</time>
      </trkpt>
      <trkpt lat="37.9724998958408832550048828125" lon="-1.43480286933481693267822265625">
        <ele>306.79998779296875</ele>
        <time>2020-02-22T16:31:57.000Z</time>
      </trkpt>
      <trkpt lat="37.9724348522722721099853515625" lon="-1.43487294204533100128173828125">
        <ele>306.399993896484375</ele>
        <time>2020-02-22T16:31:58.000Z</time>
      </trkpt>
      <trkpt lat="37.9723372869193553924560546875" lon="-1.43502549268305301666259765625">
        <ele>306</ele>
        <time>2020-02-22T16:32:00.000Z</time>
      </trkpt>
      <trkpt lat="37.97224516980350017547607421875" lon="-1.4352652989327907562255859375">
        <ele>306</ele>
        <time>2020-02-22T16:32:03.000Z</time>
      </trkpt>
      <trkpt lat="37.97222547233104705810546875" lon="-1.43534199334681034088134765625">
        <ele>306</ele>
        <time>2020-02-22T16:32:04.000Z</time>
      </trkpt>
      <trkpt lat="37.9721421562135219573974609375" lon="-1.43562094308435916900634765625">
        <ele>307.79998779296875</ele>
        <time>2020-02-22T16:32:08.000Z</time>
      </trkpt>
      <trkpt lat="37.972092367708683013916015625" lon="-1.435756646096706390380859375">
        <ele>309.20001220703125</ele>
        <time>2020-02-22T16:32:10.000Z</time>
      </trkpt>
      <trkpt lat="37.9720586724579334259033203125" lon="-1.4358164928853511810302734375">
        <ele>309.79998779296875</ele>
        <time>2020-02-22T16:32:11.000Z</time>
      </trkpt>
      <trkpt lat="37.97203025780618190765380859375" lon="-1.43587592057883739471435546875">
        <ele>310.20001220703125</ele>
        <time>2020-02-22T16:32:12.000Z</time>
      </trkpt>
      <trkpt lat="37.97193688340485095977783203125" lon="-1.4360401220619678497314453125">
        <ele>311</ele>
        <time>2020-02-22T16:32:15.000Z</time>
      </trkpt>
      <trkpt lat="37.97189950011670589447021484375" lon="-1.43609200604259967803955078125">
        <ele>311.399993896484375</ele>
        <time>2020-02-22T16:32:16.000Z</time>
      </trkpt>
      <trkpt lat="37.97186329029500484466552734375" lon="-1.43614280037581920623779296875">
        <ele>312</ele>
        <time>2020-02-22T16:32:17.000Z</time>
      </trkpt>
      <trkpt lat="37.9717907868325710296630859375" lon="-1.4362389408051967620849609375">
        <ele>312.600006103515625</ele>
        <time>2020-02-22T16:32:19.000Z</time>
      </trkpt>
      <trkpt lat="37.9716534912586212158203125" lon="-1.436444632709026336669921875">
        <ele>313.600006103515625</ele>
        <time>2020-02-22T16:32:23.000Z</time>
      </trkpt>
      <trkpt lat="37.971623651683330535888671875" lon="-1.43649567849934101104736328125">
        <ele>314</ele>
        <time>2020-02-22T16:32:24.000Z</time>
      </trkpt>
      <trkpt lat="37.97157637774944305419921875" lon="-1.43659324385225772857666015625">
        <ele>314.600006103515625</ele>
        <time>2020-02-22T16:32:26.000Z</time>
      </trkpt>
      <trkpt lat="37.97155936248600482940673828125" lon="-1.436639763414859771728515625">
        <ele>315</ele>
        <time>2020-02-22T16:32:27.000Z</time>
      </trkpt>
      <trkpt lat="37.97152633778750896453857421875" lon="-1.43673221580684185028076171875">
        <ele>315.399993896484375</ele>
        <time>2020-02-22T16:32:29.000Z</time>
      </trkpt>
      <trkpt lat="37.9714917205274105072021484375" lon="-1.436827518045902252197265625">
        <ele>316.20001220703125</ele>
        <time>2020-02-22T16:32:31.000Z</time>
      </trkpt>
      <trkpt lat="37.971441932022571563720703125" lon="-1.4369762130081653594970703125">
        <ele>317.399993896484375</ele>
        <time>2020-02-22T16:32:34.000Z</time>
      </trkpt>
      <trkpt lat="37.97140027396380901336669921875" lon="-1.4371166937053203582763671875">
        <ele>318.20001220703125</ele>
        <time>2020-02-22T16:32:37.000Z</time>
      </trkpt>
      <trkpt lat="37.971388958394527435302734375" lon="-1.4371589384973049163818359375">
        <ele>318.399993896484375</ele>
        <time>2020-02-22T16:32:38.000Z</time>
      </trkpt>
      <trkpt lat="37.97134411521255970001220703125" lon="-1.437326408922672271728515625">
        <ele>319.600006103515625</ele>
        <time>2020-02-22T16:32:42.000Z</time>
      </trkpt>
      <trkpt lat="37.9713096655905246734619140625" lon="-1.43745758570730686187744140625">
        <ele>320.600006103515625</ele>
        <time>2020-02-22T16:32:45.000Z</time>
      </trkpt>
      <trkpt lat="37.97129415906965732574462890625" lon="-1.43750167451798915863037109375">
        <ele>320.79998779296875</ele>
        <time>2020-02-22T16:32:46.000Z</time>
      </trkpt>
      <trkpt lat="37.97119860537350177764892578125" lon="-1.43768758513033390045166015625">
        <ele>322</ele>
        <time>2020-02-22T16:32:51.000Z</time>
      </trkpt>
      <trkpt lat="37.97117362730205059051513671875" lon="-1.437720023095607757568359375">
        <ele>322.20001220703125</ele>
        <time>2020-02-22T16:32:52.000Z</time>
      </trkpt>
      <trkpt lat="37.97105778940021991729736328125" lon="-1.4378469251096248626708984375">
        <ele>323</ele>
        <time>2020-02-22T16:32:56.000Z</time>
      </trkpt>
      <trkpt lat="37.97094161622226238250732421875" lon="-1.43797106109559535980224609375">
        <ele>324</ele>
        <time>2020-02-22T16:33:00.000Z</time>
      </trkpt>
      <trkpt lat="37.97091253101825714111328125" lon="-1.43800207413733005523681640625">
        <ele>324.20001220703125</ele>
        <time>2020-02-22T16:33:01.000Z</time>
      </trkpt>
      <trkpt lat="37.97071664594113826751708984375" lon="-1.4382093586027622222900390625">
        <ele>325.399993896484375</ele>
        <time>2020-02-22T16:33:08.000Z</time>
      </trkpt>
      <trkpt lat="37.97065311111509799957275390625" lon="-1.43826593644917011260986328125">
        <ele>325.79998779296875</ele>
        <time>2020-02-22T16:33:10.000Z</time>
      </trkpt>
      <trkpt lat="37.97054347582161426544189453125" lon="-1.43836568109691143035888671875">
        <ele>326.600006103515625</ele>
        <time>2020-02-22T16:33:14.000Z</time>
      </trkpt>
      <trkpt lat="37.97048010863363742828369140625" lon="-1.43842385150492191314697265625">
        <ele>327.20001220703125</ele>
        <time>2020-02-22T16:33:17.000Z</time>
      </trkpt>
      <trkpt lat="37.97043970786035060882568359375" lon="-1.4384571276605129241943359375">
        <ele>327.79998779296875</ele>
        <time>2020-02-22T16:33:20.000Z</time>
      </trkpt>
      <trkpt lat="37.97039545141160488128662109375" lon="-1.43846022896468639373779296875">
        <ele>328.600006103515625</ele>
        <time>2020-02-22T16:33:23.000Z</time>
      </trkpt>
      <trkpt lat="37.97037164680659770965576171875" lon="-1.43845821730792522430419921875">
        <ele>329</ele>
        <time>2020-02-22T16:33:25.000Z</time>
      </trkpt>
      <trkpt lat="37.97034868039190769195556640625" lon="-1.43844966776669025421142578125">
        <ele>329.20001220703125</ele>
        <time>2020-02-22T16:33:27.000Z</time>
      </trkpt>
      <trkpt lat="37.97033644281327724456787109375" lon="-1.43847079016268253326416015625">
        <ele>329.600006103515625</ele>
        <time>2020-02-22T16:33:29.000Z</time>
      </trkpt>
      <trkpt lat="37.9703470878303050994873046875" lon="-1.43852376379072666168212890625">
        <ele>330</ele>
        <time>2020-02-22T16:33:33.000Z</time>
      </trkpt>
      <trkpt lat="37.97034298069775104522705078125" lon="-1.43855343572795391082763671875">
        <ele>330</ele>
        <time>2020-02-22T16:33:35.000Z</time>
      </trkpt>
      <trkpt lat="37.97033191658556461334228515625" lon="-1.43856483511626720428466796875">
        <ele>330</ele>
        <time>2020-02-22T16:33:37.000Z</time>
      </trkpt>
      <trkpt lat="37.97031599096953868865966796875" lon="-1.43857874907553195953369140625">
        <ele>329.79998779296875</ele>
        <time>2020-02-22T16:45:15.000Z</time>
      </trkpt>
      <trkpt lat="37.97031599096953868865966796875" lon="-1.438578665256500244140625">
        <ele>329.79998779296875</ele>
        <time>2020-02-22T16:45:16.000Z</time>
      </trkpt>
      <trkpt lat="37.97030978836119174957275390625" lon="-1.438528709113597869873046875">
        <ele>330.20001220703125</ele>
        <time>2020-02-22T16:46:32.000Z</time>
      </trkpt>
      <trkpt lat="37.970315404236316680908203125" lon="-1.4383401162922382354736328125">
        <ele>330.20001220703125</ele>
        <time>2020-02-22T16:46:37.000Z</time>
      </trkpt>
      <trkpt lat="37.9703123867511749267578125" lon="-1.4382807724177837371826171875">
        <ele>330</ele>
        <time>2020-02-22T16:46:38.000Z</time>
      </trkpt>
      <trkpt lat="37.9702699743211269378662109375" lon="-1.43803711049258708953857421875">
        <ele>329.79998779296875</ele>
        <time>2020-02-22T16:46:41.000Z</time>
      </trkpt>
      <trkpt lat="37.970163859426975250244140625" lon="-1.43760795705020427703857421875">
        <ele>328.600006103515625</ele>
        <time>2020-02-22T16:46:45.000Z</time>
      </trkpt>
      <trkpt lat="37.9701382108032703399658203125" lon="-1.43749765120446681976318359375">
        <ele>328.20001220703125</ele>
        <time>2020-02-22T16:46:46.000Z</time>
      </trkpt>
      <trkpt lat="37.97011231072247028350830078125" lon="-1.43738902173936367034912109375">
        <ele>327.600006103515625</ele>
        <time>2020-02-22T16:46:47.000Z</time>
      </trkpt>
      <trkpt lat="37.97006704844534397125244140625" lon="-1.43717276863753795623779296875">
        <ele>326</ele>
        <time>2020-02-22T16:46:49.000Z</time>
      </trkpt>
      <trkpt lat="37.9700406454503536224365234375" lon="-1.43696992658078670501708984375">
        <ele>324.399993896484375</ele>
        <time>2020-02-22T16:46:51.000Z</time>
      </trkpt>
      <trkpt lat="37.970036454498767852783203125" lon="-1.4368706010282039642333984375">
        <ele>323.600006103515625</ele>
        <time>2020-02-22T16:46:52.000Z</time>
      </trkpt>
      <trkpt lat="37.970038466155529022216796875" lon="-1.43677211366593837738037109375">
        <ele>323</ele>
        <time>2020-02-22T16:46:53.000Z</time>
      </trkpt>
      <trkpt lat="37.97005129046738147735595703125" lon="-1.4365817606449127197265625">
        <ele>322.399993896484375</ele>
        <time>2020-02-22T16:46:55.000Z</time>
      </trkpt>
      <trkpt lat="37.97007241286337375640869140625" lon="-1.43640766851603984832763671875">
        <ele>322.20001220703125</ele>
        <time>2020-02-22T16:46:57.000Z</time>
      </trkpt>
      <trkpt lat="37.97009705565869808197021484375" lon="-1.43625092692673206329345703125">
        <ele>322.20001220703125</ele>
        <time>2020-02-22T16:46:59.000Z</time>
      </trkpt>
      <trkpt lat="37.9701372049748897552490234375" lon="-1.435971893370151519775390625">
        <ele>322.20001220703125</ele>
        <time>2020-02-22T16:47:03.000Z</time>
      </trkpt>
      <trkpt lat="37.9701982252299785614013671875" lon="-1.4355678856372833251953125">
        <ele>323.600006103515625</ele>
        <time>2020-02-22T16:47:09.000Z</time>
      </trkpt>
      <trkpt lat="37.970219515264034271240234375" lon="-1.43543310463428497314453125">
        <ele>324.20001220703125</ele>
        <time>2020-02-22T16:47:11.000Z</time>
      </trkpt>
      <trkpt lat="37.97023988328874111175537109375" lon="-1.43529924564063549041748046875">
        <ele>324.399993896484375</ele>
        <time>2020-02-22T16:47:13.000Z</time>
      </trkpt>
      <trkpt lat="37.97030995599925518035888671875" lon="-1.43498257733881473541259765625">
        <ele>324.79998779296875</ele>
        <time>2020-02-22T16:47:18.000Z</time>
      </trkpt>
      <trkpt lat="37.97033719718456268310546875" lon="-1.43485668115317821502685546875">
        <ele>325.20001220703125</ele>
        <time>2020-02-22T16:47:20.000Z</time>
      </trkpt>
      <trkpt lat="37.97037550248205661773681640625" lon="-1.4346658252179622650146484375">
        <ele>325.79998779296875</ele>
        <time>2020-02-22T16:47:23.000Z</time>
      </trkpt>
      <trkpt lat="37.9704188369214534759521484375" lon="-1.43441654741764068603515625">
        <ele>326.20001220703125</ele>
        <time>2020-02-22T16:47:27.000Z</time>
      </trkpt>
      <trkpt lat="37.97043786384165287017822265625" lon="-1.43410675227642059326171875">
        <ele>327.399993896484375</ele>
        <time>2020-02-22T16:47:32.000Z</time>
      </trkpt>
      <trkpt lat="37.9704506881535053253173828125" lon="-1.4337106235325336456298828125">
        <ele>327.79998779296875</ele>
        <time>2020-02-22T16:47:38.000Z</time>
      </trkpt>
      <trkpt lat="37.9704537056386470794677734375" lon="-1.4335734955966472625732421875">
        <ele>327.79998779296875</ele>
        <time>2020-02-22T16:47:40.000Z</time>
      </trkpt>
      <trkpt lat="37.9704359360039234161376953125" lon="-1.4332942105829715728759765625">
        <ele>327.79998779296875</ele>
        <time>2020-02-22T16:47:44.000Z</time>
      </trkpt>
      <trkpt lat="37.9704208485782146453857421875" lon="-1.433222293853759765625">
        <ele>327.79998779296875</ele>
        <time>2020-02-22T16:47:45.000Z</time>
      </trkpt>
      <trkpt lat="37.9704003967344760894775390625" lon="-1.4331517182290554046630859375">
        <ele>327.600006103515625</ele>
        <time>2020-02-22T16:47:46.000Z</time>
      </trkpt>
      <trkpt lat="37.97034256160259246826171875" lon="-1.43300763331353664398193359375">
        <ele>327.399993896484375</ele>
        <time>2020-02-22T16:47:48.000Z</time>
      </trkpt>
      <trkpt lat="37.97020040452480316162109375" lon="-1.4327108301222324371337890625">
        <ele>326.600006103515625</ele>
        <time>2020-02-22T16:47:52.000Z</time>
      </trkpt>
      <trkpt lat="37.97012865543365478515625" lon="-1.4325559325516223907470703125">
        <ele>326.20001220703125</ele>
        <time>2020-02-22T16:47:54.000Z</time>
      </trkpt>
      <trkpt lat="37.97001156024634838104248046875" lon="-1.432320736348628997802734375">
        <ele>325.20001220703125</ele>
        <time>2020-02-22T16:47:57.000Z</time>
      </trkpt>
      <trkpt lat="37.969938218593597412109375" lon="-1.4321603067219257354736328125">
        <ele>324.399993896484375</ele>
        <time>2020-02-22T16:47:59.000Z</time>
      </trkpt>
      <trkpt lat="37.96989806927740573883056640625" lon="-1.432082355022430419921875">
        <ele>324.20001220703125</ele>
        <time>2020-02-22T16:48:00.000Z</time>
      </trkpt>
      <trkpt lat="37.96985842287540435791015625" lon="-1.4320020563900470733642578125">
        <ele>324</ele>
        <time>2020-02-22T16:48:01.000Z</time>
      </trkpt>
      <trkpt lat="37.96961610205471515655517578125" lon="-1.4314813725650310516357421875">
        <ele>323</ele>
        <time>2020-02-22T16:48:07.000Z</time>
      </trkpt>
      <trkpt lat="37.9694874398410320281982421875" lon="-1.4312114752829074859619140625">
        <ele>322.399993896484375</ele>
        <time>2020-02-22T16:48:10.000Z</time>
      </trkpt>
      <trkpt lat="37.96936766244471073150634765625" lon="-1.43091266043484210968017578125">
        <ele>321.79998779296875</ele>
        <time>2020-02-22T16:48:13.000Z</time>
      </trkpt>
      <trkpt lat="37.96933229081332683563232421875" lon="-1.43080369569361209869384765625">
        <ele>321.600006103515625</ele>
        <time>2020-02-22T16:48:14.000Z</time>
      </trkpt>
      <trkpt lat="37.9692735336720943450927734375" lon="-1.43057554028928279876708984375">
        <ele>320.79998779296875</ele>
        <time>2020-02-22T16:48:16.000Z</time>
      </trkpt>
      <trkpt lat="37.96925199218094348907470703125" lon="-1.43045618198812007904052734375">
        <ele>320.399993896484375</ele>
        <time>2020-02-22T16:48:17.000Z</time>
      </trkpt>
      <trkpt lat="37.96922416426241397857666015625" lon="-1.43020874820649623870849609375">
        <ele>320</ele>
        <time>2020-02-22T16:48:19.000Z</time>
      </trkpt>
      <trkpt lat="37.9692118428647518157958984375" lon="-1.42984195612370967864990234375">
        <ele>319</ele>
        <time>2020-02-22T16:48:22.000Z</time>
      </trkpt>
      <trkpt lat="37.96921997331082820892333984375" lon="-1.42962285317480564117431640625">
        <ele>318.399993896484375</ele>
        <time>2020-02-22T16:48:24.000Z</time>
      </trkpt>
      <trkpt lat="37.96924285590648651123046875" lon="-1.42917391844093799591064453125">
        <ele>318.20001220703125</ele>
        <time>2020-02-22T16:48:29.000Z</time>
      </trkpt>
      <trkpt lat="37.96925492584705352783203125" lon="-1.42867217771708965301513671875">
        <ele>320</ele>
        <time>2020-02-22T16:48:36.000Z</time>
      </trkpt>
      <trkpt lat="37.96925517730414867401123046875" lon="-1.42860428430140018463134765625">
        <ele>320.399993896484375</ele>
        <time>2020-02-22T16:48:37.000Z</time>
      </trkpt>
      <trkpt lat="37.96925383619964122772216796875" lon="-1.42828443087637424468994140625">
        <ele>321.600006103515625</ele>
        <time>2020-02-22T16:48:42.000Z</time>
      </trkpt>
      <trkpt lat="37.9692555963993072509765625" lon="-1.4281581155955791473388671875">
        <ele>321.79998779296875</ele>
        <time>2020-02-22T16:48:44.000Z</time>
      </trkpt>
      <trkpt lat="37.96924746595323085784912109375" lon="-1.4279006235301494598388671875">
        <ele>322.20001220703125</ele>
        <time>2020-02-22T16:48:48.000Z</time>
      </trkpt>
      <trkpt lat="37.9692416824400424957275390625" lon="-1.42777263186872005462646484375">
        <ele>322.600006103515625</ele>
        <time>2020-02-22T16:48:50.000Z</time>
      </trkpt>
      <trkpt lat="37.9692369885742664337158203125" lon="-1.42751530744135379791259765625">
        <ele>323.600006103515625</ele>
        <time>2020-02-22T16:48:54.000Z</time>
      </trkpt>
      <trkpt lat="37.969234474003314971923828125" lon="-1.427378766238689422607421875">
        <ele>323.79998779296875</ele>
        <time>2020-02-22T16:48:56.000Z</time>
      </trkpt>
      <trkpt lat="37.9692312888801097869873046875" lon="-1.42718128859996795654296875">
        <ele>324.79998779296875</ele>
        <time>2020-02-22T16:48:59.000Z</time>
      </trkpt>
      <trkpt lat="37.9692252539098262786865234375" lon="-1.42683452926576137542724609375">
        <ele>325.79998779296875</ele>
        <time>2020-02-22T16:49:04.000Z</time>
      </trkpt>
      <trkpt lat="37.96922064386308193206787109375" lon="-1.4267640374600887298583984375">
        <ele>326</ele>
        <time>2020-02-22T16:49:05.000Z</time>
      </trkpt>
      <trkpt lat="37.96917311847209930419921875" lon="-1.42632834613323211669921875">
        <ele>326.20001220703125</ele>
        <time>2020-02-22T16:49:11.000Z</time>
      </trkpt>
      <trkpt lat="37.9691105894744396209716796875" lon="-1.42577757127583026885986328125">
        <ele>326</ele>
        <time>2020-02-22T16:49:18.000Z</time>
      </trkpt>
      <trkpt lat="37.96908770687878131866455078125" lon="-1.42561797983944416046142578125">
        <ele>326</ele>
        <time>2020-02-22T16:49:20.000Z</time>
      </trkpt>
      <trkpt lat="37.96901931054890155792236328125" lon="-1.42493569292128086090087890625">
        <ele>326.399993896484375</ele>
        <time>2020-02-22T16:49:29.000Z</time>
      </trkpt>
      <trkpt lat="37.9689858667552471160888671875" lon="-1.42457074485719203948974609375">
        <ele>327</ele>
        <time>2020-02-22T16:49:34.000Z</time>
      </trkpt>
      <trkpt lat="37.96896315179765224456787109375" lon="-1.42427016980946063995361328125">
        <ele>327.399993896484375</ele>
        <time>2020-02-22T16:49:38.000Z</time>
      </trkpt>
      <trkpt lat="37.968955524265766143798828125" lon="-1.42419733107089996337890625">
        <ele>327.600006103515625</ele>
        <time>2020-02-22T16:49:39.000Z</time>
      </trkpt>
      <trkpt lat="37.96893649734556674957275390625" lon="-1.4239792339503765106201171875">
        <ele>328.20001220703125</ele>
        <time>2020-02-22T16:49:42.000Z</time>
      </trkpt>
      <trkpt lat="37.968892157077789306640625" lon="-1.4235339872539043426513671875">
        <ele>329</ele>
        <time>2020-02-22T16:49:48.000Z</time>
      </trkpt>
      <trkpt lat="37.96887849457561969757080078125" lon="-1.423390321433544158935546875">
        <ele>329.20001220703125</ele>
        <time>2020-02-22T16:49:50.000Z</time>
      </trkpt>
      <trkpt lat="37.9688410274684429168701171875" lon="-1.4229579828679561614990234375">
        <ele>330.399993896484375</ele>
        <time>2020-02-22T16:49:56.000Z</time>
      </trkpt>
      <trkpt lat="37.96882166527211666107177734375" lon="-1.42274952493607997894287109375">
        <ele>331</ele>
        <time>2020-02-22T16:49:59.000Z</time>
      </trkpt>
      <trkpt lat="37.96879383735358715057373046875" lon="-1.4224840700626373291015625">
        <ele>331.399993896484375</ele>
        <time>2020-02-22T16:50:03.000Z</time>
      </trkpt>
      <trkpt lat="37.96874002553522586822509765625" lon="-1.42208643257617950439453125">
        <ele>332</ele>
        <time>2020-02-22T16:50:09.000Z</time>
      </trkpt>
      <trkpt lat="37.96871370635926723480224609375" lon="-1.42194603569805622100830078125">
        <ele>332.600006103515625</ele>
        <time>2020-02-22T16:50:11.000Z</time>
      </trkpt>
      <trkpt lat="37.96866123564541339874267578125" lon="-1.421734057366847991943359375">
        <ele>333.79998779296875</ele>
        <time>2020-02-22T16:50:14.000Z</time>
      </trkpt>
      <trkpt lat="37.96861463226377964019775390625" lon="-1.42159684561192989349365234375">
        <ele>334.399993896484375</ele>
        <time>2020-02-22T16:50:16.000Z</time>
      </trkpt>
      <trkpt lat="37.96852678991854190826416015625" lon="-1.4213966019451618194580078125">
        <ele>335</ele>
        <time>2020-02-22T16:50:19.000Z</time>
      </trkpt>
      <trkpt lat="37.96837004832923412322998046875" lon="-1.42106342129409313201904296875">
        <ele>335.20001220703125</ele>
        <time>2020-02-22T16:50:24.000Z</time>
      </trkpt>
      <trkpt lat="37.96811892651021480560302734375" lon="-1.42042689956724643707275390625">
        <ele>335.600006103515625</ele>
        <time>2020-02-22T16:50:33.000Z</time>
      </trkpt>
      <trkpt lat="37.9680269770324230194091796875" lon="-1.42014577053487300872802734375">
        <ele>336</ele>
        <time>2020-02-22T16:50:37.000Z</time>
      </trkpt>
      <trkpt lat="37.96794340945780277252197265625" lon="-1.41985173337161540985107421875">
        <ele>336.20001220703125</ele>
        <time>2020-02-22T16:50:41.000Z</time>
      </trkpt>
      <trkpt lat="37.9678030125796794891357421875" lon="-1.41934119164943695068359375">
        <ele>336.20001220703125</ele>
        <time>2020-02-22T16:50:47.000Z</time>
      </trkpt>
      <trkpt lat="37.9677761904895305633544921875" lon="-1.41924639232456684112548828125">
        <ele>336.20001220703125</ele>
        <time>2020-02-22T16:50:48.000Z</time>
      </trkpt>
      <trkpt lat="37.96772128902375698089599609375" lon="-1.41905126161873340606689453125">
        <ele>336.20001220703125</ele>
        <time>2020-02-22T16:50:50.000Z</time>
      </trkpt>
      <trkpt lat="37.9676618613302707672119140625" lon="-1.41884841956198215484619140625">
        <ele>335.600006103515625</ele>
        <time>2020-02-22T16:50:52.000Z</time>
      </trkpt>
      <trkpt lat="37.9676031880080699920654296875" lon="-1.41863216646015644073486328125">
        <ele>334.79998779296875</ele>
        <time>2020-02-22T16:50:54.000Z</time>
      </trkpt>
      <trkpt lat="37.96757091768085956573486328125" lon="-1.41852177679538726806640625">
        <ele>334.600006103515625</ele>
        <time>2020-02-22T16:50:55.000Z</time>
      </trkpt>
      <trkpt lat="37.96750009059906005859375" lon="-1.41829219646751880645751953125">
        <ele>333.600006103515625</ele>
        <time>2020-02-22T16:50:57.000Z</time>
      </trkpt>
      <trkpt lat="37.967463545501232147216796875" lon="-1.41817267052829265594482421875">
        <ele>333.20001220703125</ele>
        <time>2020-02-22T16:50:58.000Z</time>
      </trkpt>
      <trkpt lat="37.96734594739973545074462890625" lon="-1.4177933894097805023193359375">
        <ele>332.399993896484375</ele>
        <time>2020-02-22T16:51:01.000Z</time>
      </trkpt>
      <trkpt lat="37.9672699235379695892333984375" lon="-1.4175231568515300750732421875">
        <ele>330.399993896484375</ele>
        <time>2020-02-22T16:51:03.000Z</time>
      </trkpt>
      <trkpt lat="37.9672129265964031219482421875" lon="-1.417238675057888031005859375">
        <ele>328.600006103515625</ele>
        <time>2020-02-22T16:51:05.000Z</time>
      </trkpt>
      <trkpt lat="37.96719255857169628143310546875" lon="-1.41709676943719387054443359375">
        <ele>328.20001220703125</ele>
        <time>2020-02-22T16:51:06.000Z</time>
      </trkpt>
      <trkpt lat="37.9671747051179409027099609375" lon="-1.41695536673069000244140625">
        <ele>327.20001220703125</ele>
        <time>2020-02-22T16:51:07.000Z</time>
      </trkpt>
      <trkpt lat="37.967143021523952484130859375" lon="-1.4166799373924732208251953125">
        <ele>325.600006103515625</ele>
        <time>2020-02-22T16:51:09.000Z</time>
      </trkpt>
      <trkpt lat="37.967128939926624298095703125" lon="-1.41654574312269687652587890625">
        <ele>325</ele>
        <time>2020-02-22T16:51:10.000Z</time>
      </trkpt>
      <trkpt lat="37.96710303984582424163818359375" lon="-1.4162799529731273651123046875">
        <ele>324.600006103515625</ele>
        <time>2020-02-22T16:51:12.000Z</time>
      </trkpt>
      <trkpt lat="37.96709130518138408660888671875" lon="-1.4161491952836513519287109375">
        <ele>324.20001220703125</ele>
        <time>2020-02-22T16:51:13.000Z</time>
      </trkpt>
      <trkpt lat="37.9670654051005840301513671875" lon="-1.41588985919952392578125">
        <ele>324</ele>
        <time>2020-02-22T16:51:15.000Z</time>
      </trkpt>
      <trkpt lat="37.9670508205890655517578125" lon="-1.41575817950069904327392578125">
        <ele>323.399993896484375</ele>
        <time>2020-02-22T16:51:16.000Z</time>
      </trkpt>
      <trkpt lat="37.9670079052448272705078125" lon="-1.41535115428268909454345703125">
        <ele>322.79998779296875</ele>
        <time>2020-02-22T16:51:19.000Z</time>
      </trkpt>
      <trkpt lat="37.96699206344783306121826171875" lon="-1.41521134413778781890869140625">
        <ele>322.600006103515625</ele>
        <time>2020-02-22T16:51:20.000Z</time>
      </trkpt>
      <trkpt lat="37.9669621400535106658935546875" lon="-1.41492485068738460540771484375">
        <ele>322.20001220703125</ele>
        <time>2020-02-22T16:51:22.000Z</time>
      </trkpt>
      <trkpt lat="37.96693473123013973236083984375" lon="-1.41463668085634708404541015625">
        <ele>321.79998779296875</ele>
        <time>2020-02-22T16:51:24.000Z</time>
      </trkpt>
      <trkpt lat="37.966903634369373321533203125" lon="-1.4143502712249755859375">
        <ele>321.20001220703125</ele>
        <time>2020-02-22T16:51:26.000Z</time>
      </trkpt>
      <trkpt lat="37.9668585397303104400634765625" lon="-1.4139092154800891876220703125">
        <ele>320.399993896484375</ele>
        <time>2020-02-22T16:51:29.000Z</time>
      </trkpt>
      <trkpt lat="37.96681285835802555084228515625" lon="-1.41346807591617107391357421875">
        <ele>318.600006103515625</ele>
        <time>2020-02-22T16:51:32.000Z</time>
      </trkpt>
      <trkpt lat="37.96676047146320343017578125" lon="-1.41302936710417270660400390625">
        <ele>317.399993896484375</ele>
        <time>2020-02-22T16:51:35.000Z</time>
      </trkpt>
      <trkpt lat="37.9667074978351593017578125" lon="-1.41274429857730865478515625">
        <ele>316.399993896484375</ele>
        <time>2020-02-22T16:51:37.000Z</time>
      </trkpt>
      <trkpt lat="37.96666567213833332061767578125" lon="-1.41260473988950252532958984375">
        <ele>315.79998779296875</ele>
        <time>2020-02-22T16:51:38.000Z</time>
      </trkpt>
      <trkpt lat="37.96653809957206249237060546875" lon="-1.41235663555562496185302734375">
        <ele>314.79998779296875</ele>
        <time>2020-02-22T16:51:40.000Z</time>
      </trkpt>
      <trkpt lat="37.9663656838238239288330078125" lon="-1.41216033138334751129150390625">
        <ele>313.399993896484375</ele>
        <time>2020-02-22T16:51:42.000Z</time>
      </trkpt>
      <trkpt lat="37.96626853756606578826904296875" lon="-1.4120765961706638336181640625">
        <ele>312.399993896484375</ele>
        <time>2020-02-22T16:51:43.000Z</time>
      </trkpt>
      <trkpt lat="37.966164015233516693115234375" lon="-1.41200040467083454132080078125">
        <ele>311.79998779296875</ele>
        <time>2020-02-22T16:51:44.000Z</time>
      </trkpt>
      <trkpt lat="37.96605412848293781280517578125" lon="-1.41193117015063762664794921875">
        <ele>310.399993896484375</ele>
        <time>2020-02-22T16:51:45.000Z</time>
      </trkpt>
      <trkpt lat="37.9659405536949634552001953125" lon="-1.41186964698135852813720703125">
        <ele>309</ele>
        <time>2020-02-22T16:51:46.000Z</time>
      </trkpt>
      <trkpt lat="37.96582412905991077423095703125" lon="-1.4118130691349506378173828125">
        <ele>307.79998779296875</ele>
        <time>2020-02-22T16:51:47.000Z</time>
      </trkpt>
      <trkpt lat="37.9655891843140125274658203125" lon="-1.41171055845916271209716796875">
        <ele>306.79998779296875</ele>
        <time>2020-02-22T16:51:49.000Z</time>
      </trkpt>
      <trkpt lat="37.96547435224056243896484375" lon="-1.41165892593562602996826171875">
        <ele>306.399993896484375</ele>
        <time>2020-02-22T16:51:50.000Z</time>
      </trkpt>
      <trkpt lat="37.9652629606425762176513671875" lon="-1.41154794953763484954833984375">
        <ele>304.600006103515625</ele>
        <time>2020-02-22T16:51:52.000Z</time>
      </trkpt>
      <trkpt lat="37.9651657305657863616943359375" lon="-1.41148357652127742767333984375">
        <ele>304</ele>
        <time>2020-02-22T16:51:53.000Z</time>
      </trkpt>
      <trkpt lat="37.9650775529444217681884765625" lon="-1.4114090614020824432373046875">
        <ele>303.79998779296875</ele>
        <time>2020-02-22T16:51:54.000Z</time>
      </trkpt>
      <trkpt lat="37.96493900008499622344970703125" lon="-1.41122222878038883209228515625">
        <ele>303.600006103515625</ele>
        <time>2020-02-22T16:51:56.000Z</time>
      </trkpt>
      <trkpt lat="37.9648435302078723907470703125" lon="-1.41100128181278705596923828125">
        <ele>303.399993896484375</ele>
        <time>2020-02-22T16:51:58.000Z</time>
      </trkpt>
      <trkpt lat="37.96475443057715892791748046875" lon="-1.41076491214334964752197265625">
        <ele>303</ele>
        <time>2020-02-22T16:52:00.000Z</time>
      </trkpt>
      <trkpt lat="37.96466072089970111846923828125" lon="-1.41052518971264362335205078125">
        <ele>302.79998779296875</ele>
        <time>2020-02-22T16:52:02.000Z</time>
      </trkpt>
      <trkpt lat="37.96449945308268070220947265625" lon="-1.41014255583286285400390625">
        <ele>302.600006103515625</ele>
        <time>2020-02-22T16:52:05.000Z</time>
      </trkpt>
      <trkpt lat="37.96444262377917766571044921875" lon="-1.41000886447727680206298828125">
        <ele>302.399993896484375</ele>
        <time>2020-02-22T16:52:06.000Z</time>
      </trkpt>
      <trkpt lat="37.96432661823928356170654296875" lon="-1.4097320102155208587646484375">
        <ele>302.20001220703125</ele>
        <time>2020-02-22T16:52:08.000Z</time>
      </trkpt>
      <trkpt lat="37.9642023146152496337890625" lon="-1.40944727696478366851806640625">
        <ele>301.600006103515625</ele>
        <time>2020-02-22T16:52:10.000Z</time>
      </trkpt>
      <trkpt lat="37.96413752250373363494873046875" lon="-1.40930377878248691558837890625">
        <ele>301.399993896484375</ele>
        <time>2020-02-22T16:52:11.000Z</time>
      </trkpt>
      <trkpt lat="37.9640065133571624755859375" lon="-1.4090138487517833709716796875">
        <ele>300.399993896484375</ele>
        <time>2020-02-22T16:52:13.000Z</time>
      </trkpt>
      <trkpt lat="37.963942475616931915283203125" lon="-1.40887076966464519500732421875">
        <ele>299.600006103515625</ele>
        <time>2020-02-22T16:52:14.000Z</time>
      </trkpt>
      <trkpt lat="37.9638132266700267791748046875" lon="-1.40858997590839862823486328125">
        <ele>298.20001220703125</ele>
        <time>2020-02-22T16:52:16.000Z</time>
      </trkpt>
      <trkpt lat="37.96368531882762908935546875" lon="-1.40831940807402133941650390625">
        <ele>296.20001220703125</ele>
        <time>2020-02-22T16:52:18.000Z</time>
      </trkpt>
      <trkpt lat="37.96362119726836681365966796875" lon="-1.40818747691810131072998046875">
        <ele>295</ele>
        <time>2020-02-22T16:52:19.000Z</time>
      </trkpt>
      <trkpt lat="37.96355783008038997650146484375" lon="-1.408055126667022705078125">
        <ele>293.79998779296875</ele>
        <time>2020-02-22T16:52:20.000Z</time>
      </trkpt>
      <trkpt lat="37.96349530108273029327392578125" lon="-1.4079211838543415069580078125">
        <ele>292.600006103515625</ele>
        <time>2020-02-22T16:52:21.000Z</time>
      </trkpt>
      <trkpt lat="37.963432185351848602294921875" lon="-1.40778916887938976287841796875">
        <ele>290.600006103515625</ele>
        <time>2020-02-22T16:52:22.000Z</time>
      </trkpt>
      <trkpt lat="37.9633056186139583587646484375" lon="-1.40752740204334259033203125">
        <ele>288.79998779296875</ele>
        <time>2020-02-22T16:52:24.000Z</time>
      </trkpt>
      <trkpt lat="37.96317628584802150726318359375" lon="-1.40725993551313877105712890625">
        <ele>287.600006103515625</ele>
        <time>2020-02-22T16:52:26.000Z</time>
      </trkpt>
      <trkpt lat="37.96311266720294952392578125" lon="-1.4071272499859333038330078125">
        <ele>287.399993896484375</ele>
        <time>2020-02-22T16:52:27.000Z</time>
      </trkpt>
      <trkpt lat="37.9629894532263278961181640625" lon="-1.40685928054153919219970703125">
        <ele>287</ele>
        <time>2020-02-22T16:52:29.000Z</time>
      </trkpt>
      <trkpt lat="37.96293052844703197479248046875" lon="-1.406728439033031463623046875">
        <ele>286.79998779296875</ele>
        <time>2020-02-22T16:52:30.000Z</time>
      </trkpt>
      <trkpt lat="37.9628721065819263458251953125" lon="-1.40660044737160205841064453125">
        <ele>286.600006103515625</ele>
        <time>2020-02-22T16:52:31.000Z</time>
      </trkpt>
      <trkpt lat="37.96269248239696025848388671875" lon="-1.4062213338911533355712890625">
        <ele>285.79998779296875</ele>
        <time>2020-02-22T16:52:34.000Z</time>
      </trkpt>
      <trkpt lat="37.96257580630481243133544921875" lon="-1.40597146935760974884033203125">
        <ele>285.399993896484375</ele>
        <time>2020-02-22T16:52:36.000Z</time>
      </trkpt>
      <trkpt lat="37.96246499754488468170166015625" lon="-1.40572269447147846221923828125">
        <ele>285</ele>
        <time>2020-02-22T16:52:38.000Z</time>
      </trkpt>
      <trkpt lat="37.96229937113821506500244140625" lon="-1.405363865196704864501953125">
        <ele>284.20001220703125</ele>
        <time>2020-02-22T16:52:41.000Z</time>
      </trkpt>
      <trkpt lat="37.96211966313421726226806640625" lon="-1.40498894266784191131591796875">
        <ele>283.20001220703125</ele>
        <time>2020-02-22T16:52:44.000Z</time>
      </trkpt>
      <trkpt lat="37.96205780468881130218505859375" lon="-1.4048584364354610443115234375">
        <ele>283.20001220703125</ele>
        <time>2020-02-22T16:52:45.000Z</time>
      </trkpt>
      <trkpt lat="37.96199812553822994232177734375" lon="-1.40472977422177791595458984375">
        <ele>282.79998779296875</ele>
        <time>2020-02-22T16:52:46.000Z</time>
      </trkpt>
      <trkpt lat="37.9618827067315578460693359375" lon="-1.404486112296581268310546875">
        <ele>281.600006103515625</ele>
        <time>2020-02-22T16:52:48.000Z</time>
      </trkpt>
      <trkpt lat="37.96177583746612071990966796875" lon="-1.40426239930093288421630859375">
        <ele>280.600006103515625</ele>
        <time>2020-02-22T16:52:50.000Z</time>
      </trkpt>
      <trkpt lat="37.961724959313869476318359375" lon="-1.404162235558032989501953125">
        <ele>280.399993896484375</ele>
        <time>2020-02-22T16:52:51.000Z</time>
      </trkpt>
      <trkpt lat="37.96149194240570068359375" lon="-1.40376401133835315704345703125">
        <ele>280.399993896484375</ele>
        <time>2020-02-22T16:52:56.000Z</time>
      </trkpt>
      <trkpt lat="37.9614478535950183868408203125" lon="-1.40371019951999187469482421875">
        <ele>280.399993896484375</ele>
        <time>2020-02-22T16:52:57.000Z</time>
      </trkpt>
      <trkpt lat="37.9613001644611358642578125" lon="-1.403576843440532684326171875">
        <ele>280.79998779296875</ele>
        <time>2020-02-22T16:53:00.000Z</time>
      </trkpt>
      <trkpt lat="37.96120419166982173919677734375" lon="-1.40350853092968463897705078125">
        <ele>282.20001220703125</ele>
        <time>2020-02-22T16:53:02.000Z</time>
      </trkpt>
      <trkpt lat="37.9611088894307613372802734375" lon="-1.4034532941877841949462890625">
        <ele>283.600006103515625</ele>
        <time>2020-02-22T16:53:04.000Z</time>
      </trkpt>
      <trkpt lat="37.96101928688585758209228515625" lon="-1.4034040085971355438232421875">
        <ele>285</ele>
        <time>2020-02-22T16:53:06.000Z</time>
      </trkpt>
      <trkpt lat="37.960933037102222442626953125" lon="-1.4033574052155017852783203125">
        <ele>286</ele>
        <time>2020-02-22T16:53:08.000Z</time>
      </trkpt>
      <trkpt lat="37.96075643040239810943603515625" lon="-1.40325590036809444427490234375">
        <ele>287.20001220703125</ele>
        <time>2020-02-22T16:53:12.000Z</time>
      </trkpt>
      <trkpt lat="37.96062516979873180389404296875" lon="-1.403184235095977783203125">
        <ele>288.20001220703125</ele>
        <time>2020-02-22T16:53:15.000Z</time>
      </trkpt>
      <trkpt lat="37.9605348967015743255615234375" lon="-1.4031320996582508087158203125">
        <ele>288.600006103515625</ele>
        <time>2020-02-22T16:53:17.000Z</time>
      </trkpt>
      <trkpt lat="37.96044479124248027801513671875" lon="-1.4030804671347141265869140625">
        <ele>289.20001220703125</ele>
        <time>2020-02-22T16:53:19.000Z</time>
      </trkpt>
      <trkpt lat="37.96012879349291324615478515625" lon="-1.40289681963622570037841796875">
        <ele>290.399993896484375</ele>
        <time>2020-02-22T16:53:26.000Z</time>
      </trkpt>
      <trkpt lat="37.9600406996905803680419921875" lon="-1.402848623692989349365234375">
        <ele>290.600006103515625</ele>
        <time>2020-02-22T16:53:28.000Z</time>
      </trkpt>
      <trkpt lat="37.95978270471096038818359375" lon="-1.40269406139850616455078125">
        <ele>291.399993896484375</ele>
        <time>2020-02-22T16:53:34.000Z</time>
      </trkpt>
      <trkpt lat="37.959616743028163909912109375" lon="-1.4025852642953395843505859375">
        <ele>292.399993896484375</ele>
        <time>2020-02-22T16:53:38.000Z</time>
      </trkpt>
      <trkpt lat="37.9595776833593845367431640625" lon="-1.40255684964358806610107421875">
        <ele>292.399993896484375</ele>
        <time>2020-02-22T16:53:39.000Z</time>
      </trkpt>
      <trkpt lat="37.9592434130609035491943359375" lon="-1.4022603817284107208251953125">
        <ele>293.399993896484375</ele>
        <time>2020-02-22T16:53:47.000Z</time>
      </trkpt>
      <trkpt lat="37.95877176336944103240966796875" lon="-1.4018111117184162139892578125">
        <ele>294.399993896484375</ele>
        <time>2020-02-22T16:53:58.000Z</time>
      </trkpt>
      <trkpt lat="37.95855936594307422637939453125" lon="-1.4016122929751873016357421875">
        <ele>294.600006103515625</ele>
        <time>2020-02-22T16:54:03.000Z</time>
      </trkpt>
      <trkpt lat="37.95840446837246417999267578125" lon="-1.40143702737987041473388671875">
        <ele>295.20001220703125</ele>
        <time>2020-02-22T16:54:07.000Z</time>
      </trkpt>
      <trkpt lat="37.95837027020752429962158203125" lon="-1.40139109455049037933349609375">
        <ele>295.399993896484375</ele>
        <time>2020-02-22T16:54:08.000Z</time>
      </trkpt>
      <trkpt lat="37.95822174288332462310791015625" lon="-1.40114919282495975494384765625">
        <ele>296.399993896484375</ele>
        <time>2020-02-22T16:54:13.000Z</time>
      </trkpt>
      <trkpt lat="37.95817128382623195648193359375" lon="-1.40105045400559902191162109375">
        <ele>296.79998779296875</ele>
        <time>2020-02-22T16:54:15.000Z</time>
      </trkpt>
      <trkpt lat="37.95808293856680393218994140625" lon="-1.40085213817656040191650390625">
        <ele>297.79998779296875</ele>
        <time>2020-02-22T16:54:19.000Z</time>
      </trkpt>
      <trkpt lat="37.957988642156124114990234375" lon="-1.4006084762513637542724609375">
        <ele>298.79998779296875</ele>
        <time>2020-02-22T16:54:24.000Z</time>
      </trkpt>
      <trkpt lat="37.95790859498083591461181640625" lon="-1.40035450458526611328125">
        <ele>299.79998779296875</ele>
        <time>2020-02-22T16:54:29.000Z</time>
      </trkpt>
      <trkpt lat="37.957880683243274688720703125" lon="-1.40020187012851238250732421875">
        <ele>300.600006103515625</ele>
        <time>2020-02-22T16:54:32.000Z</time>
      </trkpt>
      <trkpt lat="37.95787473209202289581298828125" lon="-1.4000985212624073028564453125">
        <ele>301</ele>
        <time>2020-02-22T16:54:34.000Z</time>
      </trkpt>
      <trkpt lat="37.95787422917783260345458984375" lon="-1.399825774133205413818359375">
        <ele>302</ele>
        <time>2020-02-22T16:54:39.000Z</time>
      </trkpt>
      <trkpt lat="37.9578855447471141815185546875" lon="-1.3997210003435611724853515625">
        <ele>302.600006103515625</ele>
        <time>2020-02-22T16:54:41.000Z</time>
      </trkpt>
      <trkpt lat="37.95788780786097049713134765625" lon="-1.39961848966777324676513671875">
        <ele>303</ele>
        <time>2020-02-22T16:54:43.000Z</time>
      </trkpt>
      <trkpt lat="37.9578929208219051361083984375" lon="-1.3994594849646091461181640625">
        <ele>303.79998779296875</ele>
        <time>2020-02-22T16:54:46.000Z</time>
      </trkpt>
      <trkpt lat="37.9578986205160617828369140625" lon="-1.399353705346584320068359375">
        <ele>304</ele>
        <time>2020-02-22T16:54:48.000Z</time>
      </trkpt>
      <trkpt lat="37.95790993608534336090087890625" lon="-1.39912328682839870452880859375">
        <ele>305.20001220703125</ele>
        <time>2020-02-22T16:54:52.000Z</time>
      </trkpt>
      <trkpt lat="37.95791312120854854583740234375" lon="-1.39894508756697177886962890625">
        <ele>305.79998779296875</ele>
        <time>2020-02-22T16:54:55.000Z</time>
      </trkpt>
      <trkpt lat="37.95791647396981716156005859375" lon="-1.39882891438901424407958984375">
        <ele>306.20001220703125</ele>
        <time>2020-02-22T16:54:57.000Z</time>
      </trkpt>
      <trkpt lat="37.957929633557796478271484375" lon="-1.39839104376733303070068359375">
        <ele>307.399993896484375</ele>
        <time>2020-02-22T16:55:05.000Z</time>
      </trkpt>
      <trkpt lat="37.95790624804794788360595703125" lon="-1.397912688553333282470703125">
        <ele>308.399993896484375</ele>
        <time>2020-02-22T16:55:14.000Z</time>
      </trkpt>
      <trkpt lat="37.95785981230437755584716796875" lon="-1.39772049151360988616943359375">
        <ele>309.600006103515625</ele>
        <time>2020-02-22T16:55:18.000Z</time>
      </trkpt>
      <trkpt lat="37.9578017257153987884521484375" lon="-1.39754447154700756072998046875">
        <ele>310.600006103515625</ele>
        <time>2020-02-22T16:55:22.000Z</time>
      </trkpt>
      <trkpt lat="37.95771061442792415618896484375" lon="-1.397329978644847869873046875">
        <ele>311.79998779296875</ele>
        <time>2020-02-22T16:55:27.000Z</time>
      </trkpt>
      <trkpt lat="37.9576518572866916656494140625" lon="-1.3971863128244876861572265625">
        <ele>312.79998779296875</ele>
        <time>2020-02-22T16:55:30.000Z</time>
      </trkpt>
      <trkpt lat="37.9575811140239238739013671875" lon="-1.3969925232231616973876953125">
        <ele>314</ele>
        <time>2020-02-22T16:55:34.000Z</time>
      </trkpt>
      <trkpt lat="37.957444153726100921630859375" lon="-1.39664660207927227020263671875">
        <ele>315</ele>
        <time>2020-02-22T16:55:41.000Z</time>
      </trkpt>
      <trkpt lat="37.957424037158489227294921875" lon="-1.3965955562889575958251953125">
        <ele>315.20001220703125</ele>
        <time>2020-02-22T16:55:42.000Z</time>
      </trkpt>
      <trkpt lat="37.95734348706901073455810546875" lon="-1.39639765955507755279541015625">
        <ele>316</ele>
        <time>2020-02-22T16:55:46.000Z</time>
      </trkpt>
      <trkpt lat="37.9572124779224395751953125" lon="-1.39609322883188724517822265625">
        <ele>316.79998779296875</ele>
        <time>2020-02-22T16:55:52.000Z</time>
      </trkpt>
      <trkpt lat="37.95717081986367702484130859375" lon="-1.395992897450923919677734375">
        <ele>317.20001220703125</ele>
        <time>2020-02-22T16:55:54.000Z</time>
      </trkpt>
      <trkpt lat="37.9570473544299602508544921875" lon="-1.39570229686796665191650390625">
        <ele>318.399993896484375</ele>
        <time>2020-02-22T16:56:00.000Z</time>
      </trkpt>
      <trkpt lat="37.956969402730464935302734375" lon="-1.395523510873317718505859375">
        <ele>319</ele>
        <time>2020-02-22T16:56:04.000Z</time>
      </trkpt>
      <trkpt lat="37.956932522356510162353515625" lon="-1.395435668528079986572265625">
        <ele>319.600006103515625</ele>
        <time>2020-02-22T16:56:06.000Z</time>
      </trkpt>
      <trkpt lat="37.95683872886002063751220703125" lon="-1.39519837684929370880126953125">
        <ele>320.600006103515625</ele>
        <time>2020-02-22T16:56:11.000Z</time>
      </trkpt>
      <trkpt lat="37.9567858390510082244873046875" lon="-1.3950509391725063323974609375">
        <ele>321</ele>
        <time>2020-02-22T16:56:14.000Z</time>
      </trkpt>
      <trkpt lat="37.95672389678657054901123046875" lon="-1.3947035931050777435302734375">
        <ele>321.79998779296875</ele>
        <time>2020-02-22T16:56:20.000Z</time>
      </trkpt>
      <trkpt lat="37.95672523789107799530029296875" lon="-1.3946422375738620758056640625">
        <ele>322</ele>
        <time>2020-02-22T16:56:21.000Z</time>
      </trkpt>
      <trkpt lat="37.95676832087337970733642578125" lon="-1.394260190427303314208984375">
        <ele>322.79998779296875</ele>
        <time>2020-02-22T16:56:27.000Z</time>
      </trkpt>
      <trkpt lat="37.95678961090743541717529296875" lon="-1.39413521625101566314697265625">
        <ele>323</ele>
        <time>2020-02-22T16:56:29.000Z</time>
      </trkpt>
      <trkpt lat="37.956908047199249267578125" lon="-1.39349877834320068359375">
        <ele>323.79998779296875</ele>
        <time>2020-02-22T16:56:39.000Z</time>
      </trkpt>
      <trkpt lat="37.9569853283464908599853515625" lon="-1.39308647252619266510009765625">
        <ele>324.79998779296875</ele>
        <time>2020-02-22T16:56:45.000Z</time>
      </trkpt>
      <trkpt lat="37.9570193588733673095703125" lon="-1.3928813673555850982666015625">
        <ele>325.20001220703125</ele>
        <time>2020-02-22T16:56:48.000Z</time>
      </trkpt>
      <trkpt lat="37.95709169469773769378662109375" lon="-1.3924736715853214263916015625">
        <ele>326</ele>
        <time>2020-02-22T16:56:54.000Z</time>
      </trkpt>
      <trkpt lat="37.95714433304965496063232421875" lon="-1.3922088034451007843017578125">
        <ele>326.399993896484375</ele>
        <time>2020-02-22T16:56:58.000Z</time>
      </trkpt>
      <trkpt lat="37.957219183444976806640625" lon="-1.39186455868184566497802734375">
        <ele>327</ele>
        <time>2020-02-22T16:57:03.000Z</time>
      </trkpt>
      <trkpt lat="37.9572703130543231964111328125" lon="-1.391577310860157012939453125">
        <ele>327.399993896484375</ele>
        <time>2020-02-22T16:57:07.000Z</time>
      </trkpt>
      <trkpt lat="37.95736393891274929046630859375" lon="-1.391068361699581146240234375">
        <ele>327.79998779296875</ele>
        <time>2020-02-22T16:57:14.000Z</time>
      </trkpt>
      <trkpt lat="37.95738791115581989288330078125" lon="-1.39092830009758472442626953125">
        <ele>327.79998779296875</ele>
        <time>2020-02-22T16:57:16.000Z</time>
      </trkpt>
      <trkpt lat="37.9574419744312763214111328125" lon="-1.3906467519700527191162109375">
        <ele>328</ele>
        <time>2020-02-22T16:57:20.000Z</time>
      </trkpt>
      <trkpt lat="37.9575174115598201751708984375" lon="-1.390235535800457000732421875">
        <ele>328.399993896484375</ele>
        <time>2020-02-22T16:57:26.000Z</time>
      </trkpt>
      <trkpt lat="37.9576089419424533843994140625" lon="-1.38975399546325206756591796875">
        <ele>329.20001220703125</ele>
        <time>2020-02-22T16:57:33.000Z</time>
      </trkpt>
      <trkpt lat="37.95765303075313568115234375" lon="-1.38954997994005680084228515625">
        <ele>330</ele>
        <time>2020-02-22T16:57:36.000Z</time>
      </trkpt>
      <trkpt lat="37.95768387615680694580078125" lon="-1.38941821642220020294189453125">
        <ele>330.20001220703125</ele>
        <time>2020-02-22T16:57:38.000Z</time>
      </trkpt>
      <trkpt lat="37.95775017701089382171630859375" lon="-1.38906634412705898284912109375">
        <ele>331.399993896484375</ele>
        <time>2020-02-22T16:57:43.000Z</time>
      </trkpt>
      <trkpt lat="37.95776090584695339202880859375" lon="-1.38899509795010089874267578125">
        <ele>331.600006103515625</ele>
        <time>2020-02-22T16:57:44.000Z</time>
      </trkpt>
      <trkpt lat="37.95782796107232570648193359375" lon="-1.38862763531506061553955078125">
        <ele>332.399993896484375</ele>
        <time>2020-02-22T16:57:49.000Z</time>
      </trkpt>
      <trkpt lat="37.95787875540554523468017578125" lon="-1.38833326287567615509033203125">
        <ele>332.79998779296875</ele>
        <time>2020-02-22T16:57:53.000Z</time>
      </trkpt>
      <trkpt lat="37.95789233408868312835693359375" lon="-1.3878679834306240081787109375">
        <ele>333.399993896484375</ele>
        <time>2020-02-22T16:57:59.000Z</time>
      </trkpt>
      <trkpt lat="37.9578302241861820220947265625" lon="-1.3872011192142963409423828125">
        <ele>334</ele>
        <time>2020-02-22T16:58:08.000Z</time>
      </trkpt>
      <trkpt lat="37.9577772505581378936767578125" lon="-1.3869218342006206512451171875">
        <ele>334.399993896484375</ele>
        <time>2020-02-22T16:58:12.000Z</time>
      </trkpt>
      <trkpt lat="37.9577098600566387176513671875" lon="-1.386725194752216339111328125">
        <ele>335</ele>
        <time>2020-02-22T16:58:15.000Z</time>
      </trkpt>
      <trkpt lat="37.95754129998385906219482421875" lon="-1.38635261915624141693115234375">
        <ele>335.600006103515625</ele>
        <time>2020-02-22T16:58:21.000Z</time>
      </trkpt>
      <trkpt lat="37.957478351891040802001953125" lon="-1.3862341828644275665283203125">
        <ele>336</ele>
        <time>2020-02-22T16:58:23.000Z</time>
      </trkpt>
      <trkpt lat="37.9573588259518146514892578125" lon="-1.38600074686110019683837890625">
        <ele>336.600006103515625</ele>
        <time>2020-02-22T16:58:27.000Z</time>
      </trkpt>
      <trkpt lat="37.957238964736461639404296875" lon="-1.38575264252722263336181640625">
        <ele>337.600006103515625</ele>
        <time>2020-02-22T16:58:31.000Z</time>
      </trkpt>
      <trkpt lat="37.957182638347148895263671875" lon="-1.38562984764575958251953125">
        <ele>338</ele>
        <time>2020-02-22T16:58:33.000Z</time>
      </trkpt>
      <trkpt lat="37.95712186954915523529052734375" lon="-1.385500766336917877197265625">
        <ele>338.79998779296875</ele>
        <time>2020-02-22T16:58:35.000Z</time>
      </trkpt>
      <trkpt lat="37.95691274106502532958984375" lon="-1.384971030056476593017578125">
        <ele>339.600006103515625</ele>
        <time>2020-02-22T16:58:43.000Z</time>
      </trkpt>
      <trkpt lat="37.9568669758737087249755859375" lon="-1.38482443057000637054443359375">
        <ele>339.79998779296875</ele>
        <time>2020-02-22T16:58:45.000Z</time>
      </trkpt>
      <trkpt lat="37.9567082226276397705078125" lon="-1.38427290134131908416748046875">
        <ele>340.20001220703125</ele>
        <time>2020-02-22T16:58:52.000Z</time>
      </trkpt>
      <trkpt lat="37.95663672499358654022216796875" lon="-1.384021528065204620361328125">
        <ele>340.20001220703125</ele>
        <time>2020-02-22T16:58:55.000Z</time>
      </trkpt>
      <trkpt lat="37.95658241026103496551513671875" lon="-1.38384559191763401031494140625">
        <ele>340.20001220703125</ele>
        <time>2020-02-22T16:58:57.000Z</time>
      </trkpt>
      <trkpt lat="37.95652524568140506744384765625" lon="-1.38366068713366985321044921875">
        <ele>340.20001220703125</ele>
        <time>2020-02-22T16:58:59.000Z</time>
      </trkpt>
      <trkpt lat="37.9564958252012729644775390625" lon="-1.383565552532672882080078125">
        <ele>340.20001220703125</ele>
        <time>2020-02-22T16:59:00.000Z</time>
      </trkpt>
      <trkpt lat="37.95639700256288051605224609375" lon="-1.383274532854557037353515625">
        <ele>339.20001220703125</ele>
        <time>2020-02-22T16:59:03.000Z</time>
      </trkpt>
      <trkpt lat="37.95636112801730632781982421875" lon="-1.3831774704158306121826171875">
        <ele>338.79998779296875</ele>
        <time>2020-02-22T16:59:04.000Z</time>
      </trkpt>
      <trkpt lat="37.95628778636455535888671875" lon="-1.38298493809998035430908203125">
        <ele>338.600006103515625</ele>
        <time>2020-02-22T16:59:06.000Z</time>
      </trkpt>
      <trkpt lat="37.956206984817981719970703125" lon="-1.38278209604322910308837890625">
        <ele>338</ele>
        <time>2020-02-22T16:59:08.000Z</time>
      </trkpt>
      <trkpt lat="37.95616331510245800018310546875" lon="-1.38267665170133113861083984375">
        <ele>337.600006103515625</ele>
        <time>2020-02-22T16:59:09.000Z</time>
      </trkpt>
      <trkpt lat="37.95590599067509174346923828125" lon="-1.38210869394242763519287109375">
        <ele>336.20001220703125</ele>
        <time>2020-02-22T16:59:14.000Z</time>
      </trkpt>
      <trkpt lat="37.9557900689542293548583984375" lon="-1.3818729110062122344970703125">
        <ele>334.79998779296875</ele>
        <time>2020-02-22T16:59:16.000Z</time>
      </trkpt>
      <trkpt lat="37.95567414723336696624755859375" lon="-1.38163444586098194122314453125">
        <ele>333</ele>
        <time>2020-02-22T16:59:18.000Z</time>
      </trkpt>
      <trkpt lat="37.95561580918729305267333984375" lon="-1.38151265680789947509765625">
        <ele>332</ele>
        <time>2020-02-22T16:59:19.000Z</time>
      </trkpt>
      <trkpt lat="37.95555797405540943145751953125" lon="-1.38138592243194580078125">
        <ele>330.79998779296875</ele>
        <time>2020-02-22T16:59:20.000Z</time>
      </trkpt>
      <trkpt lat="37.95543710701167583465576171875" lon="-1.3811182044446468353271484375">
        <ele>329.399993896484375</ele>
        <time>2020-02-22T16:59:22.000Z</time>
      </trkpt>
      <trkpt lat="37.9553116299211978912353515625" lon="-1.38084922917187213897705078125">
        <ele>328.20001220703125</ele>
        <time>2020-02-22T16:59:24.000Z</time>
      </trkpt>
      <trkpt lat="37.95524985529482364654541015625" lon="-1.38071511872112751007080078125">
        <ele>327</ele>
        <time>2020-02-22T16:59:25.000Z</time>
      </trkpt>
      <trkpt lat="37.9551869072020053863525390625" lon="-1.3805857859551906585693359375">
        <ele>326</ele>
        <time>2020-02-22T16:59:26.000Z</time>
      </trkpt>
      <trkpt lat="37.955057322978973388671875" lon="-1.38032502494752407073974609375">
        <ele>324.399993896484375</ele>
        <time>2020-02-22T16:59:28.000Z</time>
      </trkpt>
      <trkpt lat="37.95499320141971111297607421875" lon="-1.3801948539912700653076171875">
        <ele>323.399993896484375</ele>
        <time>2020-02-22T16:59:29.000Z</time>
      </trkpt>
      <trkpt lat="37.954924888908863067626953125" lon="-1.3800577260553836822509765625">
        <ele>322</ele>
        <time>2020-02-22T16:59:30.000Z</time>
      </trkpt>
      <trkpt lat="37.95485640875995159149169921875" lon="-1.3799189217388629913330078125">
        <ele>320.20001220703125</ele>
        <time>2020-02-22T16:59:31.000Z</time>
      </trkpt>
      <trkpt lat="37.95478650368750095367431640625" lon="-1.37977735139429569244384765625">
        <ele>319.20001220703125</ele>
        <time>2020-02-22T16:59:32.000Z</time>
      </trkpt>
      <trkpt lat="37.95465054921805858612060546875" lon="-1.379499323666095733642578125">
        <ele>317.600006103515625</ele>
        <time>2020-02-22T16:59:34.000Z</time>
      </trkpt>
      <trkpt lat="37.9545837454497814178466796875" lon="-1.37936010025441646575927734375">
        <ele>316.399993896484375</ele>
        <time>2020-02-22T16:59:35.000Z</time>
      </trkpt>
      <trkpt lat="37.95452180318534374237060546875" lon="-1.37921936810016632080078125">
        <ele>315.20001220703125</ele>
        <time>2020-02-22T16:59:36.000Z</time>
      </trkpt>
      <trkpt lat="37.95446799136698246002197265625" lon="-1.37907746247947216033935546875">
        <ele>314</ele>
        <time>2020-02-22T16:59:37.000Z</time>
      </trkpt>
      <trkpt lat="37.95442365109920501708984375" lon="-1.3789389096200466156005859375">
        <ele>312.79998779296875</ele>
        <time>2020-02-22T16:59:38.000Z</time>
      </trkpt>
      <trkpt lat="37.9543882794678211212158203125" lon="-1.3788024522364139556884765625">
        <ele>311.600006103515625</ele>
        <time>2020-02-22T16:59:39.000Z</time>
      </trkpt>
      <trkpt lat="37.9543626308441162109375" lon="-1.3786680065095424652099609375">
        <ele>310.20001220703125</ele>
        <time>2020-02-22T16:59:40.000Z</time>
      </trkpt>
      <trkpt lat="37.95434184372425079345703125" lon="-1.3785419426858425140380859375">
        <ele>308.79998779296875</ele>
        <time>2020-02-22T16:59:41.000Z</time>
      </trkpt>
      <trkpt lat="37.954303286969661712646484375" lon="-1.37830875813961029052734375">
        <ele>307.79998779296875</ele>
        <time>2020-02-22T16:59:43.000Z</time>
      </trkpt>
      <trkpt lat="37.95426674187183380126953125" lon="-1.3781067542731761932373046875">
        <ele>307.399993896484375</ele>
        <time>2020-02-22T16:59:45.000Z</time>
      </trkpt>
      <trkpt lat="37.9542176239192485809326171875" lon="-1.3778412155807018280029296875">
        <ele>307.399993896484375</ele>
        <time>2020-02-22T16:59:48.000Z</time>
      </trkpt>
      <trkpt lat="37.954182922840118408203125" lon="-1.37767709791660308837890625">
        <ele>307.399993896484375</ele>
        <time>2020-02-22T16:59:50.000Z</time>
      </trkpt>
      <trkpt lat="37.95416372828185558319091796875" lon="-1.377597637474536895751953125">
        <ele>307.399993896484375</ele>
        <time>2020-02-22T16:59:51.000Z</time>
      </trkpt>
      <trkpt lat="37.95412248931825160980224609375" lon="-1.37743435800075531005859375">
        <ele>308.399993896484375</ele>
        <time>2020-02-22T16:59:53.000Z</time>
      </trkpt>
      <trkpt lat="37.9541032947599887847900390625" lon="-1.3773557357490062713623046875">
        <ele>309</ele>
        <time>2020-02-22T16:59:54.000Z</time>
      </trkpt>
      <trkpt lat="37.9540479741990566253662109375" lon="-1.37713663280010223388671875">
        <ele>310.399993896484375</ele>
        <time>2020-02-22T16:59:57.000Z</time>
      </trkpt>
      <trkpt lat="37.9540298692882061004638671875" lon="-1.377070248126983642578125">
        <ele>311</ele>
        <time>2020-02-22T16:59:58.000Z</time>
      </trkpt>
      <trkpt lat="37.9540120996534824371337890625" lon="-1.37700629420578479766845703125">
        <ele>311.79998779296875</ele>
        <time>2020-02-22T16:59:59.000Z</time>
      </trkpt>
      <trkpt lat="37.953961975872516632080078125" lon="-1.37682910077273845672607421875">
        <ele>313</ele>
        <time>2020-02-22T17:00:02.000Z</time>
      </trkpt>
      <trkpt lat="37.95391428284347057342529296875" lon="-1.37667604722082614898681640625">
        <ele>313.79998779296875</ele>
        <time>2020-02-22T17:00:05.000Z</time>
      </trkpt>
      <trkpt lat="37.95389659702777862548828125" lon="-1.37663011439144611358642578125">
        <ele>314.20001220703125</ele>
        <time>2020-02-22T17:00:06.000Z</time>
      </trkpt>
      <trkpt lat="37.95383180491626262664794921875" lon="-1.37650321237742900848388671875">
        <ele>315.399993896484375</ele>
        <time>2020-02-22T17:00:09.000Z</time>
      </trkpt>
      <trkpt lat="37.95378654263913631439208984375" lon="-1.37642643414437770843505859375">
        <ele>316.20001220703125</ele>
        <time>2020-02-22T17:00:11.000Z</time>
      </trkpt>
      <trkpt lat="37.953764498233795166015625" lon="-1.37638628482818603515625">
        <ele>316.600006103515625</ele>
        <time>2020-02-22T17:00:12.000Z</time>
      </trkpt>
      <trkpt lat="37.953720577061176300048828125" lon="-1.37631344608962535858154296875">
        <ele>317.399993896484375</ele>
        <time>2020-02-22T17:00:14.000Z</time>
      </trkpt>
      <trkpt lat="37.953640110790729522705078125" lon="-1.3762141205370426177978515625">
        <ele>318.600006103515625</ele>
        <time>2020-02-22T17:00:17.000Z</time>
      </trkpt>
      <trkpt lat="37.95358520932495594024658203125" lon="-1.376153938472270965576171875">
        <ele>319.399993896484375</ele>
        <time>2020-02-22T17:00:19.000Z</time>
      </trkpt>
      <trkpt lat="37.9535579681396484375" lon="-1.3761259429156780242919921875">
        <ele>319.79998779296875</ele>
        <time>2020-02-22T17:00:20.000Z</time>
      </trkpt>
      <trkpt lat="37.9534397833049297332763671875" lon="-1.37602259404957294464111328125">
        <ele>321.20001220703125</ele>
        <time>2020-02-22T17:00:24.000Z</time>
      </trkpt>
      <trkpt lat="37.95335621573030948638916015625" lon="-1.37596459127962589263916015625">
        <ele>322.399993896484375</ele>
        <time>2020-02-22T17:00:27.000Z</time>
      </trkpt>
      <trkpt lat="37.95332855544984340667724609375" lon="-1.37594665400683879852294921875">
        <ele>323.20001220703125</ele>
        <time>2020-02-22T17:00:28.000Z</time>
      </trkpt>
      <trkpt lat="37.95329854823648929595947265625" lon="-1.3759267888963222503662109375">
        <ele>323.399993896484375</ele>
        <time>2020-02-22T17:00:29.000Z</time>
      </trkpt>
      <trkpt lat="37.95318958349525928497314453125" lon="-1.37585319578647613525390625">
        <ele>324.600006103515625</ele>
        <time>2020-02-22T17:00:33.000Z</time>
      </trkpt>
      <trkpt lat="37.95310660265386104583740234375" lon="-1.37579678557813167572021484375">
        <ele>325.600006103515625</ele>
        <time>2020-02-22T17:00:36.000Z</time>
      </trkpt>
      <trkpt lat="37.9530830495059490203857421875" lon="-1.37577834539115428924560546875">
        <ele>326</ele>
        <time>2020-02-22T17:00:37.000Z</time>
      </trkpt>
      <trkpt lat="37.953018844127655029296875" lon="-1.37572067789733409881591796875">
        <ele>326.600006103515625</ele>
        <time>2020-02-22T17:00:40.000Z</time>
      </trkpt>
      <trkpt lat="37.952892445027828216552734375" lon="-1.3756312429904937744140625">
        <ele>328.20001220703125</ele>
        <time>2020-02-22T17:00:45.000Z</time>
      </trkpt>
      <trkpt lat="37.9527668841183185577392578125" lon="-1.37555387802422046661376953125">
        <ele>329.20001220703125</ele>
        <time>2020-02-22T17:00:50.000Z</time>
      </trkpt>
      <trkpt lat="37.95265984721481800079345703125" lon="-1.37548950500786304473876953125">
        <ele>330.20001220703125</ele>
        <time>2020-02-22T17:00:54.000Z</time>
      </trkpt>
      <trkpt lat="37.952632606029510498046875" lon="-1.3754738308489322662353515625">
        <ele>330.399993896484375</ele>
        <time>2020-02-22T17:00:55.000Z</time>
      </trkpt>
      <trkpt lat="37.9524949751794338226318359375" lon="-1.37539395131170749664306640625">
        <ele>331.600006103515625</ele>
        <time>2020-02-22T17:01:00.000Z</time>
      </trkpt>
      <trkpt lat="37.95237846672534942626953125" lon="-1.37531675398349761962890625">
        <ele>332.399993896484375</ele>
        <time>2020-02-22T17:01:04.000Z</time>
      </trkpt>
      <trkpt lat="37.9523196257650852203369140625" lon="-1.37527409009635448455810546875">
        <ele>332.79998779296875</ele>
        <time>2020-02-22T17:01:06.000Z</time>
      </trkpt>
      <trkpt lat="37.95211334712803363800048828125" lon="-1.375128328800201416015625">
        <ele>333.600006103515625</ele>
        <time>2020-02-22T17:01:13.000Z</time>
      </trkpt>
      <trkpt lat="37.95189424417912960052490234375" lon="-1.37496395967900753021240234375">
        <ele>334.79998779296875</ele>
        <time>2020-02-22T17:01:20.000Z</time>
      </trkpt>
      <trkpt lat="37.95183238573372364044189453125" lon="-1.3749088905751705169677734375">
        <ele>335</ele>
        <time>2020-02-22T17:01:22.000Z</time>
      </trkpt>
      <trkpt lat="37.9516802541911602020263671875" lon="-1.3747653923928737640380859375">
        <ele>336.20001220703125</ele>
        <time>2020-02-22T17:01:27.000Z</time>
      </trkpt>
      <trkpt lat="37.951595596969127655029296875" lon="-1.37466690503060817718505859375">
        <ele>337</ele>
        <time>2020-02-22T17:01:30.000Z</time>
      </trkpt>
      <trkpt lat="37.9515421204268932342529296875" lon="-1.37460387311875820159912109375">
        <ele>337.20001220703125</ele>
        <time>2020-02-22T17:01:32.000Z</time>
      </trkpt>
      <trkpt lat="37.95139015652239322662353515625" lon="-1.37437923811376094818115234375">
        <ele>338.20001220703125</ele>
        <time>2020-02-22T17:01:38.000Z</time>
      </trkpt>
      <trkpt lat="37.951364256441593170166015625" lon="-1.37434068135917186737060546875">
        <ele>338.20001220703125</ele>
        <time>2020-02-22T17:01:39.000Z</time>
      </trkpt>
      <trkpt lat="37.95112478546798229217529296875" lon="-1.37400456704199314117431640625">
        <ele>339.600006103515625</ele>
        <time>2020-02-22T17:01:47.000Z</time>
      </trkpt>
      <trkpt lat="37.9508732445538043975830078125" lon="-1.3736542873084545135498046875">
        <ele>340.399993896484375</ele>
        <time>2020-02-22T17:01:55.000Z</time>
      </trkpt>
      <trkpt lat="37.95084482990205287933349609375" lon="-1.37361816130578517913818359375">
        <ele>340.600006103515625</ele>
        <time>2020-02-22T17:01:56.000Z</time>
      </trkpt>
      <trkpt lat="37.95064844191074371337890625" lon="-1.37335203588008880615234375">
        <ele>341.600006103515625</ele>
        <time>2020-02-22T17:02:03.000Z</time>
      </trkpt>
      <trkpt lat="37.950520701706409454345703125" lon="-1.37320610694587230682373046875">
        <ele>342.79998779296875</ele>
        <time>2020-02-22T17:02:07.000Z</time>
      </trkpt>
      <trkpt lat="37.9504130780696868896484375" lon="-1.3731211982667446136474609375">
        <ele>343.600006103515625</ele>
        <time>2020-02-22T17:02:10.000Z</time>
      </trkpt>
      <trkpt lat="37.95037351548671722412109375" lon="-1.373093537986278533935546875">
        <ele>344</ele>
        <time>2020-02-22T17:02:11.000Z</time>
      </trkpt>
      <trkpt lat="37.9502040334045886993408203125" lon="-1.37300410307943820953369140625">
        <ele>345</ele>
        <time>2020-02-22T17:02:15.000Z</time>
      </trkpt>
      <trkpt lat="37.9501068033277988433837890625" lon="-1.3729585893452167510986328125">
        <ele>345.399993896484375</ele>
        <time>2020-02-22T17:02:17.000Z</time>
      </trkpt>
      <trkpt lat="37.94994109310209751129150390625" lon="-1.3728848285973072052001953125">
        <ele>345.600006103515625</ele>
        <time>2020-02-22T17:02:20.000Z</time>
      </trkpt>
      <trkpt lat="37.9496856965124607086181640625" lon="-1.37278617359697818756103515625">
        <ele>345.600006103515625</ele>
        <time>2020-02-22T17:02:24.000Z</time>
      </trkpt>
      <trkpt lat="37.94945645146071910858154296875" lon="-1.37271962128579616546630859375">
        <ele>345.600006103515625</ele>
        <time>2020-02-22T17:02:27.000Z</time>
      </trkpt>
      <trkpt lat="37.949280850589275360107421875" lon="-1.372693218290805816650390625">
        <ele>345</ele>
        <time>2020-02-22T17:02:29.000Z</time>
      </trkpt>
      <trkpt lat="37.94898421503603458404541015625" lon="-1.372681148350238800048828125">
        <ele>343.600006103515625</ele>
        <time>2020-02-22T17:02:32.000Z</time>
      </trkpt>
      <trkpt lat="37.9488760046660900115966796875" lon="-1.37268223799765110015869140625">
        <ele>342.600006103515625</ele>
        <time>2020-02-22T17:02:33.000Z</time>
      </trkpt>
      <trkpt lat="37.94876544736325740814208984375" lon="-1.37268508784472942352294921875">
        <ele>341.79998779296875</ele>
        <time>2020-02-22T17:02:34.000Z</time>
      </trkpt>
      <trkpt lat="37.94865078292787075042724609375" lon="-1.37268944643437862396240234375">
        <ele>341</ele>
        <time>2020-02-22T17:02:35.000Z</time>
      </trkpt>
      <trkpt lat="37.94841994531452655792236328125" lon="-1.372720710933208465576171875">
        <ele>340</ele>
        <time>2020-02-22T17:02:37.000Z</time>
      </trkpt>
      <trkpt lat="37.9481977410614490509033203125" lon="-1.3727735169231891632080078125">
        <ele>338.600006103515625</ele>
        <time>2020-02-22T17:02:39.000Z</time>
      </trkpt>
      <trkpt lat="37.948093302547931671142578125" lon="-1.37279950082302093505859375">
        <ele>337.79998779296875</ele>
        <time>2020-02-22T17:02:40.000Z</time>
      </trkpt>
      <trkpt lat="37.947992719709873199462890625" lon="-1.3728224672377109527587890625">
        <ele>337.399993896484375</ele>
        <time>2020-02-22T17:02:41.000Z</time>
      </trkpt>
      <trkpt lat="37.9478946514427661895751953125" lon="-1.37283713556826114654541015625">
        <ele>336.79998779296875</ele>
        <time>2020-02-22T17:02:42.000Z</time>
      </trkpt>
      <trkpt lat="37.94780286960303783416748046875" lon="-1.37283830903470516204833984375">
        <ele>335.79998779296875</ele>
        <time>2020-02-22T17:02:43.000Z</time>
      </trkpt>
      <trkpt lat="37.9477156139910221099853515625" lon="-1.3728251494467258453369140625">
        <ele>334.79998779296875</ele>
        <time>2020-02-22T17:02:44.000Z</time>
      </trkpt>
      <trkpt lat="37.94763288460671901702880859375" lon="-1.37279941700398921966552734375">
        <ele>334.20001220703125</ele>
        <time>2020-02-22T17:02:45.000Z</time>
      </trkpt>
      <trkpt lat="37.947472035884857177734375" lon="-1.372735463082790374755859375">
        <ele>332.79998779296875</ele>
        <time>2020-02-22T17:02:47.000Z</time>
      </trkpt>
      <trkpt lat="37.94732543639838695526123046875" lon="-1.372676454484462738037109375">
        <ele>332.20001220703125</ele>
        <time>2020-02-22T17:02:49.000Z</time>
      </trkpt>
      <trkpt lat="37.94696384109556674957275390625" lon="-1.3724831677973270416259765625">
        <ele>332.20001220703125</ele>
        <time>2020-02-22T17:02:55.000Z</time>
      </trkpt>
      <trkpt lat="37.94665656052529811859130859375" lon="-1.3722638972103595733642578125">
        <ele>333.79998779296875</ele>
        <time>2020-02-22T17:03:02.000Z</time>
      </trkpt>
      <trkpt lat="37.94662504456937313079833984375" lon="-1.37224428355693817138671875">
        <ele>334</ele>
        <time>2020-02-22T17:03:03.000Z</time>
      </trkpt>
      <trkpt lat="37.94652764685451984405517578125" lon="-1.37217161245644092559814453125">
        <ele>335</ele>
        <time>2020-02-22T17:03:07.000Z</time>
      </trkpt>
      <trkpt lat="37.946506105363368988037109375" lon="-1.37214847840368747711181640625">
        <ele>335.399993896484375</ele>
        <time>2020-02-22T17:03:08.000Z</time>
      </trkpt>
      <trkpt lat="37.94646495021879673004150390625" lon="-1.37207689695060253143310546875">
        <ele>336</ele>
        <time>2020-02-22T17:03:10.000Z</time>
      </trkpt>
      <trkpt lat="37.9464489407837390899658203125" lon="-1.37202568352222442626953125">
        <ele>336.20001220703125</ele>
        <time>2020-02-22T17:03:11.000Z</time>
      </trkpt>
      <trkpt lat="37.94643326662480831146240234375" lon="-1.37196759693324565887451171875">
        <ele>336.399993896484375</ele>
        <time>2020-02-22T17:03:12.000Z</time>
      </trkpt>
      <trkpt lat="37.94637459330260753631591796875" lon="-1.3717730529606342315673828125">
        <ele>336.600006103515625</ele>
        <time>2020-02-22T17:03:15.000Z</time>
      </trkpt>
      <trkpt lat="37.94628876261413097381591796875" lon="-1.3714810274541378021240234375">
        <ele>336.79998779296875</ele>
        <time>2020-02-22T17:03:19.000Z</time>
      </trkpt>
      <trkpt lat="37.94622623361647129058837890625" lon="-1.3711249642074108123779296875">
        <ele>336</ele>
        <time>2020-02-22T17:03:23.000Z</time>
      </trkpt>
      <trkpt lat="37.94622271321713924407958984375" lon="-1.37102832086384296417236328125">
        <ele>336</ele>
        <time>2020-02-22T17:03:24.000Z</time>
      </trkpt>
      <trkpt lat="37.946167476475238800048828125" lon="-1.3706334494054317474365234375">
        <ele>335.79998779296875</ele>
        <time>2020-02-22T17:03:28.000Z</time>
      </trkpt>
      <trkpt lat="37.94613403268158435821533203125" lon="-1.3705311901867389678955078125">
        <ele>335.600006103515625</ele>
        <time>2020-02-22T17:03:29.000Z</time>
      </trkpt>
      <trkpt lat="37.9459976591169834136962890625" lon="-1.3702193833887577056884765625">
        <ele>335.20001220703125</ele>
        <time>2020-02-22T17:03:32.000Z</time>
      </trkpt>
      <trkpt lat="37.94589095748960971832275390625" lon="-1.3699991069734096527099609375">
        <ele>334.399993896484375</ele>
        <time>2020-02-22T17:03:34.000Z</time>
      </trkpt>
      <trkpt lat="37.94571988284587860107421875" lon="-1.3696571253240108489990234375">
        <ele>333.399993896484375</ele>
        <time>2020-02-22T17:03:37.000Z</time>
      </trkpt>
      <trkpt lat="37.945598848164081573486328125" lon="-1.3694214262068271636962890625">
        <ele>332</ele>
        <time>2020-02-22T17:03:39.000Z</time>
      </trkpt>
      <trkpt lat="37.94548745267093181610107421875" lon="-1.369179524481296539306640625">
        <ele>330.600006103515625</ele>
        <time>2020-02-22T17:03:41.000Z</time>
      </trkpt>
      <trkpt lat="37.94543783180415630340576171875" lon="-1.36905555613338947296142578125">
        <ele>329.79998779296875</ele>
        <time>2020-02-22T17:03:42.000Z</time>
      </trkpt>
      <trkpt lat="37.94539131224155426025390625" lon="-1.36893150396645069122314453125">
        <ele>329.399993896484375</ele>
        <time>2020-02-22T17:03:43.000Z</time>
      </trkpt>
      <trkpt lat="37.94531076215207576751708984375" lon="-1.368676610291004180908203125">
        <ele>327.399993896484375</ele>
        <time>2020-02-22T17:03:45.000Z</time>
      </trkpt>
      <trkpt lat="37.94525577686727046966552734375" lon="-1.368411742150783538818359375">
        <ele>325.79998779296875</ele>
        <time>2020-02-22T17:03:47.000Z</time>
      </trkpt>
      <trkpt lat="37.9452201537787914276123046875" lon="-1.3679991848766803741455078125">
        <ele>325</ele>
        <time>2020-02-22T17:03:50.000Z</time>
      </trkpt>
      <trkpt lat="37.94521621428430080413818359375" lon="-1.36772073805332183837890625">
        <ele>323.600006103515625</ele>
        <time>2020-02-22T17:03:52.000Z</time>
      </trkpt>
      <trkpt lat="37.9452201537787914276123046875" lon="-1.36703182943165302276611328125">
        <ele>322.600006103515625</ele>
        <time>2020-02-22T17:03:57.000Z</time>
      </trkpt>
      <trkpt lat="37.94520632363855838775634765625" lon="-1.36689889244735240936279296875">
        <ele>322.600006103515625</ele>
        <time>2020-02-22T17:03:58.000Z</time>
      </trkpt>
      <trkpt lat="37.9451819323003292083740234375" lon="-1.36677249334752559661865234375">
        <ele>322.20001220703125</ele>
        <time>2020-02-22T17:03:59.000Z</time>
      </trkpt>
      <trkpt lat="37.945056371390819549560546875" lon="-1.36640788055956363677978515625">
        <ele>321.20001220703125</ele>
        <time>2020-02-22T17:04:02.000Z</time>
      </trkpt>
      <trkpt lat="37.94500884599983692169189453125" lon="-1.36628567241132259368896484375">
        <ele>321</ele>
        <time>2020-02-22T17:04:03.000Z</time>
      </trkpt>
      <trkpt lat="37.94483399949967861175537109375" lon="-1.3657840155065059661865234375">
        <ele>319.79998779296875</ele>
        <time>2020-02-22T17:04:07.000Z</time>
      </trkpt>
      <trkpt lat="37.9447856359183788299560546875" lon="-1.36551101692020893096923828125">
        <ele>319</ele>
        <time>2020-02-22T17:04:09.000Z</time>
      </trkpt>
      <trkpt lat="37.94477264396846294403076171875" lon="-1.3653712905943393707275390625">
        <ele>318.399993896484375</ele>
        <time>2020-02-22T17:04:10.000Z</time>
      </trkpt>
      <trkpt lat="37.9447608254849910736083984375" lon="-1.36509619653224945068359375">
        <ele>316.79998779296875</ele>
        <time>2020-02-22T17:04:12.000Z</time>
      </trkpt>
      <trkpt lat="37.9447527788579463958740234375" lon="-1.3648174144327640533447265625">
        <ele>315</ele>
        <time>2020-02-22T17:04:14.000Z</time>
      </trkpt>
      <trkpt lat="37.944745905697345733642578125" lon="-1.36454232037067413330078125">
        <ele>313.600006103515625</ele>
        <time>2020-02-22T17:04:16.000Z</time>
      </trkpt>
      <trkpt lat="37.94474364258348941802978515625" lon="-1.36428239755332469940185546875">
        <ele>312.399993896484375</ele>
        <time>2020-02-22T17:04:18.000Z</time>
      </trkpt>
      <trkpt lat="37.9447457380592823028564453125" lon="-1.3640441000461578369140625">
        <ele>311</ele>
        <time>2020-02-22T17:04:20.000Z</time>
      </trkpt>
      <trkpt lat="37.9447531141340732574462890625" lon="-1.36392985470592975616455078125">
        <ele>309.79998779296875</ele>
        <time>2020-02-22T17:04:21.000Z</time>
      </trkpt>
      <trkpt lat="37.94479745440185070037841796875" lon="-1.36369734071195125579833984375">
        <ele>308</ele>
        <time>2020-02-22T17:04:23.000Z</time>
      </trkpt>
      <trkpt lat="37.94484338723123073577880859375" lon="-1.36358619667589664459228515625">
        <ele>307</ele>
        <time>2020-02-22T17:04:24.000Z</time>
      </trkpt>
      <trkpt lat="37.9449056647717952728271484375" lon="-1.36348226107656955718994140625">
        <ele>306.399993896484375</ele>
        <time>2020-02-22T17:04:25.000Z</time>
      </trkpt>
      <trkpt lat="37.94505712576210498809814453125" lon="-1.36329643428325653076171875">
        <ele>305.600006103515625</ele>
        <time>2020-02-22T17:04:27.000Z</time>
      </trkpt>
      <trkpt lat="37.945143878459930419921875" lon="-1.36320926249027252197265625">
        <ele>305.20001220703125</ele>
        <time>2020-02-22T17:04:28.000Z</time>
      </trkpt>
      <trkpt lat="37.94532299973070621490478515625" lon="-1.3630270399153232574462890625">
        <ele>303.79998779296875</ele>
        <time>2020-02-22T17:04:30.000Z</time>
      </trkpt>
      <trkpt lat="37.94549583457410335540771484375" lon="-1.36282830499112606048583984375">
        <ele>302.600006103515625</ele>
        <time>2020-02-22T17:04:32.000Z</time>
      </trkpt>
      <trkpt lat="37.9456419311463832855224609375" lon="-1.36259411461651325225830078125">
        <ele>302</ele>
        <time>2020-02-22T17:04:34.000Z</time>
      </trkpt>
      <trkpt lat="37.94569574296474456787109375" lon="-1.3624580763280391693115234375">
        <ele>301</ele>
        <time>2020-02-22T17:04:35.000Z</time>
      </trkpt>
      <trkpt lat="37.94573723338544368743896484375" lon="-1.36231566779315471649169921875">
        <ele>300</ele>
        <time>2020-02-22T17:04:36.000Z</time>
      </trkpt>
      <trkpt lat="37.94577084481716156005859375" lon="-1.3621707446873188018798828125">
        <ele>298.79998779296875</ele>
        <time>2020-02-22T17:04:37.000Z</time>
      </trkpt>
      <trkpt lat="37.9457978345453739166259765625" lon="-1.36202749796211719512939453125">
        <ele>297.79998779296875</ele>
        <time>2020-02-22T17:04:38.000Z</time>
      </trkpt>
      <trkpt lat="37.94582256115972995758056640625" lon="-1.36188869364559650421142578125">
        <ele>297</ele>
        <time>2020-02-22T17:04:39.000Z</time>
      </trkpt>
      <trkpt lat="37.94584552757441997528076171875" lon="-1.3617561757564544677734375">
        <ele>296.399993896484375</ele>
        <time>2020-02-22T17:04:40.000Z</time>
      </trkpt>
      <trkpt lat="37.94586933217942714691162109375" lon="-1.361626423895359039306640625">
        <ele>295.399993896484375</ele>
        <time>2020-02-22T17:04:41.000Z</time>
      </trkpt>
      <trkpt lat="37.945917360484600067138671875" lon="-1.3613734580576419830322265625">
        <ele>294.20001220703125</ele>
        <time>2020-02-22T17:04:43.000Z</time>
      </trkpt>
      <trkpt lat="37.94593974016606807708740234375" lon="-1.361249573528766632080078125">
        <ele>292.79998779296875</ele>
        <time>2020-02-22T17:04:44.000Z</time>
      </trkpt>
      <trkpt lat="37.9459604434669017791748046875" lon="-1.3611273653805255889892578125">
        <ele>292.20001220703125</ele>
        <time>2020-02-22T17:04:45.000Z</time>
      </trkpt>
      <trkpt lat="37.9459979943931102752685546875" lon="-1.36088856495916843414306640625">
        <ele>291.600006103515625</ele>
        <time>2020-02-22T17:04:47.000Z</time>
      </trkpt>
      <trkpt lat="37.94603101909160614013671875" lon="-1.36066074483096599578857421875">
        <ele>291.399993896484375</ele>
        <time>2020-02-22T17:04:49.000Z</time>
      </trkpt>
      <trkpt lat="37.946047447621822357177734375" lon="-1.36055228300392627716064453125">
        <ele>291.399993896484375</ele>
        <time>2020-02-22T17:04:50.000Z</time>
      </trkpt>
      <trkpt lat="37.94606454670429229736328125" lon="-1.360445581376552581787109375">
        <ele>291.399993896484375</ele>
        <time>2020-02-22T17:04:51.000Z</time>
      </trkpt>
      <trkpt lat="37.94608105905354022979736328125" lon="-1.36034105904400348663330078125">
        <ele>291.399993896484375</ele>
        <time>2020-02-22T17:04:52.000Z</time>
      </trkpt>
      <trkpt lat="37.9460955597460269927978515625" lon="-1.36023963801562786102294921875">
        <ele>291.600006103515625</ele>
        <time>2020-02-22T17:04:53.000Z</time>
      </trkpt>
      <trkpt lat="37.94611006043851375579833984375" lon="-1.3600400649011135101318359375">
        <ele>292.20001220703125</ele>
        <time>2020-02-22T17:04:55.000Z</time>
      </trkpt>
      <trkpt lat="37.946106456220149993896484375" lon="-1.35984786786139011383056640625">
        <ele>292.79998779296875</ele>
        <time>2020-02-22T17:04:57.000Z</time>
      </trkpt>
      <trkpt lat="37.9460784606635570526123046875" lon="-1.35957562364637851715087890625">
        <ele>293.399993896484375</ele>
        <time>2020-02-22T17:05:00.000Z</time>
      </trkpt>
      <trkpt lat="37.94605591334402561187744140625" lon="-1.35940195061266422271728515625">
        <ele>294</ele>
        <time>2020-02-22T17:05:02.000Z</time>
      </trkpt>
      <trkpt lat="37.946045435965061187744140625" lon="-1.35931829921901226043701171875">
        <ele>294.20001220703125</ele>
        <time>2020-02-22T17:05:03.000Z</time>
      </trkpt>
      <trkpt lat="37.94602456502616405487060546875" lon="-1.359154768288135528564453125">
        <ele>295.20001220703125</ele>
        <time>2020-02-22T17:05:05.000Z</time>
      </trkpt>
      <trkpt lat="37.946012578904628753662109375" lon="-1.35899484157562255859375">
        <ele>296.399993896484375</ele>
        <time>2020-02-22T17:05:07.000Z</time>
      </trkpt>
      <trkpt lat="37.94598600827157497406005859375" lon="-1.358670294284820556640625">
        <ele>297.600006103515625</ele>
        <time>2020-02-22T17:05:11.000Z</time>
      </trkpt>
      <trkpt lat="37.94596991501748561859130859375" lon="-1.35850558988749980926513671875">
        <ele>297.79998779296875</ele>
        <time>2020-02-22T17:05:13.000Z</time>
      </trkpt>
      <trkpt lat="37.94588752090930938720703125" lon="-1.35791324079036712646484375">
        <ele>298.600006103515625</ele>
        <time>2020-02-22T17:05:20.000Z</time>
      </trkpt>
      <trkpt lat="37.94583982788026332855224609375" lon="-1.35765600018203258514404296875">
        <ele>299</ele>
        <time>2020-02-22T17:05:23.000Z</time>
      </trkpt>
      <trkpt lat="37.945794649422168731689453125" lon="-1.35730748064815998077392578125">
        <ele>299.79998779296875</ele>
        <time>2020-02-22T17:05:27.000Z</time>
      </trkpt>
      <trkpt lat="37.945741005241870880126953125" lon="-1.3569303788244724273681640625">
        <ele>300.399993896484375</ele>
        <time>2020-02-22T17:05:31.000Z</time>
      </trkpt>
      <trkpt lat="37.9456550069153308868408203125" lon="-1.3564105331897735595703125">
        <ele>300.600006103515625</ele>
        <time>2020-02-22T17:05:37.000Z</time>
      </trkpt>
      <trkpt lat="37.94562944211065769195556640625" lon="-1.356326378881931304931640625">
        <ele>300.79998779296875</ele>
        <time>2020-02-22T17:05:38.000Z</time>
      </trkpt>
      <trkpt lat="37.945519387722015380859375" lon="-1.35603175498545169830322265625">
        <ele>301.79998779296875</ele>
        <time>2020-02-22T17:05:42.000Z</time>
      </trkpt>
      <trkpt lat="37.94548963196575641632080078125" lon="-1.3559634424746036529541015625">
        <ele>301.79998779296875</ele>
        <time>2020-02-22T17:05:43.000Z</time>
      </trkpt>
      <trkpt lat="37.94530942104756832122802734375" lon="-1.35559857822954654693603515625">
        <ele>302.600006103515625</ele>
        <time>2020-02-22T17:05:49.000Z</time>
      </trkpt>
      <trkpt lat="37.94525024481117725372314453125" lon="-1.3554779626429080963134765625">
        <ele>303.20001220703125</ele>
        <time>2020-02-22T17:05:51.000Z</time>
      </trkpt>
      <trkpt lat="37.94517145492136478424072265625" lon="-1.35529146529734134674072265625">
        <ele>304.600006103515625</ele>
        <time>2020-02-22T17:05:54.000Z</time>
      </trkpt>
      <trkpt lat="37.9451484046876430511474609375" lon="-1.35522700846195220947265625">
        <ele>305</ele>
        <time>2020-02-22T17:05:55.000Z</time>
      </trkpt>
      <trkpt lat="37.94512887485325336456298828125" lon="-1.355158276855945587158203125">
        <ele>305.20001220703125</ele>
        <time>2020-02-22T17:05:56.000Z</time>
      </trkpt>
      <trkpt lat="37.94510372914373874664306640625" lon="-1.355011425912380218505859375">
        <ele>305.600006103515625</ele>
        <time>2020-02-22T17:05:58.000Z</time>
      </trkpt>
      <trkpt lat="37.945093922317028045654296875" lon="-1.3548613898456096649169921875">
        <ele>305.79998779296875</ele>
        <time>2020-02-22T17:06:00.000Z</time>
      </trkpt>
      <trkpt lat="37.94509082101285457611083984375" lon="-1.3547856174409389495849609375">
        <ele>305.79998779296875</ele>
        <time>2020-02-22T17:06:01.000Z</time>
      </trkpt>
      <trkpt lat="37.9450924135744571685791015625" lon="-1.35441706515848636627197265625">
        <ele>306.600006103515625</ele>
        <time>2020-02-22T17:06:06.000Z</time>
      </trkpt>
      <trkpt lat="37.94509719125926494598388671875" lon="-1.35426811873912811279296875">
        <ele>307</ele>
        <time>2020-02-22T17:06:08.000Z</time>
      </trkpt>
      <trkpt lat="37.94510272331535816192626953125" lon="-1.3539608381688594818115234375">
        <ele>307.79998779296875</ele>
        <time>2020-02-22T17:06:12.000Z</time>
      </trkpt>
      <trkpt lat="37.9450934194028377532958984375" lon="-1.3535863347351551055908203125">
        <ele>308.600006103515625</ele>
        <time>2020-02-22T17:06:17.000Z</time>
      </trkpt>
      <trkpt lat="37.94506416656076908111572265625" lon="-1.35322876274585723876953125">
        <ele>308.79998779296875</ele>
        <time>2020-02-22T17:06:22.000Z</time>
      </trkpt>
      <trkpt lat="37.945044972002506256103515625" lon="-1.35309062898159027099609375">
        <ele>309</ele>
        <time>2020-02-22T17:06:24.000Z</time>
      </trkpt>
      <trkpt lat="37.94497196562588214874267578125" lon="-1.35270246304571628570556640625">
        <ele>310</ele>
        <time>2020-02-22T17:06:30.000Z</time>
      </trkpt>
      <trkpt lat="37.9449398629367351531982421875" lon="-1.35252342559397220611572265625">
        <ele>311.20001220703125</ele>
        <time>2020-02-22T17:06:33.000Z</time>
      </trkpt>
      <trkpt lat="37.9449049942195415496826171875" lon="-1.3522435538470745086669921875">
        <ele>312.20001220703125</ele>
        <time>2020-02-22T17:06:37.000Z</time>
      </trkpt>
      <trkpt lat="37.944899462163448333740234375" lon="-1.35207449086010456085205078125">
        <ele>313</ele>
        <time>2020-02-22T17:06:39.000Z</time>
      </trkpt>
      <trkpt lat="37.94490625150501728057861328125" lon="-1.3518905080854892730712890625">
        <ele>313.20001220703125</ele>
        <time>2020-02-22T17:06:41.000Z</time>
      </trkpt>
      <trkpt lat="37.944933660328388214111328125" lon="-1.3515763543546199798583984375">
        <ele>313.399993896484375</ele>
        <time>2020-02-22T17:06:44.000Z</time>
      </trkpt>
      <trkpt lat="37.94499166309833526611328125" lon="-1.35122640989720821380615234375">
        <ele>313.399993896484375</ele>
        <time>2020-02-22T17:06:47.000Z</time>
      </trkpt>
      <trkpt lat="37.94503851793706417083740234375" lon="-1.35098232887685298919677734375">
        <ele>312.399993896484375</ele>
        <time>2020-02-22T17:06:49.000Z</time>
      </trkpt>
      <trkpt lat="37.9450639151036739349365234375" lon="-1.3508618809282779693603515625">
        <ele>312.20001220703125</ele>
        <time>2020-02-22T17:06:50.000Z</time>
      </trkpt>
      <trkpt lat="37.945115379989147186279296875" lon="-1.3506198115646839141845703125">
        <ele>310.399993896484375</ele>
        <time>2020-02-22T17:06:52.000Z</time>
      </trkpt>
      <trkpt lat="37.9451631568372249603271484375" lon="-1.3503809273242950439453125">
        <ele>309.399993896484375</ele>
        <time>2020-02-22T17:06:54.000Z</time>
      </trkpt>
      <trkpt lat="37.945208251476287841796875" lon="-1.3501360081136226654052734375">
        <ele>308.20001220703125</ele>
        <time>2020-02-22T17:06:56.000Z</time>
      </trkpt>
      <trkpt lat="37.9452513344585895538330078125" lon="-1.3498847186565399169921875">
        <ele>307.399993896484375</ele>
        <time>2020-02-22T17:06:58.000Z</time>
      </trkpt>
      <trkpt lat="37.94526985846459865570068359375" lon="-1.34975907392799854278564453125">
        <ele>307</ele>
        <time>2020-02-22T17:06:59.000Z</time>
      </trkpt>
      <trkpt lat="37.94530539773404598236083984375" lon="-1.3492619432508945465087890625">
        <ele>305.79998779296875</ele>
        <time>2020-02-22T17:07:03.000Z</time>
      </trkpt>
      <trkpt lat="37.945307157933712005615234375" lon="-1.34913797490298748016357421875">
        <ele>305.399993896484375</ele>
        <time>2020-02-22T17:07:04.000Z</time>
      </trkpt>
      <trkpt lat="37.94531361199915409088134765625" lon="-1.348888613283634185791015625">
        <ele>304.79998779296875</ele>
        <time>2020-02-22T17:07:06.000Z</time>
      </trkpt>
      <trkpt lat="37.9453217424452304840087890625" lon="-1.348643191158771514892578125">
        <ele>303.600006103515625</ele>
        <time>2020-02-22T17:07:08.000Z</time>
      </trkpt>
      <trkpt lat="37.94534127227962017059326171875" lon="-1.348032988607883453369140625">
        <ele>302.600006103515625</ele>
        <time>2020-02-22T17:07:13.000Z</time>
      </trkpt>
      <trkpt lat="37.94536122120916843414306640625" lon="-1.347331590950489044189453125">
        <ele>302.20001220703125</ele>
        <time>2020-02-22T17:07:19.000Z</time>
      </trkpt>
      <trkpt lat="37.9453639872372150421142578125" lon="-1.34710905142128467559814453125">
        <ele>302</ele>
        <time>2020-02-22T17:07:21.000Z</time>
      </trkpt>
      <trkpt lat="37.9453428648412227630615234375" lon="-1.346791796386241912841796875">
        <ele>302</ele>
        <time>2020-02-22T17:07:24.000Z</time>
      </trkpt>
      <trkpt lat="37.9452942498028278350830078125" lon="-1.3465931452810764312744140625">
        <ele>302.20001220703125</ele>
        <time>2020-02-22T17:07:26.000Z</time>
      </trkpt>
      <trkpt lat="37.94522761367261409759521484375" lon="-1.34641050361096858978271484375">
        <ele>302.399993896484375</ele>
        <time>2020-02-22T17:07:28.000Z</time>
      </trkpt>
      <trkpt lat="37.94509400613605976104736328125" lon="-1.3460489921271800994873046875">
        <ele>302.399993896484375</ele>
        <time>2020-02-22T17:07:32.000Z</time>
      </trkpt>
      <trkpt lat="37.944990657269954681396484375" lon="-1.345695443451404571533203125">
        <ele>302.600006103515625</ele>
        <time>2020-02-22T17:07:36.000Z</time>
      </trkpt>
      <trkpt lat="37.94498135335743427276611328125" lon="-1.3456017337739467620849609375">
        <ele>302.79998779296875</ele>
        <time>2020-02-22T17:07:37.000Z</time>
      </trkpt>
      <trkpt lat="37.9449951834976673126220703125" lon="-1.345303170382976531982421875">
        <ele>303</ele>
        <time>2020-02-22T17:07:40.000Z</time>
      </trkpt>
      <trkpt lat="37.945018820464611053466796875" lon="-1.34510510601103305816650390625">
        <ele>303</ele>
        <time>2020-02-22T17:07:42.000Z</time>
      </trkpt>
      <trkpt lat="37.9450850374996662139892578125" lon="-1.3446284271776676177978515625">
        <ele>303.399993896484375</ele>
        <time>2020-02-22T17:07:47.000Z</time>
      </trkpt>
      <trkpt lat="37.9451279528439044952392578125" lon="-1.3443508185446262359619140625">
        <ele>303.399993896484375</ele>
        <time>2020-02-22T17:07:50.000Z</time>
      </trkpt>
      <trkpt lat="37.94526566751301288604736328125" lon="-1.34360994212329387664794921875">
        <ele>303</ele>
        <time>2020-02-22T17:07:58.000Z</time>
      </trkpt>
      <trkpt lat="37.94530539773404598236083984375" lon="-1.34341950528323650360107421875">
        <ele>302.79998779296875</ele>
        <time>2020-02-22T17:08:00.000Z</time>
      </trkpt>
      <trkpt lat="37.9454300366342067718505859375" lon="-1.34304684586822986602783203125">
        <ele>302.399993896484375</ele>
        <time>2020-02-22T17:08:04.000Z</time>
      </trkpt>
      <trkpt lat="37.94547253288328647613525390625" lon="-1.34295213036239147186279296875">
        <ele>302</ele>
        <time>2020-02-22T17:08:05.000Z</time>
      </trkpt>
      <trkpt lat="37.9457602836191654205322265625" lon="-1.3424913771450519561767578125">
        <ele>301.20001220703125</ele>
        <time>2020-02-22T17:08:10.000Z</time>
      </trkpt>
      <trkpt lat="37.945832200348377227783203125" lon="-1.34240345098078250885009765625">
        <ele>300.79998779296875</ele>
        <time>2020-02-22T17:08:11.000Z</time>
      </trkpt>
      <trkpt lat="37.9459812305867671966552734375" lon="-1.34222575463354587554931640625">
        <ele>299.600006103515625</ele>
        <time>2020-02-22T17:08:13.000Z</time>
      </trkpt>
      <trkpt lat="37.9461267404258251190185546875" lon="-1.34204101748764514923095703125">
        <ele>298.600006103515625</ele>
        <time>2020-02-22T17:08:15.000Z</time>
      </trkpt>
      <trkpt lat="37.946274094283580780029296875" lon="-1.34185745380818843841552734375">
        <ele>297.399993896484375</ele>
        <time>2020-02-22T17:08:17.000Z</time>
      </trkpt>
      <trkpt lat="37.9464234597980976104736328125" lon="-1.3416803441941738128662109375">
        <ele>296.399993896484375</ele>
        <time>2020-02-22T17:08:19.000Z</time>
      </trkpt>
      <trkpt lat="37.94656117446720600128173828125" lon="-1.34151010774075984954833984375">
        <ele>295.20001220703125</ele>
        <time>2020-02-22T17:08:21.000Z</time>
      </trkpt>
      <trkpt lat="37.94674490578472614288330078125" lon="-1.34127474389970302581787109375">
        <ele>294</ele>
        <time>2020-02-22T17:08:24.000Z</time>
      </trkpt>
      <trkpt lat="37.946859486401081085205078125" lon="-1.3411224447190761566162109375">
        <ele>293.399993896484375</ele>
        <time>2020-02-22T17:08:26.000Z</time>
      </trkpt>
      <trkpt lat="37.946968786418437957763671875" lon="-1.34096360765397548675537109375">
        <ele>293.20001220703125</ele>
        <time>2020-02-22T17:08:28.000Z</time>
      </trkpt>
      <trkpt lat="37.94707397930324077606201171875" lon="-1.34080150164663791656494140625">
        <ele>293</ele>
        <time>2020-02-22T17:08:30.000Z</time>
      </trkpt>
      <trkpt lat="37.94712225906550884246826171875" lon="-1.34072019718587398529052734375">
        <ele>293</ele>
        <time>2020-02-22T17:08:31.000Z</time>
      </trkpt>
      <trkpt lat="37.94716517440974712371826171875" lon="-1.340635456144809722900390625">
        <ele>292.79998779296875</ele>
        <time>2020-02-22T17:08:32.000Z</time>
      </trkpt>
      <trkpt lat="37.947243712842464447021484375" lon="-1.34046354331076145172119140625">
        <ele>292.79998779296875</ele>
        <time>2020-02-22T17:08:34.000Z</time>
      </trkpt>
      <trkpt lat="37.94734035618603229522705078125" lon="-1.34020705707371234893798828125">
        <ele>292.79998779296875</ele>
        <time>2020-02-22T17:08:37.000Z</time>
      </trkpt>
      <trkpt lat="37.947373129427433013916015625" lon="-1.34012793190777301788330078125">
        <ele>293</ele>
        <time>2020-02-22T17:08:38.000Z</time>
      </trkpt>
      <trkpt lat="37.9475416056811809539794921875" lon="-1.3398483954370021820068359375">
        <ele>293.20001220703125</ele>
        <time>2020-02-22T17:08:42.000Z</time>
      </trkpt>
      <trkpt lat="37.947591058909893035888671875" lon="-1.33979248814284801483154296875">
        <ele>293.20001220703125</ele>
        <time>2020-02-22T17:08:43.000Z</time>
      </trkpt>
      <trkpt lat="37.94764445163309574127197265625" lon="-1.339741609990596771240234375">
        <ele>293.399993896484375</ele>
        <time>2020-02-22T17:08:44.000Z</time>
      </trkpt>
      <trkpt lat="37.94775811024010181427001953125" lon="-1.339649744331836700439453125">
        <ele>294</ele>
        <time>2020-02-22T17:08:46.000Z</time>
      </trkpt>
      <trkpt lat="37.9478757083415985107421875" lon="-1.33956969715654850006103515625">
        <ele>294.600006103515625</ele>
        <time>2020-02-22T17:08:48.000Z</time>
      </trkpt>
      <trkpt lat="37.94793396256864070892333984375" lon="-1.33953382261097431182861328125">
        <ele>295</ele>
        <time>2020-02-22T17:08:49.000Z</time>
      </trkpt>
      <trkpt lat="37.94841005466878414154052734375" lon="-1.33928974159061908721923828125">
        <ele>296</ele>
        <time>2020-02-22T17:08:56.000Z</time>
      </trkpt>
      <trkpt lat="37.9484951309859752655029296875" lon="-1.33925252594053745269775390625">
        <ele>296</ele>
        <time>2020-02-22T17:08:57.000Z</time>
      </trkpt>
      <trkpt lat="37.94894532300531864166259765625" lon="-1.3390217721462249755859375">
        <ele>295.79998779296875</ele>
        <time>2020-02-22T17:09:02.000Z</time>
      </trkpt>
      <trkpt lat="37.9491402022540569305419921875" lon="-1.33892177604138851165771484375">
        <ele>294.79998779296875</ele>
        <time>2020-02-22T17:09:04.000Z</time>
      </trkpt>
      <trkpt lat="37.9493363387882709503173828125" lon="-1.33881096728146076202392578125">
        <ele>293.399993896484375</ele>
        <time>2020-02-22T17:09:06.000Z</time>
      </trkpt>
      <trkpt lat="37.94954110868275165557861328125" lon="-1.33868842385709285736083984375">
        <ele>291.600006103515625</ele>
        <time>2020-02-22T17:09:08.000Z</time>
      </trkpt>
      <trkpt lat="37.9497574456036090850830078125" lon="-1.3385693170130252838134765625">
        <ele>289.20001220703125</ele>
        <time>2020-02-22T17:09:10.000Z</time>
      </trkpt>
      <trkpt lat="37.949993647634983062744140625" lon="-1.3384566642343997955322265625">
        <ele>287.600006103515625</ele>
        <time>2020-02-22T17:09:12.000Z</time>
      </trkpt>
      <trkpt lat="37.9502335377037525177001953125" lon="-1.33835046552121639251708984375">
        <ele>286</ele>
        <time>2020-02-22T17:09:14.000Z</time>
      </trkpt>
      <trkpt lat="37.95035750605165958404541015625" lon="-1.33831501007080078125">
        <ele>285.20001220703125</ele>
        <time>2020-02-22T17:09:15.000Z</time>
      </trkpt>
      <trkpt lat="37.95048591680824756622314453125" lon="-1.338296569883823394775390625">
        <ele>284.399993896484375</ele>
        <time>2020-02-22T17:09:16.000Z</time>
      </trkpt>
      <trkpt lat="37.95061700977385044097900390625" lon="-1.3382910378277301788330078125">
        <ele>283.79998779296875</ele>
        <time>2020-02-22T17:09:17.000Z</time>
      </trkpt>
      <trkpt lat="37.95075237751007080078125" lon="-1.338289193809032440185546875">
        <ele>283</ele>
        <time>2020-02-22T17:09:18.000Z</time>
      </trkpt>
      <trkpt lat="37.95102504082024097442626953125" lon="-1.33825340308248996734619140625">
        <ele>281.399993896484375</ele>
        <time>2020-02-22T17:09:20.000Z</time>
      </trkpt>
      <trkpt lat="37.95116149820387363433837890625" lon="-1.33821166120469570159912109375">
        <ele>280.79998779296875</ele>
        <time>2020-02-22T17:09:21.000Z</time>
      </trkpt>
      <trkpt lat="37.95129460282623767852783203125" lon="-1.3381527364253997802734375">
        <ele>279.600006103515625</ele>
        <time>2020-02-22T17:09:22.000Z</time>
      </trkpt>
      <trkpt lat="37.95153717510402202606201171875" lon="-1.33797143585979938507080078125">
        <ele>278.399993896484375</ele>
        <time>2020-02-22T17:09:24.000Z</time>
      </trkpt>
      <trkpt lat="37.9517515003681182861328125" lon="-1.33771779946982860565185546875">
        <ele>277</ele>
        <time>2020-02-22T17:09:26.000Z</time>
      </trkpt>
      <trkpt lat="37.95184512622654438018798828125" lon="-1.33757782168686389923095703125">
        <ele>275.79998779296875</ele>
        <time>2020-02-22T17:09:27.000Z</time>
      </trkpt>
      <trkpt lat="37.95192810706794261932373046875" lon="-1.33743851445615291595458984375">
        <ele>274.79998779296875</ele>
        <time>2020-02-22T17:09:28.000Z</time>
      </trkpt>
      <trkpt lat="37.9521050490438938140869140625" lon="-1.33716375567018985748291015625">
        <ele>273</ele>
        <time>2020-02-22T17:09:30.000Z</time>
      </trkpt>
      <trkpt lat="37.95220077037811279296875" lon="-1.3370307348668575286865234375">
        <ele>271.79998779296875</ele>
        <time>2020-02-22T17:09:31.000Z</time>
      </trkpt>
      <trkpt lat="37.95230663381516933441162109375" lon="-1.33690760470926761627197265625">
        <ele>271</ele>
        <time>2020-02-22T17:09:32.000Z</time>
      </trkpt>
      <trkpt lat="37.952419705688953399658203125" lon="-1.33680098690092563629150390625">
        <ele>270.399993896484375</ele>
        <time>2020-02-22T17:09:33.000Z</time>
      </trkpt>
      <trkpt lat="37.952676527202129364013671875" lon="-1.33663594722747802734375">
        <ele>269.600006103515625</ele>
        <time>2020-02-22T17:09:35.000Z</time>
      </trkpt>
      <trkpt lat="37.95280971564352512359619140625" lon="-1.3365730829536914825439453125">
        <ele>269.20001220703125</ele>
        <time>2020-02-22T17:09:36.000Z</time>
      </trkpt>
      <trkpt lat="37.953213639557361602783203125" lon="-1.33643436245620250701904296875">
        <ele>267.600006103515625</ele>
        <time>2020-02-22T17:09:39.000Z</time>
      </trkpt>
      <trkpt lat="37.9534709639847278594970703125" lon="-1.33632053621113300323486328125">
        <ele>265.399993896484375</ele>
        <time>2020-02-22T17:09:41.000Z</time>
      </trkpt>
      <trkpt lat="37.95358738861978054046630859375" lon="-1.33624509908258914947509765625">
        <ele>264</ele>
        <time>2020-02-22T17:09:42.000Z</time>
      </trkpt>
      <trkpt lat="37.953696437180042266845703125" lon="-1.3361533172428607940673828125">
        <ele>262.79998779296875</ele>
        <time>2020-02-22T17:09:43.000Z</time>
      </trkpt>
      <trkpt lat="37.953896261751651763916015625" lon="-1.33593262173235416412353515625">
        <ele>261.399993896484375</ele>
        <time>2020-02-22T17:09:45.000Z</time>
      </trkpt>
      <trkpt lat="37.95408560894429683685302734375" lon="-1.3357073999941349029541015625">
        <ele>260</ele>
        <time>2020-02-22T17:09:47.000Z</time>
      </trkpt>
      <trkpt lat="37.95435215346515178680419921875" lon="-1.3353677652776241302490234375">
        <ele>258.600006103515625</ele>
        <time>2020-02-22T17:09:50.000Z</time>
      </trkpt>
      <trkpt lat="37.954425998032093048095703125" lon="-1.3352457247674465179443359375">
        <ele>258.399993896484375</ele>
        <time>2020-02-22T17:09:51.000Z</time>
      </trkpt>
      <trkpt lat="37.95449481345713138580322265625" lon="-1.3351169787347316741943359375">
        <ele>258.20001220703125</ele>
        <time>2020-02-22T17:09:52.000Z</time>
      </trkpt>
      <trkpt lat="37.954688854515552520751953125" lon="-1.33473082445561885833740234375">
        <ele>257</ele>
        <time>2020-02-22T17:09:55.000Z</time>
      </trkpt>
      <trkpt lat="37.954833693802356719970703125" lon="-1.33448280394077301025390625">
        <ele>255.1999969482421875</ele>
        <time>2020-02-22T17:09:57.000Z</time>
      </trkpt>
      <trkpt lat="37.95491977594792842864990234375" lon="-1.33436420001089572906494140625">
        <ele>254.1999969482421875</ele>
        <time>2020-02-22T17:09:58.000Z</time>
      </trkpt>
      <trkpt lat="37.955009043216705322265625" lon="-1.3342512957751750946044921875">
        <ele>253.600006103515625</ele>
        <time>2020-02-22T17:09:59.000Z</time>
      </trkpt>
      <trkpt lat="37.95519520528614521026611328125" lon="-1.33402657695114612579345703125">
        <ele>252.600006103515625</ele>
        <time>2020-02-22T17:10:01.000Z</time>
      </trkpt>
      <trkpt lat="37.9553733207285404205322265625" lon="-1.333786435425281524658203125">
        <ele>252</ele>
        <time>2020-02-22T17:10:03.000Z</time>
      </trkpt>
      <trkpt lat="37.9555516876280307769775390625" lon="-1.3335420191287994384765625">
        <ele>251.600006103515625</ele>
        <time>2020-02-22T17:10:05.000Z</time>
      </trkpt>
      <trkpt lat="37.95581764541566371917724609375" lon="-1.333166845142841339111328125">
        <ele>250.8000030517578125</ele>
        <time>2020-02-22T17:10:08.000Z</time>
      </trkpt>
      <trkpt lat="37.955906577408313751220703125" lon="-1.3330396078526973724365234375">
        <ele>250.1999969482421875</ele>
        <time>2020-02-22T17:10:09.000Z</time>
      </trkpt>
      <trkpt lat="37.95599542558193206787109375" lon="-1.332912705838680267333984375">
        <ele>249.600006103515625</ele>
        <time>2020-02-22T17:10:10.000Z</time>
      </trkpt>
      <trkpt lat="37.95608150772750377655029296875" lon="-1.33278488181531429290771484375">
        <ele>249</ele>
        <time>2020-02-22T17:10:11.000Z</time>
      </trkpt>
      <trkpt lat="37.95616884715855121612548828125" lon="-1.3326590694487094879150390625">
        <ele>248.399993896484375</ele>
        <time>2020-02-22T17:10:12.000Z</time>
      </trkpt>
      <trkpt lat="37.956255264580249786376953125" lon="-1.332532502710819244384765625">
        <ele>247.399993896484375</ele>
        <time>2020-02-22T17:10:13.000Z</time>
      </trkpt>
      <trkpt lat="37.95634218491613864898681640625" lon="-1.33240585215389728546142578125">
        <ele>246.1999969482421875</ele>
        <time>2020-02-22T17:10:14.000Z</time>
      </trkpt>
      <trkpt lat="37.956516444683074951171875" lon="-1.33215255104005336761474609375">
        <ele>244.399993896484375</ele>
        <time>2020-02-22T17:10:16.000Z</time>
      </trkpt>
      <trkpt lat="37.95668969862163066864013671875" lon="-1.331898830831050872802734375">
        <ele>242.600006103515625</ele>
        <time>2020-02-22T17:10:18.000Z</time>
      </trkpt>
      <trkpt lat="37.95677402056753635406494140625" lon="-1.33177218027412891387939453125">
        <ele>242.1999969482421875</ele>
        <time>2020-02-22T17:10:19.000Z</time>
      </trkpt>
      <trkpt lat="37.9568582586944103240966796875" lon="-1.3316451944410800933837890625">
        <ele>241.600006103515625</ele>
        <time>2020-02-22T17:10:20.000Z</time>
      </trkpt>
      <trkpt lat="37.95694299973547458648681640625" lon="-1.331518627703189849853515625">
        <ele>241</ele>
        <time>2020-02-22T17:10:21.000Z</time>
      </trkpt>
      <trkpt lat="37.9571147449314594268798828125" lon="-1.3312648236751556396484375">
        <ele>240</ele>
        <time>2020-02-22T17:10:23.000Z</time>
      </trkpt>
      <trkpt lat="37.95729822479188442230224609375" lon="-1.33100406266748905181884765625">
        <ele>238.600006103515625</ele>
        <time>2020-02-22T17:10:25.000Z</time>
      </trkpt>
      <trkpt lat="37.9573895037174224853515625" lon="-1.33086777292191982269287109375">
        <ele>237.8000030517578125</ele>
        <time>2020-02-22T17:10:26.000Z</time>
      </trkpt>
      <trkpt lat="37.9574806988239288330078125" lon="-1.33072427473962306976318359375">
        <ele>237</ele>
        <time>2020-02-22T17:10:27.000Z</time>
      </trkpt>
      <trkpt lat="37.9576629213988780975341796875" lon="-1.330415904521942138671875">
        <ele>236.1999969482421875</ele>
        <time>2020-02-22T17:10:29.000Z</time>
      </trkpt>
      <trkpt lat="37.95775269158184528350830078125" lon="-1.33025287650525569915771484375">
        <ele>235.8000030517578125</ele>
        <time>2020-02-22T17:10:30.000Z</time>
      </trkpt>
      <trkpt lat="37.95791731216013431549072265625" lon="-1.32991072721779346466064453125">
        <ele>234.399993896484375</ele>
        <time>2020-02-22T17:10:32.000Z</time>
      </trkpt>
      <trkpt lat="37.9580505006015300750732421875" lon="-1.32955097593367099761962890625">
        <ele>232.600006103515625</ele>
        <time>2020-02-22T17:10:34.000Z</time>
      </trkpt>
      <trkpt lat="37.95816340483725070953369140625" lon="-1.32918946444988250732421875">
        <ele>231.1999969482421875</ele>
        <time>2020-02-22T17:10:36.000Z</time>
      </trkpt>
      <trkpt lat="37.9583108425140380859375" lon="-1.3286639191210269927978515625">
        <ele>229.1999969482421875</ele>
        <time>2020-02-22T17:10:39.000Z</time>
      </trkpt>
      <trkpt lat="37.95835333876311779022216796875" lon="-1.32849887944757938385009765625">
        <ele>228</ele>
        <time>2020-02-22T17:10:40.000Z</time>
      </trkpt>
      <trkpt lat="37.95839575119316577911376953125" lon="-1.32833761163055896759033203125">
        <ele>226.600006103515625</ele>
        <time>2020-02-22T17:10:41.000Z</time>
      </trkpt>
      <trkpt lat="37.95843749307096004486083984375" lon="-1.32817768491804599761962890625">
        <ele>225.399993896484375</ele>
        <time>2020-02-22T17:10:42.000Z</time>
      </trkpt>
      <trkpt lat="37.9585161991417407989501953125" lon="-1.327862776815891265869140625">
        <ele>224.1999969482421875</ele>
        <time>2020-02-22T17:10:44.000Z</time>
      </trkpt>
      <trkpt lat="37.95859021134674549102783203125" lon="-1.3275558315217494964599609375">
        <ele>223</ele>
        <time>2020-02-22T17:10:46.000Z</time>
      </trkpt>
      <trkpt lat="37.958657182753086090087890625" lon="-1.3272621296346187591552734375">
        <ele>222.399993896484375</ele>
        <time>2020-02-22T17:10:48.000Z</time>
      </trkpt>
      <trkpt lat="37.95872666873037815093994140625" lon="-1.3269840180873870849609375">
        <ele>221.8000030517578125</ele>
        <time>2020-02-22T17:10:50.000Z</time>
      </trkpt>
      <trkpt lat="37.958836220204830169677734375" lon="-1.3265630789101123809814453125">
        <ele>220</ele>
        <time>2020-02-22T17:10:53.000Z</time>
      </trkpt>
      <trkpt lat="37.95887209475040435791015625" lon="-1.326419413089752197265625">
        <ele>218.8000030517578125</ele>
        <time>2020-02-22T17:10:54.000Z</time>
      </trkpt>
      <trkpt lat="37.9589493758976459503173828125" lon="-1.32612059824168682098388671875">
        <ele>217.8000030517578125</ele>
        <time>2020-02-22T17:10:56.000Z</time>
      </trkpt>
      <trkpt lat="37.95915632508695125579833984375" lon="-1.32536999881267547607421875">
        <ele>216.399993896484375</ele>
        <time>2020-02-22T17:11:01.000Z</time>
      </trkpt>
      <trkpt lat="37.95922924764454364776611328125" lon="-1.32510303519666194915771484375">
        <ele>216</ele>
        <time>2020-02-22T17:11:03.000Z</time>
      </trkpt>
      <trkpt lat="37.95933418907225131988525390625" lon="-1.324708163738250732421875">
        <ele>215.600006103515625</ele>
        <time>2020-02-22T17:11:06.000Z</time>
      </trkpt>
      <trkpt lat="37.95940476469695568084716796875" lon="-1.32445058785378932952880859375">
        <ele>215.399993896484375</ele>
        <time>2020-02-22T17:11:08.000Z</time>
      </trkpt>
      <trkpt lat="37.95948020182549953460693359375" lon="-1.32419879548251628875732421875">
        <ele>215.399993896484375</ele>
        <time>2020-02-22T17:11:10.000Z</time>
      </trkpt>
      <trkpt lat="37.95968874357640743255615234375" lon="-1.323482729494571685791015625">
        <ele>215.399993896484375</ele>
        <time>2020-02-22T17:11:16.000Z</time>
      </trkpt>
      <trkpt lat="37.959751524031162261962890625" lon="-1.32325549609959125518798828125">
        <ele>215.1999969482421875</ele>
        <time>2020-02-22T17:11:18.000Z</time>
      </trkpt>
      <trkpt lat="37.959907762706279754638671875" lon="-1.32258318364620208740234375">
        <ele>215.399993896484375</ele>
        <time>2020-02-22T17:11:24.000Z</time>
      </trkpt>
      <trkpt lat="37.95995797030627727508544921875" lon="-1.3223526813089847564697265625">
        <ele>215.600006103515625</ele>
        <time>2020-02-22T17:11:26.000Z</time>
      </trkpt>
      <trkpt lat="37.96010666526854038238525390625" lon="-1.32164432667195796966552734375">
        <ele>216.1999969482421875</ele>
        <time>2020-02-22T17:11:32.000Z</time>
      </trkpt>
      <trkpt lat="37.96019936911761760711669921875" lon="-1.321183741092681884765625">
        <ele>216.399993896484375</ele>
        <time>2020-02-22T17:11:36.000Z</time>
      </trkpt>
      <trkpt lat="37.96026952564716339111328125" lon="-1.32084402255713939666748046875">
        <ele>216.399993896484375</ele>
        <time>2020-02-22T17:11:39.000Z</time>
      </trkpt>
      <trkpt lat="37.96040522865951061248779296875" lon="-1.32014648057520389556884765625">
        <ele>216.600006103515625</ele>
        <time>2020-02-22T17:11:45.000Z</time>
      </trkpt>
      <trkpt lat="37.9605436138808727264404296875" lon="-1.3194575719535350799560546875">
        <ele>216.600006103515625</ele>
        <time>2020-02-22T17:11:51.000Z</time>
      </trkpt>
      <trkpt lat="37.9606338031589984893798828125" lon="-1.31900168024003505706787109375">
        <ele>216.399993896484375</ele>
        <time>2020-02-22T17:11:55.000Z</time>
      </trkpt>
      <trkpt lat="37.9607709310948848724365234375" lon="-1.3183072395622730255126953125">
        <ele>216.399993896484375</ele>
        <time>2020-02-22T17:12:01.000Z</time>
      </trkpt>
      <trkpt lat="37.96082046814262866973876953125" lon="-1.31794053129851818084716796875">
        <ele>216.399993896484375</ele>
        <time>2020-02-22T17:12:04.000Z</time>
      </trkpt>
      <trkpt lat="37.960881404578685760498046875" lon="-1.3172008283436298370361328125">
        <ele>216</ele>
        <time>2020-02-22T17:12:10.000Z</time>
      </trkpt>
      <trkpt lat="37.96088182367384433746337890625" lon="-1.31695699878036975860595703125">
        <ele>215.8000030517578125</ele>
        <time>2020-02-22T17:12:12.000Z</time>
      </trkpt>
      <trkpt lat="37.960824072360992431640625" lon="-1.31623431108891963958740234375">
        <ele>215.600006103515625</ele>
        <time>2020-02-22T17:12:18.000Z</time>
      </trkpt>
      <trkpt lat="37.96080596745014190673828125" lon="-1.31611931137740612030029296875">
        <ele>215.399993896484375</ele>
        <time>2020-02-22T17:12:19.000Z</time>
      </trkpt>
      <trkpt lat="37.96071770600974559783935546875" lon="-1.31566568277776241302490234375">
        <ele>215.399993896484375</ele>
        <time>2020-02-22T17:12:23.000Z</time>
      </trkpt>
      <trkpt lat="37.96061427332460880279541015625" lon="-1.31522412411868572235107421875">
        <ele>215.1999969482421875</ele>
        <time>2020-02-22T17:12:27.000Z</time>
      </trkpt>
      <trkpt lat="37.96045769937336444854736328125" lon="-1.3145648874342441558837890625">
        <ele>215</ele>
        <time>2020-02-22T17:12:33.000Z</time>
      </trkpt>
      <trkpt lat="37.9603826813399791717529296875" lon="-1.3142292760312557220458984375">
        <ele>215</ele>
        <time>2020-02-22T17:12:36.000Z</time>
      </trkpt>
      <trkpt lat="37.9602220840752124786376953125" lon="-1.31349259056150913238525390625">
        <ele>214.8000030517578125</ele>
        <time>2020-02-22T17:12:43.000Z</time>
      </trkpt>
      <trkpt lat="37.96020087786018848419189453125" lon="-1.3133967854082584381103515625">
        <ele>214.8000030517578125</ele>
        <time>2020-02-22T17:12:44.000Z</time>
      </trkpt>
      <trkpt lat="37.96003558672964572906494140625" lon="-1.3126839883625507354736328125">
        <ele>215.600006103515625</ele>
        <time>2020-02-22T17:12:52.000Z</time>
      </trkpt>
      <trkpt lat="37.96001530252397060394287109375" lon="-1.31260134279727935791015625">
        <ele>215.8000030517578125</ele>
        <time>2020-02-22T17:12:53.000Z</time>
      </trkpt>
      <trkpt lat="37.9599364288151264190673828125" lon="-1.3122796453535556793212890625">
        <ele>216.600006103515625</ele>
        <time>2020-02-22T17:12:57.000Z</time>
      </trkpt>
      <trkpt lat="37.9598609916865825653076171875" lon="-1.31195786409080028533935546875">
        <ele>217.399993896484375</ele>
        <time>2020-02-22T17:13:01.000Z</time>
      </trkpt>
      <trkpt lat="37.95984632335603237152099609375" lon="-1.31188158877193927764892578125">
        <ele>217.8000030517578125</ele>
        <time>2020-02-22T17:13:02.000Z</time>
      </trkpt>
      <trkpt lat="37.959794104099273681640625" lon="-1.3116567023098468780517578125">
        <ele>218.8000030517578125</ele>
        <time>2020-02-22T17:13:05.000Z</time>
      </trkpt>
      <trkpt lat="37.9597144760191440582275390625" lon="-1.31136291660368442535400390625">
        <ele>219.8000030517578125</ele>
        <time>2020-02-22T17:13:09.000Z</time>
      </trkpt>
      <trkpt lat="37.95969326980412006378173828125" lon="-1.31129083223640918731689453125">
        <ele>219.8000030517578125</ele>
        <time>2020-02-22T17:13:10.000Z</time>
      </trkpt>
      <trkpt lat="37.95957759954035282135009765625" lon="-1.310938708484172821044921875">
        <ele>221</ele>
        <time>2020-02-22T17:13:15.000Z</time>
      </trkpt>
      <trkpt lat="37.959490679204463958740234375" lon="-1.31073050200939178466796875">
        <ele>221.399993896484375</ele>
        <time>2020-02-22T17:13:18.000Z</time>
      </trkpt>
      <trkpt lat="37.9593480192124843597412109375" lon="-1.31046353839337825775146484375">
        <ele>222</ele>
        <time>2020-02-22T17:13:22.000Z</time>
      </trkpt>
      <trkpt lat="37.95921835117042064666748046875" lon="-1.31026153452694416046142578125">
        <ele>222.399993896484375</ele>
        <time>2020-02-22T17:13:25.000Z</time>
      </trkpt>
      <trkpt lat="37.9588732682168483734130859375" lon="-1.30983975715935230255126953125">
        <ele>222.8000030517578125</ele>
        <time>2020-02-22T17:13:32.000Z</time>
      </trkpt>
      <trkpt lat="37.9587720148265361785888671875" lon="-1.3097248412668704986572265625">
        <ele>223</ele>
        <time>2020-02-22T17:13:34.000Z</time>
      </trkpt>
      <trkpt lat="37.9583864472806453704833984375" lon="-1.309261657297611236572265625">
        <ele>223.1999969482421875</ele>
        <time>2020-02-22T17:13:41.000Z</time>
      </trkpt>
      <trkpt lat="37.95801705680787563323974609375" lon="-1.3087062723934650421142578125">
        <ele>223</ele>
        <time>2020-02-22T17:13:48.000Z</time>
      </trkpt>
      <trkpt lat="37.95783299021422863006591796875" lon="-1.308334954082965850830078125">
        <ele>222.8000030517578125</ele>
        <time>2020-02-22T17:13:52.000Z</time>
      </trkpt>
      <trkpt lat="37.95779024250805377960205078125" lon="-1.308237053453922271728515625">
        <ele>222.8000030517578125</ele>
        <time>2020-02-22T17:13:53.000Z</time>
      </trkpt>
      <trkpt lat="37.9577497579157352447509765625" lon="-1.308137141168117523193359375">
        <ele>222.8000030517578125</ele>
        <time>2020-02-22T17:13:54.000Z</time>
      </trkpt>
      <trkpt lat="37.9576736502349376678466796875" lon="-1.307925917208194732666015625">
        <ele>222.600006103515625</ele>
        <time>2020-02-22T17:13:56.000Z</time>
      </trkpt>
      <trkpt lat="37.95756376348435878753662109375" lon="-1.30758016370236873626708984375">
        <ele>221.8000030517578125</ele>
        <time>2020-02-22T17:13:59.000Z</time>
      </trkpt>
      <trkpt lat="37.95753006823360919952392578125" lon="-1.30745996721088886260986328125">
        <ele>221.600006103515625</ele>
        <time>2020-02-22T17:14:00.000Z</time>
      </trkpt>
      <trkpt lat="37.95744256116449832916259765625" lon="-1.3070858828723430633544921875">
        <ele>221</ele>
        <time>2020-02-22T17:14:03.000Z</time>
      </trkpt>
      <trkpt lat="37.95742034912109375" lon="-1.30695738829672336578369140625">
        <ele>220.600006103515625</ele>
        <time>2020-02-22T17:14:04.000Z</time>
      </trkpt>
      <trkpt lat="37.95738958753645420074462890625" lon="-1.30669671110808849334716796875">
        <ele>220.1999969482421875</ele>
        <time>2020-02-22T17:14:06.000Z</time>
      </trkpt>
      <trkpt lat="37.9573658667504787445068359375" lon="-1.3062882609665393829345703125">
        <ele>219.399993896484375</ele>
        <time>2020-02-22T17:14:09.000Z</time>
      </trkpt>
      <trkpt lat="37.95737139880657196044921875" lon="-1.30589045584201812744140625">
        <ele>218.1999969482421875</ele>
        <time>2020-02-22T17:14:12.000Z</time>
      </trkpt>
      <trkpt lat="37.95738883316516876220703125" lon="-1.305634975433349609375">
        <ele>217.1999969482421875</ele>
        <time>2020-02-22T17:14:14.000Z</time>
      </trkpt>
      <trkpt lat="37.9574040882289409637451171875" lon="-1.30550983361899852752685546875">
        <ele>216.8000030517578125</ele>
        <time>2020-02-22T17:14:15.000Z</time>
      </trkpt>
      <trkpt lat="37.95744021423161029815673828125" lon="-1.3052572868764400482177734375">
        <ele>216.600006103515625</ele>
        <time>2020-02-22T17:14:17.000Z</time>
      </trkpt>
      <trkpt lat="37.95746351592242717742919921875" lon="-1.3051302172243595123291015625">
        <ele>216</ele>
        <time>2020-02-22T17:14:18.000Z</time>
      </trkpt>
      <trkpt lat="37.95748899690806865692138671875" lon="-1.305004656314849853515625">
        <ele>215.399993896484375</ele>
        <time>2020-02-22T17:14:19.000Z</time>
      </trkpt>
      <trkpt lat="37.9575445689260959625244140625" lon="-1.30476350896060466766357421875">
        <ele>214.1999969482421875</ele>
        <time>2020-02-22T17:14:21.000Z</time>
      </trkpt>
      <trkpt lat="37.95764875598251819610595703125" lon="-1.30440987646579742431640625">
        <ele>213.1999969482421875</ele>
        <time>2020-02-22T17:14:24.000Z</time>
      </trkpt>
      <trkpt lat="37.9578909091651439666748046875" lon="-1.30383160896599292755126953125">
        <ele>212.399993896484375</ele>
        <time>2020-02-22T17:14:29.000Z</time>
      </trkpt>
      <trkpt lat="37.9581245966255664825439453125" lon="-1.30341385491192340850830078125">
        <ele>212.1999969482421875</ele>
        <time>2020-02-22T17:14:33.000Z</time>
      </trkpt>
      <trkpt lat="37.95825409702956676483154296875" lon="-1.30321704782545566558837890625">
        <ele>212</ele>
        <time>2020-02-22T17:14:35.000Z</time>
      </trkpt>
      <trkpt lat="37.95857612974941730499267578125" lon="-1.30272922106087207794189453125">
        <ele>210.600006103515625</ele>
        <time>2020-02-22T17:14:40.000Z</time>
      </trkpt>
      <trkpt lat="37.95883186161518096923828125" lon="-1.302343904972076416015625">
        <ele>209.399993896484375</ele>
        <time>2020-02-22T17:14:44.000Z</time>
      </trkpt>
      <trkpt lat="37.9590174369513988494873046875" lon="-1.3020456768572330474853515625">
        <ele>209</ele>
        <time>2020-02-22T17:14:47.000Z</time>
      </trkpt>
      <trkpt lat="37.9591897688806056976318359375" lon="-1.3017251528799533843994140625">
        <ele>208.1999969482421875</ele>
        <time>2020-02-22T17:14:50.000Z</time>
      </trkpt>
      <trkpt lat="37.959239892661571502685546875" lon="-1.30161375738680362701416015625">
        <ele>207.8000030517578125</ele>
        <time>2020-02-22T17:14:51.000Z</time>
      </trkpt>
      <trkpt lat="37.95932949520647525787353515625" lon="-1.3013848476111888885498046875">
        <ele>206.8000030517578125</ele>
        <time>2020-02-22T17:14:53.000Z</time>
      </trkpt>
      <trkpt lat="37.959434688091278076171875" lon="-1.3010254316031932830810546875">
        <ele>205.8000030517578125</ele>
        <time>2020-02-22T17:14:56.000Z</time>
      </trkpt>
      <trkpt lat="37.95946897007524967193603515625" lon="-1.3008966855704784393310546875">
        <ele>205.399993896484375</ele>
        <time>2020-02-22T17:14:57.000Z</time>
      </trkpt>
      <trkpt lat="37.95954859815537929534912109375" lon="-1.3003716431558132171630859375">
        <ele>205.1999969482421875</ele>
        <time>2020-02-22T17:15:01.000Z</time>
      </trkpt>
      <trkpt lat="37.95954667031764984130859375" lon="-1.29964350722730159759521484375">
        <ele>204.600006103515625</ele>
        <time>2020-02-22T17:15:07.000Z</time>
      </trkpt>
      <trkpt lat="37.95950015075504779815673828125" lon="-1.2989467196166515350341796875">
        <ele>204.399993896484375</ele>
        <time>2020-02-22T17:15:13.000Z</time>
      </trkpt>
      <trkpt lat="37.95949210412800312042236328125" lon="-1.2988330610096454620361328125">
        <ele>204.399993896484375</ele>
        <time>2020-02-22T17:15:14.000Z</time>
      </trkpt>
      <trkpt lat="37.95947416685521602630615234375" lon="-1.29860934801399707794189453125">
        <ele>204.399993896484375</ele>
        <time>2020-02-22T17:15:16.000Z</time>
      </trkpt>
      <trkpt lat="37.95941817574203014373779296875" lon="-1.29784273914992809295654296875">
        <ele>204.1999969482421875</ele>
        <time>2020-02-22T17:15:23.000Z</time>
      </trkpt>
      <trkpt lat="37.959394790232181549072265625" lon="-1.29762313328683376312255859375">
        <ele>204.1999969482421875</ele>
        <time>2020-02-22T17:15:25.000Z</time>
      </trkpt>
      <trkpt lat="37.959315665066242218017578125" lon="-1.29698510281741619110107421875">
        <ele>204.399993896484375</ele>
        <time>2020-02-22T17:15:31.000Z</time>
      </trkpt>
      <trkpt lat="37.95927953906357288360595703125" lon="-1.29676692187786102294921875">
        <ele>204.600006103515625</ele>
        <time>2020-02-22T17:15:33.000Z</time>
      </trkpt>
      <trkpt lat="37.9591678082942962646484375" lon="-1.29602939821779727935791015625">
        <ele>204.8000030517578125</ele>
        <time>2020-02-22T17:15:40.000Z</time>
      </trkpt>
      <trkpt lat="37.95914995484054088592529296875" lon="-1.2959215231239795684814453125">
        <ele>204.8000030517578125</ele>
        <time>2020-02-22T17:15:41.000Z</time>
      </trkpt>
      <trkpt lat="37.95902824960649013519287109375" lon="-1.29518433474004268646240234375">
        <ele>205</ele>
        <time>2020-02-22T17:15:48.000Z</time>
      </trkpt>
      <trkpt lat="37.9589912854135036468505859375" lon="-1.2949879467487335205078125">
        <ele>205.1999969482421875</ele>
        <time>2020-02-22T17:15:50.000Z</time>
      </trkpt>
      <trkpt lat="37.9588779620826244354248046875" lon="-1.2942759878933429718017578125">
        <ele>205.399993896484375</ele>
        <time>2020-02-22T17:15:58.000Z</time>
      </trkpt>
      <trkpt lat="37.9588166065514087677001953125" lon="-1.29371029324829578399658203125">
        <ele>206.399993896484375</ele>
        <time>2020-02-22T17:16:05.000Z</time>
      </trkpt>
      <trkpt lat="37.9588048718869686126708984375" lon="-1.2933828122913837432861328125">
        <ele>207.1999969482421875</ele>
        <time>2020-02-22T17:16:09.000Z</time>
      </trkpt>
      <trkpt lat="37.95880512334406375885009765625" lon="-1.2933053635060787200927734375">
        <ele>207.600006103515625</ele>
        <time>2020-02-22T17:16:10.000Z</time>
      </trkpt>
      <trkpt lat="37.95880881138145923614501953125" lon="-1.29315323196351528167724609375">
        <ele>208.399993896484375</ele>
        <time>2020-02-22T17:16:12.000Z</time>
      </trkpt>
      <trkpt lat="37.95881283469498157501220703125" lon="-1.2930797226727008819580078125">
        <ele>208.600006103515625</ele>
        <time>2020-02-22T17:16:13.000Z</time>
      </trkpt>
      <trkpt lat="37.958869747817516326904296875" lon="-1.2925771437585353851318359375">
        <ele>209.8000030517578125</ele>
        <time>2020-02-22T17:16:20.000Z</time>
      </trkpt>
      <trkpt lat="37.9589064605534076690673828125" lon="-1.29223532974720001220703125">
        <ele>210.8000030517578125</ele>
        <time>2020-02-22T17:16:25.000Z</time>
      </trkpt>
      <trkpt lat="37.95893839560449123382568359375" lon="-1.291974484920501708984375">
        <ele>211.8000030517578125</ele>
        <time>2020-02-22T17:16:29.000Z</time>
      </trkpt>
      <trkpt lat="37.95894761569797992706298828125" lon="-1.29190935753285884857177734375">
        <ele>212</ele>
        <time>2020-02-22T17:16:30.000Z</time>
      </trkpt>
      <trkpt lat="37.95900176279246807098388671875" lon="-1.2914539687335491180419921875">
        <ele>213.1999969482421875</ele>
        <time>2020-02-22T17:16:37.000Z</time>
      </trkpt>
      <trkpt lat="37.9590221308171749114990234375" lon="-1.291261017322540283203125">
        <ele>213.8000030517578125</ele>
        <time>2020-02-22T17:16:40.000Z</time>
      </trkpt>
      <trkpt lat="37.959044091403484344482421875" lon="-1.2911364622414112091064453125">
        <ele>214.1999969482421875</ele>
        <time>2020-02-22T17:16:42.000Z</time>
      </trkpt>
      <trkpt lat="37.9590979032218456268310546875" lon="-1.29076438955962657928466796875">
        <ele>215.399993896484375</ele>
        <time>2020-02-22T17:16:48.000Z</time>
      </trkpt>
      <trkpt lat="37.95911022461950778961181640625" lon="-1.29065089859068393707275390625">
        <ele>216</ele>
        <time>2020-02-22T17:16:50.000Z</time>
      </trkpt>
      <trkpt lat="37.9591170139610767364501953125" lon="-1.2905450351536273956298828125">
        <ele>216.8000030517578125</ele>
        <time>2020-02-22T17:16:52.000Z</time>
      </trkpt>
      <trkpt lat="37.959145344793796539306640625" lon="-1.29032232798635959625244140625">
        <ele>218</ele>
        <time>2020-02-22T17:16:56.000Z</time>
      </trkpt>
      <trkpt lat="37.95915850438177585601806640625" lon="-1.29015334881842136383056640625">
        <ele>218.8000030517578125</ele>
        <time>2020-02-22T17:16:59.000Z</time>
      </trkpt>
      <trkpt lat="37.95916403643786907196044921875" lon="-1.29009534604847431182861328125">
        <ele>219.1999969482421875</ele>
        <time>2020-02-22T17:17:00.000Z</time>
      </trkpt>
      <trkpt lat="37.9591951332986354827880859375" lon="-1.28981974907219409942626953125">
        <ele>220.399993896484375</ele>
        <time>2020-02-22T17:17:05.000Z</time>
      </trkpt>
      <trkpt lat="37.95921541750431060791015625" lon="-1.28964942879974842071533203125">
        <ele>221.1999969482421875</ele>
        <time>2020-02-22T17:17:08.000Z</time>
      </trkpt>
      <trkpt lat="37.959228493273258209228515625" lon="-1.28952872939407825469970703125">
        <ele>221.600006103515625</ele>
        <time>2020-02-22T17:17:10.000Z</time>
      </trkpt>
      <trkpt lat="37.95925489626824855804443359375" lon="-1.289292611181735992431640625">
        <ele>222.8000030517578125</ele>
        <time>2020-02-22T17:17:14.000Z</time>
      </trkpt>
      <trkpt lat="37.9592678882181644439697265625" lon="-1.28917400725185871124267578125">
        <ele>223.1999969482421875</ele>
        <time>2020-02-22T17:17:16.000Z</time>
      </trkpt>
      <trkpt lat="37.95929613523185253143310546875" lon="-1.28893160261213779449462890625">
        <ele>224</ele>
        <time>2020-02-22T17:17:20.000Z</time>
      </trkpt>
      <trkpt lat="37.95932538807392120361328125" lon="-1.2886798940598964691162109375">
        <ele>225</ele>
        <time>2020-02-22T17:17:24.000Z</time>
      </trkpt>
      <trkpt lat="37.95934910885989665985107421875" lon="-1.28848560154438018798828125">
        <ele>225.600006103515625</ele>
        <time>2020-02-22T17:17:27.000Z</time>
      </trkpt>
      <trkpt lat="37.95937190763652324676513671875" lon="-1.28829709254205226898193359375">
        <ele>226.399993896484375</ele>
        <time>2020-02-22T17:17:30.000Z</time>
      </trkpt>
      <trkpt lat="37.95941465534269809722900390625" lon="-1.28790624439716339111328125">
        <ele>227.399993896484375</ele>
        <time>2020-02-22T17:17:36.000Z</time>
      </trkpt>
      <trkpt lat="37.95944315381348133087158203125" lon="-1.28763156943023204803466796875">
        <ele>228</ele>
        <time>2020-02-22T17:17:40.000Z</time>
      </trkpt>
      <trkpt lat="37.95946645550429821014404296875" lon="-1.287425793707370758056640625">
        <ele>228.399993896484375</ele>
        <time>2020-02-22T17:17:43.000Z</time>
      </trkpt>
      <trkpt lat="37.9595220275223255157470703125" lon="-1.28700695000588893890380859375">
        <ele>229.600006103515625</ele>
        <time>2020-02-22T17:17:49.000Z</time>
      </trkpt>
      <trkpt lat="37.959550358355045318603515625" lon="-1.28678508102893829345703125">
        <ele>230</ele>
        <time>2020-02-22T17:17:52.000Z</time>
      </trkpt>
      <trkpt lat="37.959581203758716583251953125" lon="-1.2865515612065792083740234375">
        <ele>230.600006103515625</ele>
        <time>2020-02-22T17:17:55.000Z</time>
      </trkpt>
      <trkpt lat="37.95968337915837764739990234375" lon="-1.28591068089008331298828125">
        <ele>231.399993896484375</ele>
        <time>2020-02-22T17:18:03.000Z</time>
      </trkpt>
      <trkpt lat="37.95983341522514820098876953125" lon="-1.28532352857291698455810546875">
        <ele>231.600006103515625</ele>
        <time>2020-02-22T17:18:10.000Z</time>
      </trkpt>
      <trkpt lat="37.9600859619677066802978515625" lon="-1.284669823944568634033203125">
        <ele>231.1999969482421875</ele>
        <time>2020-02-22T17:18:17.000Z</time>
      </trkpt>
      <trkpt lat="37.96030213125050067901611328125" lon="-1.28417822532355785369873046875">
        <ele>230.399993896484375</ele>
        <time>2020-02-22T17:18:22.000Z</time>
      </trkpt>
      <trkpt lat="37.960391230881214141845703125" lon="-1.28397538326680660247802734375">
        <ele>230</ele>
        <time>2020-02-22T17:18:24.000Z</time>
      </trkpt>
      <trkpt lat="37.9604364931583404541015625" lon="-1.28387262113392353057861328125">
        <ele>230</ele>
        <time>2020-02-22T17:18:25.000Z</time>
      </trkpt>
      <trkpt lat="37.96048033051192760467529296875" lon="-1.283769942820072174072265625">
        <ele>229.600006103515625</ele>
        <time>2020-02-22T17:18:26.000Z</time>
      </trkpt>
      <trkpt lat="37.96052408404648303985595703125" lon="-1.28366592340171337127685546875">
        <ele>229.399993896484375</ele>
        <time>2020-02-22T17:18:27.000Z</time>
      </trkpt>
      <trkpt lat="37.960614524781703948974609375" lon="-1.2834522686898708343505859375">
        <ele>228.8000030517578125</ele>
        <time>2020-02-22T17:18:29.000Z</time>
      </trkpt>
      <trkpt lat="37.9607583582401275634765625" lon="-1.28311741165816783905029296875">
        <ele>228.1999969482421875</ele>
        <time>2020-02-22T17:18:32.000Z</time>
      </trkpt>
      <trkpt lat="37.96080999076366424560546875" lon="-1.28300207667052745819091796875">
        <ele>228</ele>
        <time>2020-02-22T17:18:33.000Z</time>
      </trkpt>
      <trkpt lat="37.96091300435364246368408203125" lon="-1.28276067785918712615966796875">
        <ele>226.8000030517578125</ele>
        <time>2020-02-22T17:18:35.000Z</time>
      </trkpt>
      <trkpt lat="37.96107041649520397186279296875" lon="-1.28238332457840442657470703125">
        <ele>225.600006103515625</ele>
        <time>2020-02-22T17:18:38.000Z</time>
      </trkpt>
      <trkpt lat="37.9611806385219097137451171875" lon="-1.28212683834135532379150390625">
        <ele>224.8000030517578125</ele>
        <time>2020-02-22T17:18:40.000Z</time>
      </trkpt>
      <trkpt lat="37.961235456168651580810546875" lon="-1.28199842758476734161376953125">
        <ele>224.600006103515625</ele>
        <time>2020-02-22T17:18:41.000Z</time>
      </trkpt>
      <trkpt lat="37.96129018999636173248291015625" lon="-1.28186917863786220550537109375">
        <ele>224.399993896484375</ele>
        <time>2020-02-22T17:18:42.000Z</time>
      </trkpt>
      <trkpt lat="37.9614022560417652130126953125" lon="-1.281610094010829925537109375">
        <ele>223.399993896484375</ele>
        <time>2020-02-22T17:18:44.000Z</time>
      </trkpt>
      <trkpt lat="37.96151809394359588623046875" lon="-1.281345225870609283447265625">
        <ele>221.1999969482421875</ele>
        <time>2020-02-22T17:18:46.000Z</time>
      </trkpt>
      <trkpt lat="37.96162915416061878204345703125" lon="-1.2810758315026760101318359375">
        <ele>220</ele>
        <time>2020-02-22T17:18:48.000Z</time>
      </trkpt>
      <trkpt lat="37.9617435671389102935791015625" lon="-1.28079973161220550537109375">
        <ele>218.399993896484375</ele>
        <time>2020-02-22T17:18:50.000Z</time>
      </trkpt>
      <trkpt lat="37.96185680665075778961181640625" lon="-1.2805189378559589385986328125">
        <ele>216.1999969482421875</ele>
        <time>2020-02-22T17:18:52.000Z</time>
      </trkpt>
      <trkpt lat="37.96197348274290561676025390625" lon="-1.28023269586265087127685546875">
        <ele>214.399993896484375</ele>
        <time>2020-02-22T17:18:54.000Z</time>
      </trkpt>
      <trkpt lat="37.9620969481766223907470703125" lon="-1.27994452603161334991455078125">
        <ele>213.1999969482421875</ele>
        <time>2020-02-22T17:18:56.000Z</time>
      </trkpt>
      <trkpt lat="37.9622243531048297882080078125" lon="-1.27965300343930721282958984375">
        <ele>212</ele>
        <time>2020-02-22T17:18:58.000Z</time>
      </trkpt>
      <trkpt lat="37.96234278939664363861083984375" lon="-1.2793551944196224212646484375">
        <ele>210.399993896484375</ele>
        <time>2020-02-22T17:19:00.000Z</time>
      </trkpt>
      <trkpt lat="37.96246801503002643585205078125" lon="-1.279054619371891021728515625">
        <ele>208.399993896484375</ele>
        <time>2020-02-22T17:19:02.000Z</time>
      </trkpt>
      <trkpt lat="37.962528280913829803466796875" lon="-1.27890131436288356781005859375">
        <ele>207.399993896484375</ele>
        <time>2020-02-22T17:19:03.000Z</time>
      </trkpt>
      <trkpt lat="37.962585277855396270751953125" lon="-1.2787470035254955291748046875">
        <ele>206.399993896484375</ele>
        <time>2020-02-22T17:19:04.000Z</time>
      </trkpt>
      <trkpt lat="37.9626923985779285430908203125" lon="-1.27843695692718029022216796875">
        <ele>204.399993896484375</ele>
        <time>2020-02-22T17:19:06.000Z</time>
      </trkpt>
      <trkpt lat="37.96274160034954547882080078125" lon="-1.27827954478561878204345703125">
        <ele>203.1999969482421875</ele>
        <time>2020-02-22T17:19:07.000Z</time>
      </trkpt>
      <trkpt lat="37.96278652735054492950439453125" lon="-1.27812112681567668914794921875">
        <ele>202.1999969482421875</ele>
        <time>2020-02-22T17:19:08.000Z</time>
      </trkpt>
      <trkpt lat="37.962828017771244049072265625" lon="-1.27796287648379802703857421875">
        <ele>201</ele>
        <time>2020-02-22T17:19:09.000Z</time>
      </trkpt>
      <trkpt lat="37.9628680832684040069580078125" lon="-1.27780412323772907257080078125">
        <ele>200</ele>
        <time>2020-02-22T17:19:10.000Z</time>
      </trkpt>
      <trkpt lat="37.9629083164036273956298828125" lon="-1.2776449508965015411376953125">
        <ele>198.8000030517578125</ele>
        <time>2020-02-22T17:19:11.000Z</time>
      </trkpt>
      <trkpt lat="37.96298132278025150299072265625" lon="-1.27732367254793643951416015625">
        <ele>196.8000030517578125</ele>
        <time>2020-02-22T17:19:13.000Z</time>
      </trkpt>
      <trkpt lat="37.9630159400403499603271484375" lon="-1.2771618179976940155029296875">
        <ele>195.8000030517578125</ele>
        <time>2020-02-22T17:19:14.000Z</time>
      </trkpt>
      <trkpt lat="37.9630501382052898406982421875" lon="-1.276998035609722137451171875">
        <ele>193.600006103515625</ele>
        <time>2020-02-22T17:19:15.000Z</time>
      </trkpt>
      <trkpt lat="37.963125742971897125244140625" lon="-1.27667373977601528167724609375">
        <ele>192</ele>
        <time>2020-02-22T17:19:17.000Z</time>
      </trkpt>
      <trkpt lat="37.96319707296788692474365234375" lon="-1.27634994685649871826171875">
        <ele>191</ele>
        <time>2020-02-22T17:19:19.000Z</time>
      </trkpt>
      <trkpt lat="37.96326882205903530120849609375" lon="-1.2760289199650287628173828125">
        <ele>189.399993896484375</ele>
        <time>2020-02-22T17:19:21.000Z</time>
      </trkpt>
      <trkpt lat="37.9633404873311519622802734375" lon="-1.275709569454193115234375">
        <ele>187.600006103515625</ele>
        <time>2020-02-22T17:19:23.000Z</time>
      </trkpt>
      <trkpt lat="37.96337594278156757354736328125" lon="-1.2755545042455196380615234375">
        <ele>186.600006103515625</ele>
        <time>2020-02-22T17:19:24.000Z</time>
      </trkpt>
      <trkpt lat="37.96341173350811004638671875" lon="-1.275400780141353607177734375">
        <ele>185.600006103515625</ele>
        <time>2020-02-22T17:19:25.000Z</time>
      </trkpt>
      <trkpt lat="37.9634477756917476654052734375" lon="-1.2752468883991241455078125">
        <ele>184.8000030517578125</ele>
        <time>2020-02-22T17:19:26.000Z</time>
      </trkpt>
      <trkpt lat="37.9635215364396572113037109375" lon="-1.27493449486792087554931640625">
        <ele>183.399993896484375</ele>
        <time>2020-02-22T17:19:28.000Z</time>
      </trkpt>
      <trkpt lat="37.96359010040760040283203125" lon="-1.27461900003254413604736328125">
        <ele>181.600006103515625</ele>
        <time>2020-02-22T17:19:30.000Z</time>
      </trkpt>
      <trkpt lat="37.96365941874682903289794921875" lon="-1.274306438863277435302734375">
        <ele>180.399993896484375</ele>
        <time>2020-02-22T17:19:32.000Z</time>
      </trkpt>
      <trkpt lat="37.96369512565433979034423828125" lon="-1.27415321767330169677734375">
        <ele>180</ele>
        <time>2020-02-22T17:19:33.000Z</time>
      </trkpt>
      <trkpt lat="37.963762767612934112548828125" lon="-1.27385624684393405914306640625">
        <ele>179.399993896484375</ele>
        <time>2020-02-22T17:19:35.000Z</time>
      </trkpt>
      <trkpt lat="37.96390165574848651885986328125" lon="-1.27328175120055675506591796875">
        <ele>178</ele>
        <time>2020-02-22T17:19:39.000Z</time>
      </trkpt>
      <trkpt lat="37.963933087885379791259765625" lon="-1.2731401808559894561767578125">
        <ele>177.399993896484375</ele>
        <time>2020-02-22T17:19:40.000Z</time>
      </trkpt>
      <trkpt lat="37.9639634303748607635498046875" lon="-1.27299894578754901885986328125">
        <ele>177</ele>
        <time>2020-02-22T17:19:41.000Z</time>
      </trkpt>
      <trkpt lat="37.9640628397464752197265625" lon="-1.2725621648132801055908203125">
        <ele>175.8000030517578125</ele>
        <time>2020-02-22T17:19:44.000Z</time>
      </trkpt>
      <trkpt lat="37.9642289690673351287841796875" lon="-1.27182095311582088470458984375">
        <ele>175</ele>
        <time>2020-02-22T17:19:49.000Z</time>
      </trkpt>
      <trkpt lat="37.9642614908516407012939453125" lon="-1.27166974358260631561279296875">
        <ele>174.399993896484375</ele>
        <time>2020-02-22T17:19:50.000Z</time>
      </trkpt>
      <trkpt lat="37.9643283784389495849609375" lon="-1.27136816270649433135986328125">
        <ele>172.600006103515625</ele>
        <time>2020-02-22T17:19:52.000Z</time>
      </trkpt>
      <trkpt lat="37.964432649314403533935546875" lon="-1.27091445028781890869140625">
        <ele>171</ele>
        <time>2020-02-22T17:19:55.000Z</time>
      </trkpt>
      <trkpt lat="37.96453583054244518280029296875" lon="-1.27047096379101276397705078125">
        <ele>170.1999969482421875</ele>
        <time>2020-02-22T17:19:58.000Z</time>
      </trkpt>
      <trkpt lat="37.96456768177449703216552734375" lon="-1.27032746560871601104736328125">
        <ele>169.8000030517578125</ele>
        <time>2020-02-22T17:19:59.000Z</time>
      </trkpt>
      <trkpt lat="37.96462803147733211517333984375" lon="-1.270044408738613128662109375">
        <ele>169</ele>
        <time>2020-02-22T17:20:01.000Z</time>
      </trkpt>
      <trkpt lat="37.96465686522424221038818359375" lon="-1.2699061073362827301025390625">
        <ele>168.600006103515625</ele>
        <time>2020-02-22T17:20:02.000Z</time>
      </trkpt>
      <trkpt lat="37.96475552022457122802734375" lon="-1.269483827054500579833984375">
        <ele>167.600006103515625</ele>
        <time>2020-02-22T17:20:05.000Z</time>
      </trkpt>
      <trkpt lat="37.964786700904369354248046875" lon="-1.269339658319950103759765625">
        <ele>167.1999969482421875</ele>
        <time>2020-02-22T17:20:06.000Z</time>
      </trkpt>
      <trkpt lat="37.9648492299020290374755859375" lon="-1.26904788427054882049560546875">
        <ele>165.399993896484375</ele>
        <time>2020-02-22T17:20:08.000Z</time>
      </trkpt>
      <trkpt lat="37.96490195207297801971435546875" lon="-1.268754266202449798583984375">
        <ele>164.1999969482421875</ele>
        <time>2020-02-22T17:20:10.000Z</time>
      </trkpt>
      <trkpt lat="37.9649265110492706298828125" lon="-1.268602050840854644775390625">
        <ele>163.8000030517578125</ele>
        <time>2020-02-22T17:20:11.000Z</time>
      </trkpt>
      <trkpt lat="37.964953668415546417236328125" lon="-1.268449164927005767822265625">
        <ele>162.8000030517578125</ele>
        <time>2020-02-22T17:20:12.000Z</time>
      </trkpt>
      <trkpt lat="37.9650047980248928070068359375" lon="-1.2681425549089908599853515625">
        <ele>161.600006103515625</ele>
        <time>2020-02-22T17:20:14.000Z</time>
      </trkpt>
      <trkpt lat="37.9650296084582805633544921875" lon="-1.2679883278906345367431640625">
        <ele>161.1999969482421875</ele>
        <time>2020-02-22T17:20:15.000Z</time>
      </trkpt>
      <trkpt lat="37.96507746912539005279541015625" lon="-1.26768364571034908294677734375">
        <ele>160.399993896484375</ele>
        <time>2020-02-22T17:20:17.000Z</time>
      </trkpt>
      <trkpt lat="37.965129353106021881103515625" lon="-1.2673757784068584442138671875">
        <ele>159.600006103515625</ele>
        <time>2020-02-22T17:20:19.000Z</time>
      </trkpt>
      <trkpt lat="37.9651573486626148223876953125" lon="-1.2672215513885021209716796875">
        <ele>159.399993896484375</ele>
        <time>2020-02-22T17:20:20.000Z</time>
      </trkpt>
      <trkpt lat="37.96521551907062530517578125" lon="-1.26691016368567943572998046875">
        <ele>158.1999969482421875</ele>
        <time>2020-02-22T17:20:22.000Z</time>
      </trkpt>
      <trkpt lat="37.965244688093662261962890625" lon="-1.26675375737249851226806640625">
        <ele>157.600006103515625</ele>
        <time>2020-02-22T17:20:23.000Z</time>
      </trkpt>
      <trkpt lat="37.9653008468449115753173828125" lon="-1.26643809489905834197998046875">
        <ele>156.600006103515625</ele>
        <time>2020-02-22T17:20:25.000Z</time>
      </trkpt>
      <trkpt lat="37.96535658650100231170654296875" lon="-1.26612662337720394134521484375">
        <ele>155.1999969482421875</ele>
        <time>2020-02-22T17:20:27.000Z</time>
      </trkpt>
      <trkpt lat="37.965413667261600494384765625" lon="-1.26582286320626735687255859375">
        <ele>154.600006103515625</ele>
        <time>2020-02-22T17:20:29.000Z</time>
      </trkpt>
      <trkpt lat="37.9654711671173572540283203125" lon="-1.265526227653026580810546875">
        <ele>154.1999969482421875</ele>
        <time>2020-02-22T17:20:31.000Z</time>
      </trkpt>
      <trkpt lat="37.96554652042686939239501953125" lon="-1.26508601009845733642578125">
        <ele>152.600006103515625</ele>
        <time>2020-02-22T17:20:34.000Z</time>
      </trkpt>
      <trkpt lat="37.96557116322219371795654296875" lon="-1.26493924297392368316650390625">
        <ele>152</ele>
        <time>2020-02-22T17:20:35.000Z</time>
      </trkpt>
      <trkpt lat="37.9655972309410572052001953125" lon="-1.26479172147810459136962890625">
        <ele>151.600006103515625</ele>
        <time>2020-02-22T17:20:36.000Z</time>
      </trkpt>
      <trkpt lat="37.9656498692929744720458984375" lon="-1.26449433155357837677001953125">
        <ele>150.600006103515625</ele>
        <time>2020-02-22T17:20:38.000Z</time>
      </trkpt>
      <trkpt lat="37.9656994901597499847412109375" lon="-1.26419761218130588531494140625">
        <ele>149.399993896484375</ele>
        <time>2020-02-22T17:20:40.000Z</time>
      </trkpt>
      <trkpt lat="37.96577383764088153839111328125" lon="-1.263761334121227264404296875">
        <ele>148</ele>
        <time>2020-02-22T17:20:43.000Z</time>
      </trkpt>
      <trkpt lat="37.965798564255237579345703125" lon="-1.26361557282507419586181640625">
        <ele>147.8000030517578125</ele>
        <time>2020-02-22T17:20:44.000Z</time>
      </trkpt>
      <trkpt lat="37.96585128642618656158447265625" lon="-1.26332581043243408203125">
        <ele>146.600006103515625</ele>
        <time>2020-02-22T17:20:46.000Z</time>
      </trkpt>
      <trkpt lat="37.96593979932367801666259765625" lon="-1.26290269196033477783203125">
        <ele>145.399993896484375</ele>
        <time>2020-02-22T17:20:49.000Z</time>
      </trkpt>
      <trkpt lat="37.96605530194938182830810546875" lon="-1.26249172724783420562744140625">
        <ele>144.8000030517578125</ele>
        <time>2020-02-22T17:20:52.000Z</time>
      </trkpt>
      <trkpt lat="37.966145239770412445068359375" lon="-1.2622229196131229400634765625">
        <ele>144.1999969482421875</ele>
        <time>2020-02-22T17:20:54.000Z</time>
      </trkpt>
      <trkpt lat="37.96635470353066921234130859375" lon="-1.26170332543551921844482421875">
        <ele>143</ele>
        <time>2020-02-22T17:20:58.000Z</time>
      </trkpt>
      <trkpt lat="37.96658235602080821990966796875" lon="-1.26120929606258869171142578125">
        <ele>142</ele>
        <time>2020-02-22T17:21:02.000Z</time>
      </trkpt>
      <trkpt lat="37.96676390804350376129150390625" lon="-1.26084250397980213165283203125">
        <ele>140.399993896484375</ele>
        <time>2020-02-22T17:21:05.000Z</time>
      </trkpt>
      <trkpt lat="37.9668776504695415496826171875" lon="-1.26059372909367084503173828125">
        <ele>140</ele>
        <time>2020-02-22T17:21:07.000Z</time>
      </trkpt>
      <trkpt lat="37.9669363237917423248291015625" lon="-1.26046917401254177093505859375">
        <ele>139.399993896484375</ele>
        <time>2020-02-22T17:21:08.000Z</time>
      </trkpt>
      <trkpt lat="37.96705442480742931365966796875" lon="-1.26022182404994964599609375">
        <ele>138</ele>
        <time>2020-02-22T17:21:10.000Z</time>
      </trkpt>
      <trkpt lat="37.9672290198504924774169921875" lon="-1.2598505057394504547119140625">
        <ele>137.1999969482421875</ele>
        <time>2020-02-22T17:21:13.000Z</time>
      </trkpt>
      <trkpt lat="37.96734259463846683502197265625" lon="-1.25960097648203372955322265625">
        <ele>136.600006103515625</ele>
        <time>2020-02-22T17:21:15.000Z</time>
      </trkpt>
      <trkpt lat="37.96739355660974979400634765625" lon="-1.25947910360991954803466796875">
        <ele>136.1999969482421875</ele>
        <time>2020-02-22T17:21:16.000Z</time>
      </trkpt>
      <trkpt lat="37.9675347916781902313232421875" lon="-1.259112060070037841796875">
        <ele>135.399993896484375</ele>
        <time>2020-02-22T17:21:19.000Z</time>
      </trkpt>
      <trkpt lat="37.96762548387050628662109375" lon="-1.2588607706129550933837890625">
        <ele>135</ele>
        <time>2020-02-22T17:21:21.000Z</time>
      </trkpt>
      <trkpt lat="37.96766563318669795989990234375" lon="-1.25873194076120853424072265625">
        <ele>134.399993896484375</ele>
        <time>2020-02-22T17:21:22.000Z</time>
      </trkpt>
      <trkpt lat="37.967700250446796417236328125" lon="-1.2586032785475254058837890625">
        <ele>133.8000030517578125</ele>
        <time>2020-02-22T17:21:23.000Z</time>
      </trkpt>
      <trkpt lat="37.9677319340407848358154296875" lon="-1.2584725208580493927001953125">
        <ele>133.1999969482421875</ele>
        <time>2020-02-22T17:21:24.000Z</time>
      </trkpt>
      <trkpt lat="37.96779169701039791107177734375" lon="-1.25820480287075042724609375">
        <ele>132.1999969482421875</ele>
        <time>2020-02-22T17:21:26.000Z</time>
      </trkpt>
      <trkpt lat="37.96782036311924457550048828125" lon="-1.2580673396587371826171875">
        <ele>132</ele>
        <time>2020-02-22T17:21:27.000Z</time>
      </trkpt>
      <trkpt lat="37.96784668229520320892333984375" lon="-1.2579293735325336456298828125">
        <ele>131.600006103515625</ele>
        <time>2020-02-22T17:21:28.000Z</time>
      </trkpt>
      <trkpt lat="37.96786964870989322662353515625" lon="-1.25778998248279094696044921875">
        <ele>131.600006103515625</ele>
        <time>2020-02-22T17:21:29.000Z</time>
      </trkpt>
      <trkpt lat="37.96788959763944149017333984375" lon="-1.2576510943472385406494140625">
        <ele>131.1999969482421875</ele>
        <time>2020-02-22T17:21:30.000Z</time>
      </trkpt>
      <trkpt lat="37.96792178414762020111083984375" lon="-1.25737306661903858184814453125">
        <ele>131</ele>
        <time>2020-02-22T17:21:32.000Z</time>
      </trkpt>
      <trkpt lat="37.96794357709586620330810546875" lon="-1.25709461979568004608154296875">
        <ele>130.8000030517578125</ele>
        <time>2020-02-22T17:21:34.000Z</time>
      </trkpt>
      <trkpt lat="37.967959083616733551025390625" lon="-1.2566757760941982269287109375">
        <ele>130.600006103515625</ele>
        <time>2020-02-22T17:21:37.000Z</time>
      </trkpt>
      <trkpt lat="37.96795271337032318115234375" lon="-1.25586281530559062957763671875">
        <ele>129.8000030517578125</ele>
        <time>2020-02-22T17:21:43.000Z</time>
      </trkpt>
      <trkpt lat="37.96794206835329532623291015625" lon="-1.25529720447957515716552734375">
        <ele>128.600006103515625</ele>
        <time>2020-02-22T17:21:47.000Z</time>
      </trkpt>
      <trkpt lat="37.96793184243142604827880859375" lon="-1.254602260887622833251953125">
        <ele>127.59999847412109375</ele>
        <time>2020-02-22T17:21:52.000Z</time>
      </trkpt>
      <trkpt lat="37.9679304175078868865966796875" lon="-1.25446672551333904266357421875">
        <ele>127.59999847412109375</ele>
        <time>2020-02-22T17:21:53.000Z</time>
      </trkpt>
      <trkpt lat="37.96792052686214447021484375" lon="-1.25406657345592975616455078125">
        <ele>126.40000152587890625</ele>
        <time>2020-02-22T17:21:56.000Z</time>
      </trkpt>
      <trkpt lat="37.96788163483142852783203125" lon="-1.2536926567554473876953125">
        <ele>125.59999847412109375</ele>
        <time>2020-02-22T17:21:59.000Z</time>
      </trkpt>
      <trkpt lat="37.96785020269453525543212890625" lon="-1.25357891432940959930419921875">
        <ele>125.1999969482421875</ele>
        <time>2020-02-22T17:22:00.000Z</time>
      </trkpt>
      <trkpt lat="37.967788763344287872314453125" lon="-1.25336668454110622406005859375">
        <ele>124.8000030517578125</ele>
        <time>2020-02-22T17:22:02.000Z</time>
      </trkpt>
      <trkpt lat="37.9677668027579784393310546875" lon="-1.25326207838952541351318359375">
        <ele>124.59999847412109375</ele>
        <time>2020-02-22T17:22:03.000Z</time>
      </trkpt>
      <trkpt lat="37.96775263734161853790283203125" lon="-1.25294457189738750457763671875">
        <ele>124.40000152587890625</ele>
        <time>2020-02-22T17:22:06.000Z</time>
      </trkpt>
      <trkpt lat="37.96775263734161853790283203125" lon="-1.25284197740256786346435546875">
        <ele>124</ele>
        <time>2020-02-22T17:22:07.000Z</time>
      </trkpt>
      <trkpt lat="37.9677463509142398834228515625" lon="-1.25274223275482654571533203125">
        <ele>124</ele>
        <time>2020-02-22T17:22:08.000Z</time>
      </trkpt>
      <trkpt lat="37.96769161708652973175048828125" lon="-1.25255313701927661895751953125">
        <ele>123.8000030517578125</ele>
        <time>2020-02-22T17:22:10.000Z</time>
      </trkpt>
      <trkpt lat="37.967654652893543243408203125" lon="-1.2522652186453342437744140625">
        <ele>123.40000152587890625</ele>
        <time>2020-02-22T17:22:13.000Z</time>
      </trkpt>
      <trkpt lat="37.96779236756265163421630859375" lon="-1.2519866041839122772216796875">
        <ele>123.1999969482421875</ele>
        <time>2020-02-22T17:22:16.000Z</time>
      </trkpt>
      <trkpt lat="37.96788456849753856658935546875" lon="-1.25180329196155071258544921875">
        <ele>122.59999847412109375</ele>
        <time>2020-02-22T17:22:18.000Z</time>
      </trkpt>
      <trkpt lat="37.9679064452648162841796875" lon="-1.25170036219060420989990234375">
        <ele>122.59999847412109375</ele>
        <time>2020-02-22T17:22:19.000Z</time>
      </trkpt>
      <trkpt lat="37.9679086245596408843994140625" lon="-1.2514867074787616729736328125">
        <ele>122.40000152587890625</ele>
        <time>2020-02-22T17:22:21.000Z</time>
      </trkpt>
      <trkpt lat="37.96789764426648616790771484375" lon="-1.25137665309011936187744140625">
        <ele>122.40000152587890625</ele>
        <time>2020-02-22T17:22:22.000Z</time>
      </trkpt>
      <trkpt lat="37.96787266619503498077392578125" lon="-1.2511526048183441162109375">
        <ele>122.40000152587890625</ele>
        <time>2020-02-22T17:22:24.000Z</time>
      </trkpt>
      <trkpt lat="37.96783067286014556884765625" lon="-1.250942051410675048828125">
        <ele>122.1999969482421875</ele>
        <time>2020-02-22T17:22:26.000Z</time>
      </trkpt>
      <trkpt lat="37.967779375612735748291015625" lon="-1.25074155628681182861328125">
        <ele>122.59999847412109375</ele>
        <time>2020-02-22T17:22:28.000Z</time>
      </trkpt>
      <trkpt lat="37.9677550680935382843017578125" lon="-1.2506431527435779571533203125">
        <ele>122.8000030517578125</ele>
        <time>2020-02-22T17:22:29.000Z</time>
      </trkpt>
      <trkpt lat="37.967681474983692169189453125" lon="-1.250328160822391510009765625">
        <ele>123.59999847412109375</ele>
        <time>2020-02-22T17:22:32.000Z</time>
      </trkpt>
      <trkpt lat="37.96759254299104213714599609375" lon="-1.249758191406726837158203125">
        <ele>124</ele>
        <time>2020-02-22T17:22:37.000Z</time>
      </trkpt>
      <trkpt lat="37.96760025434195995330810546875" lon="-1.249236166477203369140625">
        <ele>124</ele>
        <time>2020-02-22T17:22:41.000Z</time>
      </trkpt>
      <trkpt lat="37.96761064790189266204833984375" lon="-1.2490938417613506317138671875">
        <ele>124</ele>
        <time>2020-02-22T17:22:42.000Z</time>
      </trkpt>
      <trkpt lat="37.96762573532760143280029296875" lon="-1.24895260669291019439697265625">
        <ele>123.8000030517578125</ele>
        <time>2020-02-22T17:22:43.000Z</time>
      </trkpt>
      <trkpt lat="37.967658005654811859130859375" lon="-1.24866686761379241943359375">
        <ele>123.40000152587890625</ele>
        <time>2020-02-22T17:22:45.000Z</time>
      </trkpt>
      <trkpt lat="37.96770167537033557891845703125" lon="-1.24838431365787982940673828125">
        <ele>122.1999969482421875</ele>
        <time>2020-02-22T17:22:47.000Z</time>
      </trkpt>
      <trkpt lat="37.967723049223423004150390625" lon="-1.24824416823685169219970703125">
        <ele>121.59999847412109375</ele>
        <time>2020-02-22T17:22:48.000Z</time>
      </trkpt>
      <trkpt lat="37.9677460156381130218505859375" lon="-1.24809865839779376983642578125">
        <ele>120.8000030517578125</ele>
        <time>2020-02-22T17:22:49.000Z</time>
      </trkpt>
      <trkpt lat="37.96777057461440563201904296875" lon="-1.2479502148926258087158203125">
        <ele>120</ele>
        <time>2020-02-22T17:22:50.000Z</time>
      </trkpt>
      <trkpt lat="37.9678365401923656463623046875" lon="-1.24765056185424327850341796875">
        <ele>118.59999847412109375</ele>
        <time>2020-02-22T17:22:52.000Z</time>
      </trkpt>
      <trkpt lat="37.9679119773209095001220703125" lon="-1.247355937957763671875">
        <ele>117.59999847412109375</ele>
        <time>2020-02-22T17:22:54.000Z</time>
      </trkpt>
      <trkpt lat="37.9679505340754985809326171875" lon="-1.24721487052738666534423828125">
        <ele>117</ele>
        <time>2020-02-22T17:22:55.000Z</time>
      </trkpt>
      <trkpt lat="37.9680293239653110504150390625" lon="-1.24693810008466243743896484375">
        <ele>115.40000152587890625</ele>
        <time>2020-02-22T17:22:57.000Z</time>
      </trkpt>
      <trkpt lat="37.96810333617031574249267578125" lon="-1.24666593968868255615234375">
        <ele>113.8000030517578125</ele>
        <time>2020-02-22T17:22:59.000Z</time>
      </trkpt>
      <trkpt lat="37.96817609108984470367431640625" lon="-1.24639210291206836700439453125">
        <ele>112.8000030517578125</ele>
        <time>2020-02-22T17:23:01.000Z</time>
      </trkpt>
      <trkpt lat="37.968244738876819610595703125" lon="-1.2461221218109130859375">
        <ele>112</ele>
        <time>2020-02-22T17:23:03.000Z</time>
      </trkpt>
      <trkpt lat="37.96827860176563262939453125" lon="-1.24598675407469272613525390625">
        <ele>110.59999847412109375</ele>
        <time>2020-02-22T17:23:04.000Z</time>
      </trkpt>
      <trkpt lat="37.96831288374960422515869140625" lon="-1.2458510510623455047607421875">
        <ele>109.59999847412109375</ele>
        <time>2020-02-22T17:23:05.000Z</time>
      </trkpt>
      <trkpt lat="37.96834708191454410552978515625" lon="-1.24571601860225200653076171875">
        <ele>108.1999969482421875</ele>
        <time>2020-02-22T17:23:06.000Z</time>
      </trkpt>
      <trkpt lat="37.96841547824442386627197265625" lon="-1.24545098282396793365478515625">
        <ele>107</ele>
        <time>2020-02-22T17:23:08.000Z</time>
      </trkpt>
      <trkpt lat="37.968512289226055145263671875" lon="-1.245063655078411102294921875">
        <ele>105.40000152587890625</ele>
        <time>2020-02-22T17:23:11.000Z</time>
      </trkpt>
      <trkpt lat="37.968543134629726409912109375" lon="-1.2449347414076328277587890625">
        <ele>105.1999969482421875</ele>
        <time>2020-02-22T17:23:12.000Z</time>
      </trkpt>
      <trkpt lat="37.96857322566211223602294921875" lon="-1.244805492460727691650390625">
        <ele>105</ele>
        <time>2020-02-22T17:23:13.000Z</time>
      </trkpt>
      <trkpt lat="37.9685957729816436767578125" lon="-1.2446759082376956939697265625">
        <ele>104.8000030517578125</ele>
        <time>2020-02-22T17:23:14.000Z</time>
      </trkpt>
      <trkpt lat="37.96862016431987285614013671875" lon="-1.244416572153568267822265625">
        <ele>104.59999847412109375</ele>
        <time>2020-02-22T17:23:16.000Z</time>
      </trkpt>
      <trkpt lat="37.9686227627098560333251953125" lon="-1.2442832998931407928466796875">
        <ele>104.40000152587890625</ele>
        <time>2020-02-22T17:23:17.000Z</time>
      </trkpt>
      <trkpt lat="37.96866576187312602996826171875" lon="-1.2437562458217144012451171875">
        <ele>104</ele>
        <time>2020-02-22T17:23:21.000Z</time>
      </trkpt>
      <trkpt lat="37.96868872828781604766845703125" lon="-1.24362808652222156524658203125">
        <ele>104</ele>
        <time>2020-02-22T17:23:22.000Z</time>
      </trkpt>
      <trkpt lat="37.96876634471118450164794921875" lon="-1.24324654228985309600830078125">
        <ele>103.1999969482421875</ele>
        <time>2020-02-22T17:23:25.000Z</time>
      </trkpt>
      <trkpt lat="37.9688988626003265380859375" lon="-1.242618151009082794189453125">
        <ele>102.40000152587890625</ele>
        <time>2020-02-22T17:23:30.000Z</time>
      </trkpt>
      <trkpt lat="37.9690056480467319488525390625" lon="-1.242121271789073944091796875">
        <ele>102.1999969482421875</ele>
        <time>2020-02-22T17:23:34.000Z</time>
      </trkpt>
      <trkpt lat="37.96908686868846416473388671875" lon="-1.24163210391998291015625">
        <ele>102.1999969482421875</ele>
        <time>2020-02-22T17:23:38.000Z</time>
      </trkpt>
      <trkpt lat="37.96913548372685909271240234375" lon="-1.2408671714365482330322265625">
        <ele>102</ele>
        <time>2020-02-22T17:23:44.000Z</time>
      </trkpt>
      <trkpt lat="37.969141267240047454833984375" lon="-1.24074320308864116668701171875">
        <ele>101.8000030517578125</ele>
        <time>2020-02-22T17:23:45.000Z</time>
      </trkpt>
      <trkpt lat="37.96915643848478794097900390625" lon="-1.2404980324208736419677734375">
        <ele>101.1999969482421875</ele>
        <time>2020-02-22T17:23:47.000Z</time>
      </trkpt>
      <trkpt lat="37.969164066016674041748046875" lon="-1.2403769977390766143798828125">
        <ele>101</ele>
        <time>2020-02-22T17:23:48.000Z</time>
      </trkpt>
      <trkpt lat="37.969204299151897430419921875" lon="-1.23965959064662456512451171875">
        <ele>100.40000152587890625</ele>
        <time>2020-02-22T17:23:54.000Z</time>
      </trkpt>
      <trkpt lat="37.96918711625039577484130859375" lon="-1.2392937205731868743896484375">
        <ele>99.8000030517578125</ele>
        <time>2020-02-22T17:23:57.000Z</time>
      </trkpt>
      <trkpt lat="37.96916565857827663421630859375" lon="-1.2391706742346286773681640625">
        <ele>99.40000152587890625</ele>
        <time>2020-02-22T17:23:58.000Z</time>
      </trkpt>
      <trkpt lat="37.96907848678529262542724609375" lon="-1.23880664817988872528076171875">
        <ele>98.8000030517578125</ele>
        <time>2020-02-22T17:24:01.000Z</time>
      </trkpt>
      <trkpt lat="37.96903372742235660552978515625" lon="-1.23856642283499240875244140625">
        <ele>98.40000152587890625</ele>
        <time>2020-02-22T17:24:03.000Z</time>
      </trkpt>
      <trkpt lat="37.96901193447411060333251953125" lon="-1.23831362463533878326416015625">
        <ele>97.59999847412109375</ele>
        <time>2020-02-22T17:24:05.000Z</time>
      </trkpt>
      <trkpt lat="37.9690136946737766265869140625" lon="-1.2380568869411945343017578125">
        <ele>96.8000030517578125</ele>
        <time>2020-02-22T17:24:07.000Z</time>
      </trkpt>
      <trkpt lat="37.9690113477408885955810546875" lon="-1.23780299909412860870361328125">
        <ele>96.40000152587890625</ele>
        <time>2020-02-22T17:24:09.000Z</time>
      </trkpt>
      <trkpt lat="37.9690069891512393951416015625" lon="-1.23719816096127033233642578125">
        <ele>95.59999847412109375</ele>
        <time>2020-02-22T17:24:14.000Z</time>
      </trkpt>
      <trkpt lat="37.969011180102825164794921875" lon="-1.23707863502204418182373046875">
        <ele>95.59999847412109375</ele>
        <time>2020-02-22T17:24:15.000Z</time>
      </trkpt>
      <trkpt lat="37.96908058226108551025390625" lon="-1.23659692704677581787109375">
        <ele>94.8000030517578125</ele>
        <time>2020-02-22T17:24:19.000Z</time>
      </trkpt>
      <trkpt lat="37.96926833689212799072265625" lon="-1.23589259572327136993408203125">
        <ele>94.1999969482421875</ele>
        <time>2020-02-22T17:24:25.000Z</time>
      </trkpt>
      <trkpt lat="37.96929842792451381683349609375" lon="-1.2357709743082523345947265625">
        <ele>94.1999969482421875</ele>
        <time>2020-02-22T17:24:26.000Z</time>
      </trkpt>
      <trkpt lat="37.9694203846156597137451171875" lon="-1.235143505036830902099609375">
        <ele>93.40000152587890625</ele>
        <time>2020-02-22T17:24:31.000Z</time>
      </trkpt>
      <trkpt lat="37.96943689696490764617919921875" lon="-1.235018111765384674072265625">
        <ele>92.59999847412109375</ele>
        <time>2020-02-22T17:24:32.000Z</time>
      </trkpt>
      <trkpt lat="37.96945399604737758636474609375" lon="-1.23489380814135074615478515625">
        <ele>92.1999969482421875</ele>
        <time>2020-02-22T17:24:33.000Z</time>
      </trkpt>
      <trkpt lat="37.96950931660830974578857421875" lon="-1.23451955616474151611328125">
        <ele>91.40000152587890625</ele>
        <time>2020-02-22T17:24:36.000Z</time>
      </trkpt>
      <trkpt lat="37.96957436017692089080810546875" lon="-1.2340345792472362518310546875">
        <ele>90.1999969482421875</ele>
        <time>2020-02-22T17:24:40.000Z</time>
      </trkpt>
      <trkpt lat="37.96958886086940765380859375" lon="-1.2339167296886444091796875">
        <ele>90</ele>
        <time>2020-02-22T17:24:41.000Z</time>
      </trkpt>
      <trkpt lat="37.969640158116817474365234375" lon="-1.23346167616546154022216796875">
        <ele>88.8000030517578125</ele>
        <time>2020-02-22T17:24:45.000Z</time>
      </trkpt>
      <trkpt lat="37.96963957138359546661376953125" lon="-1.2332550622522830963134765625">
        <ele>87.8000030517578125</ele>
        <time>2020-02-22T17:24:47.000Z</time>
      </trkpt>
      <trkpt lat="37.96962431631982326507568359375" lon="-1.2331549823284149169921875">
        <ele>87.59999847412109375</ele>
        <time>2020-02-22T17:24:48.000Z</time>
      </trkpt>
      <trkpt lat="37.96950696967542171478271484375" lon="-1.23288701288402080535888671875">
        <ele>87.1999969482421875</ele>
        <time>2020-02-22T17:24:51.000Z</time>
      </trkpt>
      <trkpt lat="37.96946413815021514892578125" lon="-1.23279782943427562713623046875">
        <ele>86.8000030517578125</ele>
        <time>2020-02-22T17:24:52.000Z</time>
      </trkpt>
      <trkpt lat="37.9694428481161594390869140625" lon="-1.232701353728771209716796875">
        <ele>86.59999847412109375</ele>
        <time>2020-02-22T17:24:53.000Z</time>
      </trkpt>
      <trkpt lat="37.96944092027842998504638671875" lon="-1.23260236345231533050537109375">
        <ele>86.40000152587890625</ele>
        <time>2020-02-22T17:24:54.000Z</time>
      </trkpt>
      <trkpt lat="37.9694460332393646240234375" lon="-1.23250119388103485107421875">
        <ele>86.40000152587890625</ele>
        <time>2020-02-22T17:24:55.000Z</time>
      </trkpt>
      <trkpt lat="37.96943555586040019989013671875" lon="-1.23229759745299816131591796875">
        <ele>86.1999969482421875</ele>
        <time>2020-02-22T17:24:57.000Z</time>
      </trkpt>
      <trkpt lat="37.96941627748310565948486328125" lon="-1.23219416476786136627197265625">
        <ele>86.1999969482421875</ele>
        <time>2020-02-22T17:24:58.000Z</time>
      </trkpt>
      <trkpt lat="37.96933815814554691314697265625" lon="-1.231859810650348663330078125">
        <ele>85.59999847412109375</ele>
        <time>2020-02-22T17:25:01.000Z</time>
      </trkpt>
      <trkpt lat="37.96930848620831966400146484375" lon="-1.23174204491078853607177734375">
        <ele>85.1999969482421875</ele>
        <time>2020-02-22T17:25:02.000Z</time>
      </trkpt>
      <trkpt lat="37.96927864663302898406982421875" lon="-1.2316236086189746856689453125">
        <ele>85.1999969482421875</ele>
        <time>2020-02-22T17:25:03.000Z</time>
      </trkpt>
      <trkpt lat="37.9692493937909603118896484375" lon="-1.2315019033849239349365234375">
        <ele>85</ele>
        <time>2020-02-22T17:25:04.000Z</time>
      </trkpt>
      <trkpt lat="37.969192899763584136962890625" lon="-1.2312452495098114013671875">
        <ele>84</ele>
        <time>2020-02-22T17:25:06.000Z</time>
      </trkpt>
      <trkpt lat="37.96910312958061695098876953125" lon="-1.230843923985958099365234375">
        <ele>83</ele>
        <time>2020-02-22T17:25:09.000Z</time>
      </trkpt>
      <trkpt lat="37.96898662112653255462646484375" lon="-1.23046900145709514617919921875">
        <ele>82</ele>
        <time>2020-02-22T17:25:12.000Z</time>
      </trkpt>
      <trkpt lat="37.96897203661501407623291015625" lon="-1.23033354990184307098388671875">
        <ele>81.8000030517578125</ele>
        <time>2020-02-22T17:25:13.000Z</time>
      </trkpt>
      <trkpt lat="37.968967594206333160400390625" lon="-1.2300692684948444366455078125">
        <ele>81</ele>
        <time>2020-02-22T17:25:15.000Z</time>
      </trkpt>
      <trkpt lat="37.96898712404072284698486328125" lon="-1.22982812114059925079345703125">
        <ele>80.59999847412109375</ele>
        <time>2020-02-22T17:25:17.000Z</time>
      </trkpt>
      <trkpt lat="37.96900087036192417144775390625" lon="-1.22963718138635158538818359375">
        <ele>80.1999969482421875</ele>
        <time>2020-02-22T17:25:19.000Z</time>
      </trkpt>
      <trkpt lat="37.9689862020313739776611328125" lon="-1.229463927447795867919921875">
        <ele>80</ele>
        <time>2020-02-22T17:25:21.000Z</time>
      </trkpt>
      <trkpt lat="37.96898268163204193115234375" lon="-1.22928245924413204193115234375">
        <ele>80</ele>
        <time>2020-02-22T17:25:23.000Z</time>
      </trkpt>
      <trkpt lat="37.96903976239264011383056640625" lon="-1.22910090722143650054931640625">
        <ele>79.8000030517578125</ele>
        <time>2020-02-22T17:25:25.000Z</time>
      </trkpt>
      <trkpt lat="37.96912458725273609161376953125" lon="-1.228896640241146087646484375">
        <ele>79.8000030517578125</ele>
        <time>2020-02-22T17:25:27.000Z</time>
      </trkpt>
      <trkpt lat="37.9691789858043193817138671875" lon="-1.2286783754825592041015625">
        <ele>79.8000030517578125</ele>
        <time>2020-02-22T17:25:29.000Z</time>
      </trkpt>
      <trkpt lat="37.96923740766942501068115234375" lon="-1.228362880647182464599609375">
        <ele>79.8000030517578125</ele>
        <time>2020-02-22T17:25:32.000Z</time>
      </trkpt>
      <trkpt lat="37.9692547582089900970458984375" lon="-1.228052414953708648681640625">
        <ele>79.8000030517578125</ele>
        <time>2020-02-22T17:25:35.000Z</time>
      </trkpt>
      <trkpt lat="37.96927127055823802947998046875" lon="-1.22794839553534984588623046875">
        <ele>79.8000030517578125</ele>
        <time>2020-02-22T17:25:36.000Z</time>
      </trkpt>
      <trkpt lat="37.9693479649722576141357421875" lon="-1.2276492454111576080322265625">
        <ele>79.40000152587890625</ele>
        <time>2020-02-22T17:25:39.000Z</time>
      </trkpt>
      <trkpt lat="37.96948500908911228179931640625" lon="-1.2269796989858150482177734375">
        <ele>79.1999969482421875</ele>
        <time>2020-02-22T17:25:46.000Z</time>
      </trkpt>
      <trkpt lat="37.96956178732216358184814453125" lon="-1.2264717556536197662353515625">
        <ele>79.1999969482421875</ele>
        <time>2020-02-22T17:25:52.000Z</time>
      </trkpt>
      <trkpt lat="37.96957276761531829833984375" lon="-1.226400844752788543701171875">
        <ele>79.40000152587890625</ele>
        <time>2020-02-22T17:25:53.000Z</time>
      </trkpt>
      <trkpt lat="37.96962599270045757293701171875" lon="-1.22593782842159271240234375">
        <ele>79.8000030517578125</ele>
        <time>2020-02-22T17:25:59.000Z</time>
      </trkpt>
      <trkpt lat="37.96967200934886932373046875" lon="-1.22540700249373912811279296875">
        <ele>80</ele>
        <time>2020-02-22T17:26:06.000Z</time>
      </trkpt>
      <trkpt lat="37.96969288028776645660400390625" lon="-1.2252054177224636077880859375">
        <ele>80</ele>
        <time>2020-02-22T17:26:09.000Z</time>
      </trkpt>
      <trkpt lat="37.969701178371906280517578125" lon="-1.22502026148140430450439453125">
        <ele>80.40000152587890625</ele>
        <time>2020-02-22T17:26:12.000Z</time>
      </trkpt>
      <trkpt lat="37.96970285475254058837890625" lon="-1.22490710578858852386474609375">
        <ele>80.59999847412109375</ele>
        <time>2020-02-22T17:26:14.000Z</time>
      </trkpt>
      <trkpt lat="37.9696909524500370025634765625" lon="-1.2247055210173130035400390625">
        <ele>80.8000030517578125</ele>
        <time>2020-02-22T17:26:19.000Z</time>
      </trkpt>
      <trkpt lat="37.9696577601134777069091796875" lon="-1.22456009499728679656982421875">
        <ele>81</ele>
        <time>2020-02-22T17:26:23.000Z</time>
      </trkpt>
      <trkpt lat="37.9696611128747463226318359375" lon="-1.2245003320276737213134765625">
        <ele>81</ele>
        <time>2020-02-22T17:26:24.000Z</time>
      </trkpt>
      <trkpt lat="37.9697643779218196868896484375" lon="-1.22436714358627796173095703125">
        <ele>81</ele>
        <time>2020-02-22T17:26:27.000Z</time>
      </trkpt>
      <trkpt lat="37.96996663324534893035888671875" lon="-1.224382817745208740234375">
        <ele>81</ele>
        <time>2020-02-22T17:26:30.000Z</time>
      </trkpt>
      <trkpt lat="37.97028128989040851593017578125" lon="-1.22440720908343791961669921875">
        <ele>80.8000030517578125</ele>
        <time>2020-02-22T17:26:34.000Z</time>
      </trkpt>
      <trkpt lat="37.97036695294082164764404296875" lon="-1.22439648024737834930419921875">
        <ele>80.59999847412109375</ele>
        <time>2020-02-22T17:26:35.000Z</time>
      </trkpt>
      <trkpt lat="37.97063282690942287445068359375" lon="-1.2243440933525562286376953125">
        <ele>80.1999969482421875</ele>
        <time>2020-02-22T17:26:38.000Z</time>
      </trkpt>
      <trkpt lat="37.9708107747137546539306640625" lon="-1.2242847494781017303466796875">
        <ele>79.40000152587890625</ele>
        <time>2020-02-22T17:26:40.000Z</time>
      </trkpt>
      <trkpt lat="37.970903813838958740234375" lon="-1.22424845583736896514892578125">
        <ele>79.40000152587890625</ele>
        <time>2020-02-22T17:26:41.000Z</time>
      </trkpt>
      <trkpt lat="37.971279658377170562744140625" lon="-1.22406003065407276153564453125">
        <ele>78.40000152587890625</ele>
        <time>2020-02-22T17:26:45.000Z</time>
      </trkpt>
      <trkpt lat="37.97136984765529632568359375" lon="-1.2239987589418888092041015625">
        <ele>77.8000030517578125</ele>
        <time>2020-02-22T17:26:46.000Z</time>
      </trkpt>
      <trkpt lat="37.9716586880385875701904296875" lon="-1.22377730906009674072265625">
        <ele>77</ele>
        <time>2020-02-22T17:26:50.000Z</time>
      </trkpt>
      <trkpt lat="37.971686683595180511474609375" lon="-1.2237506546080112457275390625">
        <ele>76.8000030517578125</ele>
        <time>2020-02-22T17:26:51.000Z</time>
      </trkpt>
      <trkpt lat="37.971718199551105499267578125" lon="-1.223715953528881072998046875">
        <ele>76.40000152587890625</ele>
        <time>2020-02-22T17:26:53.000Z</time>
      </trkpt>
      <trkpt lat="37.97172381542623043060302734375" lon="-1.22371100820600986480712890625">
        <ele>76.1999969482421875</ele>
        <time>2020-02-22T17:26:56.000Z</time>
      </trkpt>
      <trkpt lat="37.97177326865494251251220703125" lon="-1.2236849404871463775634765625">
        <ele>76.1999969482421875</ele>
        <time>2020-02-22T17:27:31.000Z</time>
      </trkpt>
      <trkpt lat="37.971792630851268768310546875" lon="-1.22366842813789844512939453125">
        <ele>76.1999969482421875</ele>
        <time>2020-02-22T17:27:32.000Z</time>
      </trkpt>
      <trkpt lat="37.97188206575810909271240234375" lon="-1.22358578257262706756591796875">
        <ele>76.1999969482421875</ele>
        <time>2020-02-22T17:27:35.000Z</time>
      </trkpt>
      <trkpt lat="37.97201131470501422882080078125" lon="-1.2233959324657917022705078125">
        <ele>76</ele>
        <time>2020-02-22T17:27:39.000Z</time>
      </trkpt>
      <trkpt lat="37.97204148955643177032470703125" lon="-1.22334170155227184295654296875">
        <ele>76</ele>
        <time>2020-02-22T17:27:40.000Z</time>
      </trkpt>
      <trkpt lat="37.97207702882587909698486328125" lon="-1.22328914701938629150390625">
        <ele>76</ele>
        <time>2020-02-22T17:27:41.000Z</time>
      </trkpt>
      <trkpt lat="37.9721770249307155609130859375" lon="-1.22321530245244503021240234375">
        <ele>76</ele>
        <time>2020-02-22T17:27:43.000Z</time>
      </trkpt>
      <trkpt lat="37.97223896719515323638916015625" lon="-1.22319820336997509002685546875">
        <ele>75.8000030517578125</ele>
        <time>2020-02-22T17:27:44.000Z</time>
      </trkpt>
      <trkpt lat="37.9723027534782886505126953125" lon="-1.2231873907148838043212890625">
        <ele>75.8000030517578125</ele>
        <time>2020-02-22T17:27:45.000Z</time>
      </trkpt>
      <trkpt lat="37.97236603684723377227783203125" lon="-1.22317289002239704132080078125">
        <ele>75.59999847412109375</ele>
        <time>2020-02-22T17:27:46.000Z</time>
      </trkpt>
      <trkpt lat="37.97242906875908374786376953125" lon="-1.22314590029418468475341796875">
        <ele>75.40000152587890625</ele>
        <time>2020-02-22T17:27:47.000Z</time>
      </trkpt>
      <trkpt lat="37.97249042429029941558837890625" lon="-1.223105080425739288330078125">
        <ele>75.1999969482421875</ele>
        <time>2020-02-22T17:27:48.000Z</time>
      </trkpt>
      <trkpt lat="37.972622103989124298095703125" lon="-1.22299603186547756195068359375">
        <ele>75</ele>
        <time>2020-02-22T17:27:50.000Z</time>
      </trkpt>
      <trkpt lat="37.97276015393435955047607421875" lon="-1.222887821495532989501953125">
        <ele>74.59999847412109375</ele>
        <time>2020-02-22T17:27:52.000Z</time>
      </trkpt>
      <trkpt lat="37.97289258800446987152099609375" lon="-1.22278296388685703277587890625">
        <ele>74.59999847412109375</ele>
        <time>2020-02-22T17:27:54.000Z</time>
      </trkpt>
      <trkpt lat="37.97316298820078372955322265625" lon="-1.222569644451141357421875">
        <ele>73.8000030517578125</ele>
        <time>2020-02-22T17:27:58.000Z</time>
      </trkpt>
      <trkpt lat="37.97329709865152835845947265625" lon="-1.22245640493929386138916015625">
        <ele>73.59999847412109375</ele>
        <time>2020-02-22T17:28:00.000Z</time>
      </trkpt>
      <trkpt lat="37.9734269343316555023193359375" lon="-1.22234593145549297332763671875">
        <ele>73.40000152587890625</ele>
        <time>2020-02-22T17:28:02.000Z</time>
      </trkpt>
      <trkpt lat="37.97388416714966297149658203125" lon="-1.22190420515835285186767578125">
        <ele>73.1999969482421875</ele>
        <time>2020-02-22T17:28:09.000Z</time>
      </trkpt>
      <trkpt lat="37.97423151321709156036376953125" lon="-1.2214191444218158721923828125">
        <ele>72.59999847412109375</ele>
        <time>2020-02-22T17:28:15.000Z</time>
      </trkpt>
      <trkpt lat="37.97428029589354991912841796875" lon="-1.22133247554302215576171875">
        <ele>72.1999969482421875</ele>
        <time>2020-02-22T17:28:16.000Z</time>
      </trkpt>
      <trkpt lat="37.9743281565606594085693359375" lon="-1.22124505229294300079345703125">
        <ele>72</ele>
        <time>2020-02-22T17:28:17.000Z</time>
      </trkpt>
      <trkpt lat="37.9744213633239269256591796875" lon="-1.22106157243251800537109375">
        <ele>71.40000152587890625</ele>
        <time>2020-02-22T17:28:19.000Z</time>
      </trkpt>
      <trkpt lat="37.9745159111917018890380859375" lon="-1.22086652554571628570556640625">
        <ele>71.40000152587890625</ele>
        <time>2020-02-22T17:28:21.000Z</time>
      </trkpt>
      <trkpt lat="37.97482411377131938934326171875" lon="-1.22019345872104167938232421875">
        <ele>70.59999847412109375</ele>
        <time>2020-02-22T17:28:28.000Z</time>
      </trkpt>
      <trkpt lat="37.97486250288784503936767578125" lon="-1.22010000050067901611328125">
        <ele>70.40000152587890625</ele>
        <time>2020-02-22T17:28:29.000Z</time>
      </trkpt>
      <trkpt lat="37.97494129277765750885009765625" lon="-1.2199129164218902587890625">
        <ele>70.1999969482421875</ele>
        <time>2020-02-22T17:28:31.000Z</time>
      </trkpt>
      <trkpt lat="37.97501631081104278564453125" lon="-1.21972792781889438629150390625">
        <ele>70</ele>
        <time>2020-02-22T17:28:33.000Z</time>
      </trkpt>
      <trkpt lat="37.9751210846006870269775390625" lon="-1.2194668315351009368896484375">
        <ele>69.59999847412109375</ele>
        <time>2020-02-22T17:28:36.000Z</time>
      </trkpt>
      <trkpt lat="37.97514681704342365264892578125" lon="-1.21938460506498813629150390625">
        <ele>69.1999969482421875</ele>
        <time>2020-02-22T17:28:37.000Z</time>
      </trkpt>
      <trkpt lat="37.9751805961132049560546875" lon="-1.21922291815280914306640625">
        <ele>68.8000030517578125</ele>
        <time>2020-02-22T17:28:39.000Z</time>
      </trkpt>
      <trkpt lat="37.975206412374973297119140625" lon="-1.21907061897218227386474609375">
        <ele>68.59999847412109375</ele>
        <time>2020-02-22T17:28:41.000Z</time>
      </trkpt>
      <trkpt lat="37.97522812150418758392333984375" lon="-1.2190054915845394134521484375">
        <ele>68.59999847412109375</ele>
        <time>2020-02-22T17:28:42.000Z</time>
      </trkpt>
      <trkpt lat="37.97530464828014373779296875" lon="-1.21889526955783367156982421875">
        <ele>68.40000152587890625</ele>
        <time>2020-02-22T17:28:44.000Z</time>
      </trkpt>
      <trkpt lat="37.9753973521292209625244140625" lon="-1.218794770538806915283203125">
        <ele>68.40000152587890625</ele>
        <time>2020-02-22T17:28:46.000Z</time>
      </trkpt>
      <trkpt lat="37.9754754714667797088623046875" lon="-1.21867985464632511138916015625">
        <ele>68.40000152587890625</ele>
        <time>2020-02-22T17:28:48.000Z</time>
      </trkpt>
      <trkpt lat="37.97550925053656101226806640625" lon="-1.21860944665968418121337890625">
        <ele>68.40000152587890625</ele>
        <time>2020-02-22T17:28:49.000Z</time>
      </trkpt>
      <trkpt lat="37.97557446174323558807373046875" lon="-1.2184559740126132965087890625">
        <ele>68.40000152587890625</ele>
        <time>2020-02-22T17:28:51.000Z</time>
      </trkpt>
      <trkpt lat="37.97564403153955936431884765625" lon="-1.2182990647852420806884765625">
        <ele>68.59999847412109375</ele>
        <time>2020-02-22T17:28:53.000Z</time>
      </trkpt>
      <trkpt lat="37.975724749267101287841796875" lon="-1.21813955716788768768310546875">
        <ele>69</ele>
        <time>2020-02-22T17:28:55.000Z</time>
      </trkpt>
      <trkpt lat="37.97576322220265865325927734375" lon="-1.218060515820980072021484375">
        <ele>69.1999969482421875</ele>
        <time>2020-02-22T17:28:56.000Z</time>
      </trkpt>
      <trkpt lat="37.9758399166166782379150390625" lon="-1.21790050528943538665771484375">
        <ele>69.1999969482421875</ele>
        <time>2020-02-22T17:28:58.000Z</time>
      </trkpt>
      <trkpt lat="37.975916527211666107177734375" lon="-1.21774208731949329376220703125">
        <ele>69.59999847412109375</ele>
        <time>2020-02-22T17:29:00.000Z</time>
      </trkpt>
      <trkpt lat="37.9759974963963031768798828125" lon="-1.2175740301609039306640625">
        <ele>70.1999969482421875</ele>
        <time>2020-02-22T17:29:02.000Z</time>
      </trkpt>
      <trkpt lat="37.97603814862668514251708984375" lon="-1.2174870260059833526611328125">
        <ele>70.40000152587890625</ele>
        <time>2020-02-22T17:29:03.000Z</time>
      </trkpt>
      <trkpt lat="37.97612314112484455108642578125" lon="-1.21730153448879718780517578125">
        <ele>70.59999847412109375</ele>
        <time>2020-02-22T17:29:05.000Z</time>
      </trkpt>
      <trkpt lat="37.976251132786273956298828125" lon="-1.216998361051082611083984375">
        <ele>71.40000152587890625</ele>
        <time>2020-02-22T17:29:08.000Z</time>
      </trkpt>
      <trkpt lat="37.97634274698793888092041015625" lon="-1.21678671799600124359130859375">
        <ele>72</ele>
        <time>2020-02-22T17:29:10.000Z</time>
      </trkpt>
      <trkpt lat="37.97644098289310932159423828125" lon="-1.21657180599868297576904296875">
        <ele>72.1999969482421875</ele>
        <time>2020-02-22T17:29:12.000Z</time>
      </trkpt>
      <trkpt lat="37.97663728706538677215576171875" lon="-1.216131336987018585205078125">
        <ele>72.1999969482421875</ele>
        <time>2020-02-22T17:29:16.000Z</time>
      </trkpt>
      <trkpt lat="37.97684733755886554718017578125" lon="-1.21566362679004669189453125">
        <ele>72.1999969482421875</ele>
        <time>2020-02-22T17:29:20.000Z</time>
      </trkpt>
      <trkpt lat="37.977175824344158172607421875" lon="-1.21495611034333705902099609375">
        <ele>70</ele>
        <time>2020-02-22T17:29:26.000Z</time>
      </trkpt>
      <trkpt lat="37.9772282950580120086669921875" lon="-1.21483624912798404693603515625">
        <ele>69.40000152587890625</ele>
        <time>2020-02-22T17:29:27.000Z</time>
      </trkpt>
      <trkpt lat="37.97727598808705806732177734375" lon="-1.2147236801683902740478515625">
        <ele>68.59999847412109375</ele>
        <time>2020-02-22T17:29:28.000Z</time>
      </trkpt>
      <trkpt lat="37.97736098058521747589111328125" lon="-1.21450223028659820556640625">
        <ele>67.40000152587890625</ele>
        <time>2020-02-22T17:29:30.000Z</time>
      </trkpt>
      <trkpt lat="37.97743323259055614471435546875" lon="-1.21429167687892913818359375">
        <ele>66.59999847412109375</ele>
        <time>2020-02-22T17:29:32.000Z</time>
      </trkpt>
      <trkpt lat="37.9774633236229419708251953125" lon="-1.2141969613730907440185546875">
        <ele>66.1999969482421875</ele>
        <time>2020-02-22T17:29:33.000Z</time>
      </trkpt>
      <trkpt lat="37.9774831049144268035888671875" lon="-1.21411037631332874298095703125">
        <ele>65.59999847412109375</ele>
        <time>2020-02-22T17:29:34.000Z</time>
      </trkpt>
      <trkpt lat="37.97748863697052001953125" lon="-1.214021109044551849365234375">
        <ele>65.40000152587890625</ele>
        <time>2020-02-22T17:29:35.000Z</time>
      </trkpt>
      <trkpt lat="37.97748335637152194976806640625" lon="-1.21392781846225261688232421875">
        <ele>65</ele>
        <time>2020-02-22T17:29:36.000Z</time>
      </trkpt>
      <trkpt lat="37.97752283513545989990234375" lon="-1.21364769525825977325439453125">
        <ele>64</ele>
        <time>2020-02-22T17:29:39.000Z</time>
      </trkpt>
      <trkpt lat="37.9775516688823699951171875" lon="-1.21355784125626087188720703125">
        <ele>63.59999847412109375</ele>
        <time>2020-02-22T17:29:40.000Z</time>
      </trkpt>
      <trkpt lat="37.97761646099388599395751953125" lon="-1.21325542218983173370361328125">
        <ele>62.40000152587890625</ele>
        <time>2020-02-22T17:29:43.000Z</time>
      </trkpt>
      <trkpt lat="37.9776319675147533416748046875" lon="-1.213144697248935699462890625">
        <ele>61.59999847412109375</ele>
        <time>2020-02-22T17:29:44.000Z</time>
      </trkpt>
      <trkpt lat="37.9776551015675067901611328125" lon="-1.21292349882423877716064453125">
        <ele>61.200000762939453125</ele>
        <time>2020-02-22T17:29:46.000Z</time>
      </trkpt>
      <trkpt lat="37.977660633623600006103515625" lon="-1.212593503296375274658203125">
        <ele>60.200000762939453125</ele>
        <time>2020-02-22T17:29:49.000Z</time>
      </trkpt>
      <trkpt lat="37.97765049152076244354248046875" lon="-1.21248378418385982513427734375">
        <ele>59.799999237060546875</ele>
        <time>2020-02-22T17:29:50.000Z</time>
      </trkpt>
      <trkpt lat="37.97753012739121913909912109375" lon="-1.21197902597486972808837890625">
        <ele>59.40000152587890625</ele>
        <time>2020-02-22T17:29:55.000Z</time>
      </trkpt>
      <trkpt lat="37.97731873579323291778564453125" lon="-1.21145498938858509063720703125">
        <ele>59.200000762939453125</ele>
        <time>2020-02-22T17:30:01.000Z</time>
      </trkpt>
      <trkpt lat="37.97729224897921085357666015625" lon="-1.21139145456254482269287109375">
        <ele>59.200000762939453125</ele>
        <time>2020-02-22T17:30:02.000Z</time>
      </trkpt>
      <trkpt lat="37.977158725261688232421875" lon="-1.21111200191080570220947265625">
        <ele>59.200000762939453125</ele>
        <time>2020-02-22T17:30:07.000Z</time>
      </trkpt>
      <trkpt lat="37.9770207591354846954345703125" lon="-1.21083028614521026611328125">
        <ele>59</ele>
        <time>2020-02-22T17:30:11.000Z</time>
      </trkpt>
      <trkpt lat="37.976923696696758270263671875" lon="-1.2106564454734325408935546875">
        <ele>59</ele>
        <time>2020-02-22T17:30:13.000Z</time>
      </trkpt>
      <trkpt lat="37.9768229462206363677978515625" lon="-1.21047765947878360748291015625">
        <ele>59</ele>
        <time>2020-02-22T17:30:15.000Z</time>
      </trkpt>
      <trkpt lat="37.9767243750393390655517578125" lon="-1.2103000469505786895751953125">
        <ele>59</ele>
        <time>2020-02-22T17:30:17.000Z</time>
      </trkpt>
      <trkpt lat="37.97657693736255168914794921875" lon="-1.21002319268882274627685546875">
        <ele>58.59999847412109375</ele>
        <time>2020-02-22T17:30:20.000Z</time>
      </trkpt>
      <trkpt lat="37.9764139093458652496337890625" lon="-1.2097434885799884796142578125">
        <ele>58.40000152587890625</ele>
        <time>2020-02-22T17:30:23.000Z</time>
      </trkpt>
      <trkpt lat="37.97625725157558917999267578125" lon="-1.2094749324023723602294921875">
        <ele>58.40000152587890625</ele>
        <time>2020-02-22T17:30:26.000Z</time>
      </trkpt>
      <trkpt lat="37.9759237356483936309814453125" lon="-1.20897780172526836395263671875">
        <ele>58.200000762939453125</ele>
        <time>2020-02-22T17:30:32.000Z</time>
      </trkpt>
      <trkpt lat="37.9758734442293643951416015625" lon="-1.20888945646584033966064453125">
        <ele>58.200000762939453125</ele>
        <time>2020-02-22T17:30:33.000Z</time>
      </trkpt>
      <trkpt lat="37.97579146921634674072265625" lon="-1.2086798250675201416015625">
        <ele>58.200000762939453125</ele>
        <time>2020-02-22T17:30:35.000Z</time>
      </trkpt>
      <trkpt lat="37.975698597729206085205078125" lon="-1.20847254060208797454833984375">
        <ele>58.200000762939453125</ele>
        <time>2020-02-22T17:30:37.000Z</time>
      </trkpt>
      <trkpt lat="37.9755348153412342071533203125" lon="-1.208173893392086029052734375">
        <ele>58.200000762939453125</ele>
        <time>2020-02-22T17:30:40.000Z</time>
      </trkpt>
      <trkpt lat="37.9752092622220516204833984375" lon="-1.2076149880886077880859375">
        <ele>58.200000762939453125</ele>
        <time>2020-02-22T17:30:46.000Z</time>
      </trkpt>
      <trkpt lat="37.9751028120517730712890625" lon="-1.20744190178811550140380859375">
        <ele>58.200000762939453125</ele>
        <time>2020-02-22T17:30:48.000Z</time>
      </trkpt>
      <trkpt lat="37.97470442019402980804443359375" lon="-1.2069023586809635162353515625">
        <ele>58.59999847412109375</ele>
        <time>2020-02-22T17:30:55.000Z</time>
      </trkpt>
      <trkpt lat="37.97463585622608661651611328125" lon="-1.206840835511684417724609375">
        <ele>58.59999847412109375</ele>
        <time>2020-02-22T17:30:56.000Z</time>
      </trkpt>
      <trkpt lat="37.9744364507496356964111328125" lon="-1.20666355825960636138916015625">
        <ele>58.799999237060546875</ele>
        <time>2020-02-22T17:30:59.000Z</time>
      </trkpt>
      <trkpt lat="37.974333353340625762939453125" lon="-1.20650128461420536041259765625">
        <ele>59</ele>
        <time>2020-02-22T17:31:01.000Z</time>
      </trkpt>
      <trkpt lat="37.974224723875522613525390625" lon="-1.20634806342422962188720703125">
        <ele>59</ele>
        <time>2020-02-22T17:31:03.000Z</time>
      </trkpt>
      <trkpt lat="37.97391417436301708221435546875" lon="-1.20603156276047229766845703125">
        <ele>59</ele>
        <time>2020-02-22T17:31:08.000Z</time>
      </trkpt>
      <trkpt lat="37.97356414608657360076904296875" lon="-1.205673404037952423095703125">
        <ele>59.200000762939453125</ele>
        <time>2020-02-22T17:31:14.000Z</time>
      </trkpt>
      <trkpt lat="37.9735120944678783416748046875" lon="-1.20563426055014133453369140625">
        <ele>59.40000152587890625</ele>
        <time>2020-02-22T17:31:15.000Z</time>
      </trkpt>
      <trkpt lat="37.97334269620478153228759765625" lon="-1.20554608292877674102783203125">
        <ele>59.40000152587890625</ele>
        <time>2020-02-22T17:31:18.000Z</time>
      </trkpt>
      <trkpt lat="37.9732525907456874847412109375" lon="-1.2053061090409755706787109375">
        <ele>59.59999847412109375</ele>
        <time>2020-02-22T17:31:21.000Z</time>
      </trkpt>
      <trkpt lat="37.97322451137006282806396484375" lon="-1.2051150016486644744873046875">
        <ele>59.59999847412109375</ele>
        <time>2020-02-22T17:31:23.000Z</time>
      </trkpt>
      <trkpt lat="37.97320120967924594879150390625" lon="-1.204889528453350067138671875">
        <ele>59.59999847412109375</ele>
        <time>2020-02-22T17:31:26.000Z</time>
      </trkpt>
      <trkpt lat="37.97319550998508930206298828125" lon="-1.2048196233808994293212890625">
        <ele>59.59999847412109375</ele>
        <time>2020-02-22T17:31:29.000Z</time>
      </trkpt>
      <trkpt lat="37.9731957614421844482421875" lon="-1.20482146739959716796875">
        <ele>59.59999847412109375</ele>
        <time>2020-02-22T17:31:30.000Z</time>
      </trkpt>
      <trkpt lat="37.97317421995103359222412109375" lon="-1.204768158495426177978515625">
        <ele>60.40000152587890625</ele>
        <time>2020-02-22T17:31:48.000Z</time>
      </trkpt>
      <trkpt lat="37.97317229211330413818359375" lon="-1.2047364749014377593994140625">
        <ele>60.40000152587890625</ele>
        <time>2020-02-22T17:31:49.000Z</time>
      </trkpt>
      <trkpt lat="37.97316952608525753021240234375" lon="-1.2046967446804046630859375">
        <ele>60.40000152587890625</ele>
        <time>2020-02-22T17:31:50.000Z</time>
      </trkpt>
      <trkpt lat="37.9731422848999500274658203125" lon="-1.20455316267907619476318359375">
        <ele>60.200000762939453125</ele>
        <time>2020-02-22T17:31:53.000Z</time>
      </trkpt>
      <trkpt lat="37.9730866290628910064697265625" lon="-1.20444302447140216827392578125">
        <ele>60.200000762939453125</ele>
        <time>2020-02-22T17:31:55.000Z</time>
      </trkpt>
      <trkpt lat="37.972987554967403411865234375" lon="-1.20426700450479984283447265625">
        <ele>60.200000762939453125</ele>
        <time>2020-02-22T17:31:58.000Z</time>
      </trkpt>
      <trkpt lat="37.972958385944366455078125" lon="-1.20411001145839691162109375">
        <ele>60.200000762939453125</ele>
        <time>2020-02-22T17:32:00.000Z</time>
      </trkpt>
      <trkpt lat="37.9729585535824298858642578125" lon="-1.2039489112794399261474609375">
        <ele>60.200000762939453125</ele>
        <time>2020-02-22T17:32:02.000Z</time>
      </trkpt>
      <trkpt lat="37.9729830287396907806396484375" lon="-1.2038174830377101898193359375">
        <ele>60.200000762939453125</ele>
        <time>2020-02-22T17:32:04.000Z</time>
      </trkpt>
      <trkpt lat="37.9730507545173168182373046875" lon="-1.20366065762937068939208984375">
        <ele>60.200000762939453125</ele>
        <time>2020-02-22T17:32:07.000Z</time>
      </trkpt>
      <trkpt lat="37.97310515306890010833740234375" lon="-1.20359427295625209808349609375">
        <ele>60.200000762939453125</ele>
        <time>2020-02-22T17:32:09.000Z</time>
      </trkpt>
      <trkpt lat="37.973129712045192718505859375" lon="-1.20356979779899120330810546875">
        <ele>60.40000152587890625</ele>
        <time>2020-02-22T17:32:10.000Z</time>
      </trkpt>
      <trkpt lat="37.973187379539012908935546875" lon="-1.203515566885471343994140625">
        <ele>60.200000762939453125</ele>
        <time>2020-02-22T17:32:14.000Z</time>
      </trkpt>
      <trkpt lat="37.9731922410428524017333984375" lon="-1.203508861362934112548828125">
        <ele>60.200000762939453125</ele>
        <time>2020-02-22T17:32:15.000Z</time>
      </trkpt>
      <trkpt lat="37.97325351275503635406494140625" lon="-1.20342998765408992767333984375">
        <ele>60.200000762939453125</ele>
        <time>2020-02-22T17:32:45.000Z</time>
      </trkpt>
      <trkpt lat="37.973259128630161285400390625" lon="-1.20334868319332599639892578125">
        <ele>60.200000762939453125</ele>
        <time>2020-02-22T17:32:47.000Z</time>
      </trkpt>
      <trkpt lat="37.97325435094535350799560546875" lon="-1.20329621247947216033935546875">
        <ele>60.200000762939453125</ele>
        <time>2020-02-22T17:32:48.000Z</time>
      </trkpt>
      <trkpt lat="37.97325049526989459991455078125" lon="-1.2031764350831508636474609375">
        <ele>60.200000762939453125</ele>
        <time>2020-02-22T17:32:50.000Z</time>
      </trkpt>
      <trkpt lat="37.97324647195637226104736328125" lon="-1.2031046859920024871826171875">
        <ele>60.200000762939453125</ele>
        <time>2020-02-22T17:32:51.000Z</time>
      </trkpt>
      <trkpt lat="37.97323758713901042938232421875" lon="-1.20303251780569553375244140625">
        <ele>60.200000762939453125</ele>
        <time>2020-02-22T17:32:52.000Z</time>
      </trkpt>
      <trkpt lat="37.97322501428425312042236328125" lon="-1.20279665105044841766357421875">
        <ele>59.799999237060546875</ele>
        <time>2020-02-22T17:32:55.000Z</time>
      </trkpt>
      <trkpt lat="37.97321428544819355010986328125" lon="-1.2026436813175678253173828125">
        <ele>59.59999847412109375</ele>
        <time>2020-02-22T17:32:57.000Z</time>
      </trkpt>
      <trkpt lat="37.97321210615336894989013671875" lon="-1.20248970575630664825439453125">
        <ele>59.200000762939453125</ele>
        <time>2020-02-22T17:32:59.000Z</time>
      </trkpt>
      <trkpt lat="37.97318796627223491668701171875" lon="-1.20175327174365520477294921875">
        <ele>59</ele>
        <time>2020-02-22T17:33:08.000Z</time>
      </trkpt>
      <trkpt lat="37.9731724597513675689697265625" lon="-1.20135940611362457275390625">
        <ele>59</ele>
        <time>2020-02-22T17:33:12.000Z</time>
      </trkpt>
      <trkpt lat="37.9731662571430206298828125" lon="-1.20115614496171474456787109375">
        <ele>59</ele>
        <time>2020-02-22T17:33:14.000Z</time>
      </trkpt>
      <trkpt lat="37.97316365875303745269775390625" lon="-1.2010531313717365264892578125">
        <ele>59</ele>
        <time>2020-02-22T17:33:15.000Z</time>
      </trkpt>
      <trkpt lat="37.97315418720245361328125" lon="-1.20073738507926464080810546875">
        <ele>59</ele>
        <time>2020-02-22T17:33:18.000Z</time>
      </trkpt>
      <trkpt lat="37.9731394350528717041015625" lon="-1.200325079262256622314453125">
        <ele>59</ele>
        <time>2020-02-22T17:33:22.000Z</time>
      </trkpt>
      <trkpt lat="37.97313608229160308837890625" lon="-1.20022491551935672760009765625">
        <ele>59</ele>
        <time>2020-02-22T17:33:23.000Z</time>
      </trkpt>
      <trkpt lat="37.97311822883784770965576171875" lon="-1.19951077736914157867431640625">
        <ele>59.200000762939453125</ele>
        <time>2020-02-22T17:33:30.000Z</time>
      </trkpt>
      <trkpt lat="37.97311437316238880157470703125" lon="-1.199126131832599639892578125">
        <ele>59.200000762939453125</ele>
        <time>2020-02-22T17:33:34.000Z</time>
      </trkpt>
      <trkpt lat="37.97310314141213893890380859375" lon="-1.19885631836950778961181640625">
        <ele>59.200000762939453125</ele>
        <time>2020-02-22T17:33:37.000Z</time>
      </trkpt>
      <trkpt lat="37.97308914363384246826171875" lon="-1.19860117323696613311767578125">
        <ele>59</ele>
        <time>2020-02-22T17:33:40.000Z</time>
      </trkpt>
      <trkpt lat="37.97308369539678096771240234375" lon="-1.198432445526123046875">
        <ele>59</ele>
        <time>2020-02-22T17:33:42.000Z</time>
      </trkpt>
      <trkpt lat="37.9730802588164806365966796875" lon="-1.1981841735541820526123046875">
        <ele>58.799999237060546875</ele>
        <time>2020-02-22T17:33:45.000Z</time>
      </trkpt>
      <trkpt lat="37.9730691947042942047119140625" lon="-1.197838671505451202392578125">
        <ele>58.59999847412109375</ele>
        <time>2020-02-22T17:33:49.000Z</time>
      </trkpt>
      <trkpt lat="37.97306089662015438079833984375" lon="-1.19719301350414752960205078125">
        <ele>58.59999847412109375</ele>
        <time>2020-02-22T17:33:56.000Z</time>
      </trkpt>
      <trkpt lat="37.9730651713907718658447265625" lon="-1.1968843080103397369384765625">
        <ele>58.59999847412109375</ele>
        <time>2020-02-22T17:33:59.000Z</time>
      </trkpt>
      <trkpt lat="37.973069362342357635498046875" lon="-1.19666512124240398406982421875">
        <ele>58.40000152587890625</ele>
        <time>2020-02-22T17:34:01.000Z</time>
      </trkpt>
      <trkpt lat="37.97306341119110584259033203125" lon="-1.19644886814057826995849609375">
        <ele>58.40000152587890625</ele>
        <time>2020-02-22T17:34:03.000Z</time>
      </trkpt>
      <trkpt lat="37.973051927983760833740234375" lon="-1.19622834026813507080078125">
        <ele>58.200000762939453125</ele>
        <time>2020-02-22T17:34:05.000Z</time>
      </trkpt>
      <trkpt lat="37.9730353318154811859130859375" lon="-1.19589817710220813751220703125">
        <ele>58.200000762939453125</ele>
        <time>2020-02-22T17:34:08.000Z</time>
      </trkpt>
      <trkpt lat="37.97301881946623325347900390625" lon="-1.19534899480640888214111328125">
        <ele>58.200000762939453125</ele>
        <time>2020-02-22T17:34:13.000Z</time>
      </trkpt>
      <trkpt lat="37.97300054691731929779052734375" lon="-1.19480500929057598114013671875">
        <ele>58.200000762939453125</ele>
        <time>2020-02-22T17:34:18.000Z</time>
      </trkpt>
      <trkpt lat="37.972993589937686920166015625" lon="-1.19458909146487712860107421875">
        <ele>58.200000762939453125</ele>
        <time>2020-02-22T17:34:20.000Z</time>
      </trkpt>
      <trkpt lat="37.97298529185354709625244140625" lon="-1.19415373541414737701416015625">
        <ele>58</ele>
        <time>2020-02-22T17:34:24.000Z</time>
      </trkpt>
      <trkpt lat="37.972978837788105010986328125" lon="-1.19393865577876567840576171875">
        <ele>58</ele>
        <time>2020-02-22T17:34:26.000Z</time>
      </trkpt>
      <trkpt lat="37.97296450473368167877197265625" lon="-1.193161904811859130859375">
        <ele>58</ele>
        <time>2020-02-22T17:34:33.000Z</time>
      </trkpt>
      <trkpt lat="37.9729612357914447784423828125" lon="-1.193047575652599334716796875">
        <ele>58</ele>
        <time>2020-02-22T17:34:34.000Z</time>
      </trkpt>
      <trkpt lat="37.972958385944366455078125" lon="-1.192475259304046630859375">
        <ele>57.799999237060546875</ele>
        <time>2020-02-22T17:34:39.000Z</time>
      </trkpt>
      <trkpt lat="37.9729384370148181915283203125" lon="-1.19192071259021759033203125">
        <ele>57.40000152587890625</ele>
        <time>2020-02-22T17:34:44.000Z</time>
      </trkpt>
      <trkpt lat="37.9729149676859378814697265625" lon="-1.19133288972079753875732421875">
        <ele>57.200000762939453125</ele>
        <time>2020-02-22T17:34:49.000Z</time>
      </trkpt>
      <trkpt lat="37.9728998802602291107177734375" lon="-1.1906964518129825592041015625">
        <ele>57.200000762939453125</ele>
        <time>2020-02-22T17:34:54.000Z</time>
      </trkpt>
      <trkpt lat="37.97289158217608928680419921875" lon="-1.19044759310781955718994140625">
        <ele>57</ele>
        <time>2020-02-22T17:34:56.000Z</time>
      </trkpt>
      <trkpt lat="37.97286895103752613067626953125" lon="-1.18982565589249134063720703125">
        <ele>57</ele>
        <time>2020-02-22T17:35:01.000Z</time>
      </trkpt>
      <trkpt lat="37.97285738401114940643310546875" lon="-1.1892996914684772491455078125">
        <ele>57</ele>
        <time>2020-02-22T17:35:05.000Z</time>
      </trkpt>
      <trkpt lat="37.972842045128345489501953125" lon="-1.1887484975159168243408203125">
        <ele>56.799999237060546875</ele>
        <time>2020-02-22T17:35:09.000Z</time>
      </trkpt>
      <trkpt lat="37.97282838262617588043212890625" lon="-1.18820048868656158447265625">
        <ele>56.59999847412109375</ele>
        <time>2020-02-22T17:35:13.000Z</time>
      </trkpt>
      <trkpt lat="37.9728271253407001495361328125" lon="-1.188068389892578125">
        <ele>56.59999847412109375</ele>
        <time>2020-02-22T17:35:14.000Z</time>
      </trkpt>
      <trkpt lat="37.9728060029447078704833984375" lon="-1.18729951791465282440185546875">
        <ele>56.799999237060546875</ele>
        <time>2020-02-22T17:35:20.000Z</time>
      </trkpt>
      <trkpt lat="37.9728036560118198394775390625" lon="-1.18716917932033538818359375">
        <ele>56.799999237060546875</ele>
        <time>2020-02-22T17:35:21.000Z</time>
      </trkpt>
      <trkpt lat="37.9727952741086483001708984375" lon="-1.18639410473406314849853515625">
        <ele>57.200000762939453125</ele>
        <time>2020-02-22T17:35:27.000Z</time>
      </trkpt>
      <trkpt lat="37.9727935977280139923095703125" lon="-1.18616142310202121734619140625">
        <ele>57.200000762939453125</ele>
        <time>2020-02-22T17:35:29.000Z</time>
      </trkpt>
      <trkpt lat="37.97277909703552722930908203125" lon="-1.1857460997998714447021484375">
        <ele>57.200000762939453125</ele>
        <time>2020-02-22T17:35:33.000Z</time>
      </trkpt>
      <trkpt lat="37.97277264297008514404296875" lon="-1.18555583059787750244140625">
        <ele>56.799999237060546875</ele>
        <time>2020-02-22T17:35:35.000Z</time>
      </trkpt>
      <trkpt lat="37.9727704636752605438232421875" lon="-1.185253746807575225830078125">
        <ele>56.59999847412109375</ele>
        <time>2020-02-22T17:35:39.000Z</time>
      </trkpt>
      <trkpt lat="37.9727691225707530975341796875" lon="-1.18517453782260417938232421875">
        <ele>56.59999847412109375</ele>
        <time>2020-02-22T17:35:41.000Z</time>
      </trkpt>
      <trkpt lat="37.972768954932689666748046875" lon="-1.18515224196016788482666015625">
        <ele>56.59999847412109375</ele>
        <time>2020-02-22T17:35:42.000Z</time>
      </trkpt>
      <trkpt lat="37.97277239151298999786376953125" lon="-1.1851392500102519989013671875">
        <ele>56.59999847412109375</ele>
        <time>2020-02-22T17:35:45.000Z</time>
      </trkpt>
      <trkpt lat="37.9727768339216709136962890625" lon="-1.1850889585912227630615234375">
        <ele>57.40000152587890625</ele>
        <time>2020-02-22T17:36:03.000Z</time>
      </trkpt>
      <trkpt lat="37.97277859412133693695068359375" lon="-1.18502818979322910308837890625">
        <ele>57.40000152587890625</ele>
        <time>2020-02-22T17:36:05.000Z</time>
      </trkpt>
      <trkpt lat="37.97278211452066898345947265625" lon="-1.18494185619056224822998046875">
        <ele>57.40000152587890625</ele>
        <time>2020-02-22T17:36:07.000Z</time>
      </trkpt>
      <trkpt lat="37.972781695425510406494140625" lon="-1.18488888256251811981201171875">
        <ele>57.40000152587890625</ele>
        <time>2020-02-22T17:36:08.000Z</time>
      </trkpt>
      <trkpt lat="37.97276518307626247406005859375" lon="-1.1844908259809017181396484375">
        <ele>57.40000152587890625</ele>
        <time>2020-02-22T17:36:14.000Z</time>
      </trkpt>
      <trkpt lat="37.97275395132601261138916015625" lon="-1.18432830087840557098388671875">
        <ele>57</ele>
        <time>2020-02-22T17:36:16.000Z</time>
      </trkpt>
      <trkpt lat="37.9727510176599025726318359375" lon="-1.18423962034285068511962890625">
        <ele>57</ele>
        <time>2020-02-22T17:36:17.000Z</time>
      </trkpt>
      <trkpt lat="37.972754538059234619140625" lon="-1.1840422265231609344482421875">
        <ele>56.799999237060546875</ele>
        <time>2020-02-22T17:36:19.000Z</time>
      </trkpt>
      <trkpt lat="37.97276250086724758148193359375" lon="-1.18383544497191905975341796875">
        <ele>56.59999847412109375</ele>
        <time>2020-02-22T17:36:21.000Z</time>
      </trkpt>
      <trkpt lat="37.972756214439868927001953125" lon="-1.1836251430213451385498046875">
        <ele>56.40000152587890625</ele>
        <time>2020-02-22T17:36:23.000Z</time>
      </trkpt>
      <trkpt lat="37.9727402888238430023193359375" lon="-1.18340930901467800140380859375">
        <ele>56.200000762939453125</ele>
        <time>2020-02-22T17:36:25.000Z</time>
      </trkpt>
      <trkpt lat="37.972728051245212554931640625" lon="-1.18306850083172321319580078125">
        <ele>56</ele>
        <time>2020-02-22T17:36:28.000Z</time>
      </trkpt>
      <trkpt lat="37.97271288000047206878662109375" lon="-1.1826159618794918060302734375">
        <ele>55.799999237060546875</ele>
        <time>2020-02-22T17:36:32.000Z</time>
      </trkpt>
      <trkpt lat="37.972707264125347137451171875" lon="-1.18250339291989803314208984375">
        <ele>55.59999847412109375</ele>
        <time>2020-02-22T17:36:33.000Z</time>
      </trkpt>
      <trkpt lat="37.9726745747029781341552734375" lon="-1.1818180046975612640380859375">
        <ele>55.59999847412109375</ele>
        <time>2020-02-22T17:36:39.000Z</time>
      </trkpt>
      <trkpt lat="37.97266803681850433349609375" lon="-1.18135004304349422454833984375">
        <ele>55.40000152587890625</ele>
        <time>2020-02-22T17:36:43.000Z</time>
      </trkpt>
      <trkpt lat="37.972657643258571624755859375" lon="-1.18084997870028018951416015625">
        <ele>55.40000152587890625</ele>
        <time>2020-02-22T17:36:48.000Z</time>
      </trkpt>
      <trkpt lat="37.97265387140214443206787109375" lon="-1.18076347745954990386962890625">
        <ele>55.40000152587890625</ele>
        <time>2020-02-22T17:36:49.000Z</time>
      </trkpt>
      <trkpt lat="37.97264993190765380859375" lon="-1.18060623295605182647705078125">
        <ele>55.40000152587890625</ele>
        <time>2020-02-22T17:36:51.000Z</time>
      </trkpt>
      <trkpt lat="37.972647584974765777587890625" lon="-1.18043951690196990966796875">
        <ele>55.40000152587890625</ele>
        <time>2020-02-22T17:36:54.000Z</time>
      </trkpt>
      <trkpt lat="37.9726521112024784088134765625" lon="-1.18040171451866626739501953125">
        <ele>55.200000762939453125</ele>
        <time>2020-02-22T17:36:57.000Z</time>
      </trkpt>
      <trkpt lat="37.972652278840541839599609375" lon="-1.180405654013156890869140625">
        <ele>55.200000762939453125</ele>
        <time>2020-02-22T17:36:58.000Z</time>
      </trkpt>
      <trkpt lat="37.972640879452228546142578125" lon="-1.18037757463753223419189453125">
        <ele>55.40000152587890625</ele>
        <time>2020-02-22T17:37:13.000Z</time>
      </trkpt>
      <trkpt lat="37.97263375483453273773193359375" lon="-1.18031722493469715118408203125">
        <ele>55.40000152587890625</ele>
        <time>2020-02-22T17:37:15.000Z</time>
      </trkpt>
      <trkpt lat="37.97261900268495082855224609375" lon="-1.18010331876575946807861328125">
        <ele>55.40000152587890625</ele>
        <time>2020-02-22T17:37:19.000Z</time>
      </trkpt>
      <trkpt lat="37.972615063190460205078125" lon="-1.17996065877377986907958984375">
        <ele>55.200000762939453125</ele>
        <time>2020-02-22T17:37:21.000Z</time>
      </trkpt>
      <trkpt lat="37.97261900268495082855224609375" lon="-1.179778687655925750732421875">
        <ele>55.200000762939453125</ele>
        <time>2020-02-22T17:37:23.000Z</time>
      </trkpt>
      <trkpt lat="37.9726189188659191131591796875" lon="-1.17957458831369876861572265625">
        <ele>55</ele>
        <time>2020-02-22T17:37:25.000Z</time>
      </trkpt>
      <trkpt lat="37.972613386809825897216796875" lon="-1.17936101742088794708251953125">
        <ele>54.799999237060546875</ele>
        <time>2020-02-22T17:37:27.000Z</time>
      </trkpt>
      <trkpt lat="37.972609698772430419921875" lon="-1.179144680500030517578125">
        <ele>54.59999847412109375</ele>
        <time>2020-02-22T17:37:29.000Z</time>
      </trkpt>
      <trkpt lat="37.972608692944049835205078125" lon="-1.17903538048267364501953125">
        <ele>54.40000152587890625</ele>
        <time>2020-02-22T17:37:30.000Z</time>
      </trkpt>
      <trkpt lat="37.972603328526020050048828125" lon="-1.17881787009537220001220703125">
        <ele>54</ele>
        <time>2020-02-22T17:37:32.000Z</time>
      </trkpt>
      <trkpt lat="37.97259687446057796478271484375" lon="-1.178391985595226287841796875">
        <ele>53.799999237060546875</ele>
        <time>2020-02-22T17:37:36.000Z</time>
      </trkpt>
      <trkpt lat="37.9725874029099941253662109375" lon="-1.177970208227634429931640625">
        <ele>53.40000152587890625</ele>
        <time>2020-02-22T17:37:40.000Z</time>
      </trkpt>
      <trkpt lat="37.97256234101951122283935546875" lon="-1.17722463794052600860595703125">
        <ele>53.200000762939453125</ele>
        <time>2020-02-22T17:37:47.000Z</time>
      </trkpt>
      <trkpt lat="37.97255949117243289947509765625" lon="-1.17711802013218402862548828125">
        <ele>53</ele>
        <time>2020-02-22T17:37:48.000Z</time>
      </trkpt>
      <trkpt lat="37.9725599102675914764404296875" lon="-1.177010647952556610107421875">
        <ele>53</ele>
        <time>2020-02-22T17:37:49.000Z</time>
      </trkpt>
      <trkpt lat="37.972542308270931243896484375" lon="-1.176255606114864349365234375">
        <ele>52.799999237060546875</ele>
        <time>2020-02-22T17:37:56.000Z</time>
      </trkpt>
      <trkpt lat="37.97253929078578948974609375" lon="-1.1761468090116977691650390625">
        <ele>52.799999237060546875</ele>
        <time>2020-02-22T17:37:57.000Z</time>
      </trkpt>
      <trkpt lat="37.972523868083953857421875" lon="-1.17539025843143463134765625">
        <ele>52.59999847412109375</ele>
        <time>2020-02-22T17:38:04.000Z</time>
      </trkpt>
      <trkpt lat="37.97251104377210140228271484375" lon="-1.1748439259827136993408203125">
        <ele>52.40000152587890625</ele>
        <time>2020-02-22T17:38:09.000Z</time>
      </trkpt>
      <trkpt lat="37.9725019074976444244384765625" lon="-1.1743866093456745147705078125">
        <ele>52</ele>
        <time>2020-02-22T17:38:13.000Z</time>
      </trkpt>
      <trkpt lat="37.97249226830899715423583984375" lon="-1.17394261993467807769775390625">
        <ele>51.59999847412109375</ele>
        <time>2020-02-22T17:38:17.000Z</time>
      </trkpt>
      <trkpt lat="37.97248623333871364593505859375" lon="-1.17363433353602886199951171875">
        <ele>51.59999847412109375</ele>
        <time>2020-02-22T17:38:20.000Z</time>
      </trkpt>
      <trkpt lat="37.97248405404388904571533203125" lon="-1.17354087531566619873046875">
        <ele>51.59999847412109375</ele>
        <time>2020-02-22T17:38:21.000Z</time>
      </trkpt>
      <trkpt lat="37.97247801907360553741455078125" lon="-1.1733586527407169342041015625">
        <ele>51.59999847412109375</ele>
        <time>2020-02-22T17:38:23.000Z</time>
      </trkpt>
      <trkpt lat="37.9724784381687641143798828125" lon="-1.173201240599155426025390625">
        <ele>51.59999847412109375</ele>
        <time>2020-02-22T17:38:25.000Z</time>
      </trkpt>
      <trkpt lat="37.97247852198779582977294921875" lon="-1.17298699915409088134765625">
        <ele>51.59999847412109375</ele>
        <time>2020-02-22T17:38:28.000Z</time>
      </trkpt>
      <trkpt lat="37.9724774323403835296630859375" lon="-1.17285800166428089141845703125">
        <ele>51.59999847412109375</ele>
        <time>2020-02-22T17:38:30.000Z</time>
      </trkpt>
      <trkpt lat="37.97247265465557575225830078125" lon="-1.17275188677012920379638671875">
        <ele>51.59999847412109375</ele>
        <time>2020-02-22T17:38:32.000Z</time>
      </trkpt>
      <trkpt lat="37.9724713973701000213623046875" lon="-1.172674186527729034423828125">
        <ele>51.59999847412109375</ele>
        <time>2020-02-22T17:38:34.000Z</time>
      </trkpt>
      <trkpt lat="37.97247081063687801361083984375" lon="-1.17258072830736637115478515625">
        <ele>51.59999847412109375</ele>
        <time>2020-02-22T17:38:37.000Z</time>
      </trkpt>
      <trkpt lat="37.9724554717540740966796875" lon="-1.1725194565951824188232421875">
        <ele>51.59999847412109375</ele>
        <time>2020-02-22T17:38:40.000Z</time>
      </trkpt>
      <trkpt lat="37.972456477582454681396484375" lon="-1.1724780499935150146484375">
        <ele>51.799999237060546875</ele>
        <time>2020-02-22T17:38:43.000Z</time>
      </trkpt>
      <trkpt lat="37.97245924361050128936767578125" lon="-1.17240755818784236907958984375">
        <ele>51.799999237060546875</ele>
        <time>2020-02-22T17:38:47.000Z</time>
      </trkpt>
      <trkpt lat="37.97244901768863201141357421875" lon="-1.17228300310671329498291015625">
        <ele>51.799999237060546875</ele>
        <time>2020-02-22T17:38:53.000Z</time>
      </trkpt>
      <trkpt lat="37.972479946911334991455078125" lon="-1.17210849188268184661865234375">
        <ele>51.799999237060546875</ele>
        <time>2020-02-22T17:38:59.000Z</time>
      </trkpt>
      <trkpt lat="37.97248355112969875335693359375" lon="-1.17208653129637241363525390625">
        <ele>52</ele>
        <time>2020-02-22T17:39:00.000Z</time>
      </trkpt>
      <trkpt lat="37.97249327413737773895263671875" lon="-1.17204411886632442474365234375">
        <ele>52</ele>
        <time>2020-02-22T17:39:02.000Z</time>
      </trkpt>
      <trkpt lat="37.972492687404155731201171875" lon="-1.17201746441423892974853515625">
        <ele>52</ele>
        <time>2020-02-22T17:39:04.000Z</time>
      </trkpt>
      <trkpt lat="37.9724881611764430999755859375" lon="-1.17191403172910213470458984375">
        <ele>52</ele>
        <time>2020-02-22T17:39:11.000Z</time>
      </trkpt>
      <trkpt lat="37.9725002311170101165771484375" lon="-1.17172778584063053131103515625">
        <ele>52</ele>
        <time>2020-02-22T17:39:15.000Z</time>
      </trkpt>
      <trkpt lat="37.97250014729797840118408203125" lon="-1.17166978307068347930908203125">
        <ele>52</ele>
        <time>2020-02-22T17:39:16.000Z</time>
      </trkpt>
      <trkpt lat="37.9725039191544055938720703125" lon="-1.17145956493914127349853515625">
        <ele>51.799999237060546875</ele>
        <time>2020-02-22T17:39:19.000Z</time>
      </trkpt>
      <trkpt lat="37.9725109599530696868896484375" lon="-1.17129310034215450286865234375">
        <ele>51.799999237060546875</ele>
        <time>2020-02-22T17:39:21.000Z</time>
      </trkpt>
      <trkpt lat="37.97252814285457134246826171875" lon="-1.1711216904222965240478515625">
        <ele>51.59999847412109375</ele>
        <time>2020-02-22T17:39:23.000Z</time>
      </trkpt>
      <trkpt lat="37.97255999408662319183349609375" lon="-1.17084936238825321197509765625">
        <ele>51.200000762939453125</ele>
        <time>2020-02-22T17:39:26.000Z</time>
      </trkpt>
      <trkpt lat="37.9725706391036510467529296875" lon="-1.17075598798692226409912109375">
        <ele>51.200000762939453125</ele>
        <time>2020-02-22T17:39:27.000Z</time>
      </trkpt>
      <trkpt lat="37.9726110398769378662109375" lon="-1.17036807350814342498779296875">
        <ele>51</ele>
        <time>2020-02-22T17:39:31.000Z</time>
      </trkpt>
      <trkpt lat="37.97261950559914112091064453125" lon="-1.17026162333786487579345703125">
        <ele>50.799999237060546875</ele>
        <time>2020-02-22T17:39:32.000Z</time>
      </trkpt>
      <trkpt lat="37.97263811342418193817138671875" lon="-1.1700506508350372314453125">
        <ele>50.799999237060546875</ele>
        <time>2020-02-22T17:39:34.000Z</time>
      </trkpt>
      <trkpt lat="37.97270768322050571441650390625" lon="-1.1693544499576091766357421875">
        <ele>50.40000152587890625</ele>
        <time>2020-02-22T17:39:41.000Z</time>
      </trkpt>
      <trkpt lat="37.9727198369801044464111328125" lon="-1.16926015354692935943603515625">
        <ele>50.40000152587890625</ele>
        <time>2020-02-22T17:39:42.000Z</time>
      </trkpt>
      <trkpt lat="37.972736768424510955810546875" lon="-1.1690892465412616729736328125">
        <ele>50.40000152587890625</ele>
        <time>2020-02-22T17:39:44.000Z</time>
      </trkpt>
      <trkpt lat="37.972756884992122650146484375" lon="-1.1688853986561298370361328125">
        <ele>50.40000152587890625</ele>
        <time>2020-02-22T17:39:47.000Z</time>
      </trkpt>
      <trkpt lat="37.97276920638978481292724609375" lon="-1.1687023378908634185791015625">
        <ele>50.40000152587890625</ele>
        <time>2020-02-22T17:39:51.000Z</time>
      </trkpt>
      <trkpt lat="37.97276954166591167449951171875" lon="-1.16866688244044780731201171875">
        <ele>50.40000152587890625</ele>
        <time>2020-02-22T17:39:52.000Z</time>
      </trkpt>
      <trkpt lat="37.97277071513235569000244140625" lon="-1.1686356179416179656982421875">
        <ele>50.40000152587890625</ele>
        <time>2020-02-22T17:39:53.000Z</time>
      </trkpt>
      <trkpt lat="37.97277121804654598236083984375" lon="-1.168596558272838592529296875">
        <ele>50.40000152587890625</ele>
        <time>2020-02-22T17:39:55.000Z</time>
      </trkpt>
      <trkpt lat="37.97277390025556087493896484375" lon="-1.1685745976865291595458984375">
        <ele>50.40000152587890625</ele>
        <time>2020-02-22T17:39:57.000Z</time>
      </trkpt>
      <trkpt lat="37.97277641482651233673095703125" lon="-1.1685665510594844818115234375">
        <ele>50.59999847412109375</ele>
        <time>2020-02-22T17:39:58.000Z</time>
      </trkpt>
      <trkpt lat="37.9727838747203350067138671875" lon="-1.1684414930641651153564453125">
        <ele>50.799999237060546875</ele>
        <time>2020-02-22T17:40:18.000Z</time>
      </trkpt>
      <trkpt lat="37.97278898768126964569091796875" lon="-1.16833948530256748199462890625">
        <ele>50.799999237060546875</ele>
        <time>2020-02-22T17:40:21.000Z</time>
      </trkpt>
      <trkpt lat="37.9727986268699169158935546875" lon="-1.16823814809322357177734375">
        <ele>50.799999237060546875</ele>
        <time>2020-02-22T17:40:23.000Z</time>
      </trkpt>
      <trkpt lat="37.972826622426509857177734375" lon="-1.168048717081546783447265625">
        <ele>50.59999847412109375</ele>
        <time>2020-02-22T17:40:26.000Z</time>
      </trkpt>
      <trkpt lat="37.97285218723118305206298828125" lon="-1.16782508790493011474609375">
        <ele>50.59999847412109375</ele>
        <time>2020-02-22T17:40:29.000Z</time>
      </trkpt>
      <trkpt lat="37.97286442480981349945068359375" lon="-1.16765820421278476715087890625">
        <ele>50.59999847412109375</ele>
        <time>2020-02-22T17:40:31.000Z</time>
      </trkpt>
      <trkpt lat="37.97287314198911190032958984375" lon="-1.16756650619208812713623046875">
        <ele>50.59999847412109375</ele>
        <time>2020-02-22T17:40:32.000Z</time>
      </trkpt>
      <trkpt lat="37.97289627604186534881591796875" lon="-1.1673773266375064849853515625">
        <ele>50.200000762939453125</ele>
        <time>2020-02-22T17:40:34.000Z</time>
      </trkpt>
      <trkpt lat="37.97291773371398448944091796875" lon="-1.16709728725254535675048828125">
        <ele>50</ele>
        <time>2020-02-22T17:40:37.000Z</time>
      </trkpt>
      <trkpt lat="37.972933240234851837158203125" lon="-1.1669102869927883148193359375">
        <ele>49.799999237060546875</ele>
        <time>2020-02-22T17:40:39.000Z</time>
      </trkpt>
      <trkpt lat="37.97294304706156253814697265625" lon="-1.16681582294404506683349609375">
        <ele>49.799999237060546875</ele>
        <time>2020-02-22T17:40:40.000Z</time>
      </trkpt>
      <trkpt lat="37.97302669845521450042724609375" lon="-1.16604921407997608184814453125">
        <ele>49.200000762939453125</ele>
        <time>2020-02-22T17:40:48.000Z</time>
      </trkpt>
      <trkpt lat="37.9730450548231601715087890625" lon="-1.165853329002857208251953125">
        <ele>49</ele>
        <time>2020-02-22T17:40:50.000Z</time>
      </trkpt>
      <trkpt lat="37.97309392131865024566650390625" lon="-1.16537220776081085205078125">
        <ele>48.799999237060546875</ele>
        <time>2020-02-22T17:40:55.000Z</time>
      </trkpt>
      <trkpt lat="37.9731345735490322113037109375" lon="-1.16489117033779621124267578125">
        <ele>48.799999237060546875</ele>
        <time>2020-02-22T17:41:00.000Z</time>
      </trkpt>
      <trkpt lat="37.9731831885874271392822265625" lon="-1.1643316783010959625244140625">
        <ele>48.59999847412109375</ele>
        <time>2020-02-22T17:41:06.000Z</time>
      </trkpt>
      <trkpt lat="37.973210848867893218994140625" lon="-1.1640718393027782440185546875">
        <ele>48.59999847412109375</ele>
        <time>2020-02-22T17:41:09.000Z</time>
      </trkpt>
      <trkpt lat="37.97327765263617038726806640625" lon="-1.16342299617826938629150390625">
        <ele>48.799999237060546875</ele>
        <time>2020-02-22T17:41:16.000Z</time>
      </trkpt>
      <trkpt lat="37.97335241921246051788330078125" lon="-1.1626626737415790557861328125">
        <ele>48.799999237060546875</ele>
        <time>2020-02-22T17:41:24.000Z</time>
      </trkpt>
      <trkpt lat="37.97336063347756862640380859375" lon="-1.1625681258738040924072265625">
        <ele>48.799999237060546875</ele>
        <time>2020-02-22T17:41:25.000Z</time>
      </trkpt>
      <trkpt lat="37.9734306223690509796142578125" lon="-1.161872930824756622314453125">
        <ele>48.59999847412109375</ele>
        <time>2020-02-22T17:41:32.000Z</time>
      </trkpt>
      <trkpt lat="37.973462305963039398193359375" lon="-1.16156104020774364471435546875">
        <ele>48.59999847412109375</ele>
        <time>2020-02-22T17:41:35.000Z</time>
      </trkpt>
      <trkpt lat="37.97350681386888027191162109375" lon="-1.1611375026404857635498046875">
        <ele>48.40000152587890625</ele>
        <time>2020-02-22T17:41:39.000Z</time>
      </trkpt>
      <trkpt lat="37.97354503534734249114990234375" lon="-1.16069845855236053466796875">
        <ele>48.200000762939453125</ele>
        <time>2020-02-22T17:41:43.000Z</time>
      </trkpt>
      <trkpt lat="37.97360873781144618988037109375" lon="-1.16003503091633319854736328125">
        <ele>48</ele>
        <time>2020-02-22T17:41:49.000Z</time>
      </trkpt>
      <trkpt lat="37.97365115024149417877197265625" lon="-1.1596005968749523162841796875">
        <ele>47.799999237060546875</ele>
        <time>2020-02-22T17:41:53.000Z</time>
      </trkpt>
      <trkpt lat="37.97368367202579975128173828125" lon="-1.15927764214575290679931640625">
        <ele>47.59999847412109375</ele>
        <time>2020-02-22T17:41:56.000Z</time>
      </trkpt>
      <trkpt lat="37.97372574917972087860107421875" lon="-1.15886223502457141876220703125">
        <ele>47.59999847412109375</ele>
        <time>2020-02-22T17:42:00.000Z</time>
      </trkpt>
      <trkpt lat="37.97374770976603031158447265625" lon="-1.15866576321423053741455078125">
        <ele>47.40000152587890625</ele>
        <time>2020-02-22T17:42:02.000Z</time>
      </trkpt>
      <trkpt lat="37.97375835478305816650390625" lon="-1.15857037715613842010498046875">
        <ele>47.40000152587890625</ele>
        <time>2020-02-22T17:42:03.000Z</time>
      </trkpt>
      <trkpt lat="37.973835133016109466552734375" lon="-1.15782036446034908294677734375">
        <ele>47.40000152587890625</ele>
        <time>2020-02-22T17:42:11.000Z</time>
      </trkpt>
      <trkpt lat="37.9738963209092617034912109375" lon="-1.15717931650578975677490234375">
        <ele>47.200000762939453125</ele>
        <time>2020-02-22T17:42:18.000Z</time>
      </trkpt>
      <trkpt lat="37.97391199506819248199462890625" lon="-1.15700463764369487762451171875">
        <ele>47.40000152587890625</ele>
        <time>2020-02-22T17:42:20.000Z</time>
      </trkpt>
      <trkpt lat="37.9739425890147686004638671875" lon="-1.1567524261772632598876953125">
        <ele>47.200000762939453125</ele>
        <time>2020-02-22T17:42:23.000Z</time>
      </trkpt>
      <trkpt lat="37.9739573411643505096435546875" lon="-1.15660272538661956787109375">
        <ele>47.40000152587890625</ele>
        <time>2020-02-22T17:42:25.000Z</time>
      </trkpt>
      <trkpt lat="37.97400402836501598358154296875" lon="-1.1561204306781291961669921875">
        <ele>47.59999847412109375</ele>
        <time>2020-02-22T17:42:31.000Z</time>
      </trkpt>
      <trkpt lat="37.97407745383679866790771484375" lon="-1.15543202497065067291259765625">
        <ele>47.200000762939453125</ele>
        <time>2020-02-22T17:42:38.000Z</time>
      </trkpt>
      <trkpt lat="37.97408700920641422271728515625" lon="-1.15533127449452877044677734375">
        <ele>47</ele>
        <time>2020-02-22T17:42:39.000Z</time>
      </trkpt>
      <trkpt lat="37.97411735169589519500732421875" lon="-1.15502692759037017822265625">
        <ele>47</ele>
        <time>2020-02-22T17:42:42.000Z</time>
      </trkpt>
      <trkpt lat="37.9741675592958927154541015625" lon="-1.15451051853597164154052734375">
        <ele>47</ele>
        <time>2020-02-22T17:42:47.000Z</time>
      </trkpt>
      <trkpt lat="37.97423654235899448394775390625" lon="-1.15382554940879344940185546875">
        <ele>46.799999237060546875</ele>
        <time>2020-02-22T17:42:54.000Z</time>
      </trkpt>
      <trkpt lat="37.974259592592716217041015625" lon="-1.15362823940813541412353515625">
        <ele>46.799999237060546875</ele>
        <time>2020-02-22T17:42:56.000Z</time>
      </trkpt>
      <trkpt lat="37.97431885264813899993896484375" lon="-1.15311409346759319305419921875">
        <ele>46.59999847412109375</ele>
        <time>2020-02-22T17:43:01.000Z</time>
      </trkpt>
      <trkpt lat="37.97437920235097408294677734375" lon="-1.1525894701480865478515625">
        <ele>46.40000152587890625</ele>
        <time>2020-02-22T17:43:06.000Z</time>
      </trkpt>
      <trkpt lat="37.9744404740631580352783203125" lon="-1.15183912217617034912109375">
        <ele>46.200000762939453125</ele>
        <time>2020-02-22T17:43:13.000Z</time>
      </trkpt>
      <trkpt lat="37.97445212490856647491455078125" lon="-1.1516243778169155120849609375">
        <ele>46</ele>
        <time>2020-02-22T17:43:15.000Z</time>
      </trkpt>
      <trkpt lat="37.9745189286768436431884765625" lon="-1.15088501013815402984619140625">
        <ele>45.799999237060546875</ele>
        <time>2020-02-22T17:43:22.000Z</time>
      </trkpt>
      <trkpt lat="37.97454063780605792999267578125" lon="-1.15067110396921634674072265625">
        <ele>45.799999237060546875</ele>
        <time>2020-02-22T17:43:24.000Z</time>
      </trkpt>
      <trkpt lat="37.97461154870688915252685546875" lon="-1.1499215103685855865478515625">
        <ele>45.799999237060546875</ele>
        <time>2020-02-22T17:43:31.000Z</time>
      </trkpt>
      <trkpt lat="37.97464423812925815582275390625" lon="-1.14959419704973697662353515625">
        <ele>45.799999237060546875</ele>
        <time>2020-02-22T17:43:34.000Z</time>
      </trkpt>
      <trkpt lat="37.97471766360104084014892578125" lon="-1.14883747883141040802001953125">
        <ele>45.799999237060546875</ele>
        <time>2020-02-22T17:43:41.000Z</time>
      </trkpt>
      <trkpt lat="37.974737696349620819091796875" lon="-1.14862407557666301727294921875">
        <ele>45.799999237060546875</ele>
        <time>2020-02-22T17:43:43.000Z</time>
      </trkpt>
      <trkpt lat="37.97481673769652843475341796875" lon="-1.147864423692226409912109375">
        <ele>45.59999847412109375</ele>
        <time>2020-02-22T17:43:50.000Z</time>
      </trkpt>
      <trkpt lat="37.97484624199569225311279296875" lon="-1.147539205849170684814453125">
        <ele>45.59999847412109375</ele>
        <time>2020-02-22T17:43:53.000Z</time>
      </trkpt>
      <trkpt lat="37.97489167191088199615478515625" lon="-1.14710225723683834075927734375">
        <ele>45.59999847412109375</ele>
        <time>2020-02-22T17:43:57.000Z</time>
      </trkpt>
      <trkpt lat="37.97494699247181415557861328125" lon="-1.146590374410152435302734375">
        <ele>45.59999847412109375</ele>
        <time>2020-02-22T17:44:02.000Z</time>
      </trkpt>
      <trkpt lat="37.9749668575823307037353515625" lon="-1.146412678062915802001953125">
        <ele>45.59999847412109375</ele>
        <time>2020-02-22T17:44:04.000Z</time>
      </trkpt>
      <trkpt lat="37.97498035244643688201904296875" lon="-1.146214194595813751220703125">
        <ele>45.799999237060546875</ele>
        <time>2020-02-22T17:44:07.000Z</time>
      </trkpt>
      <trkpt lat="37.97498856671154499053955078125" lon="-1.14613540470600128173828125">
        <ele>45.799999237060546875</ele>
        <time>2020-02-22T17:44:09.000Z</time>
      </trkpt>
      <trkpt lat="37.97498789615929126739501953125" lon="-1.146088130772113800048828125">
        <ele>46</ele>
        <time>2020-02-22T17:44:11.000Z</time>
      </trkpt>
      <trkpt lat="37.97499912790954113006591796875" lon="-1.1460448801517486572265625">
        <ele>46.200000762939453125</ele>
        <time>2020-02-22T17:44:15.000Z</time>
      </trkpt>
      <trkpt lat="37.97498756088316440582275390625" lon="-1.1459531821310520172119140625">
        <ele>46.799999237060546875</ele>
        <time>2020-02-22T17:44:26.000Z</time>
      </trkpt>
      <trkpt lat="37.97499082982540130615234375" lon="-1.14593289792537689208984375">
        <ele>46.799999237060546875</ele>
        <time>2020-02-22T17:44:27.000Z</time>
      </trkpt>
      <trkpt lat="37.9750070907175540924072265625" lon="-1.1457205004990100860595703125">
        <ele>46.799999237060546875</ele>
        <time>2020-02-22T17:44:31.000Z</time>
      </trkpt>
      <trkpt lat="37.9750436358153820037841796875" lon="-1.1454593203961849212646484375">
        <ele>46.40000152587890625</ele>
        <time>2020-02-22T17:44:34.000Z</time>
      </trkpt>
      <trkpt lat="37.97506785951554775238037109375" lon="-1.14529428072273731231689453125">
        <ele>46.40000152587890625</ele>
        <time>2020-02-22T17:44:36.000Z</time>
      </trkpt>
      <trkpt lat="37.9750771634280681610107421875" lon="-1.1452080309391021728515625">
        <ele>46.40000152587890625</ele>
        <time>2020-02-22T17:44:37.000Z</time>
      </trkpt>
      <trkpt lat="37.97512267716228961944580078125" lon="-1.14480637013912200927734375">
        <ele>45.799999237060546875</ele>
        <time>2020-02-22T17:44:42.000Z</time>
      </trkpt>
      <trkpt lat="37.97513441182672977447509765625" lon="-1.14465457387268543243408203125">
        <ele>45.59999847412109375</ele>
        <time>2020-02-22T17:44:44.000Z</time>
      </trkpt>
      <trkpt lat="37.9751576296985149383544921875" lon="-1.144390963017940521240234375">
        <ele>45.59999847412109375</ele>
        <time>2020-02-22T17:44:49.000Z</time>
      </trkpt>
      <trkpt lat="37.97516944818198680877685546875" lon="-1.14421569742262363433837890625">
        <ele>45.799999237060546875</ele>
        <time>2020-02-22T17:44:53.000Z</time>
      </trkpt>
      <trkpt lat="37.97518302686512470245361328125" lon="-1.14408074878156185150146484375">
        <ele>46</ele>
        <time>2020-02-22T17:44:56.000Z</time>
      </trkpt>
      <trkpt lat="37.97519727610051631927490234375" lon="-1.14398703910410404205322265625">
        <ele>46</ele>
        <time>2020-02-22T17:44:58.000Z</time>
      </trkpt>
      <trkpt lat="37.97521521337330341339111328125" lon="-1.1438650824129581451416015625">
        <ele>46</ele>
        <time>2020-02-22T17:45:01.000Z</time>
      </trkpt>
      <trkpt lat="37.9752183146774768829345703125" lon="-1.14382325671613216400146484375">
        <ele>46</ele>
        <time>2020-02-22T17:45:02.000Z</time>
      </trkpt>
      <trkpt lat="37.97523021697998046875" lon="-1.1437259428203105926513671875">
        <ele>46</ele>
        <time>2020-02-22T17:45:04.000Z</time>
      </trkpt>
      <trkpt lat="37.97524991445243358612060546875" lon="-1.14360180683434009552001953125">
        <ele>46</ele>
        <time>2020-02-22T17:45:06.000Z</time>
      </trkpt>
      <trkpt lat="37.97526231966912746429443359375" lon="-1.14353341050446033477783203125">
        <ele>46</ele>
        <time>2020-02-22T17:45:07.000Z</time>
      </trkpt>
      <trkpt lat="37.97528260387480258941650390625" lon="-1.1433085240423679351806640625">
        <ele>46</ele>
        <time>2020-02-22T17:45:10.000Z</time>
      </trkpt>
      <trkpt lat="37.97529769130051136016845703125" lon="-1.1431427299976348876953125">
        <ele>46</ele>
        <time>2020-02-22T17:45:12.000Z</time>
      </trkpt>
      <trkpt lat="37.9753051511943340301513671875" lon="-1.14305413328111171722412109375">
        <ele>45.799999237060546875</ele>
        <time>2020-02-22T17:45:13.000Z</time>
      </trkpt>
      <trkpt lat="37.97533893026411533355712890625" lon="-1.14278809167444705963134765625">
        <ele>45.799999237060546875</ele>
        <time>2020-02-22T17:45:16.000Z</time>
      </trkpt>
      <trkpt lat="37.9753758944571018218994140625" lon="-1.14242129959166049957275390625">
        <ele>45.799999237060546875</ele>
        <time>2020-02-22T17:45:20.000Z</time>
      </trkpt>
      <trkpt lat="37.975384108722209930419921875" lon="-1.14233010448515415191650390625">
        <ele>45.799999237060546875</ele>
        <time>2020-02-22T17:45:21.000Z</time>
      </trkpt>
      <trkpt lat="37.97543741762638092041015625" lon="-1.1417055688798427581787109375">
        <ele>45.59999847412109375</ele>
        <time>2020-02-22T17:45:28.000Z</time>
      </trkpt>
      <trkpt lat="37.9754459671676158905029296875" lon="-1.14160917699337005615234375">
        <ele>45.799999237060546875</ele>
        <time>2020-02-22T17:45:29.000Z</time>
      </trkpt>
      <trkpt lat="37.97551193274557590484619140625" lon="-1.14092932082712650299072265625">
        <ele>45.59999847412109375</ele>
        <time>2020-02-22T17:45:36.000Z</time>
      </trkpt>
      <trkpt lat="37.97552718780934810638427734375" lon="-1.1407399736344814300537109375">
        <ele>45.59999847412109375</ele>
        <time>2020-02-22T17:45:38.000Z</time>
      </trkpt>
      <trkpt lat="37.97560329549014568328857421875" lon="-1.13998384214937686920166015625">
        <ele>45.59999847412109375</ele>
        <time>2020-02-22T17:45:46.000Z</time>
      </trkpt>
      <trkpt lat="37.97563883475959300994873046875" lon="-1.139506995677947998046875">
        <ele>45.59999847412109375</ele>
        <time>2020-02-22T17:45:51.000Z</time>
      </trkpt>
      <trkpt lat="37.97565895132720470428466796875" lon="-1.1393254436552524566650390625">
        <ele>45.40000152587890625</ele>
        <time>2020-02-22T17:45:53.000Z</time>
      </trkpt>
      <trkpt lat="37.9757358133792877197265625" lon="-1.13868230022490024566650390625">
        <ele>45.200000762939453125</ele>
        <time>2020-02-22T17:46:00.000Z</time>
      </trkpt>
      <trkpt lat="37.9757735319435596466064453125" lon="-1.13844693638384342193603515625">
        <ele>45.200000762939453125</ele>
        <time>2020-02-22T17:46:03.000Z</time>
      </trkpt>
      <trkpt lat="37.97579415142536163330078125" lon="-1.1382954753935337066650390625">
        <ele>45.200000762939453125</ele>
        <time>2020-02-22T17:46:05.000Z</time>
      </trkpt>
      <trkpt lat="37.9758013598620891571044921875" lon="-1.13821526058018207550048828125">
        <ele>45.200000762939453125</ele>
        <time>2020-02-22T17:46:06.000Z</time>
      </trkpt>
      <trkpt lat="37.97585659660398960113525390625" lon="-1.13761545158922672271728515625">
        <ele>45.200000762939453125</ele>
        <time>2020-02-22T17:46:13.000Z</time>
      </trkpt>
      <trkpt lat="37.9758942313492298126220703125" lon="-1.1372276209294795989990234375">
        <ele>45.200000762939453125</ele>
        <time>2020-02-22T17:46:18.000Z</time>
      </trkpt>
      <trkpt lat="37.975923232734203338623046875" lon="-1.13696585409343242645263671875">
        <ele>45.200000762939453125</ele>
        <time>2020-02-22T17:46:21.000Z</time>
      </trkpt>
      <trkpt lat="37.97596237622201442718505859375" lon="-1.13655547611415386199951171875">
        <ele>45.200000762939453125</ele>
        <time>2020-02-22T17:46:26.000Z</time>
      </trkpt>
      <trkpt lat="37.97596019692718982696533203125" lon="-1.1364199407398700714111328125">
        <ele>45</ele>
        <time>2020-02-22T17:46:28.000Z</time>
      </trkpt>
      <trkpt lat="37.97593471594154834747314453125" lon="-1.13633595407009124755859375">
        <ele>45</ele>
        <time>2020-02-22T17:46:30.000Z</time>
      </trkpt>
      <trkpt lat="37.97596313059329986572265625" lon="-1.1362056992948055267333984375">
        <ele>45</ele>
        <time>2020-02-22T17:46:33.000Z</time>
      </trkpt>
      <trkpt lat="37.97597117722034454345703125" lon="-1.136073768138885498046875">
        <ele>45</ele>
        <time>2020-02-22T17:46:35.000Z</time>
      </trkpt>
      <trkpt lat="37.97597209922969341278076171875" lon="-1.1359287612140178680419921875">
        <ele>45</ele>
        <time>2020-02-22T17:46:37.000Z</time>
      </trkpt>
      <trkpt lat="37.97597863711416721343994140625" lon="-1.13579506985843181610107421875">
        <ele>45</ele>
        <time>2020-02-22T17:46:39.000Z</time>
      </trkpt>
      <trkpt lat="37.9760129190981388092041015625" lon="-1.13551109097898006439208984375">
        <ele>45.200000762939453125</ele>
        <time>2020-02-22T17:46:43.000Z</time>
      </trkpt>
      <trkpt lat="37.97601887024939060211181640625" lon="-1.13544143736362457275390625">
        <ele>45.200000762939453125</ele>
        <time>2020-02-22T17:46:44.000Z</time>
      </trkpt>
      <trkpt lat="37.97602859325706958770751953125" lon="-1.13536960445344448089599609375">
        <ele>45</ele>
        <time>2020-02-22T17:46:45.000Z</time>
      </trkpt>
      <trkpt lat="37.9760496318340301513671875" lon="-1.13512602634727954864501953125">
        <ele>45</ele>
        <time>2020-02-22T17:46:48.000Z</time>
      </trkpt>
      <trkpt lat="37.97607821412384510040283203125" lon="-1.1347831226885318756103515625">
        <ele>45.200000762939453125</ele>
        <time>2020-02-22T17:46:52.000Z</time>
      </trkpt>
      <trkpt lat="37.9761084727942943572998046875" lon="-1.13452143967151641845703125">
        <ele>45.200000762939453125</ele>
        <time>2020-02-22T17:46:55.000Z</time>
      </trkpt>
      <trkpt lat="37.97614929266273975372314453125" lon="-1.13418071530759334564208984375">
        <ele>45.200000762939453125</ele>
        <time>2020-02-22T17:46:59.000Z</time>
      </trkpt>
      <trkpt lat="37.9761684872210025787353515625" lon="-1.13409639336168766021728515625">
        <ele>45</ele>
        <time>2020-02-22T17:47:00.000Z</time>
      </trkpt>
      <trkpt lat="37.97619421966373920440673828125" lon="-1.1339784599840641021728515625">
        <ele>45</ele>
        <time>2020-02-22T17:47:02.000Z</time>
      </trkpt>
      <trkpt lat="37.97620846889913082122802734375" lon="-1.1339414119720458984375">
        <ele>45.200000762939453125</ele>
        <time>2020-02-22T17:47:03.000Z</time>
      </trkpt>
      <trkpt lat="37.97624015249311923980712890625" lon="-1.13385415636003017425537109375">
        <ele>45.200000762939453125</ele>
        <time>2020-02-22T17:47:05.000Z</time>
      </trkpt>
      <trkpt lat="37.9762580059468746185302734375" lon="-1.1337732709944248199462890625">
        <ele>45.200000762939453125</ele>
        <time>2020-02-22T17:47:07.000Z</time>
      </trkpt>
      <trkpt lat="37.97626026906073093414306640625" lon="-1.13374116830527782440185546875">
        <ele>45.200000762939453125</ele>
        <time>2020-02-22T17:47:08.000Z</time>
      </trkpt>
      <trkpt lat="37.976311147212982177734375" lon="-1.1336046271026134490966796875">
        <ele>45.200000762939453125</ele>
        <time>2020-02-22T17:47:14.000Z</time>
      </trkpt>
      <trkpt lat="37.976309470832347869873046875" lon="-1.133593060076236724853515625">
        <ele>45.200000762939453125</ele>
        <time>2020-02-22T17:47:15.000Z</time>
      </trkpt>
      <trkpt lat="37.97627183608710765838623046875" lon="-1.13330732099711894989013671875">
        <ele>45.200000762939453125</ele>
        <time>2020-02-22T17:47:58.000Z</time>
      </trkpt>
      <trkpt lat="37.97629170119762420654296875" lon="-1.13327060826122760772705078125">
        <ele>45.200000762939453125</ele>
        <time>2020-02-22T17:47:59.000Z</time>
      </trkpt>
      <trkpt lat="37.976310811936855316162109375" lon="-1.133225262165069580078125">
        <ele>45.200000762939453125</ele>
        <time>2020-02-22T17:48:00.000Z</time>
      </trkpt>
      <trkpt lat="37.9763527214527130126953125" lon="-1.1330603063106536865234375">
        <ele>45.200000762939453125</ele>
        <time>2020-02-22T17:48:03.000Z</time>
      </trkpt>
      <trkpt lat="37.97637350857257843017578125" lon="-1.13299735821783542633056640625">
        <ele>45.200000762939453125</ele>
        <time>2020-02-22T17:48:04.000Z</time>
      </trkpt>
      <trkpt lat="37.97640259377658367156982421875" lon="-1.1329342424869537353515625">
        <ele>45.200000762939453125</ele>
        <time>2020-02-22T17:48:05.000Z</time>
      </trkpt>
      <trkpt lat="37.976447604596614837646484375" lon="-1.13287347368896007537841796875">
        <ele>45.200000762939453125</ele>
        <time>2020-02-22T17:48:06.000Z</time>
      </trkpt>
      <trkpt lat="37.97656302340328693389892578125" lon="-1.13277741707861423492431640625">
        <ele>45</ele>
        <time>2020-02-22T17:48:08.000Z</time>
      </trkpt>
      <trkpt lat="37.976624630391597747802734375" lon="-1.1327342502772808074951171875">
        <ele>45</ele>
        <time>2020-02-22T17:48:09.000Z</time>
      </trkpt>
      <trkpt lat="37.976747341454029083251953125" lon="-1.13264766521751880645751953125">
        <ele>44.799999237060546875</ele>
        <time>2020-02-22T17:48:11.000Z</time>
      </trkpt>
      <trkpt lat="37.976913638412952423095703125" lon="-1.1325166560709476470947265625">
        <ele>44.799999237060546875</ele>
        <time>2020-02-22T17:48:14.000Z</time>
      </trkpt>
      <trkpt lat="37.97716115601360797882080078125" lon="-1.1322985589504241943359375">
        <ele>44.59999847412109375</ele>
        <time>2020-02-22T17:48:19.000Z</time>
      </trkpt>
      <trkpt lat="37.97724983654916286468505859375" lon="-1.1322152428328990936279296875">
        <ele>44.59999847412109375</ele>
        <time>2020-02-22T17:48:21.000Z</time>
      </trkpt>
      <trkpt lat="37.97749123536050319671630859375" lon="-1.13195582292973995208740234375">
        <ele>44.40000152587890625</ele>
        <time>2020-02-22T17:48:27.000Z</time>
      </trkpt>
      <trkpt lat="37.9775344021618366241455078125" lon="-1.1319185234606266021728515625">
        <ele>44.40000152587890625</ele>
        <time>2020-02-22T17:48:28.000Z</time>
      </trkpt>
      <trkpt lat="37.97765049152076244354248046875" lon="-1.13185071386396884918212890625">
        <ele>44.40000152587890625</ele>
        <time>2020-02-22T17:48:31.000Z</time>
      </trkpt>
      <trkpt lat="37.97772743739187717437744140625" lon="-1.13178332336246967315673828125">
        <ele>44.59999847412109375</ele>
        <time>2020-02-22T17:48:36.000Z</time>
      </trkpt>
      <trkpt lat="37.9777553491294384002685546875" lon="-1.1317508853971958160400390625">
        <ele>44.59999847412109375</ele>
        <time>2020-02-22T17:48:39.000Z</time>
      </trkpt>
      <trkpt lat="37.97778435051441192626953125" lon="-1.13172247074544429779052734375">
        <ele>44.59999847412109375</ele>
        <time>2020-02-22T17:48:42.000Z</time>
      </trkpt>
      <trkpt lat="37.9777930676937103271484375" lon="-1.1317197047173976898193359375">
        <ele>44.59999847412109375</ele>
        <time>2020-02-22T17:48:43.000Z</time>
      </trkpt>
      <trkpt lat="37.97786590643227100372314453125" lon="-1.13163982518017292022705078125">
        <ele>44.59999847412109375</ele>
        <time>2020-02-22T17:48:59.000Z</time>
      </trkpt>
      <trkpt lat="37.97793849371373653411865234375" lon="-1.131568662822246551513671875">
        <ele>44.59999847412109375</ele>
        <time>2020-02-22T17:49:01.000Z</time>
      </trkpt>
      <trkpt lat="37.97798953950405120849609375" lon="-1.1315332911908626556396484375">
        <ele>44.59999847412109375</ele>
        <time>2020-02-22T17:49:02.000Z</time>
      </trkpt>
      <trkpt lat="37.97813043929636478424072265625" lon="-1.13141032867133617401123046875">
        <ele>44.40000152587890625</ele>
        <time>2020-02-22T17:49:05.000Z</time>
      </trkpt>
      <trkpt lat="37.97821928746998310089111328125" lon="-1.13132684491574764251708984375">
        <ele>44</ele>
        <time>2020-02-22T17:49:07.000Z</time>
      </trkpt>
      <trkpt lat="37.97836781479418277740478515625" lon="-1.13123363815248012542724609375">
        <ele>44</ele>
        <time>2020-02-22T17:49:10.000Z</time>
      </trkpt>
      <trkpt lat="37.978412993252277374267578125" lon="-1.13120128400623798370361328125">
        <ele>44</ele>
        <time>2020-02-22T17:49:11.000Z</time>
      </trkpt>
      <trkpt lat="37.9784792102873325347900390625" lon="-1.131142862141132354736328125">
        <ele>44</ele>
        <time>2020-02-22T17:49:13.000Z</time>
      </trkpt>
      <trkpt lat="37.9785130731761455535888671875" lon="-1.1310850270092487335205078125">
        <ele>44</ele>
        <time>2020-02-22T17:49:15.000Z</time>
      </trkpt>
      <trkpt lat="37.97857183031737804412841796875" lon="-1.1309696920216083526611328125">
        <ele>44.200000762939453125</ele>
        <time>2020-02-22T17:49:19.000Z</time>
      </trkpt>
      <trkpt lat="37.9785569943487644195556640625" lon="-1.13091512583196163177490234375">
        <ele>44.40000152587890625</ele>
        <time>2020-02-22T17:49:20.000Z</time>
      </trkpt>
      <trkpt lat="37.978563196957111358642578125" lon="-1.13088830374181270599365234375">
        <ele>44.40000152587890625</ele>
        <time>2020-02-22T17:49:21.000Z</time>
      </trkpt>
      <trkpt lat="37.97858557663857936859130859375" lon="-1.13081068731844425201416015625">
        <ele>44.799999237060546875</ele>
        <time>2020-02-22T17:49:24.000Z</time>
      </trkpt>
      <trkpt lat="37.9786337725818157196044921875" lon="-1.13075888715684413909912109375">
        <ele>44.799999237060546875</ele>
        <time>2020-02-22T17:49:27.000Z</time>
      </trkpt>
      <trkpt lat="37.97876377590000629425048828125" lon="-1.130706332623958587646484375">
        <ele>44.799999237060546875</ele>
        <time>2020-02-22T17:49:34.000Z</time>
      </trkpt>
      <trkpt lat="37.978793196380138397216796875" lon="-1.13068261183798313140869140625">
        <ele>44.799999237060546875</ele>
        <time>2020-02-22T17:49:37.000Z</time>
      </trkpt>
      <trkpt lat="37.97884491272270679473876953125" lon="-1.13065009005367755889892578125">
        <ele>45</ele>
        <time>2020-02-22T17:49:40.000Z</time>
      </trkpt>
      <trkpt lat="37.9788775183260440826416015625" lon="-1.13063600845634937286376953125">
        <ele>45</ele>
        <time>2020-02-22T17:49:41.000Z</time>
      </trkpt>
      <trkpt lat="37.97906803898513317108154296875" lon="-1.13055185414850711822509765625">
        <ele>44.799999237060546875</ele>
        <time>2020-02-22T17:49:45.000Z</time>
      </trkpt>
      <trkpt lat="37.9791033267974853515625" lon="-1.1305110342800617218017578125">
        <ele>44.799999237060546875</ele>
        <time>2020-02-22T17:49:46.000Z</time>
      </trkpt>
      <trkpt lat="37.9793541133403778076171875" lon="-1.1302947811782360076904296875">
        <ele>44.59999847412109375</ele>
        <time>2020-02-22T17:49:52.000Z</time>
      </trkpt>
      <trkpt lat="37.97940616495907306671142578125" lon="-1.13027776591479778289794921875">
        <ele>44.59999847412109375</ele>
        <time>2020-02-22T17:49:53.000Z</time>
      </trkpt>
      <trkpt lat="37.9794474877417087554931640625" lon="-1.13024926744401454925537109375">
        <ele>44.59999847412109375</ele>
        <time>2020-02-22T17:49:54.000Z</time>
      </trkpt>
      <trkpt lat="37.9795182310044765472412109375" lon="-1.13017165102064609527587890625">
        <ele>44.59999847412109375</ele>
        <time>2020-02-22T17:49:56.000Z</time>
      </trkpt>
      <trkpt lat="37.97955326735973358154296875" lon="-1.1300037615001201629638671875">
        <ele>44.59999847412109375</ele>
        <time>2020-02-22T17:49:59.000Z</time>
      </trkpt>
      <trkpt lat="37.97955402173101902008056640625" lon="-1.129936538636684417724609375">
        <ele>44.40000152587890625</ele>
        <time>2020-02-22T17:50:00.000Z</time>
      </trkpt>
      <trkpt lat="37.97956399619579315185546875" lon="-1.1297958903014659881591796875">
        <ele>44.40000152587890625</ele>
        <time>2020-02-22T17:50:02.000Z</time>
      </trkpt>
      <trkpt lat="37.97958386130630970001220703125" lon="-1.12956865690648555755615234375">
        <ele>44.40000152587890625</ele>
        <time>2020-02-22T17:50:05.000Z</time>
      </trkpt>
      <trkpt lat="37.979623340070247650146484375" lon="-1.12942147068679332733154296875">
        <ele>44.200000762939453125</ele>
        <time>2020-02-22T17:50:07.000Z</time>
      </trkpt>
      <trkpt lat="37.97968880273401737213134765625" lon="-1.1292004399001598358154296875">
        <ele>44</ele>
        <time>2020-02-22T17:50:10.000Z</time>
      </trkpt>
      <trkpt lat="37.97976340167224407196044921875" lon="-1.12897471524775028228759765625">
        <ele>44</ele>
        <time>2020-02-22T17:50:13.000Z</time>
      </trkpt>
      <trkpt lat="37.9798042215406894683837890625" lon="-1.128805316984653472900390625">
        <ele>43.799999237060546875</ele>
        <time>2020-02-22T17:50:15.000Z</time>
      </trkpt>
      <trkpt lat="37.9798315465450286865234375" lon="-1.12873457372188568115234375">
        <ele>43.799999237060546875</ele>
        <time>2020-02-22T17:50:16.000Z</time>
      </trkpt>
      <trkpt lat="37.97991997562348842620849609375" lon="-1.1286314763128757476806640625">
        <ele>44</ele>
        <time>2020-02-22T17:50:18.000Z</time>
      </trkpt>
      <trkpt lat="37.97999625094234943389892578125" lon="-1.128524355590343475341796875">
        <ele>43.799999237060546875</ele>
        <time>2020-02-22T17:50:20.000Z</time>
      </trkpt>
      <trkpt lat="37.9800540022552013397216796875" lon="-1.1283920891582965850830078125">
        <ele>43.799999237060546875</ele>
        <time>2020-02-22T17:50:22.000Z</time>
      </trkpt>
      <trkpt lat="37.98025659285485744476318359375" lon="-1.12788389436900615692138671875">
        <ele>43.799999237060546875</ele>
        <time>2020-02-22T17:50:29.000Z</time>
      </trkpt>
      <trkpt lat="37.98038181848824024200439453125" lon="-1.1276246421039104461669921875">
        <ele>44</ele>
        <time>2020-02-22T17:50:33.000Z</time>
      </trkpt>
      <trkpt lat="37.9804328642785549163818359375" lon="-1.1274828203022480010986328125">
        <ele>44</ele>
        <time>2020-02-22T17:50:35.000Z</time>
      </trkpt>
      <trkpt lat="37.98045373521745204925537109375" lon="-1.127411909401416778564453125">
        <ele>44.200000762939453125</ele>
        <time>2020-02-22T17:50:36.000Z</time>
      </trkpt>
      <trkpt lat="37.98052146099507808685302734375" lon="-1.12732817418873310089111328125">
        <ele>44.200000762939453125</ele>
        <time>2020-02-22T17:50:38.000Z</time>
      </trkpt>
      <trkpt lat="37.98062472604215145111083984375" lon="-1.12723882310092449188232421875">
        <ele>44.40000152587890625</ele>
        <time>2020-02-22T17:50:42.000Z</time>
      </trkpt>
      <trkpt lat="37.9806444235146045684814453125" lon="-1.12722641788423061370849609375">
        <ele>44.40000152587890625</ele>
        <time>2020-02-22T17:50:43.000Z</time>
      </trkpt>
      <trkpt lat="37.9806953854858875274658203125" lon="-1.127071268856525421142578125">
        <ele>45</ele>
        <time>2020-02-22T17:50:48.000Z</time>
      </trkpt>
      <trkpt lat="37.98069982789456844329833984375" lon="-1.127024330198764801025390625">
        <ele>45</ele>
        <time>2020-02-22T17:50:49.000Z</time>
      </trkpt>
      <trkpt lat="37.98069588840007781982421875" lon="-1.12682006321847438812255859375">
        <ele>45</ele>
        <time>2020-02-22T17:50:54.000Z</time>
      </trkpt>
      <trkpt lat="37.980682812631130218505859375" lon="-1.1264944262802600860595703125">
        <ele>44.799999237060546875</ele>
        <time>2020-02-22T17:51:00.000Z</time>
      </trkpt>
      <trkpt lat="37.98064081929624080657958984375" lon="-1.1262314021587371826171875">
        <ele>44.59999847412109375</ele>
        <time>2020-02-22T17:51:04.000Z</time>
      </trkpt>
      <trkpt lat="37.98061273992061614990234375" lon="-1.1260917596518993377685546875">
        <ele>44.40000152587890625</ele>
        <time>2020-02-22T17:51:06.000Z</time>
      </trkpt>
      <trkpt lat="37.98054325394332408905029296875" lon="-1.12573309801518917083740234375">
        <ele>44</ele>
        <time>2020-02-22T17:51:11.000Z</time>
      </trkpt>
      <trkpt lat="37.980511821806430816650390625" lon="-1.12549890764057636260986328125">
        <ele>44</ele>
        <time>2020-02-22T17:51:14.000Z</time>
      </trkpt>
      <trkpt lat="37.980503104627132415771484375" lon="-1.12541642971336841583251953125">
        <ele>44</ele>
        <time>2020-02-22T17:51:15.000Z</time>
      </trkpt>
      <trkpt lat="37.9804908670485019683837890625" lon="-1.1250705085694789886474609375">
        <ele>44</ele>
        <time>2020-02-22T17:51:19.000Z</time>
      </trkpt>
      <trkpt lat="37.98049665056169033050537109375" lon="-1.12498425878584384918212890625">
        <ele>44</ele>
        <time>2020-02-22T17:51:20.000Z</time>
      </trkpt>
      <trkpt lat="37.98050587065517902374267578125" lon="-1.12489943392574787139892578125">
        <ele>44</ele>
        <time>2020-02-22T17:51:21.000Z</time>
      </trkpt>
      <trkpt lat="37.98056739382445812225341796875" lon="-1.1244787462055683135986328125">
        <ele>43.799999237060546875</ele>
        <time>2020-02-22T17:51:26.000Z</time>
      </trkpt>
      <trkpt lat="37.98061131499707698822021484375" lon="-1.1242497526109218597412109375">
        <ele>43.799999237060546875</ele>
        <time>2020-02-22T17:51:29.000Z</time>
      </trkpt>
      <trkpt lat="37.980694212019443511962890625" lon="-1.12374960444867610931396484375">
        <ele>43.40000152587890625</ele>
        <time>2020-02-22T17:51:35.000Z</time>
      </trkpt>
      <trkpt lat="37.98071810044348239898681640625" lon="-1.123585067689418792724609375">
        <ele>43.40000152587890625</ele>
        <time>2020-02-22T17:51:37.000Z</time>
      </trkpt>
      <trkpt lat="37.980812229216098785400390625" lon="-1.12299875356256961822509765625">
        <ele>43.200000762939453125</ele>
        <time>2020-02-22T17:51:44.000Z</time>
      </trkpt>
      <trkpt lat="37.98083863221108913421630859375" lon="-1.1228368990123271942138671875">
        <ele>43.200000762939453125</ele>
        <time>2020-02-22T17:51:46.000Z</time>
      </trkpt>
      <trkpt lat="37.9808507859706878662109375" lon="-1.12269113771617412567138671875">
        <ele>43.200000762939453125</ele>
        <time>2020-02-22T17:51:48.000Z</time>
      </trkpt>
      <trkpt lat="37.9808643646538257598876953125" lon="-1.12256725318729877471923828125">
        <ele>43.200000762939453125</ele>
        <time>2020-02-22T17:51:50.000Z</time>
      </trkpt>
      <trkpt lat="37.980916164815425872802734375" lon="-1.122315041720867156982421875">
        <ele>43.200000762939453125</ele>
        <time>2020-02-22T17:51:55.000Z</time>
      </trkpt>
      <trkpt lat="37.98092312179505825042724609375" lon="-1.12227790988981723785400390625">
        <ele>43.200000762939453125</ele>
        <time>2020-02-22T17:51:56.000Z</time>
      </trkpt>
      <trkpt lat="37.98094156198203563690185546875" lon="-1.12213240005075931549072265625">
        <ele>43.200000762939453125</ele>
        <time>2020-02-22T17:52:01.000Z</time>
      </trkpt>
      <trkpt lat="37.980943657457828521728515625" lon="-1.12211848609149456024169921875">
        <ele>43.200000762939453125</ele>
        <time>2020-02-22T17:52:02.000Z</time>
      </trkpt>
      <trkpt lat="37.98094642348587512969970703125" lon="-1.12209417857229709625244140625">
        <ele>43.40000152587890625</ele>
        <time>2020-02-22T17:52:04.000Z</time>
      </trkpt>
      <trkpt lat="37.98095547594130039215087890625" lon="-1.12199979834258556365966796875">
        <ele>43.40000152587890625</ele>
        <time>2020-02-22T17:52:08.000Z</time>
      </trkpt>
      <trkpt lat="37.9809688031673431396484375" lon="-1.12192335538566112518310546875">
        <ele>43.40000152587890625</ele>
        <time>2020-02-22T17:52:10.000Z</time>
      </trkpt>
      <trkpt lat="37.9809934459626674652099609375" lon="-1.12178036011755466461181640625">
        <ele>43.40000152587890625</ele>
        <time>2020-02-22T17:52:13.000Z</time>
      </trkpt>
      <trkpt lat="37.98102906905114650726318359375" lon="-1.1215853132307529449462890625">
        <ele>43.40000152587890625</ele>
        <time>2020-02-22T17:52:16.000Z</time>
      </trkpt>
      <trkpt lat="37.98104298301041126251220703125" lon="-1.12151096574962139129638671875">
        <ele>43.40000152587890625</ele>
        <time>2020-02-22T17:52:17.000Z</time>
      </trkpt>
      <trkpt lat="37.98106737434864044189453125" lon="-1.12135640345513820648193359375">
        <ele>43.200000762939453125</ele>
        <time>2020-02-22T17:52:19.000Z</time>
      </trkpt>
      <trkpt lat="37.98109847120940685272216796875" lon="-1.1211927048861980438232421875">
        <ele>43.200000762939453125</ele>
        <time>2020-02-22T17:52:21.000Z</time>
      </trkpt>
      <trkpt lat="37.9811161570250988006591796875" lon="-1.12111081369221210479736328125">
        <ele>43</ele>
        <time>2020-02-22T17:52:22.000Z</time>
      </trkpt>
      <trkpt lat="37.9811446554958820343017578125" lon="-1.12094703130424022674560546875">
        <ele>43</ele>
        <time>2020-02-22T17:52:24.000Z</time>
      </trkpt>
      <trkpt lat="37.9811721481382846832275390625" lon="-1.12077771686017513275146484375">
        <ele>42.799999237060546875</ele>
        <time>2020-02-22T17:52:26.000Z</time>
      </trkpt>
      <trkpt lat="37.9812137223780155181884765625" lon="-1.12051586620509624481201171875">
        <ele>42.799999237060546875</ele>
        <time>2020-02-22T17:52:29.000Z</time>
      </trkpt>
      <trkpt lat="37.98124247230589389801025390625" lon="-1.12033532001078128814697265625">
        <ele>42.799999237060546875</ele>
        <time>2020-02-22T17:52:31.000Z</time>
      </trkpt>
      <trkpt lat="37.98134087584912776947021484375" lon="-1.119739450514316558837890625">
        <ele>42.799999237060546875</ele>
        <time>2020-02-22T17:52:38.000Z</time>
      </trkpt>
      <trkpt lat="37.9814564622938632965087890625" lon="-1.11914106644690036773681640625">
        <ele>42.59999847412109375</ele>
        <time>2020-02-22T17:52:45.000Z</time>
      </trkpt>
      <trkpt lat="37.9815132915973663330078125" lon="-1.11882054246962070465087890625">
        <ele>42.59999847412109375</ele>
        <time>2020-02-22T17:52:49.000Z</time>
      </trkpt>
      <trkpt lat="37.9815520159900188446044921875" lon="-1.1186043731868267059326171875">
        <ele>42.59999847412109375</ele>
        <time>2020-02-22T17:52:52.000Z</time>
      </trkpt>
      <trkpt lat="37.9815617389976978302001953125" lon="-1.11854041926562786102294921875">
        <ele>42.59999847412109375</ele>
        <time>2020-02-22T17:52:53.000Z</time>
      </trkpt>
      <trkpt lat="37.98158328048884868621826171875" lon="-1.1183472163975238800048828125">
        <ele>42.59999847412109375</ele>
        <time>2020-02-22T17:52:57.000Z</time>
      </trkpt>
      <trkpt lat="37.98158797435462474822998046875" lon="-1.11831125803291797637939453125">
        <ele>42.59999847412109375</ele>
        <time>2020-02-22T17:52:58.000Z</time>
      </trkpt>
      <trkpt lat="37.98159467987716197967529296875" lon="-1.11827437765896320343017578125">
        <ele>42.59999847412109375</ele>
        <time>2020-02-22T17:52:59.000Z</time>
      </trkpt>
      <trkpt lat="37.98160406760871410369873046875" lon="-1.11820346675813198089599609375">
        <ele>42.59999847412109375</ele>
        <time>2020-02-22T17:53:01.000Z</time>
      </trkpt>
      <trkpt lat="37.98161052167415618896484375" lon="-1.11813892610371112823486328125">
        <ele>42.799999237060546875</ele>
        <time>2020-02-22T17:53:03.000Z</time>
      </trkpt>
      <trkpt lat="37.981617562472820281982421875" lon="-1.11801738850772380828857421875">
        <ele>43</ele>
        <time>2020-02-22T17:53:07.000Z</time>
      </trkpt>
      <trkpt lat="37.98164295963943004608154296875" lon="-1.11774615012109279632568359375">
        <ele>43</ele>
        <time>2020-02-22T17:53:13.000Z</time>
      </trkpt>
      <trkpt lat="37.9816673509776592254638671875" lon="-1.11756191588938236236572265625">
        <ele>42.799999237060546875</ele>
        <time>2020-02-22T17:53:16.000Z</time>
      </trkpt>
      <trkpt lat="37.9816938377916812896728515625" lon="-1.11742369830608367919921875">
        <ele>42.799999237060546875</ele>
        <time>2020-02-22T17:53:18.000Z</time>
      </trkpt>
      <trkpt lat="37.981707416474819183349609375" lon="-1.11734859645366668701171875">
        <ele>42.799999237060546875</ele>
        <time>2020-02-22T17:53:19.000Z</time>
      </trkpt>
      <trkpt lat="37.98173583112657070159912109375" lon="-1.11718975938856601715087890625">
        <ele>42.59999847412109375</ele>
        <time>2020-02-22T17:53:21.000Z</time>
      </trkpt>
      <trkpt lat="37.98176516778767108917236328125" lon="-1.11701893620193004608154296875">
        <ele>42.59999847412109375</ele>
        <time>2020-02-22T17:53:23.000Z</time>
      </trkpt>
      <trkpt lat="37.9817976057529449462890625" lon="-1.11684408970177173614501953125">
        <ele>42.40000152587890625</ele>
        <time>2020-02-22T17:53:25.000Z</time>
      </trkpt>
      <trkpt lat="37.98182434402406215667724609375" lon="-1.116671673953533172607421875">
        <ele>42.40000152587890625</ele>
        <time>2020-02-22T17:53:27.000Z</time>
      </trkpt>
      <trkpt lat="37.98189508728682994842529296875" lon="-1.11616180278360843658447265625">
        <ele>42.200000762939453125</ele>
        <time>2020-02-22T17:53:33.000Z</time>
      </trkpt>
      <trkpt lat="37.9819154553115367889404296875" lon="-1.11599483527243137359619140625">
        <ele>42</ele>
        <time>2020-02-22T17:53:35.000Z</time>
      </trkpt>
      <trkpt lat="37.981946803629398345947265625" lon="-1.1156502552330493927001953125">
        <ele>41.799999237060546875</ele>
        <time>2020-02-22T17:53:40.000Z</time>
      </trkpt>
      <trkpt lat="37.9819612205028533935546875" lon="-1.11538630910217761993408203125">
        <ele>42</ele>
        <time>2020-02-22T17:53:45.000Z</time>
      </trkpt>
      <trkpt lat="37.98195996321737766265869140625" lon="-1.11533786170184612274169921875">
        <ele>42</ele>
        <time>2020-02-22T17:53:46.000Z</time>
      </trkpt>
      <trkpt lat="37.98196298070251941680908203125" lon="-1.1152465827763080596923828125">
        <ele>42</ele>
        <time>2020-02-22T17:53:48.000Z</time>
      </trkpt>
      <trkpt lat="37.981973625719547271728515625" lon="-1.1151362769305706024169921875">
        <ele>42.200000762939453125</ele>
        <time>2020-02-22T17:53:51.000Z</time>
      </trkpt>
      <trkpt lat="37.9819855280220508575439453125" lon="-1.11507383175194263458251953125">
        <ele>42.200000762939453125</ele>
        <time>2020-02-22T17:53:53.000Z</time>
      </trkpt>
      <trkpt lat="37.98198292963206768035888671875" lon="-1.1149512045085430145263671875">
        <ele>42.40000152587890625</ele>
        <time>2020-02-22T17:53:58.000Z</time>
      </trkpt>
      <trkpt lat="37.98197396099567413330078125" lon="-1.11491608433425426483154296875">
        <ele>42.40000152587890625</ele>
        <time>2020-02-22T17:54:01.000Z</time>
      </trkpt>
      <trkpt lat="37.9819469712674617767333984375" lon="-1.11469698138535022735595703125">
        <ele>42.59999847412109375</ele>
        <time>2020-02-22T17:54:27.000Z</time>
      </trkpt>
      <trkpt lat="37.981943450868129730224609375" lon="-1.11466479487717151641845703125">
        <ele>42.59999847412109375</ele>
        <time>2020-02-22T17:54:28.000Z</time>
      </trkpt>
      <trkpt lat="37.98191352747380733489990234375" lon="-1.11457795836031436920166015625">
        <ele>42.59999847412109375</ele>
        <time>2020-02-22T17:54:30.000Z</time>
      </trkpt>
      <trkpt lat="37.98184362240135669708251953125" lon="-1.11450134776532649993896484375">
        <ele>42.59999847412109375</ele>
        <time>2020-02-22T17:54:32.000Z</time>
      </trkpt>
      <trkpt lat="37.98173390328884124755859375" lon="-1.11439556814730167388916015625">
        <ele>42.40000152587890625</ele>
        <time>2020-02-22T17:54:35.000Z</time>
      </trkpt>
      <trkpt lat="37.981694005429744720458984375" lon="-1.1143007688224315643310546875">
        <ele>42.200000762939453125</ele>
        <time>2020-02-22T17:54:37.000Z</time>
      </trkpt>
      <trkpt lat="37.98169509507715702056884765625" lon="-1.11405509524047374725341796875">
        <ele>42.200000762939453125</ele>
        <time>2020-02-22T17:54:41.000Z</time>
      </trkpt>
      <trkpt lat="37.98177472315728664398193359375" lon="-1.11390958540141582489013671875">
        <ele>42.200000762939453125</ele>
        <time>2020-02-22T17:54:44.000Z</time>
      </trkpt>
      <trkpt lat="37.98190766014158725738525390625" lon="-1.11386667005717754364013671875">
        <ele>42.200000762939453125</ele>
        <time>2020-02-22T17:54:47.000Z</time>
      </trkpt>
      <trkpt lat="37.98198041506111621856689453125" lon="-1.11388846300542354583740234375">
        <ele>42.200000762939453125</ele>
        <time>2020-02-22T17:54:49.000Z</time>
      </trkpt>
      <trkpt lat="37.982007153332233428955078125" lon="-1.1138999462127685546875">
        <ele>42.200000762939453125</ele>
        <time>2020-02-22T17:54:50.000Z</time>
      </trkpt>
      <trkpt lat="37.9820301197469234466552734375" lon="-1.11391377635300159454345703125">
        <ele>42.200000762939453125</ele>
        <time>2020-02-22T17:54:51.000Z</time>
      </trkpt>
      <trkpt lat="37.98210480250418186187744140625" lon="-1.1139775626361370086669921875">
        <ele>42.40000152587890625</ele>
        <time>2020-02-22T17:54:54.000Z</time>
      </trkpt>
      <trkpt lat="37.98216682858765125274658203125" lon="-1.11404788680374622344970703125">
        <ele>42.40000152587890625</ele>
        <time>2020-02-22T17:54:56.000Z</time>
      </trkpt>
      <trkpt lat="37.9823045432567596435546875" lon="-1.1141086556017398834228515625">
        <ele>42.40000152587890625</ele>
        <time>2020-02-22T17:54:59.000Z</time>
      </trkpt>
      <trkpt lat="37.98235793597996234893798828125" lon="-1.11411745660006999969482421875">
        <ele>42.40000152587890625</ele>
        <time>2020-02-22T17:55:00.000Z</time>
      </trkpt>
      <trkpt lat="37.982533536851406097412109375" lon="-1.11414293758571147918701171875">
        <ele>42.200000762939453125</ele>
        <time>2020-02-22T17:55:03.000Z</time>
      </trkpt>
      <trkpt lat="37.9826466925442218780517578125" lon="-1.1141668260097503662109375">
        <ele>42.200000762939453125</ele>
        <time>2020-02-22T17:55:05.000Z</time>
      </trkpt>
      <trkpt lat="37.98301222734153270721435546875" lon="-1.11421644687652587890625">
        <ele>42.200000762939453125</ele>
        <time>2020-02-22T17:55:12.000Z</time>
      </trkpt>
      <trkpt lat="37.98306989483535289764404296875" lon="-1.1142246611416339874267578125">
        <ele>42</ele>
        <time>2020-02-22T17:55:13.000Z</time>
      </trkpt>
      <trkpt lat="37.9833239503204822540283203125" lon="-1.11430269666016101837158203125">
        <ele>42</ele>
        <time>2020-02-22T17:55:17.000Z</time>
      </trkpt>
      <trkpt lat="37.98369057476520538330078125" lon="-1.1144162714481353759765625">
        <ele>41.799999237060546875</ele>
        <time>2020-02-22T17:55:23.000Z</time>
      </trkpt>
      <trkpt lat="37.98415099270641803741455078125" lon="-1.11456790007650852203369140625">
        <ele>41.59999847412109375</ele>
        <time>2020-02-22T17:55:30.000Z</time>
      </trkpt>
      <trkpt lat="37.9845762066543102264404296875" lon="-1.11471106298267841339111328125">
        <ele>41.59999847412109375</ele>
        <time>2020-02-22T17:55:36.000Z</time>
      </trkpt>
      <trkpt lat="37.984799332916736602783203125" lon="-1.1147828958928585052490234375">
        <ele>41.59999847412109375</ele>
        <time>2020-02-22T17:55:39.000Z</time>
      </trkpt>
      <trkpt lat="37.98532529734075069427490234375" lon="-1.11496503464877605438232421875">
        <ele>41.59999847412109375</ele>
        <time>2020-02-22T17:55:46.000Z</time>
      </trkpt>
      <trkpt lat="37.985530905425548553466796875" lon="-1.11503653228282928466796875">
        <ele>41.59999847412109375</ele>
        <time>2020-02-22T17:55:49.000Z</time>
      </trkpt>
      <trkpt lat="37.98573064617812633514404296875" lon="-1.115107275545597076416015625">
        <ele>41.59999847412109375</ele>
        <time>2020-02-22T17:55:52.000Z</time>
      </trkpt>
      <trkpt lat="37.98595058731734752655029296875" lon="-1.11518204212188720703125">
        <ele>41.799999237060546875</ele>
        <time>2020-02-22T17:55:56.000Z</time>
      </trkpt>
      <trkpt lat="37.98609626479446887969970703125" lon="-1.1152288131415843963623046875">
        <ele>41.799999237060546875</ele>
        <time>2020-02-22T17:55:59.000Z</time>
      </trkpt>
      <trkpt lat="37.9861749708652496337890625" lon="-1.115254461765289306640625">
        <ele>42</ele>
        <time>2020-02-22T17:56:01.000Z</time>
      </trkpt>
      <trkpt lat="37.986208833754062652587890625" lon="-1.115266196429729461669921875">
        <ele>42</ele>
        <time>2020-02-22T17:56:02.000Z</time>
      </trkpt>
      <trkpt lat="37.98632157035171985626220703125" lon="-1.115301065146923065185546875">
        <ele>42</ele>
        <time>2020-02-22T17:56:05.000Z</time>
      </trkpt>
      <trkpt lat="37.98648686148226261138916015625" lon="-1.11534624360501766204833984375">
        <ele>42</ele>
        <time>2020-02-22T17:56:09.000Z</time>
      </trkpt>
      <trkpt lat="37.98665684647858142852783203125" lon="-1.11538714729249477386474609375">
        <ele>42</ele>
        <time>2020-02-22T17:56:13.000Z</time>
      </trkpt>
      <trkpt lat="37.98669758252799510955810546875" lon="-1.115388236939907073974609375">
        <ele>42</ele>
        <time>2020-02-22T17:56:14.000Z</time>
      </trkpt>
      <trkpt lat="37.98678928054869174957275390625" lon="-1.11538865603506565093994140625">
        <ele>42</ele>
        <time>2020-02-22T17:56:16.000Z</time>
      </trkpt>
      <trkpt lat="37.98699245788156986236572265625" lon="-1.11539402045309543609619140625">
        <ele>41.799999237060546875</ele>
        <time>2020-02-22T17:56:20.000Z</time>
      </trkpt>
      <trkpt lat="37.98709069378674030303955078125" lon="-1.11541799269616603851318359375">
        <ele>41.59999847412109375</ele>
        <time>2020-02-22T17:56:22.000Z</time>
      </trkpt>
      <trkpt lat="37.98714115284383296966552734375" lon="-1.1154242791235446929931640625">
        <ele>41.59999847412109375</ele>
        <time>2020-02-22T17:56:23.000Z</time>
      </trkpt>
      <trkpt lat="37.98736411146819591522216796875" lon="-1.11542411148548126220703125">
        <ele>41.59999847412109375</ele>
        <time>2020-02-22T17:56:27.000Z</time>
      </trkpt>
      <trkpt lat="37.9874203540384769439697265625" lon="-1.11542436294257640838623046875">
        <ele>41.59999847412109375</ele>
        <time>2020-02-22T17:56:28.000Z</time>
      </trkpt>
      <trkpt lat="37.9876050911843776702880859375" lon="-1.11543710343539714813232421875">
        <ele>41.59999847412109375</ele>
        <time>2020-02-22T17:56:31.000Z</time>
      </trkpt>
      <trkpt lat="37.98780751414597034454345703125" lon="-1.11545361578464508056640625">
        <ele>41.59999847412109375</ele>
        <time>2020-02-22T17:56:34.000Z</time>
      </trkpt>
      <trkpt lat="37.9882179759442806243896484375" lon="-1.1155751533806324005126953125">
        <ele>41.59999847412109375</ele>
        <time>2020-02-22T17:56:40.000Z</time>
      </trkpt>
      <trkpt lat="37.9884804971516132354736328125" lon="-1.11568973399698734283447265625">
        <ele>41.59999847412109375</ele>
        <time>2020-02-22T17:56:44.000Z</time>
      </trkpt>
      <trkpt lat="37.988663055002689361572265625" lon="-1.11579283140599727630615234375">
        <ele>41.40000152587890625</ele>
        <time>2020-02-22T17:56:47.000Z</time>
      </trkpt>
      <trkpt lat="37.988821975886821746826171875" lon="-1.1159037239849567413330078125">
        <ele>41.40000152587890625</ele>
        <time>2020-02-22T17:56:50.000Z</time>
      </trkpt>
      <trkpt lat="37.98897712491452693939208984375" lon="-1.11601042561233043670654296875">
        <ele>41.40000152587890625</ele>
        <time>2020-02-22T17:56:53.000Z</time>
      </trkpt>
      <trkpt lat="37.98912213183939456939697265625" lon="-1.11613330431282520294189453125">
        <ele>41.40000152587890625</ele>
        <time>2020-02-22T17:56:56.000Z</time>
      </trkpt>
      <trkpt lat="37.98919555731117725372314453125" lon="-1.116245202720165252685546875">
        <ele>41.200000762939453125</ele>
        <time>2020-02-22T17:56:58.000Z</time>
      </trkpt>
      <trkpt lat="37.9892999120056629180908203125" lon="-1.11640588380396366119384765625">
        <ele>41</ele>
        <time>2020-02-22T17:57:01.000Z</time>
      </trkpt>
      <trkpt lat="37.98933587037026882171630859375" lon="-1.1164529062807559967041015625">
        <ele>41</ele>
        <time>2020-02-22T17:57:02.000Z</time>
      </trkpt>
      <trkpt lat="37.98936738632619380950927734375" lon="-1.116498671472072601318359375">
        <ele>41</ele>
        <time>2020-02-22T17:57:03.000Z</time>
      </trkpt>
      <trkpt lat="37.98942119814455509185791015625" lon="-1.11657209694385528564453125">
        <ele>41</ele>
        <time>2020-02-22T17:57:05.000Z</time>
      </trkpt>
      <trkpt lat="37.9894937016069889068603515625" lon="-1.11668382771313190460205078125">
        <ele>41</ele>
        <time>2020-02-22T17:57:08.000Z</time>
      </trkpt>
      <trkpt lat="37.9895433224737644195556640625" lon="-1.1167814768850803375244140625">
        <ele>41.200000762939453125</ele>
        <time>2020-02-22T17:57:11.000Z</time>
      </trkpt>
      <trkpt lat="37.98956167884171009063720703125" lon="-1.11679446883499622344970703125">
        <ele>41.200000762939453125</ele>
        <time>2020-02-22T17:57:12.000Z</time>
      </trkpt>
      <trkpt lat="37.98957693390548229217529296875" lon="-1.11680670641362667083740234375">
        <ele>41.200000762939453125</ele>
        <time>2020-02-22T17:57:13.000Z</time>
      </trkpt>
      <trkpt lat="37.9895976372063159942626953125" lon="-1.11682799644768238067626953125">
        <ele>41.200000762939453125</ele>
        <time>2020-02-22T17:57:15.000Z</time>
      </trkpt>
      <trkpt lat="37.9896081984043121337890625" lon="-1.11683872528374195098876953125">
        <ele>41.40000152587890625</ele>
        <time>2020-02-22T17:57:17.000Z</time>
      </trkpt>
    </trkseg>
  </trk>
</gpx>
